<?xml version="1.0" encoding="UTF-8"?>
<TrainingCenterDatabase xmlns="http://www.garmin.com/xmlschemas/TrainingCenterDatabase/v2" xmlns:xsi="http://www.w3.org/2001/XMLSchema-instance" xsi:schemaLocation="http://www.garmin.com/xmlschemas/TrainingCenterDatabase/v2 http://www.garmin.com/xmlschemas/TrainingCenterDatabasev2.xsd">
  <Activities>
    <Activity Sport="Other">
      <Id>2023-02-23T09:26:29.000Z</Id>
      <Lap StartTime="2023-02-23T09:26:29.000Z">
        <TotalTimeSeconds>19245</TotalTimeSeconds>
        <DistanceMeters>41550</DistanceMeters>
        <Track>
          <Trackpoint>
            <Time>2023-02-23T09:26:29.000Z</Time>
            <Position>
              <LatitudeDegrees>41.58009356819093227386474609375</LatitudeDegrees>
              <LongitudeDegrees>-4.57519822753965854644775390625</LongitudeDegrees>
            </Position>
            <AltitudeMeters>1170.199951171875</AltitudeMeters>
            <DistanceMeters>0</DistanceMeters>
          </Trackpoint>
          <Trackpoint>
            <Time>2023-02-23T09:26:34.000Z</Time>
            <Position>
              <LatitudeDegrees>41.57999449409544467926025390625</LatitudeDegrees>
              <LongitudeDegrees>-4.5750695653259754180908203125</LongitudeDegrees>
            </Position>
            <AltitudeMeters>1170.800048828125</AltitudeMeters>
            <DistanceMeters>15.37319617683</DistanceMeters>
          </Trackpoint>
          <Trackpoint>
            <Time>2023-02-23T09:26:36.000Z</Time>
            <Position>
              <LatitudeDegrees>41.57996155321598052978515625</LatitudeDegrees>
              <LongitudeDegrees>-4.57501851953566074371337890625</LongitudeDegrees>
            </Position>
            <AltitudeMeters>1171.199951171875</AltitudeMeters>
            <DistanceMeters>20.9862111165</DistanceMeters>
          </Trackpoint>
          <Trackpoint>
            <Time>2023-02-23T09:26:42.000Z</Time>
            <Position>
              <LatitudeDegrees>41.5798551030457019805908203125</LatitudeDegrees>
              <LongitudeDegrees>-4.5748613588511943817138671875</LongitudeDegrees>
            </Position>
            <AltitudeMeters>1171</AltitudeMeters>
            <DistanceMeters>38.63817468363</DistanceMeters>
          </Trackpoint>
          <Trackpoint>
            <Time>2023-02-23T09:26:43.000Z</Time>
            <Position>
              <LatitudeDegrees>41.5798361599445343017578125</LatitudeDegrees>
              <LongitudeDegrees>-4.57483579404652118682861328125</LongitudeDegrees>
            </Position>
            <AltitudeMeters>1171.199951171875</AltitudeMeters>
            <DistanceMeters>41.634154654406</DistanceMeters>
          </Trackpoint>
          <Trackpoint>
            <Time>2023-02-23T09:26:49.000Z</Time>
            <Position>
              <LatitudeDegrees>41.57973222434520721435546875</LatitudeDegrees>
              <LongitudeDegrees>-4.57471559755504131317138671875</LongitudeDegrees>
            </Position>
            <AltitudeMeters>1171.800048828125</AltitudeMeters>
            <DistanceMeters>56.930209069285</DistanceMeters>
          </Trackpoint>
          <Trackpoint>
            <Time>2023-02-23T09:26:53.000Z</Time>
            <Position>
              <LatitudeDegrees>41.57964949496090412139892578125</LatitudeDegrees>
              <LongitudeDegrees>-4.57480050623416900634765625</LongitudeDegrees>
            </Position>
            <AltitudeMeters>1172.199951171875</AltitudeMeters>
            <DistanceMeters>68.539035919989</DistanceMeters>
          </Trackpoint>
          <Trackpoint>
            <Time>2023-02-23T09:27:01.000Z</Time>
            <Position>
              <LatitudeDegrees>41.57955461181700229644775390625</LatitudeDegrees>
              <LongitudeDegrees>-4.5750987343490123748779296875</LongitudeDegrees>
            </Position>
            <AltitudeMeters>1172.4000244140625</AltitudeMeters>
            <DistanceMeters>95.521435985493</DistanceMeters>
          </Trackpoint>
          <Trackpoint>
            <Time>2023-02-23T09:27:08.000Z</Time>
            <Position>
              <LatitudeDegrees>41.5794725529849529266357421875</LatitudeDegrees>
              <LongitudeDegrees>-4.57536377012729644775390625</LongitudeDegrees>
            </Position>
            <AltitudeMeters>1172.5999755859375</AltitudeMeters>
            <DistanceMeters>119.40322042889</DistanceMeters>
          </Trackpoint>
          <Trackpoint>
            <Time>2023-02-23T09:27:11.000Z</Time>
            <Position>
              <LatitudeDegrees>41.57943139784038066864013671875</LatitudeDegrees>
              <LongitudeDegrees>-4.57547918893396854400634765625</LongitudeDegrees>
            </Position>
            <AltitudeMeters>1173.199951171875</AltitudeMeters>
            <DistanceMeters>130.04875749245</DistanceMeters>
          </Trackpoint>
          <Trackpoint>
            <Time>2023-02-23T09:27:15.000Z</Time>
            <Position>
              <LatitudeDegrees>41.57937373034656047821044921875</LatitudeDegrees>
              <LongitudeDegrees>-4.57565722055733203887939453125</LongitudeDegrees>
            </Position>
            <AltitudeMeters>1173.199951171875</AltitudeMeters>
            <DistanceMeters>146.20134238451</DistanceMeters>
          </Trackpoint>
          <Trackpoint>
            <Time>2023-02-23T09:27:16.000Z</Time>
            <Position>
              <LatitudeDegrees>41.57936149276793003082275390625</LatitudeDegrees>
              <LongitudeDegrees>-4.57570315338671207427978515625</LongitudeDegrees>
            </Position>
            <AltitudeMeters>1173.4000244140625</AltitudeMeters>
            <DistanceMeters>150.26088540192</DistanceMeters>
          </Trackpoint>
          <Trackpoint>
            <Time>2023-02-23T09:27:21.000Z</Time>
            <Position>
              <LatitudeDegrees>41.57930047251284122467041015625</LatitudeDegrees>
              <LongitudeDegrees>-4.5758621580898761749267578125</LongitudeDegrees>
            </Position>
            <AltitudeMeters>1173.199951171875</AltitudeMeters>
            <DistanceMeters>165.13977494719</DistanceMeters>
          </Trackpoint>
          <Trackpoint>
            <Time>2023-02-23T09:27:28.000Z</Time>
            <Position>
              <LatitudeDegrees>41.57917373813688755035400390625</LatitudeDegrees>
              <LongitudeDegrees>-4.57602250389754772186279296875</LongitudeDegrees>
            </Position>
            <AltitudeMeters>1173.5999755859375</AltitudeMeters>
            <DistanceMeters>184.56152443628</DistanceMeters>
          </Trackpoint>
          <Trackpoint>
            <Time>2023-02-23T09:27:35.000Z</Time>
            <Position>
              <LatitudeDegrees>41.5789662860333919525146484375</LatitudeDegrees>
              <LongitudeDegrees>-4.57598260603845119476318359375</LongitudeDegrees>
            </Position>
            <AltitudeMeters>1174.199951171875</AltitudeMeters>
            <DistanceMeters>207.88898607843</DistanceMeters>
          </Trackpoint>
          <Trackpoint>
            <Time>2023-02-23T09:27:36.000Z</Time>
            <Position>
              <LatitudeDegrees>41.57893334515392780303955078125</LatitudeDegrees>
              <LongitudeDegrees>-4.57597858272492885589599609375</LongitudeDegrees>
            </Position>
            <AltitudeMeters>1174.5999755859375</AltitudeMeters>
            <DistanceMeters>211.56935490043</DistanceMeters>
          </Trackpoint>
          <Trackpoint>
            <Time>2023-02-23T09:27:38.000Z</Time>
            <Position>
              <LatitudeDegrees>41.57886947505176067352294921875</LatitudeDegrees>
              <LongitudeDegrees>-4.57599031738936901092529296875</LongitudeDegrees>
            </Position>
            <AltitudeMeters>1175</AltitudeMeters>
            <DistanceMeters>218.74497305383</DistanceMeters>
          </Trackpoint>
          <Trackpoint>
            <Time>2023-02-23T09:27:43.000Z</Time>
            <Position>
              <LatitudeDegrees>41.57872949726879596710205078125</LatitudeDegrees>
              <LongitudeDegrees>-4.57601261325180530548095703125</LongitudeDegrees>
            </Position>
            <AltitudeMeters>1175.5999755859375</AltitudeMeters>
            <DistanceMeters>234.43503181775</DistanceMeters>
          </Trackpoint>
          <Trackpoint>
            <Time>2023-02-23T09:27:44.000Z</Time>
            <Position>
              <LatitudeDegrees>41.57870317809283733367919921875</LatitudeDegrees>
              <LongitudeDegrees>-4.576011858880519866943359375</LongitudeDegrees>
            </Position>
            <AltitudeMeters>1175.800048828125</AltitudeMeters>
            <DistanceMeters>237.36703331411</DistanceMeters>
          </Trackpoint>
          <Trackpoint>
            <Time>2023-02-23T09:27:50.000Z</Time>
            <Position>
              <LatitudeDegrees>41.57853704877197742462158203125</LatitudeDegrees>
              <LongitudeDegrees>-4.5759786665439605712890625</LongitudeDegrees>
            </Position>
            <AltitudeMeters>1176.800048828125</AltitudeMeters>
            <DistanceMeters>256.06292053544</DistanceMeters>
          </Trackpoint>
          <Trackpoint>
            <Time>2023-02-23T09:27:51.000Z</Time>
            <Position>
              <LatitudeDegrees>41.5785069577395915985107421875</LatitudeDegrees>
              <LongitudeDegrees>-4.5759724639356136322021484375</LongitudeDegrees>
            </Position>
            <AltitudeMeters>1176.800048828125</AltitudeMeters>
            <DistanceMeters>259.45339060804</DistanceMeters>
          </Trackpoint>
          <Trackpoint>
            <Time>2023-02-23T09:27:57.000Z</Time>
            <Position>
              <LatitudeDegrees>41.5783312730491161346435546875</LatitudeDegrees>
              <LongitudeDegrees>-4.5759308896958827972412109375</LongitudeDegrees>
            </Position>
            <AltitudeMeters>1177.4000244140625</AltitudeMeters>
            <DistanceMeters>279.31147305091</DistanceMeters>
          </Trackpoint>
          <Trackpoint>
            <Time>2023-02-23T09:28:01.000Z</Time>
            <Position>
              <LatitudeDegrees>41.578223146498203277587890625</LatitudeDegrees>
              <LongitudeDegrees>-4.575963579118251800537109375</LongitudeDegrees>
            </Position>
            <AltitudeMeters>1177.5999755859375</AltitudeMeters>
            <DistanceMeters>291.64958590062</DistanceMeters>
          </Trackpoint>
          <Trackpoint>
            <Time>2023-02-23T09:28:02.000Z</Time>
            <Position>
              <LatitudeDegrees>41.578208394348621368408203125</LatitudeDegrees>
              <LongitudeDegrees>-4.57598998211324214935302734375</LongitudeDegrees>
            </Position>
            <AltitudeMeters>1177.5999755859375</AltitudeMeters>
            <DistanceMeters>294.39222216484</DistanceMeters>
          </Trackpoint>
          <Trackpoint>
            <Time>2023-02-23T09:28:03.000Z</Time>
            <Position>
              <LatitudeDegrees>41.578195989131927490234375</LatitudeDegrees>
              <LongitudeDegrees>-4.576019234955310821533203125</LongitudeDegrees>
            </Position>
            <AltitudeMeters>1177.800048828125</AltitudeMeters>
            <DistanceMeters>297.19349623744</DistanceMeters>
          </Trackpoint>
          <Trackpoint>
            <Time>2023-02-23T09:28:06.000Z</Time>
            <Position>
              <LatitudeDegrees>41.5781368128955364227294921875</LatitudeDegrees>
              <LongitudeDegrees>-4.57609039731323719024658203125</LongitudeDegrees>
            </Position>
            <AltitudeMeters>1178.5999755859375</AltitudeMeters>
            <DistanceMeters>306.05241233222</DistanceMeters>
          </Trackpoint>
          <Trackpoint>
            <Time>2023-02-23T09:28:08.000Z</Time>
            <Position>
              <LatitudeDegrees>41.578087024390697479248046875</LatitudeDegrees>
              <LongitudeDegrees>-4.5761260204017162322998046875</LongitudeDegrees>
            </Position>
            <AltitudeMeters>1178.800048828125</AltitudeMeters>
            <DistanceMeters>312.33783868548</DistanceMeters>
          </Trackpoint>
          <Trackpoint>
            <Time>2023-02-23T09:28:11.000Z</Time>
            <Position>
              <LatitudeDegrees>41.57801837660372257232666015625</LatitudeDegrees>
              <LongitudeDegrees>-4.576169438660144805908203125</LongitudeDegrees>
            </Position>
            <AltitudeMeters>1178.800048828125</AltitudeMeters>
            <DistanceMeters>320.79041017732</DistanceMeters>
          </Trackpoint>
          <Trackpoint>
            <Time>2023-02-23T09:28:15.000Z</Time>
            <Position>
              <LatitudeDegrees>41.577915363013744354248046875</LatitudeDegrees>
              <LongitudeDegrees>-4.57619114778935909271240234375</LongitudeDegrees>
            </Position>
            <AltitudeMeters>1178.4000244140625</AltitudeMeters>
            <DistanceMeters>332.39768119784</DistanceMeters>
          </Trackpoint>
          <Trackpoint>
            <Time>2023-02-23T09:28:19.000Z</Time>
            <Position>
              <LatitudeDegrees>41.57781117595732212066650390625</LatitudeDegrees>
              <LongitudeDegrees>-4.57620020024478435516357421875</LongitudeDegrees>
            </Position>
            <AltitudeMeters>1177.800048828125</AltitudeMeters>
            <DistanceMeters>344.01894719152</DistanceMeters>
          </Trackpoint>
          <Trackpoint>
            <Time>2023-02-23T09:28:22.000Z</Time>
            <Position>
              <LatitudeDegrees>41.57774864695966243743896484375</LatitudeDegrees>
              <LongitudeDegrees>-4.57617706619203090667724609375</LongitudeDegrees>
            </Position>
            <AltitudeMeters>1177.800048828125</AltitudeMeters>
            <DistanceMeters>351.23972702388</DistanceMeters>
          </Trackpoint>
          <Trackpoint>
            <Time>2023-02-23T09:28:24.000Z</Time>
            <Position>
              <LatitudeDegrees>41.57769483514130115509033203125</LatitudeDegrees>
              <LongitudeDegrees>-4.5761632360517978668212890625</LongitudeDegrees>
            </Position>
            <AltitudeMeters>1177.800048828125</AltitudeMeters>
            <DistanceMeters>357.33774758765</DistanceMeters>
          </Trackpoint>
          <Trackpoint>
            <Time>2023-02-23T09:28:25.000Z</Time>
            <Position>
              <LatitudeDegrees>41.57766968943178653717041015625</LatitudeDegrees>
              <LongitudeDegrees>-4.57617220468819141387939453125</LongitudeDegrees>
            </Position>
            <AltitudeMeters>1177.800048828125</AltitudeMeters>
            <DistanceMeters>360.2325551702</DistanceMeters>
          </Trackpoint>
          <Trackpoint>
            <Time>2023-02-23T09:28:26.000Z</Time>
            <Position>
              <LatitudeDegrees>41.57764923758804798126220703125</LatitudeDegrees>
              <LongitudeDegrees>-4.57619500346481800079345703125</LongitudeDegrees>
            </Position>
            <AltitudeMeters>1177.800048828125</AltitudeMeters>
            <DistanceMeters>363.19519492277</DistanceMeters>
          </Trackpoint>
          <Trackpoint>
            <Time>2023-02-23T09:28:27.000Z</Time>
            <Position>
              <LatitudeDegrees>41.5776352398097515106201171875</LatitudeDegrees>
              <LongitudeDegrees>-4.57622953690588474273681640625</LongitudeDegrees>
            </Position>
            <AltitudeMeters>1177.800048828125</AltitudeMeters>
            <DistanceMeters>366.46499774705</DistanceMeters>
          </Trackpoint>
          <Trackpoint>
            <Time>2023-02-23T09:28:30.000Z</Time>
            <Position>
              <LatitudeDegrees>41.5776027180254459381103515625</LatitudeDegrees>
              <LongitudeDegrees>-4.57634755410254001617431640625</LongitudeDegrees>
            </Position>
            <AltitudeMeters>1178</AltitudeMeters>
            <DistanceMeters>376.93692442438</DistanceMeters>
          </Trackpoint>
          <Trackpoint>
            <Time>2023-02-23T09:28:32.000Z</Time>
            <Position>
              <LatitudeDegrees>41.57758503220975399017333984375</LatitudeDegrees>
              <LongitudeDegrees>-4.57643397152423858642578125</LongitudeDegrees>
            </Position>
            <AltitudeMeters>1178</AltitudeMeters>
            <DistanceMeters>384.39637018446</DistanceMeters>
          </Trackpoint>
          <Trackpoint>
            <Time>2023-02-23T09:28:36.000Z</Time>
            <Position>
              <LatitudeDegrees>41.5775611437857151031494140625</LatitudeDegrees>
              <LongitudeDegrees>-4.5766215585172176361083984375</LongitudeDegrees>
            </Position>
            <AltitudeMeters>1178</AltitudeMeters>
            <DistanceMeters>400.23934985485</DistanceMeters>
          </Trackpoint>
          <Trackpoint>
            <Time>2023-02-23T09:28:38.000Z</Time>
            <Position>
              <LatitudeDegrees>41.5775514207780361175537109375</LatitudeDegrees>
              <LongitudeDegrees>-4.57671786658465862274169921875</LongitudeDegrees>
            </Position>
            <AltitudeMeters>1178</AltitudeMeters>
            <DistanceMeters>408.33058302531</DistanceMeters>
          </Trackpoint>
          <Trackpoint>
            <Time>2023-02-23T09:28:44.000Z</Time>
            <Position>
              <LatitudeDegrees>41.5774991177022457122802734375</LatitudeDegrees>
              <LongitudeDegrees>-4.577038474380970001220703125</LongitudeDegrees>
            </Position>
            <AltitudeMeters>1177.800048828125</AltitudeMeters>
            <DistanceMeters>435.65204417152</DistanceMeters>
          </Trackpoint>
          <Trackpoint>
            <Time>2023-02-23T09:28:45.000Z</Time>
            <Position>
              <LatitudeDegrees>41.5774863772094249725341796875</LatitudeDegrees>
              <LongitudeDegrees>-4.577092789113521575927734375</LongitudeDegrees>
            </Position>
            <AltitudeMeters>1177.800048828125</AltitudeMeters>
            <DistanceMeters>440.39196296751</DistanceMeters>
          </Trackpoint>
          <Trackpoint>
            <Time>2023-02-23T09:28:47.000Z</Time>
            <Position>
              <LatitudeDegrees>41.57746533863246440887451171875</LatitudeDegrees>
              <LongitudeDegrees>-4.5771952159702777862548828125</LongitudeDegrees>
            </Position>
            <AltitudeMeters>1177.800048828125</AltitudeMeters>
            <DistanceMeters>449.23608656217</DistanceMeters>
          </Trackpoint>
          <Trackpoint>
            <Time>2023-02-23T09:28:53.000Z</Time>
            <Position>
              <LatitudeDegrees>41.57740666531026363372802734375</LatitudeDegrees>
              <LongitudeDegrees>-4.57751800306141376495361328125</LongitudeDegrees>
            </Position>
            <AltitudeMeters>1177.4000244140625</AltitudeMeters>
            <DistanceMeters>476.89359504664</DistanceMeters>
          </Trackpoint>
          <Trackpoint>
            <Time>2023-02-23T09:28:54.000Z</Time>
            <Position>
              <LatitudeDegrees>41.5773938409984111785888671875</LatitudeDegrees>
              <LongitudeDegrees>-4.57757080905139446258544921875</LongitudeDegrees>
            </Position>
            <AltitudeMeters>1177.4000244140625</AltitudeMeters>
            <DistanceMeters>481.51486443826</DistanceMeters>
          </Trackpoint>
          <Trackpoint>
            <Time>2023-02-23T09:28:58.000Z</Time>
            <Position>
              <LatitudeDegrees>41.57735176384449005126953125</LatitudeDegrees>
              <LongitudeDegrees>-4.5777797698974609375</LongitudeDegrees>
            </Position>
            <AltitudeMeters>1177.5999755859375</AltitudeMeters>
            <DistanceMeters>499.53188938711</DistanceMeters>
          </Trackpoint>
          <Trackpoint>
            <Time>2023-02-23T09:29:00.000Z</Time>
            <Position>
              <LatitudeDegrees>41.5773287974298000335693359375</LatitudeDegrees>
              <LongitudeDegrees>-4.57787674851715564727783203125</LongitudeDegrees>
            </Position>
            <AltitudeMeters>1177.5999755859375</AltitudeMeters>
            <DistanceMeters>508.00153679835</DistanceMeters>
          </Trackpoint>
          <Trackpoint>
            <Time>2023-02-23T09:29:06.000Z</Time>
            <Position>
              <LatitudeDegrees>41.577270962297916412353515625</LatitudeDegrees>
              <LongitudeDegrees>-4.5781574584543704986572265625</LongitudeDegrees>
            </Position>
            <AltitudeMeters>1178</AltitudeMeters>
            <DistanceMeters>532.24396726904</DistanceMeters>
          </Trackpoint>
          <Trackpoint>
            <Time>2023-02-23T09:29:13.000Z</Time>
            <Position>
              <LatitudeDegrees>41.57721254043281078338623046875</LatitudeDegrees>
              <LongitudeDegrees>-4.57852207124233245849609375</LongitudeDegrees>
            </Position>
            <AltitudeMeters>1178</AltitudeMeters>
            <DistanceMeters>563.29051973115</DistanceMeters>
          </Trackpoint>
          <Trackpoint>
            <Time>2023-02-23T09:29:14.000Z</Time>
            <Position>
              <LatitudeDegrees>41.57720156013965606689453125</LatitudeDegrees>
              <LongitudeDegrees>-4.57857881672680377960205078125</LongitudeDegrees>
            </Position>
            <AltitudeMeters>1178</AltitudeMeters>
            <DistanceMeters>568.1712309149</DistanceMeters>
          </Trackpoint>
          <Trackpoint>
            <Time>2023-02-23T09:29:15.000Z</Time>
            <Position>
              <LatitudeDegrees>41.5771903283894062042236328125</LatitudeDegrees>
              <LongitudeDegrees>-4.5786352269351482391357421875</LongitudeDegrees>
            </Position>
            <AltitudeMeters>1177.800048828125</AltitudeMeters>
            <DistanceMeters>573.03154777467</DistanceMeters>
          </Trackpoint>
          <Trackpoint>
            <Time>2023-02-23T09:29:20.000Z</Time>
            <Position>
              <LatitudeDegrees>41.57714196480810642242431640625</LatitudeDegrees>
              <LongitudeDegrees>-4.57890956662595272064208984375</LongitudeDegrees>
            </Position>
            <AltitudeMeters>1177.199951171875</AltitudeMeters>
            <DistanceMeters>596.49872148629</DistanceMeters>
          </Trackpoint>
          <Trackpoint>
            <Time>2023-02-23T09:29:22.000Z</Time>
            <Position>
              <LatitudeDegrees>41.57713048160076141357421875</LatitudeDegrees>
              <LongitudeDegrees>-4.5790100656449794769287109375</LongitudeDegrees>
            </Position>
            <AltitudeMeters>1177.4000244140625</AltitudeMeters>
            <DistanceMeters>604.96410314687</DistanceMeters>
          </Trackpoint>
          <Trackpoint>
            <Time>2023-02-23T09:29:23.000Z</Time>
            <Position>
              <LatitudeDegrees>41.57713123597204685211181640625</LatitudeDegrees>
              <LongitudeDegrees>-4.579036049544811248779296875</LongitudeDegrees>
            </Position>
            <AltitudeMeters>1177.4000244140625</AltitudeMeters>
            <DistanceMeters>607.12687442418</DistanceMeters>
          </Trackpoint>
          <Trackpoint>
            <Time>2023-02-23T09:29:26.000Z</Time>
            <Position>
              <LatitudeDegrees>41.57713257707655429840087890625</LatitudeDegrees>
              <LongitudeDegrees>-4.5790506340563297271728515625</LongitudeDegrees>
            </Position>
            <AltitudeMeters>1177.4000244140625</AltitudeMeters>
            <DistanceMeters>608.3512079938</DistanceMeters>
          </Trackpoint>
          <Trackpoint>
            <Time>2023-02-23T09:29:28.000Z</Time>
            <Position>
              <LatitudeDegrees>41.5771350078284740447998046875</LatitudeDegrees>
              <LongitudeDegrees>-4.57905046641826629638671875</LongitudeDegrees>
            </Position>
            <AltitudeMeters>1177.5999755859375</AltitudeMeters>
            <DistanceMeters>608.6199841303</DistanceMeters>
          </Trackpoint>
          <Trackpoint>
            <Time>2023-02-23T09:29:34.000Z</Time>
            <Position>
              <LatitudeDegrees>41.5771262906491756439208984375</LatitudeDegrees>
              <LongitudeDegrees>-4.5790516398847103118896484375</LongitudeDegrees>
            </Position>
            <AltitudeMeters>1177.4000244140625</AltitudeMeters>
            <DistanceMeters>609.5937181939</DistanceMeters>
          </Trackpoint>
          <Trackpoint>
            <Time>2023-02-23T09:29:35.000Z</Time>
            <Position>
              <LatitudeDegrees>41.5771249495446681976318359375</LatitudeDegrees>
              <LongitudeDegrees>-4.5790516398847103118896484375</LongitudeDegrees>
            </Position>
            <AltitudeMeters>1177.4000244140625</AltitudeMeters>
            <DistanceMeters>609.75830929127</DistanceMeters>
          </Trackpoint>
          <Trackpoint>
            <Time>2023-02-23T09:29:36.000Z</Time>
            <Position>
              <LatitudeDegrees>41.57712151296436786651611328125</LatitudeDegrees>
              <LongitudeDegrees>-4.57905457355082035064697265625</LongitudeDegrees>
            </Position>
            <AltitudeMeters>1177.4000244140625</AltitudeMeters>
            <DistanceMeters>610.22384321555</DistanceMeters>
          </Trackpoint>
          <Trackpoint>
            <Time>2023-02-23T09:29:37.000Z</Time>
            <Position>
              <LatitudeDegrees>41.57712033949792385101318359375</LatitudeDegrees>
              <LongitudeDegrees>-4.57905985414981842041015625</LongitudeDegrees>
            </Position>
            <AltitudeMeters>1177.4000244140625</AltitudeMeters>
            <DistanceMeters>610.66955801423</DistanceMeters>
          </Trackpoint>
          <Trackpoint>
            <Time>2023-02-23T09:29:38.000Z</Time>
            <Position>
              <LatitudeDegrees>41.577113382518291473388671875</LatitudeDegrees>
              <LongitudeDegrees>-4.57907703705132007598876953125</LongitudeDegrees>
            </Position>
            <AltitudeMeters>1177.4000244140625</AltitudeMeters>
            <DistanceMeters>612.29615335361</DistanceMeters>
          </Trackpoint>
          <Trackpoint>
            <Time>2023-02-23T09:29:39.000Z</Time>
            <Position>
              <LatitudeDegrees>41.57710994593799114227294921875</LatitudeDegrees>
              <LongitudeDegrees>-4.57909011282026767730712890625</LongitudeDegrees>
            </Position>
            <AltitudeMeters>1177.4000244140625</AltitudeMeters>
            <DistanceMeters>613.45610222755</DistanceMeters>
          </Trackpoint>
          <Trackpoint>
            <Time>2023-02-23T09:29:40.000Z</Time>
            <Position>
              <LatitudeDegrees>41.57710592262446880340576171875</LatitudeDegrees>
              <LongitudeDegrees>-4.57910754717886447906494140625</LongitudeDegrees>
            </Position>
            <AltitudeMeters>1177.5999755859375</AltitudeMeters>
            <DistanceMeters>614.97355716698</DistanceMeters>
          </Trackpoint>
          <Trackpoint>
            <Time>2023-02-23T09:29:43.000Z</Time>
            <Position>
              <LatitudeDegrees>41.577093601226806640625</LatitudeDegrees>
              <LongitudeDegrees>-4.57918197847902774810791015625</LongitudeDegrees>
            </Position>
            <AltitudeMeters>1177.5999755859375</AltitudeMeters>
            <DistanceMeters>621.31974822462</DistanceMeters>
          </Trackpoint>
          <Trackpoint>
            <Time>2023-02-23T09:29:49.000Z</Time>
            <Position>
              <LatitudeDegrees>41.577064096927642822265625</LatitudeDegrees>
              <LongitudeDegrees>-4.5793409831821918487548828125</LongitudeDegrees>
            </Position>
            <AltitudeMeters>1177.5999755859375</AltitudeMeters>
            <DistanceMeters>634.95964063529</DistanceMeters>
          </Trackpoint>
          <Trackpoint>
            <Time>2023-02-23T09:29:51.000Z</Time>
            <Position>
              <LatitudeDegrees>41.57705579884350299835205078125</LatitudeDegrees>
              <LongitudeDegrees>-4.5794011652469635009765625</LongitudeDegrees>
            </Position>
            <AltitudeMeters>1177.5999755859375</AltitudeMeters>
            <DistanceMeters>640.05576660046</DistanceMeters>
          </Trackpoint>
          <Trackpoint>
            <Time>2023-02-23T09:29:56.000Z</Time>
            <Position>
              <LatitudeDegrees>41.57701791264116764068603515625</LatitudeDegrees>
              <LongitudeDegrees>-4.57957257516682147979736328125</LongitudeDegrees>
            </Position>
            <AltitudeMeters>1177.800048828125</AltitudeMeters>
            <DistanceMeters>654.93738696882</DistanceMeters>
          </Trackpoint>
          <Trackpoint>
            <Time>2023-02-23T09:30:00.000Z</Time>
            <Position>
              <LatitudeDegrees>41.57692939974367618560791015625</LatitudeDegrees>
              <LongitudeDegrees>-4.57968321628868579864501953125</LongitudeDegrees>
            </Position>
            <AltitudeMeters>1178</AltitudeMeters>
            <DistanceMeters>668.42515624472</DistanceMeters>
          </Trackpoint>
          <Trackpoint>
            <Time>2023-02-23T09:30:03.000Z</Time>
            <Position>
              <LatitudeDegrees>41.57685262151062488555908203125</LatitudeDegrees>
              <LongitudeDegrees>-4.579754881560802459716796875</LongitudeDegrees>
            </Position>
            <AltitudeMeters>1178</AltitudeMeters>
            <DistanceMeters>678.84781519629</DistanceMeters>
          </Trackpoint>
          <Trackpoint>
            <Time>2023-02-23T09:30:08.000Z</Time>
            <Position>
              <LatitudeDegrees>41.5766666270792484283447265625</LatitudeDegrees>
              <LongitudeDegrees>-4.579871557652950286865234375</LongitudeDegrees>
            </Position>
            <AltitudeMeters>1177.4000244140625</AltitudeMeters>
            <DistanceMeters>701.71531826929</DistanceMeters>
          </Trackpoint>
          <Trackpoint>
            <Time>2023-02-23T09:30:12.000Z</Time>
            <Position>
              <LatitudeDegrees>41.57650695182383060455322265625</LatitudeDegrees>
              <LongitudeDegrees>-4.57996283657848834991455078125</LongitudeDegrees>
            </Position>
            <AltitudeMeters>1176.800048828125</AltitudeMeters>
            <DistanceMeters>721.04432193716</DistanceMeters>
          </Trackpoint>
          <Trackpoint>
            <Time>2023-02-23T09:30:17.000Z</Time>
            <Position>
              <LatitudeDegrees>41.57632607035338878631591796875</LatitudeDegrees>
              <LongitudeDegrees>-4.58006140775978565216064453125</LongitudeDegrees>
            </Position>
            <AltitudeMeters>1176.5999755859375</AltitudeMeters>
            <DistanceMeters>742.78571981162</DistanceMeters>
          </Trackpoint>
          <Trackpoint>
            <Time>2023-02-23T09:30:23.000Z</Time>
            <Position>
              <LatitudeDegrees>41.5761221386492252349853515625</LatitudeDegrees>
              <LongitudeDegrees>-4.58018160425126552581787109375</LongitudeDegrees>
            </Position>
            <AltitudeMeters>1177</AltitudeMeters>
            <DistanceMeters>767.59224293258</DistanceMeters>
          </Trackpoint>
          <Trackpoint>
            <Time>2023-02-23T09:30:26.000Z</Time>
            <Position>
              <LatitudeDegrees>41.57602272927761077880859375</LatitudeDegrees>
              <LongitudeDegrees>-4.580251090228557586669921875</LongitudeDegrees>
            </Position>
            <AltitudeMeters>1177.199951171875</AltitudeMeters>
            <DistanceMeters>780.07804445785</DistanceMeters>
          </Trackpoint>
          <Trackpoint>
            <Time>2023-02-23T09:30:28.000Z</Time>
            <Position>
              <LatitudeDegrees>41.5759550034999847412109375</LatitudeDegrees>
              <LongitudeDegrees>-4.58029157482087612152099609375</LongitudeDegrees>
            </Position>
            <AltitudeMeters>1177.199951171875</AltitudeMeters>
            <DistanceMeters>788.33607916986</DistanceMeters>
          </Trackpoint>
          <Trackpoint>
            <Time>2023-02-23T09:30:36.000Z</Time>
            <Position>
              <LatitudeDegrees>41.57571033574640750885009765625</LatitudeDegrees>
              <LongitudeDegrees>-4.5804708637297153472900390625</LongitudeDegrees>
            </Position>
            <AltitudeMeters>1177.199951171875</AltitudeMeters>
            <DistanceMeters>819.3913560865</DistanceMeters>
          </Trackpoint>
          <Trackpoint>
            <Time>2023-02-23T09:30:39.000Z</Time>
            <Position>
              <LatitudeDegrees>41.57562308013439178466796875</LatitudeDegrees>
              <LongitudeDegrees>-4.58054579794406890869140625</LongitudeDegrees>
            </Position>
            <AltitudeMeters>1177.199951171875</AltitudeMeters>
            <DistanceMeters>830.93465752097</DistanceMeters>
          </Trackpoint>
          <Trackpoint>
            <Time>2023-02-23T09:30:40.000Z</Time>
            <Position>
              <LatitudeDegrees>41.57559449784457683563232421875</LatitudeDegrees>
              <LongitudeDegrees>-4.5805697701871395111083984375</LongitudeDegrees>
            </Position>
            <AltitudeMeters>1177.199951171875</AltitudeMeters>
            <DistanceMeters>834.69151917425</DistanceMeters>
          </Trackpoint>
          <Trackpoint>
            <Time>2023-02-23T09:30:43.000Z</Time>
            <Position>
              <LatitudeDegrees>41.5755152888596057891845703125</LatitudeDegrees>
              <LongitudeDegrees>-4.58063908852636814117431640625</LongitudeDegrees>
            </Position>
            <AltitudeMeters>1177.4000244140625</AltitudeMeters>
            <DistanceMeters>845.22877782889</DistanceMeters>
          </Trackpoint>
          <Trackpoint>
            <Time>2023-02-23T09:30:44.000Z</Time>
            <Position>
              <LatitudeDegrees>41.5754871256649494171142578125</LatitudeDegrees>
              <LongitudeDegrees>-4.58066406659781932830810546875</LongitudeDegrees>
            </Position>
            <AltitudeMeters>1177.5999755859375</AltitudeMeters>
            <DistanceMeters>848.98924318723</DistanceMeters>
          </Trackpoint>
          <Trackpoint>
            <Time>2023-02-23T09:30:45.000Z</Time>
            <Position>
              <LatitudeDegrees>41.575459800660610198974609375</LatitudeDegrees>
              <LongitudeDegrees>-4.58069122396409511566162109375</LongitudeDegrees>
            </Position>
            <AltitudeMeters>1177.800048828125</AltitudeMeters>
            <DistanceMeters>852.7784148046</DistanceMeters>
          </Trackpoint>
          <Trackpoint>
            <Time>2023-02-23T09:30:49.000Z</Time>
            <Position>
              <LatitudeDegrees>41.5753488242626190185546875</LatitudeDegrees>
              <LongitudeDegrees>-4.58079264499247074127197265625</LongitudeDegrees>
            </Position>
            <AltitudeMeters>1177.5999755859375</AltitudeMeters>
            <DistanceMeters>867.74112462853</DistanceMeters>
          </Trackpoint>
          <Trackpoint>
            <Time>2023-02-23T09:30:53.000Z</Time>
            <Position>
              <LatitudeDegrees>41.57523843459784984588623046875</LatitudeDegrees>
              <LongitudeDegrees>-4.58088920451700687408447265625</LongitudeDegrees>
            </Position>
            <AltitudeMeters>1177.800048828125</AltitudeMeters>
            <DistanceMeters>882.42421269267</DistanceMeters>
          </Trackpoint>
          <Trackpoint>
            <Time>2023-02-23T09:31:00.000Z</Time>
            <Position>
              <LatitudeDegrees>41.575042046606540679931640625</LatitudeDegrees>
              <LongitudeDegrees>-4.58101929165422916412353515625</LongitudeDegrees>
            </Position>
            <AltitudeMeters>1177.800048828125</AltitudeMeters>
            <DistanceMeters>906.81888624675</DistanceMeters>
          </Trackpoint>
          <Trackpoint>
            <Time>2023-02-23T09:31:08.000Z</Time>
            <Position>
              <LatitudeDegrees>41.57478480599820613861083984375</LatitudeDegrees>
              <LongitudeDegrees>-4.58111979067325592041015625</LongitudeDegrees>
            </Position>
            <AltitudeMeters>1177.5999755859375</AltitudeMeters>
            <DistanceMeters>936.64819419185</DistanceMeters>
          </Trackpoint>
          <Trackpoint>
            <Time>2023-02-23T09:31:15.000Z</Time>
            <Position>
              <LatitudeDegrees>41.5745765157043933868408203125</LatitudeDegrees>
              <LongitudeDegrees>-4.58119346760213375091552734375</LongitudeDegrees>
            </Position>
            <AltitudeMeters>1178</AltitudeMeters>
            <DistanceMeters>960.62921686417</DistanceMeters>
          </Trackpoint>
          <Trackpoint>
            <Time>2023-02-23T09:31:18.000Z</Time>
            <Position>
              <LatitudeDegrees>41.57448339276015758514404296875</LatitudeDegrees>
              <LongitudeDegrees>-4.58122615702450275421142578125</LongitudeDegrees>
            </Position>
            <AltitudeMeters>1177.800048828125</AltitudeMeters>
            <DistanceMeters>971.34492738944</DistanceMeters>
          </Trackpoint>
          <Trackpoint>
            <Time>2023-02-23T09:31:22.000Z</Time>
            <Position>
              <LatitudeDegrees>41.57434643246233463287353515625</LatitudeDegrees>
              <LongitudeDegrees>-4.5812735147774219512939453125</LongitudeDegrees>
            </Position>
            <AltitudeMeters>1177.800048828125</AltitudeMeters>
            <DistanceMeters>987.09013995365</DistanceMeters>
          </Trackpoint>
          <Trackpoint>
            <Time>2023-02-23T09:31:23.000Z</Time>
            <Position>
              <LatitudeDegrees>41.57431340776383876800537109375</LatitudeDegrees>
              <LongitudeDegrees>-4.5812849141657352447509765625</LongitudeDegrees>
            </Position>
            <AltitudeMeters>1177.800048828125</AltitudeMeters>
            <DistanceMeters>990.88526471157</DistanceMeters>
          </Trackpoint>
          <Trackpoint>
            <Time>2023-02-23T09:31:25.000Z</Time>
            <Position>
              <LatitudeDegrees>41.57425247132778167724609375</LatitudeDegrees>
              <LongitudeDegrees>-4.58130762912333011627197265625</LongitudeDegrees>
            </Position>
            <AltitudeMeters>1178</AltitudeMeters>
            <DistanceMeters>997.92558356804</DistanceMeters>
          </Trackpoint>
          <Trackpoint>
            <Time>2023-02-23T09:31:28.000Z</Time>
            <Position>
              <LatitudeDegrees>41.574153564870357513427734375</LatitudeDegrees>
              <LongitudeDegrees>-4.5813395641744136810302734375</LongitudeDegrees>
            </Position>
            <AltitudeMeters>1178</AltitudeMeters>
            <DistanceMeters>1009.2501208944</DistanceMeters>
          </Trackpoint>
          <Trackpoint>
            <Time>2023-02-23T09:31:30.000Z</Time>
            <Position>
              <LatitudeDegrees>41.57409162260591983795166015625</LatitudeDegrees>
              <LongitudeDegrees>-4.58136144094169139862060546875</LongitudeDegrees>
            </Position>
            <AltitudeMeters>1178</AltitudeMeters>
            <DistanceMeters>1016.3802913258</DistanceMeters>
          </Trackpoint>
          <Trackpoint>
            <Time>2023-02-23T09:31:38.000Z</Time>
            <Position>
              <LatitudeDegrees>41.57383882440626621246337890625</LatitudeDegrees>
              <LongitudeDegrees>-4.5815015025436878204345703125</LongitudeDegrees>
            </Position>
            <AltitudeMeters>1178</AltitudeMeters>
            <DistanceMeters>1046.8382433797</DistanceMeters>
          </Trackpoint>
          <Trackpoint>
            <Time>2023-02-23T09:31:44.000Z</Time>
            <Position>
              <LatitudeDegrees>41.57364017330110073089599609375</LatitudeDegrees>
              <LongitudeDegrees>-4.58161021582782268524169921875</LongitudeDegrees>
            </Position>
            <AltitudeMeters>1178.5999755859375</AltitudeMeters>
            <DistanceMeters>1070.7298568073</DistanceMeters>
          </Trackpoint>
          <Trackpoint>
            <Time>2023-02-23T09:31:45.000Z</Time>
            <Position>
              <LatitudeDegrees>41.573607735335826873779296875</LatitudeDegrees>
              <LongitudeDegrees>-4.5816312544047832489013671875</LongitudeDegrees>
            </Position>
            <AltitudeMeters>1178.800048828125</AltitudeMeters>
            <DistanceMeters>1074.74241538</DistanceMeters>
          </Trackpoint>
          <Trackpoint>
            <Time>2023-02-23T09:31:49.000Z</Time>
            <Position>
              <LatitudeDegrees>41.57347018830478191375732421875</LatitudeDegrees>
              <LongitudeDegrees>-4.58172328770160675048828125</LongitudeDegrees>
            </Position>
            <AltitudeMeters>1179</AltitudeMeters>
            <DistanceMeters>1091.8625269807</DistanceMeters>
          </Trackpoint>
          <Trackpoint>
            <Time>2023-02-23T09:31:53.000Z</Time>
            <Position>
              <LatitudeDegrees>41.573330126702785491943359375</LatitudeDegrees>
              <LongitudeDegrees>-4.5818304084241390228271484375</LongitudeDegrees>
            </Position>
            <AltitudeMeters>1179.199951171875</AltitudeMeters>
            <DistanceMeters>1109.8230787764</DistanceMeters>
          </Trackpoint>
          <Trackpoint>
            <Time>2023-02-23T09:31:57.000Z</Time>
            <Position>
              <LatitudeDegrees>41.5731790848076343536376953125</LatitudeDegrees>
              <LongitudeDegrees>-4.58189637400209903717041015625</LongitudeDegrees>
            </Position>
            <AltitudeMeters>1179.4000244140625</AltitudeMeters>
            <DistanceMeters>1127.5087732176</DistanceMeters>
          </Trackpoint>
          <Trackpoint>
            <Time>2023-02-23T09:31:59.000Z</Time>
            <Position>
              <LatitudeDegrees>41.57309602014720439910888671875</LatitudeDegrees>
              <LongitudeDegrees>-4.5819343440234661102294921875</LongitudeDegrees>
            </Position>
            <AltitudeMeters>1179.4000244140625</AltitudeMeters>
            <DistanceMeters>1137.2794419851</DistanceMeters>
          </Trackpoint>
          <Trackpoint>
            <Time>2023-02-23T09:32:06.000Z</Time>
            <Position>
              <LatitudeDegrees>41.5728186629712581634521484375</LatitudeDegrees>
              <LongitudeDegrees>-4.582066945731639862060546875</LongitudeDegrees>
            </Position>
            <AltitudeMeters>1179.4000244140625</AltitudeMeters>
            <DistanceMeters>1170.0648978983</DistanceMeters>
          </Trackpoint>
          <Trackpoint>
            <Time>2023-02-23T09:32:10.000Z</Time>
            <Position>
              <LatitudeDegrees>41.57266954891383647918701171875</LatitudeDegrees>
              <LongitudeDegrees>-4.58215621300041675567626953125</LongitudeDegrees>
            </Position>
            <AltitudeMeters>1180</AltitudeMeters>
            <DistanceMeters>1188.2500418221</DistanceMeters>
          </Trackpoint>
          <Trackpoint>
            <Time>2023-02-23T09:32:11.000Z</Time>
            <Position>
              <LatitudeDegrees>41.5726315788924694061279296875</LatitudeDegrees>
              <LongitudeDegrees>-4.58217884413897991180419921875</LongitudeDegrees>
            </Position>
            <AltitudeMeters>1180</AltitudeMeters>
            <DistanceMeters>1192.8781452485</DistanceMeters>
          </Trackpoint>
          <Trackpoint>
            <Time>2023-02-23T09:32:13.000Z</Time>
            <Position>
              <LatitudeDegrees>41.57256075181066989898681640625</LatitudeDegrees>
              <LongitudeDegrees>-4.58221555687487125396728515625</LongitudeDegrees>
            </Position>
            <AltitudeMeters>1180.199951171875</AltitudeMeters>
            <DistanceMeters>1201.3333871259</DistanceMeters>
          </Trackpoint>
          <Trackpoint>
            <Time>2023-02-23T09:32:17.000Z</Time>
            <Position>
              <LatitudeDegrees>41.57242546789348125457763671875</LatitudeDegrees>
              <LongitudeDegrees>-4.58230641670525074005126953125</LongitudeDegrees>
            </Position>
            <AltitudeMeters>1180.199951171875</AltitudeMeters>
            <DistanceMeters>1218.1844934355</DistanceMeters>
          </Trackpoint>
          <Trackpoint>
            <Time>2023-02-23T09:32:18.000Z</Time>
            <Position>
              <LatitudeDegrees>41.5723948739469051361083984375</LatitudeDegrees>
              <LongitudeDegrees>-4.5823329873383045196533203125</LongitudeDegrees>
            </Position>
            <AltitudeMeters>1180.4000244140625</AltitudeMeters>
            <DistanceMeters>1222.2451485042</DistanceMeters>
          </Trackpoint>
          <Trackpoint>
            <Time>2023-02-23T09:32:19.000Z</Time>
            <Position>
              <LatitudeDegrees>41.5723606757819652557373046875</LatitudeDegrees>
              <LongitudeDegrees>-4.58235385827720165252685546875</LongitudeDegrees>
            </Position>
            <AltitudeMeters>1180.5999755859375</AltitudeMeters>
            <DistanceMeters>1226.4306411038</DistanceMeters>
          </Trackpoint>
          <Trackpoint>
            <Time>2023-02-23T09:32:20.000Z</Time>
            <Position>
              <LatitudeDegrees>41.5723224543035030364990234375</LatitudeDegrees>
              <LongitudeDegrees>-4.5823725499212741851806640625</LongitudeDegrees>
            </Position>
            <AltitudeMeters>1180.5999755859375</AltitudeMeters>
            <DistanceMeters>1230.960137067</DistanceMeters>
          </Trackpoint>
          <Trackpoint>
            <Time>2023-02-23T09:32:28.000Z</Time>
            <Position>
              <LatitudeDegrees>41.57200050540268421173095703125</LatitudeDegrees>
              <LongitudeDegrees>-4.582500793039798736572265625</LongitudeDegrees>
            </Position>
            <AltitudeMeters>1180.5999755859375</AltitudeMeters>
            <DistanceMeters>1268.3509455012</DistanceMeters>
          </Trackpoint>
          <Trackpoint>
            <Time>2023-02-23T09:32:31.000Z</Time>
            <Position>
              <LatitudeDegrees>41.571876369416713714599609375</LatitudeDegrees>
              <LongitudeDegrees>-4.58251814357936382293701171875</LongitudeDegrees>
            </Position>
            <AltitudeMeters>1181</AltitudeMeters>
            <DistanceMeters>1282.242408117</DistanceMeters>
          </Trackpoint>
          <Trackpoint>
            <Time>2023-02-23T09:32:33.000Z</Time>
            <Position>
              <LatitudeDegrees>41.5717923827469348907470703125</LatitudeDegrees>
              <LongitudeDegrees>-4.58251856267452239990234375</LongitudeDegrees>
            </Position>
            <AltitudeMeters>1181.4000244140625</AltitudeMeters>
            <DistanceMeters>1291.5898687172</DistanceMeters>
          </Trackpoint>
          <Trackpoint>
            <Time>2023-02-23T09:32:41.000Z</Time>
            <Position>
              <LatitudeDegrees>41.5714651532471179962158203125</LatitudeDegrees>
              <LongitudeDegrees>-4.5825918205082416534423828125</LongitudeDegrees>
            </Position>
            <AltitudeMeters>1182</AltitudeMeters>
            <DistanceMeters>1328.5183552079</DistanceMeters>
          </Trackpoint>
          <Trackpoint>
            <Time>2023-02-23T09:32:42.000Z</Time>
            <Position>
              <LatitudeDegrees>41.57142399810254573822021484375</LatitudeDegrees>
              <LongitudeDegrees>-4.58260045386850833892822265625</LongitudeDegrees>
            </Position>
            <AltitudeMeters>1182.199951171875</AltitudeMeters>
            <DistanceMeters>1333.1552304502</DistanceMeters>
          </Trackpoint>
          <Trackpoint>
            <Time>2023-02-23T09:32:49.000Z</Time>
            <Position>
              <LatitudeDegrees>41.5711402706801891326904296875</LatitudeDegrees>
              <LongitudeDegrees>-4.5826706103980541229248046875</LongitudeDegrees>
            </Position>
            <AltitudeMeters>1182.4000244140625</AltitudeMeters>
            <DistanceMeters>1365.2704642374</DistanceMeters>
          </Trackpoint>
          <Trackpoint>
            <Time>2023-02-23T09:32:58.000Z</Time>
            <Position>
              <LatitudeDegrees>41.57079912722110748291015625</LatitudeDegrees>
              <LongitudeDegrees>-4.58277261815965175628662109375</LongitudeDegrees>
            </Position>
            <AltitudeMeters>1183.4000244140625</AltitudeMeters>
            <DistanceMeters>1404.1790012913</DistanceMeters>
          </Trackpoint>
          <Trackpoint>
            <Time>2023-02-23T09:33:03.000Z</Time>
            <Position>
              <LatitudeDegrees>41.57060877420008182525634765625</LatitudeDegrees>
              <LongitudeDegrees>-4.5828208141028881072998046875</LongitudeDegrees>
            </Position>
            <AltitudeMeters>1183.800048828125</AltitudeMeters>
            <DistanceMeters>1425.7427383609</DistanceMeters>
          </Trackpoint>
          <Trackpoint>
            <Time>2023-02-23T09:33:07.000Z</Time>
            <Position>
              <LatitudeDegrees>41.57045446336269378662109375</LatitudeDegrees>
              <LongitudeDegrees>-4.58286590874195098876953125</LongitudeDegrees>
            </Position>
            <AltitudeMeters>1184</AltitudeMeters>
            <DistanceMeters>1443.3234509893</DistanceMeters>
          </Trackpoint>
          <Trackpoint>
            <Time>2023-02-23T09:33:09.000Z</Time>
            <Position>
              <LatitudeDegrees>41.57038128934800624847412109375</LatitudeDegrees>
              <LongitudeDegrees>-4.5828841812908649444580078125</LongitudeDegrees>
            </Position>
            <AltitudeMeters>1184</AltitudeMeters>
            <DistanceMeters>1451.6087778463</DistanceMeters>
          </Trackpoint>
          <Trackpoint>
            <Time>2023-02-23T09:33:10.000Z</Time>
            <Position>
              <LatitudeDegrees>41.57034583389759063720703125</LatitudeDegrees>
              <LongitudeDegrees>-4.58289516158401966094970703125</LongitudeDegrees>
            </Position>
            <AltitudeMeters>1184</AltitudeMeters>
            <DistanceMeters>1455.6582986602</DistanceMeters>
          </Trackpoint>
          <Trackpoint>
            <Time>2023-02-23T09:33:15.000Z</Time>
            <Position>
              <LatitudeDegrees>41.57016872428357601165771484375</LatitudeDegrees>
              <LongitudeDegrees>-4.582950063049793243408203125</LongitudeDegrees>
            </Position>
            <AltitudeMeters>1184.4000244140625</AltitudeMeters>
            <DistanceMeters>1475.8938576203</DistanceMeters>
          </Trackpoint>
          <Trackpoint>
            <Time>2023-02-23T09:33:24.000Z</Time>
            <Position>
              <LatitudeDegrees>41.56982674263417720794677734375</LatitudeDegrees>
              <LongitudeDegrees>-4.5830548368394374847412109375</LongitudeDegrees>
            </Position>
            <AltitudeMeters>1184.5999755859375</AltitudeMeters>
            <DistanceMeters>1514.9441722061</DistanceMeters>
          </Trackpoint>
          <Trackpoint>
            <Time>2023-02-23T09:33:29.000Z</Time>
            <Position>
              <LatitudeDegrees>41.56965658999979496002197265625</LatitudeDegrees>
              <LongitudeDegrees>-4.5831480436027050018310546875</LongitudeDegrees>
            </Position>
            <AltitudeMeters>1184.800048828125</AltitudeMeters>
            <DistanceMeters>1535.4113470535</DistanceMeters>
          </Trackpoint>
          <Trackpoint>
            <Time>2023-02-23T09:33:32.000Z</Time>
            <Position>
              <LatitudeDegrees>41.5695487149059772491455078125</LatitudeDegrees>
              <LongitudeDegrees>-4.58317293785512447357177734375</LongitudeDegrees>
            </Position>
            <AltitudeMeters>1185.5999755859375</AltitudeMeters>
            <DistanceMeters>1547.5955358545</DistanceMeters>
          </Trackpoint>
          <Trackpoint>
            <Time>2023-02-23T09:33:36.000Z</Time>
            <Position>
              <LatitudeDegrees>41.56940094195306301116943359375</LatitudeDegrees>
              <LongitudeDegrees>-4.58320596255362033843994140625</LongitudeDegrees>
            </Position>
            <AltitudeMeters>1186.199951171875</AltitudeMeters>
            <DistanceMeters>1564.2710320695</DistanceMeters>
          </Trackpoint>
          <Trackpoint>
            <Time>2023-02-23T09:33:46.000Z</Time>
            <Position>
              <LatitudeDegrees>41.569035910069942474365234375</LatitudeDegrees>
              <LongitudeDegrees>-4.5832876861095428466796875</LongitudeDegrees>
            </Position>
            <AltitudeMeters>1186.800048828125</AltitudeMeters>
            <DistanceMeters>1605.4657429675</DistanceMeters>
          </Trackpoint>
          <Trackpoint>
            <Time>2023-02-23T09:33:53.000Z</Time>
            <Position>
              <LatitudeDegrees>41.56882192008197307586669921875</LatitudeDegrees>
              <LongitudeDegrees>-4.58334091119468212127685546875</LongitudeDegrees>
            </Position>
            <AltitudeMeters>1187.800048828125</AltitudeMeters>
            <DistanceMeters>1629.6921510494</DistanceMeters>
          </Trackpoint>
          <Trackpoint>
            <Time>2023-02-23T09:33:54.000Z</Time>
            <Position>
              <LatitudeDegrees>41.56879375688731670379638671875</LatitudeDegrees>
              <LongitudeDegrees>-4.58334443159401416778564453125</LongitudeDegrees>
            </Position>
            <AltitudeMeters>1187.800048828125</AltitudeMeters>
            <DistanceMeters>1632.8409641489</DistanceMeters>
          </Trackpoint>
          <Trackpoint>
            <Time>2023-02-23T09:33:57.000Z</Time>
            <Position>
              <LatitudeDegrees>41.56871429644525051116943359375</LatitudeDegrees>
              <LongitudeDegrees>-4.583348371088504791259765625</LongitudeDegrees>
            </Position>
            <AltitudeMeters>1187.800048828125</AltitudeMeters>
            <DistanceMeters>1641.6912117767</DistanceMeters>
          </Trackpoint>
          <Trackpoint>
            <Time>2023-02-23T09:33:58.000Z</Time>
            <Position>
              <LatitudeDegrees>41.56868982128798961639404296875</LatitudeDegrees>
              <LongitudeDegrees>-4.58335398696362972259521484375</LongitudeDegrees>
            </Position>
            <AltitudeMeters>1187.800048828125</AltitudeMeters>
            <DistanceMeters>1644.4551663118</DistanceMeters>
          </Trackpoint>
          <Trackpoint>
            <Time>2023-02-23T09:34:00.000Z</Time>
            <Position>
              <LatitudeDegrees>41.5686417929828166961669921875</LatitudeDegrees>
              <LongitudeDegrees>-4.5833713375031948089599609375</LongitudeDegrees>
            </Position>
            <AltitudeMeters>1188</AltitudeMeters>
            <DistanceMeters>1649.9928679653</DistanceMeters>
          </Trackpoint>
          <Trackpoint>
            <Time>2023-02-23T09:34:05.000Z</Time>
            <Position>
              <LatitudeDegrees>41.568495444953441619873046875</LatitudeDegrees>
              <LongitudeDegrees>-4.5833998359739780426025390625</LongitudeDegrees>
            </Position>
            <AltitudeMeters>1188.5999755859375</AltitudeMeters>
            <DistanceMeters>1666.4536235305</DistanceMeters>
          </Trackpoint>
          <Trackpoint>
            <Time>2023-02-23T09:34:09.000Z</Time>
            <Position>
              <LatitudeDegrees>41.56837667338550090789794921875</LatitudeDegrees>
              <LongitudeDegrees>-4.58342439495027065277099609375</LongitudeDegrees>
            </Position>
            <AltitudeMeters>1188.800048828125</AltitudeMeters>
            <DistanceMeters>1679.8304690037</DistanceMeters>
          </Trackpoint>
          <Trackpoint>
            <Time>2023-02-23T09:34:12.000Z</Time>
            <Position>
              <LatitudeDegrees>41.5682877413928508758544921875</LatitudeDegrees>
              <LongitudeDegrees>-4.5834501273930072784423828125</LongitudeDegrees>
            </Position>
            <AltitudeMeters>1188.800048828125</AltitudeMeters>
            <DistanceMeters>1689.9578382697</DistanceMeters>
          </Trackpoint>
          <Trackpoint>
            <Time>2023-02-23T09:34:15.000Z</Time>
            <Position>
              <LatitudeDegrees>41.5681935288012027740478515625</LatitudeDegrees>
              <LongitudeDegrees>-4.583474099636077880859375</LongitudeDegrees>
            </Position>
            <AltitudeMeters>1189</AltitudeMeters>
            <DistanceMeters>1700.6321768708</DistanceMeters>
          </Trackpoint>
          <Trackpoint>
            <Time>2023-02-23T09:34:20.000Z</Time>
            <Position>
              <LatitudeDegrees>41.5680406428873538970947265625</LatitudeDegrees>
              <LongitudeDegrees>-4.58350905217230319976806640625</LongitudeDegrees>
            </Position>
            <AltitudeMeters>1190</AltitudeMeters>
            <DistanceMeters>1717.8956829734</DistanceMeters>
          </Trackpoint>
          <Trackpoint>
            <Time>2023-02-23T09:34:22.000Z</Time>
            <Position>
              <LatitudeDegrees>41.56798188574612140655517578125</LatitudeDegrees>
              <LongitudeDegrees>-4.58351793698966503143310546875</LongitudeDegrees>
            </Position>
            <AltitudeMeters>1190.4000244140625</AltitudeMeters>
            <DistanceMeters>1724.4765831113</DistanceMeters>
          </Trackpoint>
          <Trackpoint>
            <Time>2023-02-23T09:34:27.000Z</Time>
            <Position>
              <LatitudeDegrees>41.56785272061824798583984375</LatitudeDegrees>
              <LongitudeDegrees>-4.58355967886745929718017578125</LongitudeDegrees>
            </Position>
            <AltitudeMeters>1191</AltitudeMeters>
            <DistanceMeters>1739.2672096001</DistanceMeters>
          </Trackpoint>
          <Trackpoint>
            <Time>2023-02-23T09:34:28.000Z</Time>
            <Position>
              <LatitudeDegrees>41.5678307600319385528564453125</LatitudeDegrees>
              <LongitudeDegrees>-4.583565630018711090087890625</LongitudeDegrees>
            </Position>
            <AltitudeMeters>1191</AltitudeMeters>
            <DistanceMeters>1741.7597369507</DistanceMeters>
          </Trackpoint>
          <Trackpoint>
            <Time>2023-02-23T09:34:29.000Z</Time>
            <Position>
              <LatitudeDegrees>41.56780921854078769683837890625</LatitudeDegrees>
              <LongitudeDegrees>-4.58357132971286773681640625</LongitudeDegrees>
            </Position>
            <AltitudeMeters>1191.199951171875</AltitudeMeters>
            <DistanceMeters>1744.2047135571</DistanceMeters>
          </Trackpoint>
          <Trackpoint>
            <Time>2023-02-23T09:34:36.000Z</Time>
            <Position>
              <LatitudeDegrees>41.56766094267368316650390625</LatitudeDegrees>
              <LongitudeDegrees>-4.5836068689823150634765625</LongitudeDegrees>
            </Position>
            <AltitudeMeters>1191.5999755859375</AltitudeMeters>
            <DistanceMeters>1760.9714765081</DistanceMeters>
          </Trackpoint>
          <Trackpoint>
            <Time>2023-02-23T09:34:37.000Z</Time>
            <Position>
              <LatitudeDegrees>41.567638479173183441162109375</LatitudeDegrees>
              <LongitudeDegrees>-4.5836067013442516326904296875</LongitudeDegrees>
            </Position>
            <AltitudeMeters>1191.800048828125</AltitudeMeters>
            <DistanceMeters>1763.474848844</DistanceMeters>
          </Trackpoint>
          <Trackpoint>
            <Time>2023-02-23T09:34:39.000Z</Time>
            <Position>
              <LatitudeDegrees>41.567594222724437713623046875</LatitudeDegrees>
              <LongitudeDegrees>-4.5836149156093597412109375</LongitudeDegrees>
            </Position>
            <AltitudeMeters>1192</AltitudeMeters>
            <DistanceMeters>1768.4490230927</DistanceMeters>
          </Trackpoint>
          <Trackpoint>
            <Time>2023-02-23T09:34:45.000Z</Time>
            <Position>
              <LatitudeDegrees>41.56746740452945232391357421875</LatitudeDegrees>
              <LongitudeDegrees>-4.58364919759333133697509765625</LongitudeDegrees>
            </Position>
            <AltitudeMeters>1192.800048828125</AltitudeMeters>
            <DistanceMeters>1782.8498819425</DistanceMeters>
          </Trackpoint>
          <Trackpoint>
            <Time>2023-02-23T09:34:48.000Z</Time>
            <Position>
              <LatitudeDegrees>41.5674032829701900482177734375</LatitudeDegrees>
              <LongitudeDegrees>-4.58366210572421550750732421875</LongitudeDegrees>
            </Position>
            <AltitudeMeters>1193</AltitudeMeters>
            <DistanceMeters>1790.0669090956</DistanceMeters>
          </Trackpoint>
          <Trackpoint>
            <Time>2023-02-23T09:34:52.000Z</Time>
            <Position>
              <LatitudeDegrees>41.56732440926134586334228515625</LatitudeDegrees>
              <LongitudeDegrees>-4.58370217122137546539306640625</LongitudeDegrees>
            </Position>
            <AltitudeMeters>1193.5999755859375</AltitudeMeters>
            <DistanceMeters>1799.4587026785</DistanceMeters>
          </Trackpoint>
          <Trackpoint>
            <Time>2023-02-23T09:34:54.000Z</Time>
            <Position>
              <LatitudeDegrees>41.567282415926456451416015625</LatitudeDegrees>
              <LongitudeDegrees>-4.58372362889349460601806640625</LongitudeDegrees>
            </Position>
            <AltitudeMeters>1193.5999755859375</AltitudeMeters>
            <DistanceMeters>1804.4627412454</DistanceMeters>
          </Trackpoint>
          <Trackpoint>
            <Time>2023-02-23T09:34:59.000Z</Time>
            <Position>
              <LatitudeDegrees>41.567185185849666595458984375</LatitudeDegrees>
              <LongitudeDegrees>-4.5837736688554286956787109375</LongitudeDegrees>
            </Position>
            <AltitudeMeters>1194.199951171875</AltitudeMeters>
            <DistanceMeters>1816.0595049526</DistanceMeters>
          </Trackpoint>
          <Trackpoint>
            <Time>2023-02-23T09:35:02.000Z</Time>
            <Position>
              <LatitudeDegrees>41.56712642870843410491943359375</LatitudeDegrees>
              <LongitudeDegrees>-4.5838102139532566070556640625</LongitudeDegrees>
            </Position>
            <AltitudeMeters>1194.800048828125</AltitudeMeters>
            <DistanceMeters>1823.2727774742</DistanceMeters>
          </Trackpoint>
          <Trackpoint>
            <Time>2023-02-23T09:35:08.000Z</Time>
            <Position>
              <LatitudeDegrees>41.56701209954917430877685546875</LatitudeDegrees>
              <LongitudeDegrees>-4.5838900096714496612548828125</LongitudeDegrees>
            </Position>
            <AltitudeMeters>1195.199951171875</AltitudeMeters>
            <DistanceMeters>1837.6284176411</DistanceMeters>
          </Trackpoint>
          <Trackpoint>
            <Time>2023-02-23T09:35:11.000Z</Time>
            <Position>
              <LatitudeDegrees>41.56695661135017871856689453125</LatitudeDegrees>
              <LongitudeDegrees>-4.58393275737762451171875</LongitudeDegrees>
            </Position>
            <AltitudeMeters>1195.800048828125</AltitudeMeters>
            <DistanceMeters>1844.7573214998</DistanceMeters>
          </Trackpoint>
          <Trackpoint>
            <Time>2023-02-23T09:35:12.000Z</Time>
            <Position>
              <LatitudeDegrees>41.56693817116320133209228515625</LatitudeDegrees>
              <LongitudeDegrees>-4.58394591696560382843017578125</LongitudeDegrees>
            </Position>
            <AltitudeMeters>1196</AltitudeMeters>
            <DistanceMeters>1847.0849911212</DistanceMeters>
          </Trackpoint>
          <Trackpoint>
            <Time>2023-02-23T09:35:15.000Z</Time>
            <Position>
              <LatitudeDegrees>41.56688100658357143402099609375</LatitudeDegrees>
              <LongitudeDegrees>-4.58398531191051006317138671875</LongitudeDegrees>
            </Position>
            <AltitudeMeters>1196</AltitudeMeters>
            <DistanceMeters>1854.2436001914</DistanceMeters>
          </Trackpoint>
          <Trackpoint>
            <Time>2023-02-23T09:35:17.000Z</Time>
            <Position>
              <LatitudeDegrees>41.56683993525803089141845703125</LatitudeDegrees>
              <LongitudeDegrees>-4.58400978706777095794677734375</LongitudeDegrees>
            </Position>
            <AltitudeMeters>1196.4000244140625</AltitudeMeters>
            <DistanceMeters>1859.2485409558</DistanceMeters>
          </Trackpoint>
          <Trackpoint>
            <Time>2023-02-23T09:35:21.000Z</Time>
            <Position>
              <LatitudeDegrees>41.5667558647692203521728515625</LatitudeDegrees>
              <LongitudeDegrees>-4.5840553008019924163818359375</LongitudeDegrees>
            </Position>
            <AltitudeMeters>1196.800048828125</AltitudeMeters>
            <DistanceMeters>1869.3446542129</DistanceMeters>
          </Trackpoint>
          <Trackpoint>
            <Time>2023-02-23T09:35:22.000Z</Time>
            <Position>
              <LatitudeDegrees>41.566734574735164642333984375</LatitudeDegrees>
              <LongitudeDegrees>-4.58406812511384487152099609375</LongitudeDegrees>
            </Position>
            <AltitudeMeters>1197</AltitudeMeters>
            <DistanceMeters>1871.945332443</DistanceMeters>
          </Trackpoint>
          <Trackpoint>
            <Time>2023-02-23T09:35:24.000Z</Time>
            <Position>
              <LatitudeDegrees>41.56669124029576778411865234375</LatitudeDegrees>
              <LongitudeDegrees>-4.58409545011818408966064453125</LongitudeDegrees>
            </Position>
            <AltitudeMeters>1197.4000244140625</AltitudeMeters>
            <DistanceMeters>1877.2786935594</DistanceMeters>
          </Trackpoint>
          <Trackpoint>
            <Time>2023-02-23T09:35:31.000Z</Time>
            <Position>
              <LatitudeDegrees>41.56654388643801212310791015625</LatitudeDegrees>
              <LongitudeDegrees>-4.58419360220432281494140625</LongitudeDegrees>
            </Position>
            <AltitudeMeters>1198</AltitudeMeters>
            <DistanceMeters>1895.6030869346</DistanceMeters>
          </Trackpoint>
          <Trackpoint>
            <Time>2023-02-23T09:35:33.000Z</Time>
            <Position>
              <LatitudeDegrees>41.56650432385504245758056640625</LatitudeDegrees>
              <LongitudeDegrees>-4.58422352559864521026611328125</LongitudeDegrees>
            </Position>
            <AltitudeMeters>1198.199951171875</AltitudeMeters>
            <DistanceMeters>1900.6618651114</DistanceMeters>
          </Trackpoint>
          <Trackpoint>
            <Time>2023-02-23T09:35:37.000Z</Time>
            <Position>
              <LatitudeDegrees>41.56642084009945392608642578125</LatitudeDegrees>
              <LongitudeDegrees>-4.5842769183218479156494140625</LongitudeDegrees>
            </Position>
            <AltitudeMeters>1198.4000244140625</AltitudeMeters>
            <DistanceMeters>1910.962953806</DistanceMeters>
          </Trackpoint>
          <Trackpoint>
            <Time>2023-02-23T09:35:41.000Z</Time>
            <Position>
              <LatitudeDegrees>41.5663285553455352783203125</LatitudeDegrees>
              <LongitudeDegrees>-4.58432511426508426666259765625</LongitudeDegrees>
            </Position>
            <AltitudeMeters>1198.800048828125</AltitudeMeters>
            <DistanceMeters>1921.9909667525</DistanceMeters>
          </Trackpoint>
          <Trackpoint>
            <Time>2023-02-23T09:35:46.000Z</Time>
            <Position>
              <LatitudeDegrees>41.5662140585482120513916015625</LatitudeDegrees>
              <LongitudeDegrees>-4.58439518697559833526611328125</LongitudeDegrees>
            </Position>
            <AltitudeMeters>1199.199951171875</AltitudeMeters>
            <DistanceMeters>1936.0073265907</DistanceMeters>
          </Trackpoint>
          <Trackpoint>
            <Time>2023-02-23T09:35:47.000Z</Time>
            <Position>
              <LatitudeDegrees>41.5661912597715854644775390625</LatitudeDegrees>
              <LongitudeDegrees>-4.58441144786775112152099609375</LongitudeDegrees>
            </Position>
            <AltitudeMeters>1199.5999755859375</AltitudeMeters>
            <DistanceMeters>1938.8849263021</DistanceMeters>
          </Trackpoint>
          <Trackpoint>
            <Time>2023-02-23T09:35:50.000Z</Time>
            <Position>
              <LatitudeDegrees>41.5661195106804370880126953125</LatitudeDegrees>
              <LongitudeDegrees>-4.5844556204974651336669921875</LongitudeDegrees>
            </Position>
            <AltitudeMeters>1199.800048828125</AltitudeMeters>
            <DistanceMeters>1947.6773369179</DistanceMeters>
          </Trackpoint>
          <Trackpoint>
            <Time>2023-02-23T09:35:56.000Z</Time>
            <Position>
              <LatitudeDegrees>41.56597827561199665069580078125</LatitudeDegrees>
              <LongitudeDegrees>-4.58454170264303684234619140625</LongitudeDegrees>
            </Position>
            <AltitudeMeters>1200.5999755859375</AltitudeMeters>
            <DistanceMeters>1964.9544375697</DistanceMeters>
          </Trackpoint>
          <Trackpoint>
            <Time>2023-02-23T09:35:57.000Z</Time>
            <Position>
              <LatitudeDegrees>41.5659552253782749176025390625</LatitudeDegrees>
              <LongitudeDegrees>-4.584552347660064697265625</LongitudeDegrees>
            </Position>
            <AltitudeMeters>1200.800048828125</AltitudeMeters>
            <DistanceMeters>1967.6689434875</DistanceMeters>
          </Trackpoint>
          <Trackpoint>
            <Time>2023-02-23T09:35:59.000Z</Time>
            <Position>
              <LatitudeDegrees>41.56590669415891170501708984375</LatitudeDegrees>
              <LongitudeDegrees>-4.58457455970346927642822265625</LongitudeDegrees>
            </Position>
            <AltitudeMeters>1201</AltitudeMeters>
            <DistanceMeters>1973.378459751</DistanceMeters>
          </Trackpoint>
          <Trackpoint>
            <Time>2023-02-23T09:36:05.000Z</Time>
            <Position>
              <LatitudeDegrees>41.565756238996982574462890625</LatitudeDegrees>
              <LongitudeDegrees>-4.58468168042600154876708984375</LongitudeDegrees>
            </Position>
            <AltitudeMeters>1200.800048828125</AltitudeMeters>
            <DistanceMeters>1992.35194197</DistanceMeters>
          </Trackpoint>
          <Trackpoint>
            <Time>2023-02-23T09:36:13.000Z</Time>
            <Position>
              <LatitudeDegrees>41.5655173547565937042236328125</LatitudeDegrees>
              <LongitudeDegrees>-4.58481361158192157745361328125</LongitudeDegrees>
            </Position>
            <AltitudeMeters>1200.800048828125</AltitudeMeters>
            <DistanceMeters>2021.120720644</DistanceMeters>
          </Trackpoint>
          <Trackpoint>
            <Time>2023-02-23T09:36:22.000Z</Time>
            <Position>
              <LatitudeDegrees>41.5652283467352390289306640625</LatitudeDegrees>
              <LongitudeDegrees>-4.58499063737690448760986328125</LongitudeDegrees>
            </Position>
            <AltitudeMeters>1200.800048828125</AltitudeMeters>
            <DistanceMeters>2056.5051270862</DistanceMeters>
          </Trackpoint>
          <Trackpoint>
            <Time>2023-02-23T09:36:23.000Z</Time>
            <Position>
              <LatitudeDegrees>41.565199680626392364501953125</LatitudeDegrees>
              <LongitudeDegrees>-4.58500471897423267364501953125</LongitudeDegrees>
            </Position>
            <AltitudeMeters>1200.800048828125</AltitudeMeters>
            <DistanceMeters>2059.9049061744</DistanceMeters>
          </Trackpoint>
          <Trackpoint>
            <Time>2023-02-23T09:36:24.000Z</Time>
            <Position>
              <LatitudeDegrees>41.5651710145175457000732421875</LatitudeDegrees>
              <LongitudeDegrees>-4.585018046200275421142578125</LongitudeDegrees>
            </Position>
            <AltitudeMeters>1200.800048828125</AltitudeMeters>
            <DistanceMeters>2063.2847059764</DistanceMeters>
          </Trackpoint>
          <Trackpoint>
            <Time>2023-02-23T09:36:26.000Z</Time>
            <Position>
              <LatitudeDegrees>41.56511309556663036346435546875</LatitudeDegrees>
              <LongitudeDegrees>-4.58504394628107547760009765625</LongitudeDegrees>
            </Position>
            <AltitudeMeters>1200.5999755859375</AltitudeMeters>
            <DistanceMeters>2070.0829359842</DistanceMeters>
          </Trackpoint>
          <Trackpoint>
            <Time>2023-02-23T09:36:31.000Z</Time>
            <Position>
              <LatitudeDegrees>41.56496188603341579437255859375</LatitudeDegrees>
              <LongitudeDegrees>-4.58511183969676494598388671875</LongitudeDegrees>
            </Position>
            <AltitudeMeters>1200.4000244140625</AltitudeMeters>
            <DistanceMeters>2087.837171491</DistanceMeters>
          </Trackpoint>
          <Trackpoint>
            <Time>2023-02-23T09:36:40.000Z</Time>
            <Position>
              <LatitudeDegrees>41.56467497348785400390625</LatitudeDegrees>
              <LongitudeDegrees>-4.5852317847311496734619140625</LongitudeDegrees>
            </Position>
            <AltitudeMeters>1200.4000244140625</AltitudeMeters>
            <DistanceMeters>2121.2968319424</DistanceMeters>
          </Trackpoint>
          <Trackpoint>
            <Time>2023-02-23T09:36:44.000Z</Time>
            <Position>
              <LatitudeDegrees>41.564538180828094482421875</LatitudeDegrees>
              <LongitudeDegrees>-4.58528886549174785614013671875</LongitudeDegrees>
            </Position>
            <AltitudeMeters>1200.4000244140625</AltitudeMeters>
            <DistanceMeters>2137.2468897372</DistanceMeters>
          </Trackpoint>
          <Trackpoint>
            <Time>2023-02-23T09:36:48.000Z</Time>
            <Position>
              <LatitudeDegrees>41.56439267098903656005859375</LatitudeDegrees>
              <LongitudeDegrees>-4.58537000231444835662841796875</LongitudeDegrees>
            </Position>
            <AltitudeMeters>1199.800048828125</AltitudeMeters>
            <DistanceMeters>2154.7952135002</DistanceMeters>
          </Trackpoint>
          <Trackpoint>
            <Time>2023-02-23T09:36:50.000Z</Time>
            <Position>
              <LatitudeDegrees>41.5643190778791904449462890625</LatitudeDegrees>
              <LongitudeDegrees>-4.5854148454964160919189453125</LongitudeDegrees>
            </Position>
            <AltitudeMeters>1199.5999755859375</AltitudeMeters>
            <DistanceMeters>2163.798211121</DistanceMeters>
          </Trackpoint>
          <Trackpoint>
            <Time>2023-02-23T09:36:51.000Z</Time>
            <Position>
              <LatitudeDegrees>41.56428362242877483367919921875</LatitudeDegrees>
              <LongitudeDegrees>-4.5854388177394866943359375</LongitudeDegrees>
            </Position>
            <AltitudeMeters>1199.4000244140625</AltitudeMeters>
            <DistanceMeters>2168.2207834017</DistanceMeters>
          </Trackpoint>
          <Trackpoint>
            <Time>2023-02-23T09:36:53.000Z</Time>
            <Position>
              <LatitudeDegrees>41.56421220861375331878662109375</LatitudeDegrees>
              <LongitudeDegrees>-4.5854849182069301605224609375</LongitudeDegrees>
            </Position>
            <AltitudeMeters>1199.4000244140625</AltitudeMeters>
            <DistanceMeters>2177.048043998</DistanceMeters>
          </Trackpoint>
          <Trackpoint>
            <Time>2023-02-23T09:36:57.000Z</Time>
            <Position>
              <LatitudeDegrees>41.5640729852020740509033203125</LatitudeDegrees>
              <LongitudeDegrees>-4.58557837642729282379150390625</LongitudeDegrees>
            </Position>
            <AltitudeMeters>1199.800048828125</AltitudeMeters>
            <DistanceMeters>2194.3887921244</DistanceMeters>
          </Trackpoint>
          <Trackpoint>
            <Time>2023-02-23T09:36:59.000Z</Time>
            <Position>
              <LatitudeDegrees>41.56400836072862148284912109375</LatitudeDegrees>
              <LongitudeDegrees>-4.58562280051410198211669921875</LongitudeDegrees>
            </Position>
            <AltitudeMeters>1199.800048828125</AltitudeMeters>
            <DistanceMeters>2202.4766765054</DistanceMeters>
          </Trackpoint>
          <Trackpoint>
            <Time>2023-02-23T09:37:06.000Z</Time>
            <Position>
              <LatitudeDegrees>41.5637789480388164520263671875</LatitudeDegrees>
              <LongitudeDegrees>-4.58579345606267452239990234375</LongitudeDegrees>
            </Position>
            <AltitudeMeters>1200.4000244140625</AltitudeMeters>
            <DistanceMeters>2231.6993611738</DistanceMeters>
          </Trackpoint>
          <Trackpoint>
            <Time>2023-02-23T09:37:07.000Z</Time>
            <Position>
              <LatitudeDegrees>41.56374516896903514862060546875</LatitudeDegrees>
              <LongitudeDegrees>-4.58581893704831600189208984375</LongitudeDegrees>
            </Position>
            <AltitudeMeters>1200.4000244140625</AltitudeMeters>
            <DistanceMeters>2236.0165451843</DistanceMeters>
          </Trackpoint>
          <Trackpoint>
            <Time>2023-02-23T09:37:10.000Z</Time>
            <Position>
              <LatitudeDegrees>41.56364190392196178436279296875</LatitudeDegrees>
              <LongitudeDegrees>-4.58588473498821258544921875</LongitudeDegrees>
            </Position>
            <AltitudeMeters>1200.4000244140625</AltitudeMeters>
            <DistanceMeters>2248.7494157355</DistanceMeters>
          </Trackpoint>
          <Trackpoint>
            <Time>2023-02-23T09:37:12.000Z</Time>
            <Position>
              <LatitudeDegrees>41.56357593834400177001953125</LatitudeDegrees>
              <LongitudeDegrees>-4.5859234593808650970458984375</LongitudeDegrees>
            </Position>
            <AltitudeMeters>1200.4000244140625</AltitudeMeters>
            <DistanceMeters>2256.7689047737</DistanceMeters>
          </Trackpoint>
          <Trackpoint>
            <Time>2023-02-23T09:37:15.000Z</Time>
            <Position>
              <LatitudeDegrees>41.5634839050471782684326171875</LatitudeDegrees>
              <LongitudeDegrees>-4.5859868265688419342041015625</LongitudeDegrees>
            </Position>
            <AltitudeMeters>1200.5999755859375</AltitudeMeters>
            <DistanceMeters>2268.2922408405</DistanceMeters>
          </Trackpoint>
          <Trackpoint>
            <Time>2023-02-23T09:37:24.000Z</Time>
            <Position>
              <LatitudeDegrees>41.56326086260378360748291015625</LatitudeDegrees>
              <LongitudeDegrees>-4.5861511118710041046142578125</LongitudeDegrees>
            </Position>
            <AltitudeMeters>1200.5999755859375</AltitudeMeters>
            <DistanceMeters>2296.6377715597</DistanceMeters>
          </Trackpoint>
          <Trackpoint>
            <Time>2023-02-23T09:37:27.000Z</Time>
            <Position>
              <LatitudeDegrees>41.56319933943450450897216796875</LatitudeDegrees>
              <LongitudeDegrees>-4.58619461394846439361572265625</LongitudeDegrees>
            </Position>
            <AltitudeMeters>1200.800048828125</AltitudeMeters>
            <DistanceMeters>2304.3846346698</DistanceMeters>
          </Trackpoint>
          <Trackpoint>
            <Time>2023-02-23T09:37:28.000Z</Time>
            <Position>
              <LatitudeDegrees>41.56317763030529022216796875</LatitudeDegrees>
              <LongitudeDegrees>-4.586210958659648895263671875</LongitudeDegrees>
            </Position>
            <AltitudeMeters>1200.800048828125</AltitudeMeters>
            <DistanceMeters>2307.1583731453</DistanceMeters>
          </Trackpoint>
          <Trackpoint>
            <Time>2023-02-23T09:37:30.000Z</Time>
            <Position>
              <LatitudeDegrees>41.56312960200011730194091796875</LatitudeDegrees>
              <LongitudeDegrees>-4.58624239079654216766357421875</LongitudeDegrees>
            </Position>
            <AltitudeMeters>1201.199951171875</AltitudeMeters>
            <DistanceMeters>2313.1102627519</DistanceMeters>
          </Trackpoint>
          <Trackpoint>
            <Time>2023-02-23T09:37:34.000Z</Time>
            <Position>
              <LatitudeDegrees>41.5630213916301727294921875</LatitudeDegrees>
              <LongitudeDegrees>-4.5863184146583080291748046875</LongitudeDegrees>
            </Position>
            <AltitudeMeters>1201.4000244140625</AltitudeMeters>
            <DistanceMeters>2326.7166813569</DistanceMeters>
          </Trackpoint>
          <Trackpoint>
            <Time>2023-02-23T09:37:35.000Z</Time>
            <Position>
              <LatitudeDegrees>41.56299297697842121124267578125</LatitudeDegrees>
              <LongitudeDegrees>-4.586337022483348846435546875</LongitudeDegrees>
            </Position>
            <AltitudeMeters>1201.5999755859375</AltitudeMeters>
            <DistanceMeters>2330.2390846606</DistanceMeters>
          </Trackpoint>
          <Trackpoint>
            <Time>2023-02-23T09:37:41.000Z</Time>
            <Position>
              <LatitudeDegrees>41.56282148323953151702880859375</LatitudeDegrees>
              <LongitudeDegrees>-4.58645277656614780426025390625</LongitudeDegrees>
            </Position>
            <AltitudeMeters>1201.5999755859375</AltitudeMeters>
            <DistanceMeters>2351.6228404339</DistanceMeters>
          </Trackpoint>
          <Trackpoint>
            <Time>2023-02-23T09:37:43.000Z</Time>
            <Position>
              <LatitudeDegrees>41.56276188790798187255859375</LatitudeDegrees>
              <LongitudeDegrees>-4.5864873938262462615966796875</LongitudeDegrees>
            </Position>
            <AltitudeMeters>1201.5999755859375</AltitudeMeters>
            <DistanceMeters>2358.8548666204</DistanceMeters>
          </Trackpoint>
          <Trackpoint>
            <Time>2023-02-23T09:37:51.000Z</Time>
            <Position>
              <LatitudeDegrees>41.5625263564288616180419921875</LatitudeDegrees>
              <LongitudeDegrees>-4.58662477321922779083251953125</LongitudeDegrees>
            </Position>
            <AltitudeMeters>1202.199951171875</AltitudeMeters>
            <DistanceMeters>2387.4580654971</DistanceMeters>
          </Trackpoint>
          <Trackpoint>
            <Time>2023-02-23T09:37:53.000Z</Time>
            <Position>
              <LatitudeDegrees>41.5624676831066608428955078125</LatitudeDegrees>
              <LongitudeDegrees>-4.58665813319385051727294921875</LongitudeDegrees>
            </Position>
            <AltitudeMeters>1202.199951171875</AltitudeMeters>
            <DistanceMeters>2394.5552315797</DistanceMeters>
          </Trackpoint>
          <Trackpoint>
            <Time>2023-02-23T09:37:55.000Z</Time>
            <Position>
              <LatitudeDegrees>41.5624069981276988983154296875</LatitudeDegrees>
              <LongitudeDegrees>-4.58669476211071014404296875</LongitudeDegrees>
            </Position>
            <AltitudeMeters>1202.5999755859375</AltitudeMeters>
            <DistanceMeters>2401.9667061299</DistanceMeters>
          </Trackpoint>
          <Trackpoint>
            <Time>2023-02-23T09:38:02.000Z</Time>
            <Position>
              <LatitudeDegrees>41.5621847100555896759033203125</LatitudeDegrees>
              <LongitudeDegrees>-4.586817137897014617919921875</LongitudeDegrees>
            </Position>
            <AltitudeMeters>1203.4000244140625</AltitudeMeters>
            <DistanceMeters>2428.7246158234</DistanceMeters>
          </Trackpoint>
          <Trackpoint>
            <Time>2023-02-23T09:38:09.000Z</Time>
            <Position>
              <LatitudeDegrees>41.56196703203022480010986328125</LatitudeDegrees>
              <LongitudeDegrees>-4.58693079650402069091796875</LongitudeDegrees>
            </Position>
            <AltitudeMeters>1203.199951171875</AltitudeMeters>
            <DistanceMeters>2454.7360851729</DistanceMeters>
          </Trackpoint>
          <Trackpoint>
            <Time>2023-02-23T09:38:12.000Z</Time>
            <Position>
              <LatitudeDegrees>41.56187734566628932952880859375</LatitudeDegrees>
              <LongitudeDegrees>-4.58698435686528682708740234375</LongitudeDegrees>
            </Position>
            <AltitudeMeters>1203.4000244140625</AltitudeMeters>
            <DistanceMeters>2465.6703529635</DistanceMeters>
          </Trackpoint>
          <Trackpoint>
            <Time>2023-02-23T09:38:20.000Z</Time>
            <Position>
              <LatitudeDegrees>41.56162463128566741943359375</LatitudeDegrees>
              <LongitudeDegrees>-4.5871260948479175567626953125</LongitudeDegrees>
            </Position>
            <AltitudeMeters>1203.5999755859375</AltitudeMeters>
            <DistanceMeters>2496.1743723232</DistanceMeters>
          </Trackpoint>
          <Trackpoint>
            <Time>2023-02-23T09:38:21.000Z</Time>
            <Position>
              <LatitudeDegrees>41.5615946240723133087158203125</LatitudeDegrees>
              <LongitudeDegrees>-4.58714093081653118133544921875</LongitudeDegrees>
            </Position>
            <AltitudeMeters>1203.800048828125</AltitudeMeters>
            <DistanceMeters>2499.7362899814</DistanceMeters>
          </Trackpoint>
          <Trackpoint>
            <Time>2023-02-23T09:38:28.000Z</Time>
            <Position>
              <LatitudeDegrees>41.5613783709704875946044921875</LatitudeDegrees>
              <LongitudeDegrees>-4.5872786454856395721435546875</LongitudeDegrees>
            </Position>
            <AltitudeMeters>1204.4000244140625</AltitudeMeters>
            <DistanceMeters>2526.3986930609</DistanceMeters>
          </Trackpoint>
          <Trackpoint>
            <Time>2023-02-23T09:38:37.000Z</Time>
            <Position>
              <LatitudeDegrees>41.56109984032809734344482421875</LatitudeDegrees>
              <LongitudeDegrees>-4.58745474927127361297607421875</LongitudeDegrees>
            </Position>
            <AltitudeMeters>1204.800048828125</AltitudeMeters>
            <DistanceMeters>2560.6939909431</DistanceMeters>
          </Trackpoint>
          <Trackpoint>
            <Time>2023-02-23T09:38:42.000Z</Time>
            <Position>
              <LatitudeDegrees>41.56096212565898895263671875</LatitudeDegrees>
              <LongitudeDegrees>-4.58754745312035083770751953125</LongitudeDegrees>
            </Position>
            <AltitudeMeters>1205.800048828125</AltitudeMeters>
            <DistanceMeters>2577.8567731651</DistanceMeters>
          </Trackpoint>
          <Trackpoint>
            <Time>2023-02-23T09:38:43.000Z</Time>
            <Position>
              <LatitudeDegrees>41.56093538738787174224853515625</LatitudeDegrees>
              <LongitudeDegrees>-4.587572179734706878662109375</LongitudeDegrees>
            </Position>
            <AltitudeMeters>1206</AltitudeMeters>
            <DistanceMeters>2581.4752826433</DistanceMeters>
          </Trackpoint>
          <Trackpoint>
            <Time>2023-02-23T09:38:49.000Z</Time>
            <Position>
              <LatitudeDegrees>41.56075282953679561614990234375</LatitudeDegrees>
              <LongitudeDegrees>-4.58769254386425018310546875</LongitudeDegrees>
            </Position>
            <AltitudeMeters>1206.199951171875</AltitudeMeters>
            <DistanceMeters>2604.1323297962</DistanceMeters>
          </Trackpoint>
          <Trackpoint>
            <Time>2023-02-23T09:38:52.000Z</Time>
            <Position>
              <LatitudeDegrees>41.56066230498254299163818359375</LatitudeDegrees>
              <LongitudeDegrees>-4.58773755468428134918212890625</LongitudeDegrees>
            </Position>
            <AltitudeMeters>1206.4000244140625</AltitudeMeters>
            <DistanceMeters>2614.8825352979</DistanceMeters>
          </Trackpoint>
          <Trackpoint>
            <Time>2023-02-23T09:38:54.000Z</Time>
            <Position>
              <LatitudeDegrees>41.560600697994232177734375</LatitudeDegrees>
              <LongitudeDegrees>-4.58777359686791896820068359375</LongitudeDegrees>
            </Position>
            <AltitudeMeters>1206.800048828125</AltitudeMeters>
            <DistanceMeters>2622.3673595616</DistanceMeters>
          </Trackpoint>
          <Trackpoint>
            <Time>2023-02-23T09:38:55.000Z</Time>
            <Position>
              <LatitudeDegrees>41.56056960113346576690673828125</LatitudeDegrees>
              <LongitudeDegrees>-4.58779036067426204681396484375</LongitudeDegrees>
            </Position>
            <AltitudeMeters>1207</AltitudeMeters>
            <DistanceMeters>2626.0988978338</DistanceMeters>
          </Trackpoint>
          <Trackpoint>
            <Time>2023-02-23T09:39:01.000Z</Time>
            <Position>
              <LatitudeDegrees>41.56037379987537860870361328125</LatitudeDegrees>
              <LongitudeDegrees>-4.58786110393702983856201171875</LongitudeDegrees>
            </Position>
            <AltitudeMeters>1207</AltitudeMeters>
            <DistanceMeters>2648.6742933878</DistanceMeters>
          </Trackpoint>
          <Trackpoint>
            <Time>2023-02-23T09:39:06.000Z</Time>
            <Position>
              <LatitudeDegrees>41.56021915376186370849609375</LatitudeDegrees>
              <LongitudeDegrees>-4.58792665041983127593994140625</LongitudeDegrees>
            </Position>
            <AltitudeMeters>1208</AltitudeMeters>
            <DistanceMeters>2666.7316196106</DistanceMeters>
          </Trackpoint>
          <Trackpoint>
            <Time>2023-02-23T09:39:07.000Z</Time>
            <Position>
              <LatitudeDegrees>41.56018638052046298980712890625</LatitudeDegrees>
              <LongitudeDegrees>-4.58793796598911285400390625</LongitudeDegrees>
            </Position>
            <AltitudeMeters>1208</AltitudeMeters>
            <DistanceMeters>2670.4992820384</DistanceMeters>
          </Trackpoint>
          <Trackpoint>
            <Time>2023-02-23T09:39:12.000Z</Time>
            <Position>
              <LatitudeDegrees>41.5600376017391681671142578125</LatitudeDegrees>
              <LongitudeDegrees>-4.58798716776072978973388671875</LongitudeDegrees>
            </Position>
            <AltitudeMeters>1208.800048828125</AltitudeMeters>
            <DistanceMeters>2687.5580992155</DistanceMeters>
          </Trackpoint>
          <Trackpoint>
            <Time>2023-02-23T09:39:13.000Z</Time>
            <Position>
              <LatitudeDegrees>41.56001321040093898773193359375</LatitudeDegrees>
              <LongitudeDegrees>-4.58799839951097965240478515625</LongitudeDegrees>
            </Position>
            <AltitudeMeters>1209</AltitudeMeters>
            <DistanceMeters>2690.4278430572</DistanceMeters>
          </Trackpoint>
          <Trackpoint>
            <Time>2023-02-23T09:39:14.000Z</Time>
            <Position>
              <LatitudeDegrees>41.55998923815786838531494140625</LatitudeDegrees>
              <LongitudeDegrees>-4.58800829015672206878662109375</LongitudeDegrees>
            </Position>
            <AltitudeMeters>1209</AltitudeMeters>
            <DistanceMeters>2693.2194296976</DistanceMeters>
          </Trackpoint>
          <Trackpoint>
            <Time>2023-02-23T09:39:19.000Z</Time>
            <Position>
              <LatitudeDegrees>41.55987893231213092803955078125</LatitudeDegrees>
              <LongitudeDegrees>-4.58807350136339664459228515625</LongitudeDegrees>
            </Position>
            <AltitudeMeters>1209.199951171875</AltitudeMeters>
            <DistanceMeters>2706.6441183595</DistanceMeters>
          </Trackpoint>
          <Trackpoint>
            <Time>2023-02-23T09:39:22.000Z</Time>
            <Position>
              <LatitudeDegrees>41.5598146431148052215576171875</LatitudeDegrees>
              <LongitudeDegrees>-4.5881101302802562713623046875</LongitudeDegrees>
            </Position>
            <AltitudeMeters>1209.199951171875</AltitudeMeters>
            <DistanceMeters>2714.4235510077</DistanceMeters>
          </Trackpoint>
          <Trackpoint>
            <Time>2023-02-23T09:39:27.000Z</Time>
            <Position>
              <LatitudeDegrees>41.55970911495387554168701171875</LatitudeDegrees>
              <LongitudeDegrees>-4.58820140920579433441162109375</LongitudeDegrees>
            </Position>
            <AltitudeMeters>1210</AltitudeMeters>
            <DistanceMeters>2728.4147624332</DistanceMeters>
          </Trackpoint>
          <Trackpoint>
            <Time>2023-02-23T09:39:31.000Z</Time>
            <Position>
              <LatitudeDegrees>41.5596339292824268341064453125</LatitudeDegrees>
              <LongitudeDegrees>-4.5882911793887615203857421875</LongitudeDegrees>
            </Position>
            <AltitudeMeters>1210.5999755859375</AltitudeMeters>
            <DistanceMeters>2739.6359649505</DistanceMeters>
          </Trackpoint>
          <Trackpoint>
            <Time>2023-02-23T09:39:39.000Z</Time>
            <Position>
              <LatitudeDegrees>41.5594954602420330047607421875</LatitudeDegrees>
              <LongitudeDegrees>-4.58845253102481365203857421875</LongitudeDegrees>
            </Position>
            <AltitudeMeters>1211</AltitudeMeters>
            <DistanceMeters>2760.0837178712</DistanceMeters>
          </Trackpoint>
          <Trackpoint>
            <Time>2023-02-23T09:39:40.000Z</Time>
            <Position>
              <LatitudeDegrees>41.55947752296924591064453125</LatitudeDegrees>
              <LongitudeDegrees>-4.588470049202442169189453125</LongitudeDegrees>
            </Position>
            <AltitudeMeters>1211.199951171875</AltitudeMeters>
            <DistanceMeters>2762.5580646192</DistanceMeters>
          </Trackpoint>
          <Trackpoint>
            <Time>2023-02-23T09:39:43.000Z</Time>
            <Position>
              <LatitudeDegrees>41.559424214065074920654296875</LatitudeDegrees>
              <LongitudeDegrees>-4.588527381420135498046875</LongitudeDegrees>
            </Position>
            <AltitudeMeters>1211.800048828125</AltitudeMeters>
            <DistanceMeters>2770.1744424378</DistanceMeters>
          </Trackpoint>
          <Trackpoint>
            <Time>2023-02-23T09:39:44.000Z</Time>
            <Position>
              <LatitudeDegrees>41.55940384604036808013916015625</LatitudeDegrees>
              <LongitudeDegrees>-4.58854422904551029205322265625</LongitudeDegrees>
            </Position>
            <AltitudeMeters>1212</AltitudeMeters>
            <DistanceMeters>2772.8419694269</DistanceMeters>
          </Trackpoint>
          <Trackpoint>
            <Time>2023-02-23T09:39:47.000Z</Time>
            <Position>
              <LatitudeDegrees>41.55934207141399383544921875</LatitudeDegrees>
              <LongitudeDegrees>-4.58860449492931365966796875</LongitudeDegrees>
            </Position>
            <AltitudeMeters>1212.199951171875</AltitudeMeters>
            <DistanceMeters>2781.3552175461</DistanceMeters>
          </Trackpoint>
          <Trackpoint>
            <Time>2023-02-23T09:39:49.000Z</Time>
            <Position>
              <LatitudeDegrees>41.55930728651583194732666015625</LatitudeDegrees>
              <LongitudeDegrees>-4.588644392788410186767578125</LongitudeDegrees>
            </Position>
            <AltitudeMeters>1212.4000244140625</AltitudeMeters>
            <DistanceMeters>2786.4584263861</DistanceMeters>
          </Trackpoint>
          <Trackpoint>
            <Time>2023-02-23T09:39:50.000Z</Time>
            <Position>
              <LatitudeDegrees>41.5592909418046474456787109375</LatitudeDegrees>
              <LongitudeDegrees>-4.58866610191762447357177734375</LongitudeDegrees>
            </Position>
            <AltitudeMeters>1212.4000244140625</AltitudeMeters>
            <DistanceMeters>2789.0223873162</DistanceMeters>
          </Trackpoint>
          <Trackpoint>
            <Time>2023-02-23T09:39:53.000Z</Time>
            <Position>
              <LatitudeDegrees>41.55922480858862400054931640625</LatitudeDegrees>
              <LongitudeDegrees>-4.58873868919909000396728515625</LongitudeDegrees>
            </Position>
            <AltitudeMeters>1212.199951171875</AltitudeMeters>
            <DistanceMeters>2798.5473638533</DistanceMeters>
          </Trackpoint>
          <Trackpoint>
            <Time>2023-02-23T09:39:58.000Z</Time>
            <Position>
              <LatitudeDegrees>41.55907410196959972381591796875</LatitudeDegrees>
              <LongitudeDegrees>-4.5888881385326385498046875</LongitudeDegrees>
            </Position>
            <AltitudeMeters>1211.5999755859375</AltitudeMeters>
            <DistanceMeters>2819.4348755144</DistanceMeters>
          </Trackpoint>
          <Trackpoint>
            <Time>2023-02-23T09:39:59.000Z</Time>
            <Position>
              <LatitudeDegrees>41.55904174782335758209228515625</LatitudeDegrees>
              <LongitudeDegrees>-4.58891856484115123748779296875</LongitudeDegrees>
            </Position>
            <AltitudeMeters>1211.199951171875</AltitudeMeters>
            <DistanceMeters>2823.8369822883</DistanceMeters>
          </Trackpoint>
          <Trackpoint>
            <Time>2023-02-23T09:40:05.000Z</Time>
            <Position>
              <LatitudeDegrees>41.5587995946407318115234375</LatitudeDegrees>
              <LongitudeDegrees>-4.58910246379673480987548828125</LongitudeDegrees>
            </Position>
            <AltitudeMeters>1210.5999755859375</AltitudeMeters>
            <DistanceMeters>2854.8368172111</DistanceMeters>
          </Trackpoint>
          <Trackpoint>
            <Time>2023-02-23T09:40:06.000Z</Time>
            <Position>
              <LatitudeDegrees>41.55875793658196926116943359375</LatitudeDegrees>
              <LongitudeDegrees>-4.5891360752284526824951171875</LongitudeDegrees>
            </Position>
            <AltitudeMeters>1210.5999755859375</AltitudeMeters>
            <DistanceMeters>2860.2541734337</DistanceMeters>
          </Trackpoint>
          <Trackpoint>
            <Time>2023-02-23T09:40:09.000Z</Time>
            <Position>
              <LatitudeDegrees>41.5586281009018421173095703125</LatitudeDegrees>
              <LongitudeDegrees>-4.5892520807683467864990234375</LongitudeDegrees>
            </Position>
            <AltitudeMeters>1209.800048828125</AltitudeMeters>
            <DistanceMeters>2877.6375700558</DistanceMeters>
          </Trackpoint>
          <Trackpoint>
            <Time>2023-02-23T09:40:11.000Z</Time>
            <Position>
              <LatitudeDegrees>41.55854168348014354705810546875</LatitudeDegrees>
              <LongitudeDegrees>-4.5893281884491443634033203125</LongitudeDegrees>
            </Position>
            <AltitudeMeters>1209.199951171875</AltitudeMeters>
            <DistanceMeters>2889.15659533</DistanceMeters>
          </Trackpoint>
          <Trackpoint>
            <Time>2023-02-23T09:40:13.000Z</Time>
            <Position>
              <LatitudeDegrees>41.5584510751068592071533203125</LatitudeDegrees>
              <LongitudeDegrees>-4.58939800970256328582763671875</LongitudeDegrees>
            </Position>
            <AltitudeMeters>1208.800048828125</AltitudeMeters>
            <DistanceMeters>2900.7980465828</DistanceMeters>
          </Trackpoint>
          <Trackpoint>
            <Time>2023-02-23T09:40:14.000Z</Time>
            <Position>
              <LatitudeDegrees>41.55840396881103515625</LatitudeDegrees>
              <LongitudeDegrees>-4.5894274301826953887939453125</LongitudeDegrees>
            </Position>
            <AltitudeMeters>1208.800048828125</AltitudeMeters>
            <DistanceMeters>2906.5845415024</DistanceMeters>
          </Trackpoint>
          <Trackpoint>
            <Time>2023-02-23T09:40:15.000Z</Time>
            <Position>
              <LatitudeDegrees>41.558359377086162567138671875</LatitudeDegrees>
              <LongitudeDegrees>-4.58946171216666698455810546875</LongitudeDegrees>
            </Position>
            <AltitudeMeters>1208.5999755859375</AltitudeMeters>
            <DistanceMeters>2912.3098517552</DistanceMeters>
          </Trackpoint>
          <Trackpoint>
            <Time>2023-02-23T09:40:17.000Z</Time>
            <Position>
              <LatitudeDegrees>41.55826918780803680419921875</LatitudeDegrees>
              <LongitudeDegrees>-4.589527510106563568115234375</LongitudeDegrees>
            </Position>
            <AltitudeMeters>1208.4000244140625</AltitudeMeters>
            <DistanceMeters>2923.7466632554</DistanceMeters>
          </Trackpoint>
          <Trackpoint>
            <Time>2023-02-23T09:40:20.000Z</Time>
            <Position>
              <LatitudeDegrees>41.55813968740403652191162109375</LatitudeDegrees>
              <LongitudeDegrees>-4.58961660973727703094482421875</LongitudeDegrees>
            </Position>
            <AltitudeMeters>1208</AltitudeMeters>
            <DistanceMeters>2939.9586774726</DistanceMeters>
          </Trackpoint>
          <Trackpoint>
            <Time>2023-02-23T09:40:22.000Z</Time>
            <Position>
              <LatitudeDegrees>41.558055616915225982666015625</LatitudeDegrees>
              <LongitudeDegrees>-4.58967109210789203643798828125</LongitudeDegrees>
            </Position>
            <AltitudeMeters>1208.4000244140625</AltitudeMeters>
            <DistanceMeters>2950.3579176128</DistanceMeters>
          </Trackpoint>
          <Trackpoint>
            <Time>2023-02-23T09:40:25.000Z</Time>
            <Position>
              <LatitudeDegrees>41.55793684534728527069091796875</LatitudeDegrees>
              <LongitudeDegrees>-4.58978827111423015594482421875</LongitudeDegrees>
            </Position>
            <AltitudeMeters>1207.5999755859375</AltitudeMeters>
            <DistanceMeters>2966.7890230388</DistanceMeters>
          </Trackpoint>
          <Trackpoint>
            <Time>2023-02-23T09:40:26.000Z</Time>
            <Position>
              <LatitudeDegrees>41.5578956902027130126953125</LatitudeDegrees>
              <LongitudeDegrees>-4.58982146345078945159912109375</LongitudeDegrees>
            </Position>
            <AltitudeMeters>1207.4000244140625</AltitudeMeters>
            <DistanceMeters>2972.1384447132</DistanceMeters>
          </Trackpoint>
          <Trackpoint>
            <Time>2023-02-23T09:40:28.000Z</Time>
            <Position>
              <LatitudeDegrees>41.55781128443777561187744140625</LatitudeDegrees>
              <LongitudeDegrees>-4.589876867830753326416015625</LongitudeDegrees>
            </Position>
            <AltitudeMeters>1207</AltitudeMeters>
            <DistanceMeters>2982.605196235</DistanceMeters>
          </Trackpoint>
          <Trackpoint>
            <Time>2023-02-23T09:40:32.000Z</Time>
            <Position>
              <LatitudeDegrees>41.5576578117907047271728515625</LatitudeDegrees>
              <LongitudeDegrees>-4.58998088724911212921142578125</LongitudeDegrees>
            </Position>
            <AltitudeMeters>1206.5999755859375</AltitudeMeters>
            <DistanceMeters>3001.7586785714</DistanceMeters>
          </Trackpoint>
          <Trackpoint>
            <Time>2023-02-23T09:40:35.000Z</Time>
            <Position>
              <LatitudeDegrees>41.55755965970456600189208984375</LatitudeDegrees>
              <LongitudeDegrees>-4.5900721661746501922607421875</LongitudeDegrees>
            </Position>
            <AltitudeMeters>1206.5999755859375</AltitudeMeters>
            <DistanceMeters>3015.0681868118</DistanceMeters>
          </Trackpoint>
          <Trackpoint>
            <Time>2023-02-23T09:40:43.000Z</Time>
            <Position>
              <LatitudeDegrees>41.55727752484381198883056640625</LatitudeDegrees>
              <LongitudeDegrees>-4.5902890898287296295166015625</LongitudeDegrees>
            </Position>
            <AltitudeMeters>1207</AltitudeMeters>
            <DistanceMeters>3051.2966776854</DistanceMeters>
          </Trackpoint>
          <Trackpoint>
            <Time>2023-02-23T09:40:45.000Z</Time>
            <Position>
              <LatitudeDegrees>41.55720032751560211181640625</LatitudeDegrees>
              <LongitudeDegrees>-4.59032873623073101043701171875</LongitudeDegrees>
            </Position>
            <AltitudeMeters>1206.800048828125</AltitudeMeters>
            <DistanceMeters>3060.5010341104</DistanceMeters>
          </Trackpoint>
          <Trackpoint>
            <Time>2023-02-23T09:40:47.000Z</Time>
            <Position>
              <LatitudeDegrees>41.55712656676769256591796875</LatitudeDegrees>
              <LongitudeDegrees>-4.59037584252655506134033203125</LongitudeDegrees>
            </Position>
            <AltitudeMeters>1206.4000244140625</AltitudeMeters>
            <DistanceMeters>3069.5998109973</DistanceMeters>
          </Trackpoint>
          <Trackpoint>
            <Time>2023-02-23T09:40:51.000Z</Time>
            <Position>
              <LatitudeDegrees>41.55698633752763271331787109375</LatitudeDegrees>
              <LongitudeDegrees>-4.59050022996962070465087890625</LongitudeDegrees>
            </Position>
            <AltitudeMeters>1205.800048828125</AltitudeMeters>
            <DistanceMeters>3088.3328521483</DistanceMeters>
          </Trackpoint>
          <Trackpoint>
            <Time>2023-02-23T09:40:53.000Z</Time>
            <Position>
              <LatitudeDegrees>41.5569094754755496978759765625</LatitudeDegrees>
              <LongitudeDegrees>-4.59057901985943317413330078125</LongitudeDegrees>
            </Position>
            <AltitudeMeters>1205.4000244140625</AltitudeMeters>
            <DistanceMeters>3099.1149300621</DistanceMeters>
          </Trackpoint>
          <Trackpoint>
            <Time>2023-02-23T09:40:57.000Z</Time>
            <Position>
              <LatitudeDegrees>41.5567450225353240966796875</LatitudeDegrees>
              <LongitudeDegrees>-4.59073727019131183624267578125</LongitudeDegrees>
            </Position>
            <AltitudeMeters>1204.5999755859375</AltitudeMeters>
            <DistanceMeters>3121.6705171051</DistanceMeters>
          </Trackpoint>
          <Trackpoint>
            <Time>2023-02-23T09:40:58.000Z</Time>
            <Position>
              <LatitudeDegrees>41.55669682659208774566650390625</LatitudeDegrees>
              <LongitudeDegrees>-4.5907557941973209381103515625</LongitudeDegrees>
            </Position>
            <AltitudeMeters>1204.199951171875</AltitudeMeters>
            <DistanceMeters>3127.2520727781</DistanceMeters>
          </Trackpoint>
          <Trackpoint>
            <Time>2023-02-23T09:40:59.000Z</Time>
            <Position>
              <LatitudeDegrees>41.55664955265820026397705078125</LatitudeDegrees>
              <LongitudeDegrees>-4.5907630026340484619140625</LongitudeDegrees>
            </Position>
            <AltitudeMeters>1204</AltitudeMeters>
            <DistanceMeters>3132.5480540314</DistanceMeters>
          </Trackpoint>
          <Trackpoint>
            <Time>2023-02-23T09:41:01.000Z</Time>
            <Position>
              <LatitudeDegrees>41.5565601177513599395751953125</LatitudeDegrees>
              <LongitudeDegrees>-4.59075160324573516845703125</LongitudeDegrees>
            </Position>
            <AltitudeMeters>1203.800048828125</AltitudeMeters>
            <DistanceMeters>3142.5475558422</DistanceMeters>
          </Trackpoint>
          <Trackpoint>
            <Time>2023-02-23T09:41:07.000Z</Time>
            <Position>
              <LatitudeDegrees>41.5563200600445270538330078125</LatitudeDegrees>
              <LongitudeDegrees>-4.590692929923534393310546875</LongitudeDegrees>
            </Position>
            <AltitudeMeters>1204.199951171875</AltitudeMeters>
            <DistanceMeters>3169.7097416103</DistanceMeters>
          </Trackpoint>
          <Trackpoint>
            <Time>2023-02-23T09:41:11.000Z</Time>
            <Position>
              <LatitudeDegrees>41.55615401454269886016845703125</LatitudeDegrees>
              <LongitudeDegrees>-4.5907044969499111175537109375</LongitudeDegrees>
            </Position>
            <AltitudeMeters>1204.4000244140625</AltitudeMeters>
            <DistanceMeters>3188.2160569997</DistanceMeters>
          </Trackpoint>
          <Trackpoint>
            <Time>2023-02-23T09:41:13.000Z</Time>
            <Position>
              <LatitudeDegrees>41.5560756437480449676513671875</LatitudeDegrees>
              <LongitudeDegrees>-4.59070776589214801788330078125</LongitudeDegrees>
            </Position>
            <AltitudeMeters>1204.4000244140625</AltitudeMeters>
            <DistanceMeters>3196.9430074824</DistanceMeters>
          </Trackpoint>
          <Trackpoint>
            <Time>2023-02-23T09:41:19.000Z</Time>
            <Position>
              <LatitudeDegrees>41.55586299486458301544189453125</LatitudeDegrees>
              <LongitudeDegrees>-4.5907454006373882293701171875</LongitudeDegrees>
            </Position>
            <AltitudeMeters>1204.5999755859375</AltitudeMeters>
            <DistanceMeters>3220.817984874</DistanceMeters>
          </Trackpoint>
          <Trackpoint>
            <Time>2023-02-23T09:41:20.000Z</Time>
            <Position>
              <LatitudeDegrees>41.555827371776103973388671875</LatitudeDegrees>
              <LongitudeDegrees>-4.59075436927378177642822265625</LongitudeDegrees>
            </Position>
            <AltitudeMeters>1204.800048828125</AltitudeMeters>
            <DistanceMeters>3224.8541040379</DistanceMeters>
          </Trackpoint>
          <Trackpoint>
            <Time>2023-02-23T09:41:22.000Z</Time>
            <Position>
              <LatitudeDegrees>41.5557552874088287353515625</LatitudeDegrees>
              <LongitudeDegrees>-4.59077415056526660919189453125</LongitudeDegrees>
            </Position>
            <AltitudeMeters>1205</AltitudeMeters>
            <DistanceMeters>3233.0451642854</DistanceMeters>
          </Trackpoint>
          <Trackpoint>
            <Time>2023-02-23T09:41:24.000Z</Time>
            <Position>
              <LatitudeDegrees>41.55568144284188747406005859375</LatitudeDegrees>
              <LongitudeDegrees>-4.5907906629145145416259765625</LongitudeDegrees>
            </Position>
            <AltitudeMeters>1205.199951171875</AltitudeMeters>
            <DistanceMeters>3241.3783082211</DistanceMeters>
          </Trackpoint>
          <Trackpoint>
            <Time>2023-02-23T09:41:25.000Z</Time>
            <Position>
              <LatitudeDegrees>41.55564674176275730133056640625</LatitudeDegrees>
              <LongitudeDegrees>-4.590798877179622650146484375</LongitudeDegrees>
            </Position>
            <AltitudeMeters>1205.4000244140625</AltitudeMeters>
            <DistanceMeters>3245.3009667916</DistanceMeters>
          </Trackpoint>
          <Trackpoint>
            <Time>2023-02-23T09:41:29.000Z</Time>
            <Position>
              <LatitudeDegrees>41.5555187501013278961181640625</LatitudeDegrees>
              <LongitudeDegrees>-4.59082192741334438323974609375</LongitudeDegrees>
            </Position>
            <AltitudeMeters>1205.800048828125</AltitudeMeters>
            <DistanceMeters>3259.6754653634</DistanceMeters>
          </Trackpoint>
          <Trackpoint>
            <Time>2023-02-23T09:41:32.000Z</Time>
            <Position>
              <LatitudeDegrees>41.5554334223270416259765625</LatitudeDegrees>
              <LongitudeDegrees>-4.59084707312285900115966796875</LongitudeDegrees>
            </Position>
            <AltitudeMeters>1206.199951171875</AltitudeMeters>
            <DistanceMeters>3269.4002785029</DistanceMeters>
          </Trackpoint>
          <Trackpoint>
            <Time>2023-02-23T09:41:35.000Z</Time>
            <Position>
              <LatitudeDegrees>41.55534180812537670135498046875</LatitudeDegrees>
              <LongitudeDegrees>-4.59084455855190753936767578125</LongitudeDegrees>
            </Position>
            <AltitudeMeters>1206.4000244140625</AltitudeMeters>
            <DistanceMeters>3279.5996157673</DistanceMeters>
          </Trackpoint>
          <Trackpoint>
            <Time>2023-02-23T09:41:36.000Z</Time>
            <Position>
              <LatitudeDegrees>41.55531196855008602142333984375</LatitudeDegrees>
              <LongitudeDegrees>-4.5908354222774505615234375</LongitudeDegrees>
            </Position>
            <AltitudeMeters>1206.4000244140625</AltitudeMeters>
            <DistanceMeters>3283.0073537718</DistanceMeters>
          </Trackpoint>
          <Trackpoint>
            <Time>2023-02-23T09:41:43.000Z</Time>
            <Position>
              <LatitudeDegrees>41.55509253032505512237548828125</LatitudeDegrees>
              <LongitudeDegrees>-4.590787477791309356689453125</LongitudeDegrees>
            </Position>
            <AltitudeMeters>1206.800048828125</AltitudeMeters>
            <DistanceMeters>3307.7557475573</DistanceMeters>
          </Trackpoint>
          <Trackpoint>
            <Time>2023-02-23T09:41:44.000Z</Time>
            <Position>
              <LatitudeDegrees>41.555056907236576080322265625</LatitudeDegrees>
              <LongitudeDegrees>-4.5907832868397235870361328125</LongitudeDegrees>
            </Position>
            <AltitudeMeters>1206.800048828125</AltitudeMeters>
            <DistanceMeters>3311.7355407784</DistanceMeters>
          </Trackpoint>
          <Trackpoint>
            <Time>2023-02-23T09:41:50.000Z</Time>
            <Position>
              <LatitudeDegrees>41.55484476126730442047119140625</LatitudeDegrees>
              <LongitudeDegrees>-4.5907898247241973876953125</LongitudeDegrees>
            </Position>
            <AltitudeMeters>1206</AltitudeMeters>
            <DistanceMeters>3335.3542198779</DistanceMeters>
          </Trackpoint>
          <Trackpoint>
            <Time>2023-02-23T09:41:56.000Z</Time>
            <Position>
              <LatitudeDegrees>41.55468114651739597320556640625</LatitudeDegrees>
              <LongitudeDegrees>-4.5909093506634235382080078125</LongitudeDegrees>
            </Position>
            <AltitudeMeters>1206.5999755859375</AltitudeMeters>
            <DistanceMeters>3356.1083675688</DistanceMeters>
          </Trackpoint>
          <Trackpoint>
            <Time>2023-02-23T09:41:58.000Z</Time>
            <Position>
              <LatitudeDegrees>41.55463286675512790679931640625</LatitudeDegrees>
              <LongitudeDegrees>-4.5909569598734378814697265625</LongitudeDegrees>
            </Position>
            <AltitudeMeters>1207</AltitudeMeters>
            <DistanceMeters>3362.7873328804</DistanceMeters>
          </Trackpoint>
          <Trackpoint>
            <Time>2023-02-23T09:42:01.000Z</Time>
            <Position>
              <LatitudeDegrees>41.55456497333943843841552734375</LatitudeDegrees>
              <LongitudeDegrees>-4.59101370535790920257568359375</LongitudeDegrees>
            </Position>
            <AltitudeMeters>1207.199951171875</AltitudeMeters>
            <DistanceMeters>3371.7006158083</DistanceMeters>
          </Trackpoint>
          <Trackpoint>
            <Time>2023-02-23T09:42:03.000Z</Time>
            <Position>
              <LatitudeDegrees>41.55451803468167781829833984375</LatitudeDegrees>
              <LongitudeDegrees>-4.59104840643703937530517578125</LongitudeDegrees>
            </Position>
            <AltitudeMeters>1207.4000244140625</AltitudeMeters>
            <DistanceMeters>3377.6714400229</DistanceMeters>
          </Trackpoint>
          <Trackpoint>
            <Time>2023-02-23T09:42:07.000Z</Time>
            <Position>
              <LatitudeDegrees>41.5544280968606472015380859375</LatitudeDegrees>
              <LongitudeDegrees>-4.59110540337860584259033203125</LongitudeDegrees>
            </Position>
            <AltitudeMeters>1208.4000244140625</AltitudeMeters>
            <DistanceMeters>3388.7501041583</DistanceMeters>
          </Trackpoint>
          <Trackpoint>
            <Time>2023-02-23T09:42:08.000Z</Time>
            <Position>
              <LatitudeDegrees>41.55440546572208404541015625</LatitudeDegrees>
              <LongitudeDegrees>-4.59112040698528289794921875</LongitudeDegrees>
            </Position>
            <AltitudeMeters>1208.5999755859375</AltitudeMeters>
            <DistanceMeters>3391.561032277</DistanceMeters>
          </Trackpoint>
          <Trackpoint>
            <Time>2023-02-23T09:42:09.000Z</Time>
            <Position>
              <LatitudeDegrees>41.55438258312642574310302734375</LatitudeDegrees>
              <LongitudeDegrees>-4.59113608114421367645263671875</LongitudeDegrees>
            </Position>
            <AltitudeMeters>1208.800048828125</AltitudeMeters>
            <DistanceMeters>3394.4244759051</DistanceMeters>
          </Trackpoint>
          <Trackpoint>
            <Time>2023-02-23T09:42:12.000Z</Time>
            <Position>
              <LatitudeDegrees>41.5543060563504695892333984375</LatitudeDegrees>
              <LongitudeDegrees>-4.591168351471424102783203125</LongitudeDegrees>
            </Position>
            <AltitudeMeters>1208.800048828125</AltitudeMeters>
            <DistanceMeters>3403.3559760762</DistanceMeters>
          </Trackpoint>
          <Trackpoint>
            <Time>2023-02-23T09:42:13.000Z</Time>
            <Position>
              <LatitudeDegrees>41.55427646823227405548095703125</LatitudeDegrees>
              <LongitudeDegrees>-4.59117539227008819580078125</LongitudeDegrees>
            </Position>
            <AltitudeMeters>1209</AltitudeMeters>
            <DistanceMeters>3406.7008624291</DistanceMeters>
          </Trackpoint>
          <Trackpoint>
            <Time>2023-02-23T09:42:15.000Z</Time>
            <Position>
              <LatitudeDegrees>41.55422617681324481964111328125</LatitudeDegrees>
              <LongitudeDegrees>-4.59118570201098918914794921875</LongitudeDegrees>
            </Position>
            <AltitudeMeters>1209</AltitudeMeters>
            <DistanceMeters>3412.3643270515</DistanceMeters>
          </Trackpoint>
          <Trackpoint>
            <Time>2023-02-23T09:42:19.000Z</Time>
            <Position>
              <LatitudeDegrees>41.5541142784059047698974609375</LatitudeDegrees>
              <LongitudeDegrees>-4.59122040309011936187744140625</LongitudeDegrees>
            </Position>
            <AltitudeMeters>1209.5999755859375</AltitudeMeters>
            <DistanceMeters>3425.1495702556</DistanceMeters>
          </Trackpoint>
          <Trackpoint>
            <Time>2023-02-23T09:42:26.000Z</Time>
            <Position>
              <LatitudeDegrees>41.55390799976885318756103515625</LatitudeDegrees>
              <LongitudeDegrees>-4.59127656184136867523193359375</LongitudeDegrees>
            </Position>
            <AltitudeMeters>1210</AltitudeMeters>
            <DistanceMeters>3448.5803525209</DistanceMeters>
          </Trackpoint>
          <Trackpoint>
            <Time>2023-02-23T09:42:31.000Z</Time>
            <Position>
              <LatitudeDegrees>41.5537551976740360260009765625</LatitudeDegrees>
              <LongitudeDegrees>-4.59135166369378566741943359375</LongitudeDegrees>
            </Position>
            <AltitudeMeters>1210.199951171875</AltitudeMeters>
            <DistanceMeters>3466.7013265512</DistanceMeters>
          </Trackpoint>
          <Trackpoint>
            <Time>2023-02-23T09:42:34.000Z</Time>
            <Position>
              <LatitudeDegrees>41.55368235893547534942626953125</LatitudeDegrees>
              <LongitudeDegrees>-4.59138100035488605499267578125</LongitudeDegrees>
            </Position>
            <AltitudeMeters>1210.4000244140625</AltitudeMeters>
            <DistanceMeters>3475.1688413558</DistanceMeters>
          </Trackpoint>
          <Trackpoint>
            <Time>2023-02-23T09:42:36.000Z</Time>
            <Position>
              <LatitudeDegrees>41.5536197461187839508056640625</LatitudeDegrees>
              <LongitudeDegrees>-4.5913958363234996795654296875</LongitudeDegrees>
            </Position>
            <AltitudeMeters>1210.199951171875</AltitudeMeters>
            <DistanceMeters>3482.2462585425</DistanceMeters>
          </Trackpoint>
          <Trackpoint>
            <Time>2023-02-23T09:42:38.000Z</Time>
            <Position>
              <LatitudeDegrees>41.55354942195117473602294921875</LatitudeDegrees>
              <LongitudeDegrees>-4.59141402505338191986083984375</LongitudeDegrees>
            </Position>
            <AltitudeMeters>1210</AltitudeMeters>
            <DistanceMeters>3490.21944725</DistanceMeters>
          </Trackpoint>
          <Trackpoint>
            <Time>2023-02-23T09:42:41.000Z</Time>
            <Position>
              <LatitudeDegrees>41.55343794263899326324462890625</LatitudeDegrees>
              <LongitudeDegrees>-4.59144202060997486114501953125</LongitudeDegrees>
            </Position>
            <AltitudeMeters>1209.800048828125</AltitudeMeters>
            <DistanceMeters>3502.844060085</DistanceMeters>
          </Trackpoint>
          <Trackpoint>
            <Time>2023-02-23T09:42:50.000Z</Time>
            <Position>
              <LatitudeDegrees>41.55309143476188182830810546875</LatitudeDegrees>
              <LongitudeDegrees>-4.59148510359227657318115234375</LongitudeDegrees>
            </Position>
            <AltitudeMeters>1208.800048828125</AltitudeMeters>
            <DistanceMeters>3541.5775596769</DistanceMeters>
          </Trackpoint>
          <Trackpoint>
            <Time>2023-02-23T09:42:53.000Z</Time>
            <Position>
              <LatitudeDegrees>41.55295631848275661468505859375</LatitudeDegrees>
              <LongitudeDegrees>-4.59150270558893680572509765625</LongitudeDegrees>
            </Position>
            <AltitudeMeters>1208.5999755859375</AltitudeMeters>
            <DistanceMeters>3556.6877037136</DistanceMeters>
          </Trackpoint>
          <Trackpoint>
            <Time>2023-02-23T09:42:58.000Z</Time>
            <Position>
              <LatitudeDegrees>41.5527284145355224609375</LatitudeDegrees>
              <LongitudeDegrees>-4.5915292762219905853271484375</LongitudeDegrees>
            </Position>
            <AltitudeMeters>1208.4000244140625</AltitudeMeters>
            <DistanceMeters>3582.1506078817</DistanceMeters>
          </Trackpoint>
          <Trackpoint>
            <Time>2023-02-23T09:43:00.000Z</Time>
            <Position>
              <LatitudeDegrees>41.55262707732617855072021484375</LatitudeDegrees>
              <LongitudeDegrees>-4.59152332507073879241943359375</LongitudeDegrees>
            </Position>
            <AltitudeMeters>1208.4000244140625</AltitudeMeters>
            <DistanceMeters>3593.4404054444</DistanceMeters>
          </Trackpoint>
          <Trackpoint>
            <Time>2023-02-23T09:43:03.000Z</Time>
            <Position>
              <LatitudeDegrees>41.55247888527810573577880859375</LatitudeDegrees>
              <LongitudeDegrees>-4.5915242470800876617431640625</LongitudeDegrees>
            </Position>
            <AltitudeMeters>1208.4000244140625</AltitudeMeters>
            <DistanceMeters>3609.9345905745</DistanceMeters>
          </Trackpoint>
          <Trackpoint>
            <Time>2023-02-23T09:43:05.000Z</Time>
            <Position>
              <LatitudeDegrees>41.55238266102969646453857421875</LatitudeDegrees>
              <LongitudeDegrees>-4.59152248688042163848876953125</LongitudeDegrees>
            </Position>
            <AltitudeMeters>1208.199951171875</AltitudeMeters>
            <DistanceMeters>3620.6456652741</DistanceMeters>
          </Trackpoint>
          <Trackpoint>
            <Time>2023-02-23T09:43:08.000Z</Time>
            <Position>
              <LatitudeDegrees>41.5522454492747783660888671875</LatitudeDegrees>
              <LongitudeDegrees>-4.5915292762219905853271484375</LongitudeDegrees>
            </Position>
            <AltitudeMeters>1207.4000244140625</AltitudeMeters>
            <DistanceMeters>3635.9278400889</DistanceMeters>
          </Trackpoint>
          <Trackpoint>
            <Time>2023-02-23T09:43:12.000Z</Time>
            <Position>
              <LatitudeDegrees>41.55206699855625629425048828125</LatitudeDegrees>
              <LongitudeDegrees>-4.59151645191013813018798828125</LongitudeDegrees>
            </Position>
            <AltitudeMeters>1207</AltitudeMeters>
            <DistanceMeters>3655.8186361844</DistanceMeters>
          </Trackpoint>
          <Trackpoint>
            <Time>2023-02-23T09:43:17.000Z</Time>
            <Position>
              <LatitudeDegrees>41.5518233366310596466064453125</LatitudeDegrees>
              <LongitudeDegrees>-4.59148962981998920440673828125</LongitudeDegrees>
            </Position>
            <AltitudeMeters>1207</AltitudeMeters>
            <DistanceMeters>3683.030643803</DistanceMeters>
          </Trackpoint>
          <Trackpoint>
            <Time>2023-02-23T09:43:19.000Z</Time>
            <Position>
              <LatitudeDegrees>41.55172753147780895233154296875</LatitudeDegrees>
              <LongitudeDegrees>-4.591466747224330902099609375</LongitudeDegrees>
            </Position>
            <AltitudeMeters>1207</AltitudeMeters>
            <DistanceMeters>3693.8628556415</DistanceMeters>
          </Trackpoint>
          <Trackpoint>
            <Time>2023-02-23T09:43:25.000Z</Time>
            <Position>
              <LatitudeDegrees>41.5514853782951831817626953125</LatitudeDegrees>
              <LongitudeDegrees>-4.5914337225258350372314453125</LongitudeDegrees>
            </Position>
            <AltitudeMeters>1207.199951171875</AltitudeMeters>
            <DistanceMeters>3720.9549702418</DistanceMeters>
          </Trackpoint>
          <Trackpoint>
            <Time>2023-02-23T09:43:30.000Z</Time>
            <Position>
              <LatitudeDegrees>41.55128781683743000030517578125</LatitudeDegrees>
              <LongitudeDegrees>-4.5914833433926105499267578125</LongitudeDegrees>
            </Position>
            <AltitudeMeters>1206.800048828125</AltitudeMeters>
            <DistanceMeters>3743.3288683766</DistanceMeters>
          </Trackpoint>
          <Trackpoint>
            <Time>2023-02-23T09:43:32.000Z</Time>
            <Position>
              <LatitudeDegrees>41.55119947157800197601318359375</LatitudeDegrees>
              <LongitudeDegrees>-4.59148258902132511138916015625</LongitudeDegrees>
            </Position>
            <AltitudeMeters>1206.800048828125</AltitudeMeters>
            <DistanceMeters>3753.1626412354</DistanceMeters>
          </Trackpoint>
          <Trackpoint>
            <Time>2023-02-23T09:43:39.000Z</Time>
            <Position>
              <LatitudeDegrees>41.55086302198469638824462890625</LatitudeDegrees>
              <LongitudeDegrees>-4.59151737391948699951171875</LongitudeDegrees>
            </Position>
            <AltitudeMeters>1206.5999755859375</AltitudeMeters>
            <DistanceMeters>3790.722122893</DistanceMeters>
          </Trackpoint>
          <Trackpoint>
            <Time>2023-02-23T09:43:40.000Z</Time>
            <Position>
              <LatitudeDegrees>41.5508144907653331756591796875</LatitudeDegrees>
              <LongitudeDegrees>-4.59152282215654850006103515625</LongitudeDegrees>
            </Position>
            <AltitudeMeters>1206</AltitudeMeters>
            <DistanceMeters>3796.1436447112</DistanceMeters>
          </Trackpoint>
          <Trackpoint>
            <Time>2023-02-23T09:43:43.000Z</Time>
            <Position>
              <LatitudeDegrees>41.55066571198403835296630859375</LatitudeDegrees>
              <LongitudeDegrees>-4.5915436930954456329345703125</LongitudeDegrees>
            </Position>
            <AltitudeMeters>1205.4000244140625</AltitudeMeters>
            <DistanceMeters>3812.7942124788</DistanceMeters>
          </Trackpoint>
          <Trackpoint>
            <Time>2023-02-23T09:43:46.000Z</Time>
            <Position>
              <LatitudeDegrees>41.55051567591726779937744140625</LatitudeDegrees>
              <LongitudeDegrees>-4.59157294593751430511474609375</LongitudeDegrees>
            </Position>
            <AltitudeMeters>1205.199951171875</AltitudeMeters>
            <DistanceMeters>3829.6704860912</DistanceMeters>
          </Trackpoint>
          <Trackpoint>
            <Time>2023-02-23T09:43:49.000Z</Time>
            <Position>
              <LatitudeDegrees>41.5503774583339691162109375</LatitudeDegrees>
              <LongitudeDegrees>-4.59161468781530857086181640625</LongitudeDegrees>
            </Position>
            <AltitudeMeters>1205</AltitudeMeters>
            <DistanceMeters>3845.4426307101</DistanceMeters>
          </Trackpoint>
          <Trackpoint>
            <Time>2023-02-23T09:43:51.000Z</Time>
            <Position>
              <LatitudeDegrees>41.550285257399082183837890625</LatitudeDegrees>
              <LongitudeDegrees>-4.5916395820677280426025390625</LongitudeDegrees>
            </Position>
            <AltitudeMeters>1204.800048828125</AltitudeMeters>
            <DistanceMeters>3855.9119701294</DistanceMeters>
          </Trackpoint>
          <Trackpoint>
            <Time>2023-02-23T09:43:53.000Z</Time>
            <Position>
              <LatitudeDegrees>41.55019749887287616729736328125</LatitudeDegrees>
              <LongitudeDegrees>-4.5916560105979442596435546875</LongitudeDegrees>
            </Position>
            <AltitudeMeters>1204.4000244140625</AltitudeMeters>
            <DistanceMeters>3865.7746261334</DistanceMeters>
          </Trackpoint>
          <Trackpoint>
            <Time>2023-02-23T09:43:54.000Z</Time>
            <Position>
              <LatitudeDegrees>41.550157852470874786376953125</LatitudeDegrees>
              <LongitudeDegrees>-4.5916580222547054290771484375</LongitudeDegrees>
            </Position>
            <AltitudeMeters>1204.4000244140625</AltitudeMeters>
            <DistanceMeters>3870.189023597</DistanceMeters>
          </Trackpoint>
          <Trackpoint>
            <Time>2023-02-23T09:43:57.000Z</Time>
            <Position>
              <LatitudeDegrees>41.55004327185451984405517578125</LatitudeDegrees>
              <LongitudeDegrees>-4.5916774682700634002685546875</LongitudeDegrees>
            </Position>
            <AltitudeMeters>1204.5999755859375</AltitudeMeters>
            <DistanceMeters>3883.044701684</DistanceMeters>
          </Trackpoint>
          <Trackpoint>
            <Time>2023-02-23T09:43:59.000Z</Time>
            <Position>
              <LatitudeDegrees>41.54996716417372226715087890625</LatitudeDegrees>
              <LongitudeDegrees>-4.59170856513082981109619140625</LongitudeDegrees>
            </Position>
            <AltitudeMeters>1204.5999755859375</AltitudeMeters>
            <DistanceMeters>3891.9025983994</DistanceMeters>
          </Trackpoint>
          <Trackpoint>
            <Time>2023-02-23T09:44:00.000Z</Time>
            <Position>
              <LatitudeDegrees>41.549929194152355194091796875</LatitudeDegrees>
              <LongitudeDegrees>-4.59172130562365055084228515625</LongitudeDegrees>
            </Position>
            <AltitudeMeters>1204.5999755859375</AltitudeMeters>
            <DistanceMeters>3896.2593426753</DistanceMeters>
          </Trackpoint>
          <Trackpoint>
            <Time>2023-02-23T09:44:03.000Z</Time>
            <Position>
              <LatitudeDegrees>41.54980145394802093505859375</LatitudeDegrees>
              <LongitudeDegrees>-4.59175365976989269256591796875</LongitudeDegrees>
            </Position>
            <AltitudeMeters>1204.800048828125</AltitudeMeters>
            <DistanceMeters>3910.7302608471</DistanceMeters>
          </Trackpoint>
          <Trackpoint>
            <Time>2023-02-23T09:44:05.000Z</Time>
            <Position>
              <LatitudeDegrees>41.5497151203453540802001953125</LatitudeDegrees>
              <LongitudeDegrees>-4.59175877273082733154296875</LongitudeDegrees>
            </Position>
            <AltitudeMeters>1205.199951171875</AltitudeMeters>
            <DistanceMeters>3920.3481661852</DistanceMeters>
          </Trackpoint>
          <Trackpoint>
            <Time>2023-02-23T09:44:10.000Z</Time>
            <Position>
              <LatitudeDegrees>41.54951470904052257537841796875</LatitudeDegrees>
              <LongitudeDegrees>-4.5917130075395107269287109375</LongitudeDegrees>
            </Position>
            <AltitudeMeters>1205</AltitudeMeters>
            <DistanceMeters>3942.9776963424</DistanceMeters>
          </Trackpoint>
          <Trackpoint>
            <Time>2023-02-23T09:44:16.000Z</Time>
            <Position>
              <LatitudeDegrees>41.5492750704288482666015625</LatitudeDegrees>
              <LongitudeDegrees>-4.59166430868208408355712890625</LongitudeDegrees>
            </Position>
            <AltitudeMeters>1205</AltitudeMeters>
            <DistanceMeters>3969.9565821921</DistanceMeters>
          </Trackpoint>
          <Trackpoint>
            <Time>2023-02-23T09:44:19.000Z</Time>
            <Position>
              <LatitudeDegrees>41.54914699494838714599609375</LatitudeDegrees>
              <LongitudeDegrees>-4.5916677452623844146728515625</LongitudeDegrees>
            </Position>
            <AltitudeMeters>1204.800048828125</AltitudeMeters>
            <DistanceMeters>3984.2147065772</DistanceMeters>
          </Trackpoint>
          <Trackpoint>
            <Time>2023-02-23T09:44:23.000Z</Time>
            <Position>
              <LatitudeDegrees>41.54899955727159976959228515625</LatitudeDegrees>
              <LongitudeDegrees>-4.5917106606066226959228515625</LongitudeDegrees>
            </Position>
            <AltitudeMeters>1204.800048828125</AltitudeMeters>
            <DistanceMeters>4001.0099894851</DistanceMeters>
          </Trackpoint>
          <Trackpoint>
            <Time>2023-02-23T09:44:28.000Z</Time>
            <Position>
              <LatitudeDegrees>41.548789925873279571533203125</LatitudeDegrees>
              <LongitudeDegrees>-4.59174963645637035369873046875</LongitudeDegrees>
            </Position>
            <AltitudeMeters>1204.800048828125</AltitudeMeters>
            <DistanceMeters>4024.5674167203</DistanceMeters>
          </Trackpoint>
          <Trackpoint>
            <Time>2023-02-23T09:44:29.000Z</Time>
            <Position>
              <LatitudeDegrees>41.548745334148406982421875</LatitudeDegrees>
              <LongitudeDegrees>-4.5917581021785736083984375</LongitudeDegrees>
            </Position>
            <AltitudeMeters>1205</AltitudeMeters>
            <DistanceMeters>4029.5813705314</DistanceMeters>
          </Trackpoint>
          <Trackpoint>
            <Time>2023-02-23T09:44:33.000Z</Time>
            <Position>
              <LatitudeDegrees>41.548565961420536041259765625</LatitudeDegrees>
              <LongitudeDegrees>-4.59178919903934001922607421875</LongitudeDegrees>
            </Position>
            <AltitudeMeters>1205.199951171875</AltitudeMeters>
            <DistanceMeters>4049.7131337666</DistanceMeters>
          </Trackpoint>
          <Trackpoint>
            <Time>2023-02-23T09:44:35.000Z</Time>
            <Position>
              <LatitudeDegrees>41.54848474077880382537841796875</LatitudeDegrees>
              <LongitudeDegrees>-4.59180998615920543670654296875</LongitudeDegrees>
            </Position>
            <AltitudeMeters>1205.4000244140625</AltitudeMeters>
            <DistanceMeters>4058.9174901915</DistanceMeters>
          </Trackpoint>
          <Trackpoint>
            <Time>2023-02-23T09:44:37.000Z</Time>
            <Position>
              <LatitudeDegrees>41.54840276576578617095947265625</LatitudeDegrees>
              <LongitudeDegrees>-4.5918313600122928619384765625</LongitudeDegrees>
            </Position>
            <AltitudeMeters>1205.4000244140625</AltitudeMeters>
            <DistanceMeters>4068.2131236553</DistanceMeters>
          </Trackpoint>
          <Trackpoint>
            <Time>2023-02-23T09:44:38.000Z</Time>
            <Position>
              <LatitudeDegrees>41.54836538247764110565185546875</LatitudeDegrees>
              <LongitudeDegrees>-4.59184250794351100921630859375</LongitudeDegrees>
            </Position>
            <AltitudeMeters>1205.4000244140625</AltitudeMeters>
            <DistanceMeters>4072.4755776205</DistanceMeters>
          </Trackpoint>
          <Trackpoint>
            <Time>2023-02-23T09:44:39.000Z</Time>
            <Position>
              <LatitudeDegrees>41.54832833446562290191650390625</LatitudeDegrees>
              <LongitudeDegrees>-4.59184988401830196380615234375</LongitudeDegrees>
            </Position>
            <AltitudeMeters>1205.4000244140625</AltitudeMeters>
            <DistanceMeters>4076.6437747221</DistanceMeters>
          </Trackpoint>
          <Trackpoint>
            <Time>2023-02-23T09:44:41.000Z</Time>
            <Position>
              <LatitudeDegrees>41.54825608246028423309326171875</LatitudeDegrees>
              <LongitudeDegrees>-4.5918595232069492340087890625</LongitudeDegrees>
            </Position>
            <AltitudeMeters>1205.5999755859375</AltitudeMeters>
            <DistanceMeters>4084.724957361</DistanceMeters>
          </Trackpoint>
          <Trackpoint>
            <Time>2023-02-23T09:44:44.000Z</Time>
            <Position>
              <LatitudeDegrees>41.54813521541655063629150390625</LatitudeDegrees>
              <LongitudeDegrees>-4.59186212159693241119384765625</LongitudeDegrees>
            </Position>
            <AltitudeMeters>1205.5999755859375</AltitudeMeters>
            <DistanceMeters>4098.1792099376</DistanceMeters>
          </Trackpoint>
          <Trackpoint>
            <Time>2023-02-23T09:44:50.000Z</Time>
            <Position>
              <LatitudeDegrees>41.54788409359753131866455078125</LatitudeDegrees>
              <LongitudeDegrees>-4.5918970741331577301025390625</LongitudeDegrees>
            </Position>
            <AltitudeMeters>1206</AltitudeMeters>
            <DistanceMeters>4126.2807800926</DistanceMeters>
          </Trackpoint>
          <Trackpoint>
            <Time>2023-02-23T09:44:51.000Z</Time>
            <Position>
              <LatitudeDegrees>41.5478452853858470916748046875</LatitudeDegrees>
              <LongitudeDegrees>-4.59191090427339076995849609375</LongitudeDegrees>
            </Position>
            <AltitudeMeters>1206</AltitudeMeters>
            <DistanceMeters>4130.7510775291</DistanceMeters>
          </Trackpoint>
          <Trackpoint>
            <Time>2023-02-23T09:44:56.000Z</Time>
            <Position>
              <LatitudeDegrees>41.54763984493911266326904296875</LatitudeDegrees>
              <LongitudeDegrees>-4.5919704996049404144287109375</LongitudeDegrees>
            </Position>
            <AltitudeMeters>1206.5999755859375</AltitudeMeters>
            <DistanceMeters>4154.1496572894</DistanceMeters>
          </Trackpoint>
          <Trackpoint>
            <Time>2023-02-23T09:44:58.000Z</Time>
            <Position>
              <LatitudeDegrees>41.54755250550806522369384765625</LatitudeDegrees>
              <LongitudeDegrees>-4.59200746379792690277099609375</LongitudeDegrees>
            </Position>
            <AltitudeMeters>1206.5999755859375</AltitudeMeters>
            <DistanceMeters>4164.3467809158</DistanceMeters>
          </Trackpoint>
          <Trackpoint>
            <Time>2023-02-23T09:45:00.000Z</Time>
            <Position>
              <LatitudeDegrees>41.54746466316282749176025390625</LatitudeDegrees>
              <LongitudeDegrees>-4.59203881211578845977783203125</LongitudeDegrees>
            </Position>
            <AltitudeMeters>1206.5999755859375</AltitudeMeters>
            <DistanceMeters>4174.4661221431</DistanceMeters>
          </Trackpoint>
          <Trackpoint>
            <Time>2023-02-23T09:45:04.000Z</Time>
            <Position>
              <LatitudeDegrees>41.5472996234893798828125</LatitudeDegrees>
              <LongitudeDegrees>-4.5920692384243011474609375</LongitudeDegrees>
            </Position>
            <AltitudeMeters>1206.5999755859375</AltitudeMeters>
            <DistanceMeters>4193.0092408353</DistanceMeters>
          </Trackpoint>
          <Trackpoint>
            <Time>2023-02-23T09:45:10.000Z</Time>
            <Position>
              <LatitudeDegrees>41.54705780558288097381591796875</LatitudeDegrees>
              <LongitudeDegrees>-4.59207099862396717071533203125</LongitudeDegrees>
            </Position>
            <AltitudeMeters>1207</AltitudeMeters>
            <DistanceMeters>4219.9244568411</DistanceMeters>
          </Trackpoint>
          <Trackpoint>
            <Time>2023-02-23T09:45:17.000Z</Time>
            <Position>
              <LatitudeDegrees>41.54674231074750423431396484375</LatitudeDegrees>
              <LongitudeDegrees>-4.59208876825869083404541015625</LongitudeDegrees>
            </Position>
            <AltitudeMeters>1207</AltitudeMeters>
            <DistanceMeters>4255.0709835149</DistanceMeters>
          </Trackpoint>
          <Trackpoint>
            <Time>2023-02-23T09:45:18.000Z</Time>
            <Position>
              <LatitudeDegrees>41.54669939540326595306396484375</LatitudeDegrees>
              <LongitudeDegrees>-4.5920989103615283966064453125</LongitudeDegrees>
            </Position>
            <AltitudeMeters>1207.199951171875</AltitudeMeters>
            <DistanceMeters>4259.9210710539</DistanceMeters>
          </Trackpoint>
          <Trackpoint>
            <Time>2023-02-23T09:45:20.000Z</Time>
            <Position>
              <LatitudeDegrees>41.5466134808957576751708984375</LatitudeDegrees>
              <LongitudeDegrees>-4.5921093039214611053466796875</LongitudeDegrees>
            </Position>
            <AltitudeMeters>1207.199951171875</AltitudeMeters>
            <DistanceMeters>4269.522531902</DistanceMeters>
          </Trackpoint>
          <Trackpoint>
            <Time>2023-02-23T09:45:22.000Z</Time>
            <Position>
              <LatitudeDegrees>41.54652538709342479705810546875</LatitudeDegrees>
              <LongitudeDegrees>-4.59211039356887340545654296875</LongitudeDegrees>
            </Position>
            <AltitudeMeters>1207</AltitudeMeters>
            <DistanceMeters>4279.328257473</DistanceMeters>
          </Trackpoint>
          <Trackpoint>
            <Time>2023-02-23T09:45:25.000Z</Time>
            <Position>
              <LatitudeDegrees>41.546393372118473052978515625</LatitudeDegrees>
              <LongitudeDegrees>-4.5921260677278041839599609375</LongitudeDegrees>
            </Position>
            <AltitudeMeters>1206.800048828125</AltitudeMeters>
            <DistanceMeters>4294.0797584864</DistanceMeters>
          </Trackpoint>
          <Trackpoint>
            <Time>2023-02-23T09:45:28.000Z</Time>
            <Position>
              <LatitudeDegrees>41.54626387171447277069091796875</LatitudeDegrees>
              <LongitudeDegrees>-4.59215749986469745635986328125</LongitudeDegrees>
            </Position>
            <AltitudeMeters>1206.5999755859375</AltitudeMeters>
            <DistanceMeters>4308.7292907918</DistanceMeters>
          </Trackpoint>
          <Trackpoint>
            <Time>2023-02-23T09:45:29.000Z</Time>
            <Position>
              <LatitudeDegrees>41.54621894471347332000732421875</LatitudeDegrees>
              <LongitudeDegrees>-4.59217409603297710418701171875</LongitudeDegrees>
            </Position>
            <AltitudeMeters>1206.5999755859375</AltitudeMeters>
            <DistanceMeters>4313.9167398569</DistanceMeters>
          </Trackpoint>
          <Trackpoint>
            <Time>2023-02-23T09:45:33.000Z</Time>
            <Position>
              <LatitudeDegrees>41.54603554867208003997802734375</LatitudeDegrees>
              <LongitudeDegrees>-4.59222681820392608642578125</LongitudeDegrees>
            </Position>
            <AltitudeMeters>1207.199951171875</AltitudeMeters>
            <DistanceMeters>4334.7962520773</DistanceMeters>
          </Trackpoint>
          <Trackpoint>
            <Time>2023-02-23T09:45:37.000Z</Time>
            <Position>
              <LatitudeDegrees>41.5458534099161624908447265625</LatitudeDegrees>
              <LongitudeDegrees>-4.59227082319557666778564453125</LongitudeDegrees>
            </Position>
            <AltitudeMeters>1207.4000244140625</AltitudeMeters>
            <DistanceMeters>4355.39733367</DistanceMeters>
          </Trackpoint>
          <Trackpoint>
            <Time>2023-02-23T09:45:44.000Z</Time>
            <Position>
              <LatitudeDegrees>41.54555819928646087646484375</LatitudeDegrees>
              <LongitudeDegrees>-4.59236889146268367767333984375</LongitudeDegrees>
            </Position>
            <AltitudeMeters>1207.4000244140625</AltitudeMeters>
            <DistanceMeters>4389.255259987</DistanceMeters>
          </Trackpoint>
          <Trackpoint>
            <Time>2023-02-23T09:45:52.000Z</Time>
            <Position>
              <LatitudeDegrees>41.54523658566176891326904296875</LatitudeDegrees>
              <LongitudeDegrees>-4.5924345217645168304443359375</LongitudeDegrees>
            </Position>
            <AltitudeMeters>1208</AltitudeMeters>
            <DistanceMeters>4425.4665482881</DistanceMeters>
          </Trackpoint>
          <Trackpoint>
            <Time>2023-02-23T09:45:54.000Z</Time>
            <Position>
              <LatitudeDegrees>41.5451570414006710052490234375</LatitudeDegrees>
              <LongitudeDegrees>-4.59245212376117706298828125</LongitudeDegrees>
            </Position>
            <AltitudeMeters>1208</AltitudeMeters>
            <DistanceMeters>4434.4404115436</DistanceMeters>
          </Trackpoint>
          <Trackpoint>
            <Time>2023-02-23T09:45:56.000Z</Time>
            <Position>
              <LatitudeDegrees>41.545075066387653350830078125</LatitudeDegrees>
              <LongitudeDegrees>-4.59246997721493244171142578125</LongitudeDegrees>
            </Position>
            <AltitudeMeters>1208.199951171875</AltitudeMeters>
            <DistanceMeters>4443.6844157295</DistanceMeters>
          </Trackpoint>
          <Trackpoint>
            <Time>2023-02-23T09:46:01.000Z</Time>
            <Position>
              <LatitudeDegrees>41.544882617890834808349609375</LatitudeDegrees>
              <LongitudeDegrees>-4.59252831526100635528564453125</LongitudeDegrees>
            </Position>
            <AltitudeMeters>1208.5999755859375</AltitudeMeters>
            <DistanceMeters>4465.6485411148</DistanceMeters>
          </Trackpoint>
          <Trackpoint>
            <Time>2023-02-23T09:46:07.000Z</Time>
            <Position>
              <LatitudeDegrees>41.54467198066413402557373046875</LatitudeDegrees>
              <LongitudeDegrees>-4.5925642736256122589111328125</LongitudeDegrees>
            </Position>
            <AltitudeMeters>1209</AltitudeMeters>
            <DistanceMeters>4489.2834635581</DistanceMeters>
          </Trackpoint>
          <Trackpoint>
            <Time>2023-02-23T09:46:09.000Z</Time>
            <Position>
              <LatitudeDegrees>41.54461280442774295806884765625</LatitudeDegrees>
              <LongitudeDegrees>-4.59257994778454303741455078125</LongitudeDegrees>
            </Position>
            <AltitudeMeters>1209.4000244140625</AltitudeMeters>
            <DistanceMeters>4495.9974892959</DistanceMeters>
          </Trackpoint>
          <Trackpoint>
            <Time>2023-02-23T09:46:11.000Z</Time>
            <Position>
              <LatitudeDegrees>41.5445770137012004852294921875</LatitudeDegrees>
              <LongitudeDegrees>-4.5926229469478130340576171875</LongitudeDegrees>
            </Position>
            <AltitudeMeters>1209.5999755859375</AltitudeMeters>
            <DistanceMeters>4501.3545017972</DistanceMeters>
          </Trackpoint>
          <Trackpoint>
            <Time>2023-02-23T09:46:15.000Z</Time>
            <Position>
              <LatitudeDegrees>41.5445535443723201751708984375</LatitudeDegrees>
              <LongitudeDegrees>-4.5926655270159244537353515625</LongitudeDegrees>
            </Position>
            <AltitudeMeters>1209.4000244140625</AltitudeMeters>
            <DistanceMeters>4505.7586594013</DistanceMeters>
          </Trackpoint>
          <Trackpoint>
            <Time>2023-02-23T09:46:19.000Z</Time>
            <Position>
              <LatitudeDegrees>41.54456620104610919952392578125</LatitudeDegrees>
              <LongitudeDegrees>-4.592662341892719268798828125</LongitudeDegrees>
            </Position>
            <AltitudeMeters>1209.199951171875</AltitudeMeters>
            <DistanceMeters>4507.1935313221</DistanceMeters>
          </Trackpoint>
          <Trackpoint>
            <Time>2023-02-23T09:46:21.000Z</Time>
            <Position>
              <LatitudeDegrees>41.5445743314921855926513671875</LatitudeDegrees>
              <LongitudeDegrees>-4.59265152923762798309326171875</LongitudeDegrees>
            </Position>
            <AltitudeMeters>1208.800048828125</AltitudeMeters>
            <DistanceMeters>4508.4719850117</DistanceMeters>
          </Trackpoint>
          <Trackpoint>
            <Time>2023-02-23T09:46:25.000Z</Time>
            <Position>
              <LatitudeDegrees>41.544578187167644500732421875</LatitudeDegrees>
              <LongitudeDegrees>-4.59263409487903118133544921875</LongitudeDegrees>
            </Position>
            <AltitudeMeters>1208.5999755859375</AltitudeMeters>
            <DistanceMeters>4509.9894399511</DistanceMeters>
          </Trackpoint>
          <Trackpoint>
            <Time>2023-02-23T09:46:28.000Z</Time>
            <Position>
              <LatitudeDegrees>41.54458053410053253173828125</LatitudeDegrees>
              <LongitudeDegrees>-4.5926319994032382965087890625</LongitudeDegrees>
            </Position>
            <AltitudeMeters>1208.5999755859375</AltitudeMeters>
            <DistanceMeters>4510.2899408071</DistanceMeters>
          </Trackpoint>
          <Trackpoint>
            <Time>2023-02-23T09:46:30.000Z</Time>
            <Position>
              <LatitudeDegrees>41.5445760078728199005126953125</LatitudeDegrees>
              <LongitudeDegrees>-4.59264230914413928985595703125</LongitudeDegrees>
            </Position>
            <AltitudeMeters>1208.4000244140625</AltitudeMeters>
            <DistanceMeters>4511.2865893955</DistanceMeters>
          </Trackpoint>
          <Trackpoint>
            <Time>2023-02-23T09:46:33.000Z</Time>
            <Position>
              <LatitudeDegrees>41.54457089491188526153564453125</LatitudeDegrees>
              <LongitudeDegrees>-4.592660330235958099365234375</LongitudeDegrees>
            </Position>
            <AltitudeMeters>1208.4000244140625</AltitudeMeters>
            <DistanceMeters>4512.8936369564</DistanceMeters>
          </Trackpoint>
          <Trackpoint>
            <Time>2023-02-23T09:46:35.000Z</Time>
            <Position>
              <LatitudeDegrees>41.54457139782607555389404296875</LatitudeDegrees>
              <LongitudeDegrees>-4.59266410209238529205322265625</LongitudeDegrees>
            </Position>
            <AltitudeMeters>1208.199951171875</AltitudeMeters>
            <DistanceMeters>4513.2228191512</DistanceMeters>
          </Trackpoint>
          <Trackpoint>
            <Time>2023-02-23T09:46:43.000Z</Time>
            <Position>
              <LatitudeDegrees>41.544564105570316314697265625</LatitudeDegrees>
              <LongitudeDegrees>-4.59265857003629207611083984375</LongitudeDegrees>
            </Position>
            <AltitudeMeters>1208.199951171875</AltitudeMeters>
            <DistanceMeters>4514.1587237484</DistanceMeters>
          </Trackpoint>
          <Trackpoint>
            <Time>2023-02-23T09:46:50.000Z</Time>
            <Position>
              <LatitudeDegrees>41.54456351883709430694580078125</LatitudeDegrees>
              <LongitudeDegrees>-4.5926474221050739288330078125</LongitudeDegrees>
            </Position>
            <AltitudeMeters>1207.800048828125</AltitudeMeters>
            <DistanceMeters>4515.0897915969</DistanceMeters>
          </Trackpoint>
          <Trackpoint>
            <Time>2023-02-23T09:46:57.000Z</Time>
            <Position>
              <LatitudeDegrees>41.54455639421939849853515625</LatitudeDegrees>
              <LongitudeDegrees>-4.5926960371434688568115234375</LongitudeDegrees>
            </Position>
            <AltitudeMeters>1207.5999755859375</AltitudeMeters>
            <DistanceMeters>4519.2166213939</DistanceMeters>
          </Trackpoint>
          <Trackpoint>
            <Time>2023-02-23T09:46:58.000Z</Time>
            <Position>
              <LatitudeDegrees>41.54455094598233699798583984375</LatitudeDegrees>
              <LongitudeDegrees>-4.5927111245691776275634765625</LongitudeDegrees>
            </Position>
            <AltitudeMeters>1207.5999755859375</AltitudeMeters>
            <DistanceMeters>4520.6132231667</DistanceMeters>
          </Trackpoint>
          <Trackpoint>
            <Time>2023-02-23T09:47:04.000Z</Time>
            <Position>
              <LatitudeDegrees>41.5445444919168949127197265625</LatitudeDegrees>
              <LongitudeDegrees>-4.592734090983867645263671875</LongitudeDegrees>
            </Position>
            <AltitudeMeters>1207.800048828125</AltitudeMeters>
            <DistanceMeters>4522.6557449701</DistanceMeters>
          </Trackpoint>
          <Trackpoint>
            <Time>2023-02-23T09:47:07.000Z</Time>
            <Position>
              <LatitudeDegrees>41.54452093876898288726806640625</LatitudeDegrees>
              <LongitudeDegrees>-4.59276326000690460205078125</LongitudeDegrees>
            </Position>
            <AltitudeMeters>1207.5999755859375</AltitudeMeters>
            <DistanceMeters>4526.2303160168</DistanceMeters>
          </Trackpoint>
          <Trackpoint>
            <Time>2023-02-23T09:47:14.000Z</Time>
            <Position>
              <LatitudeDegrees>41.54452278278768062591552734375</LatitudeDegrees>
              <LongitudeDegrees>-4.59277172572910785675048828125</LongitudeDegrees>
            </Position>
            <AltitudeMeters>1207.5999755859375</AltitudeMeters>
            <DistanceMeters>4526.9663897812</DistanceMeters>
          </Trackpoint>
          <Trackpoint>
            <Time>2023-02-23T09:47:19.000Z</Time>
            <Position>
              <LatitudeDegrees>41.5445719845592975616455078125</LatitudeDegrees>
              <LongitudeDegrees>-4.59278027527034282684326171875</LongitudeDegrees>
            </Position>
            <AltitudeMeters>1207.4000244140625</AltitudeMeters>
            <DistanceMeters>4532.4885784914</DistanceMeters>
          </Trackpoint>
          <Trackpoint>
            <Time>2023-02-23T09:47:21.000Z</Time>
            <Position>
              <LatitudeDegrees>41.54457860626280307769775390625</LatitudeDegrees>
              <LongitudeDegrees>-4.592766277492046356201171875</LongitudeDegrees>
            </Position>
            <AltitudeMeters>1207.5999755859375</AltitudeMeters>
            <DistanceMeters>4533.8689212495</DistanceMeters>
          </Trackpoint>
          <Trackpoint>
            <Time>2023-02-23T09:47:29.000Z</Time>
            <Position>
              <LatitudeDegrees>41.544615067541599273681640625</LatitudeDegrees>
              <LongitudeDegrees>-4.59270332939922809600830078125</LongitudeDegrees>
            </Position>
            <AltitudeMeters>1208</AltitudeMeters>
            <DistanceMeters>4540.4990352854</DistanceMeters>
          </Trackpoint>
          <Trackpoint>
            <Time>2023-02-23T09:47:34.000Z</Time>
            <Position>
              <LatitudeDegrees>41.54458858072757720947265625</LatitudeDegrees>
              <LongitudeDegrees>-4.5926524512469768524169921875</LongitudeDegrees>
            </Position>
            <AltitudeMeters>1208.199951171875</AltitudeMeters>
            <DistanceMeters>4545.6611816981</DistanceMeters>
          </Trackpoint>
          <Trackpoint>
            <Time>2023-02-23T09:47:38.000Z</Time>
            <Position>
              <LatitudeDegrees>41.544558070600032806396484375</LatitudeDegrees>
              <LongitudeDegrees>-4.59260324947535991668701171875</LongitudeDegrees>
            </Position>
            <AltitudeMeters>1208.199951171875</AltitudeMeters>
            <DistanceMeters>4550.984374338</DistanceMeters>
          </Trackpoint>
          <Trackpoint>
            <Time>2023-02-23T09:47:40.000Z</Time>
            <Position>
              <LatitudeDegrees>41.5445463359355926513671875</LatitudeDegrees>
              <LongitudeDegrees>-4.59258983843028545379638671875</LongitudeDegrees>
            </Position>
            <AltitudeMeters>1208.199951171875</AltitudeMeters>
            <DistanceMeters>4552.705381332</DistanceMeters>
          </Trackpoint>
          <Trackpoint>
            <Time>2023-02-23T09:47:41.000Z</Time>
            <Position>
              <LatitudeDegrees>41.54454524628818035125732421875</LatitudeDegrees>
              <LongitudeDegrees>-4.5925877429544925689697265625</LongitudeDegrees>
            </Position>
            <AltitudeMeters>1208.199951171875</AltitudeMeters>
            <DistanceMeters>4552.917867525</DistanceMeters>
          </Trackpoint>
          <Trackpoint>
            <Time>2023-02-23T09:47:43.000Z</Time>
            <Position>
              <LatitudeDegrees>41.54453367926180362701416015625</LatitudeDegrees>
              <LongitudeDegrees>-4.59258832968771457672119140625</LongitudeDegrees>
            </Position>
            <AltitudeMeters>1208.4000244140625</AltitudeMeters>
            <DistanceMeters>4554.1998479901</DistanceMeters>
          </Trackpoint>
          <Trackpoint>
            <Time>2023-02-23T09:47:46.000Z</Time>
            <Position>
              <LatitudeDegrees>41.54448933899402618408203125</LatitudeDegrees>
              <LongitudeDegrees>-4.59259469993412494659423828125</LongitudeDegrees>
            </Position>
            <AltitudeMeters>1208.199951171875</AltitudeMeters>
            <DistanceMeters>4559.1622081607</DistanceMeters>
          </Trackpoint>
          <Trackpoint>
            <Time>2023-02-23T09:47:52.000Z</Time>
            <Position>
              <LatitudeDegrees>41.54433050192892551422119140625</LatitudeDegrees>
              <LongitudeDegrees>-4.5926190912723541259765625</LongitudeDegrees>
            </Position>
            <AltitudeMeters>1208.199951171875</AltitudeMeters>
            <DistanceMeters>4576.9573401</DistanceMeters>
          </Trackpoint>
          <Trackpoint>
            <Time>2023-02-23T09:47:54.000Z</Time>
            <Position>
              <LatitudeDegrees>41.54425942339003086090087890625</LatitudeDegrees>
              <LongitudeDegrees>-4.592628143727779388427734375</LongitudeDegrees>
            </Position>
            <AltitudeMeters>1208.4000244140625</AltitudeMeters>
            <DistanceMeters>4584.9044373467</DistanceMeters>
          </Trackpoint>
          <Trackpoint>
            <Time>2023-02-23T09:48:00.000Z</Time>
            <Position>
              <LatitudeDegrees>41.54402489773929119110107421875</LatitudeDegrees>
              <LongitudeDegrees>-4.5926405489444732666015625</LongitudeDegrees>
            </Position>
            <AltitudeMeters>1207.800048828125</AltitudeMeters>
            <DistanceMeters>4611.0279707443</DistanceMeters>
          </Trackpoint>
          <Trackpoint>
            <Time>2023-02-23T09:48:02.000Z</Time>
            <Position>
              <LatitudeDegrees>41.54394459910690784454345703125</LatitudeDegrees>
              <LongitudeDegrees>-4.5926497690379619598388671875</LongitudeDegrees>
            </Position>
            <AltitudeMeters>1207.199951171875</AltitudeMeters>
            <DistanceMeters>4619.998311384</DistanceMeters>
          </Trackpoint>
          <Trackpoint>
            <Time>2023-02-23T09:48:07.000Z</Time>
            <Position>
              <LatitudeDegrees>41.54376455582678318023681640625</LatitudeDegrees>
              <LongitudeDegrees>-4.5926995575428009033203125</LongitudeDegrees>
            </Position>
            <AltitudeMeters>1207</AltitudeMeters>
            <DistanceMeters>4640.462176979</DistanceMeters>
          </Trackpoint>
          <Trackpoint>
            <Time>2023-02-23T09:48:14.000Z</Time>
            <Position>
              <LatitudeDegrees>41.54349968768656253814697265625</LatitudeDegrees>
              <LongitudeDegrees>-4.592740796506404876708984375</LongitudeDegrees>
            </Position>
            <AltitudeMeters>1207.199951171875</AltitudeMeters>
            <DistanceMeters>4670.1420184069</DistanceMeters>
          </Trackpoint>
          <Trackpoint>
            <Time>2023-02-23T09:48:16.000Z</Time>
            <Position>
              <LatitudeDegrees>41.54341377317905426025390625</LatitudeDegrees>
              <LongitudeDegrees>-4.59275512956082820892333984375</LongitudeDegrees>
            </Position>
            <AltitudeMeters>1207.4000244140625</AltitudeMeters>
            <DistanceMeters>4679.7791516023</DistanceMeters>
          </Trackpoint>
          <Trackpoint>
            <Time>2023-02-23T09:48:20.000Z</Time>
            <Position>
              <LatitudeDegrees>41.5432597137987613677978515625</LatitudeDegrees>
              <LongitudeDegrees>-4.59276166744530200958251953125</LongitudeDegrees>
            </Position>
            <AltitudeMeters>1207.199951171875</AltitudeMeters>
            <DistanceMeters>4696.9350926028</DistanceMeters>
          </Trackpoint>
          <Trackpoint>
            <Time>2023-02-23T09:48:23.000Z</Time>
            <Position>
              <LatitudeDegrees>41.54312853701412677764892578125</LatitudeDegrees>
              <LongitudeDegrees>-4.59276518784463405609130859375</LongitudeDegrees>
            </Position>
            <AltitudeMeters>1207.199951171875</AltitudeMeters>
            <DistanceMeters>4711.5383211945</DistanceMeters>
          </Trackpoint>
          <Trackpoint>
            <Time>2023-02-23T09:48:26.000Z</Time>
            <Position>
              <LatitudeDegrees>41.542996354401111602783203125</LatitudeDegrees>
              <LongitudeDegrees>-4.59275663830339908599853515625</LongitudeDegrees>
            </Position>
            <AltitudeMeters>1207.199951171875</AltitudeMeters>
            <DistanceMeters>4726.2674619219</DistanceMeters>
          </Trackpoint>
          <Trackpoint>
            <Time>2023-02-23T09:48:31.000Z</Time>
            <Position>
              <LatitudeDegrees>41.54281186871230602264404296875</LatitudeDegrees>
              <LongitudeDegrees>-4.5927634276449680328369140625</LongitudeDegrees>
            </Position>
            <AltitudeMeters>1207</AltitudeMeters>
            <DistanceMeters>4746.809063906</DistanceMeters>
          </Trackpoint>
          <Trackpoint>
            <Time>2023-02-23T09:48:32.000Z</Time>
            <Position>
              <LatitudeDegrees>41.5427760779857635498046875</LatitudeDegrees>
              <LongitudeDegrees>-4.59276233799755573272705078125</LongitudeDegrees>
            </Position>
            <AltitudeMeters>1207</AltitudeMeters>
            <DistanceMeters>4750.7933925054</DistanceMeters>
          </Trackpoint>
          <Trackpoint>
            <Time>2023-02-23T09:48:38.000Z</Time>
            <Position>
              <LatitudeDegrees>41.5425707213580608367919921875</LatitudeDegrees>
              <LongitudeDegrees>-4.59271087311208248138427734375</LongitudeDegrees>
            </Position>
            <AltitudeMeters>1206.5999755859375</AltitudeMeters>
            <DistanceMeters>4774.0487419595</DistanceMeters>
          </Trackpoint>
          <Trackpoint>
            <Time>2023-02-23T09:48:43.000Z</Time>
            <Position>
              <LatitudeDegrees>41.54243535362184047698974609375</LatitudeDegrees>
              <LongitudeDegrees>-4.59264390170574188232421875</LongitudeDegrees>
            </Position>
            <AltitudeMeters>1206.800048828125</AltitudeMeters>
            <DistanceMeters>4790.1152837537</DistanceMeters>
          </Trackpoint>
          <Trackpoint>
            <Time>2023-02-23T09:48:48.000Z</Time>
            <Position>
              <LatitudeDegrees>41.5424220263957977294921875</LatitudeDegrees>
              <LongitudeDegrees>-4.59252052009105682373046875</LongitudeDegrees>
            </Position>
            <AltitudeMeters>1207</AltitudeMeters>
            <DistanceMeters>4800.5006211602</DistanceMeters>
          </Trackpoint>
          <Trackpoint>
            <Time>2023-02-23T09:48:54.000Z</Time>
            <Position>
              <LatitudeDegrees>41.54241573996841907501220703125</LatitudeDegrees>
              <LongitudeDegrees>-4.5924382098019123077392578125</LongitudeDegrees>
            </Position>
            <AltitudeMeters>1207.800048828125</AltitudeMeters>
            <DistanceMeters>4807.3938252228</DistanceMeters>
          </Trackpoint>
          <Trackpoint>
            <Time>2023-02-23T09:48:55.000Z</Time>
            <Position>
              <LatitudeDegrees>41.5424161590635776519775390625</LatitudeDegrees>
              <LongitudeDegrees>-4.5924232900142669677734375</LongitudeDegrees>
            </Position>
            <AltitudeMeters>1208</AltitudeMeters>
            <DistanceMeters>4808.6400888981</DistanceMeters>
          </Trackpoint>
          <Trackpoint>
            <Time>2023-02-23T09:49:02.000Z</Time>
            <Position>
              <LatitudeDegrees>41.54243283905088901519775390625</LatitudeDegrees>
              <LongitudeDegrees>-4.5923302508890628814697265625</LongitudeDegrees>
            </Position>
            <AltitudeMeters>1207.800048828125</AltitudeMeters>
            <DistanceMeters>4816.6098792157</DistanceMeters>
          </Trackpoint>
          <Trackpoint>
            <Time>2023-02-23T09:49:06.000Z</Time>
            <Position>
              <LatitudeDegrees>41.542428396642208099365234375</LatitudeDegrees>
              <LongitudeDegrees>-4.59227836690843105316162109375</LongitudeDegrees>
            </Position>
            <AltitudeMeters>1207.800048828125</AltitudeMeters>
            <DistanceMeters>4820.9604010495</DistanceMeters>
          </Trackpoint>
          <Trackpoint>
            <Time>2023-02-23T09:49:09.000Z</Time>
            <Position>
              <LatitudeDegrees>41.542420350015163421630859375</LatitudeDegrees>
              <LongitudeDegrees>-4.59223394282162189483642578125</LongitudeDegrees>
            </Position>
            <AltitudeMeters>1208</AltitudeMeters>
            <DistanceMeters>4824.7662179941</DistanceMeters>
          </Trackpoint>
          <Trackpoint>
            <Time>2023-02-23T09:49:12.000Z</Time>
            <Position>
              <LatitudeDegrees>41.5424072742462158203125</LatitudeDegrees>
              <LongitudeDegrees>-4.59217845462262630462646484375</LongitudeDegrees>
            </Position>
            <AltitudeMeters>1208.199951171875</AltitudeMeters>
            <DistanceMeters>4829.611648703</DistanceMeters>
          </Trackpoint>
          <Trackpoint>
            <Time>2023-02-23T09:49:16.000Z</Time>
            <Position>
              <LatitudeDegrees>41.542375423014163970947265625</LatitudeDegrees>
              <LongitudeDegrees>-4.592125900089740753173828125</LongitudeDegrees>
            </Position>
            <AltitudeMeters>1208.4000244140625</AltitudeMeters>
            <DistanceMeters>4835.2455388954</DistanceMeters>
          </Trackpoint>
          <Trackpoint>
            <Time>2023-02-23T09:49:21.000Z</Time>
            <Position>
              <LatitudeDegrees>41.54236905276775360107421875</LatitudeDegrees>
              <LongitudeDegrees>-4.59209740161895751953125</LongitudeDegrees>
            </Position>
            <AltitudeMeters>1208.4000244140625</AltitudeMeters>
            <DistanceMeters>4837.7253538196</DistanceMeters>
          </Trackpoint>
          <Trackpoint>
            <Time>2023-02-23T09:49:23.000Z</Time>
            <Position>
              <LatitudeDegrees>41.542368717491626739501953125</LatitudeDegrees>
              <LongitudeDegrees>-4.59207317791879177093505859375</LongitudeDegrees>
            </Position>
            <AltitudeMeters>1208.4000244140625</AltitudeMeters>
            <DistanceMeters>4839.7434134016</DistanceMeters>
          </Trackpoint>
          <Trackpoint>
            <Time>2023-02-23T09:49:29.000Z</Time>
            <Position>
              <LatitudeDegrees>41.542384810745716094970703125</LatitudeDegrees>
              <LongitudeDegrees>-4.59202229976654052734375</LongitudeDegrees>
            </Position>
            <AltitudeMeters>1208.4000244140625</AltitudeMeters>
            <DistanceMeters>4844.3441197805</DistanceMeters>
          </Trackpoint>
          <Trackpoint>
            <Time>2023-02-23T09:49:34.000Z</Time>
            <Position>
              <LatitudeDegrees>41.5423822961747646331787109375</LatitudeDegrees>
              <LongitudeDegrees>-4.59202204830944538116455078125</LongitudeDegrees>
            </Position>
            <AltitudeMeters>1208</AltitudeMeters>
            <DistanceMeters>4844.612895917</DistanceMeters>
          </Trackpoint>
          <Trackpoint>
            <Time>2023-02-23T09:49:36.000Z</Time>
            <Position>
              <LatitudeDegrees>41.54237349517643451690673828125</LatitudeDegrees>
              <LongitudeDegrees>-4.592021293938159942626953125</LongitudeDegrees>
            </Position>
            <AltitudeMeters>1207.800048828125</AltitudeMeters>
            <DistanceMeters>4845.5912558216</DistanceMeters>
          </Trackpoint>
          <Trackpoint>
            <Time>2023-02-23T09:49:41.000Z</Time>
            <Position>
              <LatitudeDegrees>41.54237332753837108612060546875</LatitudeDegrees>
              <LongitudeDegrees>-4.59200411103665828704833984375</LongitudeDegrees>
            </Position>
            <AltitudeMeters>1207.800048828125</AltitudeMeters>
            <DistanceMeters>4847.0229776357</DistanceMeters>
          </Trackpoint>
          <Trackpoint>
            <Time>2023-02-23T09:49:43.000Z</Time>
            <Position>
              <LatitudeDegrees>41.5423858165740966796875</LatitudeDegrees>
              <LongitudeDegrees>-4.59201224148273468017578125</LongitudeDegrees>
            </Position>
            <AltitudeMeters>1207.800048828125</AltitudeMeters>
            <DistanceMeters>4848.5669789897</DistanceMeters>
          </Trackpoint>
          <Trackpoint>
            <Time>2023-02-23T09:49:44.000Z</Time>
            <Position>
              <LatitudeDegrees>41.5423930250108242034912109375</LatitudeDegrees>
              <LongitudeDegrees>-4.59201894700527191162109375</LongitudeDegrees>
            </Position>
            <AltitudeMeters>1207.800048828125</AltitudeMeters>
            <DistanceMeters>4849.5453388943</DistanceMeters>
          </Trackpoint>
          <Trackpoint>
            <Time>2023-02-23T09:49:47.000Z</Time>
            <Position>
              <LatitudeDegrees>41.5424178354442119598388671875</LatitudeDegrees>
              <LongitudeDegrees>-4.59203906357288360595703125</LongitudeDegrees>
            </Position>
            <AltitudeMeters>1208.199951171875</AltitudeMeters>
            <DistanceMeters>4852.7762471829</DistanceMeters>
          </Trackpoint>
          <Trackpoint>
            <Time>2023-02-23T09:49:49.000Z</Time>
            <Position>
              <LatitudeDegrees>41.5424262173473834991455078125</LatitudeDegrees>
              <LongitudeDegrees>-4.59204367361962795257568359375</LongitudeDegrees>
            </Position>
            <AltitudeMeters>1208.199951171875</AltitudeMeters>
            <DistanceMeters>4853.7819153994</DistanceMeters>
          </Trackpoint>
          <Trackpoint>
            <Time>2023-02-23T09:49:53.000Z</Time>
            <Position>
              <LatitudeDegrees>41.5424369461834430694580078125</LatitudeDegrees>
              <LongitudeDegrees>-4.59204903803765773773193359375</LongitudeDegrees>
            </Position>
            <AltitudeMeters>1207.800048828125</AltitudeMeters>
            <DistanceMeters>4855.0568325575</DistanceMeters>
          </Trackpoint>
          <Trackpoint>
            <Time>2023-02-23T09:49:54.000Z</Time>
            <Position>
              <LatitudeDegrees>41.54242060147225856781005859375</LatitudeDegrees>
              <LongitudeDegrees>-4.5920425839722156524658203125</LongitudeDegrees>
            </Position>
            <AltitudeMeters>1207.5999755859375</AltitudeMeters>
            <DistanceMeters>4856.9573668449</DistanceMeters>
          </Trackpoint>
          <Trackpoint>
            <Time>2023-02-23T09:49:55.000Z</Time>
            <Position>
              <LatitudeDegrees>41.5424114651978015899658203125</LatitudeDegrees>
              <LongitudeDegrees>-4.5920375548303127288818359375</LongitudeDegrees>
            </Position>
            <AltitudeMeters>1207.800048828125</AltitudeMeters>
            <DistanceMeters>4858.0614774915</DistanceMeters>
          </Trackpoint>
          <Trackpoint>
            <Time>2023-02-23T09:49:56.000Z</Time>
            <Position>
              <LatitudeDegrees>41.54240065254271030426025390625</LatitudeDegrees>
              <LongitudeDegrees>-4.5920316874980926513671875</LongitudeDegrees>
            </Position>
            <AltitudeMeters>1208</AltitudeMeters>
            <DistanceMeters>4859.3574690881</DistanceMeters>
          </Trackpoint>
          <Trackpoint>
            <Time>2023-02-23T09:49:59.000Z</Time>
            <Position>
              <LatitudeDegrees>41.54236863367259502410888671875</LatitudeDegrees>
              <LongitudeDegrees>-4.59202087484300136566162109375</LongitudeDegrees>
            </Position>
            <AltitudeMeters>1207.800048828125</AltitudeMeters>
            <DistanceMeters>4863.0329274759</DistanceMeters>
          </Trackpoint>
          <Trackpoint>
            <Time>2023-02-23T09:50:05.000Z</Time>
            <Position>
              <LatitudeDegrees>41.5423107147216796875</LatitudeDegrees>
              <LongitudeDegrees>-4.591985754668712615966796875</LongitudeDegrees>
            </Position>
            <AltitudeMeters>1207.5999755859375</AltitudeMeters>
            <DistanceMeters>4870.1122582539</DistanceMeters>
          </Trackpoint>
          <Trackpoint>
            <Time>2023-02-23T09:50:07.000Z</Time>
            <Position>
              <LatitudeDegrees>41.5422924421727657318115234375</LatitudeDegrees>
              <LongitudeDegrees>-4.59196672774851322174072265625</LongitudeDegrees>
            </Position>
            <AltitudeMeters>1207.5999755859375</AltitudeMeters>
            <DistanceMeters>4872.6902683902</DistanceMeters>
          </Trackpoint>
          <Trackpoint>
            <Time>2023-02-23T09:50:11.000Z</Time>
            <Position>
              <LatitudeDegrees>41.5422854013741016387939453125</LatitudeDegrees>
              <LongitudeDegrees>-4.59195365197956562042236328125</LongitudeDegrees>
            </Position>
            <AltitudeMeters>1207.4000244140625</AltitudeMeters>
            <DistanceMeters>4874.0341490727</DistanceMeters>
          </Trackpoint>
          <Trackpoint>
            <Time>2023-02-23T09:50:13.000Z</Time>
            <Position>
              <LatitudeDegrees>41.5422797016799449920654296875</LatitudeDegrees>
              <LongitudeDegrees>-4.5919404923915863037109375</LongitudeDegrees>
            </Position>
            <AltitudeMeters>1207.199951171875</AltitudeMeters>
            <DistanceMeters>4875.3019635729</DistanceMeters>
          </Trackpoint>
          <Trackpoint>
            <Time>2023-02-23T09:50:15.000Z</Time>
            <Position>
              <LatitudeDegrees>41.54226218350231647491455078125</LatitudeDegrees>
              <LongitudeDegrees>-4.59195164032280445098876953125</LongitudeDegrees>
            </Position>
            <AltitudeMeters>1207.199951171875</AltitudeMeters>
            <DistanceMeters>4877.4605555781</DistanceMeters>
          </Trackpoint>
          <Trackpoint>
            <Time>2023-02-23T09:50:18.000Z</Time>
            <Position>
              <LatitudeDegrees>41.54223091900348663330078125</LatitudeDegrees>
              <LongitudeDegrees>-4.59196354262530803680419921875</LongitudeDegrees>
            </Position>
            <AltitudeMeters>1207.199951171875</AltitudeMeters>
            <DistanceMeters>4881.0778170792</DistanceMeters>
          </Trackpoint>
          <Trackpoint>
            <Time>2023-02-23T09:50:21.000Z</Time>
            <Position>
              <LatitudeDegrees>41.54220409691333770751953125</LatitudeDegrees>
              <LongitudeDegrees>-4.59195415489375591278076171875</LongitudeDegrees>
            </Position>
            <AltitudeMeters>1207.4000244140625</AltitudeMeters>
            <DistanceMeters>4884.1628941564</DistanceMeters>
          </Trackpoint>
          <Trackpoint>
            <Time>2023-02-23T09:50:26.000Z</Time>
            <Position>
              <LatitudeDegrees>41.54216595925390720367431640625</LatitudeDegrees>
              <LongitudeDegrees>-4.591920375823974609375</LongitudeDegrees>
            </Position>
            <AltitudeMeters>1207</AltitudeMeters>
            <DistanceMeters>4889.25547499</DistanceMeters>
          </Trackpoint>
          <Trackpoint>
            <Time>2023-02-23T09:50:29.000Z</Time>
            <Position>
              <LatitudeDegrees>41.54215673916041851043701171875</LatitudeDegrees>
              <LongitudeDegrees>-4.5919024385511875152587890625</LongitudeDegrees>
            </Position>
            <AltitudeMeters>1207.199951171875</AltitudeMeters>
            <DistanceMeters>4891.0684691504</DistanceMeters>
          </Trackpoint>
          <Trackpoint>
            <Time>2023-02-23T09:50:34.000Z</Time>
            <Position>
              <LatitudeDegrees>41.54214148409664630889892578125</LatitudeDegrees>
              <LongitudeDegrees>-4.5918923802673816680908203125</LongitudeDegrees>
            </Position>
            <AltitudeMeters>1207.5999755859375</AltitudeMeters>
            <DistanceMeters>4892.9618630207</DistanceMeters>
          </Trackpoint>
          <Trackpoint>
            <Time>2023-02-23T09:50:40.000Z</Time>
            <Position>
              <LatitudeDegrees>41.5421385504305362701416015625</LatitudeDegrees>
              <LongitudeDegrees>-4.591869413852691650390625</LongitudeDegrees>
            </Position>
            <AltitudeMeters>1207.800048828125</AltitudeMeters>
            <DistanceMeters>4894.9046887858</DistanceMeters>
          </Trackpoint>
          <Trackpoint>
            <Time>2023-02-23T09:50:41.000Z</Time>
            <Position>
              <LatitudeDegrees>41.54213142581284046173095703125</LatitudeDegrees>
              <LongitudeDegrees>-4.591861702501773834228515625</LongitudeDegrees>
            </Position>
            <AltitudeMeters>1207.800048828125</AltitudeMeters>
            <DistanceMeters>4895.9237367685</DistanceMeters>
          </Trackpoint>
          <Trackpoint>
            <Time>2023-02-23T09:50:45.000Z</Time>
            <Position>
              <LatitudeDegrees>41.542123965919017791748046875</LatitudeDegrees>
              <LongitudeDegrees>-4.5918702520430088043212890625</LongitudeDegrees>
            </Position>
            <AltitudeMeters>1207.800048828125</AltitudeMeters>
            <DistanceMeters>4897.0155105961</DistanceMeters>
          </Trackpoint>
          <Trackpoint>
            <Time>2023-02-23T09:50:48.000Z</Time>
            <Position>
              <LatitudeDegrees>41.54212622903287410736083984375</LatitudeDegrees>
              <LongitudeDegrees>-4.591860361397266387939453125</LongitudeDegrees>
            </Position>
            <AltitudeMeters>1207.800048828125</AltitudeMeters>
            <DistanceMeters>4897.8760140932</DistanceMeters>
          </Trackpoint>
          <Trackpoint>
            <Time>2023-02-23T09:50:52.000Z</Time>
            <Position>
              <LatitudeDegrees>41.54211818240582942962646484375</LatitudeDegrees>
              <LongitudeDegrees>-4.59186731837689876556396484375</LongitudeDegrees>
            </Position>
            <AltitudeMeters>1207.800048828125</AltitudeMeters>
            <DistanceMeters>4898.9384450582</DistanceMeters>
          </Trackpoint>
          <Trackpoint>
            <Time>2023-02-23T09:50:53.000Z</Time>
            <Position>
              <LatitudeDegrees>41.54211047105491161346435546875</LatitudeDegrees>
              <LongitudeDegrees>-4.59187670610845088958740234375</LongitudeDegrees>
            </Position>
            <AltitudeMeters>1207.800048828125</AltitudeMeters>
            <DistanceMeters>4900.1022798689</DistanceMeters>
          </Trackpoint>
          <Trackpoint>
            <Time>2023-02-23T09:50:58.000Z</Time>
            <Position>
              <LatitudeDegrees>41.54206604696810245513916015625</LatitudeDegrees>
              <LongitudeDegrees>-4.59189330227673053741455078125</LongitudeDegrees>
            </Position>
            <AltitudeMeters>1207.800048828125</AltitudeMeters>
            <DistanceMeters>4905.2372407467</DistanceMeters>
          </Trackpoint>
          <Trackpoint>
            <Time>2023-02-23T09:51:00.000Z</Time>
            <Position>
              <LatitudeDegrees>41.5420450083911418914794921875</LatitudeDegrees>
              <LongitudeDegrees>-4.59189581684768199920654296875</LongitudeDegrees>
            </Position>
            <AltitudeMeters>1207.800048828125</AltitudeMeters>
            <DistanceMeters>4907.5861504315</DistanceMeters>
          </Trackpoint>
          <Trackpoint>
            <Time>2023-02-23T09:51:04.000Z</Time>
            <Position>
              <LatitudeDegrees>41.54201441444456577301025390625</LatitudeDegrees>
              <LongitudeDegrees>-4.59187989123165607452392578125</LongitudeDegrees>
            </Position>
            <AltitudeMeters>1207.800048828125</AltitudeMeters>
            <DistanceMeters>4911.2406658659</DistanceMeters>
          </Trackpoint>
          <Trackpoint>
            <Time>2023-02-23T09:51:07.000Z</Time>
            <Position>
              <LatitudeDegrees>41.54199915938079357147216796875</LatitudeDegrees>
              <LongitudeDegrees>-4.59187335334718227386474609375</LongitudeDegrees>
            </Position>
            <AltitudeMeters>1207.5999755859375</AltitudeMeters>
            <DistanceMeters>4913.0235250607</DistanceMeters>
          </Trackpoint>
          <Trackpoint>
            <Time>2023-02-23T09:51:13.000Z</Time>
            <Position>
              <LatitudeDegrees>41.54197284020483493804931640625</LatitudeDegrees>
              <LongitudeDegrees>-4.59185793064534664154052734375</LongitudeDegrees>
            </Position>
            <AltitudeMeters>1207.4000244140625</AltitudeMeters>
            <DistanceMeters>4916.2221304772</DistanceMeters>
          </Trackpoint>
          <Trackpoint>
            <Time>2023-02-23T09:51:21.000Z</Time>
            <Position>
              <LatitudeDegrees>41.54195205308496952056884765625</LatitudeDegrees>
              <LongitudeDegrees>-4.59184116683900356292724609375</LongitudeDegrees>
            </Position>
            <AltitudeMeters>1207.800048828125</AltitudeMeters>
            <DistanceMeters>4918.926638181</DistanceMeters>
          </Trackpoint>
          <Trackpoint>
            <Time>2023-02-23T09:51:25.000Z</Time>
            <Position>
              <LatitudeDegrees>41.54191852547228336334228515625</LatitudeDegrees>
              <LongitudeDegrees>-4.59184016101062297821044921875</LongitudeDegrees>
            </Position>
            <AltitudeMeters>1207.4000244140625</AltitudeMeters>
            <DistanceMeters>4922.660595603</DistanceMeters>
          </Trackpoint>
          <Trackpoint>
            <Time>2023-02-23T09:51:27.000Z</Time>
            <Position>
              <LatitudeDegrees>41.54190075583755970001220703125</LatitudeDegrees>
              <LongitudeDegrees>-4.59184368140995502471923828125</LongitudeDegrees>
            </Position>
            <AltitudeMeters>1207.5999755859375</AltitudeMeters>
            <DistanceMeters>4924.6629327228</DistanceMeters>
          </Trackpoint>
          <Trackpoint>
            <Time>2023-02-23T09:51:32.000Z</Time>
            <Position>
              <LatitudeDegrees>41.54185616411268711090087890625</LatitudeDegrees>
              <LongitudeDegrees>-4.591877125203609466552734375</LongitudeDegrees>
            </Position>
            <AltitudeMeters>1207.800048828125</AltitudeMeters>
            <DistanceMeters>4930.3542317137</DistanceMeters>
          </Trackpoint>
          <Trackpoint>
            <Time>2023-02-23T09:51:39.000Z</Time>
            <Position>
              <LatitudeDegrees>41.54179547913372516632080078125</LatitudeDegrees>
              <LongitudeDegrees>-4.591831527650356292724609375</LongitudeDegrees>
            </Position>
            <AltitudeMeters>1207.5999755859375</AltitudeMeters>
            <DistanceMeters>4938.103425759</DistanceMeters>
          </Trackpoint>
          <Trackpoint>
            <Time>2023-02-23T09:51:45.000Z</Time>
            <Position>
              <LatitudeDegrees>41.54177762567996978759765625</LatitudeDegrees>
              <LongitudeDegrees>-4.59182373248040676116943359375</LongitudeDegrees>
            </Position>
            <AltitudeMeters>1206.800048828125</AltitudeMeters>
            <DistanceMeters>4940.1940134752</DistanceMeters>
          </Trackpoint>
          <Trackpoint>
            <Time>2023-02-23T09:51:49.000Z</Time>
            <Position>
              <LatitudeDegrees>41.54178307391703128814697265625</LatitudeDegrees>
              <LongitudeDegrees>-4.5918437652289867401123046875</LongitudeDegrees>
            </Position>
            <AltitudeMeters>1206.5999755859375</AltitudeMeters>
            <DistanceMeters>4941.971800514</DistanceMeters>
          </Trackpoint>
          <Trackpoint>
            <Time>2023-02-23T09:51:51.000Z</Time>
            <Position>
              <LatitudeDegrees>41.54178969562053680419921875</LatitudeDegrees>
              <LongitudeDegrees>-4.59184669889509677886962890625</LongitudeDegrees>
            </Position>
            <AltitudeMeters>1206.5999755859375</AltitudeMeters>
            <DistanceMeters>4942.7496276939</DistanceMeters>
          </Trackpoint>
          <Trackpoint>
            <Time>2023-02-23T09:51:54.000Z</Time>
            <Position>
              <LatitudeDegrees>41.54179212637245655059814453125</LatitudeDegrees>
              <LongitudeDegrees>-4.5918471179902553558349609375</LongitudeDegrees>
            </Position>
            <AltitudeMeters>1206.5999755859375</AltitudeMeters>
            <DistanceMeters>4943.0184038304</DistanceMeters>
          </Trackpoint>
          <Trackpoint>
            <Time>2023-02-23T09:51:56.000Z</Time>
            <Position>
              <LatitudeDegrees>41.541792713105678558349609375</LatitudeDegrees>
              <LongitudeDegrees>-4.5918501354753971099853515625</LongitudeDegrees>
            </Position>
            <AltitudeMeters>1206.800048828125</AltitudeMeters>
            <DistanceMeters>4943.2871799669</DistanceMeters>
          </Trackpoint>
          <Trackpoint>
            <Time>2023-02-23T09:52:00.000Z</Time>
            <Position>
              <LatitudeDegrees>41.541785337030887603759765625</LatitudeDegrees>
              <LongitudeDegrees>-4.5918680727481842041015625</LongitudeDegrees>
            </Position>
            <AltitudeMeters>1207</AltitudeMeters>
            <DistanceMeters>4944.9923733914</DistanceMeters>
          </Trackpoint>
          <Trackpoint>
            <Time>2023-02-23T09:52:01.000Z</Time>
            <Position>
              <LatitudeDegrees>41.5417821519076824188232421875</LatitudeDegrees>
              <LongitudeDegrees>-4.59187033586204051971435546875</LongitudeDegrees>
            </Position>
            <AltitudeMeters>1207</AltitudeMeters>
            <DistanceMeters>4945.3955375961</DistanceMeters>
          </Trackpoint>
          <Trackpoint>
            <Time>2023-02-23T09:52:07.000Z</Time>
            <Position>
              <LatitudeDegrees>41.54180101118981838226318359375</LatitudeDegrees>
              <LongitudeDegrees>-4.5919041149318218231201171875</LongitudeDegrees>
            </Position>
            <AltitudeMeters>1207.199951171875</AltitudeMeters>
            <DistanceMeters>4948.9063856911</DistanceMeters>
          </Trackpoint>
          <Trackpoint>
            <Time>2023-02-23T09:52:08.000Z</Time>
            <Position>
              <LatitudeDegrees>41.54180922545492649078369140625</LatitudeDegrees>
              <LongitudeDegrees>-4.591912664473056793212890625</LongitudeDegrees>
            </Position>
            <AltitudeMeters>1207.199951171875</AltitudeMeters>
            <DistanceMeters>4950.0624355662</DistanceMeters>
          </Trackpoint>
          <Trackpoint>
            <Time>2023-02-23T09:52:09.000Z</Time>
            <Position>
              <LatitudeDegrees>41.54181894846260547637939453125</LatitudeDegrees>
              <LongitudeDegrees>-4.5919188670814037322998046875</LongitudeDegrees>
            </Position>
            <AltitudeMeters>1207.199951171875</AltitudeMeters>
            <DistanceMeters>4951.2644389901</DistanceMeters>
          </Trackpoint>
          <Trackpoint>
            <Time>2023-02-23T09:52:12.000Z</Time>
            <Position>
              <LatitudeDegrees>41.5418471954762935638427734375</LatitudeDegrees>
              <LongitudeDegrees>-4.59192733280360698699951171875</LongitudeDegrees>
            </Position>
            <AltitudeMeters>1207.199951171875</AltitudeMeters>
            <DistanceMeters>4954.4869516604</DistanceMeters>
          </Trackpoint>
          <Trackpoint>
            <Time>2023-02-23T09:52:16.000Z</Time>
            <Position>
              <LatitudeDegrees>41.541877873241901397705078125</LatitudeDegrees>
              <LongitudeDegrees>-4.59192900918424129486083984375</LongitudeDegrees>
            </Position>
            <AltitudeMeters>1207.199951171875</AltitudeMeters>
            <DistanceMeters>4957.9052727276</DistanceMeters>
          </Trackpoint>
          <Trackpoint>
            <Time>2023-02-23T09:52:19.000Z</Time>
            <Position>
              <LatitudeDegrees>41.54190628789365291595458984375</LatitudeDegrees>
              <LongitudeDegrees>-4.5919285900890827178955078125</LongitudeDegrees>
            </Position>
            <AltitudeMeters>1207.4000244140625</AltitudeMeters>
            <DistanceMeters>4961.0683921847</DistanceMeters>
          </Trackpoint>
          <Trackpoint>
            <Time>2023-02-23T09:52:22.000Z</Time>
            <Position>
              <LatitudeDegrees>41.54194182716310024261474609375</LatitudeDegrees>
              <LongitudeDegrees>-4.59194384515285491943359375</LongitudeDegrees>
            </Position>
            <AltitudeMeters>1207.5999755859375</AltitudeMeters>
            <DistanceMeters>4965.2235704193</DistanceMeters>
          </Trackpoint>
          <Trackpoint>
            <Time>2023-02-23T09:52:23.000Z</Time>
            <Position>
              <LatitudeDegrees>41.54195004142820835113525390625</LatitudeDegrees>
              <LongitudeDegrees>-4.59195499308407306671142578125</LongitudeDegrees>
            </Position>
            <AltitudeMeters>1207.800048828125</AltitudeMeters>
            <DistanceMeters>4966.5230411942</DistanceMeters>
          </Trackpoint>
          <Trackpoint>
            <Time>2023-02-23T09:52:26.000Z</Time>
            <Position>
              <LatitudeDegrees>41.54196915216743946075439453125</LatitudeDegrees>
              <LongitudeDegrees>-4.5919839106500148773193359375</LongitudeDegrees>
            </Position>
            <AltitudeMeters>1208.199951171875</AltitudeMeters>
            <DistanceMeters>4969.737136316</DistanceMeters>
          </Trackpoint>
          <Trackpoint>
            <Time>2023-02-23T09:52:30.000Z</Time>
            <Position>
              <LatitudeDegrees>41.542001254856586456298828125</LatitudeDegrees>
              <LongitudeDegrees>-4.59201802499592304229736328125</LongitudeDegrees>
            </Position>
            <AltitudeMeters>1208.4000244140625</AltitudeMeters>
            <DistanceMeters>4974.3023763352</DistanceMeters>
          </Trackpoint>
          <Trackpoint>
            <Time>2023-02-23T09:52:36.000Z</Time>
            <Position>
              <LatitudeDegrees>41.5420587547123432159423828125</LatitudeDegrees>
              <LongitudeDegrees>-4.59205247461795806884765625</LongitudeDegrees>
            </Position>
            <AltitudeMeters>1208.4000244140625</AltitudeMeters>
            <DistanceMeters>4981.3163521312</DistanceMeters>
          </Trackpoint>
          <Trackpoint>
            <Time>2023-02-23T09:52:37.000Z</Time>
            <Position>
              <LatitudeDegrees>41.54206973500549793243408203125</LatitudeDegrees>
              <LongitudeDegrees>-4.59205783903598785400390625</LongitudeDegrees>
            </Position>
            <AltitudeMeters>1208.4000244140625</AltitudeMeters>
            <DistanceMeters>4982.6192927943</DistanceMeters>
          </Trackpoint>
          <Trackpoint>
            <Time>2023-02-23T09:52:38.000Z</Time>
            <Position>
              <LatitudeDegrees>41.54207878746092319488525390625</LatitudeDegrees>
              <LongitudeDegrees>-4.59206043742597103118896484375</LongitudeDegrees>
            </Position>
            <AltitudeMeters>1208.199951171875</AltitudeMeters>
            <DistanceMeters>4983.6515471333</DistanceMeters>
          </Trackpoint>
          <Trackpoint>
            <Time>2023-02-23T09:52:41.000Z</Time>
            <Position>
              <LatitudeDegrees>41.54210762120783329010009765625</LatitudeDegrees>
              <LongitudeDegrees>-4.59207099862396717071533203125</LongitudeDegrees>
            </Position>
            <AltitudeMeters>1208.4000244140625</AltitudeMeters>
            <DistanceMeters>4986.9788393838</DistanceMeters>
          </Trackpoint>
          <Trackpoint>
            <Time>2023-02-23T09:52:46.000Z</Time>
            <Position>
              <LatitudeDegrees>41.5421600081026554107666015625</LatitudeDegrees>
              <LongitudeDegrees>-4.592078626155853271484375</LongitudeDegrees>
            </Position>
            <AltitudeMeters>1208</AltitudeMeters>
            <DistanceMeters>4992.8443820911</DistanceMeters>
          </Trackpoint>
          <Trackpoint>
            <Time>2023-02-23T09:52:50.000Z</Time>
            <Position>
              <LatitudeDegrees>41.5421967208385467529296875</LatitudeDegrees>
              <LongitudeDegrees>-4.59208893589675426483154296875</LongitudeDegrees>
            </Position>
            <AltitudeMeters>1207.800048828125</AltitudeMeters>
            <DistanceMeters>4997.0201547876</DistanceMeters>
          </Trackpoint>
          <Trackpoint>
            <Time>2023-02-23T09:52:53.000Z</Time>
            <Position>
              <LatitudeDegrees>41.54223150573670864105224609375</LatitudeDegrees>
              <LongitudeDegrees>-4.5921014249324798583984375</LongitudeDegrees>
            </Position>
            <AltitudeMeters>1207.5999755859375</AltitudeMeters>
            <DistanceMeters>5001.029336259</DistanceMeters>
          </Trackpoint>
          <Trackpoint>
            <Time>2023-02-23T09:53:00.000Z</Time>
            <Position>
              <LatitudeDegrees>41.5422907657921314239501953125</LatitudeDegrees>
              <LongitudeDegrees>-4.5921012572944164276123046875</LongitudeDegrees>
            </Position>
            <AltitudeMeters>1208</AltitudeMeters>
            <DistanceMeters>5007.6239437647</DistanceMeters>
          </Trackpoint>
          <Trackpoint>
            <Time>2023-02-23T09:53:06.000Z</Time>
            <Position>
              <LatitudeDegrees>41.5423336811363697052001953125</LatitudeDegrees>
              <LongitudeDegrees>-4.59214190952479839324951171875</LongitudeDegrees>
            </Position>
            <AltitudeMeters>1208</AltitudeMeters>
            <DistanceMeters>5013.4786999664</DistanceMeters>
          </Trackpoint>
          <Trackpoint>
            <Time>2023-02-23T09:53:13.000Z</Time>
            <Position>
              <LatitudeDegrees>41.542342565953731536865234375</LatitudeDegrees>
              <LongitudeDegrees>-4.592135287821292877197265625</LongitudeDegrees>
            </Position>
            <AltitudeMeters>1207.800048828125</AltitudeMeters>
            <DistanceMeters>5014.6110739572</DistanceMeters>
          </Trackpoint>
          <Trackpoint>
            <Time>2023-02-23T09:53:16.000Z</Time>
            <Position>
              <LatitudeDegrees>41.5423571504652500152587890625</LatitudeDegrees>
              <LongitudeDegrees>-4.59213369525969028472900390625</LongitudeDegrees>
            </Position>
            <AltitudeMeters>1207.800048828125</AltitudeMeters>
            <DistanceMeters>5016.2376692966</DistanceMeters>
          </Trackpoint>
          <Trackpoint>
            <Time>2023-02-23T09:53:20.000Z</Time>
            <Position>
              <LatitudeDegrees>41.5423702262341976165771484375</LatitudeDegrees>
              <LongitudeDegrees>-4.59212698973715305328369140625</LongitudeDegrees>
            </Position>
            <AltitudeMeters>1207.800048828125</AltitudeMeters>
            <DistanceMeters>5017.7933236563</DistanceMeters>
          </Trackpoint>
          <Trackpoint>
            <Time>2023-02-23T09:53:28.000Z</Time>
            <Position>
              <LatitudeDegrees>41.542386822402477264404296875</LatitudeDegrees>
              <LongitudeDegrees>-4.59211743436753749847412109375</LongitudeDegrees>
            </Position>
            <AltitudeMeters>1207.5999755859375</AltitudeMeters>
            <DistanceMeters>5019.8046600893</DistanceMeters>
          </Trackpoint>
          <Trackpoint>
            <Time>2023-02-23T09:53:36.000Z</Time>
            <Position>
              <LatitudeDegrees>41.54241607524454593658447265625</LatitudeDegrees>
              <LongitudeDegrees>-4.5921183563768863677978515625</LongitudeDegrees>
            </Position>
            <AltitudeMeters>1207.4000244140625</AltitudeMeters>
            <DistanceMeters>5023.0606253449</DistanceMeters>
          </Trackpoint>
          <Trackpoint>
            <Time>2023-02-23T09:53:42.000Z</Time>
            <Position>
              <LatitudeDegrees>41.54241062700748443603515625</LatitudeDegrees>
              <LongitudeDegrees>-4.592115841805934906005859375</LongitudeDegrees>
            </Position>
            <AltitudeMeters>1207.800048828125</AltitudeMeters>
            <DistanceMeters>5023.7051278789</DistanceMeters>
          </Trackpoint>
          <Trackpoint>
            <Time>2023-02-23T09:53:44.000Z</Time>
            <Position>
              <LatitudeDegrees>41.54240098781883716583251953125</LatitudeDegrees>
              <LongitudeDegrees>-4.592116512358188629150390625</LongitudeDegrees>
            </Position>
            <AltitudeMeters>1207.800048828125</AltitudeMeters>
            <DistanceMeters>5024.7802324249</DistanceMeters>
          </Trackpoint>
          <Trackpoint>
            <Time>2023-02-23T09:53:51.000Z</Time>
            <Position>
              <LatitudeDegrees>41.542392186820507049560546875</LatitudeDegrees>
              <LongitudeDegrees>-4.59213268943130970001220703125</LongitudeDegrees>
            </Position>
            <AltitudeMeters>1207.5999755859375</AltitudeMeters>
            <DistanceMeters>5026.4479444938</DistanceMeters>
          </Trackpoint>
          <Trackpoint>
            <Time>2023-02-23T09:53:57.000Z</Time>
            <Position>
              <LatitudeDegrees>41.542380116879940032958984375</LatitudeDegrees>
              <LongitudeDegrees>-4.592148363590240478515625</LongitudeDegrees>
            </Position>
            <AltitudeMeters>1207.5999755859375</AltitudeMeters>
            <DistanceMeters>5028.3221642613</DistanceMeters>
          </Trackpoint>
          <Trackpoint>
            <Time>2023-02-23T09:53:58.000Z</Time>
            <Position>
              <LatitudeDegrees>41.5423762612044811248779296875</LatitudeDegrees>
              <LongitudeDegrees>-4.59215180017054080963134765625</LongitudeDegrees>
            </Position>
            <AltitudeMeters>1207.5999755859375</AltitudeMeters>
            <DistanceMeters>5028.8426470115</DistanceMeters>
          </Trackpoint>
          <Trackpoint>
            <Time>2023-02-23T09:53:59.000Z</Time>
            <Position>
              <LatitudeDegrees>41.54237248934805393218994140625</LatitudeDegrees>
              <LongitudeDegrees>-4.592152722179889678955078125</LongitudeDegrees>
            </Position>
            <AltitudeMeters>1207.5999755859375</AltitudeMeters>
            <DistanceMeters>5029.2676193976</DistanceMeters>
          </Trackpoint>
          <Trackpoint>
            <Time>2023-02-23T09:54:00.000Z</Time>
            <Position>
              <LatitudeDegrees>41.542369388043880462646484375</LatitudeDegrees>
              <LongitudeDegrees>-4.5921550691127777099609375</LongitudeDegrees>
            </Position>
            <AltitudeMeters>1207.800048828125</AltitudeMeters>
            <DistanceMeters>5029.6707836023</DistanceMeters>
          </Trackpoint>
          <Trackpoint>
            <Time>2023-02-23T09:54:02.000Z</Time>
            <Position>
              <LatitudeDegrees>41.54236125759780406951904296875</LatitudeDegrees>
              <LongitudeDegrees>-4.59216512739658355712890625</LongitudeDegrees>
            </Position>
            <AltitudeMeters>1207.5999755859375</AltitudeMeters>
            <DistanceMeters>5030.9061308891</DistanceMeters>
          </Trackpoint>
          <Trackpoint>
            <Time>2023-02-23T09:54:04.000Z</Time>
            <Position>
              <LatitudeDegrees>41.542353294789791107177734375</LatitudeDegrees>
              <LongitudeDegrees>-4.59219370968639850616455078125</LongitudeDegrees>
            </Position>
            <AltitudeMeters>1207.4000244140625</AltitudeMeters>
            <DistanceMeters>5033.4470961894</DistanceMeters>
          </Trackpoint>
          <Trackpoint>
            <Time>2023-02-23T09:54:05.000Z</Time>
            <Position>
              <LatitudeDegrees>41.54234700836241245269775390625</LatitudeDegrees>
              <LongitudeDegrees>-4.5922058634459972381591796875</LongitudeDegrees>
            </Position>
            <AltitudeMeters>1207.199951171875</AltitudeMeters>
            <DistanceMeters>5034.6787831799</DistanceMeters>
          </Trackpoint>
          <Trackpoint>
            <Time>2023-02-23T09:54:10.000Z</Time>
            <Position>
              <LatitudeDegrees>41.54232119210064411163330078125</LatitudeDegrees>
              <LongitudeDegrees>-4.59227367304265499114990234375</LongitudeDegrees>
            </Position>
            <AltitudeMeters>1207.199951171875</AltitudeMeters>
            <DistanceMeters>5041.0164310104</DistanceMeters>
          </Trackpoint>
          <Trackpoint>
            <Time>2023-02-23T09:54:11.000Z</Time>
            <Position>
              <LatitudeDegrees>41.5423135645687580108642578125</LatitudeDegrees>
              <LongitudeDegrees>-4.5922970585525035858154296875</LongitudeDegrees>
            </Position>
            <AltitudeMeters>1207.4000244140625</AltitudeMeters>
            <DistanceMeters>5043.1412929405</DistanceMeters>
          </Trackpoint>
          <Trackpoint>
            <Time>2023-02-23T09:54:14.000Z</Time>
            <Position>
              <LatitudeDegrees>41.54229126870632171630859375</LatitudeDegrees>
              <LongitudeDegrees>-4.592380709946155548095703125</LongitudeDegrees>
            </Position>
            <AltitudeMeters>1207.4000244140625</AltitudeMeters>
            <DistanceMeters>5050.5381323448</DistanceMeters>
          </Trackpoint>
          <Trackpoint>
            <Time>2023-02-23T09:54:16.000Z</Time>
            <Position>
              <LatitudeDegrees>41.5422797016799449920654296875</LatitudeDegrees>
              <LongitudeDegrees>-4.59240694530308246612548828125</LongitudeDegrees>
            </Position>
            <AltitudeMeters>1207</AltitudeMeters>
            <DistanceMeters>5053.0755413589</DistanceMeters>
          </Trackpoint>
          <Trackpoint>
            <Time>2023-02-23T09:54:20.000Z</Time>
            <Position>
              <LatitudeDegrees>41.54222697950899600982666015625</LatitudeDegrees>
              <LongitudeDegrees>-4.5924596674740314483642578125</LongitudeDegrees>
            </Position>
            <AltitudeMeters>1206.800048828125</AltitudeMeters>
            <DistanceMeters>5060.4055450998</DistanceMeters>
          </Trackpoint>
          <Trackpoint>
            <Time>2023-02-23T09:54:23.000Z</Time>
            <Position>
              <LatitudeDegrees>41.542179621756076812744140625</LatitudeDegrees>
              <LongitudeDegrees>-4.59250819869339466094970703125</LongitudeDegrees>
            </Position>
            <AltitudeMeters>1207</AltitudeMeters>
            <DistanceMeters>5067.0479056369</DistanceMeters>
          </Trackpoint>
          <Trackpoint>
            <Time>2023-02-23T09:54:25.000Z</Time>
            <Position>
              <LatitudeDegrees>41.542146094143390655517578125</LatitudeDegrees>
              <LongitudeDegrees>-4.5925384573638439178466796875</LongitudeDegrees>
            </Position>
            <AltitudeMeters>1207</AltitudeMeters>
            <DistanceMeters>5071.5514100161</DistanceMeters>
          </Trackpoint>
          <Trackpoint>
            <Time>2023-02-23T09:54:29.000Z</Time>
            <Position>
              <LatitudeDegrees>41.5420785360038280487060546875</LatitudeDegrees>
              <LongitudeDegrees>-4.59261305630207061767578125</LongitudeDegrees>
            </Position>
            <AltitudeMeters>1206.5999755859375</AltitudeMeters>
            <DistanceMeters>5081.3063546887</DistanceMeters>
          </Trackpoint>
          <Trackpoint>
            <Time>2023-02-23T09:54:30.000Z</Time>
            <Position>
              <LatitudeDegrees>41.54205297119915485382080078125</LatitudeDegrees>
              <LongitudeDegrees>-4.592624120414257049560546875</LongitudeDegrees>
            </Position>
            <AltitudeMeters>1206.4000244140625</AltitudeMeters>
            <DistanceMeters>5084.2993190775</DistanceMeters>
          </Trackpoint>
          <Trackpoint>
            <Time>2023-02-23T09:54:36.000Z</Time>
            <Position>
              <LatitudeDegrees>41.54185381717979907989501953125</LatitudeDegrees>
              <LongitudeDegrees>-4.59263912402093410491943359375</LongitudeDegrees>
            </Position>
            <AltitudeMeters>1206.4000244140625</AltitudeMeters>
            <DistanceMeters>5106.5010251554</DistanceMeters>
          </Trackpoint>
          <Trackpoint>
            <Time>2023-02-23T09:54:37.000Z</Time>
            <Position>
              <LatitudeDegrees>41.54182414524257183074951171875</LatitudeDegrees>
              <LongitudeDegrees>-4.59263183176517486572265625</LongitudeDegrees>
            </Position>
            <AltitudeMeters>1206.4000244140625</AltitudeMeters>
            <DistanceMeters>5109.8580380243</DistanceMeters>
          </Trackpoint>
          <Trackpoint>
            <Time>2023-02-23T09:54:39.000Z</Time>
            <Position>
              <LatitudeDegrees>41.54175885021686553955078125</LatitudeDegrees>
              <LongitudeDegrees>-4.59262202493846416473388671875</LongitudeDegrees>
            </Position>
            <AltitudeMeters>1206.4000244140625</AltitudeMeters>
            <DistanceMeters>5117.170774359</DistanceMeters>
          </Trackpoint>
          <Trackpoint>
            <Time>2023-02-23T09:54:44.000Z</Time>
            <Position>
              <LatitudeDegrees>41.54158576391637325286865234375</LatitudeDegrees>
              <LongitudeDegrees>-4.5926021598279476165771484375</LongitudeDegrees>
            </Position>
            <AltitudeMeters>1206.5999755859375</AltitudeMeters>
            <DistanceMeters>5136.5063174063</DistanceMeters>
          </Trackpoint>
          <Trackpoint>
            <Time>2023-02-23T09:54:48.000Z</Time>
            <Position>
              <LatitudeDegrees>41.54144243337213993072509765625</LatitudeDegrees>
              <LongitudeDegrees>-4.592582546174526214599609375</LongitudeDegrees>
            </Position>
            <AltitudeMeters>1206.5999755859375</AltitudeMeters>
            <DistanceMeters>5152.5430432917</DistanceMeters>
          </Trackpoint>
          <Trackpoint>
            <Time>2023-02-23T09:54:51.000Z</Time>
            <Position>
              <LatitudeDegrees>41.541337408125400543212890625</LatitudeDegrees>
              <LongitudeDegrees>-4.59257927723228931427001953125</LongitudeDegrees>
            </Position>
            <AltitudeMeters>1206.5999755859375</AltitudeMeters>
            <DistanceMeters>5164.2355775492</DistanceMeters>
          </Trackpoint>
          <Trackpoint>
            <Time>2023-02-23T09:54:55.000Z</Time>
            <Position>
              <LatitudeDegrees>41.54118477366864681243896484375</LatitudeDegrees>
              <LongitudeDegrees>-4.5925679616630077362060546875</LongitudeDegrees>
            </Position>
            <AltitudeMeters>1206.4000244140625</AltitudeMeters>
            <DistanceMeters>5181.2504019912</DistanceMeters>
          </Trackpoint>
          <Trackpoint>
            <Time>2023-02-23T09:54:57.000Z</Time>
            <Position>
              <LatitudeDegrees>41.541115455329418182373046875</LatitudeDegrees>
              <LongitudeDegrees>-4.59256469272077083587646484375</LongitudeDegrees>
            </Position>
            <AltitudeMeters>1206.800048828125</AltitudeMeters>
            <DistanceMeters>5188.9698238901</DistanceMeters>
          </Trackpoint>
          <Trackpoint>
            <Time>2023-02-23T09:55:03.000Z</Time>
            <Position>
              <LatitudeDegrees>41.5408851206302642822265625</LatitudeDegrees>
              <LongitudeDegrees>-4.59254340268671512603759765625</LongitudeDegrees>
            </Position>
            <AltitudeMeters>1207</AltitudeMeters>
            <DistanceMeters>5214.6676549352</DistanceMeters>
          </Trackpoint>
          <Trackpoint>
            <Time>2023-02-23T09:55:06.000Z</Time>
            <Position>
              <LatitudeDegrees>41.54078478924930095672607421875</LatitudeDegrees>
              <LongitudeDegrees>-4.59254063665866851806640625</LongitudeDegrees>
            </Position>
            <AltitudeMeters>1207</AltitudeMeters>
            <DistanceMeters>5225.836831542</DistanceMeters>
          </Trackpoint>
          <Trackpoint>
            <Time>2023-02-23T09:55:09.000Z</Time>
            <Position>
              <LatitudeDegrees>41.54069795273244380950927734375</LatitudeDegrees>
              <LongitudeDegrees>-4.59254155866801738739013671875</LongitudeDegrees>
            </Position>
            <AltitudeMeters>1207.199951171875</AltitudeMeters>
            <DistanceMeters>5235.5025012492</DistanceMeters>
          </Trackpoint>
          <Trackpoint>
            <Time>2023-02-23T09:55:13.000Z</Time>
            <Position>
              <LatitudeDegrees>41.5406276285648345947265625</LatitudeDegrees>
              <LongitudeDegrees>-4.5924774371087551116943359375</LongitudeDegrees>
            </Position>
            <AltitudeMeters>1206.800048828125</AltitudeMeters>
            <DistanceMeters>5244.9790043087</DistanceMeters>
          </Trackpoint>
          <Trackpoint>
            <Time>2023-02-23T09:55:18.000Z</Time>
            <Position>
              <LatitudeDegrees>41.5406249463558197021484375</LatitudeDegrees>
              <LongitudeDegrees>-4.59236034192144870758056640625</LongitudeDegrees>
            </Position>
            <AltitudeMeters>1207.199951171875</AltitudeMeters>
            <DistanceMeters>5254.7390389606</DistanceMeters>
          </Trackpoint>
          <Trackpoint>
            <Time>2023-02-23T09:55:20.000Z</Time>
            <Position>
              <LatitudeDegrees>41.5405952744185924530029296875</LatitudeDegrees>
              <LongitudeDegrees>-4.592337124049663543701171875</LongitudeDegrees>
            </Position>
            <AltitudeMeters>1207.800048828125</AltitudeMeters>
            <DistanceMeters>5258.5673302333</DistanceMeters>
          </Trackpoint>
          <Trackpoint>
            <Time>2023-02-23T09:55:22.000Z</Time>
            <Position>
              <LatitudeDegrees>41.5405671112239360809326171875</LatitudeDegrees>
              <LongitudeDegrees>-4.59236486814916133880615234375</LongitudeDegrees>
            </Position>
            <AltitudeMeters>1208.199951171875</AltitudeMeters>
            <DistanceMeters>5262.4599473828</DistanceMeters>
          </Trackpoint>
          <Trackpoint>
            <Time>2023-02-23T09:55:28.000Z</Time>
            <Position>
              <LatitudeDegrees>41.54045336879789829254150390625</LatitudeDegrees>
              <LongitudeDegrees>-4.5925381220877170562744140625</LongitudeDegrees>
            </Position>
            <AltitudeMeters>1208</AltitudeMeters>
            <DistanceMeters>5281.6586364081</DistanceMeters>
          </Trackpoint>
          <Trackpoint>
            <Time>2023-02-23T09:55:31.000Z</Time>
            <Position>
              <LatitudeDegrees>41.54036468826234340667724609375</LatitudeDegrees>
              <LongitudeDegrees>-4.592604674398899078369140625</LongitudeDegrees>
            </Position>
            <AltitudeMeters>1207.4000244140625</AltitudeMeters>
            <DistanceMeters>5292.9791860809</DistanceMeters>
          </Trackpoint>
          <Trackpoint>
            <Time>2023-02-23T09:55:32.000Z</Time>
            <Position>
              <LatitudeDegrees>41.54033300466835498809814453125</LatitudeDegrees>
              <LongitudeDegrees>-4.592635519802570343017578125</LongitudeDegrees>
            </Position>
            <AltitudeMeters>1207.199951171875</AltitudeMeters>
            <DistanceMeters>5297.3421439243</DistanceMeters>
          </Trackpoint>
          <Trackpoint>
            <Time>2023-02-23T09:55:34.000Z</Time>
            <Position>
              <LatitudeDegrees>41.54026913456618785858154296875</LatitudeDegrees>
              <LongitudeDegrees>-4.59270953200757503509521484375</LongitudeDegrees>
            </Position>
            <AltitudeMeters>1207</AltitudeMeters>
            <DistanceMeters>5306.7526678038</DistanceMeters>
          </Trackpoint>
          <Trackpoint>
            <Time>2023-02-23T09:55:41.000Z</Time>
            <Position>
              <LatitudeDegrees>41.53999957256019115447998046875</LatitudeDegrees>
              <LongitudeDegrees>-4.59295042790472507476806640625</LongitudeDegrees>
            </Position>
            <AltitudeMeters>1206.800048828125</AltitudeMeters>
            <DistanceMeters>5342.8486875272</DistanceMeters>
          </Trackpoint>
          <Trackpoint>
            <Time>2023-02-23T09:55:42.000Z</Time>
            <Position>
              <LatitudeDegrees>41.53995984233915805816650390625</LatitudeDegrees>
              <LongitudeDegrees>-4.59298345260322093963623046875</LongitudeDegrees>
            </Position>
            <AltitudeMeters>1206.5999755859375</AltitudeMeters>
            <DistanceMeters>5348.0561167933</DistanceMeters>
          </Trackpoint>
          <Trackpoint>
            <Time>2023-02-23T09:55:47.000Z</Time>
            <Position>
              <LatitudeDegrees>41.53977476991713047027587890625</LatitudeDegrees>
              <LongitudeDegrees>-4.59313902072608470916748046875</LongitudeDegrees>
            </Position>
            <AltitudeMeters>1206.4000244140625</AltitudeMeters>
            <DistanceMeters>5372.3929759571</DistanceMeters>
          </Trackpoint>
          <Trackpoint>
            <Time>2023-02-23T09:55:49.000Z</Time>
            <Position>
              <LatitudeDegrees>41.539707966148853302001953125</LatitudeDegrees>
              <LongitudeDegrees>-4.593202136456966400146484375</LongitudeDegrees>
            </Position>
            <AltitudeMeters>1206.199951171875</AltitudeMeters>
            <DistanceMeters>5381.5001847577</DistanceMeters>
          </Trackpoint>
          <Trackpoint>
            <Time>2023-02-23T09:55:51.000Z</Time>
            <Position>
              <LatitudeDegrees>41.53964283876121044158935546875</LatitudeDegrees>
              <LongitudeDegrees>-4.59327690303325653076171875</LongitudeDegrees>
            </Position>
            <AltitudeMeters>1206.199951171875</AltitudeMeters>
            <DistanceMeters>5391.0578127745</DistanceMeters>
          </Trackpoint>
          <Trackpoint>
            <Time>2023-02-23T09:55:53.000Z</Time>
            <Position>
              <LatitudeDegrees>41.5395837463438510894775390625</LatitudeDegrees>
              <LongitudeDegrees>-4.593361727893352508544921875</LongitudeDegrees>
            </Position>
            <AltitudeMeters>1206</AltitudeMeters>
            <DistanceMeters>5400.7117973911</DistanceMeters>
          </Trackpoint>
          <Trackpoint>
            <Time>2023-02-23T09:55:55.000Z</Time>
            <Position>
              <LatitudeDegrees>41.53954108245670795440673828125</LatitudeDegrees>
              <LongitudeDegrees>-4.59347479976713657379150390625</LongitudeDegrees>
            </Position>
            <AltitudeMeters>1205.4000244140625</AltitudeMeters>
            <DistanceMeters>5411.2610467528</DistanceMeters>
          </Trackpoint>
          <Trackpoint>
            <Time>2023-02-23T09:55:58.000Z</Time>
            <Position>
              <LatitudeDegrees>41.539475284516811370849609375</LatitudeDegrees>
              <LongitudeDegrees>-4.5936566032469272613525390625</LongitudeDegrees>
            </Position>
            <AltitudeMeters>1205.199951171875</AltitudeMeters>
            <DistanceMeters>5428.0845328952</DistanceMeters>
          </Trackpoint>
          <Trackpoint>
            <Time>2023-02-23T09:55:59.000Z</Time>
            <Position>
              <LatitudeDegrees>41.53945751488208770751953125</LatitudeDegrees>
              <LongitudeDegrees>-4.59371921606361865997314453125</LongitudeDegrees>
            </Position>
            <AltitudeMeters>1205.199951171875</AltitudeMeters>
            <DistanceMeters>5433.6628519454</DistanceMeters>
          </Trackpoint>
          <Trackpoint>
            <Time>2023-02-23T09:56:01.000Z</Time>
            <Position>
              <LatitudeDegrees>41.539421975612640380859375</LatitudeDegrees>
              <LongitudeDegrees>-4.59384477697312831878662109375</LongitudeDegrees>
            </Position>
            <AltitudeMeters>1204.800048828125</AltitudeMeters>
            <DistanceMeters>5444.8461680345</DistanceMeters>
          </Trackpoint>
          <Trackpoint>
            <Time>2023-02-23T09:56:03.000Z</Time>
            <Position>
              <LatitudeDegrees>41.53937679715454578399658203125</LatitudeDegrees>
              <LongitudeDegrees>-4.5939583517611026763916015625</LongitudeDegrees>
            </Position>
            <AltitudeMeters>1204.4000244140625</AltitudeMeters>
            <DistanceMeters>5455.5610358315</DistanceMeters>
          </Trackpoint>
          <Trackpoint>
            <Time>2023-02-23T09:56:06.000Z</Time>
            <Position>
              <LatitudeDegrees>41.53928476385772228240966796875</LatitudeDegrees>
              <LongitudeDegrees>-4.5941142551600933074951171875</LongitudeDegrees>
            </Position>
            <AltitudeMeters>1204.4000244140625</AltitudeMeters>
            <DistanceMeters>5472.1027823054</DistanceMeters>
          </Trackpoint>
          <Trackpoint>
            <Time>2023-02-23T09:56:10.000Z</Time>
            <Position>
              <LatitudeDegrees>41.53912953101098537445068359375</LatitudeDegrees>
              <LongitudeDegrees>-4.59430041722953319549560546875</LongitudeDegrees>
            </Position>
            <AltitudeMeters>1204</AltitudeMeters>
            <DistanceMeters>5495.3204360068</DistanceMeters>
          </Trackpoint>
          <Trackpoint>
            <Time>2023-02-23T09:56:13.000Z</Time>
            <Position>
              <LatitudeDegrees>41.53901360929012298583984375</LatitudeDegrees>
              <LongitudeDegrees>-4.59443821571767330169677734375</LongitudeDegrees>
            </Position>
            <AltitudeMeters>1203.800048828125</AltitudeMeters>
            <DistanceMeters>5512.5907407217</DistanceMeters>
          </Trackpoint>
          <Trackpoint>
            <Time>2023-02-23T09:56:14.000Z</Time>
            <Position>
              <LatitudeDegrees>41.538970358669757843017578125</LatitudeDegrees>
              <LongitudeDegrees>-4.5944830588996410369873046875</LongitudeDegrees>
            </Position>
            <AltitudeMeters>1203.5999755859375</AltitudeMeters>
            <DistanceMeters>5518.6843172033</DistanceMeters>
          </Trackpoint>
          <Trackpoint>
            <Time>2023-02-23T09:56:19.000Z</Time>
            <Position>
              <LatitudeDegrees>41.53877229429781436920166015625</LatitudeDegrees>
              <LongitudeDegrees>-4.59469872526824474334716796875</LongitudeDegrees>
            </Position>
            <AltitudeMeters>1203</AltitudeMeters>
            <DistanceMeters>5547.1238299792</DistanceMeters>
          </Trackpoint>
          <Trackpoint>
            <Time>2023-02-23T09:56:20.000Z</Time>
            <Position>
              <LatitudeDegrees>41.53873122297227382659912109375</LatitudeDegrees>
              <LongitudeDegrees>-4.59474415518343448638916015625</LongitudeDegrees>
            </Position>
            <AltitudeMeters>1203</AltitudeMeters>
            <DistanceMeters>5553.0582463896</DistanceMeters>
          </Trackpoint>
          <Trackpoint>
            <Time>2023-02-23T09:56:24.000Z</Time>
            <Position>
              <LatitudeDegrees>41.53854958713054656982421875</LatitudeDegrees>
              <LongitudeDegrees>-4.5948961190879344940185546875</LongitudeDegrees>
            </Position>
            <AltitudeMeters>1203</AltitudeMeters>
            <DistanceMeters>5576.9116553018</DistanceMeters>
          </Trackpoint>
          <Trackpoint>
            <Time>2023-02-23T09:56:26.000Z</Time>
            <Position>
              <LatitudeDegrees>41.53845428489148616790771484375</LatitudeDegrees>
              <LongitudeDegrees>-4.59495085291564464569091796875</LongitudeDegrees>
            </Position>
            <AltitudeMeters>1203</AltitudeMeters>
            <DistanceMeters>5588.4580854263</DistanceMeters>
          </Trackpoint>
          <Trackpoint>
            <Time>2023-02-23T09:56:28.000Z</Time>
            <Position>
              <LatitudeDegrees>41.53835537843406200408935546875</LatitudeDegrees>
              <LongitudeDegrees>-4.5950138010084629058837890625</LongitudeDegrees>
            </Position>
            <AltitudeMeters>1203</AltitudeMeters>
            <DistanceMeters>5600.6519051201</DistanceMeters>
          </Trackpoint>
          <Trackpoint>
            <Time>2023-02-23T09:56:31.000Z</Time>
            <Position>
              <LatitudeDegrees>41.5382198430597782135009765625</LatitudeDegrees>
              <LongitudeDegrees>-4.59514212794601917266845703125</LongitudeDegrees>
            </Position>
            <AltitudeMeters>1203</AltitudeMeters>
            <DistanceMeters>5619.1416229138</DistanceMeters>
          </Trackpoint>
          <Trackpoint>
            <Time>2023-02-23T09:56:32.000Z</Time>
            <Position>
              <LatitudeDegrees>41.5381809510290622711181640625</LatitudeDegrees>
              <LongitudeDegrees>-4.5951874740421772003173828125</LongitudeDegrees>
            </Position>
            <AltitudeMeters>1203</AltitudeMeters>
            <DistanceMeters>5624.8874004486</DistanceMeters>
          </Trackpoint>
          <Trackpoint>
            <Time>2023-02-23T09:56:38.000Z</Time>
            <Position>
              <LatitudeDegrees>41.53796561993658542633056640625</LatitudeDegrees>
              <LongitudeDegrees>-4.5954815112054347991943359375</LongitudeDegrees>
            </Position>
            <AltitudeMeters>1202.5999755859375</AltitudeMeters>
            <DistanceMeters>5659.1582023448</DistanceMeters>
          </Trackpoint>
          <Trackpoint>
            <Time>2023-02-23T09:56:45.000Z</Time>
            <Position>
              <LatitudeDegrees>41.5377343632280826568603515625</LatitudeDegrees>
              <LongitudeDegrees>-4.59591996856033802032470703125</LongitudeDegrees>
            </Position>
            <AltitudeMeters>1202</AltitudeMeters>
            <DistanceMeters>5703.8444074239</DistanceMeters>
          </Trackpoint>
          <Trackpoint>
            <Time>2023-02-23T09:56:46.000Z</Time>
            <Position>
              <LatitudeDegrees>41.5376974828541278839111328125</LatitudeDegrees>
              <LongitudeDegrees>-4.5959787257015705108642578125</LongitudeDegrees>
            </Position>
            <AltitudeMeters>1201.5999755859375</AltitudeMeters>
            <DistanceMeters>5710.2324364979</DistanceMeters>
          </Trackpoint>
          <Trackpoint>
            <Time>2023-02-23T09:56:50.000Z</Time>
            <Position>
              <LatitudeDegrees>41.537550799548625946044921875</LatitudeDegrees>
              <LongitudeDegrees>-4.5962006784975528717041015625</LongitudeDegrees>
            </Position>
            <AltitudeMeters>1201.4000244140625</AltitudeMeters>
            <DistanceMeters>5734.89969498</DistanceMeters>
          </Trackpoint>
          <Trackpoint>
            <Time>2023-02-23T09:56:52.000Z</Time>
            <Position>
              <LatitudeDegrees>41.5374802239239215850830078125</LatitudeDegrees>
              <LongitudeDegrees>-4.59632095880806446075439453125</LongitudeDegrees>
            </Position>
            <AltitudeMeters>1201.4000244140625</AltitudeMeters>
            <DistanceMeters>5747.6325655312</DistanceMeters>
          </Trackpoint>
          <Trackpoint>
            <Time>2023-02-23T09:56:54.000Z</Time>
            <Position>
              <LatitudeDegrees>41.537430100142955780029296875</LatitudeDegrees>
              <LongitudeDegrees>-4.59645154885947704315185546875</LongitudeDegrees>
            </Position>
            <AltitudeMeters>1201.4000244140625</AltitudeMeters>
            <DistanceMeters>5759.8589258013</DistanceMeters>
          </Trackpoint>
          <Trackpoint>
            <Time>2023-02-23T09:56:55.000Z</Time>
            <Position>
              <LatitudeDegrees>41.537409983575344085693359375</LatitudeDegrees>
              <LongitudeDegrees>-4.596517346799373626708984375</LongitudeDegrees>
            </Position>
            <AltitudeMeters>1201.4000244140625</AltitudeMeters>
            <DistanceMeters>5765.7803941016</DistanceMeters>
          </Trackpoint>
          <Trackpoint>
            <Time>2023-02-23T09:56:56.000Z</Time>
            <Position>
              <LatitudeDegrees>41.53739548288285732269287109375</LatitudeDegrees>
              <LongitudeDegrees>-4.596584737300872802734375</LongitudeDegrees>
            </Position>
            <AltitudeMeters>1201.4000244140625</AltitudeMeters>
            <DistanceMeters>5771.6220256273</DistanceMeters>
          </Trackpoint>
          <Trackpoint>
            <Time>2023-02-23T09:57:00.000Z</Time>
            <Position>
              <LatitudeDegrees>41.53733245097100734710693359375</LatitudeDegrees>
              <LongitudeDegrees>-4.5968413911759853363037109375</LongitudeDegrees>
            </Position>
            <AltitudeMeters>1201.4000244140625</AltitudeMeters>
            <DistanceMeters>5794.1259085618</DistanceMeters>
          </Trackpoint>
          <Trackpoint>
            <Time>2023-02-23T09:57:03.000Z</Time>
            <Position>
              <LatitudeDegrees>41.53726120479404926300048828125</LatitudeDegrees>
              <LongitudeDegrees>-4.59701229818165302276611328125</LongitudeDegrees>
            </Position>
            <AltitudeMeters>1200.800048828125</AltitudeMeters>
            <DistanceMeters>5810.4234748992</DistanceMeters>
          </Trackpoint>
          <Trackpoint>
            <Time>2023-02-23T09:57:06.000Z</Time>
            <Position>
              <LatitudeDegrees>41.53717855922877788543701171875</LatitudeDegrees>
              <LongitudeDegrees>-4.59713115356862545013427734375</LongitudeDegrees>
            </Position>
            <AltitudeMeters>1200.5999755859375</AltitudeMeters>
            <DistanceMeters>5823.9386658453</DistanceMeters>
          </Trackpoint>
          <Trackpoint>
            <Time>2023-02-23T09:57:07.000Z</Time>
            <Position>
              <LatitudeDegrees>41.53714519925415515899658203125</LatitudeDegrees>
              <LongitudeDegrees>-4.59716686047613620758056640625</LongitudeDegrees>
            </Position>
            <AltitudeMeters>1200.5999755859375</AltitudeMeters>
            <DistanceMeters>5828.696648784</DistanceMeters>
          </Trackpoint>
          <Trackpoint>
            <Time>2023-02-23T09:57:10.000Z</Time>
            <Position>
              <LatitudeDegrees>41.53703707270324230194091796875</LatitudeDegrees>
              <LongitudeDegrees>-4.59728286601603031158447265625</LongitudeDegrees>
            </Position>
            <AltitudeMeters>1201</AltitudeMeters>
            <DistanceMeters>5844.1316903071</DistanceMeters>
          </Trackpoint>
          <Trackpoint>
            <Time>2023-02-23T09:57:11.000Z</Time>
            <Position>
              <LatitudeDegrees>41.53699432499706745147705078125</LatitudeDegrees>
              <LongitudeDegrees>-4.5973198302090167999267578125</LongitudeDegrees>
            </Position>
            <AltitudeMeters>1201</AltitudeMeters>
            <DistanceMeters>5849.79834292</DistanceMeters>
          </Trackpoint>
          <Trackpoint>
            <Time>2023-02-23T09:57:14.000Z</Time>
            <Position>
              <LatitudeDegrees>41.53689910657703876495361328125</LatitudeDegrees>
              <LongitudeDegrees>-4.59733416326344013214111328125</LongitudeDegrees>
            </Position>
            <AltitudeMeters>1201.199951171875</AltitudeMeters>
            <DistanceMeters>5860.463371888</DistanceMeters>
          </Trackpoint>
          <Trackpoint>
            <Time>2023-02-23T09:57:15.000Z</Time>
            <Position>
              <LatitudeDegrees>41.5368797443807125091552734375</LatitudeDegrees>
              <LongitudeDegrees>-4.59731605835258960723876953125</LongitudeDegrees>
            </Position>
            <AltitudeMeters>1201</AltitudeMeters>
            <DistanceMeters>5863.0951143967</DistanceMeters>
          </Trackpoint>
          <Trackpoint>
            <Time>2023-02-23T09:57:20.000Z</Time>
            <Position>
              <LatitudeDegrees>41.53679584152996540069580078125</LatitudeDegrees>
              <LongitudeDegrees>-4.59714255295693874359130859375</LongitudeDegrees>
            </Position>
            <AltitudeMeters>1201.199951171875</AltitudeMeters>
            <DistanceMeters>5880.3046596321</DistanceMeters>
          </Trackpoint>
          <Trackpoint>
            <Time>2023-02-23T09:57:22.000Z</Time>
            <Position>
              <LatitudeDegrees>41.53675795532763004302978515625</LatitudeDegrees>
              <LongitudeDegrees>-4.59706007502973079681396484375</LongitudeDegrees>
            </Position>
            <AltitudeMeters>1201.4000244140625</AltitudeMeters>
            <DistanceMeters>5888.3668237488</DistanceMeters>
          </Trackpoint>
          <Trackpoint>
            <Time>2023-02-23T09:57:25.000Z</Time>
            <Position>
              <LatitudeDegrees>41.53670095838606357574462890625</LatitudeDegrees>
              <LongitudeDegrees>-4.596951194107532501220703125</LongitudeDegrees>
            </Position>
            <AltitudeMeters>1201.5999755859375</AltitudeMeters>
            <DistanceMeters>5899.4365182949</DistanceMeters>
          </Trackpoint>
          <Trackpoint>
            <Time>2023-02-23T09:57:27.000Z</Time>
            <Position>
              <LatitudeDegrees>41.53666608966886997222900390625</LatitudeDegrees>
              <LongitudeDegrees>-4.59687718190252780914306640625</LongitudeDegrees>
            </Position>
            <AltitudeMeters>1201.5999755859375</AltitudeMeters>
            <DistanceMeters>5906.7220374485</DistanceMeters>
          </Trackpoint>
          <Trackpoint>
            <Time>2023-02-23T09:57:28.000Z</Time>
            <Position>
              <LatitudeDegrees>41.53664647601544857025146484375</LatitudeDegrees>
              <LongitudeDegrees>-4.59683887660503387451171875</LongitudeDegrees>
            </Position>
            <AltitudeMeters>1201.800048828125</AltitudeMeters>
            <DistanceMeters>5910.5890526529</DistanceMeters>
          </Trackpoint>
          <Trackpoint>
            <Time>2023-02-23T09:57:29.000Z</Time>
            <Position>
              <LatitudeDegrees>41.53662485070526599884033203125</LatitudeDegrees>
              <LongitudeDegrees>-4.59679788909852504730224609375</LongitudeDegrees>
            </Position>
            <AltitudeMeters>1202</AltitudeMeters>
            <DistanceMeters>5914.7659064557</DistanceMeters>
          </Trackpoint>
          <Trackpoint>
            <Time>2023-02-23T09:57:31.000Z</Time>
            <Position>
              <LatitudeDegrees>41.53658461757004261016845703125</LatitudeDegrees>
              <LongitudeDegrees>-4.596722535789012908935546875</LongitudeDegrees>
            </Position>
            <AltitudeMeters>1202</AltitudeMeters>
            <DistanceMeters>5922.4771355006</DistanceMeters>
          </Trackpoint>
          <Trackpoint>
            <Time>2023-02-23T09:57:34.000Z</Time>
            <Position>
              <LatitudeDegrees>41.53653315268456935882568359375</LatitudeDegrees>
              <LongitudeDegrees>-4.5965852402150630950927734375</LongitudeDegrees>
            </Position>
            <AltitudeMeters>1202</AltitudeMeters>
            <DistanceMeters>5935.2697925895</DistanceMeters>
          </Trackpoint>
          <Trackpoint>
            <Time>2023-02-23T09:57:38.000Z</Time>
            <Position>
              <LatitudeDegrees>41.53646106831729412078857421875</LatitudeDegrees>
              <LongitudeDegrees>-4.59640444256365299224853515625</LongitudeDegrees>
            </Position>
            <AltitudeMeters>1202.4000244140625</AltitudeMeters>
            <DistanceMeters>5952.3362836085</DistanceMeters>
          </Trackpoint>
          <Trackpoint>
            <Time>2023-02-23T09:57:40.000Z</Time>
            <Position>
              <LatitudeDegrees>41.5364220924675464630126953125</LatitudeDegrees>
              <LongitudeDegrees>-4.59631643258035182952880859375</LongitudeDegrees>
            </Position>
            <AltitudeMeters>1202.800048828125</AltitudeMeters>
            <DistanceMeters>5960.8558936029</DistanceMeters>
          </Trackpoint>
          <Trackpoint>
            <Time>2023-02-23T09:57:41.000Z</Time>
            <Position>
              <LatitudeDegrees>41.53640440665185451507568359375</LatitudeDegrees>
              <LongitudeDegrees>-4.5962749421596527099609375</LongitudeDegrees>
            </Position>
            <AltitudeMeters>1203</AltitudeMeters>
            <DistanceMeters>5964.8334171955</DistanceMeters>
          </Trackpoint>
          <Trackpoint>
            <Time>2023-02-23T09:57:43.000Z</Time>
            <Position>
              <LatitudeDegrees>41.53636685572564601898193359375</LatitudeDegrees>
              <LongitudeDegrees>-4.59619170986115932464599609375</LongitudeDegrees>
            </Position>
            <AltitudeMeters>1203.4000244140625</AltitudeMeters>
            <DistanceMeters>5972.9302286039</DistanceMeters>
          </Trackpoint>
          <Trackpoint>
            <Time>2023-02-23T09:57:49.000Z</Time>
            <Position>
              <LatitudeDegrees>41.53622277081012725830078125</LatitudeDegrees>
              <LongitudeDegrees>-4.59594310261309146881103515625</LongitudeDegrees>
            </Position>
            <AltitudeMeters>1204</AltitudeMeters>
            <DistanceMeters>5999.125217606</DistanceMeters>
          </Trackpoint>
          <Trackpoint>
            <Time>2023-02-23T09:57:52.000Z</Time>
            <Position>
              <LatitudeDegrees>41.5361590683460235595703125</LatitudeDegrees>
              <LongitudeDegrees>-4.5958003588020801544189453125</LongitudeDegrees>
            </Position>
            <AltitudeMeters>1203.4000244140625</AltitudeMeters>
            <DistanceMeters>6012.9704500979</DistanceMeters>
          </Trackpoint>
          <Trackpoint>
            <Time>2023-02-23T09:57:53.000Z</Time>
            <Position>
              <LatitudeDegrees>41.53614004142582416534423828125</LatitudeDegrees>
              <LongitudeDegrees>-4.5957537554204463958740234375</LongitudeDegrees>
            </Position>
            <AltitudeMeters>1203.199951171875</AltitudeMeters>
            <DistanceMeters>6017.3940431684</DistanceMeters>
          </Trackpoint>
          <Trackpoint>
            <Time>2023-02-23T09:57:56.000Z</Time>
            <Position>
              <LatitudeDegrees>41.5360851399600505828857421875</LatitudeDegrees>
              <LongitudeDegrees>-4.5956240035593509674072265625</LongitudeDegrees>
            </Position>
            <AltitudeMeters>1203.199951171875</AltitudeMeters>
            <DistanceMeters>6029.8116752034</DistanceMeters>
          </Trackpoint>
          <Trackpoint>
            <Time>2023-02-23T09:58:01.000Z</Time>
            <Position>
              <LatitudeDegrees>41.53598229400813579559326171875</LatitudeDegrees>
              <LongitudeDegrees>-4.59540900774300098419189453125</LongitudeDegrees>
            </Position>
            <AltitudeMeters>1203.4000244140625</AltitudeMeters>
            <DistanceMeters>6051.0687922529</DistanceMeters>
          </Trackpoint>
          <Trackpoint>
            <Time>2023-02-23T09:58:03.000Z</Time>
            <Position>
              <LatitudeDegrees>41.53594382107257843017578125</LatitudeDegrees>
              <LongitudeDegrees>-4.59532284177839756011962890625</LongitudeDegrees>
            </Position>
            <AltitudeMeters>1203.4000244140625</AltitudeMeters>
            <DistanceMeters>6059.4279029427</DistanceMeters>
          </Trackpoint>
          <Trackpoint>
            <Time>2023-02-23T09:58:07.000Z</Time>
            <Position>
              <LatitudeDegrees>41.535864360630512237548828125</LatitudeDegrees>
              <LongitudeDegrees>-4.5951455645263195037841796875</LongitudeDegrees>
            </Position>
            <AltitudeMeters>1203.4000244140625</AltitudeMeters>
            <DistanceMeters>6076.6426945109</DistanceMeters>
          </Trackpoint>
          <Trackpoint>
            <Time>2023-02-23T09:58:09.000Z</Time>
            <Position>
              <LatitudeDegrees>41.53582789935171604156494140625</LatitudeDegrees>
              <LongitudeDegrees>-4.595058895647525787353515625</LongitudeDegrees>
            </Position>
            <AltitudeMeters>1204</AltitudeMeters>
            <DistanceMeters>6084.9258413055</DistanceMeters>
          </Trackpoint>
          <Trackpoint>
            <Time>2023-02-23T09:58:12.000Z</Time>
            <Position>
              <LatitudeDegrees>41.53577861376106739044189453125</LatitudeDegrees>
              <LongitudeDegrees>-4.59491975605487823486328125</LongitudeDegrees>
            </Position>
            <AltitudeMeters>1203.800048828125</AltitudeMeters>
            <DistanceMeters>6097.7505757024</DistanceMeters>
          </Trackpoint>
          <Trackpoint>
            <Time>2023-02-23T09:58:13.000Z</Time>
            <Position>
              <LatitudeDegrees>41.53575749136507511138916015625</LatitudeDegrees>
              <LongitudeDegrees>-4.5948743261396884918212890625</LongitudeDegrees>
            </Position>
            <AltitudeMeters>1203.800048828125</AltitudeMeters>
            <DistanceMeters>6102.2056972522</DistanceMeters>
          </Trackpoint>
          <Trackpoint>
            <Time>2023-02-23T09:58:16.000Z</Time>
            <Position>
              <LatitudeDegrees>41.5356921963393688201904296875</LatitudeDegrees>
              <LongitudeDegrees>-4.59474381990730762481689453125</LongitudeDegrees>
            </Position>
            <AltitudeMeters>1203.800048828125</AltitudeMeters>
            <DistanceMeters>6115.2835276476</DistanceMeters>
          </Trackpoint>
          <Trackpoint>
            <Time>2023-02-23T09:58:17.000Z</Time>
            <Position>
              <LatitudeDegrees>41.53567199595272541046142578125</LatitudeDegrees>
              <LongitudeDegrees>-4.59469922818243503570556640625</LongitudeDegrees>
            </Position>
            <AltitudeMeters>1203.800048828125</AltitudeMeters>
            <DistanceMeters>6119.6267786985</DistanceMeters>
          </Trackpoint>
          <Trackpoint>
            <Time>2023-02-23T09:58:18.000Z</Time>
            <Position>
              <LatitudeDegrees>41.53565305285155773162841796875</LatitudeDegrees>
              <LongitudeDegrees>-4.5946537144482135772705078125</LongitudeDegrees>
            </Position>
            <AltitudeMeters>1203.800048828125</AltitudeMeters>
            <DistanceMeters>6123.9658695463</DistanceMeters>
          </Trackpoint>
          <Trackpoint>
            <Time>2023-02-23T09:58:22.000Z</Time>
            <Position>
              <LatitudeDegrees>41.5355768613517284393310546875</LatitudeDegrees>
              <LongitudeDegrees>-4.59447392262518405914306640625</LongitudeDegrees>
            </Position>
            <AltitudeMeters>1204.199951171875</AltitudeMeters>
            <DistanceMeters>6141.1790873826</DistanceMeters>
          </Trackpoint>
          <Trackpoint>
            <Time>2023-02-23T09:58:27.000Z</Time>
            <Position>
              <LatitudeDegrees>41.535461358726024627685546875</LatitudeDegrees>
              <LongitudeDegrees>-4.59427610971033573150634765625</LongitudeDegrees>
            </Position>
            <AltitudeMeters>1204.5999755859375</AltitudeMeters>
            <DistanceMeters>6162.081076726</DistanceMeters>
          </Trackpoint>
          <Trackpoint>
            <Time>2023-02-23T09:58:30.000Z</Time>
            <Position>
              <LatitudeDegrees>41.5353834070265293121337890625</LatitudeDegrees>
              <LongitudeDegrees>-4.59418105892837047576904296875</LongitudeDegrees>
            </Position>
            <AltitudeMeters>1205.199951171875</AltitudeMeters>
            <DistanceMeters>6173.8283159002</DistanceMeters>
          </Trackpoint>
          <Trackpoint>
            <Time>2023-02-23T09:58:34.000Z</Time>
            <Position>
              <LatitudeDegrees>41.53528559021651744842529296875</LatitudeDegrees>
              <LongitudeDegrees>-4.59404359571635723114013671875</LongitudeDegrees>
            </Position>
            <AltitudeMeters>1205</AltitudeMeters>
            <DistanceMeters>6189.6302041997</DistanceMeters>
          </Trackpoint>
          <Trackpoint>
            <Time>2023-02-23T09:58:38.000Z</Time>
            <Position>
              <LatitudeDegrees>41.5352590195834636688232421875</LatitudeDegrees>
              <LongitudeDegrees>-4.5938634686172008514404296875</LongitudeDegrees>
            </Position>
            <AltitudeMeters>1205</AltitudeMeters>
            <DistanceMeters>6204.9262586145</DistanceMeters>
          </Trackpoint>
          <Trackpoint>
            <Time>2023-02-23T09:58:40.000Z</Time>
            <Position>
              <LatitudeDegrees>41.53525256551802158355712890625</LatitudeDegrees>
              <LongitudeDegrees>-4.59377755410969257354736328125</LongitudeDegrees>
            </Position>
            <AltitudeMeters>1205</AltitudeMeters>
            <DistanceMeters>6212.1201009884</DistanceMeters>
          </Trackpoint>
          <Trackpoint>
            <Time>2023-02-23T09:58:47.000Z</Time>
            <Position>
              <LatitudeDegrees>41.53525181114673614501953125</LatitudeDegrees>
              <LongitudeDegrees>-4.59355291910469532012939453125</LongitudeDegrees>
            </Position>
            <AltitudeMeters>1205.4000244140625</AltitudeMeters>
            <DistanceMeters>6230.8357806518</DistanceMeters>
          </Trackpoint>
          <Trackpoint>
            <Time>2023-02-23T09:58:50.000Z</Time>
            <Position>
              <LatitudeDegrees>41.53523613698780536651611328125</LatitudeDegrees>
              <LongitudeDegrees>-4.59346088580787181854248046875</LongitudeDegrees>
            </Position>
            <AltitudeMeters>1205.800048828125</AltitudeMeters>
            <DistanceMeters>6238.6994924654</DistanceMeters>
          </Trackpoint>
          <Trackpoint>
            <Time>2023-02-23T09:58:53.000Z</Time>
            <Position>
              <LatitudeDegrees>41.535231359302997589111328125</LatitudeDegrees>
              <LongitudeDegrees>-4.5933635719120502471923828125</LongitudeDegrees>
            </Position>
            <AltitudeMeters>1206</AltitudeMeters>
            <DistanceMeters>6246.8246933172</DistanceMeters>
          </Trackpoint>
          <Trackpoint>
            <Time>2023-02-23T09:58:54.000Z</Time>
            <Position>
              <LatitudeDegrees>41.53522968292236328125</LatitudeDegrees>
              <LongitudeDegrees>-4.593334905803203582763671875</LongitudeDegrees>
            </Position>
            <AltitudeMeters>1206.199951171875</AltitudeMeters>
            <DistanceMeters>6249.2192911001</DistanceMeters>
          </Trackpoint>
          <Trackpoint>
            <Time>2023-02-23T09:58:58.000Z</Time>
            <Position>
              <LatitudeDegrees>41.53520755469799041748046875</LatitudeDegrees>
              <LongitudeDegrees>-4.5932026393711566925048828125</LongitudeDegrees>
            </Position>
            <AltitudeMeters>1206.199951171875</AltitudeMeters>
            <DistanceMeters>6260.5110880957</DistanceMeters>
          </Trackpoint>
          <Trackpoint>
            <Time>2023-02-23T09:58:59.000Z</Time>
            <Position>
              <LatitudeDegrees>41.5352015197277069091796875</LatitudeDegrees>
              <LongitudeDegrees>-4.59316156804561614990234375</LongitudeDegrees>
            </Position>
            <AltitudeMeters>1206.199951171875</AltitudeMeters>
            <DistanceMeters>6263.9974160914</DistanceMeters>
          </Trackpoint>
          <Trackpoint>
            <Time>2023-02-23T09:59:01.000Z</Time>
            <Position>
              <LatitudeDegrees>41.535186432301998138427734375</LatitudeDegrees>
              <LongitudeDegrees>-4.59309476427733898162841796875</LongitudeDegrees>
            </Position>
            <AltitudeMeters>1206.4000244140625</AltitudeMeters>
            <DistanceMeters>6269.8103797119</DistanceMeters>
          </Trackpoint>
          <Trackpoint>
            <Time>2023-02-23T09:59:02.000Z</Time>
            <Position>
              <LatitudeDegrees>41.53518500737845897674560546875</LatitudeDegrees>
              <LongitudeDegrees>-4.59306073375046253204345703125</LongitudeDegrees>
            </Position>
            <AltitudeMeters>1206.5999755859375</AltitudeMeters>
            <DistanceMeters>6272.6500730517</DistanceMeters>
          </Trackpoint>
          <Trackpoint>
            <Time>2023-02-23T09:59:04.000Z</Time>
            <Position>
              <LatitudeDegrees>41.53518073260784149169921875</LatitudeDegrees>
              <LongitudeDegrees>-4.593009687960147857666015625</LongitudeDegrees>
            </Position>
            <AltitudeMeters>1206.800048828125</AltitudeMeters>
            <DistanceMeters>6276.9294415832</DistanceMeters>
          </Trackpoint>
          <Trackpoint>
            <Time>2023-02-23T09:59:07.000Z</Time>
            <Position>
              <LatitudeDegrees>41.5351715125143527984619140625</LatitudeDegrees>
              <LongitudeDegrees>-4.59291103295981884002685546875</LongitudeDegrees>
            </Position>
            <AltitudeMeters>1207.199951171875</AltitudeMeters>
            <DistanceMeters>6285.2125883778</DistanceMeters>
          </Trackpoint>
          <Trackpoint>
            <Time>2023-02-23T09:59:11.000Z</Time>
            <Position>
              <LatitudeDegrees>41.53511895798146724700927734375</LatitudeDegrees>
              <LongitudeDegrees>-4.59274984896183013916015625</LongitudeDegrees>
            </Position>
            <AltitudeMeters>1207.4000244140625</AltitudeMeters>
            <DistanceMeters>6299.8602713451</DistanceMeters>
          </Trackpoint>
          <Trackpoint>
            <Time>2023-02-23T09:59:16.000Z</Time>
            <Position>
              <LatitudeDegrees>41.53510470874607563018798828125</LatitudeDegrees>
              <LongitudeDegrees>-4.59254055283963680267333984375</LongitudeDegrees>
            </Position>
            <AltitudeMeters>1207.800048828125</AltitudeMeters>
            <DistanceMeters>6317.3699588187</DistanceMeters>
          </Trackpoint>
          <Trackpoint>
            <Time>2023-02-23T09:59:17.000Z</Time>
            <Position>
              <LatitudeDegrees>41.535103283822536468505859375</LatitudeDegrees>
              <LongitudeDegrees>-4.5924935303628444671630859375</LongitudeDegrees>
            </Position>
            <AltitudeMeters>1207.800048828125</AltitudeMeters>
            <DistanceMeters>6321.2903146837</DistanceMeters>
          </Trackpoint>
          <Trackpoint>
            <Time>2023-02-23T09:59:19.000Z</Time>
            <Position>
              <LatitudeDegrees>41.535101942718029022216796875</LatitudeDegrees>
              <LongitudeDegrees>-4.592421613633632659912109375</LongitudeDegrees>
            </Position>
            <AltitudeMeters>1207.800048828125</AltitudeMeters>
            <DistanceMeters>6327.2845347472</DistanceMeters>
          </Trackpoint>
          <Trackpoint>
            <Time>2023-02-23T09:59:24.000Z</Time>
            <Position>
              <LatitudeDegrees>41.535061709582805633544921875</LatitudeDegrees>
              <LongitudeDegrees>-4.5921609364449977874755859375</LongitudeDegrees>
            </Position>
            <AltitudeMeters>1208</AltitudeMeters>
            <DistanceMeters>6349.4597876845</DistanceMeters>
          </Trackpoint>
          <Trackpoint>
            <Time>2023-02-23T09:59:25.000Z</Time>
            <Position>
              <LatitudeDegrees>41.5350501425564289093017578125</LatitudeDegrees>
              <LongitudeDegrees>-4.59210234694182872772216796875</LongitudeDegrees>
            </Position>
            <AltitudeMeters>1208.199951171875</AltitudeMeters>
            <DistanceMeters>6354.508738645</DistanceMeters>
          </Trackpoint>
          <Trackpoint>
            <Time>2023-02-23T09:59:32.000Z</Time>
            <Position>
              <LatitudeDegrees>41.53500529937446117401123046875</LatitudeDegrees>
              <LongitudeDegrees>-4.59181669168174266815185546875</LongitudeDegrees>
            </Position>
            <AltitudeMeters>1208.800048828125</AltitudeMeters>
            <DistanceMeters>6378.8259244578</DistanceMeters>
          </Trackpoint>
          <Trackpoint>
            <Time>2023-02-23T09:59:40.000Z</Time>
            <Position>
              <LatitudeDegrees>41.534959785640239715576171875</LatitudeDegrees>
              <LongitudeDegrees>-4.59151829592883586883544921875</LongitudeDegrees>
            </Position>
            <AltitudeMeters>1208.4000244140625</AltitudeMeters>
            <DistanceMeters>6404.1978792414</DistanceMeters>
          </Trackpoint>
          <Trackpoint>
            <Time>2023-02-23T09:59:41.000Z</Time>
            <Position>
              <LatitudeDegrees>41.53495098464190959930419921875</LatitudeDegrees>
              <LongitudeDegrees>-4.591483175754547119140625</LongitudeDegrees>
            </Position>
            <AltitudeMeters>1208.5999755859375</AltitudeMeters>
            <DistanceMeters>6407.2844194806</DistanceMeters>
          </Trackpoint>
          <Trackpoint>
            <Time>2023-02-23T09:59:43.000Z</Time>
            <Position>
              <LatitudeDegrees>41.53493371792137622833251953125</LatitudeDegrees>
              <LongitudeDegrees>-4.59141385741531848907470703125</LongitudeDegrees>
            </Position>
            <AltitudeMeters>1209.199951171875</AltitudeMeters>
            <DistanceMeters>6413.3705819475</DistanceMeters>
          </Trackpoint>
          <Trackpoint>
            <Time>2023-02-23T09:59:44.000Z</Time>
            <Position>
              <LatitudeDegrees>41.5349307842552661895751953125</LatitudeDegrees>
              <LongitudeDegrees>-4.59137479774653911590576171875</LongitudeDegrees>
            </Position>
            <AltitudeMeters>1209.199951171875</AltitudeMeters>
            <DistanceMeters>6416.6403847717</DistanceMeters>
          </Trackpoint>
          <Trackpoint>
            <Time>2023-02-23T09:59:46.000Z</Time>
            <Position>
              <LatitudeDegrees>41.53491578064858913421630859375</LatitudeDegrees>
              <LongitudeDegrees>-4.59130145609378814697265625</LongitudeDegrees>
            </Position>
            <AltitudeMeters>1209.4000244140625</AltitudeMeters>
            <DistanceMeters>6422.9751822994</DistanceMeters>
          </Trackpoint>
          <Trackpoint>
            <Time>2023-02-23T09:59:48.000Z</Time>
            <Position>
              <LatitudeDegrees>41.53490236960351467132568359375</LatitudeDegrees>
              <LongitudeDegrees>-4.5912270247936248779296875</LongitudeDegrees>
            </Position>
            <AltitudeMeters>1209.4000244140625</AltitudeMeters>
            <DistanceMeters>6429.354016398</DistanceMeters>
          </Trackpoint>
          <Trackpoint>
            <Time>2023-02-23T09:59:51.000Z</Time>
            <Position>
              <LatitudeDegrees>41.534894742071628570556640625</LatitudeDegrees>
              <LongitudeDegrees>-4.59113909862935543060302734375</LongitudeDegrees>
            </Position>
            <AltitudeMeters>1209.4000244140625</AltitudeMeters>
            <DistanceMeters>6436.7282363801</DistanceMeters>
          </Trackpoint>
          <Trackpoint>
            <Time>2023-02-23T09:59:54.000Z</Time>
            <Position>
              <LatitudeDegrees>41.534887365996837615966796875</LatitudeDegrees>
              <LongitudeDegrees>-4.5910607278347015380859375</LongitudeDegrees>
            </Position>
            <AltitudeMeters>1209.5999755859375</AltitudeMeters>
            <DistanceMeters>6443.3084504001</DistanceMeters>
          </Trackpoint>
          <Trackpoint>
            <Time>2023-02-23T09:59:57.000Z</Time>
            <Position>
              <LatitudeDegrees>41.53487185947597026824951171875</LatitudeDegrees>
              <LongitudeDegrees>-4.590965844690799713134765625</LongitudeDegrees>
            </Position>
            <AltitudeMeters>1209.5999755859375</AltitudeMeters>
            <DistanceMeters>6451.3996835706</DistanceMeters>
          </Trackpoint>
          <Trackpoint>
            <Time>2023-02-23T10:00:02.000Z</Time>
            <Position>
              <LatitudeDegrees>41.534854508936405181884765625</LatitudeDegrees>
              <LongitudeDegrees>-4.59084522910416126251220703125</LongitudeDegrees>
            </Position>
            <AltitudeMeters>1209.800048828125</AltitudeMeters>
            <DistanceMeters>6461.6326091759</DistanceMeters>
          </Trackpoint>
          <Trackpoint>
            <Time>2023-02-23T10:00:04.000Z</Time>
            <Position>
              <LatitudeDegrees>41.53485660441219806671142578125</LatitudeDegrees>
              <LongitudeDegrees>-4.590803571045398712158203125</LongitudeDegrees>
            </Position>
            <AltitudeMeters>1210</AltitudeMeters>
            <DistanceMeters>6465.1111580738</DistanceMeters>
          </Trackpoint>
          <Trackpoint>
            <Time>2023-02-23T10:00:07.000Z</Time>
            <Position>
              <LatitudeDegrees>41.53487890027463436126708984375</LatitudeDegrees>
              <LongitudeDegrees>-4.590761661529541015625</LongitudeDegrees>
            </Position>
            <AltitudeMeters>1209.800048828125</AltitudeMeters>
            <DistanceMeters>6469.3947448108</DistanceMeters>
          </Trackpoint>
          <Trackpoint>
            <Time>2023-02-23T10:00:12.000Z</Time>
            <Position>
              <LatitudeDegrees>41.53486984781920909881591796875</LatitudeDegrees>
              <LongitudeDegrees>-4.59079611115157604217529296875</LongitudeDegrees>
            </Position>
            <AltitudeMeters>1208.800048828125</AltitudeMeters>
            <DistanceMeters>6472.4355996707</DistanceMeters>
          </Trackpoint>
          <Trackpoint>
            <Time>2023-02-23T10:00:13.000Z</Time>
            <Position>
              <LatitudeDegrees>41.534864902496337890625</LatitudeDegrees>
              <LongitudeDegrees>-4.59079929627478122711181640625</LongitudeDegrees>
            </Position>
            <AltitudeMeters>1208.800048828125</AltitudeMeters>
            <DistanceMeters>6473.0440675287</DistanceMeters>
          </Trackpoint>
          <Trackpoint>
            <Time>2023-02-23T10:00:14.000Z</Time>
            <Position>
              <LatitudeDegrees>41.53486029244959354400634765625</LatitudeDegrees>
              <LongitudeDegrees>-4.59080080501735210418701171875</LongitudeDegrees>
            </Position>
            <AltitudeMeters>1208.800048828125</AltitudeMeters>
            <DistanceMeters>6473.5731538825</DistanceMeters>
          </Trackpoint>
          <Trackpoint>
            <Time>2023-02-23T10:00:18.000Z</Time>
            <Position>
              <LatitudeDegrees>41.53484386391937732696533203125</LatitudeDegrees>
              <LongitudeDegrees>-4.590817987918853759765625</LongitudeDegrees>
            </Position>
            <AltitudeMeters>1208.800048828125</AltitudeMeters>
            <DistanceMeters>6475.8969408162</DistanceMeters>
          </Trackpoint>
          <Trackpoint>
            <Time>2023-02-23T10:00:19.000Z</Time>
            <Position>
              <LatitudeDegrees>41.53484545648097991943359375</LatitudeDegrees>
              <LongitudeDegrees>-4.59081455133855342864990234375</LongitudeDegrees>
            </Position>
            <AltitudeMeters>1208.800048828125</AltitudeMeters>
            <DistanceMeters>6476.252498224</DistanceMeters>
          </Trackpoint>
          <Trackpoint>
            <Time>2023-02-23T10:00:24.000Z</Time>
            <Position>
              <LatitudeDegrees>41.53481536544859409332275390625</LatitudeDegrees>
              <LongitudeDegrees>-4.590797536075115203857421875</LongitudeDegrees>
            </Position>
            <AltitudeMeters>1208.800048828125</AltitudeMeters>
            <DistanceMeters>6479.8884344052</DistanceMeters>
          </Trackpoint>
          <Trackpoint>
            <Time>2023-02-23T10:00:25.000Z</Time>
            <Position>
              <LatitudeDegrees>41.53481503017246723175048828125</LatitudeDegrees>
              <LongitudeDegrees>-4.59080164320766925811767578125</LongitudeDegrees>
            </Position>
            <AltitudeMeters>1208.800048828125</AltitudeMeters>
            <DistanceMeters>6480.243991813</DistanceMeters>
          </Trackpoint>
          <Trackpoint>
            <Time>2023-02-23T10:00:30.000Z</Time>
            <Position>
              <LatitudeDegrees>41.53480790555477142333984375</LatitudeDegrees>
              <LongitudeDegrees>-4.59079074673354625701904296875</LongitudeDegrees>
            </Position>
            <AltitudeMeters>1208.800048828125</AltitudeMeters>
            <DistanceMeters>6481.4534844272</DistanceMeters>
          </Trackpoint>
          <Trackpoint>
            <Time>2023-02-23T10:00:34.000Z</Time>
            <Position>
              <LatitudeDegrees>41.53483070433139801025390625</LatitudeDegrees>
              <LongitudeDegrees>-4.590778090059757232666015625</LongitudeDegrees>
            </Position>
            <AltitudeMeters>1208.800048828125</AltitudeMeters>
            <DistanceMeters>6484.2010549736</DistanceMeters>
          </Trackpoint>
          <Trackpoint>
            <Time>2023-02-23T10:00:35.000Z</Time>
            <Position>
              <LatitudeDegrees>41.5348365716636180877685546875</LatitudeDegrees>
              <LongitudeDegrees>-4.59077331237494945526123046875</LongitudeDegrees>
            </Position>
            <AltitudeMeters>1208.800048828125</AltitudeMeters>
            <DistanceMeters>6484.9612686885</DistanceMeters>
          </Trackpoint>
          <Trackpoint>
            <Time>2023-02-23T10:00:37.000Z</Time>
            <Position>
              <LatitudeDegrees>41.53485777787864208221435546875</LatitudeDegrees>
              <LongitudeDegrees>-4.590757302939891815185546875</LongitudeDegrees>
            </Position>
            <AltitudeMeters>1208.800048828125</AltitudeMeters>
            <DistanceMeters>6487.6724459652</DistanceMeters>
          </Trackpoint>
          <Trackpoint>
            <Time>2023-02-23T10:00:42.000Z</Time>
            <Position>
              <LatitudeDegrees>41.5348742902278900146484375</LatitudeDegrees>
              <LongitudeDegrees>-4.59074565209448337554931640625</LongitudeDegrees>
            </Position>
            <AltitudeMeters>1209.5999755859375</AltitudeMeters>
            <DistanceMeters>6489.7500350824</DistanceMeters>
          </Trackpoint>
          <Trackpoint>
            <Time>2023-02-23T10:00:45.000Z</Time>
            <Position>
              <LatitudeDegrees>41.534905135631561279296875</LatitudeDegrees>
              <LongitudeDegrees>-4.59074380807578563690185546875</LongitudeDegrees>
            </Position>
            <AltitudeMeters>1209.800048828125</AltitudeMeters>
            <DistanceMeters>6493.1867980927</DistanceMeters>
          </Trackpoint>
          <Trackpoint>
            <Time>2023-02-23T10:00:49.000Z</Time>
            <Position>
              <LatitudeDegrees>41.53494696132838726043701171875</LatitudeDegrees>
              <LongitudeDegrees>-4.59073148667812347412109375</LongitudeDegrees>
            </Position>
            <AltitudeMeters>1209.800048828125</AltitudeMeters>
            <DistanceMeters>6497.9552079415</DistanceMeters>
          </Trackpoint>
          <Trackpoint>
            <Time>2023-02-23T10:00:53.000Z</Time>
            <Position>
              <LatitudeDegrees>41.5349931456148624420166015625</LatitudeDegrees>
              <LongitudeDegrees>-4.5907174050807952880859375</LongitudeDegrees>
            </Position>
            <AltitudeMeters>1209.5999755859375</AltitudeMeters>
            <DistanceMeters>6503.2272640199</DistanceMeters>
          </Trackpoint>
          <Trackpoint>
            <Time>2023-02-23T10:00:55.000Z</Time>
            <Position>
              <LatitudeDegrees>41.53501351363956928253173828125</LatitudeDegrees>
              <LongitudeDegrees>-4.590707682073116302490234375</LongitudeDegrees>
            </Position>
            <AltitudeMeters>1209.4000244140625</AltitudeMeters>
            <DistanceMeters>6505.6350241984</DistanceMeters>
          </Trackpoint>
          <Trackpoint>
            <Time>2023-02-23T10:01:00.000Z</Time>
            <Position>
              <LatitudeDegrees>41.535055004060268402099609375</LatitudeDegrees>
              <LongitudeDegrees>-4.59069393575191497802734375</LongitudeDegrees>
            </Position>
            <AltitudeMeters>1209.199951171875</AltitudeMeters>
            <DistanceMeters>6510.3920581029</DistanceMeters>
          </Trackpoint>
          <Trackpoint>
            <Time>2023-02-23T10:01:03.000Z</Time>
            <Position>
              <LatitudeDegrees>41.53508744202554225921630859375</LatitudeDegrees>
              <LongitudeDegrees>-4.590696282684803009033203125</LongitudeDegrees>
            </Position>
            <AltitudeMeters>1208.800048828125</AltitudeMeters>
            <DistanceMeters>6514.0080711962</DistanceMeters>
          </Trackpoint>
          <Trackpoint>
            <Time>2023-02-23T10:01:12.000Z</Time>
            <Position>
              <LatitudeDegrees>41.53519439511001110076904296875</LatitudeDegrees>
              <LongitudeDegrees>-4.59067809395492076873779296875</LongitudeDegrees>
            </Position>
            <AltitudeMeters>1209.4000244140625</AltitudeMeters>
            <DistanceMeters>6526.0081807395</DistanceMeters>
          </Trackpoint>
          <Trackpoint>
            <Time>2023-02-23T10:01:15.000Z</Time>
            <Position>
              <LatitudeDegrees>41.53521887026727199554443359375</LatitudeDegrees>
              <LongitudeDegrees>-4.59066552110016345977783203125</LongitudeDegrees>
            </Position>
            <AltitudeMeters>1210.199951171875</AltitudeMeters>
            <DistanceMeters>6528.9262900738</DistanceMeters>
          </Trackpoint>
          <Trackpoint>
            <Time>2023-02-23T10:01:19.000Z</Time>
            <Position>
              <LatitudeDegrees>41.53524720109999179840087890625</LatitudeDegrees>
              <LongitudeDegrees>-4.59064892493188381195068359375</LongitudeDegrees>
            </Position>
            <AltitudeMeters>1210.5999755859375</AltitudeMeters>
            <DistanceMeters>6532.3683040619</DistanceMeters>
          </Trackpoint>
          <Trackpoint>
            <Time>2023-02-23T10:01:20.000Z</Time>
            <Position>
              <LatitudeDegrees>41.5352539904415607452392578125</LatitudeDegrees>
              <LongitudeDegrees>-4.59063953720033168792724609375</LongitudeDegrees>
            </Position>
            <AltitudeMeters>1210.5999755859375</AltitudeMeters>
            <DistanceMeters>6533.4600778895</DistanceMeters>
          </Trackpoint>
          <Trackpoint>
            <Time>2023-02-23T10:01:23.000Z</Time>
            <Position>
              <LatitudeDegrees>41.53527637012302875518798828125</LatitudeDegrees>
              <LongitudeDegrees>-4.5906235277652740478515625</LongitudeDegrees>
            </Position>
            <AltitudeMeters>1210.4000244140625</AltitudeMeters>
            <DistanceMeters>6536.2854252268</DistanceMeters>
          </Trackpoint>
          <Trackpoint>
            <Time>2023-02-23T10:01:25.000Z</Time>
            <Position>
              <LatitudeDegrees>41.53529766015708446502685546875</LatitudeDegrees>
              <LongitudeDegrees>-4.59061875008046627044677734375</LongitudeDegrees>
            </Position>
            <AltitudeMeters>1210.199951171875</AltitudeMeters>
            <DistanceMeters>6538.68755321</DistanceMeters>
          </Trackpoint>
          <Trackpoint>
            <Time>2023-02-23T10:01:28.000Z</Time>
            <Position>
              <LatitudeDegrees>41.5353267453610897064208984375</LatitudeDegrees>
              <LongitudeDegrees>-4.59060584194958209991455078125</LongitudeDegrees>
            </Position>
            <AltitudeMeters>1210.199951171875</AltitudeMeters>
            <DistanceMeters>6542.1005868478</DistanceMeters>
          </Trackpoint>
          <Trackpoint>
            <Time>2023-02-23T10:01:31.000Z</Time>
            <Position>
              <LatitudeDegrees>41.53535197488963603973388671875</LatitudeDegrees>
              <LongitudeDegrees>-4.59059628657996654510498046875</LongitudeDegrees>
            </Position>
            <AltitudeMeters>1210</AltitudeMeters>
            <DistanceMeters>6545.0202430199</DistanceMeters>
          </Trackpoint>
          <Trackpoint>
            <Time>2023-02-23T10:01:37.000Z</Time>
            <Position>
              <LatitudeDegrees>41.53539665043354034423828125</LatitudeDegrees>
              <LongitudeDegrees>-4.5905586518347263336181640625</LongitudeDegrees>
            </Position>
            <AltitudeMeters>1210</AltitudeMeters>
            <DistanceMeters>6550.8996250135</DistanceMeters>
          </Trackpoint>
          <Trackpoint>
            <Time>2023-02-23T10:01:42.000Z</Time>
            <Position>
              <LatitudeDegrees>41.5354323573410511016845703125</LatitudeDegrees>
              <LongitudeDegrees>-4.59055990912020206451416015625</LongitudeDegrees>
            </Position>
            <AltitudeMeters>1210.5999755859375</AltitudeMeters>
            <DistanceMeters>6554.8760133061</DistanceMeters>
          </Trackpoint>
          <Trackpoint>
            <Time>2023-02-23T10:01:43.000Z</Time>
            <Position>
              <LatitudeDegrees>41.53544115833938121795654296875</LatitudeDegrees>
              <LongitudeDegrees>-4.5905698835849761962890625</LongitudeDegrees>
            </Position>
            <AltitudeMeters>1210.5999755859375</AltitudeMeters>
            <DistanceMeters>6556.1579937712</DistanceMeters>
          </Trackpoint>
          <Trackpoint>
            <Time>2023-02-23T10:01:50.000Z</Time>
            <Position>
              <LatitudeDegrees>41.53550066985189914703369140625</LatitudeDegrees>
              <LongitudeDegrees>-4.59063626825809478759765625</LongitudeDegrees>
            </Position>
            <AltitudeMeters>1210.5999755859375</AltitudeMeters>
            <DistanceMeters>6564.7876542763</DistanceMeters>
          </Trackpoint>
          <Trackpoint>
            <Time>2023-02-23T10:01:51.000Z</Time>
            <Position>
              <LatitudeDegrees>41.535512320697307586669921875</LatitudeDegrees>
              <LongitudeDegrees>-4.59064473398029804229736328125</LongitudeDegrees>
            </Position>
            <AltitudeMeters>1210.5999755859375</AltitudeMeters>
            <DistanceMeters>6566.265923027</DistanceMeters>
          </Trackpoint>
          <Trackpoint>
            <Time>2023-02-23T10:01:53.000Z</Time>
            <Position>
              <LatitudeDegrees>41.5355341136455535888671875</LatitudeDegrees>
              <LongitudeDegrees>-4.59064875729382038116455078125</LongitudeDegrees>
            </Position>
            <AltitudeMeters>1210.5999755859375</AltitudeMeters>
            <DistanceMeters>6568.7145901662</DistanceMeters>
          </Trackpoint>
          <Trackpoint>
            <Time>2023-02-23T10:01:56.000Z</Time>
            <Position>
              <LatitudeDegrees>41.5355617739260196685791015625</LatitudeDegrees>
              <LongitudeDegrees>-4.59065663628280162811279296875</LongitudeDegrees>
            </Position>
            <AltitudeMeters>1211</AltitudeMeters>
            <DistanceMeters>6571.8619690534</DistanceMeters>
          </Trackpoint>
          <Trackpoint>
            <Time>2023-02-23T10:01:59.000Z</Time>
            <Position>
              <LatitudeDegrees>41.5355835668742656707763671875</LatitudeDegrees>
              <LongitudeDegrees>-4.59067574702203273773193359375</LongitudeDegrees>
            </Position>
            <AltitudeMeters>1211</AltitudeMeters>
            <DistanceMeters>6574.7630087369</DistanceMeters>
          </Trackpoint>
          <Trackpoint>
            <Time>2023-02-23T10:02:02.000Z</Time>
            <Position>
              <LatitudeDegrees>41.5356053598225116729736328125</LatitudeDegrees>
              <LongitudeDegrees>-4.5906873978674411773681640625</LongitudeDegrees>
            </Position>
            <AltitudeMeters>1211.4000244140625</AltitudeMeters>
            <DistanceMeters>6577.3758114068</DistanceMeters>
          </Trackpoint>
          <Trackpoint>
            <Time>2023-02-23T10:02:03.000Z</Time>
            <Position>
              <LatitudeDegrees>41.5356159210205078125</LatitudeDegrees>
              <LongitudeDegrees>-4.59068848751485347747802734375</LongitudeDegrees>
            </Position>
            <AltitudeMeters>1211.4000244140625</AltitudeMeters>
            <DistanceMeters>6578.5550619198</DistanceMeters>
          </Trackpoint>
          <Trackpoint>
            <Time>2023-02-23T10:02:07.000Z</Time>
            <Position>
              <LatitudeDegrees>41.53565858490765094757080078125</LatitudeDegrees>
              <LongitudeDegrees>-4.59071111865341663360595703125</LongitudeDegrees>
            </Position>
            <AltitudeMeters>1211.5999755859375</AltitudeMeters>
            <DistanceMeters>6583.6635764713</DistanceMeters>
          </Trackpoint>
          <Trackpoint>
            <Time>2023-02-23T10:02:09.000Z</Time>
            <Position>
              <LatitudeDegrees>41.535679288208484649658203125</LatitudeDegrees>
              <LongitudeDegrees>-4.59072587080299854278564453125</LongitudeDegrees>
            </Position>
            <AltitudeMeters>1211.4000244140625</AltitudeMeters>
            <DistanceMeters>6586.2763791412</DistanceMeters>
          </Trackpoint>
          <Trackpoint>
            <Time>2023-02-23T10:02:10.000Z</Time>
            <Position>
              <LatitudeDegrees>41.53569160960614681243896484375</LatitudeDegrees>
              <LongitudeDegrees>-4.590731151401996612548828125</LongitudeDegrees>
            </Position>
            <AltitudeMeters>1211.5999755859375</AltitudeMeters>
            <DistanceMeters>6587.711251062</DistanceMeters>
          </Trackpoint>
          <Trackpoint>
            <Time>2023-02-23T10:02:16.000Z</Time>
            <Position>
              <LatitudeDegrees>41.5357558988034725189208984375</LatitudeDegrees>
              <LongitudeDegrees>-4.59077331237494945526123046875</LongitudeDegrees>
            </Position>
            <AltitudeMeters>1211.5999755859375</AltitudeMeters>
            <DistanceMeters>6595.6821743372</DistanceMeters>
          </Trackpoint>
          <Trackpoint>
            <Time>2023-02-23T10:02:18.000Z</Time>
            <Position>
              <LatitudeDegrees>41.535778529942035675048828125</LatitudeDegrees>
              <LongitudeDegrees>-4.59078085608780384063720703125</LongitudeDegrees>
            </Position>
            <AltitudeMeters>1211.5999755859375</AltitudeMeters>
            <DistanceMeters>6598.2776390408</DistanceMeters>
          </Trackpoint>
          <Trackpoint>
            <Time>2023-02-23T10:02:21.000Z</Time>
            <Position>
              <LatitudeDegrees>41.5357880853116512298583984375</LatitudeDegrees>
              <LongitudeDegrees>-4.59077968262135982513427734375</LongitudeDegrees>
            </Position>
            <AltitudeMeters>1211.800048828125</AltitudeMeters>
            <DistanceMeters>6599.348535725</DistanceMeters>
          </Trackpoint>
          <Trackpoint>
            <Time>2023-02-23T10:02:23.000Z</Time>
            <Position>
              <LatitudeDegrees>41.53579386882483959197998046875</LatitudeDegrees>
              <LongitudeDegrees>-4.590749926865100860595703125</LongitudeDegrees>
            </Position>
            <AltitudeMeters>1212</AltitudeMeters>
            <DistanceMeters>6601.9089723086</DistanceMeters>
          </Trackpoint>
          <Trackpoint>
            <Time>2023-02-23T10:02:24.000Z</Time>
            <Position>
              <LatitudeDegrees>41.53579453937709331512451171875</LatitudeDegrees>
              <LongitudeDegrees>-4.59072838537395000457763671875</LongitudeDegrees>
            </Position>
            <AltitudeMeters>1212</AltitudeMeters>
            <DistanceMeters>6603.7044492064</DistanceMeters>
          </Trackpoint>
          <Trackpoint>
            <Time>2023-02-23T10:02:27.000Z</Time>
            <Position>
              <LatitudeDegrees>41.5358115546405315399169921875</LatitudeDegrees>
              <LongitudeDegrees>-4.590696282684803009033203125</LongitudeDegrees>
            </Position>
            <AltitudeMeters>1212</AltitudeMeters>
            <DistanceMeters>6606.9797706891</DistanceMeters>
          </Trackpoint>
          <Trackpoint>
            <Time>2023-02-23T10:02:29.000Z</Time>
            <Position>
              <LatitudeDegrees>41.5358293242752552032470703125</LatitudeDegrees>
              <LongitudeDegrees>-4.59067423827946186065673828125</LongitudeDegrees>
            </Position>
            <AltitudeMeters>1211.800048828125</AltitudeMeters>
            <DistanceMeters>6609.6775923314</DistanceMeters>
          </Trackpoint>
          <Trackpoint>
            <Time>2023-02-23T10:02:31.000Z</Time>
            <Position>
              <LatitudeDegrees>41.53583653271198272705078125</LatitudeDegrees>
              <LongitudeDegrees>-4.5906578935682773590087890625</LongitudeDegrees>
            </Position>
            <AltitudeMeters>1211.800048828125</AltitudeMeters>
            <DistanceMeters>6611.2562946778</DistanceMeters>
          </Trackpoint>
          <Trackpoint>
            <Time>2023-02-23T10:02:34.000Z</Time>
            <Position>
              <LatitudeDegrees>41.5358613431453704833984375</LatitudeDegrees>
              <LongitudeDegrees>-4.59061791189014911651611328125</LongitudeDegrees>
            </Position>
            <AltitudeMeters>1212</AltitudeMeters>
            <DistanceMeters>6615.583924346</DistanceMeters>
          </Trackpoint>
          <Trackpoint>
            <Time>2023-02-23T10:02:35.000Z</Time>
            <Position>
              <LatitudeDegrees>41.53586930595338344573974609375</LatitudeDegrees>
              <LongitudeDegrees>-4.5906035788357257843017578125</LongitudeDegrees>
            </Position>
            <AltitudeMeters>1212</AltitudeMeters>
            <DistanceMeters>6617.074360123</DistanceMeters>
          </Trackpoint>
          <Trackpoint>
            <Time>2023-02-23T10:02:40.000Z</Time>
            <Position>
              <LatitudeDegrees>41.53589696623384952545166015625</LatitudeDegrees>
              <LongitudeDegrees>-4.590549431741237640380859375</LongitudeDegrees>
            </Position>
            <AltitudeMeters>1212.199951171875</AltitudeMeters>
            <DistanceMeters>6622.5365366645</DistanceMeters>
          </Trackpoint>
          <Trackpoint>
            <Time>2023-02-23T10:02:41.000Z</Time>
            <Position>
              <LatitudeDegrees>41.535906605422496795654296875</LatitudeDegrees>
              <LongitudeDegrees>-4.59054934792220592498779296875</LongitudeDegrees>
            </Position>
            <AltitudeMeters>1212.199951171875</AltitudeMeters>
            <DistanceMeters>6623.6074333488</DistanceMeters>
          </Trackpoint>
          <Trackpoint>
            <Time>2023-02-23T10:02:44.000Z</Time>
            <Position>
              <LatitudeDegrees>41.53592638671398162841796875</LatitudeDegrees>
              <LongitudeDegrees>-4.5905304886400699615478515625</LongitudeDegrees>
            </Position>
            <AltitudeMeters>1211.800048828125</AltitudeMeters>
            <DistanceMeters>6626.3119410525</DistanceMeters>
          </Trackpoint>
          <Trackpoint>
            <Time>2023-02-23T10:02:46.000Z</Time>
            <Position>
              <LatitudeDegrees>41.5359325893223285675048828125</LatitudeDegrees>
              <LongitudeDegrees>-4.5905053429305553436279296875</LongitudeDegrees>
            </Position>
            <AltitudeMeters>1210.5999755859375</AltitudeMeters>
            <DistanceMeters>6628.5160692536</DistanceMeters>
          </Trackpoint>
          <Trackpoint>
            <Time>2023-02-23T10:02:48.000Z</Time>
            <Position>
              <LatitudeDegrees>41.53593736700713634490966796875</LatitudeDegrees>
              <LongitudeDegrees>-4.59050215780735015869140625</LongitudeDegrees>
            </Position>
            <AltitudeMeters>1210.199951171875</AltitudeMeters>
            <DistanceMeters>6629.1095108946</DistanceMeters>
          </Trackpoint>
          <Trackpoint>
            <Time>2023-02-23T10:02:50.000Z</Time>
            <Position>
              <LatitudeDegrees>41.535938791930675506591796875</LatitudeDegrees>
              <LongitudeDegrees>-4.5904869027435779571533203125</LongitudeDegrees>
            </Position>
            <AltitudeMeters>1210</AltitudeMeters>
            <DistanceMeters>6630.3914913597</DistanceMeters>
          </Trackpoint>
          <Trackpoint>
            <Time>2023-02-23T10:02:53.000Z</Time>
            <Position>
              <LatitudeDegrees>41.535944826900959014892578125</LatitudeDegrees>
              <LongitudeDegrees>-4.5904734916985034942626953125</LongitudeDegrees>
            </Position>
            <AltitudeMeters>1210</AltitudeMeters>
            <DistanceMeters>6631.6944320227</DistanceMeters>
          </Trackpoint>
          <Trackpoint>
            <Time>2023-02-23T10:03:01.000Z</Time>
            <Position>
              <LatitudeDegrees>41.53597743250429630279541015625</LatitudeDegrees>
              <LongitudeDegrees>-4.59048396907746791839599609375</LongitudeDegrees>
            </Position>
            <AltitudeMeters>1209.4000244140625</AltitudeMeters>
            <DistanceMeters>6635.4271800658</DistanceMeters>
          </Trackpoint>
          <Trackpoint>
            <Time>2023-02-23T10:03:03.000Z</Time>
            <Position>
              <LatitudeDegrees>41.535983048379421234130859375</LatitudeDegrees>
              <LongitudeDegrees>-4.59049352444708347320556640625</LongitudeDegrees>
            </Position>
            <AltitudeMeters>1209.199951171875</AltitudeMeters>
            <DistanceMeters>6636.4373278957</DistanceMeters>
          </Trackpoint>
          <Trackpoint>
            <Time>2023-02-23T10:03:07.000Z</Time>
            <Position>
              <LatitudeDegrees>41.53597206808626651763916015625</LatitudeDegrees>
              <LongitudeDegrees>-4.590501487255096435546875</LongitudeDegrees>
            </Position>
            <AltitudeMeters>1209</AltitudeMeters>
            <DistanceMeters>6637.8274488829</DistanceMeters>
          </Trackpoint>
          <Trackpoint>
            <Time>2023-02-23T10:03:08.000Z</Time>
            <Position>
              <LatitudeDegrees>41.53597039170563220977783203125</LatitudeDegrees>
              <LongitudeDegrees>-4.59050609730184078216552734375</LongitudeDegrees>
            </Position>
            <AltitudeMeters>1209</AltitudeMeters>
            <DistanceMeters>6638.2524212689</DistanceMeters>
          </Trackpoint>
          <Trackpoint>
            <Time>2023-02-23T10:03:13.000Z</Time>
            <Position>
              <LatitudeDegrees>41.5359734930098056793212890625</LatitudeDegrees>
              <LongitudeDegrees>-4.590518586337566375732421875</LongitudeDegrees>
            </Position>
            <AltitudeMeters>1209</AltitudeMeters>
            <DistanceMeters>6639.3524350158</DistanceMeters>
          </Trackpoint>
          <Trackpoint>
            <Time>2023-02-23T10:03:18.000Z</Time>
            <Position>
              <LatitudeDegrees>41.535978354513645172119140625</LatitudeDegrees>
              <LongitudeDegrees>-4.59051154553890228271484375</LongitudeDegrees>
            </Position>
            <AltitudeMeters>1209.199951171875</AltitudeMeters>
            <DistanceMeters>6640.1474855495</DistanceMeters>
          </Trackpoint>
          <Trackpoint>
            <Time>2023-02-23T10:03:21.000Z</Time>
            <Position>
              <LatitudeDegrees>41.53597039170563220977783203125</LatitudeDegrees>
              <LongitudeDegrees>-4.5905026607215404510498046875</LongitudeDegrees>
            </Position>
            <AltitudeMeters>1209.199951171875</AltitudeMeters>
            <DistanceMeters>6641.299623231</DistanceMeters>
          </Trackpoint>
          <Trackpoint>
            <Time>2023-02-23T10:03:25.000Z</Time>
            <Position>
              <LatitudeDegrees>41.53596502728760242462158203125</LatitudeDegrees>
              <LongitudeDegrees>-4.590489752590656280517578125</LongitudeDegrees>
            </Position>
            <AltitudeMeters>1209.4000244140625</AltitudeMeters>
            <DistanceMeters>6642.5313102216</DistanceMeters>
          </Trackpoint>
          <Trackpoint>
            <Time>2023-02-23T10:03:28.000Z</Time>
            <Position>
              <LatitudeDegrees>41.5359661169350147247314453125</LatitudeDegrees>
              <LongitudeDegrees>-4.59047139622271060943603515625</LongitudeDegrees>
            </Position>
            <AltitudeMeters>1210.199951171875</AltitudeMeters>
            <DistanceMeters>6644.0665137754</DistanceMeters>
          </Trackpoint>
          <Trackpoint>
            <Time>2023-02-23T10:03:29.000Z</Time>
            <Position>
              <LatitudeDegrees>41.5359657816588878631591796875</LatitudeDegrees>
              <LongitudeDegrees>-4.590461589395999908447265625</LongitudeDegrees>
            </Position>
            <AltitudeMeters>1210.4000244140625</AltitudeMeters>
            <DistanceMeters>6644.8894692623</DistanceMeters>
          </Trackpoint>
          <Trackpoint>
            <Time>2023-02-23T10:03:30.000Z</Time>
            <Position>
              <LatitudeDegrees>41.5359634347259998321533203125</LatitudeDegrees>
              <LongitudeDegrees>-4.590455554425716400146484375</LongitudeDegrees>
            </Position>
            <AltitudeMeters>1210.5999755859375</AltitudeMeters>
            <DistanceMeters>6645.451654886</DistanceMeters>
          </Trackpoint>
          <Trackpoint>
            <Time>2023-02-23T10:03:33.000Z</Time>
            <Position>
              <LatitudeDegrees>41.535958237946033477783203125</LatitudeDegrees>
              <LongitudeDegrees>-4.59042705595493316650390625</LongitudeDegrees>
            </Position>
            <AltitudeMeters>1210.800048828125</AltitudeMeters>
            <DistanceMeters>6647.8947841354</DistanceMeters>
          </Trackpoint>
          <Trackpoint>
            <Time>2023-02-23T10:03:37.000Z</Time>
            <Position>
              <LatitudeDegrees>41.5359409712255001068115234375</LatitudeDegrees>
              <LongitudeDegrees>-4.59040534682571887969970703125</LongitudeDegrees>
            </Position>
            <AltitudeMeters>1210.800048828125</AltitudeMeters>
            <DistanceMeters>6650.5350907492</DistanceMeters>
          </Trackpoint>
          <Trackpoint>
            <Time>2023-02-23T10:03:39.000Z</Time>
            <Position>
              <LatitudeDegrees>41.5359258837997913360595703125</LatitudeDegrees>
              <LongitudeDegrees>-4.59040970541536808013916015625</LongitudeDegrees>
            </Position>
            <AltitudeMeters>1210.800048828125</AltitudeMeters>
            <DistanceMeters>6652.2560977433</DistanceMeters>
          </Trackpoint>
          <Trackpoint>
            <Time>2023-02-23T10:03:40.000Z</Time>
            <Position>
              <LatitudeDegrees>41.5359149873256683349609375</LatitudeDegrees>
              <LongitudeDegrees>-4.590411297976970672607421875</LongitudeDegrees>
            </Position>
            <AltitudeMeters>1210.800048828125</AltitudeMeters>
            <DistanceMeters>6653.4804313129</DistanceMeters>
          </Trackpoint>
          <Trackpoint>
            <Time>2023-02-23T10:03:42.000Z</Time>
            <Position>
              <LatitudeDegrees>41.53589596040546894073486328125</LatitudeDegrees>
              <LongitudeDegrees>-4.590412639081478118896484375</LongitudeDegrees>
            </Position>
            <AltitudeMeters>1212.199951171875</AltitudeMeters>
            <DistanceMeters>6655.5989090665</DistanceMeters>
          </Trackpoint>
          <Trackpoint>
            <Time>2023-02-23T10:03:44.000Z</Time>
            <Position>
              <LatitudeDegrees>41.53588104061782360076904296875</LatitudeDegrees>
              <LongitudeDegrees>-4.5904009044170379638671875</LongitudeDegrees>
            </Position>
            <AltitudeMeters>1212.199951171875</AltitudeMeters>
            <DistanceMeters>6657.5253984692</DistanceMeters>
          </Trackpoint>
          <Trackpoint>
            <Time>2023-02-23T10:03:51.000Z</Time>
            <Position>
              <LatitudeDegrees>41.53583519160747528076171875</LatitudeDegrees>
              <LongitudeDegrees>-4.5903822965919971466064453125</LongitudeDegrees>
            </Position>
            <AltitudeMeters>1211.4000244140625</AltitudeMeters>
            <DistanceMeters>6662.8587595856</DistanceMeters>
          </Trackpoint>
          <Trackpoint>
            <Time>2023-02-23T10:03:56.000Z</Time>
            <Position>
              <LatitudeDegrees>41.53579504229128360748291015625</LatitudeDegrees>
              <LongitudeDegrees>-4.5903822965919971466064453125</LongitudeDegrees>
            </Position>
            <AltitudeMeters>1211.5999755859375</AltitudeMeters>
            <DistanceMeters>6667.3280468995</DistanceMeters>
          </Trackpoint>
          <Trackpoint>
            <Time>2023-02-23T10:03:57.000Z</Time>
            <Position>
              <LatitudeDegrees>41.535784900188446044921875</LatitudeDegrees>
              <LongitudeDegrees>-4.59037936292588710784912109375</LongitudeDegrees>
            </Position>
            <AltitudeMeters>1211.5999755859375</AltitudeMeters>
            <DistanceMeters>6668.4840967746</DistanceMeters>
          </Trackpoint>
          <Trackpoint>
            <Time>2023-02-23T10:03:59.000Z</Time>
            <Position>
              <LatitudeDegrees>41.53576486743986606597900390625</LatitudeDegrees>
              <LongitudeDegrees>-4.59037609398365020751953125</LongitudeDegrees>
            </Position>
            <AltitudeMeters>1211.5999755859375</AltitudeMeters>
            <DistanceMeters>6670.7288200662</DistanceMeters>
          </Trackpoint>
          <Trackpoint>
            <Time>2023-02-23T10:04:04.000Z</Time>
            <Position>
              <LatitudeDegrees>41.535741649568080902099609375</LatitudeDegrees>
              <LongitudeDegrees>-4.590401910245418548583984375</LongitudeDegrees>
            </Position>
            <AltitudeMeters>1211.199951171875</AltitudeMeters>
            <DistanceMeters>6674.0898653844</DistanceMeters>
          </Trackpoint>
          <Trackpoint>
            <Time>2023-02-23T10:04:06.000Z</Time>
            <Position>
              <LatitudeDegrees>41.53571859933435916900634765625</LatitudeDegrees>
              <LongitudeDegrees>-4.59040836431086063385009765625</LongitudeDegrees>
            </Position>
            <AltitudeMeters>1211.199951171875</AltitudeMeters>
            <DistanceMeters>6676.7095711117</DistanceMeters>
          </Trackpoint>
          <Trackpoint>
            <Time>2023-02-23T10:04:08.000Z</Time>
            <Position>
              <LatitudeDegrees>41.5356968902051448822021484375</LatitudeDegrees>
              <LongitudeDegrees>-4.590421020984649658203125</LongitudeDegrees>
            </Position>
            <AltitudeMeters>1211</AltitudeMeters>
            <DistanceMeters>6679.3447426024</DistanceMeters>
          </Trackpoint>
          <Trackpoint>
            <Time>2023-02-23T10:04:13.000Z</Time>
            <Position>
              <LatitudeDegrees>41.535676605999469757080078125</LatitudeDegrees>
              <LongitudeDegrees>-4.59044105373322963714599609375</LongitudeDegrees>
            </Position>
            <AltitudeMeters>1211</AltitudeMeters>
            <DistanceMeters>6682.152456394</DistanceMeters>
          </Trackpoint>
          <Trackpoint>
            <Time>2023-02-23T10:04:19.000Z</Time>
            <Position>
              <LatitudeDegrees>41.53566445223987102508544921875</LatitudeDegrees>
              <LongitudeDegrees>-4.59045362658798694610595703125</LongitudeDegrees>
            </Position>
            <AltitudeMeters>1210.5999755859375</AltitudeMeters>
            <DistanceMeters>6683.8629372526</DistanceMeters>
          </Trackpoint>
          <Trackpoint>
            <Time>2023-02-23T10:04:21.000Z</Time>
            <Position>
              <LatitudeDegrees>41.53566076420247554779052734375</LatitudeDegrees>
              <LongitudeDegrees>-4.590464942157268524169921875</LongitudeDegrees>
            </Position>
            <AltitudeMeters>1210.4000244140625</AltitudeMeters>
            <DistanceMeters>6684.8908083262</DistanceMeters>
          </Trackpoint>
          <Trackpoint>
            <Time>2023-02-23T10:04:31.000Z</Time>
            <Position>
              <LatitudeDegrees>41.5356387197971343994140625</LatitudeDegrees>
              <LongitudeDegrees>-4.5905143953859806060791015625</LongitudeDegrees>
            </Position>
            <AltitudeMeters>1211.4000244140625</AltitudeMeters>
            <DistanceMeters>6689.6856570857</DistanceMeters>
          </Trackpoint>
          <Trackpoint>
            <Time>2023-02-23T10:04:36.000Z</Time>
            <Position>
              <LatitudeDegrees>41.53563276864588260650634765625</LatitudeDegrees>
              <LongitudeDegrees>-4.59050995297729969024658203125</LongitudeDegrees>
            </Position>
            <AltitudeMeters>1211</AltitudeMeters>
            <DistanceMeters>6690.4458708007</DistanceMeters>
          </Trackpoint>
          <Trackpoint>
            <Time>2023-02-23T10:04:38.000Z</Time>
            <Position>
              <LatitudeDegrees>41.535622291266918182373046875</LatitudeDegrees>
              <LongitudeDegrees>-4.59050542674958705902099609375</LongitudeDegrees>
            </Position>
            <AltitudeMeters>1211.199951171875</AltitudeMeters>
            <DistanceMeters>6691.6702043703</DistanceMeters>
          </Trackpoint>
          <Trackpoint>
            <Time>2023-02-23T10:04:46.000Z</Time>
            <Position>
              <LatitudeDegrees>41.53557795099914073944091796875</LatitudeDegrees>
              <LongitudeDegrees>-4.5904852263629436492919921875</LongitudeDegrees>
            </Position>
            <AltitudeMeters>1211</AltitudeMeters>
            <DistanceMeters>6696.885431139</DistanceMeters>
          </Trackpoint>
          <Trackpoint>
            <Time>2023-02-23T10:04:47.000Z</Time>
            <Position>
              <LatitudeDegrees>41.53557040728628635406494140625</LatitudeDegrees>
              <LongitudeDegrees>-4.59048531018197536468505859375</LongitudeDegrees>
            </Position>
            <AltitudeMeters>1211</AltitudeMeters>
            <DistanceMeters>6697.7353759111</DistanceMeters>
          </Trackpoint>
          <Trackpoint>
            <Time>2023-02-23T10:04:51.000Z</Time>
            <Position>
              <LatitudeDegrees>41.5355416573584079742431640625</LatitudeDegrees>
              <LongitudeDegrees>-4.59050484001636505126953125</LongitudeDegrees>
            </Position>
            <AltitudeMeters>1211</AltitudeMeters>
            <DistanceMeters>6701.3263297066</DistanceMeters>
          </Trackpoint>
          <Trackpoint>
            <Time>2023-02-23T10:04:53.000Z</Time>
            <Position>
              <LatitudeDegrees>41.53550854884088039398193359375</LatitudeDegrees>
              <LongitudeDegrees>-4.59052856080234050750732421875</LongitudeDegrees>
            </Position>
            <AltitudeMeters>1211</AltitudeMeters>
            <DistanceMeters>6705.5075051389</DistanceMeters>
          </Trackpoint>
          <Trackpoint>
            <Time>2023-02-23T10:04:55.000Z</Time>
            <Position>
              <LatitudeDegrees>41.53548876754939556121826171875</LatitudeDegrees>
              <LongitudeDegrees>-4.59054415114223957061767578125</LongitudeDegrees>
            </Position>
            <AltitudeMeters>1211</AltitudeMeters>
            <DistanceMeters>6708.0626460879</DistanceMeters>
          </Trackpoint>
          <Trackpoint>
            <Time>2023-02-23T10:05:02.000Z</Time>
            <Position>
              <LatitudeDegrees>41.53542573563754558563232421875</LatitudeDegrees>
              <LongitudeDegrees>-4.59055253304541110992431640625</LongitudeDegrees>
            </Position>
            <AltitudeMeters>1211</AltitudeMeters>
            <DistanceMeters>6715.1125780555</DistanceMeters>
          </Trackpoint>
          <Trackpoint>
            <Time>2023-02-23T10:05:04.000Z</Time>
            <Position>
              <LatitudeDegrees>41.535425148904323577880859375</LatitudeDegrees>
              <LongitudeDegrees>-4.59052386693656444549560546875</LongitudeDegrees>
            </Position>
            <AltitudeMeters>1210.5999755859375</AltitudeMeters>
            <DistanceMeters>6717.4996218833</DistanceMeters>
          </Trackpoint>
          <Trackpoint>
            <Time>2023-02-23T10:05:07.000Z</Time>
            <Position>
              <LatitudeDegrees>41.5354219637811183929443359375</LatitudeDegrees>
              <LongitudeDegrees>-4.59048329852521419525146484375</LongitudeDegrees>
            </Position>
            <AltitudeMeters>1210.4000244140625</AltitudeMeters>
            <DistanceMeters>6720.8994009715</DistanceMeters>
          </Trackpoint>
          <Trackpoint>
            <Time>2023-02-23T10:05:08.000Z</Time>
            <Position>
              <LatitudeDegrees>41.53541467152535915374755859375</LatitudeDegrees>
              <LongitudeDegrees>-4.5904734916985034942626953125</LongitudeDegrees>
            </Position>
            <AltitudeMeters>1210.199951171875</AltitudeMeters>
            <DistanceMeters>6722.0554508466</DistanceMeters>
          </Trackpoint>
          <Trackpoint>
            <Time>2023-02-23T10:05:09.000Z</Time>
            <Position>
              <LatitudeDegrees>41.53540712781250476837158203125</LatitudeDegrees>
              <LongitudeDegrees>-4.5904671214520931243896484375</LongitudeDegrees>
            </Position>
            <AltitudeMeters>1210.199951171875</AltitudeMeters>
            <DistanceMeters>6723.052099435</DistanceMeters>
          </Trackpoint>
          <Trackpoint>
            <Time>2023-02-23T10:05:11.000Z</Time>
            <Position>
              <LatitudeDegrees>41.53540159575641155242919921875</LatitudeDegrees>
              <LongitudeDegrees>-4.59045731462538242340087890625</LongitudeDegrees>
            </Position>
            <AltitudeMeters>1210.800048828125</AltitudeMeters>
            <DistanceMeters>6724.0755684709</DistanceMeters>
          </Trackpoint>
          <Trackpoint>
            <Time>2023-02-23T10:05:14.000Z</Time>
            <Position>
              <LatitudeDegrees>41.5353938005864620208740234375</LatitudeDegrees>
              <LongitudeDegrees>-4.59045127965509891510009765625</LongitudeDegrees>
            </Position>
            <AltitudeMeters>1211</AltitudeMeters>
            <DistanceMeters>6725.0812366875</DistanceMeters>
          </Trackpoint>
          <Trackpoint>
            <Time>2023-02-23T10:05:15.000Z</Time>
            <Position>
              <LatitudeDegrees>41.5353847481310367584228515625</LatitudeDegrees>
              <LongitudeDegrees>-4.590445496141910552978515625</LongitudeDegrees>
            </Position>
            <AltitudeMeters>1211</AltitudeMeters>
            <DistanceMeters>6726.1975478221</DistanceMeters>
          </Trackpoint>
          <Trackpoint>
            <Time>2023-02-23T10:05:21.000Z</Time>
            <Position>
              <LatitudeDegrees>41.53531081974506378173828125</LatitudeDegrees>
              <LongitudeDegrees>-4.59039830602705478668212890625</LongitudeDegrees>
            </Position>
            <AltitudeMeters>1210.800048828125</AltitudeMeters>
            <DistanceMeters>6735.3171423333</DistanceMeters>
          </Trackpoint>
          <Trackpoint>
            <Time>2023-02-23T10:05:27.000Z</Time>
            <Position>
              <LatitudeDegrees>41.535239405930042266845703125</LatitudeDegrees>
              <LongitudeDegrees>-4.5903501100838184356689453125</LongitudeDegrees>
            </Position>
            <AltitudeMeters>1210.5999755859375</AltitudeMeters>
            <DistanceMeters>6744.2223167465</DistanceMeters>
          </Trackpoint>
          <Trackpoint>
            <Time>2023-02-23T10:05:33.000Z</Time>
            <Position>
              <LatitudeDegrees>41.535147540271282196044921875</LatitudeDegrees>
              <LongitudeDegrees>-4.59031934849917888641357421875</LongitudeDegrees>
            </Position>
            <AltitudeMeters>1210.800048828125</AltitudeMeters>
            <DistanceMeters>6754.7630027094</DistanceMeters>
          </Trackpoint>
          <Trackpoint>
            <Time>2023-02-23T10:05:35.000Z</Time>
            <Position>
              <LatitudeDegrees>41.535120718181133270263671875</LatitudeDegrees>
              <LongitudeDegrees>-4.59028498269617557525634765625</LongitudeDegrees>
            </Position>
            <AltitudeMeters>1211</AltitudeMeters>
            <DistanceMeters>6758.8985757996</DistanceMeters>
          </Trackpoint>
          <Trackpoint>
            <Time>2023-02-23T10:05:38.000Z</Time>
            <Position>
              <LatitudeDegrees>41.53508274815976619720458984375</LatitudeDegrees>
              <LongitudeDegrees>-4.590218178927898406982421875</LongitudeDegrees>
            </Position>
            <AltitudeMeters>1211</AltitudeMeters>
            <DistanceMeters>6765.8867553486</DistanceMeters>
          </Trackpoint>
          <Trackpoint>
            <Time>2023-02-23T10:05:39.000Z</Time>
            <Position>
              <LatitudeDegrees>41.53506782837212085723876953125</LatitudeDegrees>
              <LongitudeDegrees>-4.5902052707970142364501953125</LongitudeDegrees>
            </Position>
            <AltitudeMeters>1211</AltitudeMeters>
            <DistanceMeters>6767.8641331831</DistanceMeters>
          </Trackpoint>
          <Trackpoint>
            <Time>2023-02-23T10:05:43.000Z</Time>
            <Position>
              <LatitudeDegrees>41.53500638902187347412109375</LatitudeDegrees>
              <LongitudeDegrees>-4.59017987363040447235107421875</LongitudeDegrees>
            </Position>
            <AltitudeMeters>1210.800048828125</AltitudeMeters>
            <DistanceMeters>6775.022111511</DistanceMeters>
          </Trackpoint>
          <Trackpoint>
            <Time>2023-02-23T10:05:45.000Z</Time>
            <Position>
              <LatitudeDegrees>41.53498518280684947967529296875</LatitudeDegrees>
              <LongitudeDegrees>-4.590159840881824493408203125</LongitudeDegrees>
            </Position>
            <AltitudeMeters>1211</AltitudeMeters>
            <DistanceMeters>6777.9122361987</DistanceMeters>
          </Trackpoint>
          <Trackpoint>
            <Time>2023-02-23T10:05:49.000Z</Time>
            <Position>
              <LatitudeDegrees>41.53490907512605190277099609375</LatitudeDegrees>
              <LongitudeDegrees>-4.59013880230486392974853515625</LongitudeDegrees>
            </Position>
            <AltitudeMeters>1210.800048828125</AltitudeMeters>
            <DistanceMeters>6786.5622774365</DistanceMeters>
          </Trackpoint>
          <Trackpoint>
            <Time>2023-02-23T10:05:51.000Z</Time>
            <Position>
              <LatitudeDegrees>41.53486364521086215972900390625</LatitudeDegrees>
              <LongitudeDegrees>-4.590137042105197906494140625</LongitudeDegrees>
            </Position>
            <AltitudeMeters>1210.5999755859375</AltitudeMeters>
            <DistanceMeters>6791.6210556133</DistanceMeters>
          </Trackpoint>
          <Trackpoint>
            <Time>2023-02-23T10:05:52.000Z</Time>
            <Position>
              <LatitudeDegrees>41.53484621085226535797119140625</LatitudeDegrees>
              <LongitudeDegrees>-4.59013846702873706817626953125</LongitudeDegrees>
            </Position>
            <AltitudeMeters>1210.5999755859375</AltitudeMeters>
            <DistanceMeters>6793.5638813784</DistanceMeters>
          </Trackpoint>
          <Trackpoint>
            <Time>2023-02-23T10:05:53.000Z</Time>
            <Position>
              <LatitudeDegrees>41.534827016294002532958984375</LatitudeDegrees>
              <LongitudeDegrees>-4.59013561718165874481201171875</LongitudeDegrees>
            </Position>
            <AltitudeMeters>1210.4000244140625</AltitudeMeters>
            <DistanceMeters>6795.7140904704</DistanceMeters>
          </Trackpoint>
          <Trackpoint>
            <Time>2023-02-23T10:05:55.000Z</Time>
            <Position>
              <LatitudeDegrees>41.5347799099981784820556640625</LatitudeDegrees>
              <LongitudeDegrees>-4.5901261456310749053955078125</LongitudeDegrees>
            </Position>
            <AltitudeMeters>1210</AltitudeMeters>
            <DistanceMeters>6801.0168876611</DistanceMeters>
          </Trackpoint>
          <Trackpoint>
            <Time>2023-02-23T10:05:56.000Z</Time>
            <Position>
              <LatitudeDegrees>41.53476641513407230377197265625</LatitudeDegrees>
              <LongitudeDegrees>-4.59012656472623348236083984375</LongitudeDegrees>
            </Position>
            <AltitudeMeters>1210</AltitudeMeters>
            <DistanceMeters>6802.519391941</DistanceMeters>
          </Trackpoint>
          <Trackpoint>
            <Time>2023-02-23T10:05:57.000Z</Time>
            <Position>
              <LatitudeDegrees>41.5347571112215518951416015625</LatitudeDegrees>
              <LongitudeDegrees>-4.5901273190975189208984375</LongitudeDegrees>
            </Position>
            <AltitudeMeters>1210</AltitudeMeters>
            <DistanceMeters>6803.5603574415</DistanceMeters>
          </Trackpoint>
          <Trackpoint>
            <Time>2023-02-23T10:05:58.000Z</Time>
            <Position>
              <LatitudeDegrees>41.53474596329033374786376953125</LatitudeDegrees>
              <LongitudeDegrees>-4.5901227928698062896728515625</LongitudeDegrees>
            </Position>
            <AltitudeMeters>1210</AltitudeMeters>
            <DistanceMeters>6804.8563490382</DistanceMeters>
          </Trackpoint>
          <Trackpoint>
            <Time>2023-02-23T10:06:01.000Z</Time>
            <Position>
              <LatitudeDegrees>41.5347128547728061676025390625</LatitudeDegrees>
              <LongitudeDegrees>-4.5900413207709789276123046875</LongitudeDegrees>
            </Position>
            <AltitudeMeters>1210.199951171875</AltitudeMeters>
            <DistanceMeters>6812.5792794996</DistanceMeters>
          </Trackpoint>
          <Trackpoint>
            <Time>2023-02-23T10:06:05.000Z</Time>
            <Position>
              <LatitudeDegrees>41.53468578122556209564208984375</LatitudeDegrees>
              <LongitudeDegrees>-4.58988801576197147369384765625</LongitudeDegrees>
            </Position>
            <AltitudeMeters>1210.4000244140625</AltitudeMeters>
            <DistanceMeters>6825.7022588817</DistanceMeters>
          </Trackpoint>
          <Trackpoint>
            <Time>2023-02-23T10:06:08.000Z</Time>
            <Position>
              <LatitudeDegrees>41.5346813388168811798095703125</LatitudeDegrees>
              <LongitudeDegrees>-4.58980419673025608062744140625</LongitudeDegrees>
            </Position>
            <AltitudeMeters>1210.5999755859375</AltitudeMeters>
            <DistanceMeters>6832.7020585063</DistanceMeters>
          </Trackpoint>
          <Trackpoint>
            <Time>2023-02-23T10:06:11.000Z</Time>
            <Position>
              <LatitudeDegrees>41.534671783447265625</LatitudeDegrees>
              <LongitudeDegrees>-4.58971249870955944061279296875</LongitudeDegrees>
            </Position>
            <AltitudeMeters>1211</AltitudeMeters>
            <DistanceMeters>6840.4150438955</DistanceMeters>
          </Trackpoint>
          <Trackpoint>
            <Time>2023-02-23T10:06:16.000Z</Time>
            <Position>
              <LatitudeDegrees>41.53465191833674907684326171875</LatitudeDegrees>
              <LongitudeDegrees>-4.58955626003444194793701171875</LongitudeDegrees>
            </Position>
            <AltitudeMeters>1211.4000244140625</AltitudeMeters>
            <DistanceMeters>6853.6182868967</DistanceMeters>
          </Trackpoint>
          <Trackpoint>
            <Time>2023-02-23T10:06:23.000Z</Time>
            <Position>
              <LatitudeDegrees>41.53461235575377941131591796875</LatitudeDegrees>
              <LongitudeDegrees>-4.5892906375229358673095703125</LongitudeDegrees>
            </Position>
            <AltitudeMeters>1211.5999755859375</AltitudeMeters>
            <DistanceMeters>6876.1822796742</DistanceMeters>
          </Trackpoint>
          <Trackpoint>
            <Time>2023-02-23T10:06:24.000Z</Time>
            <Position>
              <LatitudeDegrees>41.5346087515354156494140625</LatitudeDegrees>
              <LongitudeDegrees>-4.58925752900540828704833984375</LongitudeDegrees>
            </Position>
            <AltitudeMeters>1211.5999755859375</AltitudeMeters>
            <DistanceMeters>6878.9722484724</DistanceMeters>
          </Trackpoint>
          <Trackpoint>
            <Time>2023-02-23T10:06:31.000Z</Time>
            <Position>
              <LatitudeDegrees>41.53455871157348155975341796875</LatitudeDegrees>
              <LongitudeDegrees>-4.5890115201473236083984375</LongitudeDegrees>
            </Position>
            <AltitudeMeters>1212</AltitudeMeters>
            <DistanceMeters>6900.2119414784</DistanceMeters>
          </Trackpoint>
          <Trackpoint>
            <Time>2023-02-23T10:06:33.000Z</Time>
            <Position>
              <LatitudeDegrees>41.53454747982323169708251953125</LatitudeDegrees>
              <LongitudeDegrees>-4.5889412797987461090087890625</LongitudeDegrees>
            </Position>
            <AltitudeMeters>1212.4000244140625</AltitudeMeters>
            <DistanceMeters>6906.1963615151</DistanceMeters>
          </Trackpoint>
          <Trackpoint>
            <Time>2023-02-23T10:06:37.000Z</Time>
            <Position>
              <LatitudeDegrees>41.5345234237611293792724609375</LatitudeDegrees>
              <LongitudeDegrees>-4.5887780003249645233154296875</LongitudeDegrees>
            </Position>
            <AltitudeMeters>1212.800048828125</AltitudeMeters>
            <DistanceMeters>6920.0611466681</DistanceMeters>
          </Trackpoint>
          <Trackpoint>
            <Time>2023-02-23T10:06:41.000Z</Time>
            <Position>
              <LatitudeDegrees>41.5345086716115474700927734375</LatitudeDegrees>
              <LongitudeDegrees>-4.58862729370594024658203125</LongitudeDegrees>
            </Position>
            <AltitudeMeters>1212.800048828125</AltitudeMeters>
            <DistanceMeters>6932.7243254749</DistanceMeters>
          </Trackpoint>
          <Trackpoint>
            <Time>2023-02-23T10:06:52.000Z</Time>
            <Position>
              <LatitudeDegrees>41.5344308875501155853271484375</LatitudeDegrees>
              <LongitudeDegrees>-4.58821021020412445068359375</LongitudeDegrees>
            </Position>
            <AltitudeMeters>1213.199951171875</AltitudeMeters>
            <DistanceMeters>6968.5361611843</DistanceMeters>
          </Trackpoint>
          <Trackpoint>
            <Time>2023-02-23T10:06:58.000Z</Time>
            <Position>
              <LatitudeDegrees>41.5343980304896831512451171875</LatitudeDegrees>
              <LongitudeDegrees>-4.588039219379425048828125</LongitudeDegrees>
            </Position>
            <AltitudeMeters>1213.199951171875</AltitudeMeters>
            <DistanceMeters>6983.2444425716</DistanceMeters>
          </Trackpoint>
          <Trackpoint>
            <Time>2023-02-23T10:07:01.000Z</Time>
            <Position>
              <LatitudeDegrees>41.53439057059586048126220703125</LatitudeDegrees>
              <LongitudeDegrees>-4.5879498682916164398193359375</LongitudeDegrees>
            </Position>
            <AltitudeMeters>1213.4000244140625</AltitudeMeters>
            <DistanceMeters>6990.7352966633</DistanceMeters>
          </Trackpoint>
          <Trackpoint>
            <Time>2023-02-23T10:07:04.000Z</Time>
            <Position>
              <LatitudeDegrees>41.5343785844743251800537109375</LatitudeDegrees>
              <LongitudeDegrees>-4.58785573951900005340576171875</LongitudeDegrees>
            </Position>
            <AltitudeMeters>1213.4000244140625</AltitudeMeters>
            <DistanceMeters>6998.6903438485</DistanceMeters>
          </Trackpoint>
          <Trackpoint>
            <Time>2023-02-23T10:07:08.000Z</Time>
            <Position>
              <LatitudeDegrees>41.53435528278350830078125</LatitudeDegrees>
              <LongitudeDegrees>-4.587698243558406829833984375</LongitudeDegrees>
            </Position>
            <AltitudeMeters>1213.800048828125</AltitudeMeters>
            <DistanceMeters>7012.0665142519</DistanceMeters>
          </Trackpoint>
          <Trackpoint>
            <Time>2023-02-23T10:07:11.000Z</Time>
            <Position>
              <LatitudeDegrees>41.53433189727365970611572265625</LatitudeDegrees>
              <LongitudeDegrees>-4.5876045338809490203857421875</LongitudeDegrees>
            </Position>
            <AltitudeMeters>1214</AltitudeMeters>
            <DistanceMeters>7020.2960691202</DistanceMeters>
          </Trackpoint>
          <Trackpoint>
            <Time>2023-02-23T10:07:15.000Z</Time>
            <Position>
              <LatitudeDegrees>41.53422326780855655670166015625</LatitudeDegrees>
              <LongitudeDegrees>-4.58761031739413738250732421875</LongitudeDegrees>
            </Position>
            <AltitudeMeters>1214</AltitudeMeters>
            <DistanceMeters>7032.3965934699</DistanceMeters>
          </Trackpoint>
          <Trackpoint>
            <Time>2023-02-23T10:07:18.000Z</Time>
            <Position>
              <LatitudeDegrees>41.53413869440555572509765625</LatitudeDegrees>
              <LongitudeDegrees>-4.58763529546558856964111328125</LongitudeDegrees>
            </Position>
            <AltitudeMeters>1213.800048828125</AltitudeMeters>
            <DistanceMeters>7042.0370056375</DistanceMeters>
          </Trackpoint>
          <Trackpoint>
            <Time>2023-02-23T10:07:22.000Z</Time>
            <Position>
              <LatitudeDegrees>41.53404087759554386138916015625</LatitudeDegrees>
              <LongitudeDegrees>-4.58764686249196529388427734375</LongitudeDegrees>
            </Position>
            <AltitudeMeters>1213.800048828125</AltitudeMeters>
            <DistanceMeters>7052.967143393</DistanceMeters>
          </Trackpoint>
          <Trackpoint>
            <Time>2023-02-23T10:07:27.000Z</Time>
            <Position>
              <LatitudeDegrees>41.53388028033077716827392578125</LatitudeDegrees>
              <LongitudeDegrees>-4.5876782946288585662841796875</LongitudeDegrees>
            </Position>
            <AltitudeMeters>1213.800048828125</AltitudeMeters>
            <DistanceMeters>7071.0327190228</DistanceMeters>
          </Trackpoint>
          <Trackpoint>
            <Time>2023-02-23T10:07:28.000Z</Time>
            <Position>
              <LatitudeDegrees>41.53385614044964313507080078125</LatitudeDegrees>
              <LongitudeDegrees>-4.58768206648528575897216796875</LongitudeDegrees>
            </Position>
            <AltitudeMeters>1213.800048828125</AltitudeMeters>
            <DistanceMeters>7073.7372267266</DistanceMeters>
          </Trackpoint>
          <Trackpoint>
            <Time>2023-02-23T10:07:30.000Z</Time>
            <Position>
              <LatitudeDegrees>41.53381590731441974639892578125</LatitudeDegrees>
              <LongitudeDegrees>-4.58769514225423336029052734375</LongitudeDegrees>
            </Position>
            <AltitudeMeters>1213.800048828125</AltitudeMeters>
            <DistanceMeters>7078.3457774528</DistanceMeters>
          </Trackpoint>
          <Trackpoint>
            <Time>2023-02-23T10:07:32.000Z</Time>
            <Position>
              <LatitudeDegrees>41.53377148322761058807373046875</LatitudeDegrees>
              <LongitudeDegrees>-4.58770729601383209228515625</LongitudeDegrees>
            </Position>
            <AltitudeMeters>1213.800048828125</AltitudeMeters>
            <DistanceMeters>7083.3929395909</DistanceMeters>
          </Trackpoint>
          <Trackpoint>
            <Time>2023-02-23T10:07:36.000Z</Time>
            <Position>
              <LatitudeDegrees>41.5336808748543262481689453125</LatitudeDegrees>
              <LongitudeDegrees>-4.5877305977046489715576171875</LongitudeDegrees>
            </Position>
            <AltitudeMeters>1213.800048828125</AltitudeMeters>
            <DistanceMeters>7093.6628613465</DistanceMeters>
          </Trackpoint>
          <Trackpoint>
            <Time>2023-02-23T10:07:38.000Z</Time>
            <Position>
              <LatitudeDegrees>41.5336356125771999359130859375</LatitudeDegrees>
              <LongitudeDegrees>-4.5877456851303577423095703125</LongitudeDegrees>
            </Position>
            <AltitudeMeters>1213.5999755859375</AltitudeMeters>
            <DistanceMeters>7098.8555300497</DistanceMeters>
          </Trackpoint>
          <Trackpoint>
            <Time>2023-02-23T10:07:40.000Z</Time>
            <Position>
              <LatitudeDegrees>41.533589847385883331298828125</LatitudeDegrees>
              <LongitudeDegrees>-4.587765298783779144287109375</LongitudeDegrees>
            </Position>
            <AltitudeMeters>1213.4000244140625</AltitudeMeters>
            <DistanceMeters>7104.2057956812</DistanceMeters>
          </Trackpoint>
          <Trackpoint>
            <Time>2023-02-23T10:07:42.000Z</Time>
            <Position>
              <LatitudeDegrees>41.5335527993738651275634765625</LatitudeDegrees>
              <LongitudeDegrees>-4.5877936296164989471435546875</LongitudeDegrees>
            </Position>
            <AltitudeMeters>1213.4000244140625</AltitudeMeters>
            <DistanceMeters>7108.9580815718</DistanceMeters>
          </Trackpoint>
          <Trackpoint>
            <Time>2023-02-23T10:07:48.000Z</Time>
            <Position>
              <LatitudeDegrees>41.53340536169707775115966796875</LatitudeDegrees>
              <LongitudeDegrees>-4.5878335274755954742431640625</LongitudeDegrees>
            </Position>
            <AltitudeMeters>1213.5999755859375</AltitudeMeters>
            <DistanceMeters>7125.7016699948</DistanceMeters>
          </Trackpoint>
          <Trackpoint>
            <Time>2023-02-23T10:07:51.000Z</Time>
            <Position>
              <LatitudeDegrees>41.5333291701972484588623046875</LatitudeDegrees>
              <LongitudeDegrees>-4.5878422446548938751220703125</LongitudeDegrees>
            </Position>
            <AltitudeMeters>1213.5999755859375</AltitudeMeters>
            <DistanceMeters>7134.2127964322</DistanceMeters>
          </Trackpoint>
          <Trackpoint>
            <Time>2023-02-23T10:07:55.000Z</Time>
            <Position>
              <LatitudeDegrees>41.53322146274149417877197265625</LatitudeDegrees>
              <LongitudeDegrees>-4.58787032403051853179931640625</LongitudeDegrees>
            </Position>
            <AltitudeMeters>1213.5999755859375</AltitudeMeters>
            <DistanceMeters>7146.4269641456</DistanceMeters>
          </Trackpoint>
          <Trackpoint>
            <Time>2023-02-23T10:08:02.000Z</Time>
            <Position>
              <LatitudeDegrees>41.53304971754550933837890625</LatitudeDegrees>
              <LongitudeDegrees>-4.58792212419211864471435546875</LongitudeDegrees>
            </Position>
            <AltitudeMeters>1213.199951171875</AltitudeMeters>
            <DistanceMeters>7166.023675375</DistanceMeters>
          </Trackpoint>
          <Trackpoint>
            <Time>2023-02-23T10:08:07.000Z</Time>
            <Position>
              <LatitudeDegrees>41.53285500593483448028564453125</LatitudeDegrees>
              <LongitudeDegrees>-4.58798062987625598907470703125</LongitudeDegrees>
            </Position>
            <AltitudeMeters>1212.199951171875</AltitudeMeters>
            <DistanceMeters>7188.236766944</DistanceMeters>
          </Trackpoint>
          <Trackpoint>
            <Time>2023-02-23T10:08:08.000Z</Time>
            <Position>
              <LatitudeDegrees>41.532826758921146392822265625</LatitudeDegrees>
              <LongitudeDegrees>-4.58797819912433624267578125</LongitudeDegrees>
            </Position>
            <AltitudeMeters>1212</AltitudeMeters>
            <DistanceMeters>7191.3855800435</DistanceMeters>
          </Trackpoint>
          <Trackpoint>
            <Time>2023-02-23T10:08:12.000Z</Time>
            <Position>
              <LatitudeDegrees>41.5327122621238231658935546875</LatitudeDegrees>
              <LongitudeDegrees>-4.58793989382684230804443359375</LongitudeDegrees>
            </Position>
            <AltitudeMeters>1211.4000244140625</AltitudeMeters>
            <DistanceMeters>7204.5226581432</DistanceMeters>
          </Trackpoint>
          <Trackpoint>
            <Time>2023-02-23T10:08:17.000Z</Time>
            <Position>
              <LatitudeDegrees>41.53266071341931819915771484375</LatitudeDegrees>
              <LongitudeDegrees>-4.58789530210196971893310546875</LongitudeDegrees>
            </Position>
            <AltitudeMeters>1211.800048828125</AltitudeMeters>
            <DistanceMeters>7211.3579793149</DistanceMeters>
          </Trackpoint>
          <Trackpoint>
            <Time>2023-02-23T10:08:21.000Z</Time>
            <Position>
              <LatitudeDegrees>41.532669179141521453857421875</LatitudeDegrees>
              <LongitudeDegrees>-4.58789077587425708770751953125</LongitudeDegrees>
            </Position>
            <AltitudeMeters>1212</AltitudeMeters>
            <DistanceMeters>7212.3725869803</DistanceMeters>
          </Trackpoint>
          <Trackpoint>
            <Time>2023-02-23T10:08:29.000Z</Time>
            <Position>
              <LatitudeDegrees>41.53263389132916927337646484375</LatitudeDegrees>
              <LongitudeDegrees>-4.5879388041794300079345703125</LongitudeDegrees>
            </Position>
            <AltitudeMeters>1211.199951171875</AltitudeMeters>
            <DistanceMeters>7217.9799683814</DistanceMeters>
          </Trackpoint>
          <Trackpoint>
            <Time>2023-02-23T10:08:31.000Z</Time>
            <Position>
              <LatitudeDegrees>41.532614864408969879150390625</LatitudeDegrees>
              <LongitudeDegrees>-4.58795799873769283294677734375</LongitudeDegrees>
            </Position>
            <AltitudeMeters>1211.199951171875</AltitudeMeters>
            <DistanceMeters>7220.6339200815</DistanceMeters>
          </Trackpoint>
          <Trackpoint>
            <Time>2023-02-23T10:08:33.000Z</Time>
            <Position>
              <LatitudeDegrees>41.53260388411581516265869140625</LatitudeDegrees>
              <LongitudeDegrees>-4.5879716612398624420166015625</LongitudeDegrees>
            </Position>
            <AltitudeMeters>1211.199951171875</AltitudeMeters>
            <DistanceMeters>7222.3016321504</DistanceMeters>
          </Trackpoint>
          <Trackpoint>
            <Time>2023-02-23T10:08:35.000Z</Time>
            <Position>
              <LatitudeDegrees>41.53260069899260997772216796875</LatitudeDegrees>
              <LongitudeDegrees>-4.5879693143069744110107421875</LongitudeDegrees>
            </Position>
            <AltitudeMeters>1211.199951171875</AltitudeMeters>
            <DistanceMeters>7222.7047963551</DistanceMeters>
          </Trackpoint>
          <Trackpoint>
            <Time>2023-02-23T10:08:36.000Z</Time>
            <Position>
              <LatitudeDegrees>41.53260036371648311614990234375</LatitudeDegrees>
              <LongitudeDegrees>-4.587974511086940765380859375</LongitudeDegrees>
            </Position>
            <AltitudeMeters>1211.199951171875</AltitudeMeters>
            <DistanceMeters>7223.1297687411</DistanceMeters>
          </Trackpoint>
          <Trackpoint>
            <Time>2023-02-23T10:08:37.000Z</Time>
            <Position>
              <LatitudeDegrees>41.5326026268303394317626953125</LatitudeDegrees>
              <LongitudeDegrees>-4.587969481945037841796875</LongitudeDegrees>
            </Position>
            <AltitudeMeters>1211.199951171875</AltitudeMeters>
            <DistanceMeters>7223.6326028494</DistanceMeters>
          </Trackpoint>
          <Trackpoint>
            <Time>2023-02-23T10:08:38.000Z</Time>
            <Position>
              <LatitudeDegrees>41.5326078236103057861328125</LatitudeDegrees>
              <LongitudeDegrees>-4.58795632235705852508544921875</LongitudeDegrees>
            </Position>
            <AltitudeMeters>1211.199951171875</AltitudeMeters>
            <DistanceMeters>7224.8715996192</DistanceMeters>
          </Trackpoint>
          <Trackpoint>
            <Time>2023-02-23T10:08:41.000Z</Time>
            <Position>
              <LatitudeDegrees>41.5326185524463653564453125</LatitudeDegrees>
              <LongitudeDegrees>-4.58793394267559051513671875</LongitudeDegrees>
            </Position>
            <AltitudeMeters>1211.199951171875</AltitudeMeters>
            <DistanceMeters>7227.0859463646</DistanceMeters>
          </Trackpoint>
          <Trackpoint>
            <Time>2023-02-23T10:08:44.000Z</Time>
            <Position>
              <LatitudeDegrees>41.53263288550078868865966796875</LatitudeDegrees>
              <LongitudeDegrees>-4.5879198610782623291015625</LongitudeDegrees>
            </Position>
            <AltitudeMeters>1211.199951171875</AltitudeMeters>
            <DistanceMeters>7229.0656062285</DistanceMeters>
          </Trackpoint>
          <Trackpoint>
            <Time>2023-02-23T10:08:47.000Z</Time>
            <Position>
              <LatitudeDegrees>41.53264545835554599761962890625</LatitudeDegrees>
              <LongitudeDegrees>-4.58791290409862995147705078125</LongitudeDegrees>
            </Position>
            <AltitudeMeters>1211.199951171875</AltitudeMeters>
            <DistanceMeters>7230.5800828433</DistanceMeters>
          </Trackpoint>
          <Trackpoint>
            <Time>2023-02-23T10:08:49.000Z</Time>
            <Position>
              <LatitudeDegrees>41.53264663182199001312255859375</LatitudeDegrees>
              <LongitudeDegrees>-4.587921537458896636962890625</LongitudeDegrees>
            </Position>
            <AltitudeMeters>1211.199951171875</AltitudeMeters>
            <DistanceMeters>7231.3161566077</DistanceMeters>
          </Trackpoint>
          <Trackpoint>
            <Time>2023-02-23T10:08:54.000Z</Time>
            <Position>
              <LatitudeDegrees>41.5326426923274993896484375</LatitudeDegrees>
              <LongitudeDegrees>-4.58794894628226757049560546875</LongitudeDegrees>
            </Position>
            <AltitudeMeters>1211.199951171875</AltitudeMeters>
            <DistanceMeters>7233.6438262291</DistanceMeters>
          </Trackpoint>
          <Trackpoint>
            <Time>2023-02-23T10:09:00.000Z</Time>
            <Position>
              <LatitudeDegrees>41.53262333013117313385009765625</LatitudeDegrees>
              <LongitudeDegrees>-4.587953053414821624755859375</LongitudeDegrees>
            </Position>
            <AltitudeMeters>1211.199951171875</AltitudeMeters>
            <DistanceMeters>7235.8232344537</DistanceMeters>
          </Trackpoint>
          <Trackpoint>
            <Time>2023-02-23T10:09:02.000Z</Time>
            <Position>
              <LatitudeDegrees>41.53261243365705013275146484375</LatitudeDegrees>
              <LongitudeDegrees>-4.587926231324672698974609375</LongitudeDegrees>
            </Position>
            <AltitudeMeters>1211.199951171875</AltitudeMeters>
            <DistanceMeters>7238.365976032</DistanceMeters>
          </Trackpoint>
          <Trackpoint>
            <Time>2023-02-23T10:09:03.000Z</Time>
            <Position>
              <LatitudeDegrees>41.5326105058193206787109375</LatitudeDegrees>
              <LongitudeDegrees>-4.58791944198310375213623046875</LongitudeDegrees>
            </Position>
            <AltitudeMeters>1211.199951171875</AltitudeMeters>
            <DistanceMeters>7238.9669777439</DistanceMeters>
          </Trackpoint>
          <Trackpoint>
            <Time>2023-02-23T10:09:05.000Z</Time>
            <Position>
              <LatitudeDegrees>41.5326106734573841094970703125</LatitudeDegrees>
              <LongitudeDegrees>-4.58790502510964870452880859375</LongitudeDegrees>
            </Position>
            <AltitudeMeters>1211.199951171875</AltitudeMeters>
            <DistanceMeters>7240.1689811678</DistanceMeters>
          </Trackpoint>
          <Trackpoint>
            <Time>2023-02-23T10:09:07.000Z</Time>
            <Position>
              <LatitudeDegrees>41.5326079912483692169189453125</LatitudeDegrees>
              <LongitudeDegrees>-4.58788524381816387176513671875</LongitudeDegrees>
            </Position>
            <AltitudeMeters>1211.199951171875</AltitudeMeters>
            <DistanceMeters>7241.8474876023</DistanceMeters>
          </Trackpoint>
          <Trackpoint>
            <Time>2023-02-23T10:09:10.000Z</Time>
            <Position>
              <LatitudeDegrees>41.5326049737632274627685546875</LatitudeDegrees>
              <LongitudeDegrees>-4.58787049166858196258544921875</LongitudeDegrees>
            </Position>
            <AltitudeMeters>1211.199951171875</AltitudeMeters>
            <DistanceMeters>7243.1224047603</DistanceMeters>
          </Trackpoint>
          <Trackpoint>
            <Time>2023-02-23T10:09:11.000Z</Time>
            <Position>
              <LatitudeDegrees>41.53260455466806888580322265625</LatitudeDegrees>
              <LongitudeDegrees>-4.58787024021148681640625</LongitudeDegrees>
            </Position>
            <AltitudeMeters>1211.199951171875</AltitudeMeters>
            <DistanceMeters>7243.1224047603</DistanceMeters>
          </Trackpoint>
          <Trackpoint>
            <Time>2023-02-23T10:09:13.000Z</Time>
            <Position>
              <LatitudeDegrees>41.53260488994419574737548828125</LatitudeDegrees>
              <LongitudeDegrees>-4.587869904935359954833984375</LongitudeDegrees>
            </Position>
            <AltitudeMeters>1211.199951171875</AltitudeMeters>
            <DistanceMeters>7243.1224047603</DistanceMeters>
          </Trackpoint>
          <Trackpoint>
            <Time>2023-02-23T10:09:16.000Z</Time>
            <Position>
              <LatitudeDegrees>41.53260589577257633209228515625</LatitudeDegrees>
              <LongitudeDegrees>-4.58786713890731334686279296875</LongitudeDegrees>
            </Position>
            <AltitudeMeters>1211.199951171875</AltitudeMeters>
            <DistanceMeters>7243.3911808968</DistanceMeters>
          </Trackpoint>
          <Trackpoint>
            <Time>2023-02-23T10:09:18.000Z</Time>
            <Position>
              <LatitudeDegrees>41.53260773979127407073974609375</LatitudeDegrees>
              <LongitudeDegrees>-4.58786495961248874664306640625</LongitudeDegrees>
            </Position>
            <AltitudeMeters>1211.199951171875</AltitudeMeters>
            <DistanceMeters>7243.6762610399</DistanceMeters>
          </Trackpoint>
          <Trackpoint>
            <Time>2023-02-23T10:09:24.000Z</Time>
            <Position>
              <LatitudeDegrees>41.53262131847441196441650390625</LatitudeDegrees>
              <LongitudeDegrees>-4.58786194212734699249267578125</LongitudeDegrees>
            </Position>
            <AltitudeMeters>1211.199951171875</AltitudeMeters>
            <DistanceMeters>7245.2085207684</DistanceMeters>
          </Trackpoint>
          <Trackpoint>
            <Time>2023-02-23T10:09:26.000Z</Time>
            <Position>
              <LatitudeDegrees>41.532630957663059234619140625</LatitudeDegrees>
              <LongitudeDegrees>-4.5878662168979644775390625</LongitudeDegrees>
            </Position>
            <AltitudeMeters>1211.199951171875</AltitudeMeters>
            <DistanceMeters>7246.3408947592</DistanceMeters>
          </Trackpoint>
          <Trackpoint>
            <Time>2023-02-23T10:09:27.000Z</Time>
            <Position>
              <LatitudeDegrees>41.532637663185596466064453125</LatitudeDegrees>
              <LongitudeDegrees>-4.58787032403051853179931640625</LongitudeDegrees>
            </Position>
            <AltitudeMeters>1211.199951171875</AltitudeMeters>
            <DistanceMeters>7247.1583454652</DistanceMeters>
          </Trackpoint>
          <Trackpoint>
            <Time>2023-02-23T10:09:29.000Z</Time>
            <Position>
              <LatitudeDegrees>41.5326453745365142822265625</LatitudeDegrees>
              <LongitudeDegrees>-4.58787183277308940887451171875</LongitudeDegrees>
            </Position>
            <AltitudeMeters>1211.199951171875</AltitudeMeters>
            <DistanceMeters>7248.0292796885</DistanceMeters>
          </Trackpoint>
          <Trackpoint>
            <Time>2023-02-23T10:09:32.000Z</Time>
            <Position>
              <LatitudeDegrees>41.53268032707273960113525390625</LatitudeDegrees>
              <LongitudeDegrees>-4.58790351636707782745361328125</LongitudeDegrees>
            </Position>
            <AltitudeMeters>1211.199951171875</AltitudeMeters>
            <DistanceMeters>7252.7299814509</DistanceMeters>
          </Trackpoint>
          <Trackpoint>
            <Time>2023-02-23T10:09:33.000Z</Time>
            <Position>
              <LatitudeDegrees>41.53268334455788135528564453125</LatitudeDegrees>
              <LongitudeDegrees>-4.5879136584699153900146484375</LongitudeDegrees>
            </Position>
            <AltitudeMeters>1211.199951171875</AltitudeMeters>
            <DistanceMeters>7253.636478531</DistanceMeters>
          </Trackpoint>
          <Trackpoint>
            <Time>2023-02-23T10:09:34.000Z</Time>
            <Position>
              <LatitudeDegrees>41.532689966261386871337890625</LatitudeDegrees>
              <LongitudeDegrees>-4.5879213698208332061767578125</LongitudeDegrees>
            </Position>
            <AltitudeMeters>1211.199951171875</AltitudeMeters>
            <DistanceMeters>7254.6148384357</DistanceMeters>
          </Trackpoint>
          <Trackpoint>
            <Time>2023-02-23T10:09:41.000Z</Time>
            <Position>
              <LatitudeDegrees>41.532693989574909210205078125</LatitudeDegrees>
              <LongitudeDegrees>-4.58796135149896144866943359375</LongitudeDegrees>
            </Position>
            <AltitudeMeters>1211.199951171875</AltitudeMeters>
            <DistanceMeters>7257.9772268291</DistanceMeters>
          </Trackpoint>
          <Trackpoint>
            <Time>2023-02-23T10:09:46.000Z</Time>
            <Position>
              <LatitudeDegrees>41.53267596848309040069580078125</LatitudeDegrees>
              <LongitudeDegrees>-4.5879413187503814697265625</LongitudeDegrees>
            </Position>
            <AltitudeMeters>1211.199951171875</AltitudeMeters>
            <DistanceMeters>7260.5865711219</DistanceMeters>
          </Trackpoint>
          <Trackpoint>
            <Time>2023-02-23T10:09:51.000Z</Time>
            <Position>
              <LatitudeDegrees>41.53265350498259067535400390625</LatitudeDegrees>
              <LongitudeDegrees>-4.5878985710442066192626953125</LongitudeDegrees>
            </Position>
            <AltitudeMeters>1211.199951171875</AltitudeMeters>
            <DistanceMeters>7264.9370929558</DistanceMeters>
          </Trackpoint>
          <Trackpoint>
            <Time>2023-02-23T10:09:55.000Z</Time>
            <Position>
              <LatitudeDegrees>41.53265283443033695220947265625</LatitudeDegrees>
              <LongitudeDegrees>-4.58785842172801494598388671875</LongitudeDegrees>
            </Position>
            <AltitudeMeters>1211.199951171875</AltitudeMeters>
            <DistanceMeters>7268.2806292032</DistanceMeters>
          </Trackpoint>
          <Trackpoint>
            <Time>2023-02-23T10:09:57.000Z</Time>
            <Position>
              <LatitudeDegrees>41.53265233151614665985107421875</LatitudeDegrees>
              <LongitudeDegrees>-4.58784048445522785186767578125</LongitudeDegrees>
            </Position>
            <AltitudeMeters>1211.199951171875</AltitudeMeters>
            <DistanceMeters>7269.7771113975</DistanceMeters>
          </Trackpoint>
          <Trackpoint>
            <Time>2023-02-23T10:10:04.000Z</Time>
            <Position>
              <LatitudeDegrees>41.53264428488910198211669921875</LatitudeDegrees>
              <LongitudeDegrees>-4.5878268219530582427978515625</LongitudeDegrees>
            </Position>
            <AltitudeMeters>1211.199951171875</AltitudeMeters>
            <DistanceMeters>7271.2245151888</DistanceMeters>
          </Trackpoint>
          <Trackpoint>
            <Time>2023-02-23T10:10:10.000Z</Time>
            <Position>
              <LatitudeDegrees>41.53262081556022167205810546875</LatitudeDegrees>
              <LongitudeDegrees>-4.58786864764988422393798828125</LongitudeDegrees>
            </Position>
            <AltitudeMeters>1211.199951171875</AltitudeMeters>
            <DistanceMeters>7275.5802230083</DistanceMeters>
          </Trackpoint>
          <Trackpoint>
            <Time>2023-02-23T10:10:12.000Z</Time>
            <Position>
              <LatitudeDegrees>41.53260849416255950927734375</LatitudeDegrees>
              <LongitudeDegrees>-4.58787652663886547088623046875</LongitudeDegrees>
            </Position>
            <AltitudeMeters>1211.199951171875</AltitudeMeters>
            <DistanceMeters>7277.1006504382</DistanceMeters>
          </Trackpoint>
          <Trackpoint>
            <Time>2023-02-23T10:10:15.000Z</Time>
            <Position>
              <LatitudeDegrees>41.53259835205972194671630859375</LatitudeDegrees>
              <LongitudeDegrees>-4.58788507618010044097900390625</LongitudeDegrees>
            </Position>
            <AltitudeMeters>1211.199951171875</AltitudeMeters>
            <DistanceMeters>7278.4344139328</DistanceMeters>
          </Trackpoint>
          <Trackpoint>
            <Time>2023-02-23T10:10:18.000Z</Time>
            <Position>
              <LatitudeDegrees>41.5326006151735782623291015625</LatitudeDegrees>
              <LongitudeDegrees>-4.58788474090397357940673828125</LongitudeDegrees>
            </Position>
            <AltitudeMeters>1211.199951171875</AltitudeMeters>
            <DistanceMeters>7278.7031900693</DistanceMeters>
          </Trackpoint>
          <Trackpoint>
            <Time>2023-02-23T10:10:23.000Z</Time>
            <Position>
              <LatitudeDegrees>41.53260086663067340850830078125</LatitudeDegrees>
              <LongitudeDegrees>-4.5878677256405353546142578125</LongitudeDegrees>
            </Position>
            <AltitudeMeters>1211.199951171875</AltitudeMeters>
            <DistanceMeters>7280.1190562249</DistanceMeters>
          </Trackpoint>
          <Trackpoint>
            <Time>2023-02-23T10:10:28.000Z</Time>
            <Position>
              <LatitudeDegrees>41.53260505758225917816162109375</LatitudeDegrees>
              <LongitudeDegrees>-4.5878593437373638153076171875</LongitudeDegrees>
            </Position>
            <AltitudeMeters>1211.199951171875</AltitudeMeters>
            <DistanceMeters>7280.9583094421</DistanceMeters>
          </Trackpoint>
          <Trackpoint>
            <Time>2023-02-23T10:10:31.000Z</Time>
            <Position>
              <LatitudeDegrees>41.53260505758225917816162109375</LatitudeDegrees>
              <LongitudeDegrees>-4.58785875700414180755615234375</LongitudeDegrees>
            </Position>
            <AltitudeMeters>1211.199951171875</AltitudeMeters>
            <DistanceMeters>7280.9583094421</DistanceMeters>
          </Trackpoint>
          <Trackpoint>
            <Time>2023-02-23T10:10:40.000Z</Time>
            <Position>
              <LatitudeDegrees>41.53260581195354461669921875</LatitudeDegrees>
              <LongitudeDegrees>-4.58783830516040325164794921875</LongitudeDegrees>
            </Position>
            <AltitudeMeters>1211.199951171875</AltitudeMeters>
            <DistanceMeters>7282.6687903008</DistanceMeters>
          </Trackpoint>
          <Trackpoint>
            <Time>2023-02-23T10:10:45.000Z</Time>
            <Position>
              <LatitudeDegrees>41.53260405175387859344482421875</LatitudeDegrees>
              <LongitudeDegrees>-4.58780796267092227935791015625</LongitudeDegrees>
            </Position>
            <AltitudeMeters>1211.199951171875</AltitudeMeters>
            <DistanceMeters>7285.2061993148</DistanceMeters>
          </Trackpoint>
          <Trackpoint>
            <Time>2023-02-23T10:10:48.000Z</Time>
            <Position>
              <LatitudeDegrees>41.5326006151735782623291015625</LatitudeDegrees>
              <LongitudeDegrees>-4.58779823966324329376220703125</LongitudeDegrees>
            </Position>
            <AltitudeMeters>1211.199951171875</AltitudeMeters>
            <DistanceMeters>7286.1077018827</DistanceMeters>
          </Trackpoint>
          <Trackpoint>
            <Time>2023-02-23T10:10:49.000Z</Time>
            <Position>
              <LatitudeDegrees>41.532594747841358184814453125</LatitudeDegrees>
              <LongitudeDegrees>-4.58778801374137401580810546875</LongitudeDegrees>
            </Position>
            <AltitudeMeters>1211.199951171875</AltitudeMeters>
            <DistanceMeters>7287.178598567</DistanceMeters>
          </Trackpoint>
          <Trackpoint>
            <Time>2023-02-23T10:10:51.000Z</Time>
            <Position>
              <LatitudeDegrees>41.532591395080089569091796875</LatitudeDegrees>
              <LongitudeDegrees>-4.58777259103953838348388671875</LongitudeDegrees>
            </Position>
            <AltitudeMeters>1211.199951171875</AltitudeMeters>
            <DistanceMeters>7288.5191153376</DistanceMeters>
          </Trackpoint>
          <Trackpoint>
            <Time>2023-02-23T10:10:53.000Z</Time>
            <Position>
              <LatitudeDegrees>41.5325882099568843841552734375</LatitudeDegrees>
              <LongitudeDegrees>-4.587758593261241912841796875</LongitudeDegrees>
            </Position>
            <AltitudeMeters>1211.199951171875</AltitudeMeters>
            <DistanceMeters>7289.7397555849</DistanceMeters>
          </Trackpoint>
          <Trackpoint>
            <Time>2023-02-23T10:10:57.000Z</Time>
            <Position>
              <LatitudeDegrees>41.5325623936951160430908203125</LatitudeDegrees>
              <LongitudeDegrees>-4.5876839943230152130126953125</LongitudeDegrees>
            </Position>
            <AltitudeMeters>1211.199951171875</AltitudeMeters>
            <DistanceMeters>7296.5869562463</DistanceMeters>
          </Trackpoint>
          <Trackpoint>
            <Time>2023-02-23T10:10:58.000Z</Time>
            <Position>
              <LatitudeDegrees>41.5325514972209930419921875</LatitudeDegrees>
              <LongitudeDegrees>-4.58766161464154720306396484375</LongitudeDegrees>
            </Position>
            <AltitudeMeters>1211.199951171875</AltitudeMeters>
            <DistanceMeters>7298.8114745967</DistanceMeters>
          </Trackpoint>
          <Trackpoint>
            <Time>2023-02-23T10:10:59.000Z</Time>
            <Position>
              <LatitudeDegrees>41.532541103661060333251953125</LatitudeDegrees>
              <LongitudeDegrees>-4.5876400731503963470458984375</LongitudeDegrees>
            </Position>
            <AltitudeMeters>1211.199951171875</AltitudeMeters>
            <DistanceMeters>7300.9490476786</DistanceMeters>
          </Trackpoint>
          <Trackpoint>
            <Time>2023-02-23T10:11:02.000Z</Time>
            <Position>
              <LatitudeDegrees>41.53253414668142795562744140625</LatitudeDegrees>
              <LongitudeDegrees>-4.5875711739063262939453125</LongitudeDegrees>
            </Position>
            <AltitudeMeters>1211</AltitudeMeters>
            <DistanceMeters>7306.7417814085</DistanceMeters>
          </Trackpoint>
          <Trackpoint>
            <Time>2023-02-23T10:11:03.000Z</Time>
            <Position>
              <LatitudeDegrees>41.5325432829558849334716796875</LatitudeDegrees>
              <LongitudeDegrees>-4.58755063824355602264404296875</LongitudeDegrees>
            </Position>
            <AltitudeMeters>1211.199951171875</AltitudeMeters>
            <DistanceMeters>7308.7305432048</DistanceMeters>
          </Trackpoint>
          <Trackpoint>
            <Time>2023-02-23T10:11:05.000Z</Time>
            <Position>
              <LatitudeDegrees>41.53255275450646877288818359375</LatitudeDegrees>
              <LongitudeDegrees>-4.58751476369798183441162109375</LongitudeDegrees>
            </Position>
            <AltitudeMeters>1211</AltitudeMeters>
            <DistanceMeters>7311.9022155017</DistanceMeters>
          </Trackpoint>
          <Trackpoint>
            <Time>2023-02-23T10:11:08.000Z</Time>
            <Position>
              <LatitudeDegrees>41.53253062628209590911865234375</LatitudeDegrees>
              <LongitudeDegrees>-4.58747721277177333831787109375</LongitudeDegrees>
            </Position>
            <AltitudeMeters>1211.199951171875</AltitudeMeters>
            <DistanceMeters>7315.8842770577</DistanceMeters>
          </Trackpoint>
          <Trackpoint>
            <Time>2023-02-23T10:11:13.000Z</Time>
            <Position>
              <LatitudeDegrees>41.53247463516891002655029296875</LatitudeDegrees>
              <LongitudeDegrees>-4.58739624358713626861572265625</LongitudeDegrees>
            </Position>
            <AltitudeMeters>1211</AltitudeMeters>
            <DistanceMeters>7325.0680079981</DistanceMeters>
          </Trackpoint>
          <Trackpoint>
            <Time>2023-02-23T10:11:14.000Z</Time>
            <Position>
              <LatitudeDegrees>41.532461978495121002197265625</LatitudeDegrees>
              <LongitudeDegrees>-4.58737813867628574371337890625</LongitudeDegrees>
            </Position>
            <AltitudeMeters>1211</AltitudeMeters>
            <DistanceMeters>7327.130328537</DistanceMeters>
          </Trackpoint>
          <Trackpoint>
            <Time>2023-02-23T10:11:20.000Z</Time>
            <Position>
              <LatitudeDegrees>41.53244362212717533111572265625</LatitudeDegrees>
              <LongitudeDegrees>-4.58726079203188419342041015625</LongitudeDegrees>
            </Position>
            <AltitudeMeters>1211.5999755859375</AltitudeMeters>
            <DistanceMeters>7337.1185358112</DistanceMeters>
          </Trackpoint>
          <Trackpoint>
            <Time>2023-02-23T10:11:26.000Z</Time>
            <Position>
              <LatitudeDegrees>41.53243440203368663787841796875</LatitudeDegrees>
              <LongitudeDegrees>-4.587142355740070343017578125</LongitudeDegrees>
            </Position>
            <AltitudeMeters>1211.4000244140625</AltitudeMeters>
            <DistanceMeters>7347.0387058242</DistanceMeters>
          </Trackpoint>
          <Trackpoint>
            <Time>2023-02-23T10:11:30.000Z</Time>
            <Position>
              <LatitudeDegrees>41.53244622051715850830078125</LatitudeDegrees>
              <LongitudeDegrees>-4.58705610595643520355224609375</LongitudeDegrees>
            </Position>
            <AltitudeMeters>1211.4000244140625</AltitudeMeters>
            <DistanceMeters>7354.3440293477</DistanceMeters>
          </Trackpoint>
          <Trackpoint>
            <Time>2023-02-23T10:11:35.000Z</Time>
            <Position>
              <LatitudeDegrees>41.53244764544069766998291015625</LatitudeDegrees>
              <LongitudeDegrees>-4.58697681315243244171142578125</LongitudeDegrees>
            </Position>
            <AltitudeMeters>1211.800048828125</AltitudeMeters>
            <DistanceMeters>7360.9523157885</DistanceMeters>
          </Trackpoint>
          <Trackpoint>
            <Time>2023-02-23T10:11:40.000Z</Time>
            <Position>
              <LatitudeDegrees>41.532411016523838043212890625</LatitudeDegrees>
              <LongitudeDegrees>-4.58689215593039989471435546875</LongitudeDegrees>
            </Position>
            <AltitudeMeters>1212.4000244140625</AltitudeMeters>
            <DistanceMeters>7369.0991594634</DistanceMeters>
          </Trackpoint>
          <Trackpoint>
            <Time>2023-02-23T10:11:42.000Z</Time>
            <Position>
              <LatitudeDegrees>41.53239802457392215728759765625</LatitudeDegrees>
              <LongitudeDegrees>-4.58685167133808135986328125</LongitudeDegrees>
            </Position>
            <AltitudeMeters>1212.5999755859375</AltitudeMeters>
            <DistanceMeters>7372.7697008477</DistanceMeters>
          </Trackpoint>
          <Trackpoint>
            <Time>2023-02-23T10:11:49.000Z</Time>
            <Position>
              <LatitudeDegrees>41.53234991244971752166748046875</LatitudeDegrees>
              <LongitudeDegrees>-4.5867267809808254241943359375</LongitudeDegrees>
            </Position>
            <AltitudeMeters>1212.5999755859375</AltitudeMeters>
            <DistanceMeters>7384.4722706232</DistanceMeters>
          </Trackpoint>
          <Trackpoint>
            <Time>2023-02-23T10:11:51.000Z</Time>
            <Position>
              <LatitudeDegrees>41.5323396027088165283203125</LatitudeDegrees>
              <LongitudeDegrees>-4.5866858772933483123779296875</LongitudeDegrees>
            </Position>
            <AltitudeMeters>1212.5999755859375</AltitudeMeters>
            <DistanceMeters>7388.0682502488</DistanceMeters>
          </Trackpoint>
          <Trackpoint>
            <Time>2023-02-23T10:11:54.000Z</Time>
            <Position>
              <LatitudeDegrees>41.53231403790414333343505859375</LatitudeDegrees>
              <LongitudeDegrees>-4.58662678487598896026611328125</LongitudeDegrees>
            </Position>
            <AltitudeMeters>1213</AltitudeMeters>
            <DistanceMeters>7393.7547873098</DistanceMeters>
          </Trackpoint>
          <Trackpoint>
            <Time>2023-02-23T10:11:58.000Z</Time>
            <Position>
              <LatitudeDegrees>41.53227464295923709869384765625</LatitudeDegrees>
              <LongitudeDegrees>-4.5865420438349246978759765625</LongitudeDegrees>
            </Position>
            <AltitudeMeters>1213.199951171875</AltitudeMeters>
            <DistanceMeters>7402.066230313</DistanceMeters>
          </Trackpoint>
          <Trackpoint>
            <Time>2023-02-23T10:12:05.000Z</Time>
            <Position>
              <LatitudeDegrees>41.53223558329045772552490234375</LatitudeDegrees>
              <LongitudeDegrees>-4.5863975398242473602294921875</LongitudeDegrees>
            </Position>
            <AltitudeMeters>1213.5999755859375</AltitudeMeters>
            <DistanceMeters>7414.8670024441</DistanceMeters>
          </Trackpoint>
          <Trackpoint>
            <Time>2023-02-23T10:12:08.000Z</Time>
            <Position>
              <LatitudeDegrees>41.5322059951722621917724609375</LatitudeDegrees>
              <LongitudeDegrees>-4.5862998068332672119140625</LongitudeDegrees>
            </Position>
            <AltitudeMeters>1212.5999755859375</AltitudeMeters>
            <DistanceMeters>7423.6506789601</DistanceMeters>
          </Trackpoint>
          <Trackpoint>
            <Time>2023-02-23T10:12:09.000Z</Time>
            <Position>
              <LatitudeDegrees>41.532191745936870574951171875</LatitudeDegrees>
              <LongitudeDegrees>-4.586280025541782379150390625</LongitudeDegrees>
            </Position>
            <AltitudeMeters>1212.199951171875</AltitudeMeters>
            <DistanceMeters>7425.9392252973</DistanceMeters>
          </Trackpoint>
          <Trackpoint>
            <Time>2023-02-23T10:12:11.000Z</Time>
            <Position>
              <LatitudeDegrees>41.5321731381118297576904296875</LatitudeDegrees>
              <LongitudeDegrees>-4.58626066334545612335205078125</LongitudeDegrees>
            </Position>
            <AltitudeMeters>1212.4000244140625</AltitudeMeters>
            <DistanceMeters>7428.564096404</DistanceMeters>
          </Trackpoint>
          <Trackpoint>
            <Time>2023-02-23T10:12:14.000Z</Time>
            <Position>
              <LatitudeDegrees>41.53216450475156307220458984375</LatitudeDegrees>
              <LongitudeDegrees>-4.586247503757476806640625</LongitudeDegrees>
            </Position>
            <AltitudeMeters>1213</AltitudeMeters>
            <DistanceMeters>7430.0177256166</DistanceMeters>
          </Trackpoint>
          <Trackpoint>
            <Time>2023-02-23T10:12:19.000Z</Time>
            <Position>
              <LatitudeDegrees>41.53215846978127956390380859375</LatitudeDegrees>
              <LongitudeDegrees>-4.586252532899379730224609375</LongitudeDegrees>
            </Position>
            <AltitudeMeters>1213.5999755859375</AltitudeMeters>
            <DistanceMeters>7430.8127761503</DistanceMeters>
          </Trackpoint>
          <Trackpoint>
            <Time>2023-02-23T10:12:20.000Z</Time>
            <Position>
              <LatitudeDegrees>41.53215394355356693267822265625</LatitudeDegrees>
              <LongitudeDegrees>-4.586260579526424407958984375</LongitudeDegrees>
            </Position>
            <AltitudeMeters>1213.5999755859375</AltitudeMeters>
            <DistanceMeters>7431.6520293675</DistanceMeters>
          </Trackpoint>
          <Trackpoint>
            <Time>2023-02-23T10:12:22.000Z</Time>
            <Position>
              <LatitudeDegrees>41.53214438818395137786865234375</LatitudeDegrees>
              <LongitudeDegrees>-4.5862795226275920867919921875</LongitudeDegrees>
            </Position>
            <AltitudeMeters>1213.800048828125</AltitudeMeters>
            <DistanceMeters>7433.5549378398</DistanceMeters>
          </Trackpoint>
          <Trackpoint>
            <Time>2023-02-23T10:12:25.000Z</Time>
            <Position>
              <LatitudeDegrees>41.53212712146341800689697265625</LatitudeDegrees>
              <LongitudeDegrees>-4.5862989686429500579833984375</LongitudeDegrees>
            </Position>
            <AltitudeMeters>1213.4000244140625</AltitudeMeters>
            <DistanceMeters>7436.0691083811</DistanceMeters>
          </Trackpoint>
          <Trackpoint>
            <Time>2023-02-23T10:12:26.000Z</Time>
            <Position>
              <LatitudeDegrees>41.5321258641779422760009765625</LatitudeDegrees>
              <LongitudeDegrees>-4.58630156703293323516845703125</LongitudeDegrees>
            </Position>
            <AltitudeMeters>1213.4000244140625</AltitudeMeters>
            <DistanceMeters>7436.3378845176</DistanceMeters>
          </Trackpoint>
          <Trackpoint>
            <Time>2023-02-23T10:12:29.000Z</Time>
            <Position>
              <LatitudeDegrees>41.53212661854922771453857421875</LatitudeDegrees>
              <LongitudeDegrees>-4.586312212049961090087890625</LongitudeDegrees>
            </Position>
            <AltitudeMeters>1213.199951171875</AltitudeMeters>
            <DistanceMeters>7437.229314115</DistanceMeters>
          </Trackpoint>
          <Trackpoint>
            <Time>2023-02-23T10:12:34.000Z</Time>
            <Position>
              <LatitudeDegrees>41.53211086057126522064208984375</LatitudeDegrees>
              <LongitudeDegrees>-4.5863802731037139892578125</LongitudeDegrees>
            </Position>
            <AltitudeMeters>1213.5999755859375</AltitudeMeters>
            <DistanceMeters>7443.1652519755</DistanceMeters>
          </Trackpoint>
          <Trackpoint>
            <Time>2023-02-23T10:12:35.000Z</Time>
            <Position>
              <LatitudeDegrees>41.5321040712296962738037109375</LatitudeDegrees>
              <LongitudeDegrees>-4.58639142103493213653564453125</LongitudeDegrees>
            </Position>
            <AltitudeMeters>1213.5999755859375</AltitudeMeters>
            <DistanceMeters>7444.3597192535</DistanceMeters>
          </Trackpoint>
          <Trackpoint>
            <Time>2023-02-23T10:12:39.000Z</Time>
            <Position>
              <LatitudeDegrees>41.532083451747894287109375</LatitudeDegrees>
              <LongitudeDegrees>-4.58643970079720020294189453125</LongitudeDegrees>
            </Position>
            <AltitudeMeters>1213.5999755859375</AltitudeMeters>
            <DistanceMeters>7448.9917233156</DistanceMeters>
          </Trackpoint>
          <Trackpoint>
            <Time>2023-02-23T10:12:41.000Z</Time>
            <Position>
              <LatitudeDegrees>41.53207079507410526275634765625</LatitudeDegrees>
              <LongitudeDegrees>-4.58645512349903583526611328125</LongitudeDegrees>
            </Position>
            <AltitudeMeters>1213.5999755859375</AltitudeMeters>
            <DistanceMeters>7450.8970030143</DistanceMeters>
          </Trackpoint>
          <Trackpoint>
            <Time>2023-02-23T10:12:44.000Z</Time>
            <Position>
              <LatitudeDegrees>41.5320655144751071929931640625</LatitudeDegrees>
              <LongitudeDegrees>-4.5864645950496196746826171875</LongitudeDegrees>
            </Position>
            <AltitudeMeters>1213.5999755859375</AltitudeMeters>
            <DistanceMeters>7451.875362919</DistanceMeters>
          </Trackpoint>
          <Trackpoint>
            <Time>2023-02-23T10:12:45.000Z</Time>
            <Position>
              <LatitudeDegrees>41.53206325136125087738037109375</LatitudeDegrees>
              <LongitudeDegrees>-4.58647289313375949859619140625</LongitudeDegrees>
            </Position>
            <AltitudeMeters>1213.5999755859375</AltitudeMeters>
            <DistanceMeters>7452.6114366834</DistanceMeters>
          </Trackpoint>
          <Trackpoint>
            <Time>2023-02-23T10:12:47.000Z</Time>
            <Position>
              <LatitudeDegrees>41.5320544503629207611083984375</LatitudeDegrees>
              <LongitudeDegrees>-4.5865036547183990478515625</LongitudeDegrees>
            </Position>
            <AltitudeMeters>1214</AltitudeMeters>
            <DistanceMeters>7455.3557186941</DistanceMeters>
          </Trackpoint>
          <Trackpoint>
            <Time>2023-02-23T10:12:48.000Z</Time>
            <Position>
              <LatitudeDegrees>41.5320472419261932373046875</LatitudeDegrees>
              <LongitudeDegrees>-4.586518071591854095458984375</LongitudeDegrees>
            </Position>
            <AltitudeMeters>1214</AltitudeMeters>
            <DistanceMeters>7456.8031224854</DistanceMeters>
          </Trackpoint>
          <Trackpoint>
            <Time>2023-02-23T10:12:51.000Z</Time>
            <Position>
              <LatitudeDegrees>41.5320413745939731597900390625</LatitudeDegrees>
              <LongitudeDegrees>-4.586542546749114990234375</LongitudeDegrees>
            </Position>
            <AltitudeMeters>1214.199951171875</AltitudeMeters>
            <DistanceMeters>7458.9470228818</DistanceMeters>
          </Trackpoint>
          <Trackpoint>
            <Time>2023-02-23T10:12:53.000Z</Time>
            <Position>
              <LatitudeDegrees>41.5320365130901336669921875</LatitudeDegrees>
              <LongitudeDegrees>-4.5865464024245738983154296875</LongitudeDegrees>
            </Position>
            <AltitudeMeters>1214</AltitudeMeters>
            <DistanceMeters>7459.5701547195</DistanceMeters>
          </Trackpoint>
          <Trackpoint>
            <Time>2023-02-23T10:12:54.000Z</Time>
            <Position>
              <LatitudeDegrees>41.5320333279669284820556640625</LatitudeDegrees>
              <LongitudeDegrees>-4.586547911167144775390625</LongitudeDegrees>
            </Position>
            <AltitudeMeters>1214</AltitudeMeters>
            <DistanceMeters>7459.9381916017</DistanceMeters>
          </Trackpoint>
          <Trackpoint>
            <Time>2023-02-23T10:12:58.000Z</Time>
            <Position>
              <LatitudeDegrees>41.53204196132719516754150390625</LatitudeDegrees>
              <LongitudeDegrees>-4.58656677044928073883056640625</LongitudeDegrees>
            </Position>
            <AltitudeMeters>1214</AltitudeMeters>
            <DistanceMeters>7461.7783760127</DistanceMeters>
          </Trackpoint>
          <Trackpoint>
            <Time>2023-02-23T10:13:01.000Z</Time>
            <Position>
              <LatitudeDegrees>41.53205989859998226165771484375</LatitudeDegrees>
              <LongitudeDegrees>-4.58659409545361995697021484375</LongitudeDegrees>
            </Position>
            <AltitudeMeters>1213.5999755859375</AltitudeMeters>
            <DistanceMeters>7464.8058382487</DistanceMeters>
          </Trackpoint>
          <Trackpoint>
            <Time>2023-02-23T10:13:10.000Z</Time>
            <Position>
              <LatitudeDegrees>41.5320472419261932373046875</LatitudeDegrees>
              <LongitudeDegrees>-4.58671596832573413848876953125</LongitudeDegrees>
            </Position>
            <AltitudeMeters>1213</AltitudeMeters>
            <DistanceMeters>7475.0572786185</DistanceMeters>
          </Trackpoint>
          <Trackpoint>
            <Time>2023-02-23T10:13:17.000Z</Time>
            <Position>
              <LatitudeDegrees>41.5320380218327045440673828125</LatitudeDegrees>
              <LongitudeDegrees>-4.5867924951016902923583984375</LongitudeDegrees>
            </Position>
            <AltitudeMeters>1213</AltitudeMeters>
            <DistanceMeters>7481.5149014797</DistanceMeters>
          </Trackpoint>
          <Trackpoint>
            <Time>2023-02-23T10:13:18.000Z</Time>
            <Position>
              <LatitudeDegrees>41.5320386923849582672119140625</LatitudeDegrees>
              <LongitudeDegrees>-4.58680607378482818603515625</LongitudeDegrees>
            </Position>
            <AltitudeMeters>1213</AltitudeMeters>
            <DistanceMeters>7482.6472754705</DistanceMeters>
          </Trackpoint>
          <Trackpoint>
            <Time>2023-02-23T10:13:20.000Z</Time>
            <Position>
              <LatitudeDegrees>41.532032489776611328125</LatitudeDegrees>
              <LongitudeDegrees>-4.5868186466395854949951171875</LongitudeDegrees>
            </Position>
            <AltitudeMeters>1212.800048828125</AltitudeMeters>
            <DistanceMeters>7483.9007639233</DistanceMeters>
          </Trackpoint>
          <Trackpoint>
            <Time>2023-02-23T10:13:23.000Z</Time>
            <Position>
              <LatitudeDegrees>41.5320185758173465728759765625</LatitudeDegrees>
              <LongitudeDegrees>-4.5868370868265628814697265625</LongitudeDegrees>
            </Position>
            <AltitudeMeters>1212.800048828125</AltitudeMeters>
            <DistanceMeters>7486.0801721479</DistanceMeters>
          </Trackpoint>
          <Trackpoint>
            <Time>2023-02-23T10:13:28.000Z</Time>
            <Position>
              <LatitudeDegrees>41.53202536515891551971435546875</LatitudeDegrees>
              <LongitudeDegrees>-4.586884863674640655517578125</LongitudeDegrees>
            </Position>
            <AltitudeMeters>1211.800048828125</AltitudeMeters>
            <DistanceMeters>7490.1319222605</DistanceMeters>
          </Trackpoint>
          <Trackpoint>
            <Time>2023-02-23T10:13:29.000Z</Time>
            <Position>
              <LatitudeDegrees>41.5320236049592494964599609375</LatitudeDegrees>
              <LongitudeDegrees>-4.5868947543203830718994140625</LongitudeDegrees>
            </Position>
            <AltitudeMeters>1211.5999755859375</AltitudeMeters>
            <DistanceMeters>7490.9765381727</DistanceMeters>
          </Trackpoint>
          <Trackpoint>
            <Time>2023-02-23T10:13:34.000Z</Time>
            <Position>
              <LatitudeDegrees>41.5320477448403835296630859375</LatitudeDegrees>
              <LongitudeDegrees>-4.58694730885326862335205078125</LongitudeDegrees>
            </Position>
            <AltitudeMeters>1211.199951171875</AltitudeMeters>
            <DistanceMeters>7496.1141361957</DistanceMeters>
          </Trackpoint>
          <Trackpoint>
            <Time>2023-02-23T10:13:35.000Z</Time>
            <Position>
              <LatitudeDegrees>41.53205419890582561492919921875</LatitudeDegrees>
              <LongitudeDegrees>-4.58695502020418643951416015625</LongitudeDegrees>
            </Position>
            <AltitudeMeters>1211.199951171875</AltitudeMeters>
            <DistanceMeters>7497.0832223374</DistanceMeters>
          </Trackpoint>
          <Trackpoint>
            <Time>2023-02-23T10:13:41.000Z</Time>
            <Position>
              <LatitudeDegrees>41.5320655144751071929931640625</LatitudeDegrees>
              <LongitudeDegrees>-4.5869728736579418182373046875</LongitudeDegrees>
            </Position>
            <AltitudeMeters>1211.4000244140625</AltitudeMeters>
            <DistanceMeters>7499.0330075007</DistanceMeters>
          </Trackpoint>
          <Trackpoint>
            <Time>2023-02-23T10:13:46.000Z</Time>
            <Position>
              <LatitudeDegrees>41.53209577314555644989013671875</LatitudeDegrees>
              <LongitudeDegrees>-4.58701453171670436859130859375</LongitudeDegrees>
            </Position>
            <AltitudeMeters>1210.800048828125</AltitudeMeters>
            <DistanceMeters>7503.8681773957</DistanceMeters>
          </Trackpoint>
          <Trackpoint>
            <Time>2023-02-23T10:13:49.000Z</Time>
            <Position>
              <LatitudeDegrees>41.532099545001983642578125</LatitudeDegrees>
              <LongitudeDegrees>-4.58702475763857364654541015625</LongitudeDegrees>
            </Position>
            <AltitudeMeters>1210.199951171875</AltitudeMeters>
            <DistanceMeters>7504.8184445394</DistanceMeters>
          </Trackpoint>
          <Trackpoint>
            <Time>2023-02-23T10:13:53.000Z</Time>
            <Position>
              <LatitudeDegrees>41.53210164047777652740478515625</LatitudeDegrees>
              <LongitudeDegrees>-4.5870332233607769012451171875</LongitudeDegrees>
            </Position>
            <AltitudeMeters>1210.800048828125</AltitudeMeters>
            <DistanceMeters>7505.5606269045</DistanceMeters>
          </Trackpoint>
          <Trackpoint>
            <Time>2023-02-23T10:13:56.000Z</Time>
            <Position>
              <LatitudeDegrees>41.53210968710482120513916015625</LatitudeDegrees>
              <LongitudeDegrees>-4.5870412699878215789794921875</LongitudeDegrees>
            </Position>
            <AltitudeMeters>1211.199951171875</AltitudeMeters>
            <DistanceMeters>7506.6769380391</DistanceMeters>
          </Trackpoint>
          <Trackpoint>
            <Time>2023-02-23T10:14:02.000Z</Time>
            <Position>
              <LatitudeDegrees>41.53210415504872798919677734375</LatitudeDegrees>
              <LongitudeDegrees>-4.58705560304224491119384765625</LongitudeDegrees>
            </Position>
            <AltitudeMeters>1211.199951171875</AltitudeMeters>
            <DistanceMeters>7508.0208187216</DistanceMeters>
          </Trackpoint>
          <Trackpoint>
            <Time>2023-02-23T10:14:05.000Z</Time>
            <Position>
              <LatitudeDegrees>41.53210222721099853515625</LatitudeDegrees>
              <LongitudeDegrees>-4.5870680920779705047607421875</LongitudeDegrees>
            </Position>
            <AltitudeMeters>1211.199951171875</AltitudeMeters>
            <DistanceMeters>7509.0832496867</DistanceMeters>
          </Trackpoint>
          <Trackpoint>
            <Time>2023-02-23T10:14:10.000Z</Time>
            <Position>
              <LatitudeDegrees>41.5320928394794464111328125</LatitudeDegrees>
              <LongitudeDegrees>-4.58706230856478214263916015625</LongitudeDegrees>
            </Position>
            <AltitudeMeters>1211</AltitudeMeters>
            <DistanceMeters>7510.2314618451</DistanceMeters>
          </Trackpoint>
          <Trackpoint>
            <Time>2023-02-23T10:14:12.000Z</Time>
            <Position>
              <LatitudeDegrees>41.53209325857460498809814453125</LatitudeDegrees>
              <LongitudeDegrees>-4.58706893026828765869140625</LongitudeDegrees>
            </Position>
            <AltitudeMeters>1211</AltitudeMeters>
            <DistanceMeters>7510.7855580453</DistanceMeters>
          </Trackpoint>
          <Trackpoint>
            <Time>2023-02-23T10:14:20.000Z</Time>
            <Position>
              <LatitudeDegrees>41.5321054123342037200927734375</LatitudeDegrees>
              <LongitudeDegrees>-4.5870918966829776763916015625</LongitudeDegrees>
            </Position>
            <AltitudeMeters>1210.800048828125</AltitudeMeters>
            <DistanceMeters>7513.1286940802</DistanceMeters>
          </Trackpoint>
          <Trackpoint>
            <Time>2023-02-23T10:14:21.000Z</Time>
            <Position>
              <LatitudeDegrees>41.532107256352901458740234375</LatitudeDegrees>
              <LongitudeDegrees>-4.58709239959716796875</LongitudeDegrees>
            </Position>
            <AltitudeMeters>1210.800048828125</AltitudeMeters>
            <DistanceMeters>7513.3187475089</DistanceMeters>
          </Trackpoint>
          <Trackpoint>
            <Time>2023-02-23T10:14:23.000Z</Time>
            <Position>
              <LatitudeDegrees>41.5321169793605804443359375</LatitudeDegrees>
              <LongitudeDegrees>-4.58708829246461391448974609375</LongitudeDegrees>
            </Position>
            <AltitudeMeters>1210.800048828125</AltitudeMeters>
            <DistanceMeters>7514.4511214997</DistanceMeters>
          </Trackpoint>
          <Trackpoint>
            <Time>2023-02-23T10:14:30.000Z</Time>
            <Position>
              <LatitudeDegrees>41.53216592967510223388671875</LatitudeDegrees>
              <LongitudeDegrees>-4.5870776474475860595703125</LongitudeDegrees>
            </Position>
            <AltitudeMeters>1211.5999755859375</AltitudeMeters>
            <DistanceMeters>7519.9716747327</DistanceMeters>
          </Trackpoint>
          <Trackpoint>
            <Time>2023-02-23T10:14:35.000Z</Time>
            <Position>
              <LatitudeDegrees>41.53217263519763946533203125</LatitudeDegrees>
              <LongitudeDegrees>-4.58704001270234584808349609375</LongitudeDegrees>
            </Position>
            <AltitudeMeters>1211.199951171875</AltitudeMeters>
            <DistanceMeters>7523.1955881911</DistanceMeters>
          </Trackpoint>
          <Trackpoint>
            <Time>2023-02-23T10:14:37.000Z</Time>
            <Position>
              <LatitudeDegrees>41.53217238374054431915283203125</LatitudeDegrees>
              <LongitudeDegrees>-4.58702743984758853912353515625</LongitudeDegrees>
            </Position>
            <AltitudeMeters>1211.199951171875</AltitudeMeters>
            <DistanceMeters>7524.2451925576</DistanceMeters>
          </Trackpoint>
          <Trackpoint>
            <Time>2023-02-23T10:14:45.000Z</Time>
            <Position>
              <LatitudeDegrees>41.53214137069880962371826171875</LatitudeDegrees>
              <LongitudeDegrees>-4.5869839377701282501220703125</LongitudeDegrees>
            </Position>
            <AltitudeMeters>1210.4000244140625</AltitudeMeters>
            <DistanceMeters>7529.250133322</DistanceMeters>
          </Trackpoint>
          <Trackpoint>
            <Time>2023-02-23T10:14:52.000Z</Time>
            <Position>
              <LatitudeDegrees>41.5321503393352031707763671875</LatitudeDegrees>
              <LongitudeDegrees>-4.586949907243251800537109375</LongitudeDegrees>
            </Position>
            <AltitudeMeters>1210.800048828125</AltitudeMeters>
            <DistanceMeters>7532.2551418817</DistanceMeters>
          </Trackpoint>
          <Trackpoint>
            <Time>2023-02-23T10:14:53.000Z</Time>
            <Position>
              <LatitudeDegrees>41.53215310536324977874755859375</LatitudeDegrees>
              <LongitudeDegrees>-4.5869416929781436920166015625</LongitudeDegrees>
            </Position>
            <AltitudeMeters>1210.800048828125</AltitudeMeters>
            <DistanceMeters>7533.0033829789</DistanceMeters>
          </Trackpoint>
          <Trackpoint>
            <Time>2023-02-23T10:14:59.000Z</Time>
            <Position>
              <LatitudeDegrees>41.532143466174602508544921875</LatitudeDegrees>
              <LongitudeDegrees>-4.58690640516579151153564453125</LongitudeDegrees>
            </Position>
            <AltitudeMeters>1211.199951171875</AltitudeMeters>
            <DistanceMeters>7536.1335000601</DistanceMeters>
          </Trackpoint>
          <Trackpoint>
            <Time>2023-02-23T10:15:03.000Z</Time>
            <Position>
              <LatitudeDegrees>41.5321277081966400146484375</LatitudeDegrees>
              <LongitudeDegrees>-4.58685996942222118377685546875</LongitudeDegrees>
            </Position>
            <AltitudeMeters>1211.800048828125</AltitudeMeters>
            <DistanceMeters>7540.3821613565</DistanceMeters>
          </Trackpoint>
          <Trackpoint>
            <Time>2023-02-23T10:15:06.000Z</Time>
            <Position>
              <LatitudeDegrees>41.53212008066475391387939453125</LatitudeDegrees>
              <LongitudeDegrees>-4.5868236757814884185791015625</LongitudeDegrees>
            </Position>
            <AltitudeMeters>1212.199951171875</AltitudeMeters>
            <DistanceMeters>7543.5223593561</DistanceMeters>
          </Trackpoint>
          <Trackpoint>
            <Time>2023-02-23T10:15:12.000Z</Time>
            <Position>
              <LatitudeDegrees>41.53210423886775970458984375</LatitudeDegrees>
              <LongitudeDegrees>-4.586776234209537506103515625</LongitudeDegrees>
            </Position>
            <AltitudeMeters>1212</AltitudeMeters>
            <DistanceMeters>7547.8499890243</DistanceMeters>
          </Trackpoint>
          <Trackpoint>
            <Time>2023-02-23T10:15:14.000Z</Time>
            <Position>
              <LatitudeDegrees>41.532094180583953857421875</LatitudeDegrees>
              <LongitudeDegrees>-4.5867354981601238250732421875</LongitudeDegrees>
            </Position>
            <AltitudeMeters>1211.800048828125</AltitudeMeters>
            <DistanceMeters>7551.424560071</DistanceMeters>
          </Trackpoint>
          <Trackpoint>
            <Time>2023-02-23T10:15:19.000Z</Time>
            <Position>
              <LatitudeDegrees>41.5321151353418827056884765625</LatitudeDegrees>
              <LongitudeDegrees>-4.58665612153708934783935546875</LongitudeDegrees>
            </Position>
            <AltitudeMeters>1212.4000244140625</AltitudeMeters>
            <DistanceMeters>7558.4372483083</DistanceMeters>
          </Trackpoint>
          <Trackpoint>
            <Time>2023-02-23T10:15:20.000Z</Time>
            <Position>
              <LatitudeDegrees>41.53212293051183223724365234375</LatitudeDegrees>
              <LongitudeDegrees>-4.58664472214877605438232421875</LongitudeDegrees>
            </Position>
            <AltitudeMeters>1212.4000244140625</AltitudeMeters>
            <DistanceMeters>7559.7262533765</DistanceMeters>
          </Trackpoint>
          <Trackpoint>
            <Time>2023-02-23T10:15:25.000Z</Time>
            <Position>
              <LatitudeDegrees>41.53211857192218303680419921875</LatitudeDegrees>
              <LongitudeDegrees>-4.5865950174629688262939453125</LongitudeDegrees>
            </Position>
            <AltitudeMeters>1212.199951171875</AltitudeMeters>
            <DistanceMeters>7563.8955335487</DistanceMeters>
          </Trackpoint>
          <Trackpoint>
            <Time>2023-02-23T10:15:27.000Z</Time>
            <Position>
              <LatitudeDegrees>41.53212678618729114532470703125</LatitudeDegrees>
              <LongitudeDegrees>-4.58657347597181797027587890625</LongitudeDegrees>
            </Position>
            <AltitudeMeters>1212.199951171875</AltitudeMeters>
            <DistanceMeters>7565.9113545724</DistanceMeters>
          </Trackpoint>
          <Trackpoint>
            <Time>2023-02-23T10:15:31.000Z</Time>
            <Position>
              <LatitudeDegrees>41.5321345813572406768798828125</LatitudeDegrees>
              <LongitudeDegrees>-4.58651480264961719512939453125</LongitudeDegrees>
            </Position>
            <AltitudeMeters>1212.5999755859375</AltitudeMeters>
            <DistanceMeters>7570.8764435638</DistanceMeters>
          </Trackpoint>
          <Trackpoint>
            <Time>2023-02-23T10:15:35.000Z</Time>
            <Position>
              <LatitudeDegrees>41.5321411192417144775390625</LatitudeDegrees>
              <LongitudeDegrees>-4.5864749886095523834228515625</LongitudeDegrees>
            </Position>
            <AltitudeMeters>1212.800048828125</AltitudeMeters>
            <DistanceMeters>7574.2735655362</DistanceMeters>
          </Trackpoint>
          <Trackpoint>
            <Time>2023-02-23T10:15:36.000Z</Time>
            <Position>
              <LatitudeDegrees>41.532142460346221923828125</LatitudeDegrees>
              <LongitudeDegrees>-4.58646451123058795928955078125</LongitudeDegrees>
            </Position>
            <AltitudeMeters>1212.800048828125</AltitudeMeters>
            <DistanceMeters>7575.1599157213</DistanceMeters>
          </Trackpoint>
          <Trackpoint>
            <Time>2023-02-23T10:15:37.000Z</Time>
            <Position>
              <LatitudeDegrees>41.53214489109814167022705078125</LatitudeDegrees>
              <LongitudeDegrees>-4.5864515192806720733642578125</LongitudeDegrees>
            </Position>
            <AltitudeMeters>1213</AltitudeMeters>
            <DistanceMeters>7576.2762268559</DistanceMeters>
          </Trackpoint>
          <Trackpoint>
            <Time>2023-02-23T10:15:41.000Z</Time>
            <Position>
              <LatitudeDegrees>41.532153524458408355712890625</LatitudeDegrees>
              <LongitudeDegrees>-4.58640717901289463043212890625</LongitudeDegrees>
            </Position>
            <AltitudeMeters>1213</AltitudeMeters>
            <DistanceMeters>7580.0915228113</DistanceMeters>
          </Trackpoint>
          <Trackpoint>
            <Time>2023-02-23T10:15:48.000Z</Time>
            <Position>
              <LatitudeDegrees>41.532150842249393463134765625</LatitudeDegrees>
              <LongitudeDegrees>-4.58632553927600383758544921875</LongitudeDegrees>
            </Position>
            <AltitudeMeters>1213.199951171875</AltitudeMeters>
            <DistanceMeters>7586.9003709124</DistanceMeters>
          </Trackpoint>
          <Trackpoint>
            <Time>2023-02-23T10:15:51.000Z</Time>
            <Position>
              <LatitudeDegrees>41.5321634151041507720947265625</LatitudeDegrees>
              <LongitudeDegrees>-4.586287401616573333740234375</LongitudeDegrees>
            </Position>
            <AltitudeMeters>1213</AltitudeMeters>
            <DistanceMeters>7590.372423915</DistanceMeters>
          </Trackpoint>
          <Trackpoint>
            <Time>2023-02-23T10:15:52.000Z</Time>
            <Position>
              <LatitudeDegrees>41.532170288264751434326171875</LatitudeDegrees>
              <LongitudeDegrees>-4.58627642132341861724853515625</LongitudeDegrees>
            </Position>
            <AltitudeMeters>1213.199951171875</AltitudeMeters>
            <DistanceMeters>7591.5668911929</DistanceMeters>
          </Trackpoint>
          <Trackpoint>
            <Time>2023-02-23T10:15:53.000Z</Time>
            <Position>
              <LatitudeDegrees>41.53218076564371585845947265625</LatitudeDegrees>
              <LongitudeDegrees>-4.5862651057541370391845703125</LongitudeDegrees>
            </Position>
            <AltitudeMeters>1213.4000244140625</AltitudeMeters>
            <DistanceMeters>7593.0693954728</DistanceMeters>
          </Trackpoint>
          <Trackpoint>
            <Time>2023-02-23T10:15:56.000Z</Time>
            <Position>
              <LatitudeDegrees>41.53219467960298061370849609375</LatitudeDegrees>
              <LongitudeDegrees>-4.5862500183284282684326171875</LongitudeDegrees>
            </Position>
            <AltitudeMeters>1213.199951171875</AltitudeMeters>
            <DistanceMeters>7595.0649564746</DistanceMeters>
          </Trackpoint>
          <Trackpoint>
            <Time>2023-02-23T10:16:01.000Z</Time>
            <Position>
              <LatitudeDegrees>41.53219409286975860595703125</LatitudeDegrees>
              <LongitudeDegrees>-4.58623467944562435150146484375</LongitudeDegrees>
            </Position>
            <AltitudeMeters>1212.800048828125</AltitudeMeters>
            <DistanceMeters>7596.3469369396</DistanceMeters>
          </Trackpoint>
          <Trackpoint>
            <Time>2023-02-23T10:16:02.000Z</Time>
            <Position>
              <LatitudeDegrees>41.53219333849847316741943359375</LatitudeDegrees>
              <LongitudeDegrees>-4.58622462116181850433349609375</LongitudeDegrees>
            </Position>
            <AltitudeMeters>1212.800048828125</AltitudeMeters>
            <DistanceMeters>7597.1915528518</DistanceMeters>
          </Trackpoint>
          <Trackpoint>
            <Time>2023-02-23T10:16:05.000Z</Time>
            <Position>
              <LatitudeDegrees>41.53218805789947509765625</LatitudeDegrees>
              <LongitudeDegrees>-4.5861883275210857391357421875</LongitudeDegrees>
            </Position>
            <AltitudeMeters>1212.800048828125</AltitudeMeters>
            <DistanceMeters>7600.2707703281</DistanceMeters>
          </Trackpoint>
          <Trackpoint>
            <Time>2023-02-23T10:16:11.000Z</Time>
            <Position>
              <LatitudeDegrees>41.53218805789947509765625</LatitudeDegrees>
              <LongitudeDegrees>-4.5861333422362804412841796875</LongitudeDegrees>
            </Position>
            <AltitudeMeters>1213.5999755859375</AltitudeMeters>
            <DistanceMeters>7604.8508213736</DistanceMeters>
          </Trackpoint>
          <Trackpoint>
            <Time>2023-02-23T10:16:13.000Z</Time>
            <Position>
              <LatitudeDegrees>41.532183028757572174072265625</LatitudeDegrees>
              <LongitudeDegrees>-4.58611213602125644683837890625</LongitudeDegrees>
            </Position>
            <AltitudeMeters>1214</AltitudeMeters>
            <DistanceMeters>7606.703233058</DistanceMeters>
          </Trackpoint>
          <Trackpoint>
            <Time>2023-02-23T10:16:17.000Z</Time>
            <Position>
              <LatitudeDegrees>41.5321518480777740478515625</LatitudeDegrees>
              <LongitudeDegrees>-4.5860615931451320648193359375</LongitudeDegrees>
            </Position>
            <AltitudeMeters>1214.5999755859375</AltitudeMeters>
            <DistanceMeters>7612.1604477425</DistanceMeters>
          </Trackpoint>
          <Trackpoint>
            <Time>2023-02-23T10:16:18.000Z</Time>
            <Position>
              <LatitudeDegrees>41.53214690275490283966064453125</LatitudeDegrees>
              <LongitudeDegrees>-4.586046673357486724853515625</LongitudeDegrees>
            </Position>
            <AltitudeMeters>1214.800048828125</AltitudeMeters>
            <DistanceMeters>7613.521023235</DistanceMeters>
          </Trackpoint>
          <Trackpoint>
            <Time>2023-02-23T10:16:23.000Z</Time>
            <Position>
              <LatitudeDegrees>41.53213600628077983856201171875</LatitudeDegrees>
              <LongitudeDegrees>-4.58598665893077850341796875</LongitudeDegrees>
            </Position>
            <AltitudeMeters>1215.199951171875</AltitudeMeters>
            <DistanceMeters>7618.6665245841</DistanceMeters>
          </Trackpoint>
          <Trackpoint>
            <Time>2023-02-23T10:16:25.000Z</Time>
            <Position>
              <LatitudeDegrees>41.5321288816630840301513671875</LatitudeDegrees>
              <LongitudeDegrees>-4.5859737507998943328857421875</LongitudeDegrees>
            </Position>
            <AltitudeMeters>1215.5999755859375</AltitudeMeters>
            <DistanceMeters>7620.0036689802</DistanceMeters>
          </Trackpoint>
          <Trackpoint>
            <Time>2023-02-23T10:16:27.000Z</Time>
            <Position>
              <LatitudeDegrees>41.53211941011250019073486328125</LatitudeDegrees>
              <LongitudeDegrees>-4.58596042357385158538818359375</LongitudeDegrees>
            </Position>
            <AltitudeMeters>1216.199951171875</AltitudeMeters>
            <DistanceMeters>7621.5359287087</DistanceMeters>
          </Trackpoint>
          <Trackpoint>
            <Time>2023-02-23T10:16:28.000Z</Time>
            <Position>
              <LatitudeDegrees>41.5321184881031513214111328125</LatitudeDegrees>
              <LongitudeDegrees>-4.5859511196613311767578125</LongitudeDegrees>
            </Position>
            <AltitudeMeters>1216.4000244140625</AltitudeMeters>
            <DistanceMeters>7622.3195390699</DistanceMeters>
          </Trackpoint>
          <Trackpoint>
            <Time>2023-02-23T10:16:31.000Z</Time>
            <Position>
              <LatitudeDegrees>41.53211253695189952850341796875</LatitudeDegrees>
              <LongitudeDegrees>-4.5859204418957233428955078125</LongitudeDegrees>
            </Position>
            <AltitudeMeters>1216.5999755859375</AltitudeMeters>
            <DistanceMeters>7624.9598456836</DistanceMeters>
          </Trackpoint>
          <Trackpoint>
            <Time>2023-02-23T10:16:33.000Z</Time>
            <Position>
              <LatitudeDegrees>41.53210247866809368133544921875</LatitudeDegrees>
              <LongitudeDegrees>-4.5858902670443058013916015625</LongitudeDegrees>
            </Position>
            <AltitudeMeters>1216.5999755859375</AltitudeMeters>
            <DistanceMeters>7627.7139815214</DistanceMeters>
          </Trackpoint>
          <Trackpoint>
            <Time>2023-02-23T10:16:35.000Z</Time>
            <Position>
              <LatitudeDegrees>41.53209677897393703460693359375</LatitudeDegrees>
              <LongitudeDegrees>-4.58586822263896465301513671875</LongitudeDegrees>
            </Position>
            <AltitudeMeters>1216.4000244140625</AltitudeMeters>
            <DistanceMeters>7629.6591298525</DistanceMeters>
          </Trackpoint>
          <Trackpoint>
            <Time>2023-02-23T10:16:36.000Z</Time>
            <Position>
              <LatitudeDegrees>41.53209795244038105010986328125</LatitudeDegrees>
              <LongitudeDegrees>-4.585857577621936798095703125</LongitudeDegrees>
            </Position>
            <AltitudeMeters>1216.5999755859375</AltitudeMeters>
            <DistanceMeters>7630.5606324204</DistanceMeters>
          </Trackpoint>
          <Trackpoint>
            <Time>2023-02-23T10:16:39.000Z</Time>
            <Position>
              <LatitudeDegrees>41.5321171469986438751220703125</LatitudeDegrees>
              <LongitudeDegrees>-4.585835449397563934326171875</LongitudeDegrees>
            </Position>
            <AltitudeMeters>1216.5999755859375</AltitudeMeters>
            <DistanceMeters>7633.3827818537</DistanceMeters>
          </Trackpoint>
          <Trackpoint>
            <Time>2023-02-23T10:16:40.000Z</Time>
            <Position>
              <LatitudeDegrees>41.5321245230734348297119140625</LatitudeDegrees>
              <LongitudeDegrees>-4.58582731895148754119873046875</LongitudeDegrees>
            </Position>
            <AltitudeMeters>1216.5999755859375</AltitudeMeters>
            <DistanceMeters>7634.449454077</DistanceMeters>
          </Trackpoint>
          <Trackpoint>
            <Time>2023-02-23T10:16:42.000Z</Time>
            <Position>
              <LatitudeDegrees>41.5321359224617481231689453125</LatitudeDegrees>
              <LongitudeDegrees>-4.5858062803745269775390625</LongitudeDegrees>
            </Position>
            <AltitudeMeters>1216.800048828125</AltitudeMeters>
            <DistanceMeters>7636.6122253543</DistanceMeters>
          </Trackpoint>
          <Trackpoint>
            <Time>2023-02-23T10:16:44.000Z</Time>
            <Position>
              <LatitudeDegrees>41.53214438818395137786865234375</LatitudeDegrees>
              <LongitudeDegrees>-4.585783481597900390625</LongitudeDegrees>
            </Position>
            <AltitudeMeters>1216.800048828125</AltitudeMeters>
            <DistanceMeters>7638.7328333023</DistanceMeters>
          </Trackpoint>
          <Trackpoint>
            <Time>2023-02-23T10:16:46.000Z</Time>
            <Position>
              <LatitudeDegrees>41.5321530215442180633544921875</LatitudeDegrees>
              <LongitudeDegrees>-4.5857561565935611724853515625</LongitudeDegrees>
            </Position>
            <AltitudeMeters>1216.800048828125</AltitudeMeters>
            <DistanceMeters>7641.2053546374</DistanceMeters>
          </Trackpoint>
          <Trackpoint>
            <Time>2023-02-23T10:16:48.000Z</Time>
            <Position>
              <LatitudeDegrees>41.5321607328951358795166015625</LatitudeDegrees>
              <LongitudeDegrees>-4.58573243580758571624755859375</LongitudeDegrees>
            </Position>
            <AltitudeMeters>1217</AltitudeMeters>
            <DistanceMeters>7643.3597592633</DistanceMeters>
          </Trackpoint>
          <Trackpoint>
            <Time>2023-02-23T10:16:53.000Z</Time>
            <Position>
              <LatitudeDegrees>41.5321741439402103424072265625</LatitudeDegrees>
              <LongitudeDegrees>-4.58566504530608654022216796875</LongitudeDegrees>
            </Position>
            <AltitudeMeters>1217.4000244140625</AltitudeMeters>
            <DistanceMeters>7649.1688379916</DistanceMeters>
          </Trackpoint>
          <Trackpoint>
            <Time>2023-02-23T10:16:55.000Z</Time>
            <Position>
              <LatitudeDegrees>41.53217489831149578094482421875</LatitudeDegrees>
              <LongitudeDegrees>-4.5856438390910625457763671875</LongitudeDegrees>
            </Position>
            <AltitudeMeters>1217.4000244140625</AltitudeMeters>
            <DistanceMeters>7650.9364370551</DistanceMeters>
          </Trackpoint>
          <Trackpoint>
            <Time>2023-02-23T10:16:57.000Z</Time>
            <Position>
              <LatitudeDegrees>41.5321815200150012969970703125</LatitudeDegrees>
              <LongitudeDegrees>-4.5856260694563388824462890625</LongitudeDegrees>
            </Position>
            <AltitudeMeters>1217.4000244140625</AltitudeMeters>
            <DistanceMeters>7652.5932844346</DistanceMeters>
          </Trackpoint>
          <Trackpoint>
            <Time>2023-02-23T10:16:59.000Z</Time>
            <Position>
              <LatitudeDegrees>41.532185375690460205078125</LatitudeDegrees>
              <LongitudeDegrees>-4.58560318686068058013916015625</LongitudeDegrees>
            </Position>
            <AltitudeMeters>1217.5999755859375</AltitudeMeters>
            <DistanceMeters>7654.5453838838</DistanceMeters>
          </Trackpoint>
          <Trackpoint>
            <Time>2023-02-23T10:17:00.000Z</Time>
            <Position>
              <LatitudeDegrees>41.53218680061399936676025390625</LatitudeDegrees>
              <LongitudeDegrees>-4.5855917036533355712890625</LongitudeDegrees>
            </Position>
            <AltitudeMeters>1217.4000244140625</AltitudeMeters>
            <DistanceMeters>7655.5144700256</DistanceMeters>
          </Trackpoint>
          <Trackpoint>
            <Time>2023-02-23T10:17:02.000Z</Time>
            <Position>
              <LatitudeDegrees>41.53218797408044338226318359375</LatitudeDegrees>
              <LongitudeDegrees>-4.58557091653347015380859375</LongitudeDegrees>
            </Position>
            <AltitudeMeters>1217.4000244140625</AltitudeMeters>
            <DistanceMeters>7657.2485448382</DistanceMeters>
          </Trackpoint>
          <Trackpoint>
            <Time>2023-02-23T10:17:08.000Z</Time>
            <Position>
              <LatitudeDegrees>41.5322009660303592681884765625</LatitudeDegrees>
              <LongitudeDegrees>-4.58550780080258846282958984375</LongitudeDegrees>
            </Position>
            <AltitudeMeters>1217.199951171875</AltitudeMeters>
            <DistanceMeters>7662.70079315</DistanceMeters>
          </Trackpoint>
          <Trackpoint>
            <Time>2023-02-23T10:17:11.000Z</Time>
            <Position>
              <LatitudeDegrees>41.53222401626408100128173828125</LatitudeDegrees>
              <LongitudeDegrees>-4.58546287380158901214599609375</LongitudeDegrees>
            </Position>
            <AltitudeMeters>1217</AltitudeMeters>
            <DistanceMeters>7667.2382565705</DistanceMeters>
          </Trackpoint>
          <Trackpoint>
            <Time>2023-02-23T10:17:12.000Z</Time>
            <Position>
              <LatitudeDegrees>41.53224145062267780303955078125</LatitudeDegrees>
              <LongitudeDegrees>-4.58545549772679805755615234375</LongitudeDegrees>
            </Position>
            <AltitudeMeters>1217</AltitudeMeters>
            <DistanceMeters>7669.2741360089</DistanceMeters>
          </Trackpoint>
          <Trackpoint>
            <Time>2023-02-23T10:17:13.000Z</Time>
            <Position>
              <LatitudeDegrees>41.5322596393525600433349609375</LatitudeDegrees>
              <LongitudeDegrees>-4.5854495465755462646484375</LongitudeDegrees>
            </Position>
            <AltitudeMeters>1217</AltitudeMeters>
            <DistanceMeters>7671.3582345597</DistanceMeters>
          </Trackpoint>
          <Trackpoint>
            <Time>2023-02-23T10:17:14.000Z</Time>
            <Position>
              <LatitudeDegrees>41.53228755109012126922607421875</LatitudeDegrees>
              <LongitudeDegrees>-4.58545021712779998779296875</LongitudeDegrees>
            </Position>
            <AltitudeMeters>1217</AltitudeMeters>
            <DistanceMeters>7674.466639584</DistanceMeters>
          </Trackpoint>
          <Trackpoint>
            <Time>2023-02-23T10:17:15.000Z</Time>
            <Position>
              <LatitudeDegrees>41.5323074162006378173828125</LatitudeDegrees>
              <LongitudeDegrees>-4.58544476889073848724365234375</LongitudeDegrees>
            </Position>
            <AltitudeMeters>1217</AltitudeMeters>
            <DistanceMeters>7676.7273968172</DistanceMeters>
          </Trackpoint>
          <Trackpoint>
            <Time>2023-02-23T10:17:16.000Z</Time>
            <Position>
              <LatitudeDegrees>41.53232694603502750396728515625</LatitudeDegrees>
              <LongitudeDegrees>-4.58543504588305950164794921875</LongitudeDegrees>
            </Position>
            <AltitudeMeters>1217</AltitudeMeters>
            <DistanceMeters>7679.047294565</DistanceMeters>
          </Trackpoint>
          <Trackpoint>
            <Time>2023-02-23T10:17:17.000Z</Time>
            <Position>
              <LatitudeDegrees>41.5323471464216709136962890625</LatitudeDegrees>
              <LongitudeDegrees>-4.58542096428573131561279296875</LongitudeDegrees>
            </Position>
            <AltitudeMeters>1217</AltitudeMeters>
            <DistanceMeters>7681.5829235655</DistanceMeters>
          </Trackpoint>
          <Trackpoint>
            <Time>2023-02-23T10:17:18.000Z</Time>
            <Position>
              <LatitudeDegrees>41.5323746390640735626220703125</LatitudeDegrees>
              <LongitudeDegrees>-4.5854074694216251373291015625</LongitudeDegrees>
            </Position>
            <AltitudeMeters>1216.800048828125</AltitudeMeters>
            <DistanceMeters>7684.8430462587</DistanceMeters>
          </Trackpoint>
          <Trackpoint>
            <Time>2023-02-23T10:17:21.000Z</Time>
            <Position>
              <LatitudeDegrees>41.5324611403048038482666015625</LatitudeDegrees>
              <LongitudeDegrees>-4.5853851735591888427734375</LongitudeDegrees>
            </Position>
            <AltitudeMeters>1216.4000244140625</AltitudeMeters>
            <DistanceMeters>7694.6478508882</DistanceMeters>
          </Trackpoint>
          <Trackpoint>
            <Time>2023-02-23T10:17:22.000Z</Time>
            <Position>
              <LatitudeDegrees>41.53247295878827571868896484375</LatitudeDegrees>
              <LongitudeDegrees>-4.5853900350630283355712890625</LongitudeDegrees>
            </Position>
            <AltitudeMeters>1216.4000244140625</AltitudeMeters>
            <DistanceMeters>7696.018345653</DistanceMeters>
          </Trackpoint>
          <Trackpoint>
            <Time>2023-02-23T10:17:26.000Z</Time>
            <Position>
              <LatitudeDegrees>41.53249776922166347503662109375</LatitudeDegrees>
              <LongitudeDegrees>-4.5854547433555126190185546875</LongitudeDegrees>
            </Position>
            <AltitudeMeters>1216.4000244140625</AltitudeMeters>
            <DistanceMeters>7702.075506753</DistanceMeters>
          </Trackpoint>
          <Trackpoint>
            <Time>2023-02-23T10:17:28.000Z</Time>
            <Position>
              <LatitudeDegrees>41.5324978530406951904296875</LatitudeDegrees>
              <LongitudeDegrees>-4.58548064343631267547607421875</LongitudeDegrees>
            </Position>
            <AltitudeMeters>1216.800048828125</AltitudeMeters>
            <DistanceMeters>7704.2340987583</DistanceMeters>
          </Trackpoint>
          <Trackpoint>
            <Time>2023-02-23T10:17:34.000Z</Time>
            <Position>
              <LatitudeDegrees>41.53249626047909259796142578125</LatitudeDegrees>
              <LongitudeDegrees>-4.585496820509433746337890625</LongitudeDegrees>
            </Position>
            <AltitudeMeters>1216.5999755859375</AltitudeMeters>
            <DistanceMeters>7705.5913517172</DistanceMeters>
          </Trackpoint>
          <Trackpoint>
            <Time>2023-02-23T10:17:41.000Z</Time>
            <Position>
              <LatitudeDegrees>41.532504893839359283447265625</LatitudeDegrees>
              <LongitudeDegrees>-4.58551165647804737091064453125</LongitudeDegrees>
            </Position>
            <AltitudeMeters>1216.199951171875</AltitudeMeters>
            <DistanceMeters>7707.1585724396</DistanceMeters>
          </Trackpoint>
          <Trackpoint>
            <Time>2023-02-23T10:17:43.000Z</Time>
            <Position>
              <LatitudeDegrees>41.5325013734400272369384765625</LatitudeDegrees>
              <LongitudeDegrees>-4.58552506752312183380126953125</LongitudeDegrees>
            </Position>
            <AltitudeMeters>1216.199951171875</AltitudeMeters>
            <DistanceMeters>7708.3416454927</DistanceMeters>
          </Trackpoint>
          <Trackpoint>
            <Time>2023-02-23T10:17:46.000Z</Time>
            <Position>
              <LatitudeDegrees>41.532490141689777374267578125</LatitudeDegrees>
              <LongitudeDegrees>-4.58554945886135101318359375</LongitudeDegrees>
            </Position>
            <AltitudeMeters>1215.800048828125</AltitudeMeters>
            <DistanceMeters>7710.7267970936</DistanceMeters>
          </Trackpoint>
          <Trackpoint>
            <Time>2023-02-23T10:17:51.000Z</Time>
            <Position>
              <LatitudeDegrees>41.53247128240764141082763671875</LatitudeDegrees>
              <LongitudeDegrees>-4.58557167090475559234619140625</LongitudeDegrees>
            </Position>
            <AltitudeMeters>1215.4000244140625</AltitudeMeters>
            <DistanceMeters>7713.5232316451</DistanceMeters>
          </Trackpoint>
          <Trackpoint>
            <Time>2023-02-23T10:17:52.000Z</Time>
            <Position>
              <LatitudeDegrees>41.532465331256389617919921875</LatitudeDegrees>
              <LongitudeDegrees>-4.58558022044599056243896484375</LongitudeDegrees>
            </Position>
            <AltitudeMeters>1215.4000244140625</AltitudeMeters>
            <DistanceMeters>7714.4923177868</DistanceMeters>
          </Trackpoint>
          <Trackpoint>
            <Time>2023-02-23T10:17:57.000Z</Time>
            <Position>
              <LatitudeDegrees>41.532440520823001861572265625</LatitudeDegrees>
              <LongitudeDegrees>-4.5855992473661899566650390625</LongitudeDegrees>
            </Position>
            <AltitudeMeters>1215.5999755859375</AltitudeMeters>
            <DistanceMeters>7717.6753581212</DistanceMeters>
          </Trackpoint>
          <Trackpoint>
            <Time>2023-02-23T10:17:58.000Z</Time>
            <Position>
              <LatitudeDegrees>41.53243456967175006866455078125</LatitudeDegrees>
              <LongitudeDegrees>-4.58560151048004627227783203125</LongitudeDegrees>
            </Position>
            <AltitudeMeters>1215.5999755859375</AltitudeMeters>
            <DistanceMeters>7718.3606055036</DistanceMeters>
          </Trackpoint>
          <Trackpoint>
            <Time>2023-02-23T10:18:01.000Z</Time>
            <Position>
              <LatitudeDegrees>41.53242886997759342193603515625</LatitudeDegrees>
              <LongitudeDegrees>-4.585586003959178924560546875</LongitudeDegrees>
            </Position>
            <AltitudeMeters>1215.800048828125</AltitudeMeters>
            <DistanceMeters>7719.8017569814</DistanceMeters>
          </Trackpoint>
          <Trackpoint>
            <Time>2023-02-23T10:18:04.000Z</Time>
            <Position>
              <LatitudeDegrees>41.5324326418340206146240234375</LatitudeDegrees>
              <LongitudeDegrees>-4.58556982688605785369873046875</LongitudeDegrees>
            </Position>
            <AltitudeMeters>1215.4000244140625</AltitudeMeters>
            <DistanceMeters>7721.2112309321</DistanceMeters>
          </Trackpoint>
          <Trackpoint>
            <Time>2023-02-23T10:18:08.000Z</Time>
            <Position>
              <LatitudeDegrees>41.5324400179088115692138671875</LatitudeDegrees>
              <LongitudeDegrees>-4.58560402505099773406982421875</LongitudeDegrees>
            </Position>
            <AltitudeMeters>1215.4000244140625</AltitudeMeters>
            <DistanceMeters>7724.1769171017</DistanceMeters>
          </Trackpoint>
          <Trackpoint>
            <Time>2023-02-23T10:18:10.000Z</Time>
            <Position>
              <LatitudeDegrees>41.53244010172784328460693359375</LatitudeDegrees>
              <LongitudeDegrees>-4.585602767765522003173828125</LongitudeDegrees>
            </Position>
            <AltitudeMeters>1215.5999755859375</AltitudeMeters>
            <DistanceMeters>7724.1769171017</DistanceMeters>
          </Trackpoint>
          <Trackpoint>
            <Time>2023-02-23T10:18:19.000Z</Time>
            <Position>
              <LatitudeDegrees>41.532434485852718353271484375</LatitudeDegrees>
              <LongitudeDegrees>-4.58558608777821063995361328125</LongitudeDegrees>
            </Position>
            <AltitudeMeters>1216</AltitudeMeters>
            <DistanceMeters>7725.7003112221</DistanceMeters>
          </Trackpoint>
          <Trackpoint>
            <Time>2023-02-23T10:18:26.000Z</Time>
            <Position>
              <LatitudeDegrees>41.5324665047228336334228515625</LatitudeDegrees>
              <LongitudeDegrees>-4.58562984131276607513427734375</LongitudeDegrees>
            </Position>
            <AltitudeMeters>1215.5999755859375</AltitudeMeters>
            <DistanceMeters>7730.7999798544</DistanceMeters>
          </Trackpoint>
          <Trackpoint>
            <Time>2023-02-23T10:18:31.000Z</Time>
            <Position>
              <LatitudeDegrees>41.5324618108570575714111328125</LatitudeDegrees>
              <LongitudeDegrees>-4.58563470281660556793212890625</LongitudeDegrees>
            </Position>
            <AltitudeMeters>1214</AltitudeMeters>
            <DistanceMeters>7731.4583442438</DistanceMeters>
          </Trackpoint>
          <Trackpoint>
            <Time>2023-02-23T10:18:32.000Z</Time>
            <Position>
              <LatitudeDegrees>41.53245569206774234771728515625</LatitudeDegrees>
              <LongitudeDegrees>-4.58563394844532012939453125</LongitudeDegrees>
            </Position>
            <AltitudeMeters>1213.800048828125</AltitudeMeters>
            <DistanceMeters>7732.1435916262</DistanceMeters>
          </Trackpoint>
          <Trackpoint>
            <Time>2023-02-23T10:18:40.000Z</Time>
            <Position>
              <LatitudeDegrees>41.53243021108210086822509765625</LatitudeDegrees>
              <LongitudeDegrees>-4.585683904588222503662109375</LongitudeDegrees>
            </Position>
            <AltitudeMeters>1213.199951171875</AltitudeMeters>
            <DistanceMeters>7737.1809038865</DistanceMeters>
          </Trackpoint>
          <Trackpoint>
            <Time>2023-02-23T10:18:41.000Z</Time>
            <Position>
              <LatitudeDegrees>41.5324279479682445526123046875</LatitudeDegrees>
              <LongitudeDegrees>-4.5856880955398082733154296875</LongitudeDegrees>
            </Position>
            <AltitudeMeters>1213</AltitudeMeters>
            <DistanceMeters>7737.6058762725</DistanceMeters>
          </Trackpoint>
          <Trackpoint>
            <Time>2023-02-23T10:18:42.000Z</Time>
            <Position>
              <LatitudeDegrees>41.53242803178727626800537109375</LatitudeDegrees>
              <LongitudeDegrees>-4.5856827311217784881591796875</LongitudeDegrees>
            </Position>
            <AltitudeMeters>1213</AltitudeMeters>
            <DistanceMeters>7738.0515910712</DistanceMeters>
          </Trackpoint>
          <Trackpoint>
            <Time>2023-02-23T10:18:43.000Z</Time>
            <Position>
              <LatitudeDegrees>41.5324242599308490753173828125</LatitudeDegrees>
              <LongitudeDegrees>-4.58568449132144451141357421875</LongitudeDegrees>
            </Position>
            <AltitudeMeters>1213</AltitudeMeters>
            <DistanceMeters>7738.4870581828</DistanceMeters>
          </Trackpoint>
          <Trackpoint>
            <Time>2023-02-23T10:18:44.000Z</Time>
            <Position>
              <LatitudeDegrees>41.532421074807643890380859375</LatitudeDegrees>
              <LongitudeDegrees>-4.5856807194650173187255859375</LongitudeDegrees>
            </Position>
            <AltitudeMeters>1213</AltitudeMeters>
            <DistanceMeters>7738.9621917547</DistanceMeters>
          </Trackpoint>
          <Trackpoint>
            <Time>2023-02-23T10:18:46.000Z</Time>
            <Position>
              <LatitudeDegrees>41.532427109777927398681640625</LatitudeDegrees>
              <LongitudeDegrees>-4.5856595970690250396728515625</LongitudeDegrees>
            </Position>
            <AltitudeMeters>1213</AltitudeMeters>
            <DistanceMeters>7740.8484181777</DistanceMeters>
          </Trackpoint>
          <Trackpoint>
            <Time>2023-02-23T10:18:47.000Z</Time>
            <Position>
              <LatitudeDegrees>41.5324296243488788604736328125</LatitudeDegrees>
              <LongitudeDegrees>-4.58565398119390010833740234375</LongitudeDegrees>
            </Position>
            <AltitudeMeters>1213</AltitudeMeters>
            <DistanceMeters>7741.3859704507</DistanceMeters>
          </Trackpoint>
          <Trackpoint>
            <Time>2023-02-23T10:18:52.000Z</Time>
            <Position>
              <LatitudeDegrees>41.5324346534907817840576171875</LatitudeDegrees>
              <LongitudeDegrees>-4.58566487766802310943603515625</LongitudeDegrees>
            </Position>
            <AltitudeMeters>1213.5999755859375</AltitudeMeters>
            <DistanceMeters>7742.452642674</DistanceMeters>
          </Trackpoint>
          <Trackpoint>
            <Time>2023-02-23T10:18:54.000Z</Time>
            <Position>
              <LatitudeDegrees>41.53243725188076496124267578125</LatitudeDegrees>
              <LongitudeDegrees>-4.58566035144031047821044921875</LongitudeDegrees>
            </Position>
            <AltitudeMeters>1213.800048828125</AltitudeMeters>
            <DistanceMeters>7742.9277762459</DistanceMeters>
          </Trackpoint>
          <Trackpoint>
            <Time>2023-02-23T10:18:56.000Z</Time>
            <Position>
              <LatitudeDegrees>41.53243708424270153045654296875</LatitudeDegrees>
              <LongitudeDegrees>-4.58566387183964252471923828125</LongitudeDegrees>
            </Position>
            <AltitudeMeters>1213.800048828125</AltitudeMeters>
            <DistanceMeters>7743.2282771018</DistanceMeters>
          </Trackpoint>
          <Trackpoint>
            <Time>2023-02-23T10:19:00.000Z</Time>
            <Position>
              <LatitudeDegrees>41.53243809007108211517333984375</LatitudeDegrees>
              <LongitudeDegrees>-4.5856686495244503021240234375</LongitudeDegrees>
            </Position>
            <AltitudeMeters>1213.5999755859375</AltitudeMeters>
            <DistanceMeters>7743.6314413066</DistanceMeters>
          </Trackpoint>
          <Trackpoint>
            <Time>2023-02-23T10:19:05.000Z</Time>
            <Position>
              <LatitudeDegrees>41.53243926353752613067626953125</LatitudeDegrees>
              <LongitudeDegrees>-4.58565750159323215484619140625</LongitudeDegrees>
            </Position>
            <AltitudeMeters>1213.5999755859375</AltitudeMeters>
            <DistanceMeters>7744.5721577843</DistanceMeters>
          </Trackpoint>
          <Trackpoint>
            <Time>2023-02-23T10:19:09.000Z</Time>
            <Position>
              <LatitudeDegrees>41.532433144748210906982421875</LatitudeDegrees>
              <LongitudeDegrees>-4.5856498740613460540771484375</LongitudeDegrees>
            </Position>
            <AltitudeMeters>1214</AltitudeMeters>
            <DistanceMeters>7745.5032256329</DistanceMeters>
          </Trackpoint>
          <Trackpoint>
            <Time>2023-02-23T10:19:11.000Z</Time>
            <Position>
              <LatitudeDegrees>41.532429791986942291259765625</LatitudeDegrees>
              <LongitudeDegrees>-4.58564207889139652252197265625</LongitudeDegrees>
            </Position>
            <AltitudeMeters>1214</AltitudeMeters>
            <DistanceMeters>7746.2514667301</DistanceMeters>
          </Trackpoint>
          <Trackpoint>
            <Time>2023-02-23T10:19:15.000Z</Time>
            <Position>
              <LatitudeDegrees>41.5324232541024684906005859375</LatitudeDegrees>
              <LongitudeDegrees>-4.5856193639338016510009765625</LongitudeDegrees>
            </Position>
            <AltitudeMeters>1214.4000244140625</AltitudeMeters>
            <DistanceMeters>7748.2806820608</DistanceMeters>
          </Trackpoint>
          <Trackpoint>
            <Time>2023-02-23T10:19:23.000Z</Time>
            <Position>
              <LatitudeDegrees>41.532425768673419952392578125</LatitudeDegrees>
              <LongitudeDegrees>-4.58557385019958019256591796875</LongitudeDegrees>
            </Position>
            <AltitudeMeters>1214.4000244140625</AltitudeMeters>
            <DistanceMeters>7752.082938284</DistanceMeters>
          </Trackpoint>
          <Trackpoint>
            <Time>2023-02-23T10:19:25.000Z</Time>
            <Position>
              <LatitudeDegrees>41.53242534957826137542724609375</LatitudeDegrees>
              <LongitudeDegrees>-4.5855595171451568603515625</LongitudeDegrees>
            </Position>
            <AltitudeMeters>1215.199951171875</AltitudeMeters>
            <DistanceMeters>7753.277405562</DistanceMeters>
          </Trackpoint>
          <Trackpoint>
            <Time>2023-02-23T10:19:30.000Z</Time>
            <Position>
              <LatitudeDegrees>41.53242635540664196014404296875</LatitudeDegrees>
              <LongitudeDegrees>-4.58552154712378978729248046875</LongitudeDegrees>
            </Position>
            <AltitudeMeters>1215.5999755859375</AltitudeMeters>
            <DistanceMeters>7756.4433785329</DistanceMeters>
          </Trackpoint>
          <Trackpoint>
            <Time>2023-02-23T10:19:37.000Z</Time>
            <Position>
              <LatitudeDegrees>41.53245569206774234771728515625</LatitudeDegrees>
              <LongitudeDegrees>-4.585534371435642242431640625</LongitudeDegrees>
            </Position>
            <AltitudeMeters>1215.800048828125</AltitudeMeters>
            <DistanceMeters>7759.8801415432</DistanceMeters>
          </Trackpoint>
          <Trackpoint>
            <Time>2023-02-23T10:19:43.000Z</Time>
            <Position>
              <LatitudeDegrees>41.5324530936777591705322265625</LatitudeDegrees>
              <LongitudeDegrees>-4.58556010387837886810302734375</LongitudeDegrees>
            </Position>
            <AltitudeMeters>1216.199951171875</AltitudeMeters>
            <DistanceMeters>7762.0429128205</DistanceMeters>
          </Trackpoint>
          <Trackpoint>
            <Time>2023-02-23T10:19:44.000Z</Time>
            <Position>
              <LatitudeDegrees>41.53245619498193264007568359375</LatitudeDegrees>
              <LongitudeDegrees>-4.58557200618088245391845703125</LongitudeDegrees>
            </Position>
            <AltitudeMeters>1216.199951171875</AltitudeMeters>
            <DistanceMeters>7763.0968100653</DistanceMeters>
          </Trackpoint>
          <Trackpoint>
            <Time>2023-02-23T10:19:46.000Z</Time>
            <Position>
              <LatitudeDegrees>41.53246365487575531005859375</LatitudeDegrees>
              <LongitudeDegrees>-4.585589356720447540283203125</LongitudeDegrees>
            </Position>
            <AltitudeMeters>1216</AltitudeMeters>
            <DistanceMeters>7764.7645221342</DistanceMeters>
          </Trackpoint>
          <Trackpoint>
            <Time>2023-02-23T10:19:49.000Z</Time>
            <Position>
              <LatitudeDegrees>41.53247547335922718048095703125</LatitudeDegrees>
              <LongitudeDegrees>-4.58558357320725917816162109375</LongitudeDegrees>
            </Position>
            <AltitudeMeters>1215.199951171875</AltitudeMeters>
            <DistanceMeters>7766.161123907</DistanceMeters>
          </Trackpoint>
          <Trackpoint>
            <Time>2023-02-23T10:19:50.000Z</Time>
            <Position>
              <LatitudeDegrees>41.53248167596757411956787109375</LatitudeDegrees>
              <LongitudeDegrees>-4.58557753823697566986083984375</LongitudeDegrees>
            </Position>
            <AltitudeMeters>1215.199951171875</AltitudeMeters>
            <DistanceMeters>7767.0110686791</DistanceMeters>
          </Trackpoint>
          <Trackpoint>
            <Time>2023-02-23T10:19:55.000Z</Time>
            <Position>
              <LatitudeDegrees>41.5325193107128143310546875</LatitudeDegrees>
              <LongitudeDegrees>-4.58553160540759563446044921875</LongitudeDegrees>
            </Position>
            <AltitudeMeters>1215.4000244140625</AltitudeMeters>
            <DistanceMeters>7772.6840918983</DistanceMeters>
          </Trackpoint>
          <Trackpoint>
            <Time>2023-02-23T10:19:56.000Z</Time>
            <Position>
              <LatitudeDegrees>41.53251998126506805419921875</LatitudeDegrees>
              <LongitudeDegrees>-4.58551785908639430999755859375</LongitudeDegrees>
            </Position>
            <AltitudeMeters>1215.5999755859375</AltitudeMeters>
            <DistanceMeters>7773.8323040568</DistanceMeters>
          </Trackpoint>
          <Trackpoint>
            <Time>2023-02-23T10:20:02.000Z</Time>
            <Position>
              <LatitudeDegrees>41.53251193463802337646484375</LatitudeDegrees>
              <LongitudeDegrees>-4.5854986645281314849853515625</LongitudeDegrees>
            </Position>
            <AltitudeMeters>1216</AltitudeMeters>
            <DistanceMeters>7775.6651129495</DistanceMeters>
          </Trackpoint>
          <Trackpoint>
            <Time>2023-02-23T10:20:05.000Z</Time>
            <Position>
              <LatitudeDegrees>41.53251084499061107635498046875</LatitudeDegrees>
              <LongitudeDegrees>-4.5854949764907360076904296875</LongitudeDegrees>
            </Position>
            <AltitudeMeters>1215.800048828125</AltitudeMeters>
            <DistanceMeters>7776.0077366407</DistanceMeters>
          </Trackpoint>
          <Trackpoint>
            <Time>2023-02-23T10:20:06.000Z</Time>
            <Position>
              <LatitudeDegrees>41.53251000680029392242431640625</LatitudeDegrees>
              <LongitudeDegrees>-4.5854924619197845458984375</LongitudeDegrees>
            </Position>
            <AltitudeMeters>1215.5999755859375</AltitudeMeters>
            <DistanceMeters>7776.2405036028</DistanceMeters>
          </Trackpoint>
          <Trackpoint>
            <Time>2023-02-23T10:20:09.000Z</Time>
            <Position>
              <LatitudeDegrees>41.532495506107807159423828125</LatitudeDegrees>
              <LongitudeDegrees>-4.5855140872299671173095703125</LongitudeDegrees>
            </Position>
            <AltitudeMeters>1215.5999755859375</AltitudeMeters>
            <DistanceMeters>7778.6594888313</DistanceMeters>
          </Trackpoint>
          <Trackpoint>
            <Time>2023-02-23T10:20:11.000Z</Time>
            <Position>
              <LatitudeDegrees>41.53250346891582012176513671875</LatitudeDegrees>
              <LongitudeDegrees>-4.58550813607871532440185546875</LongitudeDegrees>
            </Position>
            <AltitudeMeters>1215.5999755859375</AltitudeMeters>
            <DistanceMeters>7779.6740964967</DistanceMeters>
          </Trackpoint>
          <Trackpoint>
            <Time>2023-02-23T10:20:13.000Z</Time>
            <Position>
              <LatitudeDegrees>41.53251319192349910736083984375</LatitudeDegrees>
              <LongitudeDegrees>-4.58548617549240589141845703125</LongitudeDegrees>
            </Position>
            <AltitudeMeters>1216.199951171875</AltitudeMeters>
            <DistanceMeters>7781.7989584268</DistanceMeters>
          </Trackpoint>
          <Trackpoint>
            <Time>2023-02-23T10:20:15.000Z</Time>
            <Position>
              <LatitudeDegrees>41.53251838870346546173095703125</LatitudeDegrees>
              <LongitudeDegrees>-4.5854637958109378814697265625</LongitudeDegrees>
            </Position>
            <AltitudeMeters>1216.4000244140625</AltitudeMeters>
            <DistanceMeters>7783.7510578759</DistanceMeters>
          </Trackpoint>
          <Trackpoint>
            <Time>2023-02-23T10:20:19.000Z</Time>
            <Position>
              <LatitudeDegrees>41.532486788928508758544921875</LatitudeDegrees>
              <LongitudeDegrees>-4.5854575932025909423828125</LongitudeDegrees>
            </Position>
            <AltitudeMeters>1216</AltitudeMeters>
            <DistanceMeters>7787.3066319535</DistanceMeters>
          </Trackpoint>
          <Trackpoint>
            <Time>2023-02-23T10:20:20.000Z</Time>
            <Position>
              <LatitudeDegrees>41.53247899375855922698974609375</LatitudeDegrees>
              <LongitudeDegrees>-4.58545801229774951934814453125</LongitudeDegrees>
            </Position>
            <AltitudeMeters>1215.800048828125</AltitudeMeters>
            <DistanceMeters>7788.1775661768</DistanceMeters>
          </Trackpoint>
          <Trackpoint>
            <Time>2023-02-23T10:20:24.000Z</Time>
            <Position>
              <LatitudeDegrees>41.53247195295989513397216796875</LatitudeDegrees>
              <LongitudeDegrees>-4.58545021712779998779296875</LongitudeDegrees>
            </Position>
            <AltitudeMeters>1215.199951171875</AltitudeMeters>
            <DistanceMeters>7789.2010352127</DistanceMeters>
          </Trackpoint>
          <Trackpoint>
            <Time>2023-02-23T10:20:25.000Z</Time>
            <Position>
              <LatitudeDegrees>41.53246776200830936431884765625</LatitudeDegrees>
              <LongitudeDegrees>-4.5854495465755462646484375</LongitudeDegrees>
            </Position>
            <AltitudeMeters>1215</AltitudeMeters>
            <DistanceMeters>7789.6855782836</DistanceMeters>
          </Trackpoint>
          <Trackpoint>
            <Time>2023-02-23T10:20:26.000Z</Time>
            <Position>
              <LatitudeDegrees>41.5324618108570575714111328125</LatitudeDegrees>
              <LongitudeDegrees>-4.585447870194911956787109375</LongitudeDegrees>
            </Position>
            <AltitudeMeters>1215</AltitudeMeters>
            <DistanceMeters>7790.3642047631</DistanceMeters>
          </Trackpoint>
          <Trackpoint>
            <Time>2023-02-23T10:20:34.000Z</Time>
            <Position>
              <LatitudeDegrees>41.5324549376964569091796875</LatitudeDegrees>
              <LongitudeDegrees>-4.58545013330876827239990234375</LongitudeDegrees>
            </Position>
            <AltitudeMeters>1215</AltitudeMeters>
            <DistanceMeters>7791.1535559363</DistanceMeters>
          </Trackpoint>
          <Trackpoint>
            <Time>2023-02-23T10:20:44.000Z</Time>
            <Position>
              <LatitudeDegrees>41.53245535679161548614501953125</LatitudeDegrees>
              <LongitudeDegrees>-4.585475027561187744140625</LongitudeDegrees>
            </Position>
            <AltitudeMeters>1214.5999755859375</AltitudeMeters>
            <DistanceMeters>7793.2289707054</DistanceMeters>
          </Trackpoint>
          <Trackpoint>
            <Time>2023-02-23T10:20:46.000Z</Time>
            <Position>
              <LatitudeDegrees>41.5324554406106472015380859375</LatitudeDegrees>
              <LongitudeDegrees>-4.5854661427438259124755859375</LongitudeDegrees>
            </Position>
            <AltitudeMeters>1214.4000244140625</AltitudeMeters>
            <DistanceMeters>7793.9650444698</DistanceMeters>
          </Trackpoint>
          <Trackpoint>
            <Time>2023-02-23T10:20:47.000Z</Time>
            <Position>
              <LatitudeDegrees>41.5324603021144866943359375</LatitudeDegrees>
              <LongitudeDegrees>-4.5854580961167812347412109375</LongitudeDegrees>
            </Position>
            <AltitudeMeters>1214.4000244140625</AltitudeMeters>
            <DistanceMeters>7794.8255479668</DistanceMeters>
          </Trackpoint>
          <Trackpoint>
            <Time>2023-02-23T10:20:49.000Z</Time>
            <Position>
              <LatitudeDegrees>41.5324728749692440032958984375</LatitudeDegrees>
              <LongitudeDegrees>-4.58543890155851840972900390625</LongitudeDegrees>
            </Position>
            <AltitudeMeters>1214.5999755859375</AltitudeMeters>
            <DistanceMeters>7796.9504098969</DistanceMeters>
          </Trackpoint>
          <Trackpoint>
            <Time>2023-02-23T10:20:51.000Z</Time>
            <Position>
              <LatitudeDegrees>41.53248234651982784271240234375</LatitudeDegrees>
              <LongitudeDegrees>-4.5854155160486698150634765625</LongitudeDegrees>
            </Position>
            <AltitudeMeters>1214.5999755859375</AltitudeMeters>
            <DistanceMeters>7799.1647566424</DistanceMeters>
          </Trackpoint>
          <Trackpoint>
            <Time>2023-02-23T10:20:52.000Z</Time>
            <Position>
              <LatitudeDegrees>41.53248938731849193572998046875</LatitudeDegrees>
              <LongitudeDegrees>-4.58540327847003936767578125</LongitudeDegrees>
            </Position>
            <AltitudeMeters>1214.5999755859375</AltitudeMeters>
            <DistanceMeters>7800.4502542072</DistanceMeters>
          </Trackpoint>
          <Trackpoint>
            <Time>2023-02-23T10:20:56.000Z</Time>
            <Position>
              <LatitudeDegrees>41.5325204841792583465576171875</LatitudeDegrees>
              <LongitudeDegrees>-4.58538022823631763458251953125</LongitudeDegrees>
            </Position>
            <AltitudeMeters>1215.199951171875</AltitudeMeters>
            <DistanceMeters>7804.409573935</DistanceMeters>
          </Trackpoint>
          <Trackpoint>
            <Time>2023-02-23T10:21:01.000Z</Time>
            <Position>
              <LatitudeDegrees>41.53247832320630550384521484375</LatitudeDegrees>
              <LongitudeDegrees>-4.58538307808339595794677734375</LongitudeDegrees>
            </Position>
            <AltitudeMeters>1214.800048828125</AltitudeMeters>
            <DistanceMeters>7809.1073933046</DistanceMeters>
          </Trackpoint>
          <Trackpoint>
            <Time>2023-02-23T10:21:03.000Z</Time>
            <Position>
              <LatitudeDegrees>41.5324899740517139434814453125</LatitudeDegrees>
              <LongitudeDegrees>-4.58540537394583225250244140625</LongitudeDegrees>
            </Position>
            <AltitudeMeters>1215.4000244140625</AltitudeMeters>
            <DistanceMeters>7811.3721412862</DistanceMeters>
          </Trackpoint>
          <Trackpoint>
            <Time>2023-02-23T10:21:04.000Z</Time>
            <Position>
              <LatitudeDegrees>41.5324919857084751129150390625</LatitudeDegrees>
              <LongitudeDegrees>-4.58541828207671642303466796875</LongitudeDegrees>
            </Position>
            <AltitudeMeters>1215.5999755859375</AltitudeMeters>
            <DistanceMeters>7812.4721550331</DistanceMeters>
          </Trackpoint>
          <Trackpoint>
            <Time>2023-02-23T10:21:09.000Z</Time>
            <Position>
              <LatitudeDegrees>41.532493494451045989990234375</LatitudeDegrees>
              <LongitudeDegrees>-4.585469663143157958984375</LongitudeDegrees>
            </Position>
            <AltitudeMeters>1216</AltitudeMeters>
            <DistanceMeters>7816.7578493161</DistanceMeters>
          </Trackpoint>
          <Trackpoint>
            <Time>2023-02-23T10:21:12.000Z</Time>
            <Position>
              <LatitudeDegrees>41.53249558992683887481689453125</LatitudeDegrees>
              <LongitudeDegrees>-4.5854845829308032989501953125</LongitudeDegrees>
            </Position>
            <AltitudeMeters>1216.199951171875</AltitudeMeters>
            <DistanceMeters>7818.0256638163</DistanceMeters>
          </Trackpoint>
          <Trackpoint>
            <Time>2023-02-23T10:21:13.000Z</Time>
            <Position>
              <LatitudeDegrees>41.53249961324036121368408203125</LatitudeDegrees>
              <LongitudeDegrees>-4.58548600785434246063232421875</LongitudeDegrees>
            </Position>
            <AltitudeMeters>1216.4000244140625</AltitudeMeters>
            <DistanceMeters>7818.4911977406</DistanceMeters>
          </Trackpoint>
          <Trackpoint>
            <Time>2023-02-23T10:21:15.000Z</Time>
            <Position>
              <LatitudeDegrees>41.532502882182598114013671875</LatitudeDegrees>
              <LongitudeDegrees>-4.5854922942817211151123046875</LongitudeDegrees>
            </Position>
            <AltitudeMeters>1216.4000244140625</AltitudeMeters>
            <DistanceMeters>7819.1215336538</DistanceMeters>
          </Trackpoint>
          <Trackpoint>
            <Time>2023-02-23T10:21:17.000Z</Time>
            <Position>
              <LatitudeDegrees>41.53250983916223049163818359375</LatitudeDegrees>
              <LongitudeDegrees>-4.5854842476546764373779296875</LongitudeDegrees>
            </Position>
            <AltitudeMeters>1216.4000244140625</AltitudeMeters>
            <DistanceMeters>7820.1450026898</DistanceMeters>
          </Trackpoint>
          <Trackpoint>
            <Time>2023-02-23T10:21:19.000Z</Time>
            <Position>
              <LatitudeDegrees>41.53251939453184604644775390625</LatitudeDegrees>
              <LongitudeDegrees>-4.5854708366096019744873046875</LongitudeDegrees>
            </Position>
            <AltitudeMeters>1216</AltitudeMeters>
            <DistanceMeters>7821.6860770244</DistanceMeters>
          </Trackpoint>
          <Trackpoint>
            <Time>2023-02-23T10:21:20.000Z</Time>
            <Position>
              <LatitudeDegrees>41.5325258485972881317138671875</LatitudeDegrees>
              <LongitudeDegrees>-4.58546924404799938201904296875</LongitudeDegrees>
            </Position>
            <AltitudeMeters>1216</AltitudeMeters>
            <DistanceMeters>7822.4159910674</DistanceMeters>
          </Trackpoint>
          <Trackpoint>
            <Time>2023-02-23T10:21:21.000Z</Time>
            <Position>
              <LatitudeDegrees>41.53253330849111080169677734375</LatitudeDegrees>
              <LongitudeDegrees>-4.5854694955050945281982421875</LongitudeDegrees>
            </Position>
            <AltitudeMeters>1216</AltitudeMeters>
            <DistanceMeters>7823.2498471018</DistanceMeters>
          </Trackpoint>
          <Trackpoint>
            <Time>2023-02-23T10:21:22.000Z</Time>
            <Position>
              <LatitudeDegrees>41.5325389243662357330322265625</LatitudeDegrees>
              <LongitudeDegrees>-4.58547377027571201324462890625</LongitudeDegrees>
            </Position>
            <AltitudeMeters>1216</AltitudeMeters>
            <DistanceMeters>7823.9735489975</DistanceMeters>
          </Trackpoint>
          <Trackpoint>
            <Time>2023-02-23T10:21:23.000Z</Time>
            <Position>
              <LatitudeDegrees>41.532545797526836395263671875</LatitudeDegrees>
              <LongitudeDegrees>-4.58548466674983501434326171875</LongitudeDegrees>
            </Position>
            <AltitudeMeters>1216.199951171875</AltitudeMeters>
            <DistanceMeters>7825.1527995105</DistanceMeters>
          </Trackpoint>
          <Trackpoint>
            <Time>2023-02-23T10:21:27.000Z</Time>
            <Position>
              <LatitudeDegrees>41.53257303871214389801025390625</LatitudeDegrees>
              <LongitudeDegrees>-4.5855241455137729644775390625</LongitudeDegrees>
            </Position>
            <AltitudeMeters>1216</AltitudeMeters>
            <DistanceMeters>7829.6261259461</DistanceMeters>
          </Trackpoint>
          <Trackpoint>
            <Time>2023-02-23T10:21:30.000Z</Time>
            <Position>
              <LatitudeDegrees>41.5325737930834293365478515625</LatitudeDegrees>
              <LongitudeDegrees>-4.58553277887403964996337890625</LongitudeDegrees>
            </Position>
            <AltitudeMeters>1215.800048828125</AltitudeMeters>
            <DistanceMeters>7830.3498278417</DistanceMeters>
          </Trackpoint>
          <Trackpoint>
            <Time>2023-02-23T10:21:32.000Z</Time>
            <Position>
              <LatitudeDegrees>41.532585360109806060791015625</LatitudeDegrees>
              <LongitudeDegrees>-4.5855378918349742889404296875</LongitudeDegrees>
            </Position>
            <AltitudeMeters>1215.800048828125</AltitudeMeters>
            <DistanceMeters>7831.7070808007</DistanceMeters>
          </Trackpoint>
          <Trackpoint>
            <Time>2023-02-23T10:21:34.000Z</Time>
            <Position>
              <LatitudeDegrees>41.53260438703000545501708984375</LatitudeDegrees>
              <LongitudeDegrees>-4.5855258218944072723388671875</LongitudeDegrees>
            </Position>
            <AltitudeMeters>1215.800048828125</AltitudeMeters>
            <DistanceMeters>7834.0502168356</DistanceMeters>
          </Trackpoint>
          <Trackpoint>
            <Time>2023-02-23T10:21:38.000Z</Time>
            <Position>
              <LatitudeDegrees>41.53263674117624759674072265625</LatitudeDegrees>
              <LongitudeDegrees>-4.58550444804131984710693359375</LongitudeDegrees>
            </Position>
            <AltitudeMeters>1216</AltitudeMeters>
            <DistanceMeters>7838.0683976032</DistanceMeters>
          </Trackpoint>
          <Trackpoint>
            <Time>2023-02-23T10:21:39.000Z</Time>
            <Position>
              <LatitudeDegrees>41.53264378197491168975830078125</LatitudeDegrees>
              <LongitudeDegrees>-4.58551584742963314056396484375</LongitudeDegrees>
            </Position>
            <AltitudeMeters>1216</AltitudeMeters>
            <DistanceMeters>7839.3000845937</DistanceMeters>
          </Trackpoint>
          <Trackpoint>
            <Time>2023-02-23T10:21:42.000Z</Time>
            <Position>
              <LatitudeDegrees>41.53265551663935184478759765625</LatitudeDegrees>
              <LongitudeDegrees>-4.58556286990642547607421875</LongitudeDegrees>
            </Position>
            <AltitudeMeters>1216.4000244140625</AltitudeMeters>
            <DistanceMeters>7843.4312883504</DistanceMeters>
          </Trackpoint>
          <Trackpoint>
            <Time>2023-02-23T10:21:46.000Z</Time>
            <Position>
              <LatitudeDegrees>41.53266373090445995330810546875</LatitudeDegrees>
              <LongitudeDegrees>-4.585614837706089019775390625</LongitudeDegrees>
            </Position>
            <AltitudeMeters>1216.4000244140625</AltitudeMeters>
            <DistanceMeters>7847.8579423784</DistanceMeters>
          </Trackpoint>
          <Trackpoint>
            <Time>2023-02-23T10:21:48.000Z</Time>
            <Position>
              <LatitudeDegrees>41.53265476226806640625</LatitudeDegrees>
              <LongitudeDegrees>-4.5856373012065887451171875</LongitudeDegrees>
            </Position>
            <AltitudeMeters>1216.199951171875</AltitudeMeters>
            <DistanceMeters>7849.9785503264</DistanceMeters>
          </Trackpoint>
          <Trackpoint>
            <Time>2023-02-23T10:21:49.000Z</Time>
            <Position>
              <LatitudeDegrees>41.53264780528843402862548828125</LatitudeDegrees>
              <LongitudeDegrees>-4.58564811386168003082275390625</LongitudeDegrees>
            </Position>
            <AltitudeMeters>1216.199951171875</AltitudeMeters>
            <DistanceMeters>7851.1654336084</DistanceMeters>
          </Trackpoint>
          <Trackpoint>
            <Time>2023-02-23T10:21:52.000Z</Time>
            <Position>
              <LatitudeDegrees>41.53263892047107219696044921875</LatitudeDegrees>
              <LongitudeDegrees>-4.5856652967631816864013671875</LongitudeDegrees>
            </Position>
            <AltitudeMeters>1216</AltitudeMeters>
            <DistanceMeters>7852.907302055</DistanceMeters>
          </Trackpoint>
          <Trackpoint>
            <Time>2023-02-23T10:21:54.000Z</Time>
            <Position>
              <LatitudeDegrees>41.53263523243367671966552734375</LatitudeDegrees>
              <LongitudeDegrees>-4.58566437475383281707763671875</LongitudeDegrees>
            </Position>
            <AltitudeMeters>1215.800048828125</AltitudeMeters>
            <DistanceMeters>7853.332274441</DistanceMeters>
          </Trackpoint>
          <Trackpoint>
            <Time>2023-02-23T10:21:55.000Z</Time>
            <Position>
              <LatitudeDegrees>41.53262651525437831878662109375</LatitudeDegrees>
              <LongitudeDegrees>-4.58566554822027683258056640625</LongitudeDegrees>
            </Position>
            <AltitudeMeters>1215.800048828125</AltitudeMeters>
            <DistanceMeters>7854.3106343457</DistanceMeters>
          </Trackpoint>
          <Trackpoint>
            <Time>2023-02-23T10:21:57.000Z</Time>
            <Position>
              <LatitudeDegrees>41.53261796571314334869384765625</LatitudeDegrees>
              <LongitudeDegrees>-4.58567158319056034088134765625</LongitudeDegrees>
            </Position>
            <AltitudeMeters>1215.5999755859375</AltitudeMeters>
            <DistanceMeters>7855.3857388917</DistanceMeters>
          </Trackpoint>
          <Trackpoint>
            <Time>2023-02-23T10:22:02.000Z</Time>
            <Position>
              <LatitudeDegrees>41.53261997736990451812744140625</LatitudeDegrees>
              <LongitudeDegrees>-4.58565046079456806182861328125</LongitudeDegrees>
            </Position>
            <AltitudeMeters>1215</AltitudeMeters>
            <DistanceMeters>7857.1584392619</DistanceMeters>
          </Trackpoint>
          <Trackpoint>
            <Time>2023-02-23T10:22:04.000Z</Time>
            <Position>
              <LatitudeDegrees>41.5326239168643951416015625</LatitudeDegrees>
              <LongitudeDegrees>-4.5856569148600101470947265625</LongitudeDegrees>
            </Position>
            <AltitudeMeters>1214.5999755859375</AltitudeMeters>
            <DistanceMeters>7857.8567401483</DistanceMeters>
          </Trackpoint>
          <Trackpoint>
            <Time>2023-02-23T10:22:11.000Z</Time>
            <Position>
              <LatitudeDegrees>41.53263322077691555023193359375</LatitudeDegrees>
              <LongitudeDegrees>-4.58563135005533695220947265625</LongitudeDegrees>
            </Position>
            <AltitudeMeters>1215</AltitudeMeters>
            <DistanceMeters>7860.2266995463</DistanceMeters>
          </Trackpoint>
          <Trackpoint>
            <Time>2023-02-23T10:22:12.000Z</Time>
            <Position>
              <LatitudeDegrees>41.53263741172850131988525390625</LatitudeDegrees>
              <LongitudeDegrees>-4.58562062121927738189697265625</LongitudeDegrees>
            </Position>
            <AltitudeMeters>1215</AltitudeMeters>
            <DistanceMeters>7861.2413072117</DistanceMeters>
          </Trackpoint>
          <Trackpoint>
            <Time>2023-02-23T10:22:14.000Z</Time>
            <Position>
              <LatitudeDegrees>41.53264193795621395111083984375</LatitudeDegrees>
              <LongitudeDegrees>-4.585598744451999664306640625</LongitudeDegrees>
            </Position>
            <AltitudeMeters>1215.199951171875</AltitudeMeters>
            <DistanceMeters>7863.1323149514</DistanceMeters>
          </Trackpoint>
          <Trackpoint>
            <Time>2023-02-23T10:22:19.000Z</Time>
            <Position>
              <LatitudeDegrees>41.532653756439685821533203125</LatitudeDegrees>
              <LongitudeDegrees>-4.5855462737381458282470703125</LongitudeDegrees>
            </Position>
            <AltitudeMeters>1215.800048828125</AltitudeMeters>
            <DistanceMeters>7867.6975549706</DistanceMeters>
          </Trackpoint>
          <Trackpoint>
            <Time>2023-02-23T10:22:25.000Z</Time>
            <Position>
              <LatitudeDegrees>41.53264713473618030548095703125</LatitudeDegrees>
              <LongitudeDegrees>-4.58552205003798007965087890625</LongitudeDegrees>
            </Position>
            <AltitudeMeters>1215.800048828125</AltitudeMeters>
            <DistanceMeters>7869.8477640626</DistanceMeters>
          </Trackpoint>
          <Trackpoint>
            <Time>2023-02-23T10:22:26.000Z</Time>
            <Position>
              <LatitudeDegrees>41.53263573534786701202392578125</LatitudeDegrees>
              <LongitudeDegrees>-4.58550947718322277069091796875</LongitudeDegrees>
            </Position>
            <AltitudeMeters>1216</AltitudeMeters>
            <DistanceMeters>7871.4936750362</DistanceMeters>
          </Trackpoint>
          <Trackpoint>
            <Time>2023-02-23T10:22:27.000Z</Time>
            <Position>
              <LatitudeDegrees>41.532628275454044342041015625</LatitudeDegrees>
              <LongitudeDegrees>-4.58550922572612762451171875</LongitudeDegrees>
            </Position>
            <AltitudeMeters>1216.199951171875</AltitudeMeters>
            <DistanceMeters>7872.322098726</DistanceMeters>
          </Trackpoint>
          <Trackpoint>
            <Time>2023-02-23T10:22:31.000Z</Time>
            <Position>
              <LatitudeDegrees>41.532571949064731597900390625</LatitudeDegrees>
              <LongitudeDegrees>-4.58547511138021945953369140625</LongitudeDegrees>
            </Position>
            <AltitudeMeters>1216.199951171875</AltitudeMeters>
            <DistanceMeters>7879.2054707994</DistanceMeters>
          </Trackpoint>
          <Trackpoint>
            <Time>2023-02-23T10:22:33.000Z</Time>
            <Position>
              <LatitudeDegrees>41.53254755772650241851806640625</LatitudeDegrees>
              <LongitudeDegrees>-4.585457928478717803955078125</LongitudeDegrees>
            </Position>
            <AltitudeMeters>1216.199951171875</AltitudeMeters>
            <DistanceMeters>7882.2758779072</DistanceMeters>
          </Trackpoint>
          <Trackpoint>
            <Time>2023-02-23T10:22:37.000Z</Time>
            <Position>
              <LatitudeDegrees>41.532516293227672576904296875</LatitudeDegrees>
              <LongitudeDegrees>-4.585404284298419952392578125</LongitudeDegrees>
            </Position>
            <AltitudeMeters>1216</AltitudeMeters>
            <DistanceMeters>7887.9409367491</DistanceMeters>
          </Trackpoint>
          <Trackpoint>
            <Time>2023-02-23T10:22:39.000Z</Time>
            <Position>
              <LatitudeDegrees>41.5325117669999599456787109375</LatitudeDegrees>
              <LongitudeDegrees>-4.58538718521595001220703125</LongitudeDegrees>
            </Position>
            <AltitudeMeters>1215.800048828125</AltitudeMeters>
            <DistanceMeters>7889.4554133639</DistanceMeters>
          </Trackpoint>
          <Trackpoint>
            <Time>2023-02-23T10:22:41.000Z</Time>
            <Position>
              <LatitudeDegrees>41.5325027145445346832275390625</LatitudeDegrees>
              <LongitudeDegrees>-4.58533764816820621490478515625</LongitudeDegrees>
            </Position>
            <AltitudeMeters>1215.5999755859375</AltitudeMeters>
            <DistanceMeters>7893.7051372241</DistanceMeters>
          </Trackpoint>
          <Trackpoint>
            <Time>2023-02-23T10:22:45.000Z</Time>
            <Position>
              <LatitudeDegrees>41.53250397183001041412353515625</LatitudeDegrees>
              <LongitudeDegrees>-4.58525030873715877532958984375</LongitudeDegrees>
            </Position>
            <AltitudeMeters>1215</AltitudeMeters>
            <DistanceMeters>7900.9838361804</DistanceMeters>
          </Trackpoint>
          <Trackpoint>
            <Time>2023-02-23T10:22:46.000Z</Time>
            <Position>
              <LatitudeDegrees>41.53250883333384990692138671875</LatitudeDegrees>
              <LongitudeDegrees>-4.58523605950176715850830078125</LongitudeDegrees>
            </Position>
            <AltitudeMeters>1215</AltitudeMeters>
            <DistanceMeters>7902.2867768435</DistanceMeters>
          </Trackpoint>
          <Trackpoint>
            <Time>2023-02-23T10:22:53.000Z</Time>
            <Position>
              <LatitudeDegrees>41.5325461328029632568359375</LatitudeDegrees>
              <LongitudeDegrees>-4.585144780576229095458984375</LongitudeDegrees>
            </Position>
            <AltitudeMeters>1214.5999755859375</AltitudeMeters>
            <DistanceMeters>7910.9514208382</DistanceMeters>
          </Trackpoint>
          <Trackpoint>
            <Time>2023-02-23T10:22:54.000Z</Time>
            <Position>
              <LatitudeDegrees>41.53255728073418140411376953125</LatitudeDegrees>
              <LongitudeDegrees>-4.58513497374951839447021484375</LongitudeDegrees>
            </Position>
            <AltitudeMeters>1214.5999755859375</AltitudeMeters>
            <DistanceMeters>7912.4357855684</DistanceMeters>
          </Trackpoint>
          <Trackpoint>
            <Time>2023-02-23T10:22:55.000Z</Time>
            <Position>
              <LatitudeDegrees>41.53256968595087528228759765625</LatitudeDegrees>
              <LongitudeDegrees>-4.58512743003666400909423828125</LongitudeDegrees>
            </Position>
            <AltitudeMeters>1214.5999755859375</AltitudeMeters>
            <DistanceMeters>7913.9562129983</DistanceMeters>
          </Trackpoint>
          <Trackpoint>
            <Time>2023-02-23T10:22:56.000Z</Time>
            <Position>
              <LatitudeDegrees>41.532583348453044891357421875</LatitudeDegrees>
              <LongitudeDegrees>-4.58511753939092159271240234375</LongitudeDegrees>
            </Position>
            <AltitudeMeters>1214.5999755859375</AltitudeMeters>
            <DistanceMeters>7915.6876821373</DistanceMeters>
          </Trackpoint>
          <Trackpoint>
            <Time>2023-02-23T10:22:58.000Z</Time>
            <Position>
              <LatitudeDegrees>41.53260455466806888580322265625</LatitudeDegrees>
              <LongitudeDegrees>-4.585089124739170074462890625</LongitudeDegrees>
            </Position>
            <AltitudeMeters>1214.800048828125</AltitudeMeters>
            <DistanceMeters>7919.0312183847</DistanceMeters>
          </Trackpoint>
          <Trackpoint>
            <Time>2023-02-23T10:23:01.000Z</Time>
            <Position>
              <LatitudeDegrees>41.53264596126973628997802734375</LatitudeDegrees>
              <LongitudeDegrees>-4.585047550499439239501953125</LongitudeDegrees>
            </Position>
            <AltitudeMeters>1215.4000244140625</AltitudeMeters>
            <DistanceMeters>7924.7966074774</DistanceMeters>
          </Trackpoint>
          <Trackpoint>
            <Time>2023-02-23T10:23:05.000Z</Time>
            <Position>
              <LatitudeDegrees>41.53268619440495967864990234375</LatitudeDegrees>
              <LongitudeDegrees>-4.5849907211959362030029296875</LongitudeDegrees>
            </Position>
            <AltitudeMeters>1215.4000244140625</AltitudeMeters>
            <DistanceMeters>7931.3140824173</DistanceMeters>
          </Trackpoint>
          <Trackpoint>
            <Time>2023-02-23T10:23:06.000Z</Time>
            <Position>
              <LatitudeDegrees>41.53269658796489238739013671875</LatitudeDegrees>
              <LongitudeDegrees>-4.58497772924602031707763671875</LongitudeDegrees>
            </Position>
            <AltitudeMeters>1215.4000244140625</AltitudeMeters>
            <DistanceMeters>7932.8984943749</DistanceMeters>
          </Trackpoint>
          <Trackpoint>
            <Time>2023-02-23T10:23:07.000Z</Time>
            <Position>
              <LatitudeDegrees>41.532710082828998565673828125</LatitudeDegrees>
              <LongitudeDegrees>-4.58496582694351673126220703125</LongitudeDegrees>
            </Position>
            <AltitudeMeters>1215.4000244140625</AltitudeMeters>
            <DistanceMeters>7934.6989935955</DistanceMeters>
          </Trackpoint>
          <Trackpoint>
            <Time>2023-02-23T10:23:09.000Z</Time>
            <Position>
              <LatitudeDegrees>41.53273916803300380706787109375</LatitudeDegrees>
              <LongitudeDegrees>-4.58494503982365131378173828125</LongitudeDegrees>
            </Position>
            <AltitudeMeters>1215.800048828125</AltitudeMeters>
            <DistanceMeters>7938.3695349799</DistanceMeters>
          </Trackpoint>
          <Trackpoint>
            <Time>2023-02-23T10:23:11.000Z</Time>
            <Position>
              <LatitudeDegrees>41.53276565484702587127685546875</LatitudeDegrees>
              <LongitudeDegrees>-4.5849253423511981964111328125</LongitudeDegrees>
            </Position>
            <AltitudeMeters>1216</AltitudeMeters>
            <DistanceMeters>7941.7426487223</DistanceMeters>
          </Trackpoint>
          <Trackpoint>
            <Time>2023-02-23T10:23:13.000Z</Time>
            <Position>
              <LatitudeDegrees>41.532794572412967681884765625</LatitudeDegrees>
              <LongitudeDegrees>-4.5849032141268253326416015625</LongitudeDegrees>
            </Position>
            <AltitudeMeters>1216.199951171875</AltitudeMeters>
            <DistanceMeters>7945.452343656</DistanceMeters>
          </Trackpoint>
          <Trackpoint>
            <Time>2023-02-23T10:23:15.000Z</Time>
            <Position>
              <LatitudeDegrees>41.5328259207308292388916015625</LatitudeDegrees>
              <LongitudeDegrees>-4.58488100208342075347900390625</LongitudeDegrees>
            </Position>
            <AltitudeMeters>1216.5999755859375</AltitudeMeters>
            <DistanceMeters>7949.4013868336</DistanceMeters>
          </Trackpoint>
          <Trackpoint>
            <Time>2023-02-23T10:23:16.000Z</Time>
            <Position>
              <LatitudeDegrees>41.53284545056521892547607421875</LatitudeDegrees>
              <LongitudeDegrees>-4.58488133735954761505126953125</LongitudeDegrees>
            </Position>
            <AltitudeMeters>1216.5999755859375</AltitudeMeters>
            <DistanceMeters>7951.5724925205</DistanceMeters>
          </Trackpoint>
          <Trackpoint>
            <Time>2023-02-23T10:23:17.000Z</Time>
            <Position>
              <LatitudeDegrees>41.53286254964768886566162109375</LatitudeDegrees>
              <LongitudeDegrees>-4.58487932570278644561767578125</LongitudeDegrees>
            </Position>
            <AltitudeMeters>1217</AltitudeMeters>
            <DistanceMeters>7953.4825058407</DistanceMeters>
          </Trackpoint>
          <Trackpoint>
            <Time>2023-02-23T10:23:20.000Z</Time>
            <Position>
              <LatitudeDegrees>41.5328975021839141845703125</LatitudeDegrees>
              <LongitudeDegrees>-4.5848589576780796051025390625</LongitudeDegrees>
            </Position>
            <AltitudeMeters>1217.199951171875</AltitudeMeters>
            <DistanceMeters>7957.7269142218</DistanceMeters>
          </Trackpoint>
          <Trackpoint>
            <Time>2023-02-23T10:23:22.000Z</Time>
            <Position>
              <LatitudeDegrees>41.53291158378124237060546875</LatitudeDegrees>
              <LongitudeDegrees>-4.5848331414163112640380859375</LongitudeDegrees>
            </Position>
            <AltitudeMeters>1217.5999755859375</AltitudeMeters>
            <DistanceMeters>7960.3876622242</DistanceMeters>
          </Trackpoint>
          <Trackpoint>
            <Time>2023-02-23T10:23:23.000Z</Time>
            <Position>
              <LatitudeDegrees>41.53290865011513233184814453125</LatitudeDegrees>
              <LongitudeDegrees>-4.58482149057090282440185546875</LongitudeDegrees>
            </Position>
            <AltitudeMeters>1217.800048828125</AltitudeMeters>
            <DistanceMeters>7961.4111312601</DistanceMeters>
          </Trackpoint>
          <Trackpoint>
            <Time>2023-02-23T10:23:26.000Z</Time>
            <Position>
              <LatitudeDegrees>41.5328641422092914581298828125</LatitudeDegrees>
              <LongitudeDegrees>-4.58479584194719791412353515625</LongitudeDegrees>
            </Position>
            <AltitudeMeters>1218</AltitudeMeters>
            <DistanceMeters>7966.8059376866</DistanceMeters>
          </Trackpoint>
          <Trackpoint>
            <Time>2023-02-23T10:23:28.000Z</Time>
            <Position>
              <LatitudeDegrees>41.53280002065002918243408203125</LatitudeDegrees>
              <LongitudeDegrees>-4.58477698266506195068359375</LongitudeDegrees>
            </Position>
            <AltitudeMeters>1217.800048828125</AltitudeMeters>
            <DistanceMeters>7974.1137329826</DistanceMeters>
          </Trackpoint>
          <Trackpoint>
            <Time>2023-02-23T10:23:33.000Z</Time>
            <Position>
              <LatitudeDegrees>41.532677225768566131591796875</LatitudeDegrees>
              <LongitudeDegrees>-4.58475929684937000274658203125</LongitudeDegrees>
            </Position>
            <AltitudeMeters>1216.800048828125</AltitudeMeters>
            <DistanceMeters>7987.8601281343</DistanceMeters>
          </Trackpoint>
          <Trackpoint>
            <Time>2023-02-23T10:23:38.000Z</Time>
            <Position>
              <LatitudeDegrees>41.53262349776923656463623046875</LatitudeDegrees>
              <LongitudeDegrees>-4.58472610451281070709228515625</LongitudeDegrees>
            </Position>
            <AltitudeMeters>1217.199951171875</AltitudeMeters>
            <DistanceMeters>7994.4485708537</DistanceMeters>
          </Trackpoint>
          <Trackpoint>
            <Time>2023-02-23T10:23:40.000Z</Time>
            <Position>
              <LatitudeDegrees>41.5325952507555484771728515625</LatitudeDegrees>
              <LongitudeDegrees>-4.58471219055354595184326171875</LongitudeDegrees>
            </Position>
            <AltitudeMeters>1217.5999755859375</AltitudeMeters>
            <DistanceMeters>7997.7988521881</DistanceMeters>
          </Trackpoint>
          <Trackpoint>
            <Time>2023-02-23T10:23:48.000Z</Time>
            <Position>
              <LatitudeDegrees>41.53248167596757411956787109375</LatitudeDegrees>
              <LongitudeDegrees>-4.5846353285014629364013671875</LongitudeDegrees>
            </Position>
            <AltitudeMeters>1217.800048828125</AltitudeMeters>
            <DistanceMeters>8011.9696263364</DistanceMeters>
          </Trackpoint>
          <Trackpoint>
            <Time>2023-02-23T10:23:51.000Z</Time>
            <Position>
              <LatitudeDegrees>41.5324490703642368316650390625</LatitudeDegrees>
              <LongitudeDegrees>-4.58459920249879360198974609375</LongitudeDegrees>
            </Position>
            <AltitudeMeters>1218</AltitudeMeters>
            <DistanceMeters>8016.6847136319</DistanceMeters>
          </Trackpoint>
          <Trackpoint>
            <Time>2023-02-23T10:23:52.000Z</Time>
            <Position>
              <LatitudeDegrees>41.5324416942894458770751953125</LatitudeDegrees>
              <LongitudeDegrees>-4.58458528853952884674072265625</LongitudeDegrees>
            </Position>
            <AltitudeMeters>1218</AltitudeMeters>
            <DistanceMeters>8018.1101143475</DistanceMeters>
          </Trackpoint>
          <Trackpoint>
            <Time>2023-02-23T10:23:54.000Z</Time>
            <Position>
              <LatitudeDegrees>41.53243549168109893798828125</LatitudeDegrees>
              <LongitudeDegrees>-4.58456886000931262969970703125</LongitudeDegrees>
            </Position>
            <AltitudeMeters>1218.199951171875</AltitudeMeters>
            <DistanceMeters>8019.6423740759</DistanceMeters>
          </Trackpoint>
          <Trackpoint>
            <Time>2023-02-23T10:24:00.000Z</Time>
            <Position>
              <LatitudeDegrees>41.532432138919830322265625</LatitudeDegrees>
              <LongitudeDegrees>-4.58453021943569183349609375</LongitudeDegrees>
            </Position>
            <AltitudeMeters>1217.800048828125</AltitudeMeters>
            <DistanceMeters>8022.8844427027</DistanceMeters>
          </Trackpoint>
          <Trackpoint>
            <Time>2023-02-23T10:24:02.000Z</Time>
            <Position>
              <LatitudeDegrees>41.53242333792150020599365234375</LatitudeDegrees>
              <LongitudeDegrees>-4.58451546728610992431640625</LongitudeDegrees>
            </Position>
            <AltitudeMeters>1217.800048828125</AltitudeMeters>
            <DistanceMeters>8024.4574147132</DistanceMeters>
          </Trackpoint>
          <Trackpoint>
            <Time>2023-02-23T10:24:09.000Z</Time>
            <Position>
              <LatitudeDegrees>41.53244881890714168548583984375</LatitudeDegrees>
              <LongitudeDegrees>-4.584495685994625091552734375</LongitudeDegrees>
            </Position>
            <AltitudeMeters>1217.5999755859375</AltitudeMeters>
            <DistanceMeters>8027.7382455715</DistanceMeters>
          </Trackpoint>
          <Trackpoint>
            <Time>2023-02-23T10:24:13.000Z</Time>
            <Position>
              <LatitudeDegrees>41.532447896897792816162109375</LatitudeDegrees>
              <LongitudeDegrees>-4.58449543453752994537353515625</LongitudeDegrees>
            </Position>
            <AltitudeMeters>1217.800048828125</AltitudeMeters>
            <DistanceMeters>8027.8332722859</DistanceMeters>
          </Trackpoint>
          <Trackpoint>
            <Time>2023-02-23T10:24:16.000Z</Time>
            <Position>
              <LatitudeDegrees>41.53244915418326854705810546875</LatitudeDegrees>
              <LongitudeDegrees>-4.58449794910848140716552734375</LongitudeDegrees>
            </Position>
            <AltitudeMeters>1217.5999755859375</AltitudeMeters>
            <DistanceMeters>8028.08468934</DistanceMeters>
          </Trackpoint>
          <Trackpoint>
            <Time>2023-02-23T10:24:24.000Z</Time>
            <Position>
              <LatitudeDegrees>41.53244865126907825469970703125</LatitudeDegrees>
              <LongitudeDegrees>-4.58450683392584323883056640625</LongitudeDegrees>
            </Position>
            <AltitudeMeters>1218</AltitudeMeters>
            <DistanceMeters>8028.8329304372</DistanceMeters>
          </Trackpoint>
          <Trackpoint>
            <Time>2023-02-23T10:24:25.000Z</Time>
            <Position>
              <LatitudeDegrees>41.5324480645358562469482421875</LatitudeDegrees>
              <LongitudeDegrees>-4.584505073726177215576171875</LongitudeDegrees>
            </Position>
            <AltitudeMeters>1218</AltitudeMeters>
            <DistanceMeters>8028.9975215346</DistanceMeters>
          </Trackpoint>
          <Trackpoint>
            <Time>2023-02-23T10:24:31.000Z</Time>
            <Position>
              <LatitudeDegrees>41.532445885241031646728515625</LatitudeDegrees>
              <LongitudeDegrees>-4.5844841189682483673095703125</LongitudeDegrees>
            </Position>
            <AltitudeMeters>1218</AltitudeMeters>
            <DistanceMeters>8030.7600045265</DistanceMeters>
          </Trackpoint>
          <Trackpoint>
            <Time>2023-02-23T10:24:32.000Z</Time>
            <Position>
              <LatitudeDegrees>41.53245200403034687042236328125</LatitudeDegrees>
              <LongitudeDegrees>-4.58447062410414218902587890625</LongitudeDegrees>
            </Position>
            <AltitudeMeters>1218</AltitudeMeters>
            <DistanceMeters>8032.0767333054</DistanceMeters>
          </Trackpoint>
          <Trackpoint>
            <Time>2023-02-23T10:24:34.000Z</Time>
            <Position>
              <LatitudeDegrees>41.53246575035154819488525390625</LatitudeDegrees>
              <LongitudeDegrees>-4.58444179035723209381103515625</LongitudeDegrees>
            </Position>
            <AltitudeMeters>1218.199951171875</AltitudeMeters>
            <DistanceMeters>8034.9243654176</DistanceMeters>
          </Trackpoint>
          <Trackpoint>
            <Time>2023-02-23T10:24:38.000Z</Time>
            <Position>
              <LatitudeDegrees>41.5324836038053035736083984375</LatitudeDegrees>
              <LongitudeDegrees>-4.58440373651683330535888671875</LongitudeDegrees>
            </Position>
            <AltitudeMeters>1217.800048828125</AltitudeMeters>
            <DistanceMeters>8038.6655709036</DistanceMeters>
          </Trackpoint>
          <Trackpoint>
            <Time>2023-02-23T10:24:39.000Z</Time>
            <Position>
              <LatitudeDegrees>41.5324859507381916046142578125</LatitudeDegrees>
              <LongitudeDegrees>-4.58440289832651615142822265625</LongitudeDegrees>
            </Position>
            <AltitudeMeters>1217.800048828125</AltitudeMeters>
            <DistanceMeters>8038.9506510467</DistanceMeters>
          </Trackpoint>
          <Trackpoint>
            <Time>2023-02-23T10:24:40.000Z</Time>
            <Position>
              <LatitudeDegrees>41.53248569928109645843505859375</LatitudeDegrees>
              <LongitudeDegrees>-4.5844009704887866973876953125</LongitudeDegrees>
            </Position>
            <AltitudeMeters>1217.800048828125</AltitudeMeters>
            <DistanceMeters>8039.085039115</DistanceMeters>
          </Trackpoint>
          <Trackpoint>
            <Time>2023-02-23T10:24:41.000Z</Time>
            <Position>
              <LatitudeDegrees>41.5324903093278408050537109375</LatitudeDegrees>
              <LongitudeDegrees>-4.5843954384326934814453125</LongitudeDegrees>
            </Position>
            <AltitudeMeters>1218</AltitudeMeters>
            <DistanceMeters>8039.776844038</DistanceMeters>
          </Trackpoint>
          <Trackpoint>
            <Time>2023-02-23T10:24:44.000Z</Time>
            <Position>
              <LatitudeDegrees>41.53249441646039485931396484375</LatitudeDegrees>
              <LongitudeDegrees>-4.58435445092618465423583984375</LongitudeDegrees>
            </Position>
            <AltitudeMeters>1218.4000244140625</AltitudeMeters>
            <DistanceMeters>8043.2227910085</DistanceMeters>
          </Trackpoint>
          <Trackpoint>
            <Time>2023-02-23T10:24:50.000Z</Time>
            <Position>
              <LatitudeDegrees>41.53250732459127902984619140625</LatitudeDegrees>
              <LongitudeDegrees>-4.58428974263370037078857421875</LongitudeDegrees>
            </Position>
            <AltitudeMeters>1217.800048828125</AltitudeMeters>
            <DistanceMeters>8048.8027286049</DistanceMeters>
          </Trackpoint>
          <Trackpoint>
            <Time>2023-02-23T10:24:53.000Z</Time>
            <Position>
              <LatitudeDegrees>41.5325137786567211151123046875</LatitudeDegrees>
              <LongitudeDegrees>-4.584291167557239532470703125</LongitudeDegrees>
            </Position>
            <AltitudeMeters>1217.5999755859375</AltitudeMeters>
            <DistanceMeters>8049.5264305005</DistanceMeters>
          </Trackpoint>
          <Trackpoint>
            <Time>2023-02-23T10:24:55.000Z</Time>
            <Position>
              <LatitudeDegrees>41.5325221605598926544189453125</LatitudeDegrees>
              <LongitudeDegrees>-4.584294855594635009765625</LongitudeDegrees>
            </Position>
            <AltitudeMeters>1217.5999755859375</AltitudeMeters>
            <DistanceMeters>8050.5047904052</DistanceMeters>
          </Trackpoint>
          <Trackpoint>
            <Time>2023-02-23T10:25:01.000Z</Time>
            <Position>
              <LatitudeDegrees>41.53255426324903964996337890625</LatitudeDegrees>
              <LongitudeDegrees>-4.58433098159730434417724609375</LongitudeDegrees>
            </Position>
            <AltitudeMeters>1217.4000244140625</AltitudeMeters>
            <DistanceMeters>8055.1765882138</DistanceMeters>
          </Trackpoint>
          <Trackpoint>
            <Time>2023-02-23T10:25:02.000Z</Time>
            <Position>
              <LatitudeDegrees>41.532562561333179473876953125</LatitudeDegrees>
              <LongitudeDegrees>-4.5843399502336978912353515625</LongitudeDegrees>
            </Position>
            <AltitudeMeters>1217.4000244140625</AltitudeMeters>
            <DistanceMeters>8056.3672695321</DistanceMeters>
          </Trackpoint>
          <Trackpoint>
            <Time>2023-02-23T10:25:07.000Z</Time>
            <Position>
              <LatitudeDegrees>41.53260715305805206298828125</LatitudeDegrees>
              <LongitudeDegrees>-4.58438043482601642608642578125</LongitudeDegrees>
            </Position>
            <AltitudeMeters>1216.800048828125</AltitudeMeters>
            <DistanceMeters>8062.3682648544</DistanceMeters>
          </Trackpoint>
          <Trackpoint>
            <Time>2023-02-23T10:25:08.000Z</Time>
            <Position>
              <LatitudeDegrees>41.53261997736990451812744140625</LatitudeDegrees>
              <LongitudeDegrees>-4.58438211120665073394775390625</LongitudeDegrees>
            </Position>
            <AltitudeMeters>1216.800048828125</AltitudeMeters>
            <DistanceMeters>8063.7999866685</DistanceMeters>
          </Trackpoint>
          <Trackpoint>
            <Time>2023-02-23T10:25:09.000Z</Time>
            <Position>
              <LatitudeDegrees>41.53262986801564693450927734375</LatitudeDegrees>
              <LongitudeDegrees>-4.58437289111316204071044921875</LongitudeDegrees>
            </Position>
            <AltitudeMeters>1216.800048828125</AltitudeMeters>
            <DistanceMeters>8065.1438673509</DistanceMeters>
          </Trackpoint>
          <Trackpoint>
            <Time>2023-02-23T10:25:13.000Z</Time>
            <Position>
              <LatitudeDegrees>41.53264964930713176727294921875</LatitudeDegrees>
              <LongitudeDegrees>-4.5843369327485561370849609375</LongitudeDegrees>
            </Position>
            <AltitudeMeters>1216.5999755859375</AltitudeMeters>
            <DistanceMeters>8068.8620721645</DistanceMeters>
          </Trackpoint>
          <Trackpoint>
            <Time>2023-02-23T10:25:14.000Z</Time>
            <Position>
              <LatitudeDegrees>41.53266088105738162994384765625</LatitudeDegrees>
              <LongitudeDegrees>-4.58433433435857295989990234375</LongitudeDegrees>
            </Position>
            <AltitudeMeters>1216.5999755859375</AltitudeMeters>
            <DistanceMeters>8070.1298866648</DistanceMeters>
          </Trackpoint>
          <Trackpoint>
            <Time>2023-02-23T10:25:20.000Z</Time>
            <Position>
              <LatitudeDegrees>41.53271603398025035858154296875</LatitudeDegrees>
              <LongitudeDegrees>-4.5844039879739284515380859375</LongitudeDegrees>
            </Position>
            <AltitudeMeters>1216</AltitudeMeters>
            <DistanceMeters>8078.5771148528</DistanceMeters>
          </Trackpoint>
          <Trackpoint>
            <Time>2023-02-23T10:25:24.000Z</Time>
            <Position>
              <LatitudeDegrees>41.53274034149944782257080078125</LatitudeDegrees>
              <LongitudeDegrees>-4.58442066796123981475830078125</LongitudeDegrees>
            </Position>
            <AltitudeMeters>1216.199951171875</AltitudeMeters>
            <DistanceMeters>8081.6179697126</DistanceMeters>
          </Trackpoint>
          <Trackpoint>
            <Time>2023-02-23T10:25:26.000Z</Time>
            <Position>
              <LatitudeDegrees>41.5327607095241546630859375</LatitudeDegrees>
              <LongitudeDegrees>-4.58441496826708316802978515625</LongitudeDegrees>
            </Position>
            <AltitudeMeters>1216.199951171875</AltitudeMeters>
            <DistanceMeters>8083.9339717436</DistanceMeters>
          </Trackpoint>
          <Trackpoint>
            <Time>2023-02-23T10:25:27.000Z</Time>
            <Position>
              <LatitudeDegrees>41.5327706001698970794677734375</LatitudeDegrees>
              <LongitudeDegrees>-4.58440340124070644378662109375</LongitudeDegrees>
            </Position>
            <AltitudeMeters>1216.199951171875</AltitudeMeters>
            <DistanceMeters>8085.3968894164</DistanceMeters>
          </Trackpoint>
          <Trackpoint>
            <Time>2023-02-23T10:25:30.000Z</Time>
            <Position>
              <LatitudeDegrees>41.53281326405704021453857421875</LatitudeDegrees>
              <LongitudeDegrees>-4.58437020890414714813232421875</LongitudeDegrees>
            </Position>
            <AltitudeMeters>1216.4000244140625</AltitudeMeters>
            <DistanceMeters>8090.8928520896</DistanceMeters>
          </Trackpoint>
          <Trackpoint>
            <Time>2023-02-23T10:25:31.000Z</Time>
            <Position>
              <LatitudeDegrees>41.5328286029398441314697265625</LatitudeDegrees>
              <LongitudeDegrees>-4.584359228610992431640625</LongitudeDegrees>
            </Position>
            <AltitudeMeters>1216.5999755859375</AltitudeMeters>
            <DistanceMeters>8092.8286934375</DistanceMeters>
          </Trackpoint>
          <Trackpoint>
            <Time>2023-02-23T10:25:32.000Z</Time>
            <Position>
              <LatitudeDegrees>41.53284528292715549468994140625</LatitudeDegrees>
              <LongitudeDegrees>-4.58434539847075939178466796875</LongitudeDegrees>
            </Position>
            <AltitudeMeters>1216.800048828125</AltitudeMeters>
            <DistanceMeters>8095.0122410926</DistanceMeters>
          </Trackpoint>
          <Trackpoint>
            <Time>2023-02-23T10:25:37.000Z</Time>
            <Position>
              <LatitudeDegrees>41.5329015254974365234375</LatitudeDegrees>
              <LongitudeDegrees>-4.58427851088345050811767578125</LongitudeDegrees>
            </Position>
            <AltitudeMeters>1217.5999755859375</AltitudeMeters>
            <DistanceMeters>8103.393468011</DistanceMeters>
          </Trackpoint>
          <Trackpoint>
            <Time>2023-02-23T10:25:39.000Z</Time>
            <Position>
              <LatitudeDegrees>41.53291434980928897857666015625</LatitudeDegrees>
              <LongitudeDegrees>-4.584240876138210296630859375</LongitudeDegrees>
            </Position>
            <AltitudeMeters>1218</AltitudeMeters>
            <DistanceMeters>8106.8381044864</DistanceMeters>
          </Trackpoint>
          <Trackpoint>
            <Time>2023-02-23T10:25:42.000Z</Time>
            <Position>
              <LatitudeDegrees>41.53293865732848644256591796875</LatitudeDegrees>
              <LongitudeDegrees>-4.5841934345662593841552734375</LongitudeDegrees>
            </Position>
            <AltitudeMeters>1218.199951171875</AltitudeMeters>
            <DistanceMeters>8111.6273000522</DistanceMeters>
          </Trackpoint>
          <Trackpoint>
            <Time>2023-02-23T10:25:44.000Z</Time>
            <Position>
              <LatitudeDegrees>41.5329402498900890350341796875</LatitudeDegrees>
              <LongitudeDegrees>-4.58415647037327289581298828125</LongitudeDegrees>
            </Position>
            <AltitudeMeters>1218.4000244140625</AltitudeMeters>
            <DistanceMeters>8114.710913273</DistanceMeters>
          </Trackpoint>
          <Trackpoint>
            <Time>2023-02-23T10:25:45.000Z</Time>
            <Position>
              <LatitudeDegrees>41.5329402498900890350341796875</LatitudeDegrees>
              <LongitudeDegrees>-4.584137611091136932373046875</LongitudeDegrees>
            </Position>
            <AltitudeMeters>1218.4000244140625</AltitudeMeters>
            <DistanceMeters>8116.2781339954</DistanceMeters>
          </Trackpoint>
          <Trackpoint>
            <Time>2023-02-23T10:25:46.000Z</Time>
            <Position>
              <LatitudeDegrees>41.53294536285102367401123046875</LatitudeDegrees>
              <LongitudeDegrees>-4.58412327803671360015869140625</LongitudeDegrees>
            </Position>
            <AltitudeMeters>1218.4000244140625</AltitudeMeters>
            <DistanceMeters>8117.6017029699</DistanceMeters>
          </Trackpoint>
          <Trackpoint>
            <Time>2023-02-23T10:25:48.000Z</Time>
            <Position>
              <LatitudeDegrees>41.53296413831412792205810546875</LatitudeDegrees>
              <LongitudeDegrees>-4.58410500548779964447021484375</LongitudeDegrees>
            </Position>
            <AltitudeMeters>1218.4000244140625</AltitudeMeters>
            <DistanceMeters>8120.1867090759</DistanceMeters>
          </Trackpoint>
          <Trackpoint>
            <Time>2023-02-23T10:25:49.000Z</Time>
            <Position>
              <LatitudeDegrees>41.5329824946820735931396484375</LatitudeDegrees>
              <LongitudeDegrees>-4.584101736545562744140625</LongitudeDegrees>
            </Position>
            <AltitudeMeters>1218.4000244140625</AltitudeMeters>
            <DistanceMeters>8122.2468391516</DistanceMeters>
          </Trackpoint>
          <Trackpoint>
            <Time>2023-02-23T10:25:50.000Z</Time>
            <Position>
              <LatitudeDegrees>41.53299934230744838714599609375</LatitudeDegrees>
              <LongitudeDegrees>-4.584096372127532958984375</LongitudeDegrees>
            </Position>
            <AltitudeMeters>1218.4000244140625</AltitudeMeters>
            <DistanceMeters>8124.1756707915</DistanceMeters>
          </Trackpoint>
          <Trackpoint>
            <Time>2023-02-23T10:25:54.000Z</Time>
            <Position>
              <LatitudeDegrees>41.53305566869676113128662109375</LatitudeDegrees>
              <LongitudeDegrees>-4.58409494720399379730224609375</LongitudeDegrees>
            </Position>
            <AltitudeMeters>1218.199951171875</AltitudeMeters>
            <DistanceMeters>8130.4459939759</DistanceMeters>
          </Trackpoint>
          <Trackpoint>
            <Time>2023-02-23T10:25:56.000Z</Time>
            <Position>
              <LatitudeDegrees>41.53308785520493984222412109375</LatitudeDegrees>
              <LongitudeDegrees>-4.58408187143504619598388671875</LongitudeDegrees>
            </Position>
            <AltitudeMeters>1218.199951171875</AltitudeMeters>
            <DistanceMeters>8134.1920237133</DistanceMeters>
          </Trackpoint>
          <Trackpoint>
            <Time>2023-02-23T10:25:59.000Z</Time>
            <Position>
              <LatitudeDegrees>41.53311367146670818328857421875</LatitudeDegrees>
              <LongitudeDegrees>-4.58404297940433025360107421875</LongitudeDegrees>
            </Position>
            <AltitudeMeters>1218.199951171875</AltitudeMeters>
            <DistanceMeters>8138.5238245918</DistanceMeters>
          </Trackpoint>
          <Trackpoint>
            <Time>2023-02-23T10:26:01.000Z</Time>
            <Position>
              <LatitudeDegrees>41.5331125818192958831787109375</LatitudeDegrees>
              <LongitudeDegrees>-4.5840060152113437652587890625</LongitudeDegrees>
            </Position>
            <AltitudeMeters>1218.199951171875</AltitudeMeters>
            <DistanceMeters>8141.6045080131</DistanceMeters>
          </Trackpoint>
          <Trackpoint>
            <Time>2023-02-23T10:26:03.000Z</Time>
            <Position>
              <LatitudeDegrees>41.5331155993044376373291015625</LatitudeDegrees>
              <LongitudeDegrees>-4.5839716494083404541015625</LongitudeDegrees>
            </Position>
            <AltitudeMeters>1218</AltitudeMeters>
            <DistanceMeters>8144.4868109688</DistanceMeters>
          </Trackpoint>
          <Trackpoint>
            <Time>2023-02-23T10:26:06.000Z</Time>
            <Position>
              <LatitudeDegrees>41.53312859125435352325439453125</LatitudeDegrees>
              <LongitudeDegrees>-4.583912305533885955810546875</LongitudeDegrees>
            </Position>
            <AltitudeMeters>1218</AltitudeMeters>
            <DistanceMeters>8149.6375744649</DistanceMeters>
          </Trackpoint>
          <Trackpoint>
            <Time>2023-02-23T10:26:13.000Z</Time>
            <Position>
              <LatitudeDegrees>41.5331603586673736572265625</LatitudeDegrees>
              <LongitudeDegrees>-4.58381004631519317626953125</LongitudeDegrees>
            </Position>
            <AltitudeMeters>1217.199951171875</AltitudeMeters>
            <DistanceMeters>8158.8625102591</DistanceMeters>
          </Trackpoint>
          <Trackpoint>
            <Time>2023-02-23T10:26:17.000Z</Time>
            <Position>
              <LatitudeDegrees>41.5331736020743846893310546875</LatitudeDegrees>
              <LongitudeDegrees>-4.58375832997262477874755859375</LongitudeDegrees>
            </Position>
            <AltitudeMeters>1217.4000244140625</AltitudeMeters>
            <DistanceMeters>8163.41586677</DistanceMeters>
          </Trackpoint>
          <Trackpoint>
            <Time>2023-02-23T10:26:19.000Z</Time>
            <Position>
              <LatitudeDegrees>41.53316597454249858856201171875</LatitudeDegrees>
              <LongitudeDegrees>-4.58373251371085643768310546875</LongitudeDegrees>
            </Position>
            <AltitudeMeters>1217.800048828125</AltitudeMeters>
            <DistanceMeters>8165.7279665202</DistanceMeters>
          </Trackpoint>
          <Trackpoint>
            <Time>2023-02-23T10:26:23.000Z</Time>
            <Position>
              <LatitudeDegrees>41.5331554971635341644287109375</LatitudeDegrees>
              <LongitudeDegrees>-4.5836497843265533447265625</LongitudeDegrees>
            </Position>
            <AltitudeMeters>1217.800048828125</AltitudeMeters>
            <DistanceMeters>8172.7187299774</DistanceMeters>
          </Trackpoint>
          <Trackpoint>
            <Time>2023-02-23T10:26:24.000Z</Time>
            <Position>
              <LatitudeDegrees>41.53314627707004547119140625</LatitudeDegrees>
              <LongitudeDegrees>-4.5836335234344005584716796875</LongitudeDegrees>
            </Position>
            <AltitudeMeters>1217.800048828125</AltitudeMeters>
            <DistanceMeters>8174.4186195215</DistanceMeters>
          </Trackpoint>
          <Trackpoint>
            <Time>2023-02-23T10:26:25.000Z</Time>
            <Position>
              <LatitudeDegrees>41.53313957154750823974609375</LatitudeDegrees>
              <LongitudeDegrees>-4.583617262542247772216796875</LongitudeDegrees>
            </Position>
            <AltitudeMeters>1217.800048828125</AltitudeMeters>
            <DistanceMeters>8175.9626208755</DistanceMeters>
          </Trackpoint>
          <Trackpoint>
            <Time>2023-02-23T10:26:26.000Z</Time>
            <Position>
              <LatitudeDegrees>41.5331397391855716705322265625</LatitudeDegrees>
              <LongitudeDegrees>-4.5836016722023487091064453125</LongitudeDegrees>
            </Position>
            <AltitudeMeters>1217.800048828125</AltitudeMeters>
            <DistanceMeters>8177.2586124722</DistanceMeters>
          </Trackpoint>
          <Trackpoint>
            <Time>2023-02-23T10:26:28.000Z</Time>
            <Position>
              <LatitudeDegrees>41.533134877681732177734375</LatitudeDegrees>
              <LongitudeDegrees>-4.58357459865510463714599609375</LongitudeDegrees>
            </Position>
            <AltitudeMeters>1218.199951171875</AltitudeMeters>
            <DistanceMeters>8179.5804556273</DistanceMeters>
          </Trackpoint>
          <Trackpoint>
            <Time>2023-02-23T10:26:30.000Z</Time>
            <Position>
              <LatitudeDegrees>41.53313077054917812347412109375</LatitudeDegrees>
              <LongitudeDegrees>-4.58354811184108257293701171875</LongitudeDegrees>
            </Position>
            <AltitudeMeters>1218.4000244140625</AltitudeMeters>
            <DistanceMeters>8181.8332101549</DistanceMeters>
          </Trackpoint>
          <Trackpoint>
            <Time>2023-02-23T10:26:31.000Z</Time>
            <Position>
              <LatitudeDegrees>41.5331417508423328399658203125</LatitudeDegrees>
              <LongitudeDegrees>-4.5835344493389129638671875</LongitudeDegrees>
            </Position>
            <AltitudeMeters>1218.5999755859375</AltitudeMeters>
            <DistanceMeters>8183.5009222238</DistanceMeters>
          </Trackpoint>
          <Trackpoint>
            <Time>2023-02-23T10:26:34.000Z</Time>
            <Position>
              <LatitudeDegrees>41.53313688933849334716796875</LatitudeDegrees>
              <LongitudeDegrees>-4.58348642103374004364013671875</LongitudeDegrees>
            </Position>
            <AltitudeMeters>1218.5999755859375</AltitudeMeters>
            <DistanceMeters>8187.5403959685</DistanceMeters>
          </Trackpoint>
          <Trackpoint>
            <Time>2023-02-23T10:26:37.000Z</Time>
            <Position>
              <LatitudeDegrees>41.53314652852714061737060546875</LatitudeDegrees>
              <LongitudeDegrees>-4.5834306813776493072509765625</LongitudeDegrees>
            </Position>
            <AltitudeMeters>1218.5999755859375</AltitudeMeters>
            <DistanceMeters>8192.306911712</DistanceMeters>
          </Trackpoint>
          <Trackpoint>
            <Time>2023-02-23T10:26:38.000Z</Time>
            <Position>
              <LatitudeDegrees>41.53314627707004547119140625</LatitudeDegrees>
              <LongitudeDegrees>-4.58340846933424472808837890625</LongitudeDegrees>
            </Position>
            <AltitudeMeters>1218.4000244140625</AltitudeMeters>
            <DistanceMeters>8194.156884407</DistanceMeters>
          </Trackpoint>
          <Trackpoint>
            <Time>2023-02-23T10:26:45.000Z</Time>
            <Position>
              <LatitudeDegrees>41.533186845481395721435546875</LatitudeDegrees>
              <LongitudeDegrees>-4.58322691731154918670654296875</LongitudeDegrees>
            </Position>
            <AltitudeMeters>1218.199951171875</AltitudeMeters>
            <DistanceMeters>8209.9427638423</DistanceMeters>
          </Trackpoint>
          <Trackpoint>
            <Time>2023-02-23T10:26:49.000Z</Time>
            <Position>
              <LatitudeDegrees>41.53321467339992523193359375</LatitudeDegrees>
              <LongitudeDegrees>-4.5831589400768280029296875</LongitudeDegrees>
            </Position>
            <AltitudeMeters>1219.199951171875</AltitudeMeters>
            <DistanceMeters>8216.3975893793</DistanceMeters>
          </Trackpoint>
          <Trackpoint>
            <Time>2023-02-23T10:26:52.000Z</Time>
            <Position>
              <LatitudeDegrees>41.533247195184230804443359375</LatitudeDegrees>
              <LongitudeDegrees>-4.5831245742738246917724609375</LongitudeDegrees>
            </Position>
            <AltitudeMeters>1219.800048828125</AltitudeMeters>
            <DistanceMeters>8221.0120146149</DistanceMeters>
          </Trackpoint>
          <Trackpoint>
            <Time>2023-02-23T10:26:55.000Z</Time>
            <Position>
              <LatitudeDegrees>41.5332892723381519317626953125</LatitudeDegrees>
              <LongitudeDegrees>-4.58310906775295734405517578125</LongitudeDegrees>
            </Position>
            <AltitudeMeters>1220</AltitudeMeters>
            <DistanceMeters>8225.8714024262</DistanceMeters>
          </Trackpoint>
          <Trackpoint>
            <Time>2023-02-23T10:26:57.000Z</Time>
            <Position>
              <LatitudeDegrees>41.53332003392279148101806640625</LatitudeDegrees>
              <LongitudeDegrees>-4.58311644382774829864501953125</LongitudeDegrees>
            </Position>
            <AltitudeMeters>1220.199951171875</AltitudeMeters>
            <DistanceMeters>8229.3525462882</DistanceMeters>
          </Trackpoint>
          <Trackpoint>
            <Time>2023-02-23T10:26:59.000Z</Time>
            <Position>
              <LatitudeDegrees>41.5333415754139423370361328125</LatitudeDegrees>
              <LongitudeDegrees>-4.583129100501537322998046875</LongitudeDegrees>
            </Position>
            <AltitudeMeters>1220.199951171875</AltitudeMeters>
            <DistanceMeters>8231.9722520154</DistanceMeters>
          </Trackpoint>
          <Trackpoint>
            <Time>2023-02-23T10:27:02.000Z</Time>
            <Position>
              <LatitudeDegrees>41.53337828814983367919921875</LatitudeDegrees>
              <LongitudeDegrees>-4.5831450261175632476806640625</LongitudeDegrees>
            </Position>
            <AltitudeMeters>1219.800048828125</AltitudeMeters>
            <DistanceMeters>8236.2684685197</DistanceMeters>
          </Trackpoint>
          <Trackpoint>
            <Time>2023-02-23T10:27:06.000Z</Time>
            <Position>
              <LatitudeDegrees>41.53342614881694316864013671875</LatitudeDegrees>
              <LongitudeDegrees>-4.58314795978367328643798828125</LongitudeDegrees>
            </Position>
            <AltitudeMeters>1219.800048828125</AltitudeMeters>
            <DistanceMeters>8241.6018296361</DistanceMeters>
          </Trackpoint>
          <Trackpoint>
            <Time>2023-02-23T10:27:11.000Z</Time>
            <Position>
              <LatitudeDegrees>41.53349270112812519073486328125</LatitudeDegrees>
              <LongitudeDegrees>-4.5832016877830028533935546875</LongitudeDegrees>
            </Position>
            <AltitudeMeters>1218.800048828125</AltitudeMeters>
            <DistanceMeters>8250.2570889725</DistanceMeters>
          </Trackpoint>
          <Trackpoint>
            <Time>2023-02-23T10:27:12.000Z</Time>
            <Position>
              <LatitudeDegrees>41.53350812382996082305908203125</LatitudeDegrees>
              <LongitudeDegrees>-4.58321082405745983123779296875</LongitudeDegrees>
            </Position>
            <AltitudeMeters>1218.5999755859375</AltitudeMeters>
            <DistanceMeters>8252.1361206086</DistanceMeters>
          </Trackpoint>
          <Trackpoint>
            <Time>2023-02-23T10:27:18.000Z</Time>
            <Position>
              <LatitudeDegrees>41.5335809625685214996337890625</LatitudeDegrees>
              <LongitudeDegrees>-4.583249799907207489013671875</LongitudeDegrees>
            </Position>
            <AltitudeMeters>1218.800048828125</AltitudeMeters>
            <DistanceMeters>8260.8692772914</DistanceMeters>
          </Trackpoint>
          <Trackpoint>
            <Time>2023-02-23T10:27:19.000Z</Time>
            <Position>
              <LatitudeDegrees>41.53359554708003997802734375</LatitudeDegrees>
              <LongitudeDegrees>-4.58325617015361785888671875</LongitudeDegrees>
            </Position>
            <AltitudeMeters>1218.5999755859375</AltitudeMeters>
            <DistanceMeters>8262.5771164792</DistanceMeters>
          </Trackpoint>
          <Trackpoint>
            <Time>2023-02-23T10:27:20.000Z</Time>
            <Position>
              <LatitudeDegrees>41.533610634505748748779296875</LatitudeDegrees>
              <LongitudeDegrees>-4.58325675688683986663818359375</LongitudeDegrees>
            </Position>
            <AltitudeMeters>1218.4000244140625</AltitudeMeters>
            <DistanceMeters>8264.2609941479</DistanceMeters>
          </Trackpoint>
          <Trackpoint>
            <Time>2023-02-23T10:27:22.000Z</Time>
            <Position>
              <LatitudeDegrees>41.53363846242427825927734375</LatitudeDegrees>
              <LongitudeDegrees>-4.58327360451221466064453125</LongitudeDegrees>
            </Position>
            <AltitudeMeters>1218.4000244140625</AltitudeMeters>
            <DistanceMeters>8267.6621010155</DistanceMeters>
          </Trackpoint>
          <Trackpoint>
            <Time>2023-02-23T10:27:23.000Z</Time>
            <Position>
              <LatitudeDegrees>41.53364642523229122161865234375</LatitudeDegrees>
              <LongitudeDegrees>-4.583292044699192047119140625</LongitudeDegrees>
            </Position>
            <AltitudeMeters>1218.5999755859375</AltitudeMeters>
            <DistanceMeters>8269.4348013857</DistanceMeters>
          </Trackpoint>
          <Trackpoint>
            <Time>2023-02-23T10:27:25.000Z</Time>
            <Position>
              <LatitudeDegrees>41.53366486541926860809326171875</LatitudeDegrees>
              <LongitudeDegrees>-4.5833243988454341888427734375</LongitudeDegrees>
            </Position>
            <AltitudeMeters>1218.5999755859375</AltitudeMeters>
            <DistanceMeters>8272.8239395117</DistanceMeters>
          </Trackpoint>
          <Trackpoint>
            <Time>2023-02-23T10:27:31.000Z</Time>
            <Position>
              <LatitudeDegrees>41.53373594395816326141357421875</LatitudeDegrees>
              <LongitudeDegrees>-4.58339053206145763397216796875</LongitudeDegrees>
            </Position>
            <AltitudeMeters>1218.5999755859375</AltitudeMeters>
            <DistanceMeters>8282.4652883236</DistanceMeters>
          </Trackpoint>
          <Trackpoint>
            <Time>2023-02-23T10:27:36.000Z</Time>
            <Position>
              <LatitudeDegrees>41.53378623537719249725341796875</LatitudeDegrees>
              <LongitudeDegrees>-4.583401344716548919677734375</LongitudeDegrees>
            </Position>
            <AltitudeMeters>1219</AltitudeMeters>
            <DistanceMeters>8288.1351271344</DistanceMeters>
          </Trackpoint>
          <Trackpoint>
            <Time>2023-02-23T10:27:38.000Z</Time>
            <Position>
              <LatitudeDegrees>41.53381490148603916168212890625</LatitudeDegrees>
              <LongitudeDegrees>-4.58341182209551334381103515625</LongitudeDegrees>
            </Position>
            <AltitudeMeters>1219.199951171875</AltitudeMeters>
            <DistanceMeters>8291.4433672482</DistanceMeters>
          </Trackpoint>
          <Trackpoint>
            <Time>2023-02-23T10:27:40.000Z</Time>
            <Position>
              <LatitudeDegrees>41.5338357724249362945556640625</LatitudeDegrees>
              <LongitudeDegrees>-4.58340109325945377349853515625</LongitudeDegrees>
            </Position>
            <AltitudeMeters>1219</AltitudeMeters>
            <DistanceMeters>8293.9322691025</DistanceMeters>
          </Trackpoint>
          <Trackpoint>
            <Time>2023-02-23T10:27:41.000Z</Time>
            <Position>
              <LatitudeDegrees>41.53384306468069553375244140625</LatitudeDegrees>
              <LongitudeDegrees>-4.5833934657275676727294921875</LongitudeDegrees>
            </Position>
            <AltitudeMeters>1219</AltitudeMeters>
            <DistanceMeters>8294.9645234415</DistanceMeters>
          </Trackpoint>
          <Trackpoint>
            <Time>2023-02-23T10:27:42.000Z</Time>
            <Position>
              <LatitudeDegrees>41.53385429643094539642333984375</LatitudeDegrees>
              <LongitudeDegrees>-4.58338952623307704925537109375</LongitudeDegrees>
            </Position>
            <AltitudeMeters>1219</AltitudeMeters>
            <DistanceMeters>8296.2535285096</DistanceMeters>
          </Trackpoint>
          <Trackpoint>
            <Time>2023-02-23T10:27:43.000Z</Time>
            <Position>
              <LatitudeDegrees>41.5338671207427978515625</LatitudeDegrees>
              <LongitudeDegrees>-4.583388604223728179931640625</LongitudeDegrees>
            </Position>
            <AltitudeMeters>1219.199951171875</AltitudeMeters>
            <DistanceMeters>8297.6852503237</DistanceMeters>
          </Trackpoint>
          <Trackpoint>
            <Time>2023-02-23T10:27:47.000Z</Time>
            <Position>
              <LatitudeDegrees>41.53392604552209377288818359375</LatitudeDegrees>
              <LongitudeDegrees>-4.5834065414965152740478515625</LongitudeDegrees>
            </Position>
            <AltitudeMeters>1219.199951171875</AltitudeMeters>
            <DistanceMeters>8304.4113697832</DistanceMeters>
          </Trackpoint>
          <Trackpoint>
            <Time>2023-02-23T10:27:50.000Z</Time>
            <Position>
              <LatitudeDegrees>41.53396342881023883819580078125</LatitudeDegrees>
              <LongitudeDegrees>-4.5833924598991870880126953125</LongitudeDegrees>
            </Position>
            <AltitudeMeters>1219.199951171875</AltitudeMeters>
            <DistanceMeters>8308.7348242168</DistanceMeters>
          </Trackpoint>
          <Trackpoint>
            <Time>2023-02-23T10:27:54.000Z</Time>
            <Position>
              <LatitudeDegrees>41.53399997390806674957275390625</LatitudeDegrees>
              <LongitudeDegrees>-4.583352394402027130126953125</LongitudeDegrees>
            </Position>
            <AltitudeMeters>1219</AltitudeMeters>
            <DistanceMeters>8313.9965933468</DistanceMeters>
          </Trackpoint>
          <Trackpoint>
            <Time>2023-02-23T10:27:57.000Z</Time>
            <Position>
              <LatitudeDegrees>41.5340339206159114837646484375</LatitudeDegrees>
              <LongitudeDegrees>-4.58334711380302906036376953125</LongitudeDegrees>
            </Position>
            <AltitudeMeters>1219</AltitudeMeters>
            <DistanceMeters>8317.8000368475</DistanceMeters>
          </Trackpoint>
          <Trackpoint>
            <Time>2023-02-23T10:27:58.000Z</Time>
            <Position>
              <LatitudeDegrees>41.534047834575176239013671875</LatitudeDegrees>
              <LongitudeDegrees>-4.5833512209355831146240234375</LongitudeDegrees>
            </Position>
            <AltitudeMeters>1218.800048828125</AltitudeMeters>
            <DistanceMeters>8319.3844488051</DistanceMeters>
          </Trackpoint>
          <Trackpoint>
            <Time>2023-02-23T10:28:00.000Z</Time>
            <Position>
              <LatitudeDegrees>41.5340701304376125335693359375</LatitudeDegrees>
              <LongitudeDegrees>-4.58335717208683490753173828125</LongitudeDegrees>
            </Position>
            <AltitudeMeters>1218.800048828125</AltitudeMeters>
            <DistanceMeters>8321.9147302516</DistanceMeters>
          </Trackpoint>
          <Trackpoint>
            <Time>2023-02-23T10:28:01.000Z</Time>
            <Position>
              <LatitudeDegrees>41.53408513404428958892822265625</LatitudeDegrees>
              <LongitudeDegrees>-4.58336387760937213897705078125</LongitudeDegrees>
            </Position>
            <AltitudeMeters>1218.800048828125</AltitudeMeters>
            <DistanceMeters>8323.6772132435</DistanceMeters>
          </Trackpoint>
          <Trackpoint>
            <Time>2023-02-23T10:28:02.000Z</Time>
            <Position>
              <LatitudeDegrees>41.53409787453711032867431640625</LatitudeDegrees>
              <LongitudeDegrees>-4.58336488343775272369384765625</LongitudeDegrees>
            </Position>
            <AltitudeMeters>1218.800048828125</AltitudeMeters>
            <DistanceMeters>8325.0962647039</DistanceMeters>
          </Trackpoint>
          <Trackpoint>
            <Time>2023-02-23T10:28:05.000Z</Time>
            <Position>
              <LatitudeDegrees>41.53414213098585605621337890625</LatitudeDegrees>
              <LongitudeDegrees>-4.58336018957197666168212890625</LongitudeDegrees>
            </Position>
            <AltitudeMeters>1218.800048828125</AltitudeMeters>
            <DistanceMeters>8330.0376538511</DistanceMeters>
          </Trackpoint>
          <Trackpoint>
            <Time>2023-02-23T10:28:06.000Z</Time>
            <Position>
              <LatitudeDegrees>41.53415269218385219573974609375</LatitudeDegrees>
              <LongitudeDegrees>-4.5833646319806575775146484375</LongitudeDegrees>
            </Position>
            <AltitudeMeters>1218.800048828125</AltitudeMeters>
            <DistanceMeters>8331.2693408416</DistanceMeters>
          </Trackpoint>
          <Trackpoint>
            <Time>2023-02-23T10:28:07.000Z</Time>
            <Position>
              <LatitudeDegrees>41.53416492976248264312744140625</LatitudeDegrees>
              <LongitudeDegrees>-4.58336672745645046234130859375</LongitudeDegrees>
            </Position>
            <AltitudeMeters>1219</AltitudeMeters>
            <DistanceMeters>8332.6398356064</DistanceMeters>
          </Trackpoint>
          <Trackpoint>
            <Time>2023-02-23T10:28:12.000Z</Time>
            <Position>
              <LatitudeDegrees>41.5342367626726627349853515625</LatitudeDegrees>
              <LongitudeDegrees>-4.58337686955928802490234375</LongitudeDegrees>
            </Position>
            <AltitudeMeters>1219.800048828125</AltitudeMeters>
            <DistanceMeters>8340.6790057818</DistanceMeters>
          </Trackpoint>
          <Trackpoint>
            <Time>2023-02-23T10:28:15.000Z</Time>
            <Position>
              <LatitudeDegrees>41.53428663499653339385986328125</LatitudeDegrees>
              <LongitudeDegrees>-4.5833720080554485321044921875</LongitudeDegrees>
            </Position>
            <AltitudeMeters>1220.199951171875</AltitudeMeters>
            <DistanceMeters>8346.2443595175</DistanceMeters>
          </Trackpoint>
          <Trackpoint>
            <Time>2023-02-23T10:28:19.000Z</Time>
            <Position>
              <LatitudeDegrees>41.53434966690838336944580078125</LatitudeDegrees>
              <LongitudeDegrees>-4.583380557596683502197265625</LongitudeDegrees>
            </Position>
            <AltitudeMeters>1220.5999755859375</AltitudeMeters>
            <DistanceMeters>8353.2962125347</DistanceMeters>
          </Trackpoint>
          <Trackpoint>
            <Time>2023-02-23T10:28:20.000Z</Time>
            <Position>
              <LatitudeDegrees>41.53435972519218921661376953125</LatitudeDegrees>
              <LongitudeDegrees>-4.58338399417698383331298828125</LongitudeDegrees>
            </Position>
            <AltitudeMeters>1220.800048828125</AltitudeMeters>
            <DistanceMeters>8354.4522624098</DistanceMeters>
          </Trackpoint>
          <Trackpoint>
            <Time>2023-02-23T10:28:21.000Z</Time>
            <Position>
              <LatitudeDegrees>41.53437741100788116455078125</LatitudeDegrees>
              <LongitudeDegrees>-4.58339472301304340362548828125</LongitudeDegrees>
            </Position>
            <AltitudeMeters>1220.800048828125</AltitudeMeters>
            <DistanceMeters>8356.6129450615</DistanceMeters>
          </Trackpoint>
          <Trackpoint>
            <Time>2023-02-23T10:28:24.000Z</Time>
            <Position>
              <LatitudeDegrees>41.5344317257404327392578125</LatitudeDegrees>
              <LongitudeDegrees>-4.58341039717197418212890625</LongitudeDegrees>
            </Position>
            <AltitudeMeters>1220.5999755859375</AltitudeMeters>
            <DistanceMeters>8362.7977169908</DistanceMeters>
          </Trackpoint>
          <Trackpoint>
            <Time>2023-02-23T10:28:25.000Z</Time>
            <Position>
              <LatitudeDegrees>41.5344503335654735565185546875</LatitudeDegrees>
              <LongitudeDegrees>-4.58340042270720005035400390625</LongitudeDegrees>
            </Position>
            <AltitudeMeters>1220.5999755859375</AltitudeMeters>
            <DistanceMeters>8365.0283160405</DistanceMeters>
          </Trackpoint>
          <Trackpoint>
            <Time>2023-02-23T10:28:30.000Z</Time>
            <Position>
              <LatitudeDegrees>41.53455737046897411346435546875</LatitudeDegrees>
              <LongitudeDegrees>-4.58333152346312999725341796875</LongitudeDegrees>
            </Position>
            <AltitudeMeters>1221</AltitudeMeters>
            <DistanceMeters>8378.253085247</DistanceMeters>
          </Trackpoint>
          <Trackpoint>
            <Time>2023-02-23T10:28:32.000Z</Time>
            <Position>
              <LatitudeDegrees>41.53460673987865447998046875</LatitudeDegrees>
              <LongitudeDegrees>-4.5833042822778224945068359375</LongitudeDegrees>
            </Position>
            <AltitudeMeters>1221.199951171875</AltitudeMeters>
            <DistanceMeters>8384.1981436321</DistanceMeters>
          </Trackpoint>
          <Trackpoint>
            <Time>2023-02-23T10:28:36.000Z</Time>
            <Position>
              <LatitudeDegrees>41.5347026288509368896484375</LatitudeDegrees>
              <LongitudeDegrees>-4.58326061256229877471923828125</LongitudeDegrees>
            </Position>
            <AltitudeMeters>1221.199951171875</AltitudeMeters>
            <DistanceMeters>8395.4739352376</DistanceMeters>
          </Trackpoint>
          <Trackpoint>
            <Time>2023-02-23T10:28:43.000Z</Time>
            <Position>
              <LatitudeDegrees>41.534872949123382568359375</LatitudeDegrees>
              <LongitudeDegrees>-4.5831839181482791900634765625</LongitudeDegrees>
            </Position>
            <AltitudeMeters>1221</AltitudeMeters>
            <DistanceMeters>8415.4785821419</DistanceMeters>
          </Trackpoint>
          <Trackpoint>
            <Time>2023-02-23T10:28:48.000Z</Time>
            <Position>
              <LatitudeDegrees>41.5350003540515899658203125</LatitudeDegrees>
              <LongitudeDegrees>-4.5831363089382648468017578125</LongitudeDegrees>
            </Position>
            <AltitudeMeters>1221</AltitudeMeters>
            <DistanceMeters>8430.2034307149</DistanceMeters>
          </Trackpoint>
          <Trackpoint>
            <Time>2023-02-23T10:28:50.000Z</Time>
            <Position>
              <LatitudeDegrees>41.535048969089984893798828125</LatitudeDegrees>
              <LongitudeDegrees>-4.583112336695194244384765625</LongitudeDegrees>
            </Position>
            <AltitudeMeters>1221.199951171875</AltitudeMeters>
            <DistanceMeters>8435.9711687134</DistanceMeters>
          </Trackpoint>
          <Trackpoint>
            <Time>2023-02-23T10:28:56.000Z</Time>
            <Position>
              <LatitudeDegrees>41.53519238345324993133544921875</LatitudeDegrees>
              <LongitudeDegrees>-4.5830156095325946807861328125</LongitudeDegrees>
            </Position>
            <AltitudeMeters>1221.800048828125</AltitudeMeters>
            <DistanceMeters>8453.8523584593</DistanceMeters>
          </Trackpoint>
          <Trackpoint>
            <Time>2023-02-23T10:28:59.000Z</Time>
            <Position>
              <LatitudeDegrees>41.53526983223855495452880859375</LatitudeDegrees>
              <LongitudeDegrees>-4.58296473138034343719482421875</LongitudeDegrees>
            </Position>
            <AltitudeMeters>1221.800048828125</AltitudeMeters>
            <DistanceMeters>8463.4580505793</DistanceMeters>
          </Trackpoint>
          <Trackpoint>
            <Time>2023-02-23T10:29:04.000Z</Time>
            <Position>
              <LatitudeDegrees>41.53539597988128662109375</LatitudeDegrees>
              <LongitudeDegrees>-4.58287051878869533538818359375</LongitudeDegrees>
            </Position>
            <AltitudeMeters>1221.5999755859375</AltitudeMeters>
            <DistanceMeters>8479.5436904616</DistanceMeters>
          </Trackpoint>
          <Trackpoint>
            <Time>2023-02-23T10:29:05.000Z</Time>
            <Position>
              <LatitudeDegrees>41.5354212932288646697998046875</LatitudeDegrees>
              <LongitudeDegrees>-4.582852832973003387451171875</LongitudeDegrees>
            </Position>
            <AltitudeMeters>1221.5999755859375</AltitudeMeters>
            <DistanceMeters>8482.7238925963</DistanceMeters>
          </Trackpoint>
          <Trackpoint>
            <Time>2023-02-23T10:29:08.000Z</Time>
            <Position>
              <LatitudeDegrees>41.53550125658512115478515625</LatitudeDegrees>
              <LongitudeDegrees>-4.5828013680875301361083984375</LongitudeDegrees>
            </Position>
            <AltitudeMeters>1221.800048828125</AltitudeMeters>
            <DistanceMeters>8492.6034723587</DistanceMeters>
          </Trackpoint>
          <Trackpoint>
            <Time>2023-02-23T10:29:14.000Z</Time>
            <Position>
              <LatitudeDegrees>41.535651125013828277587890625</LatitudeDegrees>
              <LongitudeDegrees>-4.5827091671526432037353515625</LongitudeDegrees>
            </Position>
            <AltitudeMeters>1221.5999755859375</AltitudeMeters>
            <DistanceMeters>8510.9679841962</DistanceMeters>
          </Trackpoint>
          <Trackpoint>
            <Time>2023-02-23T10:29:15.000Z</Time>
            <Position>
              <LatitudeDegrees>41.5356683917343616485595703125</LatitudeDegrees>
              <LongitudeDegrees>-4.58269919268786907196044921875</LongitudeDegrees>
            </Position>
            <AltitudeMeters>1221.4000244140625</AltitudeMeters>
            <DistanceMeters>8513.0628868555</DistanceMeters>
          </Trackpoint>
          <Trackpoint>
            <Time>2023-02-23T10:29:16.000Z</Time>
            <Position>
              <LatitudeDegrees>41.5356841497123241424560546875</LatitudeDegrees>
              <LongitudeDegrees>-4.58268796093761920928955078125</LongitudeDegrees>
            </Position>
            <AltitudeMeters>1221.4000244140625</AltitudeMeters>
            <DistanceMeters>8515.0516486518</DistanceMeters>
          </Trackpoint>
          <Trackpoint>
            <Time>2023-02-23T10:29:17.000Z</Time>
            <Position>
              <LatitudeDegrees>41.5356955491006374359130859375</LatitudeDegrees>
              <LongitudeDegrees>-4.58267119713127613067626953125</LongitudeDegrees>
            </Position>
            <AltitudeMeters>1221.4000244140625</AltitudeMeters>
            <DistanceMeters>8516.9402672462</DistanceMeters>
          </Trackpoint>
          <Trackpoint>
            <Time>2023-02-23T10:29:19.000Z</Time>
            <Position>
              <LatitudeDegrees>41.5356995724141597747802734375</LatitudeDegrees>
              <LongitudeDegrees>-4.58262995816767215728759765625</LongitudeDegrees>
            </Position>
            <AltitudeMeters>1221.800048828125</AltitudeMeters>
            <DistanceMeters>8520.4058121775</DistanceMeters>
          </Trackpoint>
          <Trackpoint>
            <Time>2023-02-23T10:29:21.000Z</Time>
            <Position>
              <LatitudeDegrees>41.53569261543452739715576171875</LatitudeDegrees>
              <LongitudeDegrees>-4.582600705325603485107421875</LongitudeDegrees>
            </Position>
            <AltitudeMeters>1222.4000244140625</AltitudeMeters>
            <DistanceMeters>8522.9627195566</DistanceMeters>
          </Trackpoint>
          <Trackpoint>
            <Time>2023-02-23T10:29:26.000Z</Time>
            <Position>
              <LatitudeDegrees>41.53566931374371051788330078125</LatitudeDegrees>
              <LongitudeDegrees>-4.58253063261508941650390625</LongitudeDegrees>
            </Position>
            <AltitudeMeters>1223.199951171875</AltitudeMeters>
            <DistanceMeters>8529.3500417947</DistanceMeters>
          </Trackpoint>
          <Trackpoint>
            <Time>2023-02-23T10:29:28.000Z</Time>
            <Position>
              <LatitudeDegrees>41.535667218267917633056640625</LatitudeDegrees>
              <LongitudeDegrees>-4.58251445554196834564208984375</LongitudeDegrees>
            </Position>
            <AltitudeMeters>1223.199951171875</AltitudeMeters>
            <DistanceMeters>8530.7139317271</DistanceMeters>
          </Trackpoint>
          <Trackpoint>
            <Time>2023-02-23T10:29:31.000Z</Time>
            <Position>
              <LatitudeDegrees>41.5356623567640781402587890625</LatitudeDegrees>
              <LongitudeDegrees>-4.58250322379171848297119140625</LongitudeDegrees>
            </Position>
            <AltitudeMeters>1223</AltitudeMeters>
            <DistanceMeters>8531.7890362731</DistanceMeters>
          </Trackpoint>
          <Trackpoint>
            <Time>2023-02-23T10:29:36.000Z</Time>
            <Position>
              <LatitudeDegrees>41.53564609587192535400390625</LatitudeDegrees>
              <LongitudeDegrees>-4.58248059265315532684326171875</LongitudeDegrees>
            </Position>
            <AltitudeMeters>1222.800048828125</AltitudeMeters>
            <DistanceMeters>8534.4018389429</DistanceMeters>
          </Trackpoint>
          <Trackpoint>
            <Time>2023-02-23T10:29:37.000Z</Time>
            <Position>
              <LatitudeDegrees>41.53564416803419589996337890625</LatitudeDegrees>
              <LongitudeDegrees>-4.5824751444160938262939453125</LongitudeDegrees>
            </Position>
            <AltitudeMeters>1222.800048828125</AltitudeMeters>
            <DistanceMeters>8534.9046730512</DistanceMeters>
          </Trackpoint>
          <Trackpoint>
            <Time>2023-02-23T10:29:42.000Z</Time>
            <Position>
              <LatitudeDegrees>41.53564467094838619232177734375</LatitudeDegrees>
              <LongitudeDegrees>-4.58246852271258831024169921875</LongitudeDegrees>
            </Position>
            <AltitudeMeters>1222.5999755859375</AltitudeMeters>
            <DistanceMeters>8535.4587692514</DistanceMeters>
          </Trackpoint>
          <Trackpoint>
            <Time>2023-02-23T10:29:46.000Z</Time>
            <Position>
              <LatitudeDegrees>41.5356425754725933074951171875</LatitudeDegrees>
              <LongitudeDegrees>-4.58247472532093524932861328125</LongitudeDegrees>
            </Position>
            <AltitudeMeters>1222.800048828125</AltitudeMeters>
            <DistanceMeters>8536.0367941889</DistanceMeters>
          </Trackpoint>
          <Trackpoint>
            <Time>2023-02-23T10:29:49.000Z</Time>
            <Position>
              <LatitudeDegrees>41.5356388874351978302001953125</LatitudeDegrees>
              <LongitudeDegrees>-4.5824701152741909027099609375</LongitudeDegrees>
            </Position>
            <AltitudeMeters>1222.800048828125</AltitudeMeters>
            <DistanceMeters>8536.5989798127</DistanceMeters>
          </Trackpoint>
          <Trackpoint>
            <Time>2023-02-23T10:29:51.000Z</Time>
            <Position>
              <LatitudeDegrees>41.53563670814037322998046875</LatitudeDegrees>
              <LongitudeDegrees>-4.58248092792928218841552734375</LongitudeDegrees>
            </Position>
            <AltitudeMeters>1222.800048828125</AltitudeMeters>
            <DistanceMeters>8537.5300476612</DistanceMeters>
          </Trackpoint>
          <Trackpoint>
            <Time>2023-02-23T10:29:52.000Z</Time>
            <Position>
              <LatitudeDegrees>41.53563578613102436065673828125</LatitudeDegrees>
              <LongitudeDegrees>-4.58248377777636051177978515625</LongitudeDegrees>
            </Position>
            <AltitudeMeters>1222.5999755859375</AltitudeMeters>
            <DistanceMeters>8537.7988237977</DistanceMeters>
          </Trackpoint>
          <Trackpoint>
            <Time>2023-02-23T10:29:59.000Z</Time>
            <Position>
              <LatitudeDegrees>41.5356402285397052764892578125</LatitudeDegrees>
              <LongitudeDegrees>-4.582511521875858306884765625</LongitudeDegrees>
            </Position>
            <AltitudeMeters>1222.199951171875</AltitudeMeters>
            <DistanceMeters>8540.1649699038</DistanceMeters>
          </Trackpoint>
          <Trackpoint>
            <Time>2023-02-23T10:30:00.000Z</Time>
            <Position>
              <LatitudeDegrees>41.53563846834003925323486328125</LatitudeDegrees>
              <LongitudeDegrees>-4.5825160481035709381103515625</LongitudeDegrees>
            </Position>
            <AltitudeMeters>1222</AltitudeMeters>
            <DistanceMeters>8540.6004370154</DistanceMeters>
          </Trackpoint>
          <Trackpoint>
            <Time>2023-02-23T10:30:10.000Z</Time>
            <Position>
              <LatitudeDegrees>41.535643078386783599853515625</LatitudeDegrees>
              <LongitudeDegrees>-4.582528285682201385498046875</LongitudeDegrees>
            </Position>
            <AltitudeMeters>1221.800048828125</AltitudeMeters>
            <DistanceMeters>8541.7407575879</DistanceMeters>
          </Trackpoint>
          <Trackpoint>
            <Time>2023-02-23T10:30:13.000Z</Time>
            <Position>
              <LatitudeDegrees>41.5356439165771007537841796875</LatitudeDegrees>
              <LongitudeDegrees>-4.582540690898895263671875</LongitudeDegrees>
            </Position>
            <AltitudeMeters>1221.800048828125</AltitudeMeters>
            <DistanceMeters>8542.7730119269</DistanceMeters>
          </Trackpoint>
          <Trackpoint>
            <Time>2023-02-23T10:30:16.000Z</Time>
            <Position>
              <LatitudeDegrees>41.53564299456775188446044921875</LatitudeDegrees>
              <LongitudeDegrees>-4.5825435407459735870361328125</LongitudeDegrees>
            </Position>
            <AltitudeMeters>1222.199951171875</AltitudeMeters>
            <DistanceMeters>8543.0417880634</DistanceMeters>
          </Trackpoint>
          <Trackpoint>
            <Time>2023-02-23T10:30:22.000Z</Time>
            <Position>
              <LatitudeDegrees>41.5356439165771007537841796875</LatitudeDegrees>
              <LongitudeDegrees>-4.5825505815446376800537109375</LongitudeDegrees>
            </Position>
            <AltitudeMeters>1222.199951171875</AltitudeMeters>
            <DistanceMeters>8543.6427897753</DistanceMeters>
          </Trackpoint>
          <Trackpoint>
            <Time>2023-02-23T10:30:23.000Z</Time>
            <Position>
              <LatitudeDegrees>41.535645090043544769287109375</LatitudeDegrees>
              <LongitudeDegrees>-4.582546055316925048828125</LongitudeDegrees>
            </Position>
            <AltitudeMeters>1222.199951171875</AltitudeMeters>
            <DistanceMeters>8544.0459539801</DistanceMeters>
          </Trackpoint>
          <Trackpoint>
            <Time>2023-02-23T10:30:25.000Z</Time>
            <Position>
              <LatitudeDegrees>41.53564433567225933074951171875</LatitudeDegrees>
              <LongitudeDegrees>-4.5825432054698467254638671875</LongitudeDegrees>
            </Position>
            <AltitudeMeters>1222</AltitudeMeters>
            <DistanceMeters>8544.2973710342</DistanceMeters>
          </Trackpoint>
          <Trackpoint>
            <Time>2023-02-23T10:30:32.000Z</Time>
            <Position>
              <LatitudeDegrees>41.5356462635099887847900390625</LatitudeDegrees>
              <LongitudeDegrees>-4.58253557793796062469482421875</LongitudeDegrees>
            </Position>
            <AltitudeMeters>1222</AltitudeMeters>
            <DistanceMeters>8544.9693113755</DistanceMeters>
          </Trackpoint>
          <Trackpoint>
            <Time>2023-02-23T10:30:34.000Z</Time>
            <Position>
              <LatitudeDegrees>41.53564735315740108489990234375</LatitudeDegrees>
              <LongitudeDegrees>-4.58253440447151660919189453125</LongitudeDegrees>
            </Position>
            <AltitudeMeters>1221.800048828125</AltitudeMeters>
            <DistanceMeters>8545.1339024728</DistanceMeters>
          </Trackpoint>
          <Trackpoint>
            <Time>2023-02-23T10:30:40.000Z</Time>
            <Position>
              <LatitudeDegrees>41.53564902953803539276123046875</LatitudeDegrees>
              <LongitudeDegrees>-4.58252015523612499237060546875</LongitudeDegrees>
            </Position>
            <AltitudeMeters>1221.4000244140625</AltitudeMeters>
            <DistanceMeters>8546.3359058967</DistanceMeters>
          </Trackpoint>
          <Trackpoint>
            <Time>2023-02-23T10:30:41.000Z</Time>
            <Position>
              <LatitudeDegrees>41.5356496162712574005126953125</LatitudeDegrees>
              <LongitudeDegrees>-4.58252049051225185394287109375</LongitudeDegrees>
            </Position>
            <AltitudeMeters>1221.5999755859375</AltitudeMeters>
            <DistanceMeters>8546.3359058967</DistanceMeters>
          </Trackpoint>
          <Trackpoint>
            <Time>2023-02-23T10:30:42.000Z</Time>
            <Position>
              <LatitudeDegrees>41.53565003536641597747802734375</LatitudeDegrees>
              <LongitudeDegrees>-4.582520909607410430908203125</LongitudeDegrees>
            </Position>
            <AltitudeMeters>1221.800048828125</AltitudeMeters>
            <DistanceMeters>8546.3359058967</DistanceMeters>
          </Trackpoint>
          <Trackpoint>
            <Time>2023-02-23T10:30:43.000Z</Time>
            <Position>
              <LatitudeDegrees>41.5356516279280185699462890625</LatitudeDegrees>
              <LongitudeDegrees>-4.58251914940774440765380859375</LongitudeDegrees>
            </Position>
            <AltitudeMeters>1221.800048828125</AltitudeMeters>
            <DistanceMeters>8546.5686728588</DistanceMeters>
          </Trackpoint>
          <Trackpoint>
            <Time>2023-02-23T10:30:44.000Z</Time>
            <Position>
              <LatitudeDegrees>41.5356522984802722930908203125</LatitudeDegrees>
              <LongitudeDegrees>-4.58251629956066608428955078125</LongitudeDegrees>
            </Position>
            <AltitudeMeters>1221.800048828125</AltitudeMeters>
            <DistanceMeters>8546.801439821</DistanceMeters>
          </Trackpoint>
          <Trackpoint>
            <Time>2023-02-23T10:30:49.000Z</Time>
            <Position>
              <LatitudeDegrees>41.53564752079546451568603515625</LatitudeDegrees>
              <LongitudeDegrees>-4.58251453936100006103515625</LongitudeDegrees>
            </Position>
            <AltitudeMeters>1222</AltitudeMeters>
            <DistanceMeters>8547.3473267348</DistanceMeters>
          </Trackpoint>
          <Trackpoint>
            <Time>2023-02-23T10:30:56.000Z</Time>
            <Position>
              <LatitudeDegrees>41.53565146028995513916015625</LatitudeDegrees>
              <LongitudeDegrees>-4.58253155462443828582763671875</LongitudeDegrees>
            </Position>
            <AltitudeMeters>1222.199951171875</AltitudeMeters>
            <DistanceMeters>8548.831691465</DistanceMeters>
          </Trackpoint>
          <Trackpoint>
            <Time>2023-02-23T10:30:58.000Z</Time>
            <Position>
              <LatitudeDegrees>41.53565171174705028533935546875</LatitudeDegrees>
              <LongitudeDegrees>-4.58253038115799427032470703125</LongitudeDegrees>
            </Position>
            <AltitudeMeters>1222.4000244140625</AltitudeMeters>
            <DistanceMeters>8548.831691465</DistanceMeters>
          </Trackpoint>
          <Trackpoint>
            <Time>2023-02-23T10:31:04.000Z</Time>
            <Position>
              <LatitudeDegrees>41.5356479398906230926513671875</LatitudeDegrees>
              <LongitudeDegrees>-4.5825103484094142913818359375</LongitudeDegrees>
            </Position>
            <AltitudeMeters>1222.5999755859375</AltitudeMeters>
            <DistanceMeters>8550.5579374575</DistanceMeters>
          </Trackpoint>
          <Trackpoint>
            <Time>2023-02-23T10:31:07.000Z</Time>
            <Position>
              <LatitudeDegrees>41.53563980944454669952392578125</LatitudeDegrees>
              <LongitudeDegrees>-4.58249651826918125152587890625</LongitudeDegrees>
            </Position>
            <AltitudeMeters>1222.5999755859375</AltitudeMeters>
            <DistanceMeters>8552.0239382056</DistanceMeters>
          </Trackpoint>
          <Trackpoint>
            <Time>2023-02-23T10:31:10.000Z</Time>
            <Position>
              <LatitudeDegrees>41.535628326237201690673828125</LatitudeDegrees>
              <LongitudeDegrees>-4.58247941918671131134033203125</LongitudeDegrees>
            </Position>
            <AltitudeMeters>1222.5999755859375</AltitudeMeters>
            <DistanceMeters>8553.9386734448</DistanceMeters>
          </Trackpoint>
          <Trackpoint>
            <Time>2023-02-23T10:31:12.000Z</Time>
            <Position>
              <LatitudeDegrees>41.5356271527707576751708984375</LatitudeDegrees>
              <LongitudeDegrees>-4.5824744738638401031494140625</LongitudeDegrees>
            </Position>
            <AltitudeMeters>1222.4000244140625</AltitudeMeters>
            <DistanceMeters>8554.3741405565</DistanceMeters>
          </Trackpoint>
          <Trackpoint>
            <Time>2023-02-23T10:31:21.000Z</Time>
            <Position>
              <LatitudeDegrees>41.535613574087619781494140625</LatitudeDegrees>
              <LongitudeDegrees>-4.58244756795465946197509765625</LongitudeDegrees>
            </Position>
            <AltitudeMeters>1222.5999755859375</AltitudeMeters>
            <DistanceMeters>8557.0769782955</DistanceMeters>
          </Trackpoint>
          <Trackpoint>
            <Time>2023-02-23T10:31:26.000Z</Time>
            <Position>
              <LatitudeDegrees>41.53559588827192783355712890625</LatitudeDegrees>
              <LongitudeDegrees>-4.58245553076267242431640625</LongitudeDegrees>
            </Position>
            <AltitudeMeters>1222.800048828125</AltitudeMeters>
            <DistanceMeters>8559.1545674127</DistanceMeters>
          </Trackpoint>
          <Trackpoint>
            <Time>2023-02-23T10:31:31.000Z</Time>
            <Position>
              <LatitudeDegrees>41.53557233512401580810546875</LatitudeDegrees>
              <LongitudeDegrees>-4.5824466459453105926513671875</LongitudeDegrees>
            </Position>
            <AltitudeMeters>1222.800048828125</AltitudeMeters>
            <DistanceMeters>8561.8790348537</DistanceMeters>
          </Trackpoint>
          <Trackpoint>
            <Time>2023-02-23T10:31:34.000Z</Time>
            <Position>
              <LatitudeDegrees>41.5356341935694217681884765625</LatitudeDegrees>
              <LongitudeDegrees>-4.58252065815031528472900390625</LongitudeDegrees>
            </Position>
            <AltitudeMeters>1222.800048828125</AltitudeMeters>
            <DistanceMeters>8571.1215736369</DistanceMeters>
          </Trackpoint>
          <Trackpoint>
            <Time>2023-02-23T10:31:35.000Z</Time>
            <Position>
              <LatitudeDegrees>41.5356365405023097991943359375</LatitudeDegrees>
              <LongitudeDegrees>-4.58252451382577419281005859375</LongitudeDegrees>
            </Position>
            <AltitudeMeters>1222.800048828125</AltitudeMeters>
            <DistanceMeters>8571.5247378417</DistanceMeters>
          </Trackpoint>
          <Trackpoint>
            <Time>2023-02-23T10:31:37.000Z</Time>
            <Position>
              <LatitudeDegrees>41.5356348641216754913330078125</LatitudeDegrees>
              <LongitudeDegrees>-4.58251646719872951507568359375</LongitudeDegrees>
            </Position>
            <AltitudeMeters>1222.800048828125</AltitudeMeters>
            <DistanceMeters>8572.2230387281</DistanceMeters>
          </Trackpoint>
          <Trackpoint>
            <Time>2023-02-23T10:31:41.000Z</Time>
            <Position>
              <LatitudeDegrees>41.53562958352267742156982421875</LatitudeDegrees>
              <LongitudeDegrees>-4.582516886293888092041015625</LongitudeDegrees>
            </Position>
            <AltitudeMeters>1222.5999755859375</AltitudeMeters>
            <DistanceMeters>8572.8088227368</DistanceMeters>
          </Trackpoint>
          <Trackpoint>
            <Time>2023-02-23T10:31:44.000Z</Time>
            <Position>
              <LatitudeDegrees>41.53562824241816997528076171875</LatitudeDegrees>
              <LongitudeDegrees>-4.5825106836855411529541015625</LongitudeDegrees>
            </Position>
            <AltitudeMeters>1222.5999755859375</AltitudeMeters>
            <DistanceMeters>8573.3463750098</DistanceMeters>
          </Trackpoint>
          <Trackpoint>
            <Time>2023-02-23T10:31:50.000Z</Time>
            <Position>
              <LatitudeDegrees>41.53562019579112529754638671875</LatitudeDegrees>
              <LongitudeDegrees>-4.582543708384037017822265625</LongitudeDegrees>
            </Position>
            <AltitudeMeters>1222.4000244140625</AltitudeMeters>
            <DistanceMeters>8576.2380615051</DistanceMeters>
          </Trackpoint>
          <Trackpoint>
            <Time>2023-02-23T10:31:52.000Z</Time>
            <Position>
              <LatitudeDegrees>41.535623967647552490234375</LatitudeDegrees>
              <LongitudeDegrees>-4.58255753852427005767822265625</LongitudeDegrees>
            </Position>
            <AltitudeMeters>1222.5999755859375</AltitudeMeters>
            <DistanceMeters>8577.4623950748</DistanceMeters>
          </Trackpoint>
          <Trackpoint>
            <Time>2023-02-23T10:31:56.000Z</Time>
            <Position>
              <LatitudeDegrees>41.535637043416500091552734375</LatitudeDegrees>
              <LongitudeDegrees>-4.5825519226491451263427734375</LongitudeDegrees>
            </Position>
            <AltitudeMeters>1222.5999755859375</AltitudeMeters>
            <DistanceMeters>8578.9946548032</DistanceMeters>
          </Trackpoint>
          <Trackpoint>
            <Time>2023-02-23T10:32:03.000Z</Time>
            <Position>
              <LatitudeDegrees>41.53564919717609882354736328125</LatitudeDegrees>
              <LongitudeDegrees>-4.5825244300067424774169921875</LongitudeDegrees>
            </Position>
            <AltitudeMeters>1222.199951171875</AltitudeMeters>
            <DistanceMeters>8581.6554028056</DistanceMeters>
          </Trackpoint>
          <Trackpoint>
            <Time>2023-02-23T10:32:11.000Z</Time>
            <Position>
              <LatitudeDegrees>41.53565037064254283905029296875</LatitudeDegrees>
              <LongitudeDegrees>-4.58249785937368869781494140625</LongitudeDegrees>
            </Position>
            <AltitudeMeters>1222</AltitudeMeters>
            <DistanceMeters>8583.8717876064</DistanceMeters>
          </Trackpoint>
          <Trackpoint>
            <Time>2023-02-23T10:32:18.000Z</Time>
            <Position>
              <LatitudeDegrees>41.535647772252559661865234375</LatitudeDegrees>
              <LongitudeDegrees>-4.58251277916133403778076171875</LongitudeDegrees>
            </Position>
            <AltitudeMeters>1221.800048828125</AltitudeMeters>
            <DistanceMeters>8585.1467047645</DistanceMeters>
          </Trackpoint>
          <Trackpoint>
            <Time>2023-02-23T10:32:21.000Z</Time>
            <Position>
              <LatitudeDegrees>41.53564819134771823883056640625</LatitudeDegrees>
              <LongitudeDegrees>-4.58251579664647579193115234375</LongitudeDegrees>
            </Position>
            <AltitudeMeters>1222</AltitudeMeters>
            <DistanceMeters>8585.415480901</DistanceMeters>
          </Trackpoint>
          <Trackpoint>
            <Time>2023-02-23T10:32:27.000Z</Time>
            <Position>
              <LatitudeDegrees>41.5356445871293544769287109375</LatitudeDegrees>
              <LongitudeDegrees>-4.5825364999473094940185546875</LongitudeDegrees>
            </Position>
            <AltitudeMeters>1222.4000244140625</AltitudeMeters>
            <DistanceMeters>8587.1856324555</DistanceMeters>
          </Trackpoint>
          <Trackpoint>
            <Time>2023-02-23T10:32:29.000Z</Time>
            <Position>
              <LatitudeDegrees>41.5356455929577350616455078125</LatitudeDegrees>
              <LongitudeDegrees>-4.5825361646711826324462890625</LongitudeDegrees>
            </Position>
            <AltitudeMeters>1222.5999755859375</AltitudeMeters>
            <DistanceMeters>8587.3200205238</DistanceMeters>
          </Trackpoint>
          <Trackpoint>
            <Time>2023-02-23T10:32:35.000Z</Time>
            <Position>
              <LatitudeDegrees>41.5356425754725933074951171875</LatitudeDegrees>
              <LongitudeDegrees>-4.582530297338962554931640625</LongitudeDegrees>
            </Position>
            <AltitudeMeters>1222.800048828125</AltitudeMeters>
            <DistanceMeters>8587.9134621648</DistanceMeters>
          </Trackpoint>
          <Trackpoint>
            <Time>2023-02-23T10:32:41.000Z</Time>
            <Position>
              <LatitudeDegrees>41.5356529690325260162353515625</LatitudeDegrees>
              <LongitudeDegrees>-4.5825358293950557708740234375</LongitudeDegrees>
            </Position>
            <AltitudeMeters>1222.800048828125</AltitudeMeters>
            <DistanceMeters>8589.1597258401</DistanceMeters>
          </Trackpoint>
          <Trackpoint>
            <Time>2023-02-23T10:32:45.000Z</Time>
            <Position>
              <LatitudeDegrees>41.53565774671733379364013671875</LatitudeDegrees>
              <LongitudeDegrees>-4.58251680247485637664794921875</LongitudeDegrees>
            </Position>
            <AltitudeMeters>1222.4000244140625</AltitudeMeters>
            <DistanceMeters>8590.832843797</DistanceMeters>
          </Trackpoint>
          <Trackpoint>
            <Time>2023-02-23T10:32:47.000Z</Time>
            <Position>
              <LatitudeDegrees>41.5356573276221752166748046875</LatitudeDegrees>
              <LongitudeDegrees>-4.5825133658945560455322265625</LongitudeDegrees>
            </Position>
            <AltitudeMeters>1222.4000244140625</AltitudeMeters>
            <DistanceMeters>8591.133344653</DistanceMeters>
          </Trackpoint>
          <Trackpoint>
            <Time>2023-02-23T10:32:48.000Z</Time>
            <Position>
              <LatitudeDegrees>41.535661518573760986328125</LatitudeDegrees>
              <LongitudeDegrees>-4.58251177333295345306396484375</LongitudeDegrees>
            </Position>
            <AltitudeMeters>1222.4000244140625</AltitudeMeters>
            <DistanceMeters>8591.6178877238</DistanceMeters>
          </Trackpoint>
          <Trackpoint>
            <Time>2023-02-23T10:32:50.000Z</Time>
            <Position>
              <LatitudeDegrees>41.5356663800776004791259765625</LatitudeDegrees>
              <LongitudeDegrees>-4.58251680247485637664794921875</LongitudeDegrees>
            </Position>
            <AltitudeMeters>1222.5999755859375</AltitudeMeters>
            <DistanceMeters>8592.3031351062</DistanceMeters>
          </Trackpoint>
          <Trackpoint>
            <Time>2023-02-23T10:32:52.000Z</Time>
            <Position>
              <LatitudeDegrees>41.535667888820171356201171875</LatitudeDegrees>
              <LongitudeDegrees>-4.58251814357936382293701171875</LongitudeDegrees>
            </Position>
            <AltitudeMeters>1222.5999755859375</AltitudeMeters>
            <DistanceMeters>8592.493188535</DistanceMeters>
          </Trackpoint>
          <Trackpoint>
            <Time>2023-02-23T10:32:54.000Z</Time>
            <Position>
              <LatitudeDegrees>41.5356687270104885101318359375</LatitudeDegrees>
              <LongitudeDegrees>-4.5825160481035709381103515625</LongitudeDegrees>
            </Position>
            <AltitudeMeters>1222.5999755859375</AltitudeMeters>
            <DistanceMeters>8592.6832419637</DistanceMeters>
          </Trackpoint>
          <Trackpoint>
            <Time>2023-02-23T10:32:57.000Z</Time>
            <Position>
              <LatitudeDegrees>41.53566746972501277923583984375</LatitudeDegrees>
              <LongitudeDegrees>-4.58251722157001495361328125</LongitudeDegrees>
            </Position>
            <AltitudeMeters>1222.199951171875</AltitudeMeters>
            <DistanceMeters>8592.8478330611</DistanceMeters>
          </Trackpoint>
          <Trackpoint>
            <Time>2023-02-23T10:33:01.000Z</Time>
            <Position>
              <LatitudeDegrees>41.53567132540047168731689453125</LatitudeDegrees>
              <LongitudeDegrees>-4.5825111865997314453125</LongitudeDegrees>
            </Position>
            <AltitudeMeters>1222.4000244140625</AltitudeMeters>
            <DistanceMeters>8593.5061974505</DistanceMeters>
          </Trackpoint>
          <Trackpoint>
            <Time>2023-02-23T10:33:02.000Z</Time>
            <Position>
              <LatitudeDegrees>41.535673253238201141357421875</LatitudeDegrees>
              <LongitudeDegrees>-4.58251529373228549957275390625</LongitudeDegrees>
            </Position>
            <AltitudeMeters>1222.199951171875</AltitudeMeters>
            <DistanceMeters>8593.9311698366</DistanceMeters>
          </Trackpoint>
          <Trackpoint>
            <Time>2023-02-23T10:33:03.000Z</Time>
            <Position>
              <LatitudeDegrees>41.53567484579980373382568359375</LatitudeDegrees>
              <LongitudeDegrees>-4.58251780830323696136474609375</LongitudeDegrees>
            </Position>
            <AltitudeMeters>1222.199951171875</AltitudeMeters>
            <DistanceMeters>8594.1999459731</DistanceMeters>
          </Trackpoint>
          <Trackpoint>
            <Time>2023-02-23T10:33:08.000Z</Time>
            <Position>
              <LatitudeDegrees>41.535681299865245819091796875</LatitudeDegrees>
              <LongitudeDegrees>-4.582518227398395538330078125</LongitudeDegrees>
            </Position>
            <AltitudeMeters>1222</AltitudeMeters>
            <DistanceMeters>8594.9236478687</DistanceMeters>
          </Trackpoint>
          <Trackpoint>
            <Time>2023-02-23T10:33:11.000Z</Time>
            <Position>
              <LatitudeDegrees>41.53566998429596424102783203125</LatitudeDegrees>
              <LongitudeDegrees>-4.58250909112393856048583984375</LongitudeDegrees>
            </Position>
            <AltitudeMeters>1222</AltitudeMeters>
            <DistanceMeters>8596.3957953975</DistanceMeters>
          </Trackpoint>
          <Trackpoint>
            <Time>2023-02-23T10:33:14.000Z</Time>
            <Position>
              <LatitudeDegrees>41.53567216359078884124755859375</LatitudeDegrees>
              <LongitudeDegrees>-4.58250540308654308319091796875</LongitudeDegrees>
            </Position>
            <AltitudeMeters>1222.800048828125</AltitudeMeters>
            <DistanceMeters>8596.775902255</DistanceMeters>
          </Trackpoint>
          <Trackpoint>
            <Time>2023-02-23T10:33:21.000Z</Time>
            <Position>
              <LatitudeDegrees>41.53566596098244190216064453125</LatitudeDegrees>
              <LongitudeDegrees>-4.58251445554196834564208984375</LongitudeDegrees>
            </Position>
            <AltitudeMeters>1222.800048828125</AltitudeMeters>
            <DistanceMeters>8597.7949502377</DistanceMeters>
          </Trackpoint>
          <Trackpoint>
            <Time>2023-02-23T10:33:22.000Z</Time>
            <Position>
              <LatitudeDegrees>41.535665206611156463623046875</LatitudeDegrees>
              <LongitudeDegrees>-4.58252166397869586944580078125</LongitudeDegrees>
            </Position>
            <AltitudeMeters>1222.800048828125</AltitudeMeters>
            <DistanceMeters>8598.3959519496</DistanceMeters>
          </Trackpoint>
          <Trackpoint>
            <Time>2023-02-23T10:33:26.000Z</Time>
            <Position>
              <LatitudeDegrees>41.5356925316154956817626953125</LatitudeDegrees>
              <LongitudeDegrees>-4.582598023116588592529296875</LongitudeDegrees>
            </Position>
            <AltitudeMeters>1223</AltitudeMeters>
            <DistanceMeters>8605.4471646751</DistanceMeters>
          </Trackpoint>
          <Trackpoint>
            <Time>2023-02-23T10:33:31.000Z</Time>
            <Position>
              <LatitudeDegrees>41.53578800149261951446533203125</LatitudeDegrees>
              <LongitudeDegrees>-4.58260984160006046295166015625</LongitudeDegrees>
            </Position>
            <AltitudeMeters>1223</AltitudeMeters>
            <DistanceMeters>8616.1185420012</DistanceMeters>
          </Trackpoint>
          <Trackpoint>
            <Time>2023-02-23T10:33:37.000Z</Time>
            <Position>
              <LatitudeDegrees>41.5359020791947841644287109375</LatitudeDegrees>
              <LongitudeDegrees>-4.5825274474918842315673828125</LongitudeDegrees>
            </Position>
            <AltitudeMeters>1221.4000244140625</AltitudeMeters>
            <DistanceMeters>8630.5519706847</DistanceMeters>
          </Trackpoint>
          <Trackpoint>
            <Time>2023-02-23T10:33:38.000Z</Time>
            <Position>
              <LatitudeDegrees>41.535928063094615936279296875</LatitudeDegrees>
              <LongitudeDegrees>-4.5825147069990634918212890625</LongitudeDegrees>
            </Position>
            <AltitudeMeters>1221.199951171875</AltitudeMeters>
            <DistanceMeters>8633.632654106</DistanceMeters>
          </Trackpoint>
          <Trackpoint>
            <Time>2023-02-23T10:33:44.000Z</Time>
            <Position>
              <LatitudeDegrees>41.53607784770429134368896484375</LatitudeDegrees>
              <LongitudeDegrees>-4.58241932094097137451171875</LongitudeDegrees>
            </Position>
            <AltitudeMeters>1222.199951171875</AltitudeMeters>
            <DistanceMeters>8652.1013594618</DistanceMeters>
          </Trackpoint>
          <Trackpoint>
            <Time>2023-02-23T10:33:45.000Z</Time>
            <Position>
              <LatitudeDegrees>41.53610416688024997711181640625</LatitudeDegrees>
              <LongitudeDegrees>-4.58240632899105548858642578125</LongitudeDegrees>
            </Position>
            <AltitudeMeters>1222.4000244140625</AltitudeMeters>
            <DistanceMeters>8655.2257014143</DistanceMeters>
          </Trackpoint>
          <Trackpoint>
            <Time>2023-02-23T10:33:47.000Z</Time>
            <Position>
              <LatitudeDegrees>41.53615646995604038238525390625</LatitudeDegrees>
              <LongitudeDegrees>-4.58237481303513050079345703125</LongitudeDegrees>
            </Position>
            <AltitudeMeters>1222.5999755859375</AltitudeMeters>
            <DistanceMeters>8661.6123167383</DistanceMeters>
          </Trackpoint>
          <Trackpoint>
            <Time>2023-02-23T10:33:50.000Z</Time>
            <Position>
              <LatitudeDegrees>41.5362333320081233978271484375</LatitudeDegrees>
              <LongitudeDegrees>-4.582327790558338165283203125</LongitudeDegrees>
            </Position>
            <AltitudeMeters>1222.5999755859375</AltitudeMeters>
            <DistanceMeters>8671.0214011495</DistanceMeters>
          </Trackpoint>
          <Trackpoint>
            <Time>2023-02-23T10:33:55.000Z</Time>
            <Position>
              <LatitudeDegrees>41.5363486669957637786865234375</LatitudeDegrees>
              <LongitudeDegrees>-4.5822578854858875274658203125</LongitudeDegrees>
            </Position>
            <AltitudeMeters>1222.5999755859375</AltitudeMeters>
            <DistanceMeters>8685.1177422403</DistanceMeters>
          </Trackpoint>
          <Trackpoint>
            <Time>2023-02-23T10:33:59.000Z</Time>
            <Position>
              <LatitudeDegrees>41.53644212521612644195556640625</LatitudeDegrees>
              <LongitudeDegrees>-4.58220181055366992950439453125</LongitudeDegrees>
            </Position>
            <AltitudeMeters>1222.5999755859375</AltitudeMeters>
            <DistanceMeters>8696.5209479647</DistanceMeters>
          </Trackpoint>
          <Trackpoint>
            <Time>2023-02-23T10:34:00.000Z</Time>
            <Position>
              <LatitudeDegrees>41.53646559454500675201416015625</LatitudeDegrees>
              <LongitudeDegrees>-4.582186639308929443359375</LongitudeDegrees>
            </Position>
            <AltitudeMeters>1222.5999755859375</AltitudeMeters>
            <DistanceMeters>8699.4219876483</DistanceMeters>
          </Trackpoint>
          <Trackpoint>
            <Time>2023-02-23T10:34:02.000Z</Time>
            <Position>
              <LatitudeDegrees>41.5365131199359893798828125</LatitudeDegrees>
              <LongitudeDegrees>-4.58215646445751190185546875</LongitudeDegrees>
            </Position>
            <AltitudeMeters>1222.4000244140625</AltitudeMeters>
            <DistanceMeters>8705.2790569164</DistanceMeters>
          </Trackpoint>
          <Trackpoint>
            <Time>2023-02-23T10:34:05.000Z</Time>
            <Position>
              <LatitudeDegrees>41.5365873835980892181396484375</LatitudeDegrees>
              <LongitudeDegrees>-4.582113884389400482177734375</LongitudeDegrees>
            </Position>
            <AltitudeMeters>1222.5999755859375</AltitudeMeters>
            <DistanceMeters>8714.2735249307</DistanceMeters>
          </Trackpoint>
          <Trackpoint>
            <Time>2023-02-23T10:34:10.000Z</Time>
            <Position>
              <LatitudeDegrees>41.53670984320342540740966796875</LatitudeDegrees>
              <LongitudeDegrees>-4.58204439841210842132568359375</LongitudeDegrees>
            </Position>
            <AltitudeMeters>1223.4000244140625</AltitudeMeters>
            <DistanceMeters>8729.0818461173</DistanceMeters>
          </Trackpoint>
          <Trackpoint>
            <Time>2023-02-23T10:34:15.000Z</Time>
            <Position>
              <LatitudeDegrees>41.53683322481811046600341796875</LatitudeDegrees>
              <LongitudeDegrees>-4.5819635130465030670166015625</LongitudeDegrees>
            </Position>
            <AltitudeMeters>1223.199951171875</AltitudeMeters>
            <DistanceMeters>8744.3790811932</DistanceMeters>
          </Trackpoint>
          <Trackpoint>
            <Time>2023-02-23T10:34:17.000Z</Time>
            <Position>
              <LatitudeDegrees>41.53687714599072933197021484375</LatitudeDegrees>
              <LongitudeDegrees>-4.5819143950939178466796875</LongitudeDegrees>
            </Position>
            <AltitudeMeters>1223</AltitudeMeters>
            <DistanceMeters>8750.7550834008</DistanceMeters>
          </Trackpoint>
          <Trackpoint>
            <Time>2023-02-23T10:34:22.000Z</Time>
            <Position>
              <LatitudeDegrees>41.53691804967820644378662109375</LatitudeDegrees>
              <LongitudeDegrees>-4.58173242397606372833251953125</LongitudeDegrees>
            </Position>
            <AltitudeMeters>1223.199951171875</AltitudeMeters>
            <DistanceMeters>8766.5843777997</DistanceMeters>
          </Trackpoint>
          <Trackpoint>
            <Time>2023-02-23T10:34:23.000Z</Time>
            <Position>
              <LatitudeDegrees>41.53692207299172878265380859375</LatitudeDegrees>
              <LongitudeDegrees>-4.581692107021808624267578125</LongitudeDegrees>
            </Position>
            <AltitudeMeters>1223.4000244140625</AltitudeMeters>
            <DistanceMeters>8769.9721834553</DistanceMeters>
          </Trackpoint>
          <Trackpoint>
            <Time>2023-02-23T10:34:26.000Z</Time>
            <Position>
              <LatitudeDegrees>41.53692953288555145263671875</LatitudeDegrees>
              <LongitudeDegrees>-4.58157149143517017364501953125</LongitudeDegrees>
            </Position>
            <AltitudeMeters>1223.5999755859375</AltitudeMeters>
            <DistanceMeters>8780.054871619</DistanceMeters>
          </Trackpoint>
          <Trackpoint>
            <Time>2023-02-23T10:34:30.000Z</Time>
            <Position>
              <LatitudeDegrees>41.53693414293229579925537109375</LatitudeDegrees>
              <LongitudeDegrees>-4.5814227126538753509521484375</LongitudeDegrees>
            </Position>
            <AltitudeMeters>1223.800048828125</AltitudeMeters>
            <DistanceMeters>8792.4608630308</DistanceMeters>
          </Trackpoint>
          <Trackpoint>
            <Time>2023-02-23T10:34:32.000Z</Time>
            <Position>
              <LatitudeDegrees>41.53693447820842266082763671875</LatitudeDegrees>
              <LongitudeDegrees>-4.5813469402492046356201171875</LongitudeDegrees>
            </Position>
            <AltitudeMeters>1223.800048828125</AltitudeMeters>
            <DistanceMeters>8798.7742422705</DistanceMeters>
          </Trackpoint>
          <Trackpoint>
            <Time>2023-02-23T10:34:37.000Z</Time>
            <Position>
              <LatitudeDegrees>41.5369250066578388214111328125</LatitudeDegrees>
              <LongitudeDegrees>-4.581140242516994476318359375</LongitudeDegrees>
            </Position>
            <AltitudeMeters>1224.199951171875</AltitudeMeters>
            <DistanceMeters>8816.0272837386</DistanceMeters>
          </Trackpoint>
          <Trackpoint>
            <Time>2023-02-23T10:34:39.000Z</Time>
            <Position>
              <LatitudeDegrees>41.53692274354398250579833984375</LatitudeDegrees>
              <LongitudeDegrees>-4.58105541765689849853515625</LongitudeDegrees>
            </Position>
            <AltitudeMeters>1224.4000244140625</AltitudeMeters>
            <DistanceMeters>8823.0989570445</DistanceMeters>
          </Trackpoint>
          <Trackpoint>
            <Time>2023-02-23T10:34:40.000Z</Time>
            <Position>
              <LatitudeDegrees>41.53692291118204593658447265625</LatitudeDegrees>
              <LongitudeDegrees>-4.58101409487426280975341796875</LongitudeDegrees>
            </Position>
            <AltitudeMeters>1224.4000244140625</AltitudeMeters>
            <DistanceMeters>8826.5435935199</DistanceMeters>
          </Trackpoint>
          <Trackpoint>
            <Time>2023-02-23T10:34:48.000Z</Time>
            <Position>
              <LatitudeDegrees>41.53695208020508289337158203125</LatitudeDegrees>
              <LongitudeDegrees>-4.5807074010372161865234375</LongitudeDegrees>
            </Position>
            <AltitudeMeters>1225.199951171875</AltitudeMeters>
            <DistanceMeters>8852.3005664823</DistanceMeters>
          </Trackpoint>
          <Trackpoint>
            <Time>2023-02-23T10:34:49.000Z</Time>
            <Position>
              <LatitudeDegrees>41.536959707736968994140625</LatitudeDegrees>
              <LongitudeDegrees>-4.58067311905324459075927734375</LongitudeDegrees>
            </Position>
            <AltitudeMeters>1225.199951171875</AltitudeMeters>
            <DistanceMeters>8855.2814380362</DistanceMeters>
          </Trackpoint>
          <Trackpoint>
            <Time>2023-02-23T10:34:55.000Z</Time>
            <Position>
              <LatitudeDegrees>41.53695811517536640167236328125</LatitudeDegrees>
              <LongitudeDegrees>-4.5804740488529205322265625</LongitudeDegrees>
            </Position>
            <AltitudeMeters>1225.5999755859375</AltitudeMeters>
            <DistanceMeters>8871.8673431604</DistanceMeters>
          </Trackpoint>
          <Trackpoint>
            <Time>2023-02-23T10:34:56.000Z</Time>
            <Position>
              <LatitudeDegrees>41.536949314177036285400390625</LatitudeDegrees>
              <LongitudeDegrees>-4.580440185964107513427734375</LongitudeDegrees>
            </Position>
            <AltitudeMeters>1225.5999755859375</AltitudeMeters>
            <DistanceMeters>8874.8527552676</DistanceMeters>
          </Trackpoint>
          <Trackpoint>
            <Time>2023-02-23T10:34:59.000Z</Time>
            <Position>
              <LatitudeDegrees>41.53690581209957599639892578125</LatitudeDegrees>
              <LongitudeDegrees>-4.58034572191536426544189453125</LongitudeDegrees>
            </Position>
            <AltitudeMeters>1226</AltitudeMeters>
            <DistanceMeters>8884.0923625483</DistanceMeters>
          </Trackpoint>
          <Trackpoint>
            <Time>2023-02-23T10:35:02.000Z</Time>
            <Position>
              <LatitudeDegrees>41.53685518540441989898681640625</LatitudeDegrees>
              <LongitudeDegrees>-4.58028067834675312042236328125</LongitudeDegrees>
            </Position>
            <AltitudeMeters>1226</AltitudeMeters>
            <DistanceMeters>8891.9100065267</DistanceMeters>
          </Trackpoint>
          <Trackpoint>
            <Time>2023-02-23T10:35:07.000Z</Time>
            <Position>
              <LatitudeDegrees>41.536747477948665618896484375</LatitudeDegrees>
              <LongitudeDegrees>-4.58019442856311798095703125</LongitudeDegrees>
            </Position>
            <AltitudeMeters>1225.4000244140625</AltitudeMeters>
            <DistanceMeters>8905.8866886692</DistanceMeters>
          </Trackpoint>
          <Trackpoint>
            <Time>2023-02-23T10:35:09.000Z</Time>
            <Position>
              <LatitudeDegrees>41.53670347295701503753662109375</LatitudeDegrees>
              <LongitudeDegrees>-4.58014614880084991455078125</LongitudeDegrees>
            </Position>
            <AltitudeMeters>1225.4000244140625</AltitudeMeters>
            <DistanceMeters>8912.225048875</DistanceMeters>
          </Trackpoint>
          <Trackpoint>
            <Time>2023-02-23T10:35:16.000Z</Time>
            <Position>
              <LatitudeDegrees>41.53659786097705364227294921875</LatitudeDegrees>
              <LongitudeDegrees>-4.5799215137958526611328125</LongitudeDegrees>
            </Position>
            <AltitudeMeters>1226.199951171875</AltitudeMeters>
            <DistanceMeters>8934.3252473968</DistanceMeters>
          </Trackpoint>
          <Trackpoint>
            <Time>2023-02-23T10:35:21.000Z</Time>
            <Position>
              <LatitudeDegrees>41.5365448035299777984619140625</LatitudeDegrees>
              <LongitudeDegrees>-4.57977524958550930023193359375</LongitudeDegrees>
            </Position>
            <AltitudeMeters>1226</AltitudeMeters>
            <DistanceMeters>8947.8664708375</DistanceMeters>
          </Trackpoint>
          <Trackpoint>
            <Time>2023-02-23T10:35:28.000Z</Time>
            <Position>
              <LatitudeDegrees>41.5365092642605304718017578125</LatitudeDegrees>
              <LongitudeDegrees>-4.5796068571507930755615234375</LongitudeDegrees>
            </Position>
            <AltitudeMeters>1226</AltitudeMeters>
            <DistanceMeters>8962.4427758786</DistanceMeters>
          </Trackpoint>
          <Trackpoint>
            <Time>2023-02-23T10:35:32.000Z</Time>
            <Position>
              <LatitudeDegrees>41.536471545696258544921875</LatitudeDegrees>
              <LongitudeDegrees>-4.579507447779178619384765625</LongitudeDegrees>
            </Position>
            <AltitudeMeters>1226.199951171875</AltitudeMeters>
            <DistanceMeters>8971.7282037032</DistanceMeters>
          </Trackpoint>
          <Trackpoint>
            <Time>2023-02-23T10:35:35.000Z</Time>
            <Position>
              <LatitudeDegrees>41.53644061647355556488037109375</LatitudeDegrees>
              <LongitudeDegrees>-4.5794496126472949981689453125</LongitudeDegrees>
            </Position>
            <AltitudeMeters>1226.5999755859375</AltitudeMeters>
            <DistanceMeters>8977.6504344407</DistanceMeters>
          </Trackpoint>
          <Trackpoint>
            <Time>2023-02-23T10:35:38.000Z</Time>
            <Position>
              <LatitudeDegrees>41.5364204160869121551513671875</LatitudeDegrees>
              <LongitudeDegrees>-4.57938842475414276123046875</LongitudeDegrees>
            </Position>
            <AltitudeMeters>1226.4000244140625</AltitudeMeters>
            <DistanceMeters>8983.2222746048</DistanceMeters>
          </Trackpoint>
          <Trackpoint>
            <Time>2023-02-23T10:35:42.000Z</Time>
            <Position>
              <LatitudeDegrees>41.536415554583072662353515625</LatitudeDegrees>
              <LongitudeDegrees>-4.5792658813297748565673828125</LongitudeDegrees>
            </Position>
            <AltitudeMeters>1226.4000244140625</AltitudeMeters>
            <DistanceMeters>8993.4463718714</DistanceMeters>
          </Trackpoint>
          <Trackpoint>
            <Time>2023-02-23T10:35:49.000Z</Time>
            <Position>
              <LatitudeDegrees>41.53644145466387271881103515625</LatitudeDegrees>
              <LongitudeDegrees>-4.579032361507415771484375</LongitudeDegrees>
            </Position>
            <AltitudeMeters>1227</AltitudeMeters>
            <DistanceMeters>9013.1139175889</DistanceMeters>
          </Trackpoint>
          <Trackpoint>
            <Time>2023-02-23T10:35:56.000Z</Time>
            <Position>
              <LatitudeDegrees>41.53649157844483852386474609375</LatitudeDegrees>
              <LongitudeDegrees>-4.5788394100964069366455078125</LongitudeDegrees>
            </Position>
            <AltitudeMeters>1226.800048828125</AltitudeMeters>
            <DistanceMeters>9030.1298034342</DistanceMeters>
          </Trackpoint>
          <Trackpoint>
            <Time>2023-02-23T10:36:03.000Z</Time>
            <Position>
              <LatitudeDegrees>41.536536253988742828369140625</LatitudeDegrees>
              <LongitudeDegrees>-4.57863195799291133880615234375</LongitudeDegrees>
            </Position>
            <AltitudeMeters>1226.800048828125</AltitudeMeters>
            <DistanceMeters>9048.1147231789</DistanceMeters>
          </Trackpoint>
          <Trackpoint>
            <Time>2023-02-23T10:36:04.000Z</Time>
            <Position>
              <LatitudeDegrees>41.53653181158006191253662109375</LatitudeDegrees>
              <LongitudeDegrees>-4.578594826161861419677734375</LongitudeDegrees>
            </Position>
            <AltitudeMeters>1226.800048828125</AltitudeMeters>
            <DistanceMeters>9051.2477238324</DistanceMeters>
          </Trackpoint>
          <Trackpoint>
            <Time>2023-02-23T10:36:07.000Z</Time>
            <Position>
              <LatitudeDegrees>41.5365426242351531982421875</LatitudeDegrees>
              <LongitudeDegrees>-4.5784910582005977630615234375</LongitudeDegrees>
            </Position>
            <AltitudeMeters>1227</AltitudeMeters>
            <DistanceMeters>9059.9767435387</DistanceMeters>
          </Trackpoint>
          <Trackpoint>
            <Time>2023-02-23T10:36:08.000Z</Time>
            <Position>
              <LatitudeDegrees>41.53655243106186389923095703125</LatitudeDegrees>
              <LongitudeDegrees>-4.57846113480627536773681640625</LongitudeDegrees>
            </Position>
            <AltitudeMeters>1227.199951171875</AltitudeMeters>
            <DistanceMeters>9062.6978945239</DistanceMeters>
          </Trackpoint>
          <Trackpoint>
            <Time>2023-02-23T10:36:09.000Z</Time>
            <Position>
              <LatitudeDegrees>41.53656064532697200775146484375</LatitudeDegrees>
              <LongitudeDegrees>-4.57843196578323841094970703125</LongitudeDegrees>
            </Position>
            <AltitudeMeters>1227.199951171875</AltitudeMeters>
            <DistanceMeters>9065.2933592274</DistanceMeters>
          </Trackpoint>
          <Trackpoint>
            <Time>2023-02-23T10:36:10.000Z</Time>
            <Position>
              <LatitudeDegrees>41.53655829839408397674560546875</LatitudeDegrees>
              <LongitudeDegrees>-4.57840413786470890045166015625</LongitudeDegrees>
            </Position>
            <AltitudeMeters>1227.199951171875</AltitudeMeters>
            <DistanceMeters>9067.6249050707</DistanceMeters>
          </Trackpoint>
          <Trackpoint>
            <Time>2023-02-23T10:36:17.000Z</Time>
            <Position>
              <LatitudeDegrees>41.53655410744249820709228515625</LatitudeDegrees>
              <LongitudeDegrees>-4.5782023854553699493408203125</LongitudeDegrees>
            </Position>
            <AltitudeMeters>1227</AltitudeMeters>
            <DistanceMeters>9084.4400694651</DistanceMeters>
          </Trackpoint>
          <Trackpoint>
            <Time>2023-02-23T10:36:18.000Z</Time>
            <Position>
              <LatitudeDegrees>41.5365421213209629058837890625</LatitudeDegrees>
              <LongitudeDegrees>-4.57817472517490386962890625</LongitudeDegrees>
            </Position>
            <AltitudeMeters>1227</AltitudeMeters>
            <DistanceMeters>9087.1008174675</DistanceMeters>
          </Trackpoint>
          <Trackpoint>
            <Time>2023-02-23T10:36:23.000Z</Time>
            <Position>
              <LatitudeDegrees>41.53649761341512203216552734375</LatitudeDegrees>
              <LongitudeDegrees>-4.57805830053985118865966796875</LongitudeDegrees>
            </Position>
            <AltitudeMeters>1227.4000244140625</AltitudeMeters>
            <DistanceMeters>9097.9920563395</DistanceMeters>
          </Trackpoint>
          <Trackpoint>
            <Time>2023-02-23T10:36:28.000Z</Time>
            <Position>
              <LatitudeDegrees>41.5364475734531879425048828125</LatitudeDegrees>
              <LongitudeDegrees>-4.5779056660830974578857421875</LongitudeDegrees>
            </Position>
            <AltitudeMeters>1227.199951171875</AltitudeMeters>
            <DistanceMeters>9111.8744153418</DistanceMeters>
          </Trackpoint>
          <Trackpoint>
            <Time>2023-02-23T10:36:34.000Z</Time>
            <Position>
              <LatitudeDegrees>41.5364435501396656036376953125</LatitudeDegrees>
              <LongitudeDegrees>-4.5777028240263462066650390625</LongitudeDegrees>
            </Position>
            <AltitudeMeters>1227.199951171875</AltitudeMeters>
            <DistanceMeters>9128.7800924785</DistanceMeters>
          </Trackpoint>
          <Trackpoint>
            <Time>2023-02-23T10:36:38.000Z</Time>
            <Position>
              <LatitudeDegrees>41.536492668092250823974609375</LatitudeDegrees>
              <LongitudeDegrees>-4.5775584876537322998046875</LongitudeDegrees>
            </Position>
            <AltitudeMeters>1227.5999755859375</AltitudeMeters>
            <DistanceMeters>9141.9894894037</DistanceMeters>
          </Trackpoint>
          <Trackpoint>
            <Time>2023-02-23T10:36:40.000Z</Time>
            <Position>
              <LatitudeDegrees>41.5365085937082767486572265625</LatitudeDegrees>
              <LongitudeDegrees>-4.577482044696807861328125</LongitudeDegrees>
            </Position>
            <AltitudeMeters>1227.800048828125</AltitudeMeters>
            <DistanceMeters>9148.600508235</DistanceMeters>
          </Trackpoint>
          <Trackpoint>
            <Time>2023-02-23T10:36:42.000Z</Time>
            <Position>
              <LatitudeDegrees>41.53647347353398799896240234375</LatitudeDegrees>
              <LongitudeDegrees>-4.57743619568645954132080078125</LongitudeDegrees>
            </Position>
            <AltitudeMeters>1228.4000244140625</AltitudeMeters>
            <DistanceMeters>9154.0659901787</DistanceMeters>
          </Trackpoint>
          <Trackpoint>
            <Time>2023-02-23T10:36:43.000Z</Time>
            <Position>
              <LatitudeDegrees>41.5364472381770610809326171875</LatitudeDegrees>
              <LongitudeDegrees>-4.57741239108145236968994140625</LongitudeDegrees>
            </Position>
            <AltitudeMeters>1228.4000244140625</AltitudeMeters>
            <DistanceMeters>9157.5935169808</DistanceMeters>
          </Trackpoint>
          <Trackpoint>
            <Time>2023-02-23T10:36:44.000Z</Time>
            <Position>
              <LatitudeDegrees>41.536416895687580108642578125</LatitudeDegrees>
              <LongitudeDegrees>-4.57739780656993389129638671875</LongitudeDegrees>
            </Position>
            <AltitudeMeters>1228.5999755859375</AltitudeMeters>
            <DistanceMeters>9161.1819552218</DistanceMeters>
          </Trackpoint>
          <Trackpoint>
            <Time>2023-02-23T10:36:45.000Z</Time>
            <Position>
              <LatitudeDegrees>41.53638278134167194366455078125</LatitudeDegrees>
              <LongitudeDegrees>-4.57739286124706268310546875</LongitudeDegrees>
            </Position>
            <AltitudeMeters>1228.5999755859375</AltitudeMeters>
            <DistanceMeters>9164.9996172525</DistanceMeters>
          </Trackpoint>
          <Trackpoint>
            <Time>2023-02-23T10:36:48.000Z</Time>
            <Position>
              <LatitudeDegrees>41.53626224957406520843505859375</LatitudeDegrees>
              <LongitudeDegrees>-4.577397219836711883544921875</LongitudeDegrees>
            </Position>
            <AltitudeMeters>1228.4000244140625</AltitudeMeters>
            <DistanceMeters>9178.4202694256</DistanceMeters>
          </Trackpoint>
          <Trackpoint>
            <Time>2023-02-23T10:36:55.000Z</Time>
            <Position>
              <LatitudeDegrees>41.53599386103451251983642578125</LatitudeDegrees>
              <LongitudeDegrees>-4.57739981822669506072998046875</LongitudeDegrees>
            </Position>
            <AltitudeMeters>1227.5999755859375</AltitudeMeters>
            <DistanceMeters>9208.2932891018</DistanceMeters>
          </Trackpoint>
          <Trackpoint>
            <Time>2023-02-23T10:37:00.000Z</Time>
            <Position>
              <LatitudeDegrees>41.53583376668393611907958984375</LatitudeDegrees>
              <LongitudeDegrees>-4.5773383788764476776123046875</LongitudeDegrees>
            </Position>
            <AltitudeMeters>1227.199951171875</AltitudeMeters>
            <DistanceMeters>9226.83299864</DistanceMeters>
          </Trackpoint>
          <Trackpoint>
            <Time>2023-02-23T10:37:03.000Z</Time>
            <Position>
              <LatitudeDegrees>41.5358125604689121246337890625</LatitudeDegrees>
              <LongitudeDegrees>-4.57724408246576786041259765625</LongitudeDegrees>
            </Position>
            <AltitudeMeters>1226.800048828125</AltitudeMeters>
            <DistanceMeters>9235.036176662</DistanceMeters>
          </Trackpoint>
          <Trackpoint>
            <Time>2023-02-23T10:37:04.000Z</Time>
            <Position>
              <LatitudeDegrees>41.53581549413502216339111328125</LatitudeDegrees>
              <LongitudeDegrees>-4.5772274024784564971923828125</LongitudeDegrees>
            </Position>
            <AltitudeMeters>1226.800048828125</AltitudeMeters>
            <DistanceMeters>9236.464741423</DistanceMeters>
          </Trackpoint>
          <Trackpoint>
            <Time>2023-02-23T10:37:09.000Z</Time>
            <Position>
              <LatitudeDegrees>41.535796634852886199951171875</LatitudeDegrees>
              <LongitudeDegrees>-4.577074348926544189453125</LongitudeDegrees>
            </Position>
            <AltitudeMeters>1226.800048828125</AltitudeMeters>
            <DistanceMeters>9249.3880252097</DistanceMeters>
          </Trackpoint>
          <Trackpoint>
            <Time>2023-02-23T10:37:10.000Z</Time>
            <Position>
              <LatitudeDegrees>41.53580308891832828521728515625</LatitudeDegrees>
              <LongitudeDegrees>-4.5770316012203693389892578125</LongitudeDegrees>
            </Position>
            <AltitudeMeters>1226.5999755859375</AltitudeMeters>
            <DistanceMeters>9253.0214769791</DistanceMeters>
          </Trackpoint>
          <Trackpoint>
            <Time>2023-02-23T10:37:13.000Z</Time>
            <Position>
              <LatitudeDegrees>41.5358206070959568023681640625</LatitudeDegrees>
              <LongitudeDegrees>-4.5769189484417438507080078125</LongitudeDegrees>
            </Position>
            <AltitudeMeters>1226.5999755859375</AltitudeMeters>
            <DistanceMeters>9262.6074071841</DistanceMeters>
          </Trackpoint>
          <Trackpoint>
            <Time>2023-02-23T10:37:16.000Z</Time>
            <Position>
              <LatitudeDegrees>41.5358559787273406982421875</LatitudeDegrees>
              <LongitudeDegrees>-4.57681526429951190948486328125</LongitudeDegrees>
            </Position>
            <AltitudeMeters>1226.800048828125</AltitudeMeters>
            <DistanceMeters>9272.1005711935</DistanceMeters>
          </Trackpoint>
          <Trackpoint>
            <Time>2023-02-23T10:37:24.000Z</Time>
            <Position>
              <LatitudeDegrees>41.5359389595687389373779296875</LatitudeDegrees>
              <LongitudeDegrees>-4.57655131816864013671875</LongitudeDegrees>
            </Position>
            <AltitudeMeters>1227.800048828125</AltitudeMeters>
            <DistanceMeters>9295.9517086049</DistanceMeters>
          </Trackpoint>
          <Trackpoint>
            <Time>2023-02-23T10:37:25.000Z</Time>
            <Position>
              <LatitudeDegrees>41.5359480120241641998291015625</LatitudeDegrees>
              <LongitudeDegrees>-4.5765152759850025177001953125</LongitudeDegrees>
            </Position>
            <AltitudeMeters>1227.800048828125</AltitudeMeters>
            <DistanceMeters>9299.1176815759</DistanceMeters>
          </Trackpoint>
          <Trackpoint>
            <Time>2023-02-23T10:37:31.000Z</Time>
            <Position>
              <LatitudeDegrees>41.535976342856884002685546875</LatitudeDegrees>
              <LongitudeDegrees>-4.5763219892978668212890625</LongitudeDegrees>
            </Position>
            <AltitudeMeters>1228.4000244140625</AltitudeMeters>
            <DistanceMeters>9315.5267893946</DistanceMeters>
          </Trackpoint>
          <Trackpoint>
            <Time>2023-02-23T10:37:32.000Z</Time>
            <Position>
              <LatitudeDegrees>41.5359805338084697723388671875</LatitudeDegrees>
              <LongitudeDegrees>-4.57630061544477939605712890625</LongitudeDegrees>
            </Position>
            <AltitudeMeters>1228.5999755859375</AltitudeMeters>
            <DistanceMeters>9317.3669738056</DistanceMeters>
          </Trackpoint>
          <Trackpoint>
            <Time>2023-02-23T10:37:33.000Z</Time>
            <Position>
              <LatitudeDegrees>41.53598003089427947998046875</LatitudeDegrees>
              <LongitudeDegrees>-4.5762802474200725555419921875</LongitudeDegrees>
            </Position>
            <AltitudeMeters>1228.5999755859375</AltitudeMeters>
            <DistanceMeters>9319.0668633497</DistanceMeters>
          </Trackpoint>
          <Trackpoint>
            <Time>2023-02-23T10:37:34.000Z</Time>
            <Position>
              <LatitudeDegrees>41.5359761752188205718994140625</LatitudeDegrees>
              <LongitudeDegrees>-4.57626138813793659210205078125</LongitudeDegrees>
            </Position>
            <AltitudeMeters>1228.800048828125</AltitudeMeters>
            <DistanceMeters>9320.6962320846</DistanceMeters>
          </Trackpoint>
          <Trackpoint>
            <Time>2023-02-23T10:37:36.000Z</Time>
            <Position>
              <LatitudeDegrees>41.53595991432666778564453125</LatitudeDegrees>
              <LongitudeDegrees>-4.5762195624411106109619140625</LongitudeDegrees>
            </Position>
            <AltitudeMeters>1228.800048828125</AltitudeMeters>
            <DistanceMeters>9324.6234920157</DistanceMeters>
          </Trackpoint>
          <Trackpoint>
            <Time>2023-02-23T10:37:38.000Z</Time>
            <Position>
              <LatitudeDegrees>41.5359426476061344146728515625</LatitudeDegrees>
              <LongitudeDegrees>-4.576173461973667144775390625</LongitudeDegrees>
            </Position>
            <AltitudeMeters>1229</AltitudeMeters>
            <DistanceMeters>9328.91970852</DistanceMeters>
          </Trackpoint>
          <Trackpoint>
            <Time>2023-02-23T10:37:43.000Z</Time>
            <Position>
              <LatitudeDegrees>41.53586092405021190643310546875</LatitudeDegrees>
              <LongitudeDegrees>-4.57606592215597629547119140625</LongitudeDegrees>
            </Position>
            <AltitudeMeters>1229</AltitudeMeters>
            <DistanceMeters>9341.6872822897</DistanceMeters>
          </Trackpoint>
          <Trackpoint>
            <Time>2023-02-23T10:37:44.000Z</Time>
            <Position>
              <LatitudeDegrees>41.535842232406139373779296875</LatitudeDegrees>
              <LongitudeDegrees>-4.576050750911235809326171875</LongitudeDegrees>
            </Position>
            <AltitudeMeters>1229</AltitudeMeters>
            <DistanceMeters>9344.1211537217</DistanceMeters>
          </Trackpoint>
          <Trackpoint>
            <Time>2023-02-23T10:37:50.000Z</Time>
            <Position>
              <LatitudeDegrees>41.53569814749062061309814453125</LatitudeDegrees>
              <LongitudeDegrees>-4.57599853165447711944580078125</LongitudeDegrees>
            </Position>
            <AltitudeMeters>1228.800048828125</AltitudeMeters>
            <DistanceMeters>9360.7375196707</DistanceMeters>
          </Trackpoint>
          <Trackpoint>
            <Time>2023-02-23T10:37:55.000Z</Time>
            <Position>
              <LatitudeDegrees>41.53557660989463329315185546875</LatitudeDegrees>
              <LongitudeDegrees>-4.57600456662476062774658203125</LongitudeDegrees>
            </Position>
            <AltitudeMeters>1228.800048828125</AltitudeMeters>
            <DistanceMeters>9374.2740742988</DistanceMeters>
          </Trackpoint>
          <Trackpoint>
            <Time>2023-02-23T10:37:56.000Z</Time>
            <Position>
              <LatitudeDegrees>41.53555867262184619903564453125</LatitudeDegrees>
              <LongitudeDegrees>-4.57601127214729785919189453125</LongitudeDegrees>
            </Position>
            <AltitudeMeters>1228.800048828125</AltitudeMeters>
            <DistanceMeters>9376.3473124393</DistanceMeters>
          </Trackpoint>
          <Trackpoint>
            <Time>2023-02-23T10:38:01.000Z</Time>
            <Position>
              <LatitudeDegrees>41.53543931432068347930908203125</LatitudeDegrees>
              <LongitudeDegrees>-4.5760442130267620086669921875</LongitudeDegrees>
            </Position>
            <AltitudeMeters>1228.199951171875</AltitudeMeters>
            <DistanceMeters>9389.9125215337</DistanceMeters>
          </Trackpoint>
          <Trackpoint>
            <Time>2023-02-23T10:38:02.000Z</Time>
            <Position>
              <LatitudeDegrees>41.53541517443954944610595703125</LatitudeDegrees>
              <LongitudeDegrees>-4.5760484039783477783203125</LongitudeDegrees>
            </Position>
            <AltitudeMeters>1228.199951171875</AltitudeMeters>
            <DistanceMeters>9392.6203660774</DistanceMeters>
          </Trackpoint>
          <Trackpoint>
            <Time>2023-02-23T10:38:08.000Z</Time>
            <Position>
              <LatitudeDegrees>41.53529866598546504974365234375</LatitudeDegrees>
              <LongitudeDegrees>-4.57604982890188694000244140625</LongitudeDegrees>
            </Position>
            <AltitudeMeters>1228.4000244140625</AltitudeMeters>
            <DistanceMeters>9405.5886405845</DistanceMeters>
          </Trackpoint>
          <Trackpoint>
            <Time>2023-02-23T10:38:13.000Z</Time>
            <Position>
              <LatitudeDegrees>41.5352385677397251129150390625</LatitudeDegrees>
              <LongitudeDegrees>-4.57599249668419361114501953125</LongitudeDegrees>
            </Position>
            <AltitudeMeters>1228.199951171875</AltitudeMeters>
            <DistanceMeters>9413.8083140545</DistanceMeters>
          </Trackpoint>
          <Trackpoint>
            <Time>2023-02-23T10:38:14.000Z</Time>
            <Position>
              <LatitudeDegrees>41.535219959914684295654296875</LatitudeDegrees>
              <LongitudeDegrees>-4.57598579116165637969970703125</LongitudeDegrees>
            </Position>
            <AltitudeMeters>1228.199951171875</AltitudeMeters>
            <DistanceMeters>9415.9543194102</DistanceMeters>
          </Trackpoint>
          <Trackpoint>
            <Time>2023-02-23T10:38:16.000Z</Time>
            <Position>
              <LatitudeDegrees>41.53517897240817546844482421875</LatitudeDegrees>
              <LongitudeDegrees>-4.575992412865161895751953125</LongitudeDegrees>
            </Position>
            <AltitudeMeters>1228.199951171875</AltitudeMeters>
            <DistanceMeters>9420.54913374</DistanceMeters>
          </Trackpoint>
          <Trackpoint>
            <Time>2023-02-23T10:38:19.000Z</Time>
            <Position>
              <LatitudeDegrees>41.53512574732303619384765625</LatitudeDegrees>
              <LongitudeDegrees>-4.5760318078100681304931640625</LongitudeDegrees>
            </Position>
            <AltitudeMeters>1228</AltitudeMeters>
            <DistanceMeters>9427.3220790621</DistanceMeters>
          </Trackpoint>
          <Trackpoint>
            <Time>2023-02-23T10:38:25.000Z</Time>
            <Position>
              <LatitudeDegrees>41.53498568572103977203369140625</LatitudeDegrees>
              <LongitudeDegrees>-4.57606290467083454132080078125</LongitudeDegrees>
            </Position>
            <AltitudeMeters>1227.800048828125</AltitudeMeters>
            <DistanceMeters>9443.1253959358</DistanceMeters>
          </Trackpoint>
          <Trackpoint>
            <Time>2023-02-23T10:38:33.000Z</Time>
            <Position>
              <LatitudeDegrees>41.53479172848165035247802734375</LatitudeDegrees>
              <LongitudeDegrees>-4.57610271871089935302734375</LongitudeDegrees>
            </Position>
            <AltitudeMeters>1227.5999755859375</AltitudeMeters>
            <DistanceMeters>9464.9668681494</DistanceMeters>
          </Trackpoint>
          <Trackpoint>
            <Time>2023-02-23T10:38:38.000Z</Time>
            <Position>
              <LatitudeDegrees>41.5346543490886688232421875</LatitudeDegrees>
              <LongitudeDegrees>-4.57610540091991424560546875</LongitudeDegrees>
            </Position>
            <AltitudeMeters>1227</AltitudeMeters>
            <DistanceMeters>9480.2593800341</DistanceMeters>
          </Trackpoint>
          <Trackpoint>
            <Time>2023-02-23T10:38:40.000Z</Time>
            <Position>
              <LatitudeDegrees>41.53460632078349590301513671875</LatitudeDegrees>
              <LongitudeDegrees>-4.576097689568996429443359375</LongitudeDegrees>
            </Position>
            <AltitudeMeters>1226.800048828125</AltitudeMeters>
            <DistanceMeters>9485.6441340175</DistanceMeters>
          </Trackpoint>
          <Trackpoint>
            <Time>2023-02-23T10:38:41.000Z</Time>
            <Position>
              <LatitudeDegrees>41.5345827676355838775634765625</LatitudeDegrees>
              <LongitudeDegrees>-4.57609207369387149810791015625</LongitudeDegrees>
            </Position>
            <AltitudeMeters>1226.800048828125</AltitudeMeters>
            <DistanceMeters>9488.3065783847</DistanceMeters>
          </Trackpoint>
          <Trackpoint>
            <Time>2023-02-23T10:38:43.000Z</Time>
            <Position>
              <LatitudeDegrees>41.534546054899692535400390625</LatitudeDegrees>
              <LongitudeDegrees>-4.57607480697333812713623046875</LongitudeDegrees>
            </Position>
            <AltitudeMeters>1226.5999755859375</AltitudeMeters>
            <DistanceMeters>9492.6383792632</DistanceMeters>
          </Trackpoint>
          <Trackpoint>
            <Time>2023-02-23T10:38:45.000Z</Time>
            <Position>
              <LatitudeDegrees>41.53453624807298183441162109375</LatitudeDegrees>
              <LongitudeDegrees>-4.57604295574128627777099609375</LongitudeDegrees>
            </Position>
            <AltitudeMeters>1226.5999755859375</AltitudeMeters>
            <DistanceMeters>9495.5081231049</DistanceMeters>
          </Trackpoint>
          <Trackpoint>
            <Time>2023-02-23T10:38:47.000Z</Time>
            <Position>
              <LatitudeDegrees>41.53453423641622066497802734375</LatitudeDegrees>
              <LongitudeDegrees>-4.575974643230438232421875</LongitudeDegrees>
            </Position>
            <AltitudeMeters>1226.4000244140625</AltitudeMeters>
            <DistanceMeters>9501.2033873294</DistanceMeters>
          </Trackpoint>
          <Trackpoint>
            <Time>2023-02-23T10:38:51.000Z</Time>
            <Position>
              <LatitudeDegrees>41.534534655511379241943359375</LatitudeDegrees>
              <LongitudeDegrees>-4.5758457295596599578857421875</LongitudeDegrees>
            </Position>
            <AltitudeMeters>1226.199951171875</AltitudeMeters>
            <DistanceMeters>9511.9443489552</DistanceMeters>
          </Trackpoint>
          <Trackpoint>
            <Time>2023-02-23T10:38:54.000Z</Time>
            <Position>
              <LatitudeDegrees>41.53452367521822452545166015625</LatitudeDegrees>
              <LongitudeDegrees>-4.57575143314898014068603515625</LongitudeDegrees>
            </Position>
            <AltitudeMeters>1226.5999755859375</AltitudeMeters>
            <DistanceMeters>9519.8948542918</DistanceMeters>
          </Trackpoint>
          <Trackpoint>
            <Time>2023-02-23T10:38:58.000Z</Time>
            <Position>
              <LatitudeDegrees>41.5345023013651371002197265625</LatitudeDegrees>
              <LongitudeDegrees>-4.5756412111222743988037109375</LongitudeDegrees>
            </Position>
            <AltitudeMeters>1226.800048828125</AltitudeMeters>
            <DistanceMeters>9529.3813574326</DistanceMeters>
          </Trackpoint>
          <Trackpoint>
            <Time>2023-02-23T10:38:59.000Z</Time>
            <Position>
              <LatitudeDegrees>41.53450322337448596954345703125</LatitudeDegrees>
              <LongitudeDegrees>-4.57562151364982128143310546875</LongitudeDegrees>
            </Position>
            <AltitudeMeters>1226.800048828125</AltitudeMeters>
            <DistanceMeters>9531.0272684063</DistanceMeters>
          </Trackpoint>
          <Trackpoint>
            <Time>2023-02-23T10:39:02.000Z</Time>
            <Position>
              <LatitudeDegrees>41.53449752368032932281494140625</LatitudeDegrees>
              <LongitudeDegrees>-4.57556468434631824493408203125</LongitudeDegrees>
            </Position>
            <AltitudeMeters>1226.800048828125</AltitudeMeters>
            <DistanceMeters>9535.8051375182</DistanceMeters>
          </Trackpoint>
          <Trackpoint>
            <Time>2023-02-23T10:39:05.000Z</Time>
            <Position>
              <LatitudeDegrees>41.53448143042623996734619140625</LatitudeDegrees>
              <LongitudeDegrees>-4.5755065977573394775390625</LongitudeDegrees>
            </Position>
            <AltitudeMeters>1227.800048828125</AltitudeMeters>
            <DistanceMeters>9540.9664092132</DistanceMeters>
          </Trackpoint>
          <Trackpoint>
            <Time>2023-02-23T10:39:06.000Z</Time>
            <Position>
              <LatitudeDegrees>41.5344741381704807281494140625</LatitudeDegrees>
              <LongitudeDegrees>-4.575481116771697998046875</LongitudeDegrees>
            </Position>
            <AltitudeMeters>1228</AltitudeMeters>
            <DistanceMeters>9543.2391176692</DistanceMeters>
          </Trackpoint>
          <Trackpoint>
            <Time>2023-02-23T10:39:11.000Z</Time>
            <Position>
              <LatitudeDegrees>41.53443801216781139373779296875</LatitudeDegrees>
              <LongitudeDegrees>-4.57536385394632816314697265625</LongitudeDegrees>
            </Position>
            <AltitudeMeters>1228.4000244140625</AltitudeMeters>
            <DistanceMeters>9553.803763657</DistanceMeters>
          </Trackpoint>
          <Trackpoint>
            <Time>2023-02-23T10:39:13.000Z</Time>
            <Position>
              <LatitudeDegrees>41.53441621921956539154052734375</LatitudeDegrees>
              <LongitudeDegrees>-4.5753123052418231964111328125</LongitudeDegrees>
            </Position>
            <AltitudeMeters>1229</AltitudeMeters>
            <DistanceMeters>9558.7360071566</DistanceMeters>
          </Trackpoint>
          <Trackpoint>
            <Time>2023-02-23T10:39:20.000Z</Time>
            <Position>
              <LatitudeDegrees>41.5343484096229076385498046875</LatitudeDegrees>
              <LongitudeDegrees>-4.57515363581478595733642578125</LongitudeDegrees>
            </Position>
            <AltitudeMeters>1229</AltitudeMeters>
            <DistanceMeters>9573.958088537</DistanceMeters>
          </Trackpoint>
          <Trackpoint>
            <Time>2023-02-23T10:39:28.000Z</Time>
            <Position>
              <LatitudeDegrees>41.53429753147065639495849609375</LatitudeDegrees>
              <LongitudeDegrees>-4.57497887313365936279296875</LongitudeDegrees>
            </Position>
            <AltitudeMeters>1228.800048828125</AltitudeMeters>
            <DistanceMeters>9589.5812433491</DistanceMeters>
          </Trackpoint>
          <Trackpoint>
            <Time>2023-02-23T10:39:35.000Z</Time>
            <Position>
              <LatitudeDegrees>41.53425813652575016021728515625</LatitudeDegrees>
              <LongitudeDegrees>-4.57481735385954380035400390625</LongitudeDegrees>
            </Position>
            <AltitudeMeters>1229</AltitudeMeters>
            <DistanceMeters>9603.734801765</DistanceMeters>
          </Trackpoint>
          <Trackpoint>
            <Time>2023-02-23T10:39:39.000Z</Time>
            <Position>
              <LatitudeDegrees>41.53424187563359737396240234375</LatitudeDegrees>
              <LongitudeDegrees>-4.57472942769527435302734375</LongitudeDegrees>
            </Position>
            <AltitudeMeters>1229.199951171875</AltitudeMeters>
            <DistanceMeters>9611.2803058554</DistanceMeters>
          </Trackpoint>
          <Trackpoint>
            <Time>2023-02-23T10:39:40.000Z</Time>
            <Position>
              <LatitudeDegrees>41.53423835523426532745361328125</LatitudeDegrees>
              <LongitudeDegrees>-4.574708305299282073974609375</LongitudeDegrees>
            </Position>
            <AltitudeMeters>1229.4000244140625</AltitudeMeters>
            <DistanceMeters>9613.080805076</DistanceMeters>
          </Trackpoint>
          <Trackpoint>
            <Time>2023-02-23T10:39:41.000Z</Time>
            <Position>
              <LatitudeDegrees>41.5342359244823455810546875</LatitudeDegrees>
              <LongitudeDegrees>-4.5746886916458606719970703125</LongitudeDegrees>
            </Position>
            <AltitudeMeters>1229.5999755859375</AltitudeMeters>
            <DistanceMeters>9614.7376524555</DistanceMeters>
          </Trackpoint>
          <Trackpoint>
            <Time>2023-02-23T10:39:43.000Z</Time>
            <Position>
              <LatitudeDegrees>41.53423114679753780364990234375</LatitudeDegrees>
              <LongitudeDegrees>-4.5746402442455291748046875</LongitudeDegrees>
            </Position>
            <AltitudeMeters>1229.800048828125</AltitudeMeters>
            <DistanceMeters>9618.8083023145</DistanceMeters>
          </Trackpoint>
          <Trackpoint>
            <Time>2023-02-23T10:39:49.000Z</Time>
            <Position>
              <LatitudeDegrees>41.53419074602425098419189453125</LatitudeDegrees>
              <LongitudeDegrees>-4.57449146546423435211181640625</LongitudeDegrees>
            </Position>
            <AltitudeMeters>1229.5999755859375</AltitudeMeters>
            <DistanceMeters>9631.9944360136</DistanceMeters>
          </Trackpoint>
          <Trackpoint>
            <Time>2023-02-23T10:39:54.000Z</Time>
            <Position>
              <LatitudeDegrees>41.5341784246265888214111328125</LatitudeDegrees>
              <LongitudeDegrees>-4.574368335306644439697265625</LongitudeDegrees>
            </Position>
            <AltitudeMeters>1230</AltitudeMeters>
            <DistanceMeters>9642.3449348871</DistanceMeters>
          </Trackpoint>
          <Trackpoint>
            <Time>2023-02-23T10:39:58.000Z</Time>
            <Position>
              <LatitudeDegrees>41.5341690368950366973876953125</LatitudeDegrees>
              <LongitudeDegrees>-4.57429097034037113189697265625</LongitudeDegrees>
            </Position>
            <AltitudeMeters>1230.4000244140625</AltitudeMeters>
            <DistanceMeters>9648.8748675796</DistanceMeters>
          </Trackpoint>
          <Trackpoint>
            <Time>2023-02-23T10:40:05.000Z</Time>
            <Position>
              <LatitudeDegrees>41.53413106687366962432861328125</LatitudeDegrees>
              <LongitudeDegrees>-4.57411386072635650634765625</LongitudeDegrees>
            </Position>
            <AltitudeMeters>1230.800048828125</AltitudeMeters>
            <DistanceMeters>9664.2242559876</DistanceMeters>
          </Trackpoint>
          <Trackpoint>
            <Time>2023-02-23T10:40:08.000Z</Time>
            <Position>
              <LatitudeDegrees>41.53412821702659130096435546875</LatitudeDegrees>
              <LongitudeDegrees>-4.57405527122318744659423828125</LongitudeDegrees>
            </Position>
            <AltitudeMeters>1231</AltitudeMeters>
            <DistanceMeters>9669.1160555109</DistanceMeters>
          </Trackpoint>
          <Trackpoint>
            <Time>2023-02-23T10:40:11.000Z</Time>
            <Position>
              <LatitudeDegrees>41.53411229141056537628173828125</LatitudeDegrees>
              <LongitudeDegrees>-4.5739923231303691864013671875</LongitudeDegrees>
            </Position>
            <AltitudeMeters>1231.199951171875</AltitudeMeters>
            <DistanceMeters>9674.6521262701</DistanceMeters>
          </Trackpoint>
          <Trackpoint>
            <Time>2023-02-23T10:40:18.000Z</Time>
            <Position>
              <LatitudeDegrees>41.53402294032275676727294921875</LatitudeDegrees>
              <LongitudeDegrees>-4.57384186796844005584716796875</LongitudeDegrees>
            </Position>
            <AltitudeMeters>1231.199951171875</AltitudeMeters>
            <DistanceMeters>9690.6533383333</DistanceMeters>
          </Trackpoint>
          <Trackpoint>
            <Time>2023-02-23T10:40:19.000Z</Time>
            <Position>
              <LatitudeDegrees>41.53401472605764865875244140625</LatitudeDegrees>
              <LongitudeDegrees>-4.5738240145146846771240234375</LongitudeDegrees>
            </Position>
            <AltitudeMeters>1231.199951171875</AltitudeMeters>
            <DistanceMeters>9692.4003832206</DistanceMeters>
          </Trackpoint>
          <Trackpoint>
            <Time>2023-02-23T10:40:20.000Z</Time>
            <Position>
              <LatitudeDegrees>41.534006930887699127197265625</LatitudeDegrees>
              <LongitudeDegrees>-4.5738062448799610137939453125</LongitudeDegrees>
            </Position>
            <AltitudeMeters>1231.5999755859375</AltitudeMeters>
            <DistanceMeters>9694.1187647257</DistanceMeters>
          </Trackpoint>
          <Trackpoint>
            <Time>2023-02-23T10:40:21.000Z</Time>
            <Position>
              <LatitudeDegrees>41.53399729169905185699462890625</LatitudeDegrees>
              <LongitudeDegrees>-4.57378663122653961181640625</LongitudeDegrees>
            </Position>
            <AltitudeMeters>1231.5999755859375</AltitudeMeters>
            <DistanceMeters>9696.075484535</DistanceMeters>
          </Trackpoint>
          <Trackpoint>
            <Time>2023-02-23T10:40:23.000Z</Time>
            <Position>
              <LatitudeDegrees>41.5339749120175838470458984375</LatitudeDegrees>
              <LongitudeDegrees>-4.57373675890266895294189453125</LongitudeDegrees>
            </Position>
            <AltitudeMeters>1232</AltitudeMeters>
            <DistanceMeters>9700.9199833407</DistanceMeters>
          </Trackpoint>
          <Trackpoint>
            <Time>2023-02-23T10:40:26.000Z</Time>
            <Position>
              <LatitudeDegrees>41.533950269222259521484375</LatitudeDegrees>
              <LongitudeDegrees>-4.573690406978130340576171875</LongitudeDegrees>
            </Position>
            <AltitudeMeters>1232.199951171875</AltitudeMeters>
            <DistanceMeters>9705.6560903799</DistanceMeters>
          </Trackpoint>
          <Trackpoint>
            <Time>2023-02-23T10:40:34.000Z</Time>
            <Position>
              <LatitudeDegrees>41.5338733233511447906494140625</LatitudeDegrees>
              <LongitudeDegrees>-4.573515392839908599853515625</LongitudeDegrees>
            </Position>
            <AltitudeMeters>1232.5999755859375</AltitudeMeters>
            <DistanceMeters>9722.5665741348</DistanceMeters>
          </Trackpoint>
          <Trackpoint>
            <Time>2023-02-23T10:40:37.000Z</Time>
            <Position>
              <LatitudeDegrees>41.53383786790072917938232421875</LatitudeDegrees>
              <LongitudeDegrees>-4.573434256017208099365234375</LongitudeDegrees>
            </Position>
            <AltitudeMeters>1232.800048828125</AltitudeMeters>
            <DistanceMeters>9730.3946070135</DistanceMeters>
          </Trackpoint>
          <Trackpoint>
            <Time>2023-02-23T10:40:41.000Z</Time>
            <Position>
              <LatitudeDegrees>41.53377885930240154266357421875</LatitudeDegrees>
              <LongitudeDegrees>-4.5733268000185489654541015625</LongitudeDegrees>
            </Position>
            <AltitudeMeters>1233.199951171875</AltitudeMeters>
            <DistanceMeters>9741.4981034758</DistanceMeters>
          </Trackpoint>
          <Trackpoint>
            <Time>2023-02-23T10:40:46.000Z</Time>
            <Position>
              <LatitudeDegrees>41.53371700085699558258056640625</LatitudeDegrees>
              <LongitudeDegrees>-4.57324675284326076507568359375</LongitudeDegrees>
            </Position>
            <AltitudeMeters>1233.199951171875</AltitudeMeters>
            <DistanceMeters>9751.0830916209</DistanceMeters>
          </Trackpoint>
          <Trackpoint>
            <Time>2023-02-23T10:40:48.000Z</Time>
            <Position>
              <LatitudeDegrees>41.5336976386606693267822265625</LatitudeDegrees>
              <LongitudeDegrees>-4.573216326534748077392578125</LongitudeDegrees>
            </Position>
            <AltitudeMeters>1233.199951171875</AltitudeMeters>
            <DistanceMeters>9754.4103838714</DistanceMeters>
          </Trackpoint>
          <Trackpoint>
            <Time>2023-02-23T10:40:53.000Z</Time>
            <Position>
              <LatitudeDegrees>41.5336550585925579071044921875</LatitudeDegrees>
              <LongitudeDegrees>-4.573112390935420989990234375</LongitudeDegrees>
            </Position>
            <AltitudeMeters>1233.199951171875</AltitudeMeters>
            <DistanceMeters>9764.2821914558</DistanceMeters>
          </Trackpoint>
          <Trackpoint>
            <Time>2023-02-23T10:40:54.000Z</Time>
            <Position>
              <LatitudeDegrees>41.53364106081426143646240234375</LatitudeDegrees>
              <LongitudeDegrees>-4.57308984361588954925537109375</LongitudeDegrees>
            </Position>
            <AltitudeMeters>1233.199951171875</AltitudeMeters>
            <DistanceMeters>9766.7234719503</DistanceMeters>
          </Trackpoint>
          <Trackpoint>
            <Time>2023-02-23T10:40:59.000Z</Time>
            <Position>
              <LatitudeDegrees>41.5335880033671855926513671875</LatitudeDegrees>
              <LongitudeDegrees>-4.5729767717421054840087890625</LongitudeDegrees>
            </Position>
            <AltitudeMeters>1233.5999755859375</AltitudeMeters>
            <DistanceMeters>9777.842815756</DistanceMeters>
          </Trackpoint>
          <Trackpoint>
            <Time>2023-02-23T10:41:00.000Z</Time>
            <Position>
              <LatitudeDegrees>41.5335802920162677764892578125</LatitudeDegrees>
              <LongitudeDegrees>-4.57296327687799930572509765625</LongitudeDegrees>
            </Position>
            <AltitudeMeters>1233.800048828125</AltitudeMeters>
            <DistanceMeters>9779.2586819116</DistanceMeters>
          </Trackpoint>
          <Trackpoint>
            <Time>2023-02-23T10:41:04.000Z</Time>
            <Position>
              <LatitudeDegrees>41.533575095236301422119140625</LatitudeDegrees>
              <LongitudeDegrees>-4.5729469321668148040771484375</LongitudeDegrees>
            </Position>
            <AltitudeMeters>1234.199951171875</AltitudeMeters>
            <DistanceMeters>9780.7369506624</DistanceMeters>
          </Trackpoint>
          <Trackpoint>
            <Time>2023-02-23T10:41:05.000Z</Time>
            <Position>
              <LatitudeDegrees>41.53357182629406452178955078125</LatitudeDegrees>
              <LongitudeDegrees>-4.57293595187366008758544921875</LongitudeDegrees>
            </Position>
            <AltitudeMeters>1234.4000244140625</AltitudeMeters>
            <DistanceMeters>9781.7153105671</DistanceMeters>
          </Trackpoint>
          <Trackpoint>
            <Time>2023-02-23T10:41:06.000Z</Time>
            <Position>
              <LatitudeDegrees>41.5335678867995738983154296875</LatitudeDegrees>
              <LongitudeDegrees>-4.57292924635112285614013671875</LongitudeDegrees>
            </Position>
            <AltitudeMeters>1234.4000244140625</AltitudeMeters>
            <DistanceMeters>9782.4264253826</DistanceMeters>
          </Trackpoint>
          <Trackpoint>
            <Time>2023-02-23T10:41:14.000Z</Time>
            <Position>
              <LatitudeDegrees>41.53354885987937450408935546875</LatitudeDegrees>
              <LongitudeDegrees>-4.5728668011724948883056640625</LongitudeDegrees>
            </Position>
            <AltitudeMeters>1234</AltitudeMeters>
            <DistanceMeters>9788.0434608191</DistanceMeters>
          </Trackpoint>
          <Trackpoint>
            <Time>2023-02-23T10:41:22.000Z</Time>
            <Position>
              <LatitudeDegrees>41.533516757190227508544921875</LatitudeDegrees>
              <LongitudeDegrees>-4.57275691442191600799560546875</LongitudeDegrees>
            </Position>
            <AltitudeMeters>1234.4000244140625</AltitudeMeters>
            <DistanceMeters>9797.8721818853</DistanceMeters>
          </Trackpoint>
          <Trackpoint>
            <Time>2023-02-23T10:41:29.000Z</Time>
            <Position>
              <LatitudeDegrees>41.53349035419523715972900390625</LatitudeDegrees>
              <LongitudeDegrees>-4.572687931358814239501953125</LongitudeDegrees>
            </Position>
            <AltitudeMeters>1234.4000244140625</AltitudeMeters>
            <DistanceMeters>9804.3270074223</DistanceMeters>
          </Trackpoint>
          <Trackpoint>
            <Time>2023-02-23T10:41:30.000Z</Time>
            <Position>
              <LatitudeDegrees>41.5334807150065898895263671875</LatitudeDegrees>
              <LongitudeDegrees>-4.5726766996085643768310546875</LongitudeDegrees>
            </Position>
            <AltitudeMeters>1234.800048828125</AltitudeMeters>
            <DistanceMeters>9805.7492370533</DistanceMeters>
          </Trackpoint>
          <Trackpoint>
            <Time>2023-02-23T10:41:35.000Z</Time>
            <Position>
              <LatitudeDegrees>41.5334714949131011962890625</LatitudeDegrees>
              <LongitudeDegrees>-4.57265331409871578216552734375</LongitudeDegrees>
            </Position>
            <AltitudeMeters>1235.199951171875</AltitudeMeters>
            <DistanceMeters>9807.9492645472</DistanceMeters>
          </Trackpoint>
          <Trackpoint>
            <Time>2023-02-23T10:41:36.000Z</Time>
            <Position>
              <LatitudeDegrees>41.53347006998956203460693359375</LatitudeDegrees>
              <LongitudeDegrees>-4.57265281118452548980712890625</LongitudeDegrees>
            </Position>
            <AltitudeMeters>1235.199951171875</AltitudeMeters>
            <DistanceMeters>9808.1138556446</DistanceMeters>
          </Trackpoint>
          <Trackpoint>
            <Time>2023-02-23T10:41:38.000Z</Time>
            <Position>
              <LatitudeDegrees>41.53346143662929534912109375</LatitudeDegrees>
              <LongitudeDegrees>-4.57263470627367496490478515625</LongitudeDegrees>
            </Position>
            <AltitudeMeters>1235.4000244140625</AltitudeMeters>
            <DistanceMeters>9809.9042961316</DistanceMeters>
          </Trackpoint>
          <Trackpoint>
            <Time>2023-02-23T10:41:41.000Z</Time>
            <Position>
              <LatitudeDegrees>41.53343855403363704681396484375</LatitudeDegrees>
              <LongitudeDegrees>-4.5725670643150806427001953125</LongitudeDegrees>
            </Position>
            <AltitudeMeters>1235.5999755859375</AltitudeMeters>
            <DistanceMeters>9816.0883379928</DistanceMeters>
          </Trackpoint>
          <Trackpoint>
            <Time>2023-02-23T10:41:43.000Z</Time>
            <Position>
              <LatitudeDegrees>41.53341927565634250640869140625</LatitudeDegrees>
              <LongitudeDegrees>-4.572522975504398345947265625</LongitudeDegrees>
            </Position>
            <AltitudeMeters>1235.5999755859375</AltitudeMeters>
            <DistanceMeters>9820.3423094541</DistanceMeters>
          </Trackpoint>
          <Trackpoint>
            <Time>2023-02-23T10:41:46.000Z</Time>
            <Position>
              <LatitudeDegrees>41.533385999500751495361328125</LatitudeDegrees>
              <LongitudeDegrees>-4.57244225777685642242431640625</LongitudeDegrees>
            </Position>
            <AltitudeMeters>1235.4000244140625</AltitudeMeters>
            <DistanceMeters>9828.0195035346</DistanceMeters>
          </Trackpoint>
          <Trackpoint>
            <Time>2023-02-23T10:41:48.000Z</Time>
            <Position>
              <LatitudeDegrees>41.53335741721093654632568359375</LatitudeDegrees>
              <LongitudeDegrees>-4.57238945178687572479248046875</LongitudeDegrees>
            </Position>
            <AltitudeMeters>1235.4000244140625</AltitudeMeters>
            <DistanceMeters>9833.4485153704</DistanceMeters>
          </Trackpoint>
          <Trackpoint>
            <Time>2023-02-23T10:41:54.000Z</Time>
            <Position>
              <LatitudeDegrees>41.53332875110208988189697265625</LatitudeDegrees>
              <LongitudeDegrees>-4.57225332967936992645263671875</LongitudeDegrees>
            </Position>
            <AltitudeMeters>1235.800048828125</AltitudeMeters>
            <DistanceMeters>9845.2299119353</DistanceMeters>
          </Trackpoint>
          <Trackpoint>
            <Time>2023-02-23T10:42:01.000Z</Time>
            <Position>
              <LatitudeDegrees>41.53332171030342578887939453125</LatitudeDegrees>
              <LongitudeDegrees>-4.57206004299223423004150390625</LongitudeDegrees>
            </Position>
            <AltitudeMeters>1236.199951171875</AltitudeMeters>
            <DistanceMeters>9861.3531200735</DistanceMeters>
          </Trackpoint>
          <Trackpoint>
            <Time>2023-02-23T10:42:02.000Z</Time>
            <Position>
              <LatitudeDegrees>41.53332489542663097381591796875</LatitudeDegrees>
              <LongitudeDegrees>-4.5720304548740386962890625</LongitudeDegrees>
            </Position>
            <AltitudeMeters>1236.199951171875</AltitudeMeters>
            <DistanceMeters>9863.8456474241</DistanceMeters>
          </Trackpoint>
          <Trackpoint>
            <Time>2023-02-23T10:42:07.000Z</Time>
            <Position>
              <LatitudeDegrees>41.53333394788205623626708984375</LatitudeDegrees>
              <LongitudeDegrees>-4.57187396474182605743408203125</LongitudeDegrees>
            </Position>
            <AltitudeMeters>1236.199951171875</AltitudeMeters>
            <DistanceMeters>9876.9231325712</DistanceMeters>
          </Trackpoint>
          <Trackpoint>
            <Time>2023-02-23T10:42:09.000Z</Time>
            <Position>
              <LatitudeDegrees>41.53333847410976886749267578125</LatitudeDegrees>
              <LongitudeDegrees>-4.57181143574416637420654296875</LongitudeDegrees>
            </Position>
            <AltitudeMeters>1236.4000244140625</AltitudeMeters>
            <DistanceMeters>9882.1573710001</DistanceMeters>
          </Trackpoint>
          <Trackpoint>
            <Time>2023-02-23T10:42:10.000Z</Time>
            <Position>
              <LatitudeDegrees>41.53333964757621288299560546875</LatitudeDegrees>
              <LongitudeDegrees>-4.571780674159526824951171875</LongitudeDegrees>
            </Position>
            <AltitudeMeters>1236.4000244140625</AltitudeMeters>
            <DistanceMeters>9884.7230922881</DistanceMeters>
          </Trackpoint>
          <Trackpoint>
            <Time>2023-02-23T10:42:15.000Z</Time>
            <Position>
              <LatitudeDegrees>41.5333492867648601531982421875</LatitudeDegrees>
              <LongitudeDegrees>-4.5716313086450099945068359375</LongitudeDegrees>
            </Position>
            <AltitudeMeters>1236.5999755859375</AltitudeMeters>
            <DistanceMeters>9897.2139553807</DistanceMeters>
          </Trackpoint>
          <Trackpoint>
            <Time>2023-02-23T10:42:17.000Z</Time>
            <Position>
              <LatitudeDegrees>41.53336219489574432373046875</LatitudeDegrees>
              <LongitudeDegrees>-4.5715744793415069580078125</LongitudeDegrees>
            </Position>
            <AltitudeMeters>1236.5999755859375</AltitudeMeters>
            <DistanceMeters>9902.1626488766</DistanceMeters>
          </Trackpoint>
          <Trackpoint>
            <Time>2023-02-23T10:42:20.000Z</Time>
            <Position>
              <LatitudeDegrees>41.5333968959748744964599609375</LatitudeDegrees>
              <LongitudeDegrees>-4.57149242050945758819580078125</LongitudeDegrees>
            </Position>
            <AltitudeMeters>1236.5999755859375</AltitudeMeters>
            <DistanceMeters>9910.01544405</DistanceMeters>
          </Trackpoint>
          <Trackpoint>
            <Time>2023-02-23T10:42:21.000Z</Time>
            <Position>
              <LatitudeDegrees>41.5334093011915683746337890625</LatitudeDegrees>
              <LongitudeDegrees>-4.57147012464702129364013671875</LongitudeDegrees>
            </Position>
            <AltitudeMeters>1236.5999755859375</AltitudeMeters>
            <DistanceMeters>9912.3275438002</DistanceMeters>
          </Trackpoint>
          <Trackpoint>
            <Time>2023-02-23T10:42:25.000Z</Time>
            <Position>
              <LatitudeDegrees>41.5334602631628513336181640625</LatitudeDegrees>
              <LongitudeDegrees>-4.57140625454485416412353515625</LongitudeDegrees>
            </Position>
            <AltitudeMeters>1236.800048828125</AltitudeMeters>
            <DistanceMeters>9920.1046545762</DistanceMeters>
          </Trackpoint>
          <Trackpoint>
            <Time>2023-02-23T10:42:26.000Z</Time>
            <Position>
              <LatitudeDegrees>41.53347493149340152740478515625</LatitudeDegrees>
              <LongitudeDegrees>-4.57139167003333568572998046875</LongitudeDegrees>
            </Position>
            <AltitudeMeters>1236.800048828125</AltitudeMeters>
            <DistanceMeters>9922.1405340146</DistanceMeters>
          </Trackpoint>
          <Trackpoint>
            <Time>2023-02-23T10:42:33.000Z</Time>
            <Position>
              <LatitudeDegrees>41.53361155651509761810302734375</LatitudeDegrees>
              <LongitudeDegrees>-4.57130282185971736907958984375</LongitudeDegrees>
            </Position>
            <AltitudeMeters>1237</AltitudeMeters>
            <DistanceMeters>9939.0536875228</DistanceMeters>
          </Trackpoint>
          <Trackpoint>
            <Time>2023-02-23T10:42:38.000Z</Time>
            <Position>
              <LatitudeDegrees>41.5337201021611690521240234375</LatitudeDegrees>
              <LongitudeDegrees>-4.57124255597591400146484375</LongitudeDegrees>
            </Position>
            <AltitudeMeters>1237.4000244140625</AltitudeMeters>
            <DistanceMeters>9952.1370406508</DistanceMeters>
          </Trackpoint>
          <Trackpoint>
            <Time>2023-02-23T10:42:39.000Z</Time>
            <Position>
              <LatitudeDegrees>41.53374332003295421600341796875</LatitudeDegrees>
              <LongitudeDegrees>-4.5712353475391864776611328125</LongitudeDegrees>
            </Position>
            <AltitudeMeters>1237.4000244140625</AltitudeMeters>
            <DistanceMeters>9954.7909923508</DistanceMeters>
          </Trackpoint>
          <Trackpoint>
            <Time>2023-02-23T10:42:46.000Z</Time>
            <Position>
              <LatitudeDegrees>41.5338726527988910675048828125</LatitudeDegrees>
              <LongitudeDegrees>-4.5711641013622283935546875</LongitudeDegrees>
            </Position>
            <AltitudeMeters>1236.800048828125</AltitudeMeters>
            <DistanceMeters>9970.3620408872</DistanceMeters>
          </Trackpoint>
          <Trackpoint>
            <Time>2023-02-23T10:42:47.000Z</Time>
            <Position>
              <LatitudeDegrees>41.5338910929858684539794921875</LatitudeDegrees>
              <LongitudeDegrees>-4.57114842720329761505126953125</LongitudeDegrees>
            </Position>
            <AltitudeMeters>1236.5999755859375</AltitudeMeters>
            <DistanceMeters>9972.7959123191</DistanceMeters>
          </Trackpoint>
          <Trackpoint>
            <Time>2023-02-23T10:42:51.000Z</Time>
            <Position>
              <LatitudeDegrees>41.53397776186466217041015625</LatitudeDegrees>
              <LongitudeDegrees>-4.5710911788046360015869140625</LongitudeDegrees>
            </Position>
            <AltitudeMeters>1236.5999755859375</AltitudeMeters>
            <DistanceMeters>9983.557032164</DistanceMeters>
          </Trackpoint>
          <Trackpoint>
            <Time>2023-02-23T10:42:52.000Z</Time>
            <Position>
              <LatitudeDegrees>41.53398907743394374847412109375</LatitudeDegrees>
              <LongitudeDegrees>-4.57106997258961200714111328125</LongitudeDegrees>
            </Position>
            <AltitudeMeters>1236.5999755859375</AltitudeMeters>
            <DistanceMeters>9985.728137851</DistanceMeters>
          </Trackpoint>
          <Trackpoint>
            <Time>2023-02-23T10:42:53.000Z</Time>
            <Position>
              <LatitudeDegrees>41.53399025090038776397705078125</LatitudeDegrees>
              <LongitudeDegrees>-4.57104541361331939697265625</LongitudeDegrees>
            </Position>
            <AltitudeMeters>1236.5999755859375</AltitudeMeters>
            <DistanceMeters>9987.7794826837</DistanceMeters>
          </Trackpoint>
          <Trackpoint>
            <Time>2023-02-23T10:42:59.000Z</Time>
            <Position>
              <LatitudeDegrees>41.53396879322826862335205078125</LatitudeDegrees>
              <LongitudeDegrees>-4.570922367274761199951171875</LongitudeDegrees>
            </Position>
            <AltitudeMeters>1236.4000244140625</AltitudeMeters>
            <DistanceMeters>9998.3064527188</DistanceMeters>
          </Trackpoint>
          <Trackpoint>
            <Time>2023-02-23T10:43:00.000Z</Time>
            <Position>
              <LatitudeDegrees>41.5339621715247631072998046875</LatitudeDegrees>
              <LongitudeDegrees>-4.57091004587709903717041015625</LongitudeDegrees>
            </Position>
            <AltitudeMeters>1236.4000244140625</AltitudeMeters>
            <DistanceMeters>9999.5742672191</DistanceMeters>
          </Trackpoint>
          <Trackpoint>
            <Time>2023-02-23T10:43:03.000Z</Time>
            <Position>
              <LatitudeDegrees>41.533963344991207122802734375</LatitudeDegrees>
              <LongitudeDegrees>-4.57087299786508083343505859375</LongitudeDegrees>
            </Position>
            <AltitudeMeters>1236.4000244140625</AltitudeMeters>
            <DistanceMeters>10002.662269927</DistanceMeters>
          </Trackpoint>
          <Trackpoint>
            <Time>2023-02-23T10:43:06.000Z</Time>
            <Position>
              <LatitudeDegrees>41.5339574776589870452880859375</LatitudeDegrees>
              <LongitudeDegrees>-4.570813067257404327392578125</LongitudeDegrees>
            </Position>
            <AltitudeMeters>1236.800048828125</AltitudeMeters>
            <DistanceMeters>10007.69778923</DistanceMeters>
          </Trackpoint>
          <Trackpoint>
            <Time>2023-02-23T10:43:08.000Z</Time>
            <Position>
              <LatitudeDegrees>41.5339343436062335968017578125</LatitudeDegrees>
              <LongitudeDegrees>-4.570772163569927215576171875</LongitudeDegrees>
            </Position>
            <AltitudeMeters>1236</AltitudeMeters>
            <DistanceMeters>10011.968708852</DistanceMeters>
          </Trackpoint>
          <Trackpoint>
            <Time>2023-02-23T10:43:11.000Z</Time>
            <Position>
              <LatitudeDegrees>41.5338877402245998382568359375</LatitudeDegrees>
              <LongitudeDegrees>-4.57072891294956207275390625</LongitudeDegrees>
            </Position>
            <AltitudeMeters>1235.4000244140625</AltitudeMeters>
            <DistanceMeters>10018.28494806</DistanceMeters>
          </Trackpoint>
          <Trackpoint>
            <Time>2023-02-23T10:43:16.000Z</Time>
            <Position>
              <LatitudeDegrees>41.53378774411976337432861328125</LatitudeDegrees>
              <LongitudeDegrees>-4.570705778896808624267578125</LongitudeDegrees>
            </Position>
            <AltitudeMeters>1235.199951171875</AltitudeMeters>
            <DistanceMeters>10029.580343143</DistanceMeters>
          </Trackpoint>
          <Trackpoint>
            <Time>2023-02-23T10:43:18.000Z</Time>
            <Position>
              <LatitudeDegrees>41.5337509475648403167724609375</LatitudeDegrees>
              <LongitudeDegrees>-4.57069932483136653900146484375</LongitudeDegrees>
            </Position>
            <AltitudeMeters>1235.4000244140625</AltitudeMeters>
            <DistanceMeters>10033.710453844</DistanceMeters>
          </Trackpoint>
          <Trackpoint>
            <Time>2023-02-23T10:43:22.000Z</Time>
            <Position>
              <LatitudeDegrees>41.53372772969305515289306640625</LatitudeDegrees>
              <LongitudeDegrees>-4.57067015580832958221435546875</LongitudeDegrees>
            </Position>
            <AltitudeMeters>1235.800048828125</AltitudeMeters>
            <DistanceMeters>10037.258400653</DistanceMeters>
          </Trackpoint>
          <Trackpoint>
            <Time>2023-02-23T10:43:23.000Z</Time>
            <Position>
              <LatitudeDegrees>41.53372370637953281402587890625</LatitudeDegrees>
              <LongitudeDegrees>-4.57065322436392307281494140625</LongitudeDegrees>
            </Position>
            <AltitudeMeters>1235.800048828125</AltitudeMeters>
            <DistanceMeters>10038.736669404</DistanceMeters>
          </Trackpoint>
          <Trackpoint>
            <Time>2023-02-23T10:43:26.000Z</Time>
            <Position>
              <LatitudeDegrees>41.53372831642627716064453125</LatitudeDegrees>
              <LongitudeDegrees>-4.5706217922270298004150390625</LongitudeDegrees>
            </Position>
            <AltitudeMeters>1235.199951171875</AltitudeMeters>
            <DistanceMeters>10041.404196393</DistanceMeters>
          </Trackpoint>
          <Trackpoint>
            <Time>2023-02-23T10:43:28.000Z</Time>
            <Position>
              <LatitudeDegrees>41.53373812325298786163330078125</LatitudeDegrees>
              <LongitudeDegrees>-4.570600502192974090576171875</LongitudeDegrees>
            </Position>
            <AltitudeMeters>1235.199951171875</AltitudeMeters>
            <DistanceMeters>10043.490460242</DistanceMeters>
          </Trackpoint>
          <Trackpoint>
            <Time>2023-02-23T10:43:29.000Z</Time>
            <Position>
              <LatitudeDegrees>41.53375136665999889373779296875</LatitudeDegrees>
              <LongitudeDegrees>-4.57058533094823360443115234375</LongitudeDegrees>
            </Position>
            <AltitudeMeters>1235.199951171875</AltitudeMeters>
            <DistanceMeters>10045.433286007</DistanceMeters>
          </Trackpoint>
          <Trackpoint>
            <Time>2023-02-23T10:43:32.000Z</Time>
            <Position>
              <LatitudeDegrees>41.53377785347402095794677734375</LatitudeDegrees>
              <LongitudeDegrees>-4.57053051330149173736572265625</LongitudeDegrees>
            </Position>
            <AltitudeMeters>1235.199951171875</AltitudeMeters>
            <DistanceMeters>10050.870607984</DistanceMeters>
          </Trackpoint>
          <Trackpoint>
            <Time>2023-02-23T10:43:36.000Z</Time>
            <Position>
              <LatitudeDegrees>41.5338166616857051849365234375</LatitudeDegrees>
              <LongitudeDegrees>-4.57046513445675373077392578125</LongitudeDegrees>
            </Position>
            <AltitudeMeters>1235.800048828125</AltitudeMeters>
            <DistanceMeters>10057.822511977</DistanceMeters>
          </Trackpoint>
          <Trackpoint>
            <Time>2023-02-23T10:43:37.000Z</Time>
            <Position>
              <LatitudeDegrees>41.533827893435955047607421875</LatitudeDegrees>
              <LongitudeDegrees>-4.5704471133649349212646484375</LongitudeDegrees>
            </Position>
            <AltitudeMeters>1235.800048828125</AltitudeMeters>
            <DistanceMeters>10059.779231786</DistanceMeters>
          </Trackpoint>
          <Trackpoint>
            <Time>2023-02-23T10:43:40.000Z</Time>
            <Position>
              <LatitudeDegrees>41.53387290425598621368408203125</LatitudeDegrees>
              <LongitudeDegrees>-4.57040796987712383270263671875</LongitudeDegrees>
            </Position>
            <AltitudeMeters>1236.199951171875</AltitudeMeters>
            <DistanceMeters>10065.757613052</DistanceMeters>
          </Trackpoint>
          <Trackpoint>
            <Time>2023-02-23T10:43:42.000Z</Time>
            <Position>
              <LatitudeDegrees>41.533901989459991455078125</LatitudeDegrees>
              <LongitudeDegrees>-4.57037980668246746063232421875</LongitudeDegrees>
            </Position>
            <AltitudeMeters>1236.4000244140625</AltitudeMeters>
            <DistanceMeters>10069.755516916</DistanceMeters>
          </Trackpoint>
          <Trackpoint>
            <Time>2023-02-23T10:43:49.000Z</Time>
            <Position>
              <LatitudeDegrees>41.534019000828266143798828125</LatitudeDegrees>
              <LongitudeDegrees>-4.57027696073055267333984375</LongitudeDegrees>
            </Position>
            <AltitudeMeters>1236.5999755859375</AltitudeMeters>
            <DistanceMeters>10085.345112081</DistanceMeters>
          </Trackpoint>
          <Trackpoint>
            <Time>2023-02-23T10:43:50.000Z</Time>
            <Position>
              <LatitudeDegrees>41.5340309031307697296142578125</LatitudeDegrees>
              <LongitudeDegrees>-4.57026648335158824920654296875</LongitudeDegrees>
            </Position>
            <AltitudeMeters>1236.800048828125</AltitudeMeters>
            <DistanceMeters>10086.932371143</DistanceMeters>
          </Trackpoint>
          <Trackpoint>
            <Time>2023-02-23T10:43:54.000Z</Time>
            <Position>
              <LatitudeDegrees>41.53405864723026752471923828125</LatitudeDegrees>
              <LongitudeDegrees>-4.57023781724274158477783203125</LongitudeDegrees>
            </Position>
            <AltitudeMeters>1236.5999755859375</AltitudeMeters>
            <DistanceMeters>10090.836570041</DistanceMeters>
          </Trackpoint>
          <Trackpoint>
            <Time>2023-02-23T10:44:00.000Z</Time>
            <Position>
              <LatitudeDegrees>41.5340694598853588104248046875</LatitudeDegrees>
              <LongitudeDegrees>-4.570246450603008270263671875</LongitudeDegrees>
            </Position>
            <AltitudeMeters>1236.5999755859375</AltitudeMeters>
            <DistanceMeters>10092.239622665</DistanceMeters>
          </Trackpoint>
          <Trackpoint>
            <Time>2023-02-23T10:44:01.000Z</Time>
            <Position>
              <LatitudeDegrees>41.53407071717083454132080078125</LatitudeDegrees>
              <LongitudeDegrees>-4.57024737261235713958740234375</LongitudeDegrees>
            </Position>
            <AltitudeMeters>1236.5999755859375</AltitudeMeters>
            <DistanceMeters>10092.429676093</DistanceMeters>
          </Trackpoint>
          <Trackpoint>
            <Time>2023-02-23T10:44:03.000Z</Time>
            <Position>
              <LatitudeDegrees>41.5340691246092319488525390625</LatitudeDegrees>
              <LongitudeDegrees>-4.5702419243752956390380859375</LongitudeDegrees>
            </Position>
            <AltitudeMeters>1236.4000244140625</AltitudeMeters>
            <DistanceMeters>10092.932510202</DistanceMeters>
          </Trackpoint>
          <Trackpoint>
            <Time>2023-02-23T10:44:04.000Z</Time>
            <Position>
              <LatitudeDegrees>41.5340696275234222412109375</LatitudeDegrees>
              <LongitudeDegrees>-4.570240415632724761962890625</LongitudeDegrees>
            </Position>
            <AltitudeMeters>1236.4000244140625</AltitudeMeters>
            <DistanceMeters>10093.12256363</DistanceMeters>
          </Trackpoint>
          <Trackpoint>
            <Time>2023-02-23T10:44:05.000Z</Time>
            <Position>
              <LatitudeDegrees>41.53407088480889797210693359375</LatitudeDegrees>
              <LongitudeDegrees>-4.570241086184978485107421875</LongitudeDegrees>
            </Position>
            <AltitudeMeters>1236.4000244140625</AltitudeMeters>
            <DistanceMeters>10093.312617059</DistanceMeters>
          </Trackpoint>
          <Trackpoint>
            <Time>2023-02-23T10:44:06.000Z</Time>
            <Position>
              <LatitudeDegrees>41.53407105244696140289306640625</LatitudeDegrees>
              <LongitudeDegrees>-4.5702368952333927154541015625</LongitudeDegrees>
            </Position>
            <AltitudeMeters>1236.4000244140625</AltitudeMeters>
            <DistanceMeters>10093.65524075</DistanceMeters>
          </Trackpoint>
          <Trackpoint>
            <Time>2023-02-23T10:44:08.000Z</Time>
            <Position>
              <LatitudeDegrees>41.53406568802893161773681640625</LatitudeDegrees>
              <LongitudeDegrees>-4.5702266693115234375</LongitudeDegrees>
            </Position>
            <AltitudeMeters>1236.4000244140625</AltitudeMeters>
            <DistanceMeters>10094.696206251</DistanceMeters>
          </Trackpoint>
          <Trackpoint>
            <Time>2023-02-23T10:44:15.000Z</Time>
            <Position>
              <LatitudeDegrees>41.534061916172504425048828125</LatitudeDegrees>
              <LongitudeDegrees>-4.5702291838824748992919921875</LongitudeDegrees>
            </Position>
            <AltitudeMeters>1236.199951171875</AltitudeMeters>
            <DistanceMeters>10095.161740175</DistanceMeters>
          </Trackpoint>
          <Trackpoint>
            <Time>2023-02-23T10:44:24.000Z</Time>
            <Position>
              <LatitudeDegrees>41.5340409614145755767822265625</LatitudeDegrees>
              <LongitudeDegrees>-4.5701762102544307708740234375</LongitudeDegrees>
            </Position>
            <AltitudeMeters>1236.5999755859375</AltitudeMeters>
            <DistanceMeters>10100.153130854</DistanceMeters>
          </Trackpoint>
          <Trackpoint>
            <Time>2023-02-23T10:44:31.000Z</Time>
            <Position>
              <LatitudeDegrees>41.5340671129524707794189453125</LatitudeDegrees>
              <LongitudeDegrees>-4.570202529430389404296875</LongitudeDegrees>
            </Position>
            <AltitudeMeters>1236.4000244140625</AltitudeMeters>
            <DistanceMeters>10103.796510106</DistanceMeters>
          </Trackpoint>
          <Trackpoint>
            <Time>2023-02-23T10:44:37.000Z</Time>
            <Position>
              <LatitudeDegrees>41.53410038910806179046630859375</LatitudeDegrees>
              <LongitudeDegrees>-4.5702281780540943145751953125</LongitudeDegrees>
            </Position>
            <AltitudeMeters>1236.5999755859375</AltitudeMeters>
            <DistanceMeters>10108.07165627</DistanceMeters>
          </Trackpoint>
          <Trackpoint>
            <Time>2023-02-23T10:44:38.000Z</Time>
            <Position>
              <LatitudeDegrees>41.5341036580502986907958984375</LatitudeDegrees>
              <LongitudeDegrees>-4.57022608257830142974853515625</LongitudeDegrees>
            </Position>
            <AltitudeMeters>1236.5999755859375</AltitudeMeters>
            <DistanceMeters>10108.474820475</DistanceMeters>
          </Trackpoint>
          <Trackpoint>
            <Time>2023-02-23T10:44:44.000Z</Time>
            <Position>
              <LatitudeDegrees>41.53411178849637508392333984375</LatitudeDegrees>
              <LongitudeDegrees>-4.57021736539900302886962890625</LongitudeDegrees>
            </Position>
            <AltitudeMeters>1236.800048828125</AltitudeMeters>
            <DistanceMeters>10109.63087035</DistanceMeters>
          </Trackpoint>
          <Trackpoint>
            <Time>2023-02-23T10:44:45.000Z</Time>
            <Position>
              <LatitudeDegrees>41.53410558588802814483642578125</LatitudeDegrees>
              <LongitudeDegrees>-4.57020747475326061248779296875</LongitudeDegrees>
            </Position>
            <AltitudeMeters>1236.800048828125</AltitudeMeters>
            <DistanceMeters>10110.705974896</DistanceMeters>
          </Trackpoint>
          <Trackpoint>
            <Time>2023-02-23T10:44:52.000Z</Time>
            <Position>
              <LatitudeDegrees>41.53410692699253559112548828125</LatitudeDegrees>
              <LongitudeDegrees>-4.5701725222170352935791015625</LongitudeDegrees>
            </Position>
            <AltitudeMeters>1236.800048828125</AltitudeMeters>
            <DistanceMeters>10113.620988092</DistanceMeters>
          </Trackpoint>
          <Trackpoint>
            <Time>2023-02-23T10:44:53.000Z</Time>
            <Position>
              <LatitudeDegrees>41.534102149307727813720703125</LatitudeDegrees>
              <LongitudeDegrees>-4.57016623578965663909912109375</LongitudeDegrees>
            </Position>
            <AltitudeMeters>1236.5999755859375</AltitudeMeters>
            <DistanceMeters>10114.369229189</DistanceMeters>
          </Trackpoint>
          <Trackpoint>
            <Time>2023-02-23T10:44:58.000Z</Time>
            <Position>
              <LatitudeDegrees>41.5340667776763439178466796875</LatitudeDegrees>
              <LongitudeDegrees>-4.5701430179178714752197265625</LongitudeDegrees>
            </Position>
            <AltitudeMeters>1236.5999755859375</AltitudeMeters>
            <DistanceMeters>10118.756953312</DistanceMeters>
          </Trackpoint>
          <Trackpoint>
            <Time>2023-02-23T10:45:04.000Z</Time>
            <Position>
              <LatitudeDegrees>41.53406384401023387908935546875</LatitudeDegrees>
              <LongitudeDegrees>-4.57014276646077632904052734375</LongitudeDegrees>
            </Position>
            <AltitudeMeters>1236.5999755859375</AltitudeMeters>
            <DistanceMeters>10119.086135507</DistanceMeters>
          </Trackpoint>
          <Trackpoint>
            <Time>2023-02-23T10:45:05.000Z</Time>
            <Position>
              <LatitudeDegrees>41.53406116180121898651123046875</LatitudeDegrees>
              <LongitudeDegrees>-4.57014041952788829803466796875</LongitudeDegrees>
            </Position>
            <AltitudeMeters>1236.5999755859375</AltitudeMeters>
            <DistanceMeters>10119.441692914</DistanceMeters>
          </Trackpoint>
          <Trackpoint>
            <Time>2023-02-23T10:45:11.000Z</Time>
            <Position>
              <LatitudeDegrees>41.53405261225998401641845703125</LatitudeDegrees>
              <LongitudeDegrees>-4.57016028463840484619140625</LongitudeDegrees>
            </Position>
            <AltitudeMeters>1236.800048828125</AltitudeMeters>
            <DistanceMeters>10121.351706235</DistanceMeters>
          </Trackpoint>
          <Trackpoint>
            <Time>2023-02-23T10:45:13.000Z</Time>
            <Position>
              <LatitudeDegrees>41.5340588986873626708984375</LatitudeDegrees>
              <LongitudeDegrees>-4.57018618471920490264892578125</LongitudeDegrees>
            </Position>
            <AltitudeMeters>1236.5999755859375</AltitudeMeters>
            <DistanceMeters>10123.620437945</DistanceMeters>
          </Trackpoint>
          <Trackpoint>
            <Time>2023-02-23T10:45:23.000Z</Time>
            <Position>
              <LatitudeDegrees>41.534039787948131561279296875</LatitudeDegrees>
              <LongitudeDegrees>-4.57011275924742221832275390625</LongitudeDegrees>
            </Position>
            <AltitudeMeters>1235.800048828125</AltitudeMeters>
            <DistanceMeters>10130.096911143</DistanceMeters>
          </Trackpoint>
          <Trackpoint>
            <Time>2023-02-23T10:45:26.000Z</Time>
            <Position>
              <LatitudeDegrees>41.5340265445411205291748046875</LatitudeDegrees>
              <LongitudeDegrees>-4.5700702629983425140380859375</LongitudeDegrees>
            </Position>
            <AltitudeMeters>1236</AltitudeMeters>
            <DistanceMeters>10133.933449244</DistanceMeters>
          </Trackpoint>
          <Trackpoint>
            <Time>2023-02-23T10:45:32.000Z</Time>
            <Position>
              <LatitudeDegrees>41.5340339206159114837646484375</LatitudeDegrees>
              <LongitudeDegrees>-4.57011661492288112640380859375</LongitudeDegrees>
            </Position>
            <AltitudeMeters>1236.199951171875</AltitudeMeters>
            <DistanceMeters>10137.88020511</DistanceMeters>
          </Trackpoint>
          <Trackpoint>
            <Time>2023-02-23T10:45:41.000Z</Time>
            <Position>
              <LatitudeDegrees>41.53407809324562549591064453125</LatitudeDegrees>
              <LongitudeDegrees>-4.57017193548381328582763671875</LongitudeDegrees>
            </Position>
            <AltitudeMeters>1236.199951171875</AltitudeMeters>
            <DistanceMeters>10144.619736586</DistanceMeters>
          </Trackpoint>
          <Trackpoint>
            <Time>2023-02-23T10:45:50.000Z</Time>
            <Position>
              <LatitudeDegrees>41.5341086871922016143798828125</LatitudeDegrees>
              <LongitudeDegrees>-4.57018031738698482513427734375</LongitudeDegrees>
            </Position>
            <AltitudeMeters>1236.4000244140625</AltitudeMeters>
            <DistanceMeters>10148.095688582</DistanceMeters>
          </Trackpoint>
          <Trackpoint>
            <Time>2023-02-23T10:45:57.000Z</Time>
            <Position>
              <LatitudeDegrees>41.53405697084963321685791015625</LatitudeDegrees>
              <LongitudeDegrees>-4.57023010589182376861572265625</LongitudeDegrees>
            </Position>
            <AltitudeMeters>1236.5999755859375</AltitudeMeters>
            <DistanceMeters>10155.190309509</DistanceMeters>
          </Trackpoint>
          <Trackpoint>
            <Time>2023-02-23T10:45:58.000Z</Time>
            <Position>
              <LatitudeDegrees>41.5340583957731723785400390625</LatitudeDegrees>
              <LongitudeDegrees>-4.57023060880601406097412109375</LongitudeDegrees>
            </Position>
            <AltitudeMeters>1236.5999755859375</AltitudeMeters>
            <DistanceMeters>10155.324697578</DistanceMeters>
          </Trackpoint>
          <Trackpoint>
            <Time>2023-02-23T10:46:00.000Z</Time>
            <Position>
              <LatitudeDegrees>41.534061245620250701904296875</LatitudeDegrees>
              <LongitudeDegrees>-4.57023379392921924591064453125</LongitudeDegrees>
            </Position>
            <AltitudeMeters>1237.199951171875</AltitudeMeters>
            <DistanceMeters>10155.738909423</DistanceMeters>
          </Trackpoint>
          <Trackpoint>
            <Time>2023-02-23T10:46:03.000Z</Time>
            <Position>
              <LatitudeDegrees>41.53406853787600994110107421875</LatitudeDegrees>
              <LongitudeDegrees>-4.570233710110187530517578125</LongitudeDegrees>
            </Position>
            <AltitudeMeters>1237.199951171875</AltitudeMeters>
            <DistanceMeters>10156.556360129</DistanceMeters>
          </Trackpoint>
          <Trackpoint>
            <Time>2023-02-23T10:46:04.000Z</Time>
            <Position>
              <LatitudeDegrees>41.53407356701791286468505859375</LatitudeDegrees>
              <LongitudeDegrees>-4.5702328719198703765869140625</LongitudeDegrees>
            </Position>
            <AltitudeMeters>1237.199951171875</AltitudeMeters>
            <DistanceMeters>10157.126520415</DistanceMeters>
          </Trackpoint>
          <Trackpoint>
            <Time>2023-02-23T10:46:05.000Z</Time>
            <Position>
              <LatitudeDegrees>41.534079015254974365234375</LatitudeDegrees>
              <LongitudeDegrees>-4.5702295191586017608642578125</LongitudeDegrees>
            </Position>
            <AltitudeMeters>1237.199951171875</AltitudeMeters>
            <DistanceMeters>10157.798460756</DistanceMeters>
          </Trackpoint>
          <Trackpoint>
            <Time>2023-02-23T10:46:06.000Z</Time>
            <Position>
              <LatitudeDegrees>41.53408379293978214263916015625</LatitudeDegrees>
              <LongitudeDegrees>-4.5702261663973331451416015625</LongitudeDegrees>
            </Position>
            <AltitudeMeters>1237.199951171875</AltitudeMeters>
            <DistanceMeters>10158.399462468</DistanceMeters>
          </Trackpoint>
          <Trackpoint>
            <Time>2023-02-23T10:46:07.000Z</Time>
            <Position>
              <LatitudeDegrees>41.53408798389136791229248046875</LatitudeDegrees>
              <LongitudeDegrees>-4.5702181197702884674072265625</LongitudeDegrees>
            </Position>
            <AltitudeMeters>1237.199951171875</AltitudeMeters>
            <DistanceMeters>10159.205790877</DistanceMeters>
          </Trackpoint>
          <Trackpoint>
            <Time>2023-02-23T10:46:08.000Z</Time>
            <Position>
              <LatitudeDegrees>41.5340964496135711669921875</LatitudeDegrees>
              <LongitudeDegrees>-4.570206217467784881591796875</LongitudeDegrees>
            </Position>
            <AltitudeMeters>1237.199951171875</AltitudeMeters>
            <DistanceMeters>10160.576285642</DistanceMeters>
          </Trackpoint>
          <Trackpoint>
            <Time>2023-02-23T10:46:10.000Z</Time>
            <Position>
              <LatitudeDegrees>41.53411815874278545379638671875</LatitudeDegrees>
              <LongitudeDegrees>-4.570175707340240478515625</LongitudeDegrees>
            </Position>
            <AltitudeMeters>1237.199951171875</AltitudeMeters>
            <DistanceMeters>10164.084560745</DistanceMeters>
          </Trackpoint>
          <Trackpoint>
            <Time>2023-02-23T10:46:11.000Z</Time>
            <Position>
              <LatitudeDegrees>41.5341261215507984161376953125</LatitudeDegrees>
              <LongitudeDegrees>-4.57015433348715305328369140625</LongitudeDegrees>
            </Position>
            <AltitudeMeters>1237.199951171875</AltitudeMeters>
            <DistanceMeters>10166.073322541</DistanceMeters>
          </Trackpoint>
          <Trackpoint>
            <Time>2023-02-23T10:46:14.000Z</Time>
            <Position>
              <LatitudeDegrees>41.534150429069995880126953125</LatitudeDegrees>
              <LongitudeDegrees>-4.57007453776895999908447265625</LongitudeDegrees>
            </Position>
            <AltitudeMeters>1237.199951171875</AltitudeMeters>
            <DistanceMeters>10173.251457131</DistanceMeters>
          </Trackpoint>
          <Trackpoint>
            <Time>2023-02-23T10:46:18.000Z</Time>
            <Position>
              <LatitudeDegrees>41.5341930091381072998046875</LatitudeDegrees>
              <LongitudeDegrees>-4.5699669979512691497802734375</LongitudeDegrees>
            </Position>
            <AltitudeMeters>1237.199951171875</AltitudeMeters>
            <DistanceMeters>10183.387738982</DistanceMeters>
          </Trackpoint>
          <Trackpoint>
            <Time>2023-02-23T10:46:20.000Z</Time>
            <Position>
              <LatitudeDegrees>41.5342075936496257781982421875</LatitudeDegrees>
              <LongitudeDegrees>-4.56991352140903472900390625</LongitudeDegrees>
            </Position>
            <AltitudeMeters>1237.199951171875</AltitudeMeters>
            <DistanceMeters>10188.129562508</DistanceMeters>
          </Trackpoint>
          <Trackpoint>
            <Time>2023-02-23T10:46:25.000Z</Time>
            <Position>
              <LatitudeDegrees>41.534228213131427764892578125</LatitudeDegrees>
              <LongitudeDegrees>-4.569754935801029205322265625</LongitudeDegrees>
            </Position>
            <AltitudeMeters>1237.4000244140625</AltitudeMeters>
            <DistanceMeters>10201.540118143</DistanceMeters>
          </Trackpoint>
          <Trackpoint>
            <Time>2023-02-23T10:46:32.000Z</Time>
            <Position>
              <LatitudeDegrees>41.534244976937770843505859375</LatitudeDegrees>
              <LongitudeDegrees>-4.56956810317933559417724609375</LongitudeDegrees>
            </Position>
            <AltitudeMeters>1237.199951171875</AltitudeMeters>
            <DistanceMeters>10217.217510167</DistanceMeters>
          </Trackpoint>
          <Trackpoint>
            <Time>2023-02-23T10:46:38.000Z</Time>
            <Position>
              <LatitudeDegrees>41.5342588908970355987548828125</LatitudeDegrees>
              <LongitudeDegrees>-4.56938370130956172943115234375</LongitudeDegrees>
            </Position>
            <AltitudeMeters>1237.199951171875</AltitudeMeters>
            <DistanceMeters>10232.65898576</DistanceMeters>
          </Trackpoint>
          <Trackpoint>
            <Time>2023-02-23T10:46:41.000Z</Time>
            <Position>
              <LatitudeDegrees>41.53426350094377994537353515625</LatitudeDegrees>
              <LongitudeDegrees>-4.5692946016788482666015625</LongitudeDegrees>
            </Position>
            <AltitudeMeters>1237.5999755859375</AltitudeMeters>
            <DistanceMeters>10240.100251026</DistanceMeters>
          </Trackpoint>
          <Trackpoint>
            <Time>2023-02-23T10:46:42.000Z</Time>
            <Position>
              <LatitudeDegrees>41.534265093505382537841796875</LatitudeDegrees>
              <LongitudeDegrees>-4.56926216371357440948486328125</LongitudeDegrees>
            </Position>
            <AltitudeMeters>1237.5999755859375</AltitudeMeters>
            <DistanceMeters>10242.80809557</DistanceMeters>
          </Trackpoint>
          <Trackpoint>
            <Time>2023-02-23T10:46:43.000Z</Time>
            <Position>
              <LatitudeDegrees>41.5342615731060504913330078125</LatitudeDegrees>
              <LongitudeDegrees>-4.5692283846437931060791015625</LongitudeDegrees>
            </Position>
            <AltitudeMeters>1237.5999755859375</AltitudeMeters>
            <DistanceMeters>10245.649378438</DistanceMeters>
          </Trackpoint>
          <Trackpoint>
            <Time>2023-02-23T10:46:44.000Z</Time>
            <Position>
              <LatitudeDegrees>41.534261070191860198974609375</LatitudeDegrees>
              <LongitudeDegrees>-4.5691871456801891326904296875</LongitudeDegrees>
            </Position>
            <AltitudeMeters>1237.800048828125</AltitudeMeters>
            <DistanceMeters>10249.08482745</DistanceMeters>
          </Trackpoint>
          <Trackpoint>
            <Time>2023-02-23T10:46:46.000Z</Time>
            <Position>
              <LatitudeDegrees>41.53427439741790294647216796875</LatitudeDegrees>
              <LongitudeDegrees>-4.5691016502678394317626953125</LongitudeDegrees>
            </Position>
            <AltitudeMeters>1237.800048828125</AltitudeMeters>
            <DistanceMeters>10256.36104475</DistanceMeters>
          </Trackpoint>
          <Trackpoint>
            <Time>2023-02-23T10:46:50.000Z</Time>
            <Position>
              <LatitudeDegrees>41.5342976152896881103515625</LatitudeDegrees>
              <LongitudeDegrees>-4.568983130156993865966796875</LongitudeDegrees>
            </Position>
            <AltitudeMeters>1238</AltitudeMeters>
            <DistanceMeters>10266.568347136</DistanceMeters>
          </Trackpoint>
          <Trackpoint>
            <Time>2023-02-23T10:46:54.000Z</Time>
            <Position>
              <LatitudeDegrees>41.53430909849703311920166015625</LatitudeDegrees>
              <LongitudeDegrees>-4.56887257285416126251220703125</LongitudeDegrees>
            </Position>
            <AltitudeMeters>1238.199951171875</AltitudeMeters>
            <DistanceMeters>10275.867379991</DistanceMeters>
          </Trackpoint>
          <Trackpoint>
            <Time>2023-02-23T10:46:56.000Z</Time>
            <Position>
              <LatitudeDegrees>41.5343165583908557891845703125</LatitudeDegrees>
              <LongitudeDegrees>-4.56882429309189319610595703125</LongitudeDegrees>
            </Position>
            <AltitudeMeters>1238.5999755859375</AltitudeMeters>
            <DistanceMeters>10279.974469325</DistanceMeters>
          </Trackpoint>
          <Trackpoint>
            <Time>2023-02-23T10:46:58.000Z</Time>
            <Position>
              <LatitudeDegrees>41.5343410335481166839599609375</LatitudeDegrees>
              <LongitudeDegrees>-4.5687660388648509979248046875</LongitudeDegrees>
            </Position>
            <AltitudeMeters>1238.800048828125</AltitudeMeters>
            <DistanceMeters>10285.53982306</DistanceMeters>
          </Trackpoint>
          <Trackpoint>
            <Time>2023-02-23T10:47:03.000Z</Time>
            <Position>
              <LatitudeDegrees>41.53438738547265529632568359375</LatitudeDegrees>
              <LongitudeDegrees>-4.568641819059848785400390625</LongitudeDegrees>
            </Position>
            <AltitudeMeters>1239.4000244140625</AltitudeMeters>
            <DistanceMeters>10297.103836294</DistanceMeters>
          </Trackpoint>
          <Trackpoint>
            <Time>2023-02-23T10:47:04.000Z</Time>
            <Position>
              <LatitudeDegrees>41.5343896485865116119384765625</LatitudeDegrees>
              <LongitudeDegrees>-4.56861239857971668243408203125</LongitudeDegrees>
            </Position>
            <AltitudeMeters>1239.4000244140625</AltitudeMeters>
            <DistanceMeters>10299.565376725</DistanceMeters>
          </Trackpoint>
          <Trackpoint>
            <Time>2023-02-23T10:47:06.000Z</Time>
            <Position>
              <LatitudeDegrees>41.53439912013709545135498046875</LatitudeDegrees>
              <LongitudeDegrees>-4.56856034696102142333984375</LongitudeDegrees>
            </Position>
            <AltitudeMeters>1239.800048828125</AltitudeMeters>
            <DistanceMeters>10304.028598502</DistanceMeters>
          </Trackpoint>
          <Trackpoint>
            <Time>2023-02-23T10:47:09.000Z</Time>
            <Position>
              <LatitudeDegrees>41.5344037301838397979736328125</LatitudeDegrees>
              <LongitudeDegrees>-4.56847988069057464599609375</LongitudeDegrees>
            </Position>
            <AltitudeMeters>1240.199951171875</AltitudeMeters>
            <DistanceMeters>10310.752032348</DistanceMeters>
          </Trackpoint>
          <Trackpoint>
            <Time>2023-02-23T10:47:10.000Z</Time>
            <Position>
              <LatitudeDegrees>41.53440666384994983673095703125</LatitudeDegrees>
              <LongitudeDegrees>-4.56845213659107685089111328125</LongitudeDegrees>
            </Position>
            <AltitudeMeters>1240.199951171875</AltitudeMeters>
            <DistanceMeters>10313.087447979</DistanceMeters>
          </Trackpoint>
          <Trackpoint>
            <Time>2023-02-23T10:47:11.000Z</Time>
            <Position>
              <LatitudeDegrees>41.5344090946018695831298828125</LatitudeDegrees>
              <LongitudeDegrees>-4.56842581741511821746826171875</LongitudeDegrees>
            </Position>
            <AltitudeMeters>1240.4000244140625</AltitudeMeters>
            <DistanceMeters>10315.297712976</DistanceMeters>
          </Trackpoint>
          <Trackpoint>
            <Time>2023-02-23T10:47:13.000Z</Time>
            <Position>
              <LatitudeDegrees>41.5344137884676456451416015625</LatitudeDegrees>
              <LongitudeDegrees>-4.56837217323482036590576171875</LongitudeDegrees>
            </Position>
            <AltitudeMeters>1240.800048828125</AltitudeMeters>
            <DistanceMeters>10319.797205324</DistanceMeters>
          </Trackpoint>
          <Trackpoint>
            <Time>2023-02-23T10:47:18.000Z</Time>
            <Position>
              <LatitudeDegrees>41.53442057780921459197998046875</LatitudeDegrees>
              <LongitudeDegrees>-4.5682490430772304534912109375</LongitudeDegrees>
            </Position>
            <AltitudeMeters>1241.199951171875</AltitudeMeters>
            <DistanceMeters>10330.083819722</DistanceMeters>
          </Trackpoint>
          <Trackpoint>
            <Time>2023-02-23T10:47:22.000Z</Time>
            <Position>
              <LatitudeDegrees>41.53442032635211944580078125</LatitudeDegrees>
              <LongitudeDegrees>-4.5681774616241455078125</LongitudeDegrees>
            </Position>
            <AltitudeMeters>1241.4000244140625</AltitudeMeters>
            <DistanceMeters>10336.048591401</DistanceMeters>
          </Trackpoint>
          <Trackpoint>
            <Time>2023-02-23T10:47:25.000Z</Time>
            <Position>
              <LatitudeDegrees>41.53441186062991619110107421875</LatitudeDegrees>
              <LongitudeDegrees>-4.56812608055770397186279296875</LongitudeDegrees>
            </Position>
            <AltitudeMeters>1241.800048828125</AltitudeMeters>
            <DistanceMeters>10340.432197528</DistanceMeters>
          </Trackpoint>
          <Trackpoint>
            <Time>2023-02-23T10:47:32.000Z</Time>
            <Position>
              <LatitudeDegrees>41.53443231247365474700927734375</LatitudeDegrees>
              <LongitudeDegrees>-4.567973949015140533447265625</LongitudeDegrees>
            </Position>
            <AltitudeMeters>1242.4000244140625</AltitudeMeters>
            <DistanceMeters>10353.309632203</DistanceMeters>
          </Trackpoint>
          <Trackpoint>
            <Time>2023-02-23T10:47:34.000Z</Time>
            <Position>
              <LatitudeDegrees>41.534447483718395233154296875</LatitudeDegrees>
              <LongitudeDegrees>-4.56792868673801422119140625</LongitudeDegrees>
            </Position>
            <AltitudeMeters>1242.5999755859375</AltitudeMeters>
            <DistanceMeters>10357.44083596</DistanceMeters>
          </Trackpoint>
          <Trackpoint>
            <Time>2023-02-23T10:47:39.000Z</Time>
            <Position>
              <LatitudeDegrees>41.53446919284760951995849609375</LatitudeDegrees>
              <LongitudeDegrees>-4.56781066954135894775390625</LongitudeDegrees>
            </Position>
            <AltitudeMeters>1243</AltitudeMeters>
            <DistanceMeters>10367.56552992</DistanceMeters>
          </Trackpoint>
          <Trackpoint>
            <Time>2023-02-23T10:47:43.000Z</Time>
            <Position>
              <LatitudeDegrees>41.534485705196857452392578125</LatitudeDegrees>
              <LongitudeDegrees>-4.5677172951400279998779296875</LongitudeDegrees>
            </Position>
            <AltitudeMeters>1243</AltitudeMeters>
            <DistanceMeters>10375.559078627</DistanceMeters>
          </Trackpoint>
          <Trackpoint>
            <Time>2023-02-23T10:47:49.000Z</Time>
            <Position>
              <LatitudeDegrees>41.534524261951446533203125</LatitudeDegrees>
              <LongitudeDegrees>-4.5675766468048095703125</LongitudeDegrees>
            </Position>
            <AltitudeMeters>1243</AltitudeMeters>
            <DistanceMeters>10388.038007598</DistanceMeters>
          </Trackpoint>
          <Trackpoint>
            <Time>2023-02-23T10:47:53.000Z</Time>
            <Position>
              <LatitudeDegrees>41.53453859500586986541748046875</LatitudeDegrees>
              <LongitudeDegrees>-4.56749056465923786163330078125</LongitudeDegrees>
            </Position>
            <AltitudeMeters>1243.4000244140625</AltitudeMeters>
            <DistanceMeters>10395.385238163</DistanceMeters>
          </Trackpoint>
          <Trackpoint>
            <Time>2023-02-23T10:47:55.000Z</Time>
            <Position>
              <LatitudeDegrees>41.53454764746129512786865234375</LatitudeDegrees>
              <LongitudeDegrees>-4.56744915805757045745849609375</LongitudeDegrees>
            </Position>
            <AltitudeMeters>1243.5999755859375</AltitudeMeters>
            <DistanceMeters>10398.978705753</DistanceMeters>
          </Trackpoint>
          <Trackpoint>
            <Time>2023-02-23T10:47:58.000Z</Time>
            <Position>
              <LatitudeDegrees>41.53457094915211200714111328125</LatitudeDegrees>
              <LongitudeDegrees>-4.56737757660448551177978515625</LongitudeDegrees>
            </Position>
            <AltitudeMeters>1244.199951171875</AltitudeMeters>
            <DistanceMeters>10405.482310758</DistanceMeters>
          </Trackpoint>
          <Trackpoint>
            <Time>2023-02-23T10:48:01.000Z</Time>
            <Position>
              <LatitudeDegrees>41.534592993557453155517578125</LatitudeDegrees>
              <LongitudeDegrees>-4.56730775535106658935546875</LongitudeDegrees>
            </Position>
            <AltitudeMeters>1244.5999755859375</AltitudeMeters>
            <DistanceMeters>10411.795689998</DistanceMeters>
          </Trackpoint>
          <Trackpoint>
            <Time>2023-02-23T10:48:06.000Z</Time>
            <Position>
              <LatitudeDegrees>41.534609086811542510986328125</LatitudeDegrees>
              <LongitudeDegrees>-4.56718973815441131591796875</LongitudeDegrees>
            </Position>
            <AltitudeMeters>1245.199951171875</AltitudeMeters>
            <DistanceMeters>10421.790223785</DistanceMeters>
          </Trackpoint>
          <Trackpoint>
            <Time>2023-02-23T10:48:11.000Z</Time>
            <Position>
              <LatitudeDegrees>41.53460397385060787200927734375</LatitudeDegrees>
              <LongitudeDegrees>-4.567080102860927581787109375</LongitudeDegrees>
            </Position>
            <AltitudeMeters>1245.5999755859375</AltitudeMeters>
            <DistanceMeters>10430.942436036</DistanceMeters>
          </Trackpoint>
          <Trackpoint>
            <Time>2023-02-23T10:48:13.000Z</Time>
            <Position>
              <LatitudeDegrees>41.53460808098316192626953125</LatitudeDegrees>
              <LongitudeDegrees>-4.56704313866794109344482421875</LongitudeDegrees>
            </Position>
            <AltitudeMeters>1246</AltitudeMeters>
            <DistanceMeters>10434.056645743</DistanceMeters>
          </Trackpoint>
          <Trackpoint>
            <Time>2023-02-23T10:48:23.000Z</Time>
            <Position>
              <LatitudeDegrees>41.53466130606830120086669921875</LatitudeDegrees>
              <LongitudeDegrees>-4.566855132579803466796875</LongitudeDegrees>
            </Position>
            <AltitudeMeters>1246.199951171875</AltitudeMeters>
            <DistanceMeters>10450.803469747</DistanceMeters>
          </Trackpoint>
          <Trackpoint>
            <Time>2023-02-23T10:48:26.000Z</Time>
            <Position>
              <LatitudeDegrees>41.53466616757214069366455078125</LatitudeDegrees>
              <LongitudeDegrees>-4.56678765825927257537841796875</LongitudeDegrees>
            </Position>
            <AltitudeMeters>1246.800048828125</AltitudeMeters>
            <DistanceMeters>10456.451766842</DistanceMeters>
          </Trackpoint>
          <Trackpoint>
            <Time>2023-02-23T10:48:31.000Z</Time>
            <Position>
              <LatitudeDegrees>41.53468661941587924957275390625</LatitudeDegrees>
              <LongitudeDegrees>-4.56667634658515453338623046875</LongitudeDegrees>
            </Position>
            <AltitudeMeters>1247.5999755859375</AltitudeMeters>
            <DistanceMeters>10466.001833443</DistanceMeters>
          </Trackpoint>
          <Trackpoint>
            <Time>2023-02-23T10:48:38.000Z</Time>
            <Position>
              <LatitudeDegrees>41.53470925055444240570068359375</LatitudeDegrees>
              <LongitudeDegrees>-4.566517509520053863525390625</LongitudeDegrees>
            </Position>
            <AltitudeMeters>1248</AltitudeMeters>
            <DistanceMeters>10479.472854793</DistanceMeters>
          </Trackpoint>
          <Trackpoint>
            <Time>2023-02-23T10:48:39.000Z</Time>
            <Position>
              <LatitudeDegrees>41.5347121842205524444580078125</LatitudeDegrees>
              <LongitudeDegrees>-4.5664970576763153076171875</LongitudeDegrees>
            </Position>
            <AltitudeMeters>1248.199951171875</AltitudeMeters>
            <DistanceMeters>10481.20953137</DistanceMeters>
          </Trackpoint>
          <Trackpoint>
            <Time>2023-02-23T10:48:45.000Z</Time>
            <Position>
              <LatitudeDegrees>41.534718386828899383544921875</LatitudeDegrees>
              <LongitudeDegrees>-4.5663906075060367584228515625</LongitudeDegrees>
            </Position>
            <AltitudeMeters>1248.800048828125</AltitudeMeters>
            <DistanceMeters>10490.10557487</DistanceMeters>
          </Trackpoint>
          <Trackpoint>
            <Time>2023-02-23T10:48:48.000Z</Time>
            <Position>
              <LatitudeDegrees>41.53473079204559326171875</LatitudeDegrees>
              <LongitudeDegrees>-4.56633486784994602203369140625</LongitudeDegrees>
            </Position>
            <AltitudeMeters>1249</AltitudeMeters>
            <DistanceMeters>10494.951005579</DistanceMeters>
          </Trackpoint>
          <Trackpoint>
            <Time>2023-02-23T10:48:53.000Z</Time>
            <Position>
              <LatitudeDegrees>41.53474529273808002471923828125</LatitudeDegrees>
              <LongitudeDegrees>-4.56624291837215423583984375</LongitudeDegrees>
            </Position>
            <AltitudeMeters>1250</AltitudeMeters>
            <DistanceMeters>10502.779615214</DistanceMeters>
          </Trackpoint>
          <Trackpoint>
            <Time>2023-02-23T10:48:54.000Z</Time>
            <Position>
              <LatitudeDegrees>41.53474378399550914764404296875</LatitudeDegrees>
              <LongitudeDegrees>-4.56622422672808170318603515625</LongitudeDegrees>
            </Position>
            <AltitudeMeters>1250.199951171875</AltitudeMeters>
            <DistanceMeters>10504.341063465</DistanceMeters>
          </Trackpoint>
          <Trackpoint>
            <Time>2023-02-23T10:48:55.000Z</Time>
            <Position>
              <LatitudeDegrees>41.53474210761487483978271484375</LatitudeDegrees>
              <LongitudeDegrees>-4.5662046968936920166015625</LongitudeDegrees>
            </Position>
            <AltitudeMeters>1250.4000244140625</AltitudeMeters>
            <DistanceMeters>10505.978724206</DistanceMeters>
          </Trackpoint>
          <Trackpoint>
            <Time>2023-02-23T10:49:02.000Z</Time>
            <Position>
              <LatitudeDegrees>41.53476758860051631927490234375</LatitudeDegrees>
              <LongitudeDegrees>-4.566059522330760955810546875</LongitudeDegrees>
            </Position>
            <AltitudeMeters>1251</AltitudeMeters>
            <DistanceMeters>10518.402172463</DistanceMeters>
          </Trackpoint>
          <Trackpoint>
            <Time>2023-02-23T10:49:03.000Z</Time>
            <Position>
              <LatitudeDegrees>41.5347698517143726348876953125</LatitudeDegrees>
              <LongitudeDegrees>-4.56603563390672206878662109375</LongitudeDegrees>
            </Position>
            <AltitudeMeters>1251.199951171875</AltitudeMeters>
            <DistanceMeters>10520.409014284</DistanceMeters>
          </Trackpoint>
          <Trackpoint>
            <Time>2023-02-23T10:49:06.000Z</Time>
            <Position>
              <LatitudeDegrees>41.53477647341787815093994140625</LatitudeDegrees>
              <LongitudeDegrees>-4.5659688301384449005126953125</LongitudeDegrees>
            </Position>
            <AltitudeMeters>1251.5999755859375</AltitudeMeters>
            <DistanceMeters>10526.022833553</DistanceMeters>
          </Trackpoint>
          <Trackpoint>
            <Time>2023-02-23T10:49:10.000Z</Time>
            <Position>
              <LatitudeDegrees>41.534790806472301483154296875</LatitudeDegrees>
              <LongitudeDegrees>-4.56587788648903369903564453125</LongitudeDegrees>
            </Position>
            <AltitudeMeters>1251.800048828125</AltitudeMeters>
            <DistanceMeters>10533.765615838</DistanceMeters>
          </Trackpoint>
          <Trackpoint>
            <Time>2023-02-23T10:49:15.000Z</Time>
            <Position>
              <LatitudeDegrees>41.5348214842379093170166015625</LatitudeDegrees>
              <LongitudeDegrees>-4.5657549239695072174072265625</LongitudeDegrees>
            </Position>
            <AltitudeMeters>1252.199951171875</AltitudeMeters>
            <DistanceMeters>10544.563594679</DistanceMeters>
          </Trackpoint>
          <Trackpoint>
            <Time>2023-02-23T10:49:16.000Z</Time>
            <Position>
              <LatitudeDegrees>41.53482927940785884857177734375</LatitudeDegrees>
              <LongitudeDegrees>-4.5657317899167537689208984375</LongitudeDegrees>
            </Position>
            <AltitudeMeters>1252.199951171875</AltitudeMeters>
            <DistanceMeters>10546.677805605</DistanceMeters>
          </Trackpoint>
          <Trackpoint>
            <Time>2023-02-23T10:49:17.000Z</Time>
            <Position>
              <LatitudeDegrees>41.5348345600068569183349609375</LatitudeDegrees>
              <LongitudeDegrees>-4.5657076500356197357177734375</LongitudeDegrees>
            </Position>
            <AltitudeMeters>1252.199951171875</AltitudeMeters>
            <DistanceMeters>10548.774862406</DistanceMeters>
          </Trackpoint>
          <Trackpoint>
            <Time>2023-02-23T10:49:24.000Z</Time>
            <Position>
              <LatitudeDegrees>41.53486867435276508331298828125</LatitudeDegrees>
              <LongitudeDegrees>-4.56552207469940185546875</LongitudeDegrees>
            </Position>
            <AltitudeMeters>1253.199951171875</AltitudeMeters>
            <DistanceMeters>10564.695453341</DistanceMeters>
          </Trackpoint>
          <Trackpoint>
            <Time>2023-02-23T10:49:26.000Z</Time>
            <Position>
              <LatitudeDegrees>41.534875296056270599365234375</LatitudeDegrees>
              <LongitudeDegrees>-4.5654709450900554656982421875</LongitudeDegrees>
            </Position>
            <AltitudeMeters>1253</AltitudeMeters>
            <DistanceMeters>10569.016818644</DistanceMeters>
          </Trackpoint>
          <Trackpoint>
            <Time>2023-02-23T10:49:29.000Z</Time>
            <Position>
              <LatitudeDegrees>41.534887365996837615966796875</LatitudeDegrees>
              <LongitudeDegrees>-4.56539475359022617340087890625</LongitudeDegrees>
            </Position>
            <AltitudeMeters>1253</AltitudeMeters>
            <DistanceMeters>10575.504436566</DistanceMeters>
          </Trackpoint>
          <Trackpoint>
            <Time>2023-02-23T10:49:33.000Z</Time>
            <Position>
              <LatitudeDegrees>41.53491678647696971893310546875</LatitudeDegrees>
              <LongitudeDegrees>-4.56526667810976505279541015625</LongitudeDegrees>
            </Position>
            <AltitudeMeters>1252.800048828125</AltitudeMeters>
            <DistanceMeters>10586.665929953</DistanceMeters>
          </Trackpoint>
          <Trackpoint>
            <Time>2023-02-23T10:49:39.000Z</Time>
            <Position>
              <LatitudeDegrees>41.53493874706327915191650390625</LatitudeDegrees>
              <LongitudeDegrees>-4.56507741473615169525146484375</LongitudeDegrees>
            </Position>
            <AltitudeMeters>1252.800048828125</AltitudeMeters>
            <DistanceMeters>10602.622497109</DistanceMeters>
          </Trackpoint>
          <Trackpoint>
            <Time>2023-02-23T10:49:40.000Z</Time>
            <Position>
              <LatitudeDegrees>41.5349438600242137908935546875</LatitudeDegrees>
              <LongitudeDegrees>-4.56504405476152896881103515625</LongitudeDegrees>
            </Position>
            <AltitudeMeters>1252.5999755859375</AltitudeMeters>
            <DistanceMeters>10605.46060003</DistanceMeters>
          </Trackpoint>
          <Trackpoint>
            <Time>2023-02-23T10:49:42.000Z</Time>
            <Position>
              <LatitudeDegrees>41.53496037237346172332763671875</LatitudeDegrees>
              <LongitudeDegrees>-4.564968533813953399658203125</LongitudeDegrees>
            </Position>
            <AltitudeMeters>1253</AltitudeMeters>
            <DistanceMeters>10612.015377198</DistanceMeters>
          </Trackpoint>
          <Trackpoint>
            <Time>2023-02-23T10:49:43.000Z</Time>
            <Position>
              <LatitudeDegrees>41.53497126884758472442626953125</LatitudeDegrees>
              <LongitudeDegrees>-4.564926624298095703125</LongitudeDegrees>
            </Position>
            <AltitudeMeters>1252.800048828125</AltitudeMeters>
            <DistanceMeters>10615.712881185</DistanceMeters>
          </Trackpoint>
          <Trackpoint>
            <Time>2023-02-23T10:49:46.000Z</Time>
            <Position>
              <LatitudeDegrees>41.534999348223209381103515625</LatitudeDegrees>
              <LongitudeDegrees>-4.564789496362209320068359375</LongitudeDegrees>
            </Position>
            <AltitudeMeters>1252.4000244140625</AltitudeMeters>
            <DistanceMeters>10627.557723848</DistanceMeters>
          </Trackpoint>
          <Trackpoint>
            <Time>2023-02-23T10:49:50.000Z</Time>
            <Position>
              <LatitudeDegrees>41.53503664769232273101806640625</LatitudeDegrees>
              <LongitudeDegrees>-4.5646723173558712005615234375</LongitudeDegrees>
            </Position>
            <AltitudeMeters>1251.800048828125</AltitudeMeters>
            <DistanceMeters>10638.166297867</DistanceMeters>
          </Trackpoint>
          <Trackpoint>
            <Time>2023-02-23T10:49:51.000Z</Time>
            <Position>
              <LatitudeDegrees>41.5350432693958282470703125</LatitudeDegrees>
              <LongitudeDegrees>-4.56465982832014560699462890625</LongitudeDegrees>
            </Position>
            <AltitudeMeters>1251.800048828125</AltitudeMeters>
            <DistanceMeters>10639.441215025</DistanceMeters>
          </Trackpoint>
          <Trackpoint>
            <Time>2023-02-23T10:49:56.000Z</Time>
            <Position>
              <LatitudeDegrees>41.53504720889031887054443359375</LatitudeDegrees>
              <LongitudeDegrees>-4.56464775837957859039306640625</LongitudeDegrees>
            </Position>
            <AltitudeMeters>1251.199951171875</AltitudeMeters>
            <DistanceMeters>10640.541228772</DistanceMeters>
          </Trackpoint>
          <Trackpoint>
            <Time>2023-02-23T10:49:58.000Z</Time>
            <Position>
              <LatitudeDegrees>41.535039246082305908203125</LatitudeDegrees>
              <LongitudeDegrees>-4.56463099457323551177978515625</LongitudeDegrees>
            </Position>
            <AltitudeMeters>1250.800048828125</AltitudeMeters>
            <DistanceMeters>10642.195348829</DistanceMeters>
          </Trackpoint>
          <Trackpoint>
            <Time>2023-02-23T10:50:01.000Z</Time>
            <Position>
              <LatitudeDegrees>41.53504335321485996246337890625</LatitudeDegrees>
              <LongitudeDegrees>-4.5646176673471927642822265625</LongitudeDegrees>
            </Position>
            <AltitudeMeters>1250.5999755859375</AltitudeMeters>
            <DistanceMeters>10643.393590105</DistanceMeters>
          </Trackpoint>
          <Trackpoint>
            <Time>2023-02-23T10:50:04.000Z</Time>
            <Position>
              <LatitudeDegrees>41.53505642898380756378173828125</LatitudeDegrees>
              <LongitudeDegrees>-4.56461615860462188720703125</LongitudeDegrees>
            </Position>
            <AltitudeMeters>1250.800048828125</AltitudeMeters>
            <DistanceMeters>10644.853418191</DistanceMeters>
          </Trackpoint>
          <Trackpoint>
            <Time>2023-02-23T10:50:08.000Z</Time>
            <Position>
              <LatitudeDegrees>41.53506984002888202667236328125</LatitudeDegrees>
              <LongitudeDegrees>-4.56461523659527301788330078125</LongitudeDegrees>
            </Position>
            <AltitudeMeters>1251</AltitudeMeters>
            <DistanceMeters>10646.349900385</DistanceMeters>
          </Trackpoint>
          <Trackpoint>
            <Time>2023-02-23T10:50:11.000Z</Time>
            <Position>
              <LatitudeDegrees>41.53506967239081859588623046875</LatitudeDegrees>
              <LongitudeDegrees>-4.56461607478559017181396484375</LongitudeDegrees>
            </Position>
            <AltitudeMeters>1251</AltitudeMeters>
            <DistanceMeters>10646.484288454</DistanceMeters>
          </Trackpoint>
          <Trackpoint>
            <Time>2023-02-23T10:50:13.000Z</Time>
            <Position>
              <LatitudeDegrees>41.53506648726761341094970703125</LatitudeDegrees>
              <LongitudeDegrees>-4.5645873248577117919921875</LongitudeDegrees>
            </Position>
            <AltitudeMeters>1251</AltitudeMeters>
            <DistanceMeters>10648.905139463</DistanceMeters>
          </Trackpoint>
          <Trackpoint>
            <Time>2023-02-23T10:50:14.000Z</Time>
            <Position>
              <LatitudeDegrees>41.5350749529898166656494140625</LatitudeDegrees>
              <LongitudeDegrees>-4.564580619335174560546875</LongitudeDegrees>
            </Position>
            <AltitudeMeters>1251</AltitudeMeters>
            <DistanceMeters>10649.996913291</DistanceMeters>
          </Trackpoint>
          <Trackpoint>
            <Time>2023-02-23T10:50:17.000Z</Time>
            <Position>
              <LatitudeDegrees>41.5350719355046749114990234375</LatitudeDegrees>
              <LongitudeDegrees>-4.564578942954540252685546875</LongitudeDegrees>
            </Position>
            <AltitudeMeters>1251</AltitudeMeters>
            <DistanceMeters>10650.352470699</DistanceMeters>
          </Trackpoint>
          <Trackpoint>
            <Time>2023-02-23T10:50:18.000Z</Time>
            <Position>
              <LatitudeDegrees>41.5350534953176975250244140625</LatitudeDegrees>
              <LongitudeDegrees>-4.5645707286894321441650390625</LongitudeDegrees>
            </Position>
            <AltitudeMeters>1250.800048828125</AltitudeMeters>
            <DistanceMeters>10652.515241976</DistanceMeters>
          </Trackpoint>
          <Trackpoint>
            <Time>2023-02-23T10:50:21.000Z</Time>
            <Position>
              <LatitudeDegrees>41.5350648947060108184814453125</LatitudeDegrees>
              <LongitudeDegrees>-4.5645551383495330810546875</LongitudeDegrees>
            </Position>
            <AltitudeMeters>1250.800048828125</AltitudeMeters>
            <DistanceMeters>10654.333210067</DistanceMeters>
          </Trackpoint>
          <Trackpoint>
            <Time>2023-02-23T10:50:23.000Z</Time>
            <Position>
              <LatitudeDegrees>41.53507235459983348846435546875</LatitudeDegrees>
              <LongitudeDegrees>-4.5645511150360107421875</LongitudeDegrees>
            </Position>
            <AltitudeMeters>1251</AltitudeMeters>
            <DistanceMeters>10655.224639664</DistanceMeters>
          </Trackpoint>
          <Trackpoint>
            <Time>2023-02-23T10:50:24.000Z</Time>
            <Position>
              <LatitudeDegrees>41.53507755137979984283447265625</LatitudeDegrees>
              <LongitudeDegrees>-4.5645348541438579559326171875</LongitudeDegrees>
            </Position>
            <AltitudeMeters>1251.199951171875</AltitudeMeters>
            <DistanceMeters>10656.696787193</DistanceMeters>
          </Trackpoint>
          <Trackpoint>
            <Time>2023-02-23T10:50:30.000Z</Time>
            <Position>
              <LatitudeDegrees>41.53509548865258693695068359375</LatitudeDegrees>
              <LongitudeDegrees>-4.5644438266754150390625</LongitudeDegrees>
            </Position>
            <AltitudeMeters>1251.199951171875</AltitudeMeters>
            <DistanceMeters>10664.538074747</DistanceMeters>
          </Trackpoint>
          <Trackpoint>
            <Time>2023-02-23T10:50:36.000Z</Time>
            <Position>
              <LatitudeDegrees>41.535105295479297637939453125</LatitudeDegrees>
              <LongitudeDegrees>-4.564314745366573333740234375</LongitudeDegrees>
            </Position>
            <AltitudeMeters>1250.5999755859375</AltitudeMeters>
            <DistanceMeters>10675.347755093</DistanceMeters>
          </Trackpoint>
          <Trackpoint>
            <Time>2023-02-23T10:50:37.000Z</Time>
            <Position>
              <LatitudeDegrees>41.53511124663054943084716796875</LatitudeDegrees>
              <LongitudeDegrees>-4.5642733387649059295654296875</LongitudeDegrees>
            </Position>
            <AltitudeMeters>1250.4000244140625</AltitudeMeters>
            <DistanceMeters>10678.861174297</DistanceMeters>
          </Trackpoint>
          <Trackpoint>
            <Time>2023-02-23T10:50:39.000Z</Time>
            <Position>
              <LatitudeDegrees>41.53512147255241870880126953125</LatitudeDegrees>
              <LongitudeDegrees>-4.56418440677225589752197265625</LongitudeDegrees>
            </Position>
            <AltitudeMeters>1250.199951171875</AltitudeMeters>
            <DistanceMeters>10686.356848758</DistanceMeters>
          </Trackpoint>
          <Trackpoint>
            <Time>2023-02-23T10:50:40.000Z</Time>
            <Position>
              <LatitudeDegrees>41.5351296029984951019287109375</LatitudeDegrees>
              <LongitudeDegrees>-4.5641318522393703460693359375</LongitudeDegrees>
            </Position>
            <AltitudeMeters>1250.199951171875</AltitudeMeters>
            <DistanceMeters>10690.828156089</DistanceMeters>
          </Trackpoint>
          <Trackpoint>
            <Time>2023-02-23T10:50:41.000Z</Time>
            <Position>
              <LatitudeDegrees>41.535138823091983795166015625</LatitudeDegrees>
              <LongitudeDegrees>-4.56407493911683559417724609375</LongitudeDegrees>
            </Position>
            <AltitudeMeters>1250</AltitudeMeters>
            <DistanceMeters>10695.680105109</DistanceMeters>
          </Trackpoint>
          <Trackpoint>
            <Time>2023-02-23T10:50:42.000Z</Time>
            <Position>
              <LatitudeDegrees>41.53514184057712554931640625</LatitudeDegrees>
              <LongitudeDegrees>-4.56401626579463481903076171875</LongitudeDegrees>
            </Position>
            <AltitudeMeters>1249.800048828125</AltitudeMeters>
            <DistanceMeters>10700.579282916</DistanceMeters>
          </Trackpoint>
          <Trackpoint>
            <Time>2023-02-23T10:50:43.000Z</Time>
            <Position>
              <LatitudeDegrees>41.53513991273939609527587890625</LatitudeDegrees>
              <LongitudeDegrees>-4.56395407207310199737548828125</LongitudeDegrees>
            </Position>
            <AltitudeMeters>1249.4000244140625</AltitudeMeters>
            <DistanceMeters>10705.764990934</DistanceMeters>
          </Trackpoint>
          <Trackpoint>
            <Time>2023-02-23T10:50:44.000Z</Time>
            <Position>
              <LatitudeDegrees>41.53513169847428798675537109375</LatitudeDegrees>
              <LongitudeDegrees>-4.56388399936258792877197265625</LongitudeDegrees>
            </Position>
            <AltitudeMeters>1249.199951171875</AltitudeMeters>
            <DistanceMeters>10711.67348275</DistanceMeters>
          </Trackpoint>
          <Trackpoint>
            <Time>2023-02-23T10:50:45.000Z</Time>
            <Position>
              <LatitudeDegrees>41.53511711396276950836181640625</LatitudeDegrees>
              <LongitudeDegrees>-4.56380738876760005950927734375</LongitudeDegrees>
            </Position>
            <AltitudeMeters>1248.800048828125</AltitudeMeters>
            <DistanceMeters>10718.259183712</DistanceMeters>
          </Trackpoint>
          <Trackpoint>
            <Time>2023-02-23T10:50:46.000Z</Time>
            <Position>
              <LatitudeDegrees>41.535097919404506683349609375</LatitudeDegrees>
              <LongitudeDegrees>-4.56373102962970733642578125</LongitudeDegrees>
            </Position>
            <AltitudeMeters>1248</AltitudeMeters>
            <DistanceMeters>10724.969173365</DistanceMeters>
          </Trackpoint>
          <Trackpoint>
            <Time>2023-02-23T10:50:47.000Z</Time>
            <Position>
              <LatitudeDegrees>41.5350762940943241119384765625</LatitudeDegrees>
              <LongitudeDegrees>-4.56365819089114665985107421875</LongitudeDegrees>
            </Position>
            <AltitudeMeters>1247.5999755859375</AltitudeMeters>
            <DistanceMeters>10731.497723037</DistanceMeters>
          </Trackpoint>
          <Trackpoint>
            <Time>2023-02-23T10:50:48.000Z</Time>
            <Position>
              <LatitudeDegrees>41.53504620306193828582763671875</LatitudeDegrees>
              <LongitudeDegrees>-4.5635913871228694915771484375</LongitudeDegrees>
            </Position>
            <AltitudeMeters>1247.4000244140625</AltitudeMeters>
            <DistanceMeters>10737.992991865</DistanceMeters>
          </Trackpoint>
          <Trackpoint>
            <Time>2023-02-23T10:50:49.000Z</Time>
            <Position>
              <LatitudeDegrees>41.53501301072537899017333984375</LatitudeDegrees>
              <LongitudeDegrees>-4.5635385811328887939453125</LongitudeDegrees>
            </Position>
            <AltitudeMeters>1247.199951171875</AltitudeMeters>
            <DistanceMeters>10743.737197582</DistanceMeters>
          </Trackpoint>
          <Trackpoint>
            <Time>2023-02-23T10:50:51.000Z</Time>
            <Position>
              <LatitudeDegrees>41.53494310565292835235595703125</LatitudeDegrees>
              <LongitudeDegrees>-4.5634525828063488006591796875</LongitudeDegrees>
            </Position>
            <AltitudeMeters>1246.5999755859375</AltitudeMeters>
            <DistanceMeters>10754.313803228</DistanceMeters>
          </Trackpoint>
          <Trackpoint>
            <Time>2023-02-23T10:50:56.000Z</Time>
            <Position>
              <LatitudeDegrees>41.534761302173137664794921875</LatitudeDegrees>
              <LongitudeDegrees>-4.5632923208177089691162109375</LongitudeDegrees>
            </Position>
            <AltitudeMeters>1245.4000244140625</AltitudeMeters>
            <DistanceMeters>10778.556978668</DistanceMeters>
          </Trackpoint>
          <Trackpoint>
            <Time>2023-02-23T10:51:02.000Z</Time>
            <Position>
              <LatitudeDegrees>41.53456541709601879119873046875</LatitudeDegrees>
              <LongitudeDegrees>-4.56301152706146240234375</LongitudeDegrees>
            </Position>
            <AltitudeMeters>1244.5999755859375</AltitudeMeters>
            <DistanceMeters>10810.535833044</DistanceMeters>
          </Trackpoint>
          <Trackpoint>
            <Time>2023-02-23T10:51:03.000Z</Time>
            <Position>
              <LatitudeDegrees>41.53454563580453395843505859375</LatitudeDegrees>
              <LongitudeDegrees>-4.562966935336589813232421875</LongitudeDegrees>
            </Position>
            <AltitudeMeters>1244.4000244140625</AltitudeMeters>
            <DistanceMeters>10814.855108207</DistanceMeters>
          </Trackpoint>
          <Trackpoint>
            <Time>2023-02-23T10:51:06.000Z</Time>
            <Position>
              <LatitudeDegrees>41.53451965190470218658447265625</LatitudeDegrees>
              <LongitudeDegrees>-4.56289350986480712890625</LongitudeDegrees>
            </Position>
            <AltitudeMeters>1244.199951171875</AltitudeMeters>
            <DistanceMeters>10821.621383961</DistanceMeters>
          </Trackpoint>
          <Trackpoint>
            <Time>2023-02-23T10:51:10.000Z</Time>
            <Position>
              <LatitudeDegrees>41.53451395221054553985595703125</LatitudeDegrees>
              <LongitudeDegrees>-4.56287138164043426513671875</LongitudeDegrees>
            </Position>
            <AltitudeMeters>1244.199951171875</AltitudeMeters>
            <DistanceMeters>10823.57348341</DistanceMeters>
          </Trackpoint>
          <Trackpoint>
            <Time>2023-02-23T10:51:12.000Z</Time>
            <Position>
              <LatitudeDegrees>41.53451059944927692413330078125</LatitudeDegrees>
              <LongitudeDegrees>-4.562877751886844635009765625</LongitudeDegrees>
            </Position>
            <AltitudeMeters>1244.4000244140625</AltitudeMeters>
            <DistanceMeters>10824.217985944</DistanceMeters>
          </Trackpoint>
          <Trackpoint>
            <Time>2023-02-23T10:51:21.000Z</Time>
            <Position>
              <LatitudeDegrees>41.53450842015445232391357421875</LatitudeDegrees>
              <LongitudeDegrees>-4.56289141438901424407958984375</LongitudeDegrees>
            </Position>
            <AltitudeMeters>1244</AltitudeMeters>
            <DistanceMeters>10825.381820755</DistanceMeters>
          </Trackpoint>
          <Trackpoint>
            <Time>2023-02-23T10:51:23.000Z</Time>
            <Position>
              <LatitudeDegrees>41.53450573794543743133544921875</LatitudeDegrees>
              <LongitudeDegrees>-4.5628921687602996826171875</LongitudeDegrees>
            </Position>
            <AltitudeMeters>1244</AltitudeMeters>
            <DistanceMeters>10825.711002949</DistanceMeters>
          </Trackpoint>
          <Trackpoint>
            <Time>2023-02-23T10:51:26.000Z</Time>
            <Position>
              <LatitudeDegrees>41.534500457346439361572265625</LatitudeDegrees>
              <LongitudeDegrees>-4.56289015710353851318359375</LongitudeDegrees>
            </Position>
            <AltitudeMeters>1244</AltitudeMeters>
            <DistanceMeters>10826.326846445</DistanceMeters>
          </Trackpoint>
          <Trackpoint>
            <Time>2023-02-23T10:51:29.000Z</Time>
            <Position>
              <LatitudeDegrees>41.53449953533709049224853515625</LatitudeDegrees>
              <LongitudeDegrees>-4.56289392895996570587158203125</LongitudeDegrees>
            </Position>
            <AltitudeMeters>1243.800048828125</AltitudeMeters>
            <DistanceMeters>10826.656028639</DistanceMeters>
          </Trackpoint>
          <Trackpoint>
            <Time>2023-02-23T10:51:38.000Z</Time>
            <Position>
              <LatitudeDegrees>41.5345095098018646240234375</LatitudeDegrees>
              <LongitudeDegrees>-4.5628950186073780059814453125</LongitudeDegrees>
            </Position>
            <AltitudeMeters>1244</AltitudeMeters>
            <DistanceMeters>10827.772339774</DistanceMeters>
          </Trackpoint>
          <Trackpoint>
            <Time>2023-02-23T10:51:43.000Z</Time>
            <Position>
              <LatitudeDegrees>41.53452786616981029510498046875</LatitudeDegrees>
              <LongitudeDegrees>-4.562919326126575469970703125</LongitudeDegrees>
            </Position>
            <AltitudeMeters>1244.199951171875</AltitudeMeters>
            <DistanceMeters>10830.649939485</DistanceMeters>
          </Trackpoint>
          <Trackpoint>
            <Time>2023-02-23T10:51:45.000Z</Time>
            <Position>
              <LatitudeDegrees>41.5345361642539501190185546875</LatitudeDegrees>
              <LongitudeDegrees>-4.562938101589679718017578125</LongitudeDegrees>
            </Position>
            <AltitudeMeters>1244.199951171875</AltitudeMeters>
            <DistanceMeters>10832.467907576</DistanceMeters>
          </Trackpoint>
          <Trackpoint>
            <Time>2023-02-23T10:51:56.000Z</Time>
            <Position>
              <LatitudeDegrees>41.5345187298953533172607421875</LatitudeDegrees>
              <LongitudeDegrees>-4.5629111118614673614501953125</LongitudeDegrees>
            </Position>
            <AltitudeMeters>1244.4000244140625</AltitudeMeters>
            <DistanceMeters>10835.438157513</DistanceMeters>
          </Trackpoint>
          <Trackpoint>
            <Time>2023-02-23T10:51:58.000Z</Time>
            <Position>
              <LatitudeDegrees>41.5345220826566219329833984375</LatitudeDegrees>
              <LongitudeDegrees>-4.56290516071021556854248046875</LongitudeDegrees>
            </Position>
            <AltitudeMeters>1244.5999755859375</AltitudeMeters>
            <DistanceMeters>10836.06128935</DistanceMeters>
          </Trackpoint>
          <Trackpoint>
            <Time>2023-02-23T10:52:01.000Z</Time>
            <Position>
              <LatitudeDegrees>41.534521915018558502197265625</LatitudeDegrees>
              <LongitudeDegrees>-4.56285000778734683990478515625</LongitudeDegrees>
            </Position>
            <AltitudeMeters>1244.5999755859375</AltitudeMeters>
            <DistanceMeters>10840.65610368</DistanceMeters>
          </Trackpoint>
          <Trackpoint>
            <Time>2023-02-23T10:52:06.000Z</Time>
            <Position>
              <LatitudeDegrees>41.53451981954276561737060546875</LatitudeDegrees>
              <LongitudeDegrees>-4.5626559667289257049560546875</LongitudeDegrees>
            </Position>
            <AltitudeMeters>1244.4000244140625</AltitudeMeters>
            <DistanceMeters>10856.824613601</DistanceMeters>
          </Trackpoint>
          <Trackpoint>
            <Time>2023-02-23T10:52:10.000Z</Time>
            <Position>
              <LatitudeDegrees>41.5345170535147190093994140625</LatitudeDegrees>
              <LongitudeDegrees>-4.56246276386082172393798828125</LongitudeDegrees>
            </Position>
            <AltitudeMeters>1244</AltitudeMeters>
            <DistanceMeters>10872.924281742</DistanceMeters>
          </Trackpoint>
          <Trackpoint>
            <Time>2023-02-23T10:52:12.000Z</Time>
            <Position>
              <LatitudeDegrees>41.53451428748667240142822265625</LatitudeDegrees>
              <LongitudeDegrees>-4.56237274222075939178466796875</LongitudeDegrees>
            </Position>
            <AltitudeMeters>1244.199951171875</AltitudeMeters>
            <DistanceMeters>10880.430790718</DistanceMeters>
          </Trackpoint>
          <Trackpoint>
            <Time>2023-02-23T10:52:14.000Z</Time>
            <Position>
              <LatitudeDegrees>41.53451495803892612457275390625</LatitudeDegrees>
              <LongitudeDegrees>-4.562278278172016143798828125</LongitudeDegrees>
            </Position>
            <AltitudeMeters>1244.199951171875</AltitudeMeters>
            <DistanceMeters>10888.30138945</DistanceMeters>
          </Trackpoint>
          <Trackpoint>
            <Time>2023-02-23T10:52:18.000Z</Time>
            <Position>
              <LatitudeDegrees>41.53452618978917598724365234375</LatitudeDegrees>
              <LongitudeDegrees>-4.56208021380007266998291015625</LongitudeDegrees>
            </Position>
            <AltitudeMeters>1244</AltitudeMeters>
            <DistanceMeters>10904.850503882</DistanceMeters>
          </Trackpoint>
          <Trackpoint>
            <Time>2023-02-23T10:52:23.000Z</Time>
            <Position>
              <LatitudeDegrees>41.53456038795411586761474609375</LatitudeDegrees>
              <LongitudeDegrees>-4.5618378929793834686279296875</LongitudeDegrees>
            </Position>
            <AltitudeMeters>1244.4000244140625</AltitudeMeters>
            <DistanceMeters>10925.395182831</DistanceMeters>
          </Trackpoint>
          <Trackpoint>
            <Time>2023-02-23T10:52:24.000Z</Time>
            <Position>
              <LatitudeDegrees>41.5345676802098751068115234375</LatitudeDegrees>
              <LongitudeDegrees>-4.56179187633097171783447265625</LongitudeDegrees>
            </Position>
            <AltitudeMeters>1244.4000244140625</AltitudeMeters>
            <DistanceMeters>10929.313234637</DistanceMeters>
          </Trackpoint>
          <Trackpoint>
            <Time>2023-02-23T10:52:25.000Z</Time>
            <Position>
              <LatitudeDegrees>41.5345760621130466461181640625</LatitudeDegrees>
              <LongitudeDegrees>-4.56174552440643310546875</LongitudeDegrees>
            </Position>
            <AltitudeMeters>1244.5999755859375</AltitudeMeters>
            <DistanceMeters>10933.285078485</DistanceMeters>
          </Trackpoint>
          <Trackpoint>
            <Time>2023-02-23T10:52:27.000Z</Time>
            <Position>
              <LatitudeDegrees>41.53459089808166027069091796875</LatitudeDegrees>
              <LongitudeDegrees>-4.56165365874767303466796875</LongitudeDegrees>
            </Position>
            <AltitudeMeters>1244.4000244140625</AltitudeMeters>
            <DistanceMeters>10941.115418136</DistanceMeters>
          </Trackpoint>
          <Trackpoint>
            <Time>2023-02-23T10:52:32.000Z</Time>
            <Position>
              <LatitudeDegrees>41.53463213704526424407958984375</LatitudeDegrees>
              <LongitudeDegrees>-4.56142173148691654205322265625</LongitudeDegrees>
            </Position>
            <AltitudeMeters>1244.4000244140625</AltitudeMeters>
            <DistanceMeters>10960.976228775</DistanceMeters>
          </Trackpoint>
          <Trackpoint>
            <Time>2023-02-23T10:52:36.000Z</Time>
            <Position>
              <LatitudeDegrees>41.534659378230571746826171875</LatitudeDegrees>
              <LongitudeDegrees>-4.561257027089595794677734375</LongitudeDegrees>
            </Position>
            <AltitudeMeters>1244.199951171875</AltitudeMeters>
            <DistanceMeters>10975.029905588</DistanceMeters>
          </Trackpoint>
          <Trackpoint>
            <Time>2023-02-23T10:52:37.000Z</Time>
            <Position>
              <LatitudeDegrees>41.53466918505728244781494140625</LatitudeDegrees>
              <LongitudeDegrees>-4.56121687777340412139892578125</LongitudeDegrees>
            </Position>
            <AltitudeMeters>1244.199951171875</AltitudeMeters>
            <DistanceMeters>10978.549744346</DistanceMeters>
          </Trackpoint>
          <Trackpoint>
            <Time>2023-02-23T10:52:39.000Z</Time>
            <Position>
              <LatitudeDegrees>41.5346917323768138885498046875</LatitudeDegrees>
              <LongitudeDegrees>-4.56114261411130428314208984375</LongitudeDegrees>
            </Position>
            <AltitudeMeters>1244.199951171875</AltitudeMeters>
            <DistanceMeters>10985.227357504</DistanceMeters>
          </Trackpoint>
          <Trackpoint>
            <Time>2023-02-23T10:52:48.000Z</Time>
            <Position>
              <LatitudeDegrees>41.53477848507463932037353515625</LatitudeDegrees>
              <LongitudeDegrees>-4.5607750676572322845458984375</LongitudeDegrees>
            </Position>
            <AltitudeMeters>1244.4000244140625</AltitudeMeters>
            <DistanceMeters>11017.335982943</DistanceMeters>
          </Trackpoint>
          <Trackpoint>
            <Time>2023-02-23T10:52:49.000Z</Time>
            <Position>
              <LatitudeDegrees>41.53478586114943027496337890625</LatitudeDegrees>
              <LongitudeDegrees>-4.56073475070297718048095703125</LongitudeDegrees>
            </Position>
            <AltitudeMeters>1244.5999755859375</AltitudeMeters>
            <DistanceMeters>11020.793702019</DistanceMeters>
          </Trackpoint>
          <Trackpoint>
            <Time>2023-02-23T10:52:54.000Z</Time>
            <Position>
              <LatitudeDegrees>41.53483070433139801025390625</LatitudeDegrees>
              <LongitudeDegrees>-4.56052252091467380523681640625</LongitudeDegrees>
            </Position>
            <AltitudeMeters>1245.199951171875</AltitudeMeters>
            <DistanceMeters>11039.166079587</DistanceMeters>
          </Trackpoint>
          <Trackpoint>
            <Time>2023-02-23T10:52:57.000Z</Time>
            <Position>
              <LatitudeDegrees>41.534858532249927520751953125</LatitudeDegrees>
              <LongitudeDegrees>-4.56040240824222564697265625</LongitudeDegrees>
            </Position>
            <AltitudeMeters>1245.4000244140625</AltitudeMeters>
            <DistanceMeters>11049.641454947</DistanceMeters>
          </Trackpoint>
          <Trackpoint>
            <Time>2023-02-23T10:52:58.000Z</Time>
            <Position>
              <LatitudeDegrees>41.53486783616244792938232421875</LatitudeDegrees>
              <LongitudeDegrees>-4.56036443822085857391357421875</LongitudeDegrees>
            </Position>
            <AltitudeMeters>1245.5999755859375</AltitudeMeters>
            <DistanceMeters>11052.970103892</DistanceMeters>
          </Trackpoint>
          <Trackpoint>
            <Time>2023-02-23T10:52:59.000Z</Time>
            <Position>
              <LatitudeDegrees>41.534879319369792938232421875</LatitudeDegrees>
              <LongitudeDegrees>-4.56032822839915752410888671875</LongitudeDegrees>
            </Position>
            <AltitudeMeters>1245.5999755859375</AltitudeMeters>
            <DistanceMeters>11056.246803587</DistanceMeters>
          </Trackpoint>
          <Trackpoint>
            <Time>2023-02-23T10:53:04.000Z</Time>
            <Position>
              <LatitudeDegrees>41.5349198877811431884765625</LatitudeDegrees>
              <LongitudeDegrees>-4.5601722411811351776123046875</LongitudeDegrees>
            </Position>
            <AltitudeMeters>1245.5999755859375</AltitudeMeters>
            <DistanceMeters>11070.005017949</DistanceMeters>
          </Trackpoint>
          <Trackpoint>
            <Time>2023-02-23T10:53:12.000Z</Time>
            <Position>
              <LatitudeDegrees>41.53498736210167407989501953125</LatitudeDegrees>
              <LongitudeDegrees>-4.559919275343418121337890625</LongitudeDegrees>
            </Position>
            <AltitudeMeters>1246.199951171875</AltitudeMeters>
            <DistanceMeters>11092.379319679</DistanceMeters>
          </Trackpoint>
          <Trackpoint>
            <Time>2023-02-23T10:53:19.000Z</Time>
            <Position>
              <LatitudeDegrees>41.53501837514340877532958984375</LatitudeDegrees>
              <LongitudeDegrees>-4.55965750850737094879150390625</LongitudeDegrees>
            </Position>
            <AltitudeMeters>1246</AltitudeMeters>
            <DistanceMeters>11114.459896831</DistanceMeters>
          </Trackpoint>
          <Trackpoint>
            <Time>2023-02-23T10:53:24.000Z</Time>
            <Position>
              <LatitudeDegrees>41.5350176207721233367919921875</LatitudeDegrees>
              <LongitudeDegrees>-4.5593999326229095458984375</LongitudeDegrees>
            </Position>
            <AltitudeMeters>1245.4000244140625</AltitudeMeters>
            <DistanceMeters>11135.919739993</DistanceMeters>
          </Trackpoint>
          <Trackpoint>
            <Time>2023-02-23T10:53:25.000Z</Time>
            <Position>
              <LatitudeDegrees>41.53501535765826702117919921875</LatitudeDegrees>
              <LongitudeDegrees>-4.55932474695146083831787109375</LongitudeDegrees>
            </Position>
            <AltitudeMeters>1245.199951171875</AltitudeMeters>
            <DistanceMeters>11142.188622883</DistanceMeters>
          </Trackpoint>
          <Trackpoint>
            <Time>2023-02-23T10:53:28.000Z</Time>
            <Position>
              <LatitudeDegrees>41.53502139262855052947998046875</LatitudeDegrees>
              <LongitudeDegrees>-4.5590646564960479736328125</LongitudeDegrees>
            </Position>
            <AltitudeMeters>1244.4000244140625</AltitudeMeters>
            <DistanceMeters>11163.868463263</DistanceMeters>
          </Trackpoint>
          <Trackpoint>
            <Time>2023-02-23T10:53:31.000Z</Time>
            <Position>
              <LatitudeDegrees>41.535043604671955108642578125</LatitudeDegrees>
              <LongitudeDegrees>-4.5588086731731891632080078125</LongitudeDegrees>
            </Position>
            <AltitudeMeters>1243.199951171875</AltitudeMeters>
            <DistanceMeters>11185.338613293</DistanceMeters>
          </Trackpoint>
          <Trackpoint>
            <Time>2023-02-23T10:53:36.000Z</Time>
            <Position>
              <LatitudeDegrees>41.53507855720818042755126953125</LatitudeDegrees>
              <LongitudeDegrees>-4.55849074758589267730712890625</LongitudeDegrees>
            </Position>
            <AltitudeMeters>1243.4000244140625</AltitudeMeters>
            <DistanceMeters>11212.110861754</DistanceMeters>
          </Trackpoint>
          <Trackpoint>
            <Time>2023-02-23T10:53:43.000Z</Time>
            <Position>
              <LatitudeDegrees>41.53510403819382190704345703125</LatitudeDegrees>
              <LongitudeDegrees>-4.55825303681194782257080078125</LongitudeDegrees>
            </Position>
            <AltitudeMeters>1244.199951171875</AltitudeMeters>
            <DistanceMeters>11232.117539851</DistanceMeters>
          </Trackpoint>
          <Trackpoint>
            <Time>2023-02-23T10:53:50.000Z</Time>
            <Position>
              <LatitudeDegrees>41.5351198799908161163330078125</LatitudeDegrees>
              <LongitudeDegrees>-4.55807425081729888916015625</LongitudeDegrees>
            </Position>
            <AltitudeMeters>1244.800048828125</AltitudeMeters>
            <DistanceMeters>11247.117319338</DistanceMeters>
          </Trackpoint>
          <Trackpoint>
            <Time>2023-02-23T10:53:51.000Z</Time>
            <Position>
              <LatitudeDegrees>41.535119377076625823974609375</LatitudeDegrees>
              <LongitudeDegrees>-4.558051787316799163818359375</LongitudeDegrees>
            </Position>
            <AltitudeMeters>1245</AltitudeMeters>
            <DistanceMeters>11248.989128533</DistanceMeters>
          </Trackpoint>
          <Trackpoint>
            <Time>2023-02-23T10:53:52.000Z</Time>
            <Position>
              <LatitudeDegrees>41.53512080200016498565673828125</LatitudeDegrees>
              <LongitudeDegrees>-4.558031000196933746337890625</LongitudeDegrees>
            </Position>
            <AltitudeMeters>1245.199951171875</AltitudeMeters>
            <DistanceMeters>11250.728402982</DistanceMeters>
          </Trackpoint>
          <Trackpoint>
            <Time>2023-02-23T10:53:53.000Z</Time>
            <Position>
              <LatitudeDegrees>41.535122394561767578125</LatitudeDegrees>
              <LongitudeDegrees>-4.55801029689610004425048828125</LongitudeDegrees>
            </Position>
            <AltitudeMeters>1245.199951171875</AltitudeMeters>
            <DistanceMeters>11252.459872121</DistanceMeters>
          </Trackpoint>
          <Trackpoint>
            <Time>2023-02-23T10:53:54.000Z</Time>
            <Position>
              <LatitudeDegrees>41.535125412046909332275390625</LatitudeDegrees>
              <LongitudeDegrees>-4.55798800103366374969482421875</LongitudeDegrees>
            </Position>
            <AltitudeMeters>1245.4000244140625</AltitudeMeters>
            <DistanceMeters>11254.346098544</DistanceMeters>
          </Trackpoint>
          <Trackpoint>
            <Time>2023-02-23T10:53:57.000Z</Time>
            <Position>
              <LatitudeDegrees>41.5351111628115177154541015625</LatitudeDegrees>
              <LongitudeDegrees>-4.55792245455086231231689453125</LongitudeDegrees>
            </Position>
            <AltitudeMeters>1246</AltitudeMeters>
            <DistanceMeters>11260.033429536</DistanceMeters>
          </Trackpoint>
          <Trackpoint>
            <Time>2023-02-23T10:53:59.000Z</Time>
            <Position>
              <LatitudeDegrees>41.5351022779941558837890625</LatitudeDegrees>
              <LongitudeDegrees>-4.55788741819560527801513671875</LongitudeDegrees>
            </Position>
            <AltitudeMeters>1246.5999755859375</AltitudeMeters>
            <DistanceMeters>11263.115578206</DistanceMeters>
          </Trackpoint>
          <Trackpoint>
            <Time>2023-02-23T10:54:02.000Z</Time>
            <Position>
              <LatitudeDegrees>41.53510068543255329132080078125</LatitudeDegrees>
              <LongitudeDegrees>-4.55782212316989898681640625</LongitudeDegrees>
            </Position>
            <AltitudeMeters>1247.4000244140625</AltitudeMeters>
            <DistanceMeters>11268.557880176</DistanceMeters>
          </Trackpoint>
          <Trackpoint>
            <Time>2023-02-23T10:54:04.000Z</Time>
            <Position>
              <LatitudeDegrees>41.53509414754807949066162109375</LatitudeDegrees>
              <LongitudeDegrees>-4.55778365023434162139892578125</LongitudeDegrees>
            </Position>
            <AltitudeMeters>1247.5999755859375</AltitudeMeters>
            <DistanceMeters>11271.846957794</DistanceMeters>
          </Trackpoint>
          <Trackpoint>
            <Time>2023-02-23T10:54:05.000Z</Time>
            <Position>
              <LatitudeDegrees>41.5350888669490814208984375</LatitudeDegrees>
              <LongitudeDegrees>-4.5577636174857616424560546875</LongitudeDegrees>
            </Position>
            <AltitudeMeters>1247.800048828125</AltitudeMeters>
            <DistanceMeters>11273.619658165</DistanceMeters>
          </Trackpoint>
          <Trackpoint>
            <Time>2023-02-23T10:54:08.000Z</Time>
            <Position>
              <LatitudeDegrees>41.53507252223789691925048828125</LatitudeDegrees>
              <LongitudeDegrees>-4.5576975680887699127197265625</LongitudeDegrees>
            </Position>
            <AltitudeMeters>1247.800048828125</AltitudeMeters>
            <DistanceMeters>11279.415508781</DistanceMeters>
          </Trackpoint>
          <Trackpoint>
            <Time>2023-02-23T10:54:13.000Z</Time>
            <Position>
              <LatitudeDegrees>41.53503413312137126922607421875</LatitudeDegrees>
              <LongitudeDegrees>-4.55759220756590366363525390625</LongitudeDegrees>
            </Position>
            <AltitudeMeters>1248.4000244140625</AltitudeMeters>
            <DistanceMeters>11289.178781129</DistanceMeters>
          </Trackpoint>
          <Trackpoint>
            <Time>2023-02-23T10:54:19.000Z</Time>
            <Position>
              <LatitudeDegrees>41.53500965796411037445068359375</LatitudeDegrees>
              <LongitudeDegrees>-4.5574642159044742584228515625</LongitudeDegrees>
            </Position>
            <AltitudeMeters>1247.800048828125</AltitudeMeters>
            <DistanceMeters>11300.18507367</DistanceMeters>
          </Trackpoint>
          <Trackpoint>
            <Time>2023-02-23T10:54:25.000Z</Time>
            <Position>
              <LatitudeDegrees>41.5349586121737957000732421875</LatitudeDegrees>
              <LongitudeDegrees>-4.55729783512651920318603515625</LongitudeDegrees>
            </Position>
            <AltitudeMeters>1248.4000244140625</AltitudeMeters>
            <DistanceMeters>11315.166179101</DistanceMeters>
          </Trackpoint>
          <Trackpoint>
            <Time>2023-02-23T10:54:27.000Z</Time>
            <Position>
              <LatitudeDegrees>41.53494201600551605224609375</LatitudeDegrees>
              <LongitudeDegrees>-4.5572489686310291290283203125</LongitudeDegrees>
            </Position>
            <AltitudeMeters>1248.5999755859375</AltitudeMeters>
            <DistanceMeters>11319.637486432</DistanceMeters>
          </Trackpoint>
          <Trackpoint>
            <Time>2023-02-23T10:54:31.000Z</Time>
            <Position>
              <LatitudeDegrees>41.534910500049591064453125</LatitudeDegrees>
              <LongitudeDegrees>-4.5571426860988140106201171875</LongitudeDegrees>
            </Position>
            <AltitudeMeters>1248.5999755859375</AltitudeMeters>
            <DistanceMeters>11329.1610408</DistanceMeters>
          </Trackpoint>
          <Trackpoint>
            <Time>2023-02-23T10:54:34.000Z</Time>
            <Position>
              <LatitudeDegrees>41.53486783616244792938232421875</LatitudeDegrees>
              <LongitudeDegrees>-4.557062722742557525634765625</LongitudeDegrees>
            </Position>
            <AltitudeMeters>1248.5999755859375</AltitudeMeters>
            <DistanceMeters>11337.342173155</DistanceMeters>
          </Trackpoint>
          <Trackpoint>
            <Time>2023-02-23T10:54:36.000Z</Time>
            <Position>
              <LatitudeDegrees>41.5348375774919986724853515625</LatitudeDegrees>
              <LongitudeDegrees>-4.5570087432861328125</LongitudeDegrees>
            </Position>
            <AltitudeMeters>1248.5999755859375</AltitudeMeters>
            <DistanceMeters>11342.960815985</DistanceMeters>
          </Trackpoint>
          <Trackpoint>
            <Time>2023-02-23T10:54:40.000Z</Time>
            <Position>
              <LatitudeDegrees>41.5347597934305667877197265625</LatitudeDegrees>
              <LongitudeDegrees>-4.55686231143772602081298828125</LongitudeDegrees>
            </Position>
            <AltitudeMeters>1248.800048828125</AltitudeMeters>
            <DistanceMeters>11357.920809788</DistanceMeters>
          </Trackpoint>
          <Trackpoint>
            <Time>2023-02-23T10:54:42.000Z</Time>
            <Position>
              <LatitudeDegrees>41.5347286127507686614990234375</LatitudeDegrees>
              <LongitudeDegrees>-4.55678905360400676727294921875</LongitudeDegrees>
            </Position>
            <AltitudeMeters>1249</AltitudeMeters>
            <DistanceMeters>11364.942505978</DistanceMeters>
          </Trackpoint>
          <Trackpoint>
            <Time>2023-02-23T10:54:48.000Z</Time>
            <Position>
              <LatitudeDegrees>41.534664742648601531982421875</LatitudeDegrees>
              <LongitudeDegrees>-4.5565894804894924163818359375</LongitudeDegrees>
            </Position>
            <AltitudeMeters>1249</AltitudeMeters>
            <DistanceMeters>11383.026067251</DistanceMeters>
          </Trackpoint>
          <Trackpoint>
            <Time>2023-02-23T10:54:55.000Z</Time>
            <Position>
              <LatitudeDegrees>41.53461252339184284210205078125</LatitudeDegrees>
              <LongitudeDegrees>-4.556343890726566314697265625</LongitudeDegrees>
            </Position>
            <AltitudeMeters>1248.5999755859375</AltitudeMeters>
            <DistanceMeters>11404.296985902</DistanceMeters>
          </Trackpoint>
          <Trackpoint>
            <Time>2023-02-23T10:55:00.000Z</Time>
            <Position>
              <LatitudeDegrees>41.53455418534576892852783203125</LatitudeDegrees>
              <LongitudeDegrees>-4.55620734952390193939208984375</LongitudeDegrees>
            </Position>
            <AltitudeMeters>1248.5999755859375</AltitudeMeters>
            <DistanceMeters>11417.395859231</DistanceMeters>
          </Trackpoint>
          <Trackpoint>
            <Time>2023-02-23T10:55:01.000Z</Time>
            <Position>
              <LatitudeDegrees>41.53454010374844074249267578125</LatitudeDegrees>
              <LongitudeDegrees>-4.55617181025445461273193359375</LongitudeDegrees>
            </Position>
            <AltitudeMeters>1248.5999755859375</AltitudeMeters>
            <DistanceMeters>11420.746140566</DistanceMeters>
          </Trackpoint>
          <Trackpoint>
            <Time>2023-02-23T10:55:07.000Z</Time>
            <Position>
              <LatitudeDegrees>41.5344815142452716827392578125</LatitudeDegrees>
              <LongitudeDegrees>-4.55597936175763607025146484375</LongitudeDegrees>
            </Position>
            <AltitudeMeters>1248.800048828125</AltitudeMeters>
            <DistanceMeters>11438.055615902</DistanceMeters>
          </Trackpoint>
          <Trackpoint>
            <Time>2023-02-23T10:55:10.000Z</Time>
            <Position>
              <LatitudeDegrees>41.53445594944059848785400390625</LatitudeDegrees>
              <LongitudeDegrees>-4.5558984763920307159423828125</LongitudeDegrees>
            </Position>
            <AltitudeMeters>1249</AltitudeMeters>
            <DistanceMeters>11445.370204266</DistanceMeters>
          </Trackpoint>
          <Trackpoint>
            <Time>2023-02-23T10:55:12.000Z</Time>
            <Position>
              <LatitudeDegrees>41.53444086201488971710205078125</LatitudeDegrees>
              <LongitudeDegrees>-4.5558431558310985565185546875</LongitudeDegrees>
            </Position>
            <AltitudeMeters>1249</AltitudeMeters>
            <DistanceMeters>11450.274908502</DistanceMeters>
          </Trackpoint>
          <Trackpoint>
            <Time>2023-02-23T10:55:14.000Z</Time>
            <Position>
              <LatitudeDegrees>41.53442032635211944580078125</LatitudeDegrees>
              <LongitudeDegrees>-4.5557767711579799652099609375</LongitudeDegrees>
            </Position>
            <AltitudeMeters>1249.199951171875</AltitudeMeters>
            <DistanceMeters>11456.260082957</DistanceMeters>
          </Trackpoint>
          <Trackpoint>
            <Time>2023-02-23T10:55:17.000Z</Time>
            <Position>
              <LatitudeDegrees>41.53439157642424106597900390625</LatitudeDegrees>
              <LongitudeDegrees>-4.55568565987050533294677734375</LongitudeDegrees>
            </Position>
            <AltitudeMeters>1249.5999755859375</AltitudeMeters>
            <DistanceMeters>11464.497863269</DistanceMeters>
          </Trackpoint>
          <Trackpoint>
            <Time>2023-02-23T10:55:23.000Z</Time>
            <Position>
              <LatitudeDegrees>41.534349918365478515625</LatitudeDegrees>
              <LongitudeDegrees>-4.55547988414764404296875</LongitudeDegrees>
            </Position>
            <AltitudeMeters>1250.4000244140625</AltitudeMeters>
            <DistanceMeters>11482.257946889</DistanceMeters>
          </Trackpoint>
          <Trackpoint>
            <Time>2023-02-23T10:55:26.000Z</Time>
            <Position>
              <LatitudeDegrees>41.53434681706130504608154296875</LatitudeDegrees>
              <LongitudeDegrees>-4.55538927577435970306396484375</LongitudeDegrees>
            </Position>
            <AltitudeMeters>1250.5999755859375</AltitudeMeters>
            <DistanceMeters>11489.814811545</DistanceMeters>
          </Trackpoint>
          <Trackpoint>
            <Time>2023-02-23T10:55:28.000Z</Time>
            <Position>
              <LatitudeDegrees>41.53434044681489467620849609375</LatitudeDegrees>
              <LongitudeDegrees>-4.555336050689220428466796875</LongitudeDegrees>
            </Position>
            <AltitudeMeters>1250.800048828125</AltitudeMeters>
            <DistanceMeters>11494.304258129</DistanceMeters>
          </Trackpoint>
          <Trackpoint>
            <Time>2023-02-23T10:55:30.000Z</Time>
            <Position>
              <LatitudeDegrees>41.534336507320404052734375</LatitudeDegrees>
              <LongitudeDegrees>-4.55529011785984039306640625</LongitudeDegrees>
            </Position>
            <AltitudeMeters>1251</AltitudeMeters>
            <DistanceMeters>11498.156064925</DistanceMeters>
          </Trackpoint>
          <Trackpoint>
            <Time>2023-02-23T10:55:32.000Z</Time>
            <Position>
              <LatitudeDegrees>41.53433206491172313690185546875</LatitudeDegrees>
              <LongitudeDegrees>-4.55525399185717105865478515625</LongitudeDegrees>
            </Position>
            <AltitudeMeters>1251.199951171875</AltitudeMeters>
            <DistanceMeters>11501.205815527</DistanceMeters>
          </Trackpoint>
          <Trackpoint>
            <Time>2023-02-23T10:55:36.000Z</Time>
            <Position>
              <LatitudeDegrees>41.53431680984795093536376953125</LatitudeDegrees>
              <LongitudeDegrees>-4.55515592359006404876708984375</LongitudeDegrees>
            </Position>
            <AltitudeMeters>1251.5999755859375</AltitudeMeters>
            <DistanceMeters>11509.550870922</DistanceMeters>
          </Trackpoint>
          <Trackpoint>
            <Time>2023-02-23T10:55:41.000Z</Time>
            <Position>
              <LatitudeDegrees>41.5342974476516246795654296875</LatitudeDegrees>
              <LongitudeDegrees>-4.555036313831806182861328125</LongitudeDegrees>
            </Position>
            <AltitudeMeters>1251.5999755859375</AltitudeMeters>
            <DistanceMeters>11519.747108958</DistanceMeters>
          </Trackpoint>
          <Trackpoint>
            <Time>2023-02-23T10:55:44.000Z</Time>
            <Position>
              <LatitudeDegrees>41.5342823602259159088134765625</LatitudeDegrees>
              <LongitudeDegrees>-4.5549583621323108673095703125</LongitudeDegrees>
            </Position>
            <AltitudeMeters>1252</AltitudeMeters>
            <DistanceMeters>11526.455752711</DistanceMeters>
          </Trackpoint>
          <Trackpoint>
            <Time>2023-02-23T10:55:52.000Z</Time>
            <Position>
              <LatitudeDegrees>41.53425545431673526763916015625</LatitudeDegrees>
              <LongitudeDegrees>-4.5547501556575298309326171875</LongitudeDegrees>
            </Position>
            <AltitudeMeters>1252.4000244140625</AltitudeMeters>
            <DistanceMeters>11544.059563759</DistanceMeters>
          </Trackpoint>
          <Trackpoint>
            <Time>2023-02-23T10:55:55.000Z</Time>
            <Position>
              <LatitudeDegrees>41.53423248790204524993896484375</LatitudeDegrees>
              <LongitudeDegrees>-4.55465887673199176788330078125</LongitudeDegrees>
            </Position>
            <AltitudeMeters>1253</AltitudeMeters>
            <DistanceMeters>11552.082430135</DistanceMeters>
          </Trackpoint>
          <Trackpoint>
            <Time>2023-02-23T10:55:57.000Z</Time>
            <Position>
              <LatitudeDegrees>41.5342216752469539642333984375</LatitudeDegrees>
              <LongitudeDegrees>-4.5546053163707256317138671875</LongitudeDegrees>
            </Position>
            <AltitudeMeters>1253.199951171875</AltitudeMeters>
            <DistanceMeters>11556.704676436</DistanceMeters>
          </Trackpoint>
          <Trackpoint>
            <Time>2023-02-23T10:56:00.000Z</Time>
            <Position>
              <LatitudeDegrees>41.5342049114406108856201171875</LatitudeDegrees>
              <LongitudeDegrees>-4.5545228384435176849365234375</LongitudeDegrees>
            </Position>
            <AltitudeMeters>1253.199951171875</AltitudeMeters>
            <DistanceMeters>11563.824707978</DistanceMeters>
          </Trackpoint>
          <Trackpoint>
            <Time>2023-02-23T10:56:03.000Z</Time>
            <Position>
              <LatitudeDegrees>41.53418621979653835296630859375</LatitudeDegrees>
              <LongitudeDegrees>-4.5544437132775783538818359375</LongitudeDegrees>
            </Position>
            <AltitudeMeters>1253.4000244140625</AltitudeMeters>
            <DistanceMeters>11570.737534067</DistanceMeters>
          </Trackpoint>
          <Trackpoint>
            <Time>2023-02-23T10:56:05.000Z</Time>
            <Position>
              <LatitudeDegrees>41.53416610322892665863037109375</LatitudeDegrees>
              <LongitudeDegrees>-4.5543793402612209320068359375</LongitudeDegrees>
            </Position>
            <AltitudeMeters>1253.4000244140625</AltitudeMeters>
            <DistanceMeters>11576.549720917</DistanceMeters>
          </Trackpoint>
          <Trackpoint>
            <Time>2023-02-23T10:56:13.000Z</Time>
            <Position>
              <LatitudeDegrees>41.5341184101998805999755859375</LatitudeDegrees>
              <LongitudeDegrees>-4.55416266806423664093017578125</LongitudeDegrees>
            </Position>
            <AltitudeMeters>1253.800048828125</AltitudeMeters>
            <DistanceMeters>11595.366450106</DistanceMeters>
          </Trackpoint>
          <Trackpoint>
            <Time>2023-02-23T10:56:16.000Z</Time>
            <Position>
              <LatitudeDegrees>41.53410248458385467529296875</LatitudeDegrees>
              <LongitudeDegrees>-4.55407314933836460113525390625</LongitudeDegrees>
            </Position>
            <AltitudeMeters>1254</AltitudeMeters>
            <DistanceMeters>11603.032461943</DistanceMeters>
          </Trackpoint>
          <Trackpoint>
            <Time>2023-02-23T10:56:19.000Z</Time>
            <Position>
              <LatitudeDegrees>41.5340868942439556121826171875</LatitudeDegrees>
              <LongitudeDegrees>-4.553992934525012969970703125</LongitudeDegrees>
            </Position>
            <AltitudeMeters>1254.199951171875</AltitudeMeters>
            <DistanceMeters>11609.937445913</DistanceMeters>
          </Trackpoint>
          <Trackpoint>
            <Time>2023-02-23T10:56:22.000Z</Time>
            <Position>
              <LatitudeDegrees>41.53406015597283840179443359375</LatitudeDegrees>
              <LongitudeDegrees>-4.55393836833536624908447265625</LongitudeDegrees>
            </Position>
            <AltitudeMeters>1254.5999755859375</AltitudeMeters>
            <DistanceMeters>11615.371445359</DistanceMeters>
          </Trackpoint>
          <Trackpoint>
            <Time>2023-02-23T10:56:23.000Z</Time>
            <Position>
              <LatitudeDegrees>41.53404892422258853912353515625</LatitudeDegrees>
              <LongitudeDegrees>-4.5539340935647487640380859375</LongitudeDegrees>
            </Position>
            <AltitudeMeters>1254.800048828125</AltitudeMeters>
            <DistanceMeters>11616.674386022</DistanceMeters>
          </Trackpoint>
          <Trackpoint>
            <Time>2023-02-23T10:56:24.000Z</Time>
            <Position>
              <LatitudeDegrees>41.53403685428202152252197265625</LatitudeDegrees>
              <LongitudeDegrees>-4.5539414696395397186279296875</LongitudeDegrees>
            </Position>
            <AltitudeMeters>1254.800048828125</AltitudeMeters>
            <DistanceMeters>11618.152654772</DistanceMeters>
          </Trackpoint>
          <Trackpoint>
            <Time>2023-02-23T10:56:27.000Z</Time>
            <Position>
              <LatitudeDegrees>41.53401891700923442840576171875</LatitudeDegrees>
              <LongitudeDegrees>-4.554019086062908172607421875</LongitudeDegrees>
            </Position>
            <AltitudeMeters>1255</AltitudeMeters>
            <DistanceMeters>11624.920932087</DistanceMeters>
          </Trackpoint>
          <Trackpoint>
            <Time>2023-02-23T10:56:29.000Z</Time>
            <Position>
              <LatitudeDegrees>41.5340127982199192047119140625</LatitudeDegrees>
              <LongitudeDegrees>-4.5540879853069782257080078125</LongitudeDegrees>
            </Position>
            <AltitudeMeters>1254.800048828125</AltitudeMeters>
            <DistanceMeters>11630.701962524</DistanceMeters>
          </Trackpoint>
          <Trackpoint>
            <Time>2023-02-23T10:56:34.000Z</Time>
            <Position>
              <LatitudeDegrees>41.53397776186466217041015625</LatitudeDegrees>
              <LongitudeDegrees>-4.55425553955137729644775390625</LongitudeDegrees>
            </Position>
            <AltitudeMeters>1254.800048828125</AltitudeMeters>
            <DistanceMeters>11645.196573886</DistanceMeters>
          </Trackpoint>
          <Trackpoint>
            <Time>2023-02-23T10:56:42.000Z</Time>
            <Position>
              <LatitudeDegrees>41.5338991396129131317138671875</LatitudeDegrees>
              <LongitudeDegrees>-4.55452568829059600830078125</LongitudeDegrees>
            </Position>
            <AltitudeMeters>1253.5999755859375</AltitudeMeters>
            <DistanceMeters>11669.345702171</DistanceMeters>
          </Trackpoint>
          <Trackpoint>
            <Time>2023-02-23T10:56:49.000Z</Time>
            <Position>
              <LatitudeDegrees>41.5338746644556522369384765625</LatitudeDegrees>
              <LongitudeDegrees>-4.55478527583181858062744140625</LongitudeDegrees>
            </Position>
            <AltitudeMeters>1253</AltitudeMeters>
            <DistanceMeters>11691.144341638</DistanceMeters>
          </Trackpoint>
          <Trackpoint>
            <Time>2023-02-23T10:56:50.000Z</Time>
            <Position>
              <LatitudeDegrees>41.53387206606566905975341796875</LatitudeDegrees>
              <LongitudeDegrees>-4.55482265911996364593505859375</LongitudeDegrees>
            </Position>
            <AltitudeMeters>1253</AltitudeMeters>
            <DistanceMeters>11694.271572488</DistanceMeters>
          </Trackpoint>
          <Trackpoint>
            <Time>2023-02-23T10:56:51.000Z</Time>
            <Position>
              <LatitudeDegrees>41.5338713116943836212158203125</LatitudeDegrees>
              <LongitudeDegrees>-4.5548597909510135650634765625</LongitudeDegrees>
            </Position>
            <AltitudeMeters>1253</AltitudeMeters>
            <DistanceMeters>11697.368335505</DistanceMeters>
          </Trackpoint>
          <Trackpoint>
            <Time>2023-02-23T10:56:53.000Z</Time>
            <Position>
              <LatitudeDegrees>41.53387248516082763671875</LatitudeDegrees>
              <LongitudeDegrees>-4.55493480898439884185791015625</LongitudeDegrees>
            </Position>
            <AltitudeMeters>1252.800048828125</AltitudeMeters>
            <DistanceMeters>11703.620631158</DistanceMeters>
          </Trackpoint>
          <Trackpoint>
            <Time>2023-02-23T10:56:56.000Z</Time>
            <Position>
              <LatitudeDegrees>41.53386251069605350494384765625</LatitudeDegrees>
              <LongitudeDegrees>-4.5550413429737091064453125</LongitudeDegrees>
            </Position>
            <AltitudeMeters>1252.4000244140625</AltitudeMeters>
            <DistanceMeters>11712.566274648</DistanceMeters>
          </Trackpoint>
          <Trackpoint>
            <Time>2023-02-23T10:57:02.000Z</Time>
            <Position>
              <LatitudeDegrees>41.5338416397571563720703125</LatitudeDegrees>
              <LongitudeDegrees>-4.55522767268121242523193359375</LongitudeDegrees>
            </Position>
            <AltitudeMeters>1252</AltitudeMeters>
            <DistanceMeters>11728.26352587</DistanceMeters>
          </Trackpoint>
          <Trackpoint>
            <Time>2023-02-23T10:57:04.000Z</Time>
            <Position>
              <LatitudeDegrees>41.5338327549397945404052734375</LatitudeDegrees>
              <LongitudeDegrees>-4.55528584308922290802001953125</LongitudeDegrees>
            </Position>
            <AltitudeMeters>1252</AltitudeMeters>
            <DistanceMeters>11733.210394289</DistanceMeters>
          </Trackpoint>
          <Trackpoint>
            <Time>2023-02-23T10:57:08.000Z</Time>
            <Position>
              <LatitudeDegrees>41.53379830531775951385498046875</LatitudeDegrees>
              <LongitudeDegrees>-4.55538961105048656463623046875</LongitudeDegrees>
            </Position>
            <AltitudeMeters>1251.199951171875</AltitudeMeters>
            <DistanceMeters>11742.668297717</DistanceMeters>
          </Trackpoint>
          <Trackpoint>
            <Time>2023-02-23T10:57:09.000Z</Time>
            <Position>
              <LatitudeDegrees>41.5337827987968921661376953125</LatitudeDegrees>
              <LongitudeDegrees>-4.55541425384581089019775390625</LongitudeDegrees>
            </Position>
            <AltitudeMeters>1251.199951171875</AltitudeMeters>
            <DistanceMeters>11745.349331259</DistanceMeters>
          </Trackpoint>
          <Trackpoint>
            <Time>2023-02-23T10:57:10.000Z</Time>
            <Position>
              <LatitudeDegrees>41.53377332724630832672119140625</LatitudeDegrees>
              <LongitudeDegrees>-4.55543386749923229217529296875</LongitudeDegrees>
            </Position>
            <AltitudeMeters>1251.199951171875</AltitudeMeters>
            <DistanceMeters>11747.29447959</DistanceMeters>
          </Trackpoint>
          <Trackpoint>
            <Time>2023-02-23T10:57:12.000Z</Time>
            <Position>
              <LatitudeDegrees>41.53376226313412189483642578125</LatitudeDegrees>
              <LongitudeDegrees>-4.55545884557068347930908203125</LongitudeDegrees>
            </Position>
            <AltitudeMeters>1251.199951171875</AltitudeMeters>
            <DistanceMeters>11749.713464818</DistanceMeters>
          </Trackpoint>
          <Trackpoint>
            <Time>2023-02-23T10:57:15.000Z</Time>
            <Position>
              <LatitudeDegrees>41.533756144344806671142578125</LatitudeDegrees>
              <LongitudeDegrees>-4.555470831692218780517578125</LongitudeDegrees>
            </Position>
            <AltitudeMeters>1251.199951171875</AltitudeMeters>
            <DistanceMeters>11750.915468242</DistanceMeters>
          </Trackpoint>
          <Trackpoint>
            <Time>2023-02-23T10:57:18.000Z</Time>
            <Position>
              <LatitudeDegrees>41.53374818153679370880126953125</LatitudeDegrees>
              <LongitudeDegrees>-4.5554763637483119964599609375</LongitudeDegrees>
            </Position>
            <AltitudeMeters>1250.800048828125</AltitudeMeters>
            <DistanceMeters>11751.912116831</DistanceMeters>
          </Trackpoint>
          <Trackpoint>
            <Time>2023-02-23T10:57:19.000Z</Time>
            <Position>
              <LatitudeDegrees>41.53374466113746166229248046875</LatitudeDegrees>
              <LongitudeDegrees>-4.55547627992928028106689453125</LongitudeDegrees>
            </Position>
            <AltitudeMeters>1251</AltitudeMeters>
            <DistanceMeters>11752.315281035</DistanceMeters>
          </Trackpoint>
          <Trackpoint>
            <Time>2023-02-23T10:57:20.000Z</Time>
            <Position>
              <LatitudeDegrees>41.5337368659675121307373046875</LatitudeDegrees>
              <LongitudeDegrees>-4.5554807223379611968994140625</LongitudeDegrees>
            </Position>
            <AltitudeMeters>1251</AltitudeMeters>
            <DistanceMeters>11753.255997513</DistanceMeters>
          </Trackpoint>
          <Trackpoint>
            <Time>2023-02-23T10:57:26.000Z</Time>
            <Position>
              <LatitudeDegrees>41.53371448628604412078857421875</LatitudeDegrees>
              <LongitudeDegrees>-4.55553662963211536407470703125</LongitudeDegrees>
            </Position>
            <AltitudeMeters>1251</AltitudeMeters>
            <DistanceMeters>11758.538320507</DistanceMeters>
          </Trackpoint>
          <Trackpoint>
            <Time>2023-02-23T10:57:27.000Z</Time>
            <Position>
              <LatitudeDegrees>41.5337100438773632049560546875</LatitudeDegrees>
              <LongitudeDegrees>-4.55554735846817493438720703125</LongitudeDegrees>
            </Position>
            <AltitudeMeters>1251.199951171875</AltitudeMeters>
            <DistanceMeters>11759.561789543</DistanceMeters>
          </Trackpoint>
          <Trackpoint>
            <Time>2023-02-23T10:57:33.000Z</Time>
            <Position>
              <LatitudeDegrees>41.53367643244564533233642578125</LatitudeDegrees>
              <LongitudeDegrees>-4.55559614114463329315185546875</LongitudeDegrees>
            </Position>
            <AltitudeMeters>1251</AltitudeMeters>
            <DistanceMeters>11765.086430561</DistanceMeters>
          </Trackpoint>
          <Trackpoint>
            <Time>2023-02-23T10:57:35.000Z</Time>
            <Position>
              <LatitudeDegrees>41.53366821818053722381591796875</LatitudeDegrees>
              <LongitudeDegrees>-4.55561240203678607940673828125</LongitudeDegrees>
            </Position>
            <AltitudeMeters>1251</AltitudeMeters>
            <DistanceMeters>11766.718567979</DistanceMeters>
          </Trackpoint>
          <Trackpoint>
            <Time>2023-02-23T10:57:40.000Z</Time>
            <Position>
              <LatitudeDegrees>41.53363619931042194366455078125</LatitudeDegrees>
              <LongitudeDegrees>-4.55565766431391239166259765625</LongitudeDegrees>
            </Position>
            <AltitudeMeters>1251.4000244140625</AltitudeMeters>
            <DistanceMeters>11771.907757507</DistanceMeters>
          </Trackpoint>
          <Trackpoint>
            <Time>2023-02-23T10:57:42.000Z</Time>
            <Position>
              <LatitudeDegrees>41.53362630866467952728271484375</LatitudeDegrees>
              <LongitudeDegrees>-4.55566738732159137725830078125</LongitudeDegrees>
            </Position>
            <AltitudeMeters>1251</AltitudeMeters>
            <DistanceMeters>11773.278252272</DistanceMeters>
          </Trackpoint>
          <Trackpoint>
            <Time>2023-02-23T10:57:48.000Z</Time>
            <Position>
              <LatitudeDegrees>41.533601246774196624755859375</LatitudeDegrees>
              <LongitudeDegrees>-4.555735699832439422607421875</LongitudeDegrees>
            </Position>
            <AltitudeMeters>1250.5999755859375</AltitudeMeters>
            <DistanceMeters>11779.615900102</DistanceMeters>
          </Trackpoint>
          <Trackpoint>
            <Time>2023-02-23T10:57:50.000Z</Time>
            <Position>
              <LatitudeDegrees>41.5335987322032451629638671875</LatitudeDegrees>
              <LongitudeDegrees>-4.55576428212225437164306640625</LongitudeDegrees>
            </Position>
            <AltitudeMeters>1250.4000244140625</AltitudeMeters>
            <DistanceMeters>11782.012382653</DistanceMeters>
          </Trackpoint>
          <Trackpoint>
            <Time>2023-02-23T10:57:51.000Z</Time>
            <Position>
              <LatitudeDegrees>41.5335980616509914398193359375</LatitudeDegrees>
              <LongitudeDegrees>-4.55577584914863109588623046875</LongitudeDegrees>
            </Position>
            <AltitudeMeters>1250.4000244140625</AltitudeMeters>
            <DistanceMeters>11782.981468795</DistanceMeters>
          </Trackpoint>
          <Trackpoint>
            <Time>2023-02-23T10:57:54.000Z</Time>
            <Position>
              <LatitudeDegrees>41.53359294869005680084228515625</LatitudeDegrees>
              <LongitudeDegrees>-4.5558165013790130615234375</LongitudeDegrees>
            </Position>
            <AltitudeMeters>1250.4000244140625</AltitudeMeters>
            <DistanceMeters>11786.415603306</DistanceMeters>
          </Trackpoint>
          <Trackpoint>
            <Time>2023-02-23T10:57:56.000Z</Time>
            <Position>
              <LatitudeDegrees>41.533583812415599822998046875</LatitudeDegrees>
              <LongitudeDegrees>-4.555839635431766510009765625</LongitudeDegrees>
            </Position>
            <AltitudeMeters>1250.4000244140625</AltitudeMeters>
            <DistanceMeters>11788.59501153</DistanceMeters>
          </Trackpoint>
          <Trackpoint>
            <Time>2023-02-23T10:58:03.000Z</Time>
            <Position>
              <LatitudeDegrees>41.53355690650641918182373046875</LatitudeDegrees>
              <LongitudeDegrees>-4.5559182576835155487060546875</LongitudeDegrees>
            </Position>
            <AltitudeMeters>1250.199951171875</AltitudeMeters>
            <DistanceMeters>11795.797008413</DistanceMeters>
          </Trackpoint>
          <Trackpoint>
            <Time>2023-02-23T10:58:06.000Z</Time>
            <Position>
              <LatitudeDegrees>41.533558331429958343505859375</LatitudeDegrees>
              <LongitudeDegrees>-4.55595321021974086761474609375</LongitudeDegrees>
            </Position>
            <AltitudeMeters>1249.800048828125</AltitudeMeters>
            <DistanceMeters>11798.712021609</DistanceMeters>
          </Trackpoint>
          <Trackpoint>
            <Time>2023-02-23T10:58:09.000Z</Time>
            <Position>
              <LatitudeDegrees>41.5335625223815441131591796875</LatitudeDegrees>
              <LongitudeDegrees>-4.55598355270922183990478515625</LongitudeDegrees>
            </Position>
            <AltitudeMeters>1249.800048828125</AltitudeMeters>
            <DistanceMeters>11801.283016739</DistanceMeters>
          </Trackpoint>
          <Trackpoint>
            <Time>2023-02-23T10:58:11.000Z</Time>
            <Position>
              <LatitudeDegrees>41.53356344439089298248291015625</LatitudeDegrees>
              <LongitudeDegrees>-4.55599076114594936370849609375</LongitudeDegrees>
            </Position>
            <AltitudeMeters>1249.800048828125</AltitudeMeters>
            <DistanceMeters>11801.891484597</DistanceMeters>
          </Trackpoint>
          <Trackpoint>
            <Time>2023-02-23T10:58:12.000Z</Time>
            <Position>
              <LatitudeDegrees>41.53356445021927356719970703125</LatitudeDegrees>
              <LongitudeDegrees>-4.5559935271739959716796875</LongitudeDegrees>
            </Position>
            <AltitudeMeters>1250</AltitudeMeters>
            <DistanceMeters>11802.160260733</DistanceMeters>
          </Trackpoint>
          <Trackpoint>
            <Time>2023-02-23T10:58:15.000Z</Time>
            <Position>
              <LatitudeDegrees>41.53357132337987422943115234375</LatitudeDegrees>
              <LongitudeDegrees>-4.556000567972660064697265625</LongitudeDegrees>
            </Position>
            <AltitudeMeters>1250.199951171875</AltitudeMeters>
            <DistanceMeters>11803.119983504</DistanceMeters>
          </Trackpoint>
          <Trackpoint>
            <Time>2023-02-23T10:58:19.000Z</Time>
            <Position>
              <LatitudeDegrees>41.533581800758838653564453125</LatitudeDegrees>
              <LongitudeDegrees>-4.55602462403476238250732421875</LongitudeDegrees>
            </Position>
            <AltitudeMeters>1250.4000244140625</AltitudeMeters>
            <DistanceMeters>11805.439881252</DistanceMeters>
          </Trackpoint>
          <Trackpoint>
            <Time>2023-02-23T10:58:22.000Z</Time>
            <Position>
              <LatitudeDegrees>41.533591859042644500732421875</LatitudeDegrees>
              <LongitudeDegrees>-4.55603501759469509124755859375</LongitudeDegrees>
            </Position>
            <AltitudeMeters>1250.199951171875</AltitudeMeters>
            <DistanceMeters>11806.855747408</DistanceMeters>
          </Trackpoint>
          <Trackpoint>
            <Time>2023-02-23T10:58:24.000Z</Time>
            <Position>
              <LatitudeDegrees>41.5336082875728607177734375</LatitudeDegrees>
              <LongitudeDegrees>-4.556034766137599945068359375</LongitudeDegrees>
            </Position>
            <AltitudeMeters>1250</AltitudeMeters>
            <DistanceMeters>11808.683622755</DistanceMeters>
          </Trackpoint>
          <Trackpoint>
            <Time>2023-02-23T10:58:25.000Z</Time>
            <Position>
              <LatitudeDegrees>41.53361792676150798797607421875</LatitudeDegrees>
              <LongitudeDegrees>-4.556032083928585052490234375</LongitudeDegrees>
            </Position>
            <AltitudeMeters>1249.800048828125</AltitudeMeters>
            <DistanceMeters>11809.775396582</DistanceMeters>
          </Trackpoint>
          <Trackpoint>
            <Time>2023-02-23T10:58:28.000Z</Time>
            <Position>
              <LatitudeDegrees>41.53366285376250743865966796875</LatitudeDegrees>
              <LongitudeDegrees>-4.55600316636264324188232421875</LongitudeDegrees>
            </Position>
            <AltitudeMeters>1249.5999755859375</AltitudeMeters>
            <DistanceMeters>11815.32612814</DistanceMeters>
          </Trackpoint>
          <Trackpoint>
            <Time>2023-02-23T10:58:30.000Z</Time>
            <Position>
              <LatitudeDegrees>41.533693112432956695556640625</LatitudeDegrees>
              <LongitudeDegrees>-4.55599151551723480224609375</LongitudeDegrees>
            </Position>
            <AltitudeMeters>1249.199951171875</AltitudeMeters>
            <DistanceMeters>11818.830540211</DistanceMeters>
          </Trackpoint>
          <Trackpoint>
            <Time>2023-02-23T10:58:31.000Z</Time>
            <Position>
              <LatitudeDegrees>41.5337102115154266357421875</LatitudeDegrees>
              <LongitudeDegrees>-4.5559957064688205718994140625</LongitudeDegrees>
            </Position>
            <AltitudeMeters>1248.800048828125</AltitudeMeters>
            <DistanceMeters>11820.764047813</DistanceMeters>
          </Trackpoint>
          <Trackpoint>
            <Time>2023-02-23T10:58:34.000Z</Time>
            <Position>
              <LatitudeDegrees>41.53372320346534252166748046875</LatitudeDegrees>
              <LongitudeDegrees>-4.556026719510555267333984375</LongitudeDegrees>
            </Position>
            <AltitudeMeters>1247.800048828125</AltitudeMeters>
            <DistanceMeters>11823.725163182</DistanceMeters>
          </Trackpoint>
          <Trackpoint>
            <Time>2023-02-23T10:58:35.000Z</Time>
            <Position>
              <LatitudeDegrees>41.53372186236083507537841796875</LatitudeDegrees>
              <LongitudeDegrees>-4.5560446567833423614501953125</LongitudeDegrees>
            </Position>
            <AltitudeMeters>1247.4000244140625</AltitudeMeters>
            <DistanceMeters>11825.227667462</DistanceMeters>
          </Trackpoint>
          <Trackpoint>
            <Time>2023-02-23T10:58:36.000Z</Time>
            <Position>
              <LatitudeDegrees>41.533721275627613067626953125</LatitudeDegrees>
              <LongitudeDegrees>-4.5560610853135585784912109375</LongitudeDegrees>
            </Position>
            <AltitudeMeters>1247</AltitudeMeters>
            <DistanceMeters>11826.594863799</DistanceMeters>
          </Trackpoint>
          <Trackpoint>
            <Time>2023-02-23T10:58:39.000Z</Time>
            <Position>
              <LatitudeDegrees>41.53371683321893215179443359375</LatitudeDegrees>
              <LongitudeDegrees>-4.55612772144377231597900390625</LongitudeDegrees>
            </Position>
            <AltitudeMeters>1246.800048828125</AltitudeMeters>
            <DistanceMeters>11832.169134428</DistanceMeters>
          </Trackpoint>
          <Trackpoint>
            <Time>2023-02-23T10:58:40.000Z</Time>
            <Position>
              <LatitudeDegrees>41.53371532447636127471923828125</LatitudeDegrees>
              <LongitudeDegrees>-4.55616049468517303466796875</LongitudeDegrees>
            </Position>
            <AltitudeMeters>1246.5999755859375</AltitudeMeters>
            <DistanceMeters>11834.906827517</DistanceMeters>
          </Trackpoint>
          <Trackpoint>
            <Time>2023-02-23T10:58:44.000Z</Time>
            <Position>
              <LatitudeDegrees>41.53372772969305515289306640625</LatitudeDegrees>
              <LongitudeDegrees>-4.556265771389007568359375</LongitudeDegrees>
            </Position>
            <AltitudeMeters>1245.5999755859375</AltitudeMeters>
            <DistanceMeters>11843.786106622</DistanceMeters>
          </Trackpoint>
          <Trackpoint>
            <Time>2023-02-23T10:58:46.000Z</Time>
            <Position>
              <LatitudeDegrees>41.533738039433956146240234375</LatitudeDegrees>
              <LongitudeDegrees>-4.556313045322895050048828125</LongitudeDegrees>
            </Position>
            <AltitudeMeters>1245.4000244140625</AltitudeMeters>
            <DistanceMeters>11847.888796287</DistanceMeters>
          </Trackpoint>
          <Trackpoint>
            <Time>2023-02-23T10:58:48.000Z</Time>
            <Position>
              <LatitudeDegrees>41.53374700807034969329833984375</LatitudeDegrees>
              <LongitudeDegrees>-4.5563752390444278717041015625</LongitudeDegrees>
            </Position>
            <AltitudeMeters>1245.4000244140625</AltitudeMeters>
            <DistanceMeters>11853.16598832</DistanceMeters>
          </Trackpoint>
          <Trackpoint>
            <Time>2023-02-23T10:58:52.000Z</Time>
            <Position>
              <LatitudeDegrees>41.53377030976116657257080078125</LatitudeDegrees>
              <LongitudeDegrees>-4.5564830303192138671875</LongitudeDegrees>
            </Position>
            <AltitudeMeters>1244.800048828125</AltitudeMeters>
            <DistanceMeters>11862.514414917</DistanceMeters>
          </Trackpoint>
          <Trackpoint>
            <Time>2023-02-23T10:58:54.000Z</Time>
            <Position>
              <LatitudeDegrees>41.53378992341458797454833984375</LatitudeDegrees>
              <LongitudeDegrees>-4.55652795732021331787109375</LongitudeDegrees>
            </Position>
            <AltitudeMeters>1244.800048828125</AltitudeMeters>
            <DistanceMeters>11866.848299895</DistanceMeters>
          </Trackpoint>
          <Trackpoint>
            <Time>2023-02-23T10:58:58.000Z</Time>
            <Position>
              <LatitudeDegrees>41.53381724841892719268798828125</LatitudeDegrees>
              <LongitudeDegrees>-4.55661605112254619598388671875</LongitudeDegrees>
            </Position>
            <AltitudeMeters>1244.800048828125</AltitudeMeters>
            <DistanceMeters>11874.793124269</DistanceMeters>
          </Trackpoint>
          <Trackpoint>
            <Time>2023-02-23T10:58:59.000Z</Time>
            <Position>
              <LatitudeDegrees>41.53382311575114727020263671875</LatitudeDegrees>
              <LongitudeDegrees>-4.55663734115660190582275390625</LongitudeDegrees>
            </Position>
            <AltitudeMeters>1244.5999755859375</AltitudeMeters>
            <DistanceMeters>11876.684132009</DistanceMeters>
          </Trackpoint>
          <Trackpoint>
            <Time>2023-02-23T10:59:00.000Z</Time>
            <Position>
              <LatitudeDegrees>41.53382630087435245513916015625</LatitudeDegrees>
              <LongitudeDegrees>-4.55665745772421360015869140625</LongitudeDegrees>
            </Position>
            <AltitudeMeters>1244.5999755859375</AltitudeMeters>
            <DistanceMeters>11878.397250465</DistanceMeters>
          </Trackpoint>
          <Trackpoint>
            <Time>2023-02-23T10:59:05.000Z</Time>
            <Position>
              <LatitudeDegrees>41.5338361077010631561279296875</LatitudeDegrees>
              <LongitudeDegrees>-4.55677581019699573516845703125</LongitudeDegrees>
            </Position>
            <AltitudeMeters>1244</AltitudeMeters>
            <DistanceMeters>11888.318330711</DistanceMeters>
          </Trackpoint>
          <Trackpoint>
            <Time>2023-02-23T10:59:06.000Z</Time>
            <Position>
              <LatitudeDegrees>41.53383736498653888702392578125</LatitudeDegrees>
              <LongitudeDegrees>-4.55680732615292072296142578125</LongitudeDegrees>
            </Position>
            <AltitudeMeters>1243.800048828125</AltitudeMeters>
            <DistanceMeters>11890.948357052</DistanceMeters>
          </Trackpoint>
          <Trackpoint>
            <Time>2023-02-23T10:59:07.000Z</Time>
            <Position>
              <LatitudeDegrees>41.53384390287101268768310546875</LatitudeDegrees>
              <LongitudeDegrees>-4.55683230422437191009521484375</LongitudeDegrees>
            </Position>
            <AltitudeMeters>1243.800048828125</AltitudeMeters>
            <DistanceMeters>11893.154532748</DistanceMeters>
          </Trackpoint>
          <Trackpoint>
            <Time>2023-02-23T10:59:10.000Z</Time>
            <Position>
              <LatitudeDegrees>41.5338696353137493133544921875</LatitudeDegrees>
              <LongitudeDegrees>-4.55690153874456882476806640625</LongitudeDegrees>
            </Position>
            <AltitudeMeters>1243.800048828125</AltitudeMeters>
            <DistanceMeters>11899.59535344</DistanceMeters>
          </Trackpoint>
          <Trackpoint>
            <Time>2023-02-23T10:59:11.000Z</Time>
            <Position>
              <LatitudeDegrees>41.53387877158820629119873046875</LatitudeDegrees>
              <LongitudeDegrees>-4.55692358314990997314453125</LongitudeDegrees>
            </Position>
            <AltitudeMeters>1243.5999755859375</AltitudeMeters>
            <DistanceMeters>11901.698859432</DistanceMeters>
          </Trackpoint>
          <Trackpoint>
            <Time>2023-02-23T10:59:12.000Z</Time>
            <Position>
              <LatitudeDegrees>41.53388790786266326904296875</LatitudeDegrees>
              <LongitudeDegrees>-4.5569458790123462677001953125</LongitudeDegrees>
            </Position>
            <AltitudeMeters>1243.5999755859375</AltitudeMeters>
            <DistanceMeters>11903.817337186</DistanceMeters>
          </Trackpoint>
          <Trackpoint>
            <Time>2023-02-23T10:59:19.000Z</Time>
            <Position>
              <LatitudeDegrees>41.53394146822392940521240234375</LatitudeDegrees>
              <LongitudeDegrees>-4.55706817097961902618408203125</LongitudeDegrees>
            </Position>
            <AltitudeMeters>1243</AltitudeMeters>
            <DistanceMeters>11915.622470381</DistanceMeters>
          </Trackpoint>
          <Trackpoint>
            <Time>2023-02-23T10:59:21.000Z</Time>
            <Position>
              <LatitudeDegrees>41.53395362198352813720703125</LatitudeDegrees>
              <LongitudeDegrees>-4.5570675842463970184326171875</LongitudeDegrees>
            </Position>
            <AltitudeMeters>1242.5999755859375</AltitudeMeters>
            <DistanceMeters>11916.976392653</DistanceMeters>
          </Trackpoint>
          <Trackpoint>
            <Time>2023-02-23T10:59:23.000Z</Time>
            <Position>
              <LatitudeDegrees>41.53396745212376117706298828125</LatitudeDegrees>
              <LongitudeDegrees>-4.5570766367018222808837890625</LongitudeDegrees>
            </Position>
            <AltitudeMeters>1242.199951171875</AltitudeMeters>
            <DistanceMeters>11918.692144651</DistanceMeters>
          </Trackpoint>
          <Trackpoint>
            <Time>2023-02-23T10:59:24.000Z</Time>
            <Position>
              <LatitudeDegrees>41.53397935442626476287841796875</LatitudeDegrees>
              <LongitudeDegrees>-4.55707923509180545806884765625</LongitudeDegrees>
            </Position>
            <AltitudeMeters>1242</AltitudeMeters>
            <DistanceMeters>11920.029289047</DistanceMeters>
          </Trackpoint>
          <Trackpoint>
            <Time>2023-02-23T10:59:28.000Z</Time>
            <Position>
              <LatitudeDegrees>41.53400282375514507293701171875</LatitudeDegrees>
              <LongitudeDegrees>-4.55709968693554401397705078125</LongitudeDegrees>
            </Position>
            <AltitudeMeters>1242</AltitudeMeters>
            <DistanceMeters>11923.149292638</DistanceMeters>
          </Trackpoint>
          <Trackpoint>
            <Time>2023-02-23T10:59:29.000Z</Time>
            <Position>
              <LatitudeDegrees>41.53401204384863376617431640625</LatitudeDegrees>
              <LongitudeDegrees>-4.55710454843938350677490234375</LongitudeDegrees>
            </Position>
            <AltitudeMeters>1242</AltitudeMeters>
            <DistanceMeters>11924.257485039</DistanceMeters>
          </Trackpoint>
          <Trackpoint>
            <Time>2023-02-23T10:59:30.000Z</Time>
            <Position>
              <LatitudeDegrees>41.534024365246295928955078125</LatitudeDegrees>
              <LongitudeDegrees>-4.557108320295810699462890625</LongitudeDegrees>
            </Position>
            <AltitudeMeters>1242</AltitudeMeters>
            <DistanceMeters>11925.666958989</DistanceMeters>
          </Trackpoint>
          <Trackpoint>
            <Time>2023-02-23T10:59:31.000Z</Time>
            <Position>
              <LatitudeDegrees>41.53403568081557750701904296875</LatitudeDegrees>
              <LongitudeDegrees>-4.5571155287325382232666015625</LongitudeDegrees>
            </Position>
            <AltitudeMeters>1242.199951171875</AltitudeMeters>
            <DistanceMeters>11927.063560762</DistanceMeters>
          </Trackpoint>
          <Trackpoint>
            <Time>2023-02-23T10:59:32.000Z</Time>
            <Position>
              <LatitudeDegrees>41.53404481709003448486328125</LatitudeDegrees>
              <LongitudeDegrees>-4.5571262575685977935791015625</LongitudeDegrees>
            </Position>
            <AltitudeMeters>1242.199951171875</AltitudeMeters>
            <DistanceMeters>11928.414144133</DistanceMeters>
          </Trackpoint>
          <Trackpoint>
            <Time>2023-02-23T10:59:33.000Z</Time>
            <Position>
              <LatitudeDegrees>41.53405428864061832427978515625</LatitudeDegrees>
              <LongitudeDegrees>-4.557136483490467071533203125</LongitudeDegrees>
            </Position>
            <AltitudeMeters>1242.4000244140625</AltitudeMeters>
            <DistanceMeters>11929.764727504</DistanceMeters>
          </Trackpoint>
          <Trackpoint>
            <Time>2023-02-23T10:59:34.000Z</Time>
            <Position>
              <LatitudeDegrees>41.53406585566699504852294921875</LatitudeDegrees>
              <LongitudeDegrees>-4.55714746378362178802490234375</LongitudeDegrees>
            </Position>
            <AltitudeMeters>1242.4000244140625</AltitudeMeters>
            <DistanceMeters>11931.34342985</DistanceMeters>
          </Trackpoint>
          <Trackpoint>
            <Time>2023-02-23T10:59:38.000Z</Time>
            <Position>
              <LatitudeDegrees>41.53410307131707668304443359375</LatitudeDegrees>
              <LongitudeDegrees>-4.5572181232273578643798828125</LongitudeDegrees>
            </Position>
            <AltitudeMeters>1242.4000244140625</AltitudeMeters>
            <DistanceMeters>11938.542291476</DistanceMeters>
          </Trackpoint>
          <Trackpoint>
            <Time>2023-02-23T10:59:44.000Z</Time>
            <Position>
              <LatitudeDegrees>41.534175574779510498046875</LatitudeDegrees>
              <LongitudeDegrees>-4.55734594725072383880615234375</LongitudeDegrees>
            </Position>
            <AltitudeMeters>1242.199951171875</AltitudeMeters>
            <DistanceMeters>11951.904277536</DistanceMeters>
          </Trackpoint>
          <Trackpoint>
            <Time>2023-02-23T10:59:45.000Z</Time>
            <Position>
              <LatitudeDegrees>41.53418722562491893768310546875</LatitudeDegrees>
              <LongitudeDegrees>-4.557353071868419647216796875</LongitudeDegrees>
            </Position>
            <AltitudeMeters>1242.199951171875</AltitudeMeters>
            <DistanceMeters>11953.329678251</DistanceMeters>
          </Trackpoint>
          <Trackpoint>
            <Time>2023-02-23T10:59:50.000Z</Time>
            <Position>
              <LatitudeDegrees>41.5342045761644840240478515625</LatitudeDegrees>
              <LongitudeDegrees>-4.55736212432384490966796875</LongitudeDegrees>
            </Position>
            <AltitudeMeters>1242.199951171875</AltitudeMeters>
            <DistanceMeters>11955.402916392</DistanceMeters>
          </Trackpoint>
          <Trackpoint>
            <Time>2023-02-23T10:59:53.000Z</Time>
            <Position>
              <LatitudeDegrees>41.53420784510672092437744140625</LatitudeDegrees>
              <LongitudeDegrees>-4.55735935829579830169677734375</LongitudeDegrees>
            </Position>
            <AltitudeMeters>1241.800048828125</AltitudeMeters>
            <DistanceMeters>11955.827888778</DistanceMeters>
          </Trackpoint>
          <Trackpoint>
            <Time>2023-02-23T10:59:57.000Z</Time>
            <Position>
              <LatitudeDegrees>41.5342354215681552886962890625</LatitudeDegrees>
              <LongitudeDegrees>-4.55735282041132450103759765625</LongitudeDegrees>
            </Position>
            <AltitudeMeters>1241.5999755859375</AltitudeMeters>
            <DistanceMeters>11958.944996773</DistanceMeters>
          </Trackpoint>
          <Trackpoint>
            <Time>2023-02-23T10:59:58.000Z</Time>
            <Position>
              <LatitudeDegrees>41.53424606658518314361572265625</LatitudeDegrees>
              <LongitudeDegrees>-4.55735650844871997833251953125</LongitudeDegrees>
            </Position>
            <AltitudeMeters>1241.5999755859375</AltitudeMeters>
            <DistanceMeters>11960.173012557</DistanceMeters>
          </Trackpoint>
          <Trackpoint>
            <Time>2023-02-23T10:59:59.000Z</Time>
            <Position>
              <LatitudeDegrees>41.53425528667867183685302734375</LatitudeDegrees>
              <LongitudeDegrees>-4.5573629625141620635986328125</LongitudeDegrees>
            </Position>
            <AltitudeMeters>1241.4000244140625</AltitudeMeters>
            <DistanceMeters>11961.329062432</DistanceMeters>
          </Trackpoint>
          <Trackpoint>
            <Time>2023-02-23T11:00:02.000Z</Time>
            <Position>
              <LatitudeDegrees>41.53426945209503173828125</LatitudeDegrees>
              <LongitudeDegrees>-4.55738165415823459625244140625</LongitudeDegrees>
            </Position>
            <AltitudeMeters>1241.800048828125</AltitudeMeters>
            <DistanceMeters>11963.545447233</DistanceMeters>
          </Trackpoint>
          <Trackpoint>
            <Time>2023-02-23T11:00:04.000Z</Time>
            <Position>
              <LatitudeDegrees>41.53426878154277801513671875</LatitudeDegrees>
              <LongitudeDegrees>-4.55739238299429416656494140625</LongitudeDegrees>
            </Position>
            <AltitudeMeters>1241.5999755859375</AltitudeMeters>
            <DistanceMeters>11964.446949801</DistanceMeters>
          </Trackpoint>
          <Trackpoint>
            <Time>2023-02-23T11:00:09.000Z</Time>
            <Position>
              <LatitudeDegrees>41.53425260446965694427490234375</LatitudeDegrees>
              <LongitudeDegrees>-4.5574196241796016693115234375</LongitudeDegrees>
            </Position>
            <AltitudeMeters>1241.5999755859375</AltitudeMeters>
            <DistanceMeters>11967.343316666</DistanceMeters>
          </Trackpoint>
          <Trackpoint>
            <Time>2023-02-23T11:00:11.000Z</Time>
            <Position>
              <LatitudeDegrees>41.534236930310726165771484375</LatitudeDegrees>
              <LongitudeDegrees>-4.55743965692818164825439453125</LongitudeDegrees>
            </Position>
            <AltitudeMeters>1241.800048828125</AltitudeMeters>
            <DistanceMeters>11969.758566008</DistanceMeters>
          </Trackpoint>
          <Trackpoint>
            <Time>2023-02-23T11:00:19.000Z</Time>
            <Position>
              <LatitudeDegrees>41.534173227846622467041015625</LatitudeDegrees>
              <LongitudeDegrees>-4.5575344562530517578125</LongitudeDegrees>
            </Position>
            <AltitudeMeters>1242</AltitudeMeters>
            <DistanceMeters>11980.372671421</DistanceMeters>
          </Trackpoint>
          <Trackpoint>
            <Time>2023-02-23T11:00:21.000Z</Time>
            <Position>
              <LatitudeDegrees>41.53416895307600498199462890625</LatitudeDegrees>
              <LongitudeDegrees>-4.5575550757348537445068359375</LongitudeDegrees>
            </Position>
            <AltitudeMeters>1242</AltitudeMeters>
            <DistanceMeters>11982.155530615</DistanceMeters>
          </Trackpoint>
          <Trackpoint>
            <Time>2023-02-23T11:00:24.000Z</Time>
            <Position>
              <LatitudeDegrees>41.53414950706064701080322265625</LatitudeDegrees>
              <LongitudeDegrees>-4.55759271048009395599365234375</LongitudeDegrees>
            </Position>
            <AltitudeMeters>1241.800048828125</AltitudeMeters>
            <DistanceMeters>11985.966090013</DistanceMeters>
          </Trackpoint>
          <Trackpoint>
            <Time>2023-02-23T11:00:25.000Z</Time>
            <Position>
              <LatitudeDegrees>41.5341475792229175567626953125</LatitudeDegrees>
              <LongitudeDegrees>-4.5575986616313457489013671875</LongitudeDegrees>
            </Position>
            <AltitudeMeters>1241.800048828125</AltitudeMeters>
            <DistanceMeters>11986.503642286</DistanceMeters>
          </Trackpoint>
          <Trackpoint>
            <Time>2023-02-23T11:00:27.000Z</Time>
            <Position>
              <LatitudeDegrees>41.53414833359420299530029296875</LatitudeDegrees>
              <LongitudeDegrees>-4.55760243348777294158935546875</LongitudeDegrees>
            </Position>
            <AltitudeMeters>1242</AltitudeMeters>
            <DistanceMeters>11986.832824481</DistanceMeters>
          </Trackpoint>
          <Trackpoint>
            <Time>2023-02-23T11:00:29.000Z</Time>
            <Position>
              <LatitudeDegrees>41.5341573022305965423583984375</LatitudeDegrees>
              <LongitudeDegrees>-4.55761819146573543548583984375</LongitudeDegrees>
            </Position>
            <AltitudeMeters>1241.800048828125</AltitudeMeters>
            <DistanceMeters>11988.484212711</DistanceMeters>
          </Trackpoint>
          <Trackpoint>
            <Time>2023-02-23T11:00:38.000Z</Time>
            <Position>
              <LatitudeDegrees>41.5341754071414470672607421875</LatitudeDegrees>
              <LongitudeDegrees>-4.5576439239084720611572265625</LongitudeDegrees>
            </Position>
            <AltitudeMeters>1241.800048828125</AltitudeMeters>
            <DistanceMeters>11991.426973882</DistanceMeters>
          </Trackpoint>
          <Trackpoint>
            <Time>2023-02-23T11:00:44.000Z</Time>
            <Position>
              <LatitudeDegrees>41.534171886742115020751953125</LatitudeDegrees>
              <LongitudeDegrees>-4.557644091546535491943359375</LongitudeDegrees>
            </Position>
            <AltitudeMeters>1241.5999755859375</AltitudeMeters>
            <DistanceMeters>11991.830138086</DistanceMeters>
          </Trackpoint>
          <Trackpoint>
            <Time>2023-02-23T11:00:49.000Z</Time>
            <Position>
              <LatitudeDegrees>41.53420197777450084686279296875</LatitudeDegrees>
              <LongitudeDegrees>-4.5576573349535465240478515625</LongitudeDegrees>
            </Position>
            <AltitudeMeters>1242.199951171875</AltitudeMeters>
            <DistanceMeters>11995.356384712</DistanceMeters>
          </Trackpoint>
          <Trackpoint>
            <Time>2023-02-23T11:00:50.000Z</Time>
            <Position>
              <LatitudeDegrees>41.53420549817383289337158203125</LatitudeDegrees>
              <LongitudeDegrees>-4.55765892751514911651611328125</LongitudeDegrees>
            </Position>
            <AltitudeMeters>1242.4000244140625</AltitudeMeters>
            <DistanceMeters>11995.759548917</DistanceMeters>
          </Trackpoint>
          <Trackpoint>
            <Time>2023-02-23T11:00:52.000Z</Time>
            <Position>
              <LatitudeDegrees>41.53420616872608661651611328125</LatitudeDegrees>
              <LongitudeDegrees>-4.5576618611812591552734375</LongitudeDegrees>
            </Position>
            <AltitudeMeters>1242.4000244140625</AltitudeMeters>
            <DistanceMeters>11996.028325053</DistanceMeters>
          </Trackpoint>
          <Trackpoint>
            <Time>2023-02-23T11:00:55.000Z</Time>
            <Position>
              <LatitudeDegrees>41.534217484295368194580078125</LatitudeDegrees>
              <LongitudeDegrees>-4.5576610229909420013427734375</LongitudeDegrees>
            </Position>
            <AltitudeMeters>1242.5999755859375</AltitudeMeters>
            <DistanceMeters>11997.292573261</DistanceMeters>
          </Trackpoint>
          <Trackpoint>
            <Time>2023-02-23T11:01:00.000Z</Time>
            <Position>
              <LatitudeDegrees>41.53423148207366466522216796875</LatitudeDegrees>
              <LongitudeDegrees>-4.557621292769908905029296875</LongitudeDegrees>
            </Position>
            <AltitudeMeters>1242.800048828125</AltitudeMeters>
            <DistanceMeters>12000.950793223</DistanceMeters>
          </Trackpoint>
          <Trackpoint>
            <Time>2023-02-23T11:01:01.000Z</Time>
            <Position>
              <LatitudeDegrees>41.53423852287232875823974609375</LatitudeDegrees>
              <LongitudeDegrees>-4.55760511569678783416748046875</LongitudeDegrees>
            </Position>
            <AltitudeMeters>1242.800048828125</AltitudeMeters>
            <DistanceMeters>12002.512241473</DistanceMeters>
          </Trackpoint>
          <Trackpoint>
            <Time>2023-02-23T11:01:08.000Z</Time>
            <Position>
              <LatitudeDegrees>41.53423131443560123443603515625</LatitudeDegrees>
              <LongitudeDegrees>-4.55758516676723957061767578125</LongitudeDegrees>
            </Position>
            <AltitudeMeters>1243</AltitudeMeters>
            <DistanceMeters>12004.359771959</DistanceMeters>
          </Trackpoint>
          <Trackpoint>
            <Time>2023-02-23T11:01:10.000Z</Time>
            <Position>
              <LatitudeDegrees>41.534215472638607025146484375</LatitudeDegrees>
              <LongitudeDegrees>-4.55758851952850818634033203125</LongitudeDegrees>
            </Position>
            <AltitudeMeters>1243.5999755859375</AltitudeMeters>
            <DistanceMeters>12006.142631154</DistanceMeters>
          </Trackpoint>
          <Trackpoint>
            <Time>2023-02-23T11:01:15.000Z</Time>
            <Position>
              <LatitudeDegrees>41.534166522324085235595703125</LatitudeDegrees>
              <LongitudeDegrees>-4.55759455449879169464111328125</LongitudeDegrees>
            </Position>
            <AltitudeMeters>1244.5999755859375</AltitudeMeters>
            <DistanceMeters>12011.614717912</DistanceMeters>
          </Trackpoint>
          <Trackpoint>
            <Time>2023-02-23T11:01:19.000Z</Time>
            <Position>
              <LatitudeDegrees>41.5341509319841861724853515625</LatitudeDegrees>
              <LongitudeDegrees>-4.55759321339428424835205078125</LongitudeDegrees>
            </Position>
            <AltitudeMeters>1244.800048828125</AltitudeMeters>
            <DistanceMeters>12013.351394489</DistanceMeters>
          </Trackpoint>
          <Trackpoint>
            <Time>2023-02-23T11:01:20.000Z</Time>
            <Position>
              <LatitudeDegrees>41.53414447791874408721923828125</LatitudeDegrees>
              <LongitudeDegrees>-4.557597152888774871826171875</LongitudeDegrees>
            </Position>
            <AltitudeMeters>1244.800048828125</AltitudeMeters>
            <DistanceMeters>12014.146445022</DistanceMeters>
          </Trackpoint>
          <Trackpoint>
            <Time>2023-02-23T11:01:21.000Z</Time>
            <Position>
              <LatitudeDegrees>41.53413978405296802520751953125</LatitudeDegrees>
              <LongitudeDegrees>-4.5576013438403606414794921875</LongitudeDegrees>
            </Position>
            <AltitudeMeters>1245</AltitudeMeters>
            <DistanceMeters>12014.762288518</DistanceMeters>
          </Trackpoint>
          <Trackpoint>
            <Time>2023-02-23T11:01:22.000Z</Time>
            <Position>
              <LatitudeDegrees>41.5341375209391117095947265625</LatitudeDegrees>
              <LongitudeDegrees>-4.55760964192450046539306640625</LongitudeDegrees>
            </Position>
            <AltitudeMeters>1245.199951171875</AltitudeMeters>
            <DistanceMeters>12015.498362282</DistanceMeters>
          </Trackpoint>
          <Trackpoint>
            <Time>2023-02-23T11:01:23.000Z</Time>
            <Position>
              <LatitudeDegrees>41.534137018024921417236328125</LatitudeDegrees>
              <LongitudeDegrees>-4.5576167665421962738037109375</LongitudeDegrees>
            </Position>
            <AltitudeMeters>1245.199951171875</AltitudeMeters>
            <DistanceMeters>12016.091803923</DistanceMeters>
          </Trackpoint>
          <Trackpoint>
            <Time>2023-02-23T11:01:24.000Z</Time>
            <Position>
              <LatitudeDegrees>41.53413894586265087127685546875</LatitudeDegrees>
              <LongitudeDegrees>-4.5576194487512111663818359375</LongitudeDegrees>
            </Position>
            <AltitudeMeters>1245.4000244140625</AltitudeMeters>
            <DistanceMeters>12016.392304779</DistanceMeters>
          </Trackpoint>
          <Trackpoint>
            <Time>2023-02-23T11:01:25.000Z</Time>
            <Position>
              <LatitudeDegrees>41.53413542546331882476806640625</LatitudeDegrees>
              <LongitudeDegrees>-4.55762523226439952850341796875</LongitudeDegrees>
            </Position>
            <AltitudeMeters>1245.800048828125</AltitudeMeters>
            <DistanceMeters>12017.015436617</DistanceMeters>
          </Trackpoint>
          <Trackpoint>
            <Time>2023-02-23T11:01:26.000Z</Time>
            <Position>
              <LatitudeDegrees>41.53413391672074794769287109375</LatitudeDegrees>
              <LongitudeDegrees>-4.55763562582433223724365234375</LongitudeDegrees>
            </Position>
            <AltitudeMeters>1246</AltitudeMeters>
            <DistanceMeters>12017.896678113</DistanceMeters>
          </Trackpoint>
          <Trackpoint>
            <Time>2023-02-23T11:01:27.000Z</Time>
            <Position>
              <LatitudeDegrees>41.53412930667400360107421875</LatitudeDegrees>
              <LongitudeDegrees>-4.5576425828039646148681640625</LongitudeDegrees>
            </Position>
            <AltitudeMeters>1246.199951171875</AltitudeMeters>
            <DistanceMeters>12018.66867879</DistanceMeters>
          </Trackpoint>
          <Trackpoint>
            <Time>2023-02-23T11:01:28.000Z</Time>
            <Position>
              <LatitudeDegrees>41.53412167914211750030517578125</LatitudeDegrees>
              <LongitudeDegrees>-4.55765624530613422393798828125</LongitudeDegrees>
            </Position>
            <AltitudeMeters>1246.4000244140625</AltitudeMeters>
            <DistanceMeters>12020.090908421</DistanceMeters>
          </Trackpoint>
          <Trackpoint>
            <Time>2023-02-23T11:01:30.000Z</Time>
            <Position>
              <LatitudeDegrees>41.53411514125764369964599609375</LatitudeDegrees>
              <LongitudeDegrees>-4.5576804690062999725341796875</LongitudeDegrees>
            </Position>
            <AltitudeMeters>1246.4000244140625</AltitudeMeters>
            <DistanceMeters>12022.236913776</DistanceMeters>
          </Trackpoint>
          <Trackpoint>
            <Time>2023-02-23T11:01:33.000Z</Time>
            <Position>
              <LatitudeDegrees>41.534112207591533660888671875</LatitudeDegrees>
              <LongitudeDegrees>-4.5577173493802547454833984375</LongitudeDegrees>
            </Position>
            <AltitudeMeters>1246.199951171875</AltitudeMeters>
            <DistanceMeters>12025.327839346</DistanceMeters>
          </Trackpoint>
          <Trackpoint>
            <Time>2023-02-23T11:01:39.000Z</Time>
            <Position>
              <LatitudeDegrees>41.53411229141056537628173828125</LatitudeDegrees>
              <LongitudeDegrees>-4.55776487477123737335205078125</LongitudeDegrees>
            </Position>
            <AltitudeMeters>1245.800048828125</AltitudeMeters>
            <DistanceMeters>12029.288299267</DistanceMeters>
          </Trackpoint>
          <Trackpoint>
            <Time>2023-02-23T11:01:44.000Z</Time>
            <Position>
              <LatitudeDegrees>41.5340815298259258270263671875</LatitudeDegrees>
              <LongitudeDegrees>-4.5578903518617153167724609375</LongitudeDegrees>
            </Position>
            <AltitudeMeters>1245.800048828125</AltitudeMeters>
            <DistanceMeters>12040.288847182</DistanceMeters>
          </Trackpoint>
          <Trackpoint>
            <Time>2023-02-23T11:01:49.000Z</Time>
            <Position>
              <LatitudeDegrees>41.5340258739888668060302734375</LatitudeDegrees>
              <LongitudeDegrees>-4.5579674653708934783935546875</LongitudeDegrees>
            </Position>
            <AltitudeMeters>1245.4000244140625</AltitudeMeters>
            <DistanceMeters>12049.213773193</DistanceMeters>
          </Trackpoint>
          <Trackpoint>
            <Time>2023-02-23T11:01:56.000Z</Time>
            <Position>
              <LatitudeDegrees>41.53394917957484722137451171875</LatitudeDegrees>
              <LongitudeDegrees>-4.55810082145035266876220703125</LongitudeDegrees>
            </Position>
            <AltitudeMeters>1245.800048828125</AltitudeMeters>
            <DistanceMeters>12063.225300304</DistanceMeters>
          </Trackpoint>
          <Trackpoint>
            <Time>2023-02-23T11:02:00.000Z</Time>
            <Position>
              <LatitudeDegrees>41.5338827110826969146728515625</LatitudeDegrees>
              <LongitudeDegrees>-4.558183886110782623291015625</LongitudeDegrees>
            </Position>
            <AltitudeMeters>1245.5999755859375</AltitudeMeters>
            <DistanceMeters>12073.356235545</DistanceMeters>
          </Trackpoint>
          <Trackpoint>
            <Time>2023-02-23T11:02:03.000Z</Time>
            <Position>
              <LatitudeDegrees>41.53384021483361721038818359375</LatitudeDegrees>
              <LongitudeDegrees>-4.558238200843334197998046875</LongitudeDegrees>
            </Position>
            <AltitudeMeters>1245.4000244140625</AltitudeMeters>
            <DistanceMeters>12079.902741697</DistanceMeters>
          </Trackpoint>
          <Trackpoint>
            <Time>2023-02-23T11:02:08.000Z</Time>
            <Position>
              <LatitudeDegrees>41.5337640233337879180908203125</LatitudeDegrees>
              <LongitudeDegrees>-4.55831430852413177490234375</LongitudeDegrees>
            </Position>
            <AltitudeMeters>1245.4000244140625</AltitudeMeters>
            <DistanceMeters>12090.491293493</DistanceMeters>
          </Trackpoint>
          <Trackpoint>
            <Time>2023-02-23T11:02:09.000Z</Time>
            <Position>
              <LatitudeDegrees>41.53374834917485713958740234375</LatitudeDegrees>
              <LongitudeDegrees>-4.5583275519311428070068359375</LongitudeDegrees>
            </Position>
            <AltitudeMeters>1245.199951171875</AltitudeMeters>
            <DistanceMeters>12092.555802171</DistanceMeters>
          </Trackpoint>
          <Trackpoint>
            <Time>2023-02-23T11:02:15.000Z</Time>
            <Position>
              <LatitudeDegrees>41.533670313656330108642578125</LatitudeDegrees>
              <LongitudeDegrees>-4.558417908847332000732421875</LongitudeDegrees>
            </Position>
            <AltitudeMeters>1245</AltitudeMeters>
            <DistanceMeters>12104.049714402</DistanceMeters>
          </Trackpoint>
          <Trackpoint>
            <Time>2023-02-23T11:02:17.000Z</Time>
            <Position>
              <LatitudeDegrees>41.533638127148151397705078125</LatitudeDegrees>
              <LongitudeDegrees>-4.55844045616686344146728515625</LongitudeDegrees>
            </Position>
            <AltitudeMeters>1245</AltitudeMeters>
            <DistanceMeters>12108.095888965</DistanceMeters>
          </Trackpoint>
          <Trackpoint>
            <Time>2023-02-23T11:02:18.000Z</Time>
            <Position>
              <LatitudeDegrees>41.5336232073605060577392578125</LatitudeDegrees>
              <LongitudeDegrees>-4.55845135264098644256591796875</LongitudeDegrees>
            </Position>
            <AltitudeMeters>1245</AltitudeMeters>
            <DistanceMeters>12109.986896704</DistanceMeters>
          </Trackpoint>
          <Trackpoint>
            <Time>2023-02-23T11:02:22.000Z</Time>
            <Position>
              <LatitudeDegrees>41.53355908580124378204345703125</LatitudeDegrees>
              <LongitudeDegrees>-4.55848253332078456878662109375</LongitudeDegrees>
            </Position>
            <AltitudeMeters>1244.800048828125</AltitudeMeters>
            <DistanceMeters>12117.581903507</DistanceMeters>
          </Trackpoint>
          <Trackpoint>
            <Time>2023-02-23T11:02:28.000Z</Time>
            <Position>
              <LatitudeDegrees>41.5335387177765369415283203125</LatitudeDegrees>
              <LongitudeDegrees>-4.558491669595241546630859375</LongitudeDegrees>
            </Position>
            <AltitudeMeters>1244.4000244140625</AltitudeMeters>
            <DistanceMeters>12119.974615037</DistanceMeters>
          </Trackpoint>
          <Trackpoint>
            <Time>2023-02-23T11:02:30.000Z</Time>
            <Position>
              <LatitudeDegrees>41.53352874331176280975341796875</LatitudeDegrees>
              <LongitudeDegrees>-4.55850080586969852447509765625</LongitudeDegrees>
            </Position>
            <AltitudeMeters>1244.4000244140625</AltitudeMeters>
            <DistanceMeters>12121.318495719</DistanceMeters>
          </Trackpoint>
          <Trackpoint>
            <Time>2023-02-23T11:02:31.000Z</Time>
            <Position>
              <LatitudeDegrees>41.53352119959890842437744140625</LatitudeDegrees>
              <LongitudeDegrees>-4.5585116185247898101806640625</LongitudeDegrees>
            </Position>
            <AltitudeMeters>1244.4000244140625</AltitudeMeters>
            <DistanceMeters>12122.55018271</DistanceMeters>
          </Trackpoint>
          <Trackpoint>
            <Time>2023-02-23T11:02:33.000Z</Time>
            <Position>
              <LatitudeDegrees>41.533518098294734954833984375</LatitudeDegrees>
              <LongitudeDegrees>-4.5585320703685283660888671875</LongitudeDegrees>
            </Position>
            <AltitudeMeters>1244.4000244140625</AltitudeMeters>
            <DistanceMeters>12124.289457158</DistanceMeters>
          </Trackpoint>
          <Trackpoint>
            <Time>2023-02-23T11:02:41.000Z</Time>
            <Position>
              <LatitudeDegrees>41.53348633088171482086181640625</LatitudeDegrees>
              <LongitudeDegrees>-4.558647572994232177734375</LongitudeDegrees>
            </Position>
            <AltitudeMeters>1244.4000244140625</AltitudeMeters>
            <DistanceMeters>12134.54177835</DistanceMeters>
          </Trackpoint>
          <Trackpoint>
            <Time>2023-02-23T11:02:43.000Z</Time>
            <Position>
              <LatitudeDegrees>41.5334860794246196746826171875</LatitudeDegrees>
              <LongitudeDegrees>-4.55868336372077465057373046875</LongitudeDegrees>
            </Position>
            <AltitudeMeters>1244.4000244140625</AltitudeMeters>
            <DistanceMeters>12137.525677707</DistanceMeters>
          </Trackpoint>
          <Trackpoint>
            <Time>2023-02-23T11:02:45.000Z</Time>
            <Position>
              <LatitudeDegrees>41.533478200435638427734375</LatitudeDegrees>
              <LongitudeDegrees>-4.558713622391223907470703125</LongitudeDegrees>
            </Position>
            <AltitudeMeters>1244.5999755859375</AltitudeMeters>
            <DistanceMeters>12140.194896753</DistanceMeters>
          </Trackpoint>
          <Trackpoint>
            <Time>2023-02-23T11:02:51.000Z</Time>
            <Position>
              <LatitudeDegrees>41.53345615603029727935791015625</LatitudeDegrees>
              <LongitudeDegrees>-4.55880221910774707794189453125</LongitudeDegrees>
            </Position>
            <AltitudeMeters>1244.5999755859375</AltitudeMeters>
            <DistanceMeters>12147.973168551</DistanceMeters>
          </Trackpoint>
          <Trackpoint>
            <Time>2023-02-23T11:02:55.000Z</Time>
            <Position>
              <LatitudeDegrees>41.5334438346326351165771484375</LatitudeDegrees>
              <LongitudeDegrees>-4.5588648319244384765625</LongitudeDegrees>
            </Position>
            <AltitudeMeters>1244.5999755859375</AltitudeMeters>
            <DistanceMeters>12153.36713799</DistanceMeters>
          </Trackpoint>
          <Trackpoint>
            <Time>2023-02-23T11:02:57.000Z</Time>
            <Position>
              <LatitudeDegrees>41.5334367938339710235595703125</LatitudeDegrees>
              <LongitudeDegrees>-4.55888687632977962493896484375</LongitudeDegrees>
            </Position>
            <AltitudeMeters>1244.800048828125</AltitudeMeters>
            <DistanceMeters>12155.364960251</DistanceMeters>
          </Trackpoint>
          <Trackpoint>
            <Time>2023-02-23T11:02:58.000Z</Time>
            <Position>
              <LatitudeDegrees>41.53342832811176776885986328125</LatitudeDegrees>
              <LongitudeDegrees>-4.5588924922049045562744140625</LongitudeDegrees>
            </Position>
            <AltitudeMeters>1245</AltitudeMeters>
            <DistanceMeters>12156.414564618</DistanceMeters>
          </Trackpoint>
          <Trackpoint>
            <Time>2023-02-23T11:03:03.000Z</Time>
            <Position>
              <LatitudeDegrees>41.53339429758489131927490234375</LatitudeDegrees>
              <LongitudeDegrees>-4.5588606409728527069091796875</LongitudeDegrees>
            </Position>
            <AltitudeMeters>1245</AltitudeMeters>
            <DistanceMeters>12161.038764118</DistanceMeters>
          </Trackpoint>
          <Trackpoint>
            <Time>2023-02-23T11:03:04.000Z</Time>
            <Position>
              <LatitudeDegrees>41.533388011157512664794921875</LatitudeDegrees>
              <LongitudeDegrees>-4.5588465593755245208740234375</LongitudeDegrees>
            </Position>
            <AltitudeMeters>1245</AltitudeMeters>
            <DistanceMeters>12162.40265405</DistanceMeters>
          </Trackpoint>
          <Trackpoint>
            <Time>2023-02-23T11:03:08.000Z</Time>
            <Position>
              <LatitudeDegrees>41.533355154097080230712890625</LatitudeDegrees>
              <LongitudeDegrees>-4.5587996207177639007568359375</LongitudeDegrees>
            </Position>
            <AltitudeMeters>1245.4000244140625</AltitudeMeters>
            <DistanceMeters>12167.757137472</DistanceMeters>
          </Trackpoint>
          <Trackpoint>
            <Time>2023-02-23T11:03:09.000Z</Time>
            <Position>
              <LatitudeDegrees>41.5333435870707035064697265625</LatitudeDegrees>
              <LongitudeDegrees>-4.5587925799190998077392578125</LongitudeDegrees>
            </Position>
            <AltitudeMeters>1245.5999755859375</AltitudeMeters>
            <DistanceMeters>12169.173003627</DistanceMeters>
          </Trackpoint>
          <Trackpoint>
            <Time>2023-02-23T11:03:11.000Z</Time>
            <Position>
              <LatitudeDegrees>41.53332422487437725067138671875</LatitudeDegrees>
              <LongitudeDegrees>-4.55878646112978458404541015625</LongitudeDegrees>
            </Position>
            <AltitudeMeters>1245.4000244140625</AltitudeMeters>
            <DistanceMeters>12171.387350373</DistanceMeters>
          </Trackpoint>
          <Trackpoint>
            <Time>2023-02-23T11:03:16.000Z</Time>
            <Position>
              <LatitudeDegrees>41.53329924680292606353759765625</LatitudeDegrees>
              <LongitudeDegrees>-4.55879165790975093841552734375</LongitudeDegrees>
            </Position>
            <AltitudeMeters>1245.800048828125</AltitudeMeters>
            <DistanceMeters>12174.203093102</DistanceMeters>
          </Trackpoint>
          <Trackpoint>
            <Time>2023-02-23T11:03:17.000Z</Time>
            <Position>
              <LatitudeDegrees>41.5332909487187862396240234375</LatitudeDegrees>
              <LongitudeDegrees>-4.5587945915758609771728515625</LongitudeDegrees>
            </Position>
            <AltitudeMeters>1246</AltitudeMeters>
            <DistanceMeters>12175.162815873</DistanceMeters>
          </Trackpoint>
          <Trackpoint>
            <Time>2023-02-23T11:03:19.000Z</Time>
            <Position>
              <LatitudeDegrees>41.533282734453678131103515625</LatitudeDegrees>
              <LongitudeDegrees>-4.55879517830908298492431640625</LongitudeDegrees>
            </Position>
            <AltitudeMeters>1246</AltitudeMeters>
            <DistanceMeters>12176.079220319</DistanceMeters>
          </Trackpoint>
          <Trackpoint>
            <Time>2023-02-23T11:03:22.000Z</Time>
            <Position>
              <LatitudeDegrees>41.53327007777988910675048828125</LatitudeDegrees>
              <LongitudeDegrees>-4.55878646112978458404541015625</LongitudeDegrees>
            </Position>
            <AltitudeMeters>1245.800048828125</AltitudeMeters>
            <DistanceMeters>12177.663632277</DistanceMeters>
          </Trackpoint>
          <Trackpoint>
            <Time>2023-02-23T11:03:23.000Z</Time>
            <Position>
              <LatitudeDegrees>41.53326253406703472137451171875</LatitudeDegrees>
              <LongitudeDegrees>-4.558781683444976806640625</LongitudeDegrees>
            </Position>
            <AltitudeMeters>1245.800048828125</AltitudeMeters>
            <DistanceMeters>12178.584950455</DistanceMeters>
          </Trackpoint>
          <Trackpoint>
            <Time>2023-02-23T11:03:27.000Z</Time>
            <Position>
              <LatitudeDegrees>41.5332259051501750946044921875</LatitudeDegrees>
              <LongitudeDegrees>-4.558777324855327606201171875</LongitudeDegrees>
            </Position>
            <AltitudeMeters>1246</AltitudeMeters>
            <DistanceMeters>12182.678826599</DistanceMeters>
          </Trackpoint>
          <Trackpoint>
            <Time>2023-02-23T11:03:35.000Z</Time>
            <Position>
              <LatitudeDegrees>41.533166728913784027099609375</LatitudeDegrees>
              <LongitudeDegrees>-4.55875880084931850433349609375</LongitudeDegrees>
            </Position>
            <AltitudeMeters>1246.4000244140625</AltitudeMeters>
            <DistanceMeters>12189.44376765</DistanceMeters>
          </Trackpoint>
          <Trackpoint>
            <Time>2023-02-23T11:03:36.000Z</Time>
            <Position>
              <LatitudeDegrees>41.53315725736320018768310546875</LatitudeDegrees>
              <LongitudeDegrees>-4.5587536878883838653564453125</LongitudeDegrees>
            </Position>
            <AltitudeMeters>1246.5999755859375</AltitudeMeters>
            <DistanceMeters>12190.580121878</DistanceMeters>
          </Trackpoint>
          <Trackpoint>
            <Time>2023-02-23T11:03:40.000Z</Time>
            <Position>
              <LatitudeDegrees>41.53312808834016323089599609375</LatitudeDegrees>
              <LongitudeDegrees>-4.55874488689005374908447265625</LongitudeDegrees>
            </Position>
            <AltitudeMeters>1247.199951171875</AltitudeMeters>
            <DistanceMeters>12193.907414128</DistanceMeters>
          </Trackpoint>
          <Trackpoint>
            <Time>2023-02-23T11:03:42.000Z</Time>
            <Position>
              <LatitudeDegrees>41.533109731972217559814453125</LatitudeDegrees>
              <LongitudeDegrees>-4.55874522216618061065673828125</LongitudeDegrees>
            </Position>
            <AltitudeMeters>1247.4000244140625</AltitudeMeters>
            <DistanceMeters>12195.947724213</DistanceMeters>
          </Trackpoint>
          <Trackpoint>
            <Time>2023-02-23T11:03:43.000Z</Time>
            <Position>
              <LatitudeDegrees>41.5331028588116168975830078125</LatitudeDegrees>
              <LongitudeDegrees>-4.5587466470897197723388671875</LongitudeDegrees>
            </Position>
            <AltitudeMeters>1247.5999755859375</AltitudeMeters>
            <DistanceMeters>12196.71972489</DistanceMeters>
          </Trackpoint>
          <Trackpoint>
            <Time>2023-02-23T11:03:44.000Z</Time>
            <Position>
              <LatitudeDegrees>41.5330941416323184967041015625</LatitudeDegrees>
              <LongitudeDegrees>-4.55874891020357608795166015625</LongitudeDegrees>
            </Position>
            <AltitudeMeters>1247.5999755859375</AltitudeMeters>
            <DistanceMeters>12197.707271474</DistanceMeters>
          </Trackpoint>
          <Trackpoint>
            <Time>2023-02-23T11:03:47.000Z</Time>
            <Position>
              <LatitudeDegrees>41.5330706723034381866455078125</LatitudeDegrees>
              <LongitudeDegrees>-4.55875863321125507354736328125</LongitudeDegrees>
            </Position>
            <AltitudeMeters>1248</AltitudeMeters>
            <DistanceMeters>12200.443314853</DistanceMeters>
          </Trackpoint>
          <Trackpoint>
            <Time>2023-02-23T11:03:51.000Z</Time>
            <Position>
              <LatitudeDegrees>41.53303421102464199066162109375</LatitudeDegrees>
              <LongitudeDegrees>-4.55877942033112049102783203125</LongitudeDegrees>
            </Position>
            <AltitudeMeters>1247.800048828125</AltitudeMeters>
            <DistanceMeters>12204.855666246</DistanceMeters>
          </Trackpoint>
          <Trackpoint>
            <Time>2023-02-23T11:03:52.000Z</Time>
            <Position>
              <LatitudeDegrees>41.5330247394740581512451171875</LatitudeDegrees>
              <LongitudeDegrees>-4.55878495238721370697021484375</LongitudeDegrees>
            </Position>
            <AltitudeMeters>1247.800048828125</AltitudeMeters>
            <DistanceMeters>12206.007803927</DistanceMeters>
          </Trackpoint>
          <Trackpoint>
            <Time>2023-02-23T11:03:59.000Z</Time>
            <Position>
              <LatitudeDegrees>41.532970927655696868896484375</LatitudeDegrees>
              <LongitudeDegrees>-4.55884211696684360504150390625</LongitudeDegrees>
            </Position>
            <AltitudeMeters>1248.199951171875</AltitudeMeters>
            <DistanceMeters>12213.660257504</DistanceMeters>
          </Trackpoint>
          <Trackpoint>
            <Time>2023-02-23T11:04:00.000Z</Time>
            <Position>
              <LatitudeDegrees>41.53296464122831821441650390625</LatitudeDegrees>
              <LongitudeDegrees>-4.55885586328804492950439453125</LongitudeDegrees>
            </Position>
            <AltitudeMeters>1248.199951171875</AltitudeMeters>
            <DistanceMeters>12215.004138186</DistanceMeters>
          </Trackpoint>
          <Trackpoint>
            <Time>2023-02-23T11:04:01.000Z</Time>
            <Position>
              <LatitudeDegrees>41.53295944444835186004638671875</LatitudeDegrees>
              <LongitudeDegrees>-4.55886776559054851531982421875</LongitudeDegrees>
            </Position>
            <AltitudeMeters>1248.199951171875</AltitudeMeters>
            <DistanceMeters>12216.152350345</DistanceMeters>
          </Trackpoint>
          <Trackpoint>
            <Time>2023-02-23T11:04:02.000Z</Time>
            <Position>
              <LatitudeDegrees>41.53295190073549747467041015625</LatitudeDegrees>
              <LongitudeDegrees>-4.5588769018650054931640625</LongitudeDegrees>
            </Position>
            <AltitudeMeters>1248.4000244140625</AltitudeMeters>
            <DistanceMeters>12217.284724335</DistanceMeters>
          </Trackpoint>
          <Trackpoint>
            <Time>2023-02-23T11:04:06.000Z</Time>
            <Position>
              <LatitudeDegrees>41.53291183523833751678466796875</LatitudeDegrees>
              <LongitudeDegrees>-4.55890850163996219635009765625</LongitudeDegrees>
            </Position>
            <AltitudeMeters>1248.4000244140625</AltitudeMeters>
            <DistanceMeters>12222.463462313</DistanceMeters>
          </Trackpoint>
          <Trackpoint>
            <Time>2023-02-23T11:04:11.000Z</Time>
            <Position>
              <LatitudeDegrees>41.532875709235668182373046875</LatitudeDegrees>
              <LongitudeDegrees>-4.558922164142131805419921875</LongitudeDegrees>
            </Position>
            <AltitudeMeters>1248.4000244140625</AltitudeMeters>
            <DistanceMeters>12226.640316116</DistanceMeters>
          </Trackpoint>
          <Trackpoint>
            <Time>2023-02-23T11:04:12.000Z</Time>
            <Position>
              <LatitudeDegrees>41.5328651480376720428466796875</LatitudeDegrees>
              <LongitudeDegrees>-4.5589226670563220977783203125</LongitudeDegrees>
            </Position>
            <AltitudeMeters>1248.4000244140625</AltitudeMeters>
            <DistanceMeters>12227.815731657</DistanceMeters>
          </Trackpoint>
          <Trackpoint>
            <Time>2023-02-23T11:04:20.000Z</Time>
            <Position>
              <LatitudeDegrees>41.53281292878091335296630859375</LatitudeDegrees>
              <LongitudeDegrees>-4.55899014137685298919677734375</LongitudeDegrees>
            </Position>
            <AltitudeMeters>1248.5999755859375</AltitudeMeters>
            <DistanceMeters>12235.901941123</DistanceMeters>
          </Trackpoint>
          <Trackpoint>
            <Time>2023-02-23T11:04:22.000Z</Time>
            <Position>
              <LatitudeDegrees>41.53280504979193210601806640625</LatitudeDegrees>
              <LongitudeDegrees>-4.5590141974389553070068359375</LongitudeDegrees>
            </Position>
            <AltitudeMeters>1248.4000244140625</AltitudeMeters>
            <DistanceMeters>12238.089620377</DistanceMeters>
          </Trackpoint>
          <Trackpoint>
            <Time>2023-02-23T11:04:24.000Z</Time>
            <Position>
              <LatitudeDegrees>41.5327942371368408203125</LatitudeDegrees>
              <LongitudeDegrees>-4.5590396784245967864990234375</LongitudeDegrees>
            </Position>
            <AltitudeMeters>1248.5999755859375</AltitudeMeters>
            <DistanceMeters>12240.527199155</DistanceMeters>
          </Trackpoint>
          <Trackpoint>
            <Time>2023-02-23T11:04:28.000Z</Time>
            <Position>
              <LatitudeDegrees>41.53276917524635791778564453125</LatitudeDegrees>
              <LongitudeDegrees>-4.559087119996547698974609375</LongitudeDegrees>
            </Position>
            <AltitudeMeters>1248.800048828125</AltitudeMeters>
            <DistanceMeters>12245.363302751</DistanceMeters>
          </Trackpoint>
          <Trackpoint>
            <Time>2023-02-23T11:04:29.000Z</Time>
            <Position>
              <LatitudeDegrees>41.532761715352535247802734375</LatitudeDegrees>
              <LongitudeDegrees>-4.55909441225230693817138671875</LongitudeDegrees>
            </Position>
            <AltitudeMeters>1249</AltitudeMeters>
            <DistanceMeters>12246.386771787</DistanceMeters>
          </Trackpoint>
          <Trackpoint>
            <Time>2023-02-23T11:04:30.000Z</Time>
            <Position>
              <LatitudeDegrees>41.532756350934505462646484375</LatitudeDegrees>
              <LongitudeDegrees>-4.55910547636449337005615234375</LongitudeDegrees>
            </Position>
            <AltitudeMeters>1248.800048828125</AltitudeMeters>
            <DistanceMeters>12247.482673318</DistanceMeters>
          </Trackpoint>
          <Trackpoint>
            <Time>2023-02-23T11:04:32.000Z</Time>
            <Position>
              <LatitudeDegrees>41.5327478013932704925537109375</LatitudeDegrees>
              <LongitudeDegrees>-4.55912743695080280303955078125</LongitudeDegrees>
            </Position>
            <AltitudeMeters>1249.199951171875</AltitudeMeters>
            <DistanceMeters>12249.547181996</DistanceMeters>
          </Trackpoint>
          <Trackpoint>
            <Time>2023-02-23T11:04:36.000Z</Time>
            <Position>
              <LatitudeDegrees>41.53273195959627628326416015625</LatitudeDegrees>
              <LongitudeDegrees>-4.55916699953377246856689453125</LongitudeDegrees>
            </Position>
            <AltitudeMeters>1249.4000244140625</AltitudeMeters>
            <DistanceMeters>12253.284765207</DistanceMeters>
          </Trackpoint>
          <Trackpoint>
            <Time>2023-02-23T11:04:37.000Z</Time>
            <Position>
              <LatitudeDegrees>41.53272449970245361328125</LatitudeDegrees>
              <LongitudeDegrees>-4.5591761358082294464111328125</LongitudeDegrees>
            </Position>
            <AltitudeMeters>1249.5999755859375</AltitudeMeters>
            <DistanceMeters>12254.409136455</DistanceMeters>
          </Trackpoint>
          <Trackpoint>
            <Time>2023-02-23T11:04:45.000Z</Time>
            <Position>
              <LatitudeDegrees>41.532676219940185546875</LatitudeDegrees>
              <LongitudeDegrees>-4.5592572726309299468994140625</LongitudeDegrees>
            </Position>
            <AltitudeMeters>1249.199951171875</AltitudeMeters>
            <DistanceMeters>12263.044550242</DistanceMeters>
          </Trackpoint>
          <Trackpoint>
            <Time>2023-02-23T11:04:49.000Z</Time>
            <Position>
              <LatitudeDegrees>41.5326549299061298370361328125</LatitudeDegrees>
              <LongitudeDegrees>-4.55928719602525234222412109375</LongitudeDegrees>
            </Position>
            <AltitudeMeters>1249</AltitudeMeters>
            <DistanceMeters>12266.483939743</DistanceMeters>
          </Trackpoint>
          <Trackpoint>
            <Time>2023-02-23T11:04:52.000Z</Time>
            <Position>
              <LatitudeDegrees>41.5326378308236598968505859375</LatitudeDegrees>
              <LongitudeDegrees>-4.55930580385029315948486328125</LongitudeDegrees>
            </Position>
            <AltitudeMeters>1249</AltitudeMeters>
            <DistanceMeters>12268.938132276</DistanceMeters>
          </Trackpoint>
          <Trackpoint>
            <Time>2023-02-23T11:04:53.000Z</Time>
            <Position>
              <LatitudeDegrees>41.5326317958533763885498046875</LatitudeDegrees>
              <LongitudeDegrees>-4.55931116826832294464111328125</LongitudeDegrees>
            </Position>
            <AltitudeMeters>1249</AltitudeMeters>
            <DistanceMeters>12269.744460686</DistanceMeters>
          </Trackpoint>
          <Trackpoint>
            <Time>2023-02-23T11:04:57.000Z</Time>
            <Position>
              <LatitudeDegrees>41.532600782811641693115234375</LatitudeDegrees>
              <LongitudeDegrees>-4.5593596994876861572265625</LongitudeDegrees>
            </Position>
            <AltitudeMeters>1248.800048828125</AltitudeMeters>
            <DistanceMeters>12275.060863536</DistanceMeters>
          </Trackpoint>
          <Trackpoint>
            <Time>2023-02-23T11:04:59.000Z</Time>
            <Position>
              <LatitudeDegrees>41.53258980251848697662353515625</LatitudeDegrees>
              <LongitudeDegrees>-4.5594007708132266998291015625</LongitudeDegrees>
            </Position>
            <AltitudeMeters>1248.4000244140625</AltitudeMeters>
            <DistanceMeters>12278.694315306</DistanceMeters>
          </Trackpoint>
          <Trackpoint>
            <Time>2023-02-23T11:05:00.000Z</Time>
            <Position>
              <LatitudeDegrees>41.53259105980396270751953125</LatitudeDegrees>
              <LongitudeDegrees>-4.55941493622958660125732421875</LongitudeDegrees>
            </Position>
            <AltitudeMeters>1248.4000244140625</AltitudeMeters>
            <DistanceMeters>12279.881198588</DistanceMeters>
          </Trackpoint>
          <Trackpoint>
            <Time>2023-02-23T11:05:06.000Z</Time>
            <Position>
              <LatitudeDegrees>41.532605476677417755126953125</LatitudeDegrees>
              <LongitudeDegrees>-4.559457264840602874755859375</LongitudeDegrees>
            </Position>
            <AltitudeMeters>1248.5999755859375</AltitudeMeters>
            <DistanceMeters>12283.75521292</DistanceMeters>
          </Trackpoint>
          <Trackpoint>
            <Time>2023-02-23T11:05:07.000Z</Time>
            <Position>
              <LatitudeDegrees>41.5326143614947795867919921875</LatitudeDegrees>
              <LongitudeDegrees>-4.5594643056392669677734375</LongitudeDegrees>
            </Position>
            <AltitudeMeters>1248.5999755859375</AltitudeMeters>
            <DistanceMeters>12284.903425079</DistanceMeters>
          </Trackpoint>
          <Trackpoint>
            <Time>2023-02-23T11:05:11.000Z</Time>
            <Position>
              <LatitudeDegrees>41.5326616354286670684814453125</LatitudeDegrees>
              <LongitudeDegrees>-4.559511579573154449462890625</LongitudeDegrees>
            </Position>
            <AltitudeMeters>1248.4000244140625</AltitudeMeters>
            <DistanceMeters>12291.476087074</DistanceMeters>
          </Trackpoint>
          <Trackpoint>
            <Time>2023-02-23T11:05:17.000Z</Time>
            <Position>
              <LatitudeDegrees>41.53273187577724456787109375</LatitudeDegrees>
              <LongitudeDegrees>-4.55965516157448291778564453125</LongitudeDegrees>
            </Position>
            <AltitudeMeters>1247.800048828125</AltitudeMeters>
            <DistanceMeters>12305.766790656</DistanceMeters>
          </Trackpoint>
          <Trackpoint>
            <Time>2023-02-23T11:05:20.000Z</Time>
            <Position>
              <LatitudeDegrees>41.5327263437211513519287109375</LatitudeDegrees>
              <LongitudeDegrees>-4.55974434502422809600830078125</LongitudeDegrees>
            </Position>
            <AltitudeMeters>1247.199951171875</AltitudeMeters>
            <DistanceMeters>12313.22139262</DistanceMeters>
          </Trackpoint>
          <Trackpoint>
            <Time>2023-02-23T11:05:22.000Z</Time>
            <Position>
              <LatitudeDegrees>41.53271871618926525115966796875</LatitudeDegrees>
              <LongitudeDegrees>-4.5598027668893337249755859375</LongitudeDegrees>
            </Position>
            <AltitudeMeters>1247</AltitudeMeters>
            <DistanceMeters>12318.162781767</DistanceMeters>
          </Trackpoint>
          <Trackpoint>
            <Time>2023-02-23T11:05:26.000Z</Time>
            <Position>
              <LatitudeDegrees>41.5326844342052936553955078125</LatitudeDegrees>
              <LongitudeDegrees>-4.559891782701015472412109375</LongitudeDegrees>
            </Position>
            <AltitudeMeters>1247</AltitudeMeters>
            <DistanceMeters>12326.50350769</DistanceMeters>
          </Trackpoint>
          <Trackpoint>
            <Time>2023-02-23T11:05:28.000Z</Time>
            <Position>
              <LatitudeDegrees>41.53265752829611301422119140625</LatitudeDegrees>
              <LongitudeDegrees>-4.55994509160518646240234375</LongitudeDegrees>
            </Position>
            <AltitudeMeters>1246.5999755859375</AltitudeMeters>
            <DistanceMeters>12331.860520191</DistanceMeters>
          </Trackpoint>
          <Trackpoint>
            <Time>2023-02-23T11:05:35.000Z</Time>
            <Position>
              <LatitudeDegrees>41.53259466402232646942138671875</LatitudeDegrees>
              <LongitudeDegrees>-4.5601189322769641876220703125</LongitudeDegrees>
            </Position>
            <AltitudeMeters>1246.5999755859375</AltitudeMeters>
            <DistanceMeters>12347.946160074</DistanceMeters>
          </Trackpoint>
          <Trackpoint>
            <Time>2023-02-23T11:05:39.000Z</Time>
            <Position>
              <LatitudeDegrees>41.53254789300262928009033203125</LatitudeDegrees>
              <LongitudeDegrees>-4.560188166797161102294921875</LongitudeDegrees>
            </Position>
            <AltitudeMeters>1246.199951171875</AltitudeMeters>
            <DistanceMeters>12355.71630107</DistanceMeters>
          </Trackpoint>
          <Trackpoint>
            <Time>2023-02-23T11:05:42.000Z</Time>
            <Position>
              <LatitudeDegrees>41.5325064025819301605224609375</LatitudeDegrees>
              <LongitudeDegrees>-4.56023787148296833038330078125</LongitudeDegrees>
            </Position>
            <AltitudeMeters>1245.5999755859375</AltitudeMeters>
            <DistanceMeters>12361.918568853</DistanceMeters>
          </Trackpoint>
          <Trackpoint>
            <Time>2023-02-23T11:05:48.000Z</Time>
            <Position>
              <LatitudeDegrees>41.53241747058928012847900390625</LatitudeDegrees>
              <LongitudeDegrees>-4.560308866202831268310546875</LongitudeDegrees>
            </Position>
            <AltitudeMeters>1245.199951171875</AltitudeMeters>
            <DistanceMeters>12373.449738596</DistanceMeters>
          </Trackpoint>
          <Trackpoint>
            <Time>2023-02-23T11:05:49.000Z</Time>
            <Position>
              <LatitudeDegrees>41.53240355663001537322998046875</LatitudeDegrees>
              <LongitudeDegrees>-4.56032353453338146209716796875</LongitudeDegrees>
            </Position>
            <AltitudeMeters>1245.199951171875</AltitudeMeters>
            <DistanceMeters>12375.422544452</DistanceMeters>
          </Trackpoint>
          <Trackpoint>
            <Time>2023-02-23T11:05:55.000Z</Time>
            <Position>
              <LatitudeDegrees>41.53232610784471035003662109375</LatitudeDegrees>
              <LongitudeDegrees>-4.56037868745625019073486328125</LongitudeDegrees>
            </Position>
            <AltitudeMeters>1245.199951171875</AltitudeMeters>
            <DistanceMeters>12385.190440219</DistanceMeters>
          </Trackpoint>
          <Trackpoint>
            <Time>2023-02-23T11:05:57.000Z</Time>
            <Position>
              <LatitudeDegrees>41.53230448253452777862548828125</LatitudeDegrees>
              <LongitudeDegrees>-4.56040064804255962371826171875</LongitudeDegrees>
            </Position>
            <AltitudeMeters>1245.199951171875</AltitudeMeters>
            <DistanceMeters>12388.213425062</DistanceMeters>
          </Trackpoint>
          <Trackpoint>
            <Time>2023-02-23T11:05:59.000Z</Time>
            <Position>
              <LatitudeDegrees>41.53226039372384548187255859375</LatitudeDegrees>
              <LongitudeDegrees>-4.560426883399486541748046875</LongitudeDegrees>
            </Position>
            <AltitudeMeters>1245.199951171875</AltitudeMeters>
            <DistanceMeters>12393.58558704</DistanceMeters>
          </Trackpoint>
          <Trackpoint>
            <Time>2023-02-23T11:06:00.000Z</Time>
            <Position>
              <LatitudeDegrees>41.5322344936430454254150390625</LatitudeDegrees>
              <LongitudeDegrees>-4.56044037826359272003173828125</LongitudeDegrees>
            </Position>
            <AltitudeMeters>1245.199951171875</AltitudeMeters>
            <DistanceMeters>12396.67943271</DistanceMeters>
          </Trackpoint>
          <Trackpoint>
            <Time>2023-02-23T11:06:03.000Z</Time>
            <Position>
              <LatitudeDegrees>41.5321751497685909271240234375</LatitudeDegrees>
              <LongitudeDegrees>-4.5604786835610866546630859375</LongitudeDegrees>
            </Position>
            <AltitudeMeters>1244.800048828125</AltitudeMeters>
            <DistanceMeters>12404.014362529</DistanceMeters>
          </Trackpoint>
          <Trackpoint>
            <Time>2023-02-23T11:06:06.000Z</Time>
            <Position>
              <LatitudeDegrees>41.53211471624672412872314453125</LatitudeDegrees>
              <LongitudeDegrees>-4.56051531247794628143310546875</LongitudeDegrees>
            </Position>
            <AltitudeMeters>1244.199951171875</AltitudeMeters>
            <DistanceMeters>12411.400817827</DistanceMeters>
          </Trackpoint>
          <Trackpoint>
            <Time>2023-02-23T11:06:07.000Z</Time>
            <Position>
              <LatitudeDegrees>41.53209845535457134246826171875</LatitudeDegrees>
              <LongitudeDegrees>-4.5605283044278621673583984375</LongitudeDegrees>
            </Position>
            <AltitudeMeters>1244</AltitudeMeters>
            <DistanceMeters>12413.510753297</DistanceMeters>
          </Trackpoint>
          <Trackpoint>
            <Time>2023-02-23T11:06:10.000Z</Time>
            <Position>
              <LatitudeDegrees>41.53205101378262042999267578125</LatitudeDegrees>
              <LongitudeDegrees>-4.560563005506992340087890625</LongitudeDegrees>
            </Position>
            <AltitudeMeters>1244</AltitudeMeters>
            <DistanceMeters>12419.530528772</DistanceMeters>
          </Trackpoint>
          <Trackpoint>
            <Time>2023-02-23T11:06:13.000Z</Time>
            <Position>
              <LatitudeDegrees>41.53199720196425914764404296875</LatitudeDegrees>
              <LongitudeDegrees>-4.56059343181550502777099609375</LongitudeDegrees>
            </Position>
            <AltitudeMeters>1244</AltitudeMeters>
            <DistanceMeters>12426.034827976</DistanceMeters>
          </Trackpoint>
          <Trackpoint>
            <Time>2023-02-23T11:06:14.000Z</Time>
            <Position>
              <LatitudeDegrees>41.53198094107210636138916015625</LatitudeDegrees>
              <LongitudeDegrees>-4.5606074295938014984130859375</LongitudeDegrees>
            </Position>
            <AltitudeMeters>1244</AltitudeMeters>
            <DistanceMeters>12428.189232602</DistanceMeters>
          </Trackpoint>
          <Trackpoint>
            <Time>2023-02-23T11:06:20.000Z</Time>
            <Position>
              <LatitudeDegrees>41.5319265425205230712890625</LatitudeDegrees>
              <LongitudeDegrees>-4.560706503689289093017578125</LongitudeDegrees>
            </Position>
            <AltitudeMeters>1243.4000244140625</AltitudeMeters>
            <DistanceMeters>12438.426569522</DistanceMeters>
          </Trackpoint>
          <Trackpoint>
            <Time>2023-02-23T11:06:23.000Z</Time>
            <Position>
              <LatitudeDegrees>41.53188371099531650543212890625</LatitudeDegrees>
              <LongitudeDegrees>-4.56074045039713382720947265625</LongitudeDegrees>
            </Position>
            <AltitudeMeters>1243.199951171875</AltitudeMeters>
            <DistanceMeters>12443.969160979</DistanceMeters>
          </Trackpoint>
          <Trackpoint>
            <Time>2023-02-23T11:06:26.000Z</Time>
            <Position>
              <LatitudeDegrees>41.5318291448056697845458984375</LatitudeDegrees>
              <LongitudeDegrees>-4.56078453920781612396240234375</LongitudeDegrees>
            </Position>
            <AltitudeMeters>1242.800048828125</AltitudeMeters>
            <DistanceMeters>12451.067599298</DistanceMeters>
          </Trackpoint>
          <Trackpoint>
            <Time>2023-02-23T11:06:27.000Z</Time>
            <Position>
              <LatitudeDegrees>41.531815230846405029296875</LatitudeDegrees>
              <LongitudeDegrees>-4.56080448813736438751220703125</LongitudeDegrees>
            </Position>
            <AltitudeMeters>1243</AltitudeMeters>
            <DistanceMeters>12453.340307754</DistanceMeters>
          </Trackpoint>
          <Trackpoint>
            <Time>2023-02-23T11:06:32.000Z</Time>
            <Position>
              <LatitudeDegrees>41.53174675069749355316162109375</LatitudeDegrees>
              <LongitudeDegrees>-4.56089794635772705078125</LongitudeDegrees>
            </Position>
            <AltitudeMeters>1242.5999755859375</AltitudeMeters>
            <DistanceMeters>12464.236520173</DistanceMeters>
          </Trackpoint>
          <Trackpoint>
            <Time>2023-02-23T11:06:33.000Z</Time>
            <Position>
              <LatitudeDegrees>41.53173568658530712127685546875</LatitudeDegrees>
              <LongitudeDegrees>-4.56092217005789279937744140625</LongitudeDegrees>
            </Position>
            <AltitudeMeters>1242.5999755859375</AltitudeMeters>
            <DistanceMeters>12466.600757327</DistanceMeters>
          </Trackpoint>
          <Trackpoint>
            <Time>2023-02-23T11:06:35.000Z</Time>
            <Position>
              <LatitudeDegrees>41.53172411955893039703369140625</LatitudeDegrees>
              <LongitudeDegrees>-4.56096676178276538848876953125</LongitudeDegrees>
            </Position>
            <AltitudeMeters>1242.4000244140625</AltitudeMeters>
            <DistanceMeters>12470.532613233</DistanceMeters>
          </Trackpoint>
          <Trackpoint>
            <Time>2023-02-23T11:06:38.000Z</Time>
            <Position>
              <LatitudeDegrees>41.5316863171756267547607421875</LatitudeDegrees>
              <LongitudeDegrees>-4.5610365830361843109130859375</LongitudeDegrees>
            </Position>
            <AltitudeMeters>1241.800048828125</AltitudeMeters>
            <DistanceMeters>12477.712005711</DistanceMeters>
          </Trackpoint>
          <Trackpoint>
            <Time>2023-02-23T11:06:40.000Z</Time>
            <Position>
              <LatitudeDegrees>41.5316822938621044158935546875</LatitudeDegrees>
              <LongitudeDegrees>-4.5610583759844303131103515625</LongitudeDegrees>
            </Position>
            <AltitudeMeters>1241.5999755859375</AltitudeMeters>
            <DistanceMeters>12479.583814905</DistanceMeters>
          </Trackpoint>
          <Trackpoint>
            <Time>2023-02-23T11:06:44.000Z</Time>
            <Position>
              <LatitudeDegrees>41.53167969547212123870849609375</LatitudeDegrees>
              <LongitudeDegrees>-4.56109215505421161651611328125</LongitudeDegrees>
            </Position>
            <AltitudeMeters>1241.5999755859375</AltitudeMeters>
            <DistanceMeters>12482.412356531</DistanceMeters>
          </Trackpoint>
          <Trackpoint>
            <Time>2023-02-23T11:06:45.000Z</Time>
            <Position>
              <LatitudeDegrees>41.5316792763769626617431640625</LatitudeDegrees>
              <LongitudeDegrees>-4.56110506318509578704833984375</LongitudeDegrees>
            </Position>
            <AltitudeMeters>1241.5999755859375</AltitudeMeters>
            <DistanceMeters>12483.487461077</DistanceMeters>
          </Trackpoint>
          <Trackpoint>
            <Time>2023-02-23T11:06:46.000Z</Time>
            <Position>
              <LatitudeDegrees>41.53167399577796459197998046875</LatitudeDegrees>
              <LongitudeDegrees>-4.56111830659210681915283203125</LongitudeDegrees>
            </Position>
            <AltitudeMeters>1241.5999755859375</AltitudeMeters>
            <DistanceMeters>12484.737342361</DistanceMeters>
          </Trackpoint>
          <Trackpoint>
            <Time>2023-02-23T11:06:52.000Z</Time>
            <Position>
              <LatitudeDegrees>41.53162605129182338714599609375</LatitudeDegrees>
              <LongitudeDegrees>-4.56119022332131862640380859375</LongitudeDegrees>
            </Position>
            <AltitudeMeters>1241.199951171875</AltitudeMeters>
            <DistanceMeters>12492.761334201</DistanceMeters>
          </Trackpoint>
          <Trackpoint>
            <Time>2023-02-23T11:06:53.000Z</Time>
            <Position>
              <LatitudeDegrees>41.53161683119833469390869140625</LatitudeDegrees>
              <LongitudeDegrees>-4.561200700700283050537109375</LongitudeDegrees>
            </Position>
            <AltitudeMeters>1241.199951171875</AltitudeMeters>
            <DistanceMeters>12494.111917572</DistanceMeters>
          </Trackpoint>
          <Trackpoint>
            <Time>2023-02-23T11:06:58.000Z</Time>
            <Position>
              <LatitudeDegrees>41.53156352229416370391845703125</LatitudeDegrees>
              <LongitudeDegrees>-4.5612712763249874114990234375</LongitudeDegrees>
            </Position>
            <AltitudeMeters>1240.800048828125</AltitudeMeters>
            <DistanceMeters>12502.465625177</DistanceMeters>
          </Trackpoint>
          <Trackpoint>
            <Time>2023-02-23T11:06:59.000Z</Time>
            <Position>
              <LatitudeDegrees>41.53156100772321224212646484375</LatitudeDegrees>
              <LongitudeDegrees>-4.56128192134201526641845703125</LongitudeDegrees>
            </Position>
            <AltitudeMeters>1240.5999755859375</AltitudeMeters>
            <DistanceMeters>12503.401529775</DistanceMeters>
          </Trackpoint>
          <Trackpoint>
            <Time>2023-02-23T11:07:02.000Z</Time>
            <Position>
              <LatitudeDegrees>41.53154105879366397857666015625</LatitudeDegrees>
              <LongitudeDegrees>-4.56131645478308200836181640625</LongitudeDegrees>
            </Position>
            <AltitudeMeters>1240.5999755859375</AltitudeMeters>
            <DistanceMeters>12507.037465956</DistanceMeters>
          </Trackpoint>
          <Trackpoint>
            <Time>2023-02-23T11:07:04.000Z</Time>
            <Position>
              <LatitudeDegrees>41.5315327607095241546630859375</LatitudeDegrees>
              <LongitudeDegrees>-4.56134109757840633392333984375</LongitudeDegrees>
            </Position>
            <AltitudeMeters>1240.4000244140625</AltitudeMeters>
            <DistanceMeters>12509.288215361</DistanceMeters>
          </Trackpoint>
          <Trackpoint>
            <Time>2023-02-23T11:07:05.000Z</Time>
            <Position>
              <LatitudeDegrees>41.5315295755863189697265625</LatitudeDegrees>
              <LongitudeDegrees>-4.5613539218902587890625</LongitudeDegrees>
            </Position>
            <AltitudeMeters>1240.4000244140625</AltitudeMeters>
            <DistanceMeters>12510.416595075</DistanceMeters>
          </Trackpoint>
          <Trackpoint>
            <Time>2023-02-23T11:07:06.000Z</Time>
            <Position>
              <LatitudeDegrees>41.53152630664408206939697265625</LatitudeDegrees>
              <LongitudeDegrees>-4.5613671652972698211669921875</LongitudeDegrees>
            </Position>
            <AltitudeMeters>1240.4000244140625</AltitudeMeters>
            <DistanceMeters>12511.580429886</DistanceMeters>
          </Trackpoint>
          <Trackpoint>
            <Time>2023-02-23T11:07:07.000Z</Time>
            <Position>
              <LatitudeDegrees>41.5315213613212108612060546875</LatitudeDegrees>
              <LongitudeDegrees>-4.56138015724718570709228515625</LongitudeDegrees>
            </Position>
            <AltitudeMeters>1240.4000244140625</AltitudeMeters>
            <DistanceMeters>12512.797365602</DistanceMeters>
          </Trackpoint>
          <Trackpoint>
            <Time>2023-02-23T11:07:13.000Z</Time>
            <Position>
              <LatitudeDegrees>41.5314717404544353485107421875</LatitudeDegrees>
              <LongitudeDegrees>-4.56144989468157291412353515625</LongitudeDegrees>
            </Position>
            <AltitudeMeters>1241.199951171875</AltitudeMeters>
            <DistanceMeters>12520.814602291</DistanceMeters>
          </Trackpoint>
          <Trackpoint>
            <Time>2023-02-23T11:07:19.000Z</Time>
            <Position>
              <LatitudeDegrees>41.53143695555627346038818359375</LatitudeDegrees>
              <LongitudeDegrees>-4.5615217275917530059814453125</LongitudeDegrees>
            </Position>
            <AltitudeMeters>1241.4000244140625</AltitudeMeters>
            <DistanceMeters>12527.942872779</DistanceMeters>
          </Trackpoint>
          <Trackpoint>
            <Time>2023-02-23T11:07:22.000Z</Time>
            <Position>
              <LatitudeDegrees>41.53141801245510578155517578125</LatitudeDegrees>
              <LongitudeDegrees>-4.56155978143215179443359375</LongitudeDegrees>
            </Position>
            <AltitudeMeters>1241.4000244140625</AltitudeMeters>
            <DistanceMeters>12531.748689723</DistanceMeters>
          </Trackpoint>
          <Trackpoint>
            <Time>2023-02-23T11:07:29.000Z</Time>
            <Position>
              <LatitudeDegrees>41.53138431720435619354248046875</LatitudeDegrees>
              <LongitudeDegrees>-4.561637900769710540771484375</LongitudeDegrees>
            </Position>
            <AltitudeMeters>1240.800048828125</AltitudeMeters>
            <DistanceMeters>12539.260009023</DistanceMeters>
          </Trackpoint>
          <Trackpoint>
            <Time>2023-02-23T11:07:30.000Z</Time>
            <Position>
              <LatitudeDegrees>41.531381048262119293212890625</LatitudeDegrees>
              <LongitudeDegrees>-4.5616503059864044189453125</LongitudeDegrees>
            </Position>
            <AltitudeMeters>1240.800048828125</AltitudeMeters>
            <DistanceMeters>12540.35178285</DistanceMeters>
          </Trackpoint>
          <Trackpoint>
            <Time>2023-02-23T11:07:31.000Z</Time>
            <Position>
              <LatitudeDegrees>41.53137844987213611602783203125</LatitudeDegrees>
              <LongitudeDegrees>-4.56166296266019344329833984375</LongitudeDegrees>
            </Position>
            <AltitudeMeters>1240.800048828125</AltitudeMeters>
            <DistanceMeters>12541.443556678</DistanceMeters>
          </Trackpoint>
          <Trackpoint>
            <Time>2023-02-23T11:07:37.000Z</Time>
            <Position>
              <LatitudeDegrees>41.53136135078966617584228515625</LatitudeDegrees>
              <LongitudeDegrees>-4.56173546612262725830078125</LongitudeDegrees>
            </Position>
            <AltitudeMeters>1241.5999755859375</AltitudeMeters>
            <DistanceMeters>12547.77764143</DistanceMeters>
          </Trackpoint>
          <Trackpoint>
            <Time>2023-02-23T11:07:39.000Z</Time>
            <Position>
              <LatitudeDegrees>41.53135464526712894439697265625</LatitudeDegrees>
              <LongitudeDegrees>-4.56174527294933795928955078125</LongitudeDegrees>
            </Position>
            <AltitudeMeters>1241.5999755859375</AltitudeMeters>
            <DistanceMeters>12548.88583383</DistanceMeters>
          </Trackpoint>
          <Trackpoint>
            <Time>2023-02-23T11:07:44.000Z</Time>
            <Position>
              <LatitudeDegrees>41.53134517371654510498046875</LatitudeDegrees>
              <LongitudeDegrees>-4.5617446862161159515380859375</LongitudeDegrees>
            </Position>
            <AltitudeMeters>1241.4000244140625</AltitudeMeters>
            <DistanceMeters>12549.935438197</DistanceMeters>
          </Trackpoint>
          <Trackpoint>
            <Time>2023-02-23T11:07:46.000Z</Time>
            <Position>
              <LatitudeDegrees>41.5313326008617877960205078125</LatitudeDegrees>
              <LongitudeDegrees>-4.5617651380598545074462890625</LongitudeDegrees>
            </Position>
            <AltitudeMeters>1241.4000244140625</AltitudeMeters>
            <DistanceMeters>12552.14365949</DistanceMeters>
          </Trackpoint>
          <Trackpoint>
            <Time>2023-02-23T11:07:49.000Z</Time>
            <Position>
              <LatitudeDegrees>41.53131273575127124786376953125</LatitudeDegrees>
              <LongitudeDegrees>-4.56181970424950122833251953125</LongitudeDegrees>
            </Position>
            <AltitudeMeters>1241.5999755859375</AltitudeMeters>
            <DistanceMeters>12557.198866344</DistanceMeters>
          </Trackpoint>
          <Trackpoint>
            <Time>2023-02-23T11:07:50.000Z</Time>
            <Position>
              <LatitudeDegrees>41.53130552731454372406005859375</LatitudeDegrees>
              <LongitudeDegrees>-4.56183847971260547637939453125</LongitudeDegrees>
            </Position>
            <AltitudeMeters>1241.800048828125</AltitudeMeters>
            <DistanceMeters>12558.958785723</DistanceMeters>
          </Trackpoint>
          <Trackpoint>
            <Time>2023-02-23T11:07:52.000Z</Time>
            <Position>
              <LatitudeDegrees>41.5312876738607883453369140625</LatitudeDegrees>
              <LongitudeDegrees>-4.561873935163021087646484375</LongitudeDegrees>
            </Position>
            <AltitudeMeters>1241.800048828125</AltitudeMeters>
            <DistanceMeters>12562.519435569</DistanceMeters>
          </Trackpoint>
          <Trackpoint>
            <Time>2023-02-23T11:07:54.000Z</Time>
            <Position>
              <LatitudeDegrees>41.5312682278454303741455078125</LatitudeDegrees>
              <LongitudeDegrees>-4.56190369091928005218505859375</LongitudeDegrees>
            </Position>
            <AltitudeMeters>1241.800048828125</AltitudeMeters>
            <DistanceMeters>12565.811257516</DistanceMeters>
          </Trackpoint>
          <Trackpoint>
            <Time>2023-02-23T11:07:57.000Z</Time>
            <Position>
              <LatitudeDegrees>41.53125188313424587249755859375</LatitudeDegrees>
              <LongitudeDegrees>-4.56195934675633907318115234375</LongitudeDegrees>
            </Position>
            <AltitudeMeters>1241.800048828125</AltitudeMeters>
            <DistanceMeters>12570.793594332</DistanceMeters>
          </Trackpoint>
          <Trackpoint>
            <Time>2023-02-23T11:08:00.000Z</Time>
            <Position>
              <LatitudeDegrees>41.53125263750553131103515625</LatitudeDegrees>
              <LongitudeDegrees>-4.5620209537446498870849609375</LongitudeDegrees>
            </Position>
            <AltitudeMeters>1241.800048828125</AltitudeMeters>
            <DistanceMeters>12575.92767586</DistanceMeters>
          </Trackpoint>
          <Trackpoint>
            <Time>2023-02-23T11:08:05.000Z</Time>
            <Position>
              <LatitudeDegrees>41.53123394586145877838134765625</LatitudeDegrees>
              <LongitudeDegrees>-4.5621171779930591583251953125</LongitudeDegrees>
            </Position>
            <AltitudeMeters>1241.4000244140625</AltitudeMeters>
            <DistanceMeters>12584.21027755</DistanceMeters>
          </Trackpoint>
          <Trackpoint>
            <Time>2023-02-23T11:08:09.000Z</Time>
            <Position>
              <LatitudeDegrees>41.53121215291321277618408203125</LatitudeDegrees>
              <LongitudeDegrees>-4.56218968145549297332763671875</LongitudeDegrees>
            </Position>
            <AltitudeMeters>1241.199951171875</AltitudeMeters>
            <DistanceMeters>12590.720127682</DistanceMeters>
          </Trackpoint>
          <Trackpoint>
            <Time>2023-02-23T11:08:14.000Z</Time>
            <Position>
              <LatitudeDegrees>41.5311931259930133819580078125</LatitudeDegrees>
              <LongitudeDegrees>-4.56228221766650676727294921875</LongitudeDegrees>
            </Position>
            <AltitudeMeters>1241</AltitudeMeters>
            <DistanceMeters>12598.71593541</DistanceMeters>
          </Trackpoint>
          <Trackpoint>
            <Time>2023-02-23T11:08:15.000Z</Time>
            <Position>
              <LatitudeDegrees>41.5311860851943492889404296875</LatitudeDegrees>
              <LongitudeDegrees>-4.5623039267957210540771484375</LongitudeDegrees>
            </Position>
            <AltitudeMeters>1240.800048828125</AltitudeMeters>
            <DistanceMeters>12600.688741267</DistanceMeters>
          </Trackpoint>
          <Trackpoint>
            <Time>2023-02-23T11:08:17.000Z</Time>
            <Position>
              <LatitudeDegrees>41.531176865100860595703125</LatitudeDegrees>
              <LongitudeDegrees>-4.56233720295131206512451171875</LongitudeDegrees>
            </Position>
            <AltitudeMeters>1240.5999755859375</AltitudeMeters>
            <DistanceMeters>12603.645278768</DistanceMeters>
          </Trackpoint>
          <Trackpoint>
            <Time>2023-02-23T11:08:24.000Z</Time>
            <Position>
              <LatitudeDegrees>41.53115113265812397003173828125</LatitudeDegrees>
              <LongitudeDegrees>-4.5624705590307712554931640625</LongitudeDegrees>
            </Position>
            <AltitudeMeters>1240.4000244140625</AltitudeMeters>
            <DistanceMeters>12615.119533191</DistanceMeters>
          </Trackpoint>
          <Trackpoint>
            <Time>2023-02-23T11:08:28.000Z</Time>
            <Position>
              <LatitudeDegrees>41.53112615458667278289794921875</LatitudeDegrees>
              <LongitudeDegrees>-4.56256602890789508819580078125</LongitudeDegrees>
            </Position>
            <AltitudeMeters>1239.800048828125</AltitudeMeters>
            <DistanceMeters>12623.545354279</DistanceMeters>
          </Trackpoint>
          <Trackpoint>
            <Time>2023-02-23T11:08:32.000Z</Time>
            <Position>
              <LatitudeDegrees>41.53109380044043064117431640625</LatitudeDegrees>
              <LongitudeDegrees>-4.5626549609005451202392578125</LongitudeDegrees>
            </Position>
            <AltitudeMeters>1239.5999755859375</AltitudeMeters>
            <DistanceMeters>12631.783682662</DistanceMeters>
          </Trackpoint>
          <Trackpoint>
            <Time>2023-02-23T11:08:39.000Z</Time>
            <Position>
              <LatitudeDegrees>41.5310345403850078582763671875</LatitudeDegrees>
              <LongitudeDegrees>-4.56278412602841854095458984375</LongitudeDegrees>
            </Position>
            <AltitudeMeters>1239.4000244140625</AltitudeMeters>
            <DistanceMeters>12644.406149488</DistanceMeters>
          </Trackpoint>
          <Trackpoint>
            <Time>2023-02-23T11:08:43.000Z</Time>
            <Position>
              <LatitudeDegrees>41.530988775193691253662109375</LatitudeDegrees>
              <LongitudeDegrees>-4.56287062726914882659912109375</LongitudeDegrees>
            </Position>
            <AltitudeMeters>1239.199951171875</AltitudeMeters>
            <DistanceMeters>12653.231363895</DistanceMeters>
          </Trackpoint>
          <Trackpoint>
            <Time>2023-02-23T11:08:44.000Z</Time>
            <Position>
              <LatitudeDegrees>41.53098114766180515289306640625</LatitudeDegrees>
              <LongitudeDegrees>-4.56289091147482395172119140625</LongitudeDegrees>
            </Position>
            <AltitudeMeters>1239.199951171875</AltitudeMeters>
            <DistanceMeters>12655.122371635</DistanceMeters>
          </Trackpoint>
          <Trackpoint>
            <Time>2023-02-23T11:08:48.000Z</Time>
            <Position>
              <LatitudeDegrees>41.53095968998968601226806640625</LatitudeDegrees>
              <LongitudeDegrees>-4.56296802498400211334228515625</LongitudeDegrees>
            </Position>
            <AltitudeMeters>1239.199951171875</AltitudeMeters>
            <DistanceMeters>12661.978139126</DistanceMeters>
          </Trackpoint>
          <Trackpoint>
            <Time>2023-02-23T11:08:55.000Z</Time>
            <Position>
              <LatitudeDegrees>41.53091979213058948516845703125</LatitudeDegrees>
              <LongitudeDegrees>-4.56311554647982120513916015625</LongitudeDegrees>
            </Position>
            <AltitudeMeters>1238.5999755859375</AltitudeMeters>
            <DistanceMeters>12675.047681046</DistanceMeters>
          </Trackpoint>
          <Trackpoint>
            <Time>2023-02-23T11:08:56.000Z</Time>
            <Position>
              <LatitudeDegrees>41.53091811574995517730712890625</LatitudeDegrees>
              <LongitudeDegrees>-4.563131891191005706787109375</LongitudeDegrees>
            </Position>
            <AltitudeMeters>1238.5999755859375</AltitudeMeters>
            <DistanceMeters>12676.424748965</DistanceMeters>
          </Trackpoint>
          <Trackpoint>
            <Time>2023-02-23T11:09:00.000Z</Time>
            <Position>
              <LatitudeDegrees>41.5309135057032108306884765625</LatitudeDegrees>
              <LongitudeDegrees>-4.56318729557096958160400390625</LongitudeDegrees>
            </Position>
            <AltitudeMeters>1238.5999755859375</AltitudeMeters>
            <DistanceMeters>12681.06940747</DistanceMeters>
          </Trackpoint>
          <Trackpoint>
            <Time>2023-02-23T11:09:03.000Z</Time>
            <Position>
              <LatitudeDegrees>41.53088961727917194366455078125</LatitudeDegrees>
              <LongitudeDegrees>-4.56323691643774509429931640625</LongitudeDegrees>
            </Position>
            <AltitudeMeters>1238.4000244140625</AltitudeMeters>
            <DistanceMeters>12685.985145926</DistanceMeters>
          </Trackpoint>
          <Trackpoint>
            <Time>2023-02-23T11:09:10.000Z</Time>
            <Position>
              <LatitudeDegrees>41.53087067417800426483154296875</LatitudeDegrees>
              <LongitudeDegrees>-4.5632829330861568450927734375</LongitudeDegrees>
            </Position>
            <AltitudeMeters>1238</AltitudeMeters>
            <DistanceMeters>12690.360504432</DistanceMeters>
          </Trackpoint>
          <Trackpoint>
            <Time>2023-02-23T11:09:16.000Z</Time>
            <Position>
              <LatitudeDegrees>41.530860364437103271484375</LatitudeDegrees>
              <LongitudeDegrees>-4.56334034912288188934326171875</LongitudeDegrees>
            </Position>
            <AltitudeMeters>1238</AltitudeMeters>
            <DistanceMeters>12695.279915461</DistanceMeters>
          </Trackpoint>
          <Trackpoint>
            <Time>2023-02-23T11:09:18.000Z</Time>
            <Position>
              <LatitudeDegrees>41.53085223399102687835693359375</LatitudeDegrees>
              <LongitudeDegrees>-4.56335057504475116729736328125</LongitudeDegrees>
            </Position>
            <AltitudeMeters>1238</AltitudeMeters>
            <DistanceMeters>12696.522550996</DistanceMeters>
          </Trackpoint>
          <Trackpoint>
            <Time>2023-02-23T11:09:22.000Z</Time>
            <Position>
              <LatitudeDegrees>41.53082373552024364471435546875</LatitudeDegrees>
              <LongitudeDegrees>-4.563353173434734344482421875</LongitudeDegrees>
            </Position>
            <AltitudeMeters>1238.4000244140625</AltitudeMeters>
            <DistanceMeters>12699.70275313</DistanceMeters>
          </Trackpoint>
          <Trackpoint>
            <Time>2023-02-23T11:09:25.000Z</Time>
            <Position>
              <LatitudeDegrees>41.53078995645046234130859375</LatitudeDegrees>
              <LongitudeDegrees>-4.56339751370251178741455078125</LongitudeDegrees>
            </Position>
            <AltitudeMeters>1238.5999755859375</AltitudeMeters>
            <DistanceMeters>12704.973096112</DistanceMeters>
          </Trackpoint>
          <Trackpoint>
            <Time>2023-02-23T11:09:31.000Z</Time>
            <Position>
              <LatitudeDegrees>41.53075911104679107666015625</LatitudeDegrees>
              <LongitudeDegrees>-4.5634582825005054473876953125</LongitudeDegrees>
            </Position>
            <AltitudeMeters>1239</AltitudeMeters>
            <DistanceMeters>12711.090337057</DistanceMeters>
          </Trackpoint>
          <Trackpoint>
            <Time>2023-02-23T11:09:34.000Z</Time>
            <Position>
              <LatitudeDegrees>41.5307463705539703369140625</LatitudeDegrees>
              <LongitudeDegrees>-4.56347529776394367218017578125</LongitudeDegrees>
            </Position>
            <AltitudeMeters>1239</AltitudeMeters>
            <DistanceMeters>12713.097178878</DistanceMeters>
          </Trackpoint>
          <Trackpoint>
            <Time>2023-02-23T11:09:36.000Z</Time>
            <Position>
              <LatitudeDegrees>41.530722565948963165283203125</LatitudeDegrees>
              <LongitudeDegrees>-4.56351150758564472198486328125</LongitudeDegrees>
            </Position>
            <AltitudeMeters>1239.199951171875</AltitudeMeters>
            <DistanceMeters>12717.113111712</DistanceMeters>
          </Trackpoint>
          <Trackpoint>
            <Time>2023-02-23T11:09:38.000Z</Time>
            <Position>
              <LatitudeDegrees>41.53070772998034954071044921875</LatitudeDegrees>
              <LongitudeDegrees>-4.56355207599699497222900390625</LongitudeDegrees>
            </Position>
            <AltitudeMeters>1239</AltitudeMeters>
            <DistanceMeters>12720.874777538</DistanceMeters>
          </Trackpoint>
          <Trackpoint>
            <Time>2023-02-23T11:09:42.000Z</Time>
            <Position>
              <LatitudeDegrees>41.530678309500217437744140625</LatitudeDegrees>
              <LongitudeDegrees>-4.563635475933551788330078125</LongitudeDegrees>
            </Position>
            <AltitudeMeters>1238.4000244140625</AltitudeMeters>
            <DistanceMeters>12728.556087289</DistanceMeters>
          </Trackpoint>
          <Trackpoint>
            <Time>2023-02-23T11:09:44.000Z</Time>
            <Position>
              <LatitudeDegrees>41.5306687541306018829345703125</LatitudeDegrees>
              <LongitudeDegrees>-4.56367679871618747711181640625</LongitudeDegrees>
            </Position>
            <AltitudeMeters>1238.4000244140625</AltitudeMeters>
            <DistanceMeters>12732.159592517</DistanceMeters>
          </Trackpoint>
          <Trackpoint>
            <Time>2023-02-23T11:09:49.000Z</Time>
            <Position>
              <LatitudeDegrees>41.530654169619083404541015625</LatitudeDegrees>
              <LongitudeDegrees>-4.563754834234714508056640625</LongitudeDegrees>
            </Position>
            <AltitudeMeters>1238.5999755859375</AltitudeMeters>
            <DistanceMeters>12738.861502709</DistanceMeters>
          </Trackpoint>
          <Trackpoint>
            <Time>2023-02-23T11:09:56.000Z</Time>
            <Position>
              <LatitudeDegrees>41.530625335872173309326171875</LatitudeDegrees>
              <LongitudeDegrees>-4.56386622972786426544189453125</LongitudeDegrees>
            </Position>
            <AltitudeMeters>1238.4000244140625</AltitudeMeters>
            <DistanceMeters>12748.6819516</DistanceMeters>
          </Trackpoint>
          <Trackpoint>
            <Time>2023-02-23T11:10:00.000Z</Time>
            <Position>
              <LatitudeDegrees>41.5305939875543117523193359375</LatitudeDegrees>
              <LongitudeDegrees>-4.5639199577271938323974609375</LongitudeDegrees>
            </Position>
            <AltitudeMeters>1238.4000244140625</AltitudeMeters>
            <DistanceMeters>12754.357361953</DistanceMeters>
          </Trackpoint>
          <Trackpoint>
            <Time>2023-02-23T11:10:02.000Z</Time>
            <Position>
              <LatitudeDegrees>41.53057998977601528167724609375</LatitudeDegrees>
              <LongitudeDegrees>-4.56394870765507221221923828125</LongitudeDegrees>
            </Position>
            <AltitudeMeters>1238</AltitudeMeters>
            <DistanceMeters>12757.214491475</DistanceMeters>
          </Trackpoint>
          <Trackpoint>
            <Time>2023-02-23T11:10:03.000Z</Time>
            <Position>
              <LatitudeDegrees>41.5305738709867000579833984375</LatitudeDegrees>
              <LongitudeDegrees>-4.563963375985622406005859375</LongitudeDegrees>
            </Position>
            <AltitudeMeters>1237.800048828125</AltitudeMeters>
            <DistanceMeters>12758.611093248</DistanceMeters>
          </Trackpoint>
          <Trackpoint>
            <Time>2023-02-23T11:10:06.000Z</Time>
            <Position>
              <LatitudeDegrees>41.53055333532392978668212890625</LatitudeDegrees>
              <LongitudeDegrees>-4.56400654278695583343505859375</LongitudeDegrees>
            </Position>
            <AltitudeMeters>1237.800048828125</AltitudeMeters>
            <DistanceMeters>12762.871428171</DistanceMeters>
          </Trackpoint>
          <Trackpoint>
            <Time>2023-02-23T11:10:12.000Z</Time>
            <Position>
              <LatitudeDegrees>41.53052701614797115325927734375</LatitudeDegrees>
              <LongitudeDegrees>-4.56409446895122528076171875</LongitudeDegrees>
            </Position>
            <AltitudeMeters>1237.800048828125</AltitudeMeters>
            <DistanceMeters>12770.761507195</DistanceMeters>
          </Trackpoint>
          <Trackpoint>
            <Time>2023-02-23T11:10:14.000Z</Time>
            <Position>
              <LatitudeDegrees>41.5305188857018947601318359375</LatitudeDegrees>
              <LongitudeDegrees>-4.5641244761645793914794921875</LongitudeDegrees>
            </Position>
            <AltitudeMeters>1237.800048828125</AltitudeMeters>
            <DistanceMeters>12773.42055775</DistanceMeters>
          </Trackpoint>
          <Trackpoint>
            <Time>2023-02-23T11:10:17.000Z</Time>
            <Position>
              <LatitudeDegrees>41.53050421737134456634521484375</LatitudeDegrees>
              <LongitudeDegrees>-4.56417049281299114227294921875</LongitudeDegrees>
            </Position>
            <AltitudeMeters>1237.5999755859375</AltitudeMeters>
            <DistanceMeters>12777.588754852</DistanceMeters>
          </Trackpoint>
          <Trackpoint>
            <Time>2023-02-23T11:10:20.000Z</Time>
            <Position>
              <LatitudeDegrees>41.5304689295589923858642578125</LatitudeDegrees>
              <LongitudeDegrees>-4.5642109774053096771240234375</LongitudeDegrees>
            </Position>
            <AltitudeMeters>1237.5999755859375</AltitudeMeters>
            <DistanceMeters>12782.765748853</DistanceMeters>
          </Trackpoint>
          <Trackpoint>
            <Time>2023-02-23T11:10:28.000Z</Time>
            <Position>
              <LatitudeDegrees>41.5303867869079113006591796875</LatitudeDegrees>
              <LongitudeDegrees>-4.56435271538794040679931640625</LongitudeDegrees>
            </Position>
            <AltitudeMeters>1237.5999755859375</AltitudeMeters>
            <DistanceMeters>12797.700973937</DistanceMeters>
          </Trackpoint>
          <Trackpoint>
            <Time>2023-02-23T11:10:29.000Z</Time>
            <Position>
              <LatitudeDegrees>41.53037882409989833831787109375</LatitudeDegrees>
              <LongitudeDegrees>-4.56436746753752231597900390625</LongitudeDegrees>
            </Position>
            <AltitudeMeters>1237.5999755859375</AltitudeMeters>
            <DistanceMeters>12799.218428876</DistanceMeters>
          </Trackpoint>
          <Trackpoint>
            <Time>2023-02-23T11:10:30.000Z</Time>
            <Position>
              <LatitudeDegrees>41.53037345968186855316162109375</LatitudeDegrees>
              <LongitudeDegrees>-4.564382471144199371337890625</LongitudeDegrees>
            </Position>
            <AltitudeMeters>1237.5999755859375</AltitudeMeters>
            <DistanceMeters>12800.602038722</DistanceMeters>
          </Trackpoint>
          <Trackpoint>
            <Time>2023-02-23T11:10:34.000Z</Time>
            <Position>
              <LatitudeDegrees>41.5303492359817028045654296875</LatitudeDegrees>
              <LongitudeDegrees>-4.564439468085765838623046875</LongitudeDegrees>
            </Position>
            <AltitudeMeters>1237.5999755859375</AltitudeMeters>
            <DistanceMeters>12806.063388601</DistanceMeters>
          </Trackpoint>
          <Trackpoint>
            <Time>2023-02-23T11:10:35.000Z</Time>
            <Position>
              <LatitudeDegrees>41.5303401835262775421142578125</LatitudeDegrees>
              <LongitudeDegrees>-4.56444977782666683197021484375</LongitudeDegrees>
            </Position>
            <AltitudeMeters>1237.4000244140625</AltitudeMeters>
            <DistanceMeters>12807.386957575</DistanceMeters>
          </Trackpoint>
          <Trackpoint>
            <Time>2023-02-23T11:10:41.000Z</Time>
            <Position>
              <LatitudeDegrees>41.53032400645315647125244140625</LatitudeDegrees>
              <LongitudeDegrees>-4.5644570700824260711669921875</LongitudeDegrees>
            </Position>
            <AltitudeMeters>1237.5999755859375</AltitudeMeters>
            <DistanceMeters>12809.287491863</DistanceMeters>
          </Trackpoint>
          <Trackpoint>
            <Time>2023-02-23T11:10:44.000Z</Time>
            <Position>
              <LatitudeDegrees>41.530323587357997894287109375</LatitudeDegrees>
              <LongitudeDegrees>-4.564462602138519287109375</LongitudeDegrees>
            </Position>
            <AltitudeMeters>1237.4000244140625</AltitudeMeters>
            <DistanceMeters>12809.753025787</DistanceMeters>
          </Trackpoint>
          <Trackpoint>
            <Time>2023-02-23T11:10:46.000Z</Time>
            <Position>
              <LatitudeDegrees>41.53032233007252216339111328125</LatitudeDegrees>
              <LongitudeDegrees>-4.56447408534586429595947265625</LongitudeDegrees>
            </Position>
            <AltitudeMeters>1237.4000244140625</AltitudeMeters>
            <DistanceMeters>12810.717441607</DistanceMeters>
          </Trackpoint>
          <Trackpoint>
            <Time>2023-02-23T11:10:50.000Z</Time>
            <Position>
              <LatitudeDegrees>41.5303378365933895111083984375</LatitudeDegrees>
              <LongitudeDegrees>-4.5644728280603885650634765625</LongitudeDegrees>
            </Position>
            <AltitudeMeters>1237.4000244140625</AltitudeMeters>
            <DistanceMeters>12812.446301145</DistanceMeters>
          </Trackpoint>
          <Trackpoint>
            <Time>2023-02-23T11:10:54.000Z</Time>
            <Position>
              <LatitudeDegrees>41.53031788766384124755859375</LatitudeDegrees>
              <LongitudeDegrees>-4.5644775219261646270751953125</LongitudeDegrees>
            </Position>
            <AltitudeMeters>1237.5999755859375</AltitudeMeters>
            <DistanceMeters>12814.703060573</DistanceMeters>
          </Trackpoint>
          <Trackpoint>
            <Time>2023-02-23T11:10:58.000Z</Time>
            <Position>
              <LatitudeDegrees>41.53028461150825023651123046875</LatitudeDegrees>
              <LongitudeDegrees>-4.5644936151802539825439453125</LongitudeDegrees>
            </Position>
            <AltitudeMeters>1237.800048828125</AltitudeMeters>
            <DistanceMeters>12818.641800388</DistanceMeters>
          </Trackpoint>
          <Trackpoint>
            <Time>2023-02-23T11:11:01.000Z</Time>
            <Position>
              <LatitudeDegrees>41.53027237392961978912353515625</LatitudeDegrees>
              <LongitudeDegrees>-4.56450752913951873779296875</LongitudeDegrees>
            </Position>
            <AltitudeMeters>1237.5999755859375</AltitudeMeters>
            <DistanceMeters>12820.429717349</DistanceMeters>
          </Trackpoint>
          <Trackpoint>
            <Time>2023-02-23T11:11:07.000Z</Time>
            <Position>
              <LatitudeDegrees>41.53026164509356021881103515625</LatitudeDegrees>
              <LongitudeDegrees>-4.56449906341731548309326171875</LongitudeDegrees>
            </Position>
            <AltitudeMeters>1237.5999755859375</AltitudeMeters>
            <DistanceMeters>12821.819838337</DistanceMeters>
          </Trackpoint>
          <Trackpoint>
            <Time>2023-02-23T11:11:09.000Z</Time>
            <Position>
              <LatitudeDegrees>41.5302560292184352874755859375</LatitudeDegrees>
              <LongitudeDegrees>-4.56447861157357692718505859375</LongitudeDegrees>
            </Position>
            <AltitudeMeters>1237.800048828125</AltitudeMeters>
            <DistanceMeters>12823.635321165</DistanceMeters>
          </Trackpoint>
          <Trackpoint>
            <Time>2023-02-23T11:11:13.000Z</Time>
            <Position>
              <LatitudeDegrees>41.5302258543670177459716796875</LatitudeDegrees>
              <LongitudeDegrees>-4.56445547752082347869873046875</LongitudeDegrees>
            </Position>
            <AltitudeMeters>1238.5999755859375</AltitudeMeters>
            <DistanceMeters>12827.505837516</DistanceMeters>
          </Trackpoint>
          <Trackpoint>
            <Time>2023-02-23T11:11:14.000Z</Time>
            <Position>
              <LatitudeDegrees>41.5302198193967342376708984375</LatitudeDegrees>
              <LongitudeDegrees>-4.56444583833217620849609375</LongitudeDegrees>
            </Position>
            <AltitudeMeters>1238.4000244140625</AltitudeMeters>
            <DistanceMeters>12828.551131374</DistanceMeters>
          </Trackpoint>
          <Trackpoint>
            <Time>2023-02-23T11:11:20.000Z</Time>
            <Position>
              <LatitudeDegrees>41.530199535191059112548828125</LatitudeDegrees>
              <LongitudeDegrees>-4.56443200819194316864013671875</LongitudeDegrees>
            </Position>
            <AltitudeMeters>1238.199951171875</AltitudeMeters>
            <DistanceMeters>12831.086760375</DistanceMeters>
          </Trackpoint>
          <Trackpoint>
            <Time>2023-02-23T11:11:27.000Z</Time>
            <Position>
              <LatitudeDegrees>41.530196852982044219970703125</LatitudeDegrees>
              <LongitudeDegrees>-4.56439948640763759613037109375</LongitudeDegrees>
            </Position>
            <AltitudeMeters>1238.199951171875</AltitudeMeters>
            <DistanceMeters>12833.811227816</DistanceMeters>
          </Trackpoint>
          <Trackpoint>
            <Time>2023-02-23T11:11:31.000Z</Time>
            <Position>
              <LatitudeDegrees>41.5301775746047496795654296875</LatitudeDegrees>
              <LongitudeDegrees>-4.56438138149678707122802734375</LongitudeDegrees>
            </Position>
            <AltitudeMeters>1238</AltitudeMeters>
            <DistanceMeters>12836.434378259</DistanceMeters>
          </Trackpoint>
          <Trackpoint>
            <Time>2023-02-23T11:11:33.000Z</Time>
            <Position>
              <LatitudeDegrees>41.53018402867019176483154296875</LatitudeDegrees>
              <LongitudeDegrees>-4.564382471144199371337890625</LongitudeDegrees>
            </Position>
            <AltitudeMeters>1237.800048828125</AltitudeMeters>
            <DistanceMeters>12837.164292302</DistanceMeters>
          </Trackpoint>
          <Trackpoint>
            <Time>2023-02-23T11:11:38.000Z</Time>
            <Position>
              <LatitudeDegrees>41.53020833618938922882080078125</LatitudeDegrees>
              <LongitudeDegrees>-4.5644076168537139892578125</LongitudeDegrees>
            </Position>
            <AltitudeMeters>1238.199951171875</AltitudeMeters>
            <DistanceMeters>12840.586573581</DistanceMeters>
          </Trackpoint>
          <Trackpoint>
            <Time>2023-02-23T11:11:39.000Z</Time>
            <Position>
              <LatitudeDegrees>41.53021487407386302947998046875</LatitudeDegrees>
              <LongitudeDegrees>-4.564414322376251220703125</LongitudeDegrees>
            </Position>
            <AltitudeMeters>1238.199951171875</AltitudeMeters>
            <DistanceMeters>12841.507891759</DistanceMeters>
          </Trackpoint>
          <Trackpoint>
            <Time>2023-02-23T11:11:43.000Z</Time>
            <Position>
              <LatitudeDegrees>41.53025695122778415679931640625</LatitudeDegrees>
              <LongitudeDegrees>-4.56443200819194316864013671875</LongitudeDegrees>
            </Position>
            <AltitudeMeters>1238.4000244140625</AltitudeMeters>
            <DistanceMeters>12846.416276825</DistanceMeters>
          </Trackpoint>
          <Trackpoint>
            <Time>2023-02-23T11:11:44.000Z</Time>
            <Position>
              <LatitudeDegrees>41.5302664227783679962158203125</LatitudeDegrees>
              <LongitudeDegrees>-4.5644317567348480224609375</LongitudeDegrees>
            </Position>
            <AltitudeMeters>1238.199951171875</AltitudeMeters>
            <DistanceMeters>12847.465881191</DistanceMeters>
          </Trackpoint>
          <Trackpoint>
            <Time>2023-02-23T11:11:45.000Z</Time>
            <Position>
              <LatitudeDegrees>41.53027639724314212799072265625</LatitudeDegrees>
              <LongitudeDegrees>-4.5644325949251651763916015625</LongitudeDegrees>
            </Position>
            <AltitudeMeters>1238.4000244140625</AltitudeMeters>
            <DistanceMeters>12848.582192326</DistanceMeters>
          </Trackpoint>
          <Trackpoint>
            <Time>2023-02-23T11:11:53.000Z</Time>
            <Position>
              <LatitudeDegrees>41.530349068343639373779296875</LatitudeDegrees>
              <LongitudeDegrees>-4.5644456706941127777099609375</LongitudeDegrees>
            </Position>
            <AltitudeMeters>1238.5999755859375</AltitudeMeters>
            <DistanceMeters>12856.744539047</DistanceMeters>
          </Trackpoint>
          <Trackpoint>
            <Time>2023-02-23T11:11:57.000Z</Time>
            <Position>
              <LatitudeDegrees>41.53035116381943225860595703125</LatitudeDegrees>
              <LongitudeDegrees>-4.5644473470747470855712890625</LongitudeDegrees>
            </Position>
            <AltitudeMeters>1238.800048828125</AltitudeMeters>
            <DistanceMeters>12857.013315184</DistanceMeters>
          </Trackpoint>
          <Trackpoint>
            <Time>2023-02-23T11:11:59.000Z</Time>
            <Position>
              <LatitudeDegrees>41.53035116381943225860595703125</LatitudeDegrees>
              <LongitudeDegrees>-4.564440809190273284912109375</LongitudeDegrees>
            </Position>
            <AltitudeMeters>1238.5999755859375</AltitudeMeters>
            <DistanceMeters>12857.550867457</DistanceMeters>
          </Trackpoint>
          <Trackpoint>
            <Time>2023-02-23T11:12:07.000Z</Time>
            <Position>
              <LatitudeDegrees>41.53034294955432415008544921875</LatitudeDegrees>
              <LongitudeDegrees>-4.56444240175187587738037109375</LongitudeDegrees>
            </Position>
            <AltitudeMeters>1238.5999755859375</AltitudeMeters>
            <DistanceMeters>12858.472185635</DistanceMeters>
          </Trackpoint>
          <Trackpoint>
            <Time>2023-02-23T11:12:12.000Z</Time>
            <Position>
              <LatitudeDegrees>41.5303425304591655731201171875</LatitudeDegrees>
              <LongitudeDegrees>-4.56443955190479755401611328125</LongitudeDegrees>
            </Position>
            <AltitudeMeters>1238.199951171875</AltitudeMeters>
            <DistanceMeters>12858.704952597</DistanceMeters>
          </Trackpoint>
          <Trackpoint>
            <Time>2023-02-23T11:12:13.000Z</Time>
            <Position>
              <LatitudeDegrees>41.53034202754497528076171875</LatitudeDegrees>
              <LongitudeDegrees>-4.5644379593431949615478515625</LongitudeDegrees>
            </Position>
            <AltitudeMeters>1238.199951171875</AltitudeMeters>
            <DistanceMeters>12858.869543695</DistanceMeters>
          </Trackpoint>
          <Trackpoint>
            <Time>2023-02-23T11:12:14.000Z</Time>
            <Position>
              <LatitudeDegrees>41.530341692268848419189453125</LatitudeDegrees>
              <LongitudeDegrees>-4.564436785876750946044921875</LongitudeDegrees>
            </Position>
            <AltitudeMeters>1238.199951171875</AltitudeMeters>
            <DistanceMeters>12859.003931763</DistanceMeters>
          </Trackpoint>
          <Trackpoint>
            <Time>2023-02-23T11:12:21.000Z</Time>
            <Position>
              <LatitudeDegrees>41.530338339507579803466796875</LatitudeDegrees>
              <LongitudeDegrees>-4.5644453354179859161376953125</LongitudeDegrees>
            </Position>
            <AltitudeMeters>1238.4000244140625</AltitudeMeters>
            <DistanceMeters>12859.810260172</DistanceMeters>
          </Trackpoint>
          <Trackpoint>
            <Time>2023-02-23T11:12:22.000Z</Time>
            <Position>
              <LatitudeDegrees>41.53033825568854808807373046875</LatitudeDegrees>
              <LongitudeDegrees>-4.56444743089377880096435546875</LongitudeDegrees>
            </Position>
            <AltitudeMeters>1238.4000244140625</AltitudeMeters>
            <DistanceMeters>12859.97485127</DistanceMeters>
          </Trackpoint>
          <Trackpoint>
            <Time>2023-02-23T11:12:30.000Z</Time>
            <Position>
              <LatitudeDegrees>41.53032266534864902496337890625</LatitudeDegrees>
              <LongitudeDegrees>-4.56443904899060726165771484375</LongitudeDegrees>
            </Position>
            <AltitudeMeters>1238.4000244140625</AltitudeMeters>
            <DistanceMeters>12861.846660464</DistanceMeters>
          </Trackpoint>
          <Trackpoint>
            <Time>2023-02-23T11:12:34.000Z</Time>
            <Position>
              <LatitudeDegrees>41.53030984103679656982421875</LatitudeDegrees>
              <LongitudeDegrees>-4.56443770788609981536865234375</LongitudeDegrees>
            </Position>
            <AltitudeMeters>1238.4000244140625</AltitudeMeters>
            <DistanceMeters>12863.281532385</DistanceMeters>
          </Trackpoint>
          <Trackpoint>
            <Time>2023-02-23T11:12:35.000Z</Time>
            <Position>
              <LatitudeDegrees>41.53031512163579463958740234375</LatitudeDegrees>
              <LongitudeDegrees>-4.56445296294987201690673828125</LongitudeDegrees>
            </Position>
            <AltitudeMeters>1238.4000244140625</AltitudeMeters>
            <DistanceMeters>12864.684585009</DistanceMeters>
          </Trackpoint>
          <Trackpoint>
            <Time>2023-02-23T11:12:41.000Z</Time>
            <Position>
              <LatitudeDegrees>41.5303579531610012054443359375</LatitudeDegrees>
              <LongitudeDegrees>-4.5645093731582164764404296875</LongitudeDegrees>
            </Position>
            <AltitudeMeters>1238.199951171875</AltitudeMeters>
            <DistanceMeters>12871.379080463</DistanceMeters>
          </Trackpoint>
          <Trackpoint>
            <Time>2023-02-23T11:12:46.000Z</Time>
            <Position>
              <LatitudeDegrees>41.53038402087986469268798828125</LatitudeDegrees>
              <LongitudeDegrees>-4.56456025131046772003173828125</LongitudeDegrees>
            </Position>
            <AltitudeMeters>1238.5999755859375</AltitudeMeters>
            <DistanceMeters>12876.515799588</DistanceMeters>
          </Trackpoint>
          <Trackpoint>
            <Time>2023-02-23T11:12:48.000Z</Time>
            <Position>
              <LatitudeDegrees>41.53040179051458835601806640625</LatitudeDegrees>
              <LongitudeDegrees>-4.564575590193271636962890625</LongitudeDegrees>
            </Position>
            <AltitudeMeters>1238.5999755859375</AltitudeMeters>
            <DistanceMeters>12878.870468766</DistanceMeters>
          </Trackpoint>
          <Trackpoint>
            <Time>2023-02-23T11:12:52.000Z</Time>
            <Position>
              <LatitudeDegrees>41.53043146245181560516357421875</LatitudeDegrees>
              <LongitudeDegrees>-4.56460769288241863250732421875</LongitudeDegrees>
            </Position>
            <AltitudeMeters>1239</AltitudeMeters>
            <DistanceMeters>12883.120192626</DistanceMeters>
          </Trackpoint>
          <Trackpoint>
            <Time>2023-02-23T11:12:54.000Z</Time>
            <Position>
              <LatitudeDegrees>41.5304457955062389373779296875</LatitudeDegrees>
              <LongitudeDegrees>-4.5646226964890956878662109375</LongitudeDegrees>
            </Position>
            <AltitudeMeters>1239</AltitudeMeters>
            <DistanceMeters>12885.147181719</DistanceMeters>
          </Trackpoint>
          <Trackpoint>
            <Time>2023-02-23T11:12:55.000Z</Time>
            <Position>
              <LatitudeDegrees>41.5304551832377910614013671875</LatitudeDegrees>
              <LongitudeDegrees>-4.5646273903548717498779296875</LongitudeDegrees>
            </Position>
            <AltitudeMeters>1238.800048828125</AltitudeMeters>
            <DistanceMeters>12886.263492854</DistanceMeters>
          </Trackpoint>
          <Trackpoint>
            <Time>2023-02-23T11:12:56.000Z</Time>
            <Position>
              <LatitudeDegrees>41.53046666644513607025146484375</LatitudeDegrees>
              <LongitudeDegrees>-4.56463200040161609649658203125</LongitudeDegrees>
            </Position>
            <AltitudeMeters>1238.5999755859375</AltitudeMeters>
            <DistanceMeters>12887.597256348</DistanceMeters>
          </Trackpoint>
          <Trackpoint>
            <Time>2023-02-23T11:12:57.000Z</Time>
            <Position>
              <LatitudeDegrees>41.53047219850122928619384765625</LatitudeDegrees>
              <LongitudeDegrees>-4.56464222632348537445068359375</LongitudeDegrees>
            </Position>
            <AltitudeMeters>1238.5999755859375</AltitudeMeters>
            <DistanceMeters>12888.646860715</DistanceMeters>
          </Trackpoint>
          <Trackpoint>
            <Time>2023-02-23T11:13:00.000Z</Time>
            <Position>
              <LatitudeDegrees>41.53050052933394908905029296875</LatitudeDegrees>
              <LongitudeDegrees>-4.56466753967106342315673828125</LongitudeDegrees>
            </Position>
            <AltitudeMeters>1238.4000244140625</AltitudeMeters>
            <DistanceMeters>12892.440795592</DistanceMeters>
          </Trackpoint>
          <Trackpoint>
            <Time>2023-02-23T11:13:01.000Z</Time>
            <Position>
              <LatitudeDegrees>41.53050807304680347442626953125</LatitudeDegrees>
              <LongitudeDegrees>-4.56468053162097930908203125</LongitudeDegrees>
            </Position>
            <AltitudeMeters>1238.5999755859375</AltitudeMeters>
            <DistanceMeters>12893.811290356</DistanceMeters>
          </Trackpoint>
          <Trackpoint>
            <Time>2023-02-23T11:13:03.000Z</Time>
            <Position>
              <LatitudeDegrees>41.53052349574863910675048828125</LatitudeDegrees>
              <LongitudeDegrees>-4.56470509059727191925048828125</LongitudeDegrees>
            </Position>
            <AltitudeMeters>1238.800048828125</AltitudeMeters>
            <DistanceMeters>12896.482200387</DistanceMeters>
          </Trackpoint>
          <Trackpoint>
            <Time>2023-02-23T11:13:08.000Z</Time>
            <Position>
              <LatitudeDegrees>41.530532129108905792236328125</LatitudeDegrees>
              <LongitudeDegrees>-4.56471984274685382843017578125</LongitudeDegrees>
            </Position>
            <AltitudeMeters>1238.4000244140625</AltitudeMeters>
            <DistanceMeters>12898.046537536</DistanceMeters>
          </Trackpoint>
          <Trackpoint>
            <Time>2023-02-23T11:13:09.000Z</Time>
            <Position>
              <LatitudeDegrees>41.53054093010723590850830078125</LatitudeDegrees>
              <LongitudeDegrees>-4.56472688354551792144775390625</LongitudeDegrees>
            </Position>
            <AltitudeMeters>1238.4000244140625</AltitudeMeters>
            <DistanceMeters>12899.186858109</DistanceMeters>
          </Trackpoint>
          <Trackpoint>
            <Time>2023-02-23T11:13:12.000Z</Time>
            <Position>
              <LatitudeDegrees>41.530576050281524658203125</LatitudeDegrees>
              <LongitudeDegrees>-4.56473995931446552276611328125</LongitudeDegrees>
            </Position>
            <AltitudeMeters>1238.4000244140625</AltitudeMeters>
            <DistanceMeters>12903.24528877</DistanceMeters>
          </Trackpoint>
          <Trackpoint>
            <Time>2023-02-23T11:13:15.000Z</Time>
            <Position>
              <LatitudeDegrees>41.5306194685399532318115234375</LatitudeDegrees>
              <LongitudeDegrees>-4.5647594891488552093505859375</LongitudeDegrees>
            </Position>
            <AltitudeMeters>1239</AltitudeMeters>
            <DistanceMeters>12908.344957402</DistanceMeters>
          </Trackpoint>
          <Trackpoint>
            <Time>2023-02-23T11:13:18.000Z</Time>
            <Position>
              <LatitudeDegrees>41.5306632220745086669921875</LatitudeDegrees>
              <LongitudeDegrees>-4.5647742412984371185302734375</LongitudeDegrees>
            </Position>
            <AltitudeMeters>1239.800048828125</AltitudeMeters>
            <DistanceMeters>12913.368806889</DistanceMeters>
          </Trackpoint>
          <Trackpoint>
            <Time>2023-02-23T11:13:23.000Z</Time>
            <Position>
              <LatitudeDegrees>41.53073354624211788177490234375</LatitudeDegrees>
              <LongitudeDegrees>-4.5648064278066158294677734375</LongitudeDegrees>
            </Position>
            <AltitudeMeters>1240.5999755859375</AltitudeMeters>
            <DistanceMeters>12921.642136294</DistanceMeters>
          </Trackpoint>
          <Trackpoint>
            <Time>2023-02-23T11:13:26.000Z</Time>
            <Position>
              <LatitudeDegrees>41.53077654540538787841796875</LatitudeDegrees>
              <LongitudeDegrees>-4.56482863985002040863037109375</LongitudeDegrees>
            </Position>
            <AltitudeMeters>1240.5999755859375</AltitudeMeters>
            <DistanceMeters>12926.77357887</DistanceMeters>
          </Trackpoint>
          <Trackpoint>
            <Time>2023-02-23T11:13:30.000Z</Time>
            <Position>
              <LatitudeDegrees>41.5308236517012119293212890625</LatitudeDegrees>
              <LongitudeDegrees>-4.56486870534718036651611328125</LongitudeDegrees>
            </Position>
            <AltitudeMeters>1240.199951171875</AltitudeMeters>
            <DistanceMeters>12932.988936223</DistanceMeters>
          </Trackpoint>
          <Trackpoint>
            <Time>2023-02-23T11:13:32.000Z</Time>
            <Position>
              <LatitudeDegrees>41.530843265354633331298828125</LatitudeDegrees>
              <LongitudeDegrees>-4.56488630734384059906005859375</LongitudeDegrees>
            </Position>
            <AltitudeMeters>1240.199951171875</AltitudeMeters>
            <DistanceMeters>12935.618962564</DistanceMeters>
          </Trackpoint>
          <Trackpoint>
            <Time>2023-02-23T11:13:36.000Z</Time>
            <Position>
              <LatitudeDegrees>41.530890204012393951416015625</LatitudeDegrees>
              <LongitudeDegrees>-4.56492268480360507965087890625</LongitudeDegrees>
            </Position>
            <AltitudeMeters>1240.199951171875</AltitudeMeters>
            <DistanceMeters>12941.658955017</DistanceMeters>
          </Trackpoint>
          <Trackpoint>
            <Time>2023-02-23T11:13:37.000Z</Time>
            <Position>
              <LatitudeDegrees>41.5309021063148975372314453125</LatitudeDegrees>
              <LongitudeDegrees>-4.56493743695318698883056640625</LongitudeDegrees>
            </Position>
            <AltitudeMeters>1240.4000244140625</AltitudeMeters>
            <DistanceMeters>12943.466961564</DistanceMeters>
          </Trackpoint>
          <Trackpoint>
            <Time>2023-02-23T11:13:40.000Z</Time>
            <Position>
              <LatitudeDegrees>41.53091945685446262359619140625</LatitudeDegrees>
              <LongitudeDegrees>-4.5649878121912479400634765625</LongitudeDegrees>
            </Position>
            <AltitudeMeters>1240.800048828125</AltitudeMeters>
            <DistanceMeters>12948.088230955</DistanceMeters>
          </Trackpoint>
          <Trackpoint>
            <Time>2023-02-23T11:13:43.000Z</Time>
            <Position>
              <LatitudeDegrees>41.53094309382140636444091796875</LatitudeDegrees>
              <LongitudeDegrees>-4.56504204310476779937744140625</LongitudeDegrees>
            </Position>
            <AltitudeMeters>1241.4000244140625</AltitudeMeters>
            <DistanceMeters>12953.316427719</DistanceMeters>
          </Trackpoint>
          <Trackpoint>
            <Time>2023-02-23T11:13:44.000Z</Time>
            <Position>
              <LatitudeDegrees>41.5309513919055461883544921875</LatitudeDegrees>
              <LongitudeDegrees>-4.565058387815952301025390625</LongitudeDegrees>
            </Position>
            <AltitudeMeters>1241.5999755859375</AltitudeMeters>
            <DistanceMeters>12954.959593218</DistanceMeters>
          </Trackpoint>
          <Trackpoint>
            <Time>2023-02-23T11:13:46.000Z</Time>
            <Position>
              <LatitudeDegrees>41.53096622787415981292724609375</LatitudeDegrees>
              <LongitudeDegrees>-4.56509367562830448150634765625</LongitudeDegrees>
            </Position>
            <AltitudeMeters>1241.800048828125</AltitudeMeters>
            <DistanceMeters>12958.330028822</DistanceMeters>
          </Trackpoint>
          <Trackpoint>
            <Time>2023-02-23T11:13:47.000Z</Time>
            <Position>
              <LatitudeDegrees>41.53097410686314105987548828125</LatitudeDegrees>
              <LongitudeDegrees>-4.5651091821491718292236328125</LongitudeDegrees>
            </Position>
            <AltitudeMeters>1241.800048828125</AltitudeMeters>
            <DistanceMeters>12959.891477073</DistanceMeters>
          </Trackpoint>
          <Trackpoint>
            <Time>2023-02-23T11:13:51.000Z</Time>
            <Position>
              <LatitudeDegrees>41.5310013480484485626220703125</LatitudeDegrees>
              <LongitudeDegrees>-4.5651688612997531890869140625</LongitudeDegrees>
            </Position>
            <AltitudeMeters>1242</AltitudeMeters>
            <DistanceMeters>12965.715304605</DistanceMeters>
          </Trackpoint>
          <Trackpoint>
            <Time>2023-02-23T11:13:58.000Z</Time>
            <Position>
              <LatitudeDegrees>41.53107016347348690032958984375</LatitudeDegrees>
              <LongitudeDegrees>-4.56525863148272037506103515625</LongitudeDegrees>
            </Position>
            <AltitudeMeters>1242.199951171875</AltitudeMeters>
            <DistanceMeters>12976.421741472</DistanceMeters>
          </Trackpoint>
          <Trackpoint>
            <Time>2023-02-23T11:14:02.000Z</Time>
            <Position>
              <LatitudeDegrees>41.53112682513892650604248046875</LatitudeDegrees>
              <LongitudeDegrees>-4.5653437077999114990234375</LongitudeDegrees>
            </Position>
            <AltitudeMeters>1241.5999755859375</AltitudeMeters>
            <DistanceMeters>12985.910148195</DistanceMeters>
          </Trackpoint>
          <Trackpoint>
            <Time>2023-02-23T11:14:04.000Z</Time>
            <Position>
              <LatitudeDegrees>41.53114107437431812286376953125</LatitudeDegrees>
              <LongitudeDegrees>-4.56538083963096141815185546875</LongitudeDegrees>
            </Position>
            <AltitudeMeters>1241.199951171875</AltitudeMeters>
            <DistanceMeters>12989.386100192</DistanceMeters>
          </Trackpoint>
          <Trackpoint>
            <Time>2023-02-23T11:14:07.000Z</Time>
            <Position>
              <LatitudeDegrees>41.53116814792156219482421875</LatitudeDegrees>
              <LongitudeDegrees>-4.565446637570858001708984375</LongitudeDegrees>
            </Position>
            <AltitudeMeters>1240.800048828125</AltitudeMeters>
            <DistanceMeters>12995.642005507</DistanceMeters>
          </Trackpoint>
          <Trackpoint>
            <Time>2023-02-23T11:14:11.000Z</Time>
            <Position>
              <LatitudeDegrees>41.5311948023736476898193359375</LatitudeDegrees>
              <LongitudeDegrees>-4.56552903167903423309326171875</LongitudeDegrees>
            </Position>
            <AltitudeMeters>1240</AltitudeMeters>
            <DistanceMeters>13003.120191344</DistanceMeters>
          </Trackpoint>
          <Trackpoint>
            <Time>2023-02-23T11:14:19.000Z</Time>
            <Position>
              <LatitudeDegrees>41.5312155894935131072998046875</LatitudeDegrees>
              <LongitudeDegrees>-4.56570471636950969696044921875</LongitudeDegrees>
            </Position>
            <AltitudeMeters>1239.800048828125</AltitudeMeters>
            <DistanceMeters>13017.939789489</DistanceMeters>
          </Trackpoint>
          <Trackpoint>
            <Time>2023-02-23T11:14:22.000Z</Time>
            <Position>
              <LatitudeDegrees>41.53121215291321277618408203125</LatitudeDegrees>
              <LongitudeDegrees>-4.56576858647167682647705078125</LongitudeDegrees>
            </Position>
            <AltitudeMeters>1239.5999755859375</AltitudeMeters>
            <DistanceMeters>13023.274843468</DistanceMeters>
          </Trackpoint>
          <Trackpoint>
            <Time>2023-02-23T11:14:24.000Z</Time>
            <Position>
              <LatitudeDegrees>41.53120611794292926788330078125</LatitudeDegrees>
              <LongitudeDegrees>-4.56581166945397853851318359375</LongitudeDegrees>
            </Position>
            <AltitudeMeters>1239.5999755859375</AltitudeMeters>
            <DistanceMeters>13026.925650616</DistanceMeters>
          </Trackpoint>
          <Trackpoint>
            <Time>2023-02-23T11:14:25.000Z</Time>
            <Position>
              <LatitudeDegrees>41.531203687191009521484375</LatitudeDegrees>
              <LongitudeDegrees>-4.5658340491354465484619140625</LongitudeDegrees>
            </Position>
            <AltitudeMeters>1239.5999755859375</AltitudeMeters>
            <DistanceMeters>13028.811877039</DistanceMeters>
          </Trackpoint>
          <Trackpoint>
            <Time>2023-02-23T11:14:27.000Z</Time>
            <Position>
              <LatitudeDegrees>41.5312062017619609832763671875</LatitudeDegrees>
              <LongitudeDegrees>-4.5658742822706699371337890625</LongitudeDegrees>
            </Position>
            <AltitudeMeters>1239.5999755859375</AltitudeMeters>
            <DistanceMeters>13032.176949974</DistanceMeters>
          </Trackpoint>
          <Trackpoint>
            <Time>2023-02-23T11:14:28.000Z</Time>
            <Position>
              <LatitudeDegrees>41.53120276518166065216064453125</LatitudeDegrees>
              <LongitudeDegrees>-4.565892554819583892822265625</LongitudeDegrees>
            </Position>
            <AltitudeMeters>1239.5999755859375</AltitudeMeters>
            <DistanceMeters>13033.749921985</DistanceMeters>
          </Trackpoint>
          <Trackpoint>
            <Time>2023-02-23T11:14:35.000Z</Time>
            <Position>
              <LatitudeDegrees>41.531204693019390106201171875</LatitudeDegrees>
              <LongitudeDegrees>-4.56602892838418483734130859375</LongitudeDegrees>
            </Position>
            <AltitudeMeters>1239</AltitudeMeters>
            <DistanceMeters>13045.114656182</DistanceMeters>
          </Trackpoint>
          <Trackpoint>
            <Time>2023-02-23T11:14:37.000Z</Time>
            <Position>
              <LatitudeDegrees>41.53121106326580047607421875</LatitudeDegrees>
              <LongitudeDegrees>-4.5660697482526302337646484375</LongitudeDegrees>
            </Position>
            <AltitudeMeters>1239.199951171875</AltitudeMeters>
            <DistanceMeters>13048.588009335</DistanceMeters>
          </Trackpoint>
          <Trackpoint>
            <Time>2023-02-23T11:14:42.000Z</Time>
            <Position>
              <LatitudeDegrees>41.5311827324330806732177734375</LatitudeDegrees>
              <LongitudeDegrees>-4.5661646313965320587158203125</LongitudeDegrees>
            </Position>
            <AltitudeMeters>1239.800048828125</AltitudeMeters>
            <DistanceMeters>13057.09860527</DistanceMeters>
          </Trackpoint>
          <Trackpoint>
            <Time>2023-02-23T11:14:47.000Z</Time>
            <Position>
              <LatitudeDegrees>41.53114409185945987701416015625</LatitudeDegrees>
              <LongitudeDegrees>-4.56625163555145263671875</LongitudeDegrees>
            </Position>
            <AltitudeMeters>1240.199951171875</AltitudeMeters>
            <DistanceMeters>13065.527640888</DistanceMeters>
          </Trackpoint>
          <Trackpoint>
            <Time>2023-02-23T11:14:49.000Z</Time>
            <Position>
              <LatitudeDegrees>41.53113470412790775299072265625</LatitudeDegrees>
              <LongitudeDegrees>-4.5662833191454410552978515625</LongitudeDegrees>
            </Position>
            <AltitudeMeters>1240</AltitudeMeters>
            <DistanceMeters>13068.367334228</DistanceMeters>
          </Trackpoint>
          <Trackpoint>
            <Time>2023-02-23T11:14:56.000Z</Time>
            <Position>
              <LatitudeDegrees>41.531123220920562744140625</LatitudeDegrees>
              <LongitudeDegrees>-4.56643260084092617034912109375</LongitudeDegrees>
            </Position>
            <AltitudeMeters>1239.4000244140625</AltitudeMeters>
            <DistanceMeters>13080.871203372</DistanceMeters>
          </Trackpoint>
          <Trackpoint>
            <Time>2023-02-23T11:14:59.000Z</Time>
            <Position>
              <LatitudeDegrees>41.53111777268350124359130859375</LatitudeDegrees>
              <LongitudeDegrees>-4.5664754323661327362060546875</LongitudeDegrees>
            </Position>
            <AltitudeMeters>1239</AltitudeMeters>
            <DistanceMeters>13084.492207514</DistanceMeters>
          </Trackpoint>
          <Trackpoint>
            <Time>2023-02-23T11:15:02.000Z</Time>
            <Position>
              <LatitudeDegrees>41.53109061531722545623779296875</LatitudeDegrees>
              <LongitudeDegrees>-4.566534943878650665283203125</LongitudeDegrees>
            </Position>
            <AltitudeMeters>1239</AltitudeMeters>
            <DistanceMeters>13090.300508952</DistanceMeters>
          </Trackpoint>
          <Trackpoint>
            <Time>2023-02-23T11:15:06.000Z</Time>
            <Position>
              <LatitudeDegrees>41.53106127865612506866455078125</LatitudeDegrees>
              <LongitudeDegrees>-4.5666259713470935821533203125</LongitudeDegrees>
            </Position>
            <AltitudeMeters>1238.800048828125</AltitudeMeters>
            <DistanceMeters>13098.557450101</DistanceMeters>
          </Trackpoint>
          <Trackpoint>
            <Time>2023-02-23T11:15:07.000Z</Time>
            <Position>
              <LatitudeDegrees>41.53105490840971469879150390625</LatitudeDegrees>
              <LongitudeDegrees>-4.566643238067626953125</LongitudeDegrees>
            </Position>
            <AltitudeMeters>1238.5999755859375</AltitudeMeters>
            <DistanceMeters>13100.161685678</DistanceMeters>
          </Trackpoint>
          <Trackpoint>
            <Time>2023-02-23T11:15:08.000Z</Time>
            <Position>
              <LatitudeDegrees>41.531049795448780059814453125</LatitudeDegrees>
              <LongitudeDegrees>-4.5666554756462574005126953125</LongitudeDegrees>
            </Position>
            <AltitudeMeters>1238.4000244140625</AltitudeMeters>
            <DistanceMeters>13101.325520489</DistanceMeters>
          </Trackpoint>
          <Trackpoint>
            <Time>2023-02-23T11:15:11.000Z</Time>
            <Position>
              <LatitudeDegrees>41.531024314463138580322265625</LatitudeDegrees>
              <LongitudeDegrees>-4.56670031882822513580322265625</LongitudeDegrees>
            </Position>
            <AltitudeMeters>1237.4000244140625</AltitudeMeters>
            <DistanceMeters>13106.015644818</DistanceMeters>
          </Trackpoint>
          <Trackpoint>
            <Time>2023-02-23T11:15:15.000Z</Time>
            <Position>
              <LatitudeDegrees>41.53099271468818187713623046875</LatitudeDegrees>
              <LongitudeDegrees>-4.56673921085894107818603515625</LongitudeDegrees>
            </Position>
            <AltitudeMeters>1236.5999755859375</AltitudeMeters>
            <DistanceMeters>13110.798236545</DistanceMeters>
          </Trackpoint>
          <Trackpoint>
            <Time>2023-02-23T11:15:16.000Z</Time>
            <Position>
              <LatitudeDegrees>41.53097595088183879852294921875</LatitudeDegrees>
              <LongitudeDegrees>-4.56675698049366474151611328125</LongitudeDegrees>
            </Position>
            <AltitudeMeters>1236.199951171875</AltitudeMeters>
            <DistanceMeters>13113.179599182</DistanceMeters>
          </Trackpoint>
          <Trackpoint>
            <Time>2023-02-23T11:15:19.000Z</Time>
            <Position>
              <LatitudeDegrees>41.53092582710087299346923828125</LatitudeDegrees>
              <LongitudeDegrees>-4.566834010183811187744140625</LongitudeDegrees>
            </Position>
            <AltitudeMeters>1235.5999755859375</AltitudeMeters>
            <DistanceMeters>13121.683826498</DistanceMeters>
          </Trackpoint>
          <Trackpoint>
            <Time>2023-02-23T11:15:20.000Z</Time>
            <Position>
              <LatitudeDegrees>41.53090839274227619171142578125</LatitudeDegrees>
              <LongitudeDegrees>-4.56685714423656463623046875</LongitudeDegrees>
            </Position>
            <AltitudeMeters>1235.199951171875</AltitudeMeters>
            <DistanceMeters>13124.418219172</DistanceMeters>
          </Trackpoint>
          <Trackpoint>
            <Time>2023-02-23T11:15:22.000Z</Time>
            <Position>
              <LatitudeDegrees>41.5308826602995395660400390625</LatitudeDegrees>
              <LongitudeDegrees>-4.5668955333530902862548828125</LongitudeDegrees>
            </Position>
            <AltitudeMeters>1234.199951171875</AltitudeMeters>
            <DistanceMeters>13128.711281717</DistanceMeters>
          </Trackpoint>
          <Trackpoint>
            <Time>2023-02-23T11:15:26.000Z</Time>
            <Position>
              <LatitudeDegrees>41.53085726313292980194091796875</LatitudeDegrees>
              <LongitudeDegrees>-4.56696468405425548553466796875</LongitudeDegrees>
            </Position>
            <AltitudeMeters>1233.800048828125</AltitudeMeters>
            <DistanceMeters>13135.128927599</DistanceMeters>
          </Trackpoint>
          <Trackpoint>
            <Time>2023-02-23T11:15:33.000Z</Time>
            <Position>
              <LatitudeDegrees>41.530823148787021636962890625</LatitudeDegrees>
              <LongitudeDegrees>-4.56707775592803955078125</LongitudeDegrees>
            </Position>
            <AltitudeMeters>1233.199951171875</AltitudeMeters>
            <DistanceMeters>13145.286123244</DistanceMeters>
          </Trackpoint>
          <Trackpoint>
            <Time>2023-02-23T11:15:37.000Z</Time>
            <Position>
              <LatitudeDegrees>41.530805043876171112060546875</LatitudeDegrees>
              <LongitudeDegrees>-4.5671151392161846160888671875</LongitudeDegrees>
            </Position>
            <AltitudeMeters>1233.5999755859375</AltitudeMeters>
            <DistanceMeters>13148.993383195</DistanceMeters>
          </Trackpoint>
          <Trackpoint>
            <Time>2023-02-23T11:15:39.000Z</Time>
            <Position>
              <LatitudeDegrees>41.53080143965780735015869140625</LatitudeDegrees>
              <LongitudeDegrees>-4.5671376027166843414306640625</LongitudeDegrees>
            </Position>
            <AltitudeMeters>1233.800048828125</AltitudeMeters>
            <DistanceMeters>13150.908118435</DistanceMeters>
          </Trackpoint>
          <Trackpoint>
            <Time>2023-02-23T11:15:44.000Z</Time>
            <Position>
              <LatitudeDegrees>41.53079330921173095703125</LatitudeDegrees>
              <LongitudeDegrees>-4.567194096744060516357421875</LongitudeDegrees>
            </Position>
            <AltitudeMeters>1234.4000244140625</AltitudeMeters>
            <DistanceMeters>13155.700141431</DistanceMeters>
          </Trackpoint>
          <Trackpoint>
            <Time>2023-02-23T11:15:47.000Z</Time>
            <Position>
              <LatitudeDegrees>41.53079456649720668792724609375</LatitudeDegrees>
              <LongitudeDegrees>-4.56721119582653045654296875</LongitudeDegrees>
            </Position>
            <AltitudeMeters>1235</AltitudeMeters>
            <DistanceMeters>13157.131863245</DistanceMeters>
          </Trackpoint>
          <Trackpoint>
            <Time>2023-02-23T11:15:48.000Z</Time>
            <Position>
              <LatitudeDegrees>41.53079263865947723388671875</LatitudeDegrees>
              <LongitudeDegrees>-4.5672160573303699493408203125</LongitudeDegrees>
            </Position>
            <AltitudeMeters>1235.199951171875</AltitudeMeters>
            <DistanceMeters>13157.597397169</DistanceMeters>
          </Trackpoint>
          <Trackpoint>
            <Time>2023-02-23T11:15:49.000Z</Time>
            <Position>
              <LatitudeDegrees>41.53078987263143062591552734375</LatitudeDegrees>
              <LongitudeDegrees>-4.5672217570245265960693359375</LongitudeDegrees>
            </Position>
            <AltitudeMeters>1235.199951171875</AltitudeMeters>
            <DistanceMeters>13158.167557456</DistanceMeters>
          </Trackpoint>
          <Trackpoint>
            <Time>2023-02-23T11:15:53.000Z</Time>
            <Position>
              <LatitudeDegrees>41.5307730250060558319091796875</LatitudeDegrees>
              <LongitudeDegrees>-4.56725251860916614532470703125</LongitudeDegrees>
            </Position>
            <AltitudeMeters>1235.800048828125</AltitudeMeters>
            <DistanceMeters>13161.342075578</DistanceMeters>
          </Trackpoint>
          <Trackpoint>
            <Time>2023-02-23T11:15:55.000Z</Time>
            <Position>
              <LatitudeDegrees>41.53076757676899433135986328125</LatitudeDegrees>
              <LongitudeDegrees>-4.567257799208164215087890625</LongitudeDegrees>
            </Position>
            <AltitudeMeters>1236.199951171875</AltitudeMeters>
            <DistanceMeters>13162.090316675</DistanceMeters>
          </Trackpoint>
          <Trackpoint>
            <Time>2023-02-23T11:15:56.000Z</Time>
            <Position>
              <LatitudeDegrees>41.53076849877834320068359375</LatitudeDegrees>
              <LongitudeDegrees>-4.5672586373984813690185546875</LongitudeDegrees>
            </Position>
            <AltitudeMeters>1236.4000244140625</AltitudeMeters>
            <DistanceMeters>13162.224704744</DistanceMeters>
          </Trackpoint>
          <Trackpoint>
            <Time>2023-02-23T11:15:57.000Z</Time>
            <Position>
              <LatitudeDegrees>41.53076774440705776214599609375</LatitudeDegrees>
              <LongitudeDegrees>-4.56726039759814739227294921875</LongitudeDegrees>
            </Position>
            <AltitudeMeters>1236.4000244140625</AltitudeMeters>
            <DistanceMeters>13162.389295841</DistanceMeters>
          </Trackpoint>
          <Trackpoint>
            <Time>2023-02-23T11:15:58.000Z</Time>
            <Position>
              <LatitudeDegrees>41.53076975606381893157958984375</LatitudeDegrees>
              <LongitudeDegrees>-4.56726475618779659271240234375</LongitudeDegrees>
            </Position>
            <AltitudeMeters>1236.5999755859375</AltitudeMeters>
            <DistanceMeters>13162.83501064</DistanceMeters>
          </Trackpoint>
          <Trackpoint>
            <Time>2023-02-23T11:16:00.000Z</Time>
            <Position>
              <LatitudeDegrees>41.5307750366628170013427734375</LatitudeDegrees>
              <LongitudeDegrees>-4.56727397628128528594970703125</LongitudeDegrees>
            </Position>
            <AltitudeMeters>1237</AltitudeMeters>
            <DistanceMeters>13163.804096781</DistanceMeters>
          </Trackpoint>
          <Trackpoint>
            <Time>2023-02-23T11:16:01.000Z</Time>
            <Position>
              <LatitudeDegrees>41.53077579103410243988037109375</LatitudeDegrees>
              <LongitudeDegrees>-4.56727825105190277099609375</LongitudeDegrees>
            </Position>
            <AltitudeMeters>1237.199951171875</AltitudeMeters>
            <DistanceMeters>13164.159654189</DistanceMeters>
          </Trackpoint>
          <Trackpoint>
            <Time>2023-02-23T11:16:02.000Z</Time>
            <Position>
              <LatitudeDegrees>41.530776210129261016845703125</LatitudeDegrees>
              <LongitudeDegrees>-4.56728135235607624053955078125</LongitudeDegrees>
            </Position>
            <AltitudeMeters>1237.4000244140625</AltitudeMeters>
            <DistanceMeters>13164.411071243</DistanceMeters>
          </Trackpoint>
          <Trackpoint>
            <Time>2023-02-23T11:16:04.000Z</Time>
            <Position>
              <LatitudeDegrees>41.530776210129261016845703125</LatitudeDegrees>
              <LongitudeDegrees>-4.56728906370699405670166015625</LongitudeDegrees>
            </Position>
            <AltitudeMeters>1237.5999755859375</AltitudeMeters>
            <DistanceMeters>13165.055573777</DistanceMeters>
          </Trackpoint>
          <Trackpoint>
            <Time>2023-02-23T11:16:11.000Z</Time>
            <Position>
              <LatitudeDegrees>41.5307468734681606292724609375</LatitudeDegrees>
              <LongitudeDegrees>-4.56731404177844524383544921875</LongitudeDegrees>
            </Position>
            <AltitudeMeters>1237.4000244140625</AltitudeMeters>
            <DistanceMeters>13168.92958811</DistanceMeters>
          </Trackpoint>
          <Trackpoint>
            <Time>2023-02-23T11:16:12.000Z</Time>
            <Position>
              <LatitudeDegrees>41.5307371504604816436767578125</LatitudeDegrees>
              <LongitudeDegrees>-4.56731789745390415191650390625</LongitudeDegrees>
            </Position>
            <AltitudeMeters>1237.4000244140625</AltitudeMeters>
            <DistanceMeters>13170.057967824</DistanceMeters>
          </Trackpoint>
          <Trackpoint>
            <Time>2023-02-23T11:16:13.000Z</Time>
            <Position>
              <LatitudeDegrees>41.530720889568328857421875</LatitudeDegrees>
              <LongitudeDegrees>-4.5673283748328685760498046875</LongitudeDegrees>
            </Position>
            <AltitudeMeters>1237.199951171875</AltitudeMeters>
            <DistanceMeters>13172.069304257</DistanceMeters>
          </Trackpoint>
          <Trackpoint>
            <Time>2023-02-23T11:16:18.000Z</Time>
            <Position>
              <LatitudeDegrees>41.53063975274562835693359375</LatitudeDegrees>
              <LongitudeDegrees>-4.56731487996876239776611328125</LongitudeDegrees>
            </Position>
            <AltitudeMeters>1237</AltitudeMeters>
            <DistanceMeters>13181.169569696</DistanceMeters>
          </Trackpoint>
          <Trackpoint>
            <Time>2023-02-23T11:16:19.000Z</Time>
            <Position>
              <LatitudeDegrees>41.5306278504431247711181640625</LatitudeDegrees>
              <LongitudeDegrees>-4.5673116110265254974365234375</LongitudeDegrees>
            </Position>
            <AltitudeMeters>1237</AltitudeMeters>
            <DistanceMeters>13182.520153067</DistanceMeters>
          </Trackpoint>
          <Trackpoint>
            <Time>2023-02-23T11:16:24.000Z</Time>
            <Position>
              <LatitudeDegrees>41.530564986169338226318359375</LatitudeDegrees>
              <LongitudeDegrees>-4.56730783917009830474853515625</LongitudeDegrees>
            </Position>
            <AltitudeMeters>1237.199951171875</AltitudeMeters>
            <DistanceMeters>13189.523821766</DistanceMeters>
          </Trackpoint>
          <Trackpoint>
            <Time>2023-02-23T11:16:25.000Z</Time>
            <Position>
              <LatitudeDegrees>41.53055283240973949432373046875</LatitudeDegrees>
              <LongitudeDegrees>-4.5673055760562419891357421875</LongitudeDegrees>
            </Position>
            <AltitudeMeters>1237.199951171875</AltitudeMeters>
            <DistanceMeters>13190.887711698</DistanceMeters>
          </Trackpoint>
          <Trackpoint>
            <Time>2023-02-23T11:16:28.000Z</Time>
            <Position>
              <LatitudeDegrees>41.53051746077835559844970703125</LatitudeDegrees>
              <LongitudeDegrees>-4.567273892462253570556640625</LongitudeDegrees>
            </Position>
            <AltitudeMeters>1237.199951171875</AltitudeMeters>
            <DistanceMeters>13195.627630494</DistanceMeters>
          </Trackpoint>
          <Trackpoint>
            <Time>2023-02-23T11:16:30.000Z</Time>
            <Position>
              <LatitudeDegrees>41.53049516491591930389404296875</LatitudeDegrees>
              <LongitudeDegrees>-4.567250423133373260498046875</LongitudeDegrees>
            </Position>
            <AltitudeMeters>1237</AltitudeMeters>
            <DistanceMeters>13198.787893861</DistanceMeters>
          </Trackpoint>
          <Trackpoint>
            <Time>2023-02-23T11:16:36.000Z</Time>
            <Position>
              <LatitudeDegrees>41.53043950907886028289794921875</LatitudeDegrees>
              <LongitudeDegrees>-4.5671999640762805938720703125</LongitudeDegrees>
            </Position>
            <AltitudeMeters>1236.800048828125</AltitudeMeters>
            <DistanceMeters>13206.274527583</DistanceMeters>
          </Trackpoint>
          <Trackpoint>
            <Time>2023-02-23T11:16:37.000Z</Time>
            <Position>
              <LatitudeDegrees>41.53043028898537158966064453125</LatitudeDegrees>
              <LongitudeDegrees>-4.56719116307795047760009765625</LongitudeDegrees>
            </Position>
            <AltitudeMeters>1237.199951171875</AltitudeMeters>
            <DistanceMeters>13207.53519941</DistanceMeters>
          </Trackpoint>
          <Trackpoint>
            <Time>2023-02-23T11:16:44.000Z</Time>
            <Position>
              <LatitudeDegrees>41.53035719878971576690673828125</LatitudeDegrees>
              <LongitudeDegrees>-4.56710985861718654632568359375</LongitudeDegrees>
            </Position>
            <AltitudeMeters>1237.199951171875</AltitudeMeters>
            <DistanceMeters>13218.122045438</DistanceMeters>
          </Trackpoint>
          <Trackpoint>
            <Time>2023-02-23T11:16:50.000Z</Time>
            <Position>
              <LatitudeDegrees>41.530277319252490997314453125</LatitudeDegrees>
              <LongitudeDegrees>-4.5670822821557521820068359375</LongitudeDegrees>
            </Position>
            <AltitudeMeters>1237.199951171875</AltitudeMeters>
            <DistanceMeters>13227.304793057</DistanceMeters>
          </Trackpoint>
          <Trackpoint>
            <Time>2023-02-23T11:16:51.000Z</Time>
            <Position>
              <LatitudeDegrees>41.5302620641887187957763671875</LatitudeDegrees>
              <LongitudeDegrees>-4.56707633100450038909912109375</LongitudeDegrees>
            </Position>
            <AltitudeMeters>1237.199951171875</AltitudeMeters>
            <DistanceMeters>13229.07239212</DistanceMeters>
          </Trackpoint>
          <Trackpoint>
            <Time>2023-02-23T11:16:57.000Z</Time>
            <Position>
              <LatitudeDegrees>41.530202217400074005126953125</LatitudeDegrees>
              <LongitudeDegrees>-4.56704012118279933929443359375</LongitudeDegrees>
            </Position>
            <AltitudeMeters>1237</AltitudeMeters>
            <DistanceMeters>13236.384511008</DistanceMeters>
          </Trackpoint>
          <Trackpoint>
            <Time>2023-02-23T11:17:04.000Z</Time>
            <Position>
              <LatitudeDegrees>41.53012921102344989776611328125</LatitudeDegrees>
              <LongitudeDegrees>-4.566994272172451019287109375</LongitudeDegrees>
            </Position>
            <AltitudeMeters>1236.800048828125</AltitudeMeters>
            <DistanceMeters>13245.363404174</DistanceMeters>
          </Trackpoint>
          <Trackpoint>
            <Time>2023-02-23T11:17:06.000Z</Time>
            <Position>
              <LatitudeDegrees>41.5301071666181087493896484375</LatitudeDegrees>
              <LongitudeDegrees>-4.56698195077478885650634765625</LongitudeDegrees>
            </Position>
            <AltitudeMeters>1237</AltitudeMeters>
            <DistanceMeters>13248.024152176</DistanceMeters>
          </Trackpoint>
          <Trackpoint>
            <Time>2023-02-23T11:17:09.000Z</Time>
            <Position>
              <LatitudeDegrees>41.5300920791923999786376953125</LatitudeDegrees>
              <LongitudeDegrees>-4.5669974572956562042236328125</LongitudeDegrees>
            </Position>
            <AltitudeMeters>1237</AltitudeMeters>
            <DistanceMeters>13250.14262993</DistanceMeters>
          </Trackpoint>
          <Trackpoint>
            <Time>2023-02-23T11:17:13.000Z</Time>
            <Position>
              <LatitudeDegrees>41.5300753153860569000244140625</LatitudeDegrees>
              <LongitudeDegrees>-4.56700575537979602813720703125</LongitudeDegrees>
            </Position>
            <AltitudeMeters>1237</AltitudeMeters>
            <DistanceMeters>13252.131391726</DistanceMeters>
          </Trackpoint>
          <Trackpoint>
            <Time>2023-02-23T11:17:17.000Z</Time>
            <Position>
              <LatitudeDegrees>41.53007372282445430755615234375</LatitudeDegrees>
              <LongitudeDegrees>-4.56702746450901031494140625</LongitudeDegrees>
            </Position>
            <AltitudeMeters>1236.4000244140625</AltitudeMeters>
            <DistanceMeters>13253.949359817</DistanceMeters>
          </Trackpoint>
          <Trackpoint>
            <Time>2023-02-23T11:17:19.000Z</Time>
            <Position>
              <LatitudeDegrees>41.53007288463413715362548828125</LatitudeDegrees>
              <LongitudeDegrees>-4.56705629825592041015625</LongitudeDegrees>
            </Position>
            <AltitudeMeters>1236.4000244140625</AltitudeMeters>
            <DistanceMeters>13256.353366665</DistanceMeters>
          </Trackpoint>
          <Trackpoint>
            <Time>2023-02-23T11:17:24.000Z</Time>
            <Position>
              <LatitudeDegrees>41.53007204644381999969482421875</LatitudeDegrees>
              <LongitudeDegrees>-4.5670576393604278564453125</LongitudeDegrees>
            </Position>
            <AltitudeMeters>1236.5999755859375</AltitudeMeters>
            <DistanceMeters>13256.487754733</DistanceMeters>
          </Trackpoint>
          <Trackpoint>
            <Time>2023-02-23T11:17:27.000Z</Time>
            <Position>
              <LatitudeDegrees>41.53009182773530483245849609375</LatitudeDegrees>
              <LongitudeDegrees>-4.56707180477678775787353515625</LongitudeDegrees>
            </Position>
            <AltitudeMeters>1236.5999755859375</AltitudeMeters>
            <DistanceMeters>13258.983902314</DistanceMeters>
          </Trackpoint>
          <Trackpoint>
            <Time>2023-02-23T11:17:30.000Z</Time>
            <Position>
              <LatitudeDegrees>41.53011739253997802734375</LatitudeDegrees>
              <LongitudeDegrees>-4.567079432308673858642578125</LongitudeDegrees>
            </Position>
            <AltitudeMeters>1236.5999755859375</AltitudeMeters>
            <DistanceMeters>13261.89891551</DistanceMeters>
          </Trackpoint>
          <Trackpoint>
            <Time>2023-02-23T11:17:32.000Z</Time>
            <Position>
              <LatitudeDegrees>41.53014077804982662200927734375</LatitudeDegrees>
              <LongitudeDegrees>-4.56708420999348163604736328125</LongitudeDegrees>
            </Position>
            <AltitudeMeters>1236.800048828125</AltitudeMeters>
            <DistanceMeters>13264.528941852</DistanceMeters>
          </Trackpoint>
          <Trackpoint>
            <Time>2023-02-23T11:17:34.000Z</Time>
            <Position>
              <LatitudeDegrees>41.53016726486384868621826171875</LatitudeDegrees>
              <LongitudeDegrees>-4.5670844614505767822265625</LongitudeDegrees>
            </Position>
            <AltitudeMeters>1237</AltitudeMeters>
            <DistanceMeters>13267.476302287</DistanceMeters>
          </Trackpoint>
          <Trackpoint>
            <Time>2023-02-23T11:17:40.000Z</Time>
            <Position>
              <LatitudeDegrees>41.5302285365760326385498046875</LatitudeDegrees>
              <LongitudeDegrees>-4.56711153499782085418701171875</LongitudeDegrees>
            </Position>
            <AltitudeMeters>1237</AltitudeMeters>
            <DistanceMeters>13274.659467105</DistanceMeters>
          </Trackpoint>
          <Trackpoint>
            <Time>2023-02-23T11:17:42.000Z</Time>
            <Position>
              <LatitudeDegrees>41.53024823404848575592041015625</LatitudeDegrees>
              <LongitudeDegrees>-4.56711052916944026947021484375</LongitudeDegrees>
            </Position>
            <AltitudeMeters>1236.800048828125</AltitudeMeters>
            <DistanceMeters>13276.855386234</DistanceMeters>
          </Trackpoint>
          <Trackpoint>
            <Time>2023-02-23T11:17:49.000Z</Time>
            <Position>
              <LatitudeDegrees>41.53031897731125354766845703125</LatitudeDegrees>
              <LongitudeDegrees>-4.56715914420783519744873046875</LongitudeDegrees>
            </Position>
            <AltitudeMeters>1236.4000244140625</AltitudeMeters>
            <DistanceMeters>13285.710224108</DistanceMeters>
          </Trackpoint>
          <Trackpoint>
            <Time>2023-02-23T11:17:56.000Z</Time>
            <Position>
              <LatitudeDegrees>41.53031227178871631622314453125</LatitudeDegrees>
              <LongitudeDegrees>-4.56715696491301059722900390625</LongitudeDegrees>
            </Position>
            <AltitudeMeters>1236.5999755859375</AltitudeMeters>
            <DistanceMeters>13286.476353972</DistanceMeters>
          </Trackpoint>
          <Trackpoint>
            <Time>2023-02-23T11:17:58.000Z</Time>
            <Position>
              <LatitudeDegrees>41.5303145349025726318359375</LatitudeDegrees>
              <LongitudeDegrees>-4.5671536959707736968994140625</LongitudeDegrees>
            </Position>
            <AltitudeMeters>1236.4000244140625</AltitudeMeters>
            <DistanceMeters>13286.844390854</DistanceMeters>
          </Trackpoint>
          <Trackpoint>
            <Time>2023-02-23T11:18:04.000Z</Time>
            <Position>
              <LatitudeDegrees>41.53028612025082111358642578125</LatitudeDegrees>
              <LongitudeDegrees>-4.56715981476008892059326171875</LongitudeDegrees>
            </Position>
            <AltitudeMeters>1235.5999755859375</AltitudeMeters>
            <DistanceMeters>13290.047228165</DistanceMeters>
          </Trackpoint>
          <Trackpoint>
            <Time>2023-02-23T11:18:13.000Z</Time>
            <Position>
              <LatitudeDegrees>41.5302352420985698699951171875</LatitudeDegrees>
              <LongitudeDegrees>-4.56714137457311153411865234375</LongitudeDegrees>
            </Position>
            <AltitudeMeters>1235.5999755859375</AltitudeMeters>
            <DistanceMeters>13295.914310183</DistanceMeters>
          </Trackpoint>
          <Trackpoint>
            <Time>2023-02-23T11:18:18.000Z</Time>
            <Position>
              <LatitudeDegrees>41.53019123710691928863525390625</LatitudeDegrees>
              <LongitudeDegrees>-4.56709225662052631378173828125</LongitudeDegrees>
            </Position>
            <AltitudeMeters>1235.5999755859375</AltitudeMeters>
            <DistanceMeters>13302.297389762</DistanceMeters>
          </Trackpoint>
          <Trackpoint>
            <Time>2023-02-23T11:18:22.000Z</Time>
            <Position>
              <LatitudeDegrees>41.5301138721406459808349609375</LatitudeDegrees>
              <LongitudeDegrees>-4.5670923404395580291748046875</LongitudeDegrees>
            </Position>
            <AltitudeMeters>1235.5999755859375</AltitudeMeters>
            <DistanceMeters>13310.908194468</DistanceMeters>
          </Trackpoint>
          <Trackpoint>
            <Time>2023-02-23T11:18:25.000Z</Time>
            <Position>
              <LatitudeDegrees>41.53007757849991321563720703125</LatitudeDegrees>
              <LongitudeDegrees>-4.56708169542253017425537109375</LongitudeDegrees>
            </Position>
            <AltitudeMeters>1236.4000244140625</AltitudeMeters>
            <DistanceMeters>13315.043767558</DistanceMeters>
          </Trackpoint>
          <Trackpoint>
            <Time>2023-02-23T11:18:31.000Z</Time>
            <Position>
              <LatitudeDegrees>41.53004639782011508941650390625</LatitudeDegrees>
              <LongitudeDegrees>-4.5670656859874725341796875</LongitudeDegrees>
            </Position>
            <AltitudeMeters>1237.199951171875</AltitudeMeters>
            <DistanceMeters>13318.760757867</DistanceMeters>
          </Trackpoint>
          <Trackpoint>
            <Time>2023-02-23T11:18:32.000Z</Time>
            <Position>
              <LatitudeDegrees>41.53004036284983158111572265625</LatitudeDegrees>
              <LongitudeDegrees>-4.56706610508263111114501953125</LongitudeDegrees>
            </Position>
            <AltitudeMeters>1237.4000244140625</AltitudeMeters>
            <DistanceMeters>13319.432698209</DistanceMeters>
          </Trackpoint>
          <Trackpoint>
            <Time>2023-02-23T11:18:38.000Z</Time>
            <Position>
              <LatitudeDegrees>41.52998873032629489898681640625</LatitudeDegrees>
              <LongitudeDegrees>-4.56705520860850811004638671875</LongitudeDegrees>
            </Position>
            <AltitudeMeters>1237.4000244140625</AltitudeMeters>
            <DistanceMeters>13325.251096321</DistanceMeters>
          </Trackpoint>
          <Trackpoint>
            <Time>2023-02-23T11:18:44.000Z</Time>
            <Position>
              <LatitudeDegrees>41.5299308113753795623779296875</LatitudeDegrees>
              <LongitudeDegrees>-4.5670454017817974090576171875</LongitudeDegrees>
            </Position>
            <AltitudeMeters>1236.800048828125</AltitudeMeters>
            <DistanceMeters>13331.749145062</DistanceMeters>
          </Trackpoint>
          <Trackpoint>
            <Time>2023-02-23T11:18:45.000Z</Time>
            <Position>
              <LatitudeDegrees>41.5299234353005886077880859375</LatitudeDegrees>
              <LongitudeDegrees>-4.5670534484088420867919921875</LongitudeDegrees>
            </Position>
            <AltitudeMeters>1236.800048828125</AltitudeMeters>
            <DistanceMeters>13332.811576028</DistanceMeters>
          </Trackpoint>
          <Trackpoint>
            <Time>2023-02-23T11:18:48.000Z</Time>
            <Position>
              <LatitudeDegrees>41.52990424074232578277587890625</LatitudeDegrees>
              <LongitudeDegrees>-4.5670682005584239959716796875</LongitudeDegrees>
            </Position>
            <AltitudeMeters>1236.800048828125</AltitudeMeters>
            <DistanceMeters>13335.27861302</DistanceMeters>
          </Trackpoint>
          <Trackpoint>
            <Time>2023-02-23T11:18:53.000Z</Time>
            <Position>
              <LatitudeDegrees>41.529865600168704986572265625</LatitudeDegrees>
              <LongitudeDegrees>-4.56709460355341434478759765625</LongitudeDegrees>
            </Position>
            <AltitudeMeters>1237</AltitudeMeters>
            <DistanceMeters>13340.109111704</DistanceMeters>
          </Trackpoint>
          <Trackpoint>
            <Time>2023-02-23T11:18:54.000Z</Time>
            <Position>
              <LatitudeDegrees>41.529862582683563232421875</LatitudeDegrees>
              <LongitudeDegrees>-4.5670966990292072296142578125</LongitudeDegrees>
            </Position>
            <AltitudeMeters>1237</AltitudeMeters>
            <DistanceMeters>13340.477148586</DistanceMeters>
          </Trackpoint>
          <Trackpoint>
            <Time>2023-02-23T11:18:55.000Z</Time>
            <Position>
              <LatitudeDegrees>41.52985780499875545501708984375</LatitudeDegrees>
              <LongitudeDegrees>-4.5670977048575878143310546875</LongitudeDegrees>
            </Position>
            <AltitudeMeters>1237</AltitudeMeters>
            <DistanceMeters>13341.014700859</DistanceMeters>
          </Trackpoint>
          <Trackpoint>
            <Time>2023-02-23T11:19:02.000Z</Time>
            <Position>
              <LatitudeDegrees>41.52980382554233074188232421875</LatitudeDegrees>
              <LongitudeDegrees>-4.56712427549064159393310546875</LongitudeDegrees>
            </Position>
            <AltitudeMeters>1237</AltitudeMeters>
            <DistanceMeters>13347.417555461</DistanceMeters>
          </Trackpoint>
          <Trackpoint>
            <Time>2023-02-23T11:19:04.000Z</Time>
            <Position>
              <LatitudeDegrees>41.5297806076705455780029296875</LatitudeDegrees>
              <LongitudeDegrees>-4.567141123116016387939453125</LongitudeDegrees>
            </Position>
            <AltitudeMeters>1236.800048828125</AltitudeMeters>
            <DistanceMeters>13350.358781946</DistanceMeters>
          </Trackpoint>
          <Trackpoint>
            <Time>2023-02-23T11:19:08.000Z</Time>
            <Position>
              <LatitudeDegrees>41.5297095291316509246826171875</LatitudeDegrees>
              <LongitudeDegrees>-4.56716266460716724395751953125</LongitudeDegrees>
            </Position>
            <AltitudeMeters>1237.199951171875</AltitudeMeters>
            <DistanceMeters>13358.471192014</DistanceMeters>
          </Trackpoint>
          <Trackpoint>
            <Time>2023-02-23T11:19:09.000Z</Time>
            <Position>
              <LatitudeDegrees>41.52969670481979846954345703125</LatitudeDegrees>
              <LongitudeDegrees>-4.5671748183667659759521484375</LongitudeDegrees>
            </Position>
            <AltitudeMeters>1237.4000244140625</AltitudeMeters>
            <DistanceMeters>13360.220819379</DistanceMeters>
          </Trackpoint>
          <Trackpoint>
            <Time>2023-02-23T11:19:16.000Z</Time>
            <Position>
              <LatitudeDegrees>41.5296010673046112060546875</LatitudeDegrees>
              <LongitudeDegrees>-4.56723935902118682861328125</LongitudeDegrees>
            </Position>
            <AltitudeMeters>1237</AltitudeMeters>
            <DistanceMeters>13372.146577384</DistanceMeters>
          </Trackpoint>
          <Trackpoint>
            <Time>2023-02-23T11:19:21.000Z</Time>
            <Position>
              <LatitudeDegrees>41.529522947967052459716796875</LatitudeDegrees>
              <LongitudeDegrees>-4.56727012060582637786865234375</LongitudeDegrees>
            </Position>
            <AltitudeMeters>1237</AltitudeMeters>
            <DistanceMeters>13381.21055198</DistanceMeters>
          </Trackpoint>
          <Trackpoint>
            <Time>2023-02-23T11:19:22.000Z</Time>
            <Position>
              <LatitudeDegrees>41.52950786054134368896484375</LatitudeDegrees>
              <LongitudeDegrees>-4.56727732904255390167236328125</LongitudeDegrees>
            </Position>
            <AltitudeMeters>1237</AltitudeMeters>
            <DistanceMeters>13382.993411175</DistanceMeters>
          </Trackpoint>
          <Trackpoint>
            <Time>2023-02-23T11:19:24.000Z</Time>
            <Position>
              <LatitudeDegrees>41.52947676368057727813720703125</LatitudeDegrees>
              <LongitudeDegrees>-4.5672881416976451873779296875</LongitudeDegrees>
            </Position>
            <AltitudeMeters>1237</AltitudeMeters>
            <DistanceMeters>13386.569245098</DistanceMeters>
          </Trackpoint>
          <Trackpoint>
            <Time>2023-02-23T11:19:31.000Z</Time>
            <Position>
              <LatitudeDegrees>41.52934885583817958831787109375</LatitudeDegrees>
              <LongitudeDegrees>-4.56732845865190029144287109375</LongitudeDegrees>
            </Position>
            <AltitudeMeters>1236.800048828125</AltitudeMeters>
            <DistanceMeters>13401.196569914</DistanceMeters>
          </Trackpoint>
          <Trackpoint>
            <Time>2023-02-23T11:19:37.000Z</Time>
            <Position>
              <LatitudeDegrees>41.52927794493734836578369140625</LatitudeDegrees>
              <LongitudeDegrees>-4.56740020774304866790771484375</LongitudeDegrees>
            </Position>
            <AltitudeMeters>1236.5999755859375</AltitudeMeters>
            <DistanceMeters>13411.097605712</DistanceMeters>
          </Trackpoint>
          <Trackpoint>
            <Time>2023-02-23T11:19:38.000Z</Time>
            <Position>
              <LatitudeDegrees>41.52926654554903507232666015625</LatitudeDegrees>
              <LongitudeDegrees>-4.56741261295974254608154296875</LongitudeDegrees>
            </Position>
            <AltitudeMeters>1236.5999755859375</AltitudeMeters>
            <DistanceMeters>13412.735266453</DistanceMeters>
          </Trackpoint>
          <Trackpoint>
            <Time>2023-02-23T11:19:39.000Z</Time>
            <Position>
              <LatitudeDegrees>41.52925749309360980987548828125</LatitudeDegrees>
              <LongitudeDegrees>-4.567424766719341278076171875</LongitudeDegrees>
            </Position>
            <AltitudeMeters>1236.5999755859375</AltitudeMeters>
            <DistanceMeters>13414.163831214</DistanceMeters>
          </Trackpoint>
          <Trackpoint>
            <Time>2023-02-23T11:19:45.000Z</Time>
            <Position>
              <LatitudeDegrees>41.5292227081954479217529296875</LatitudeDegrees>
              <LongitudeDegrees>-4.56753297708928585052490234375</LongitudeDegrees>
            </Position>
            <AltitudeMeters>1236.5999755859375</AltitudeMeters>
            <DistanceMeters>13423.976921206</DistanceMeters>
          </Trackpoint>
          <Trackpoint>
            <Time>2023-02-23T11:19:49.000Z</Time>
            <Position>
              <LatitudeDegrees>41.529221199452877044677734375</LatitudeDegrees>
              <LongitudeDegrees>-4.56760221160948276519775390625</LongitudeDegrees>
            </Position>
            <AltitudeMeters>1236.800048828125</AltitudeMeters>
            <DistanceMeters>13429.747789592</DistanceMeters>
          </Trackpoint>
          <Trackpoint>
            <Time>2023-02-23T11:19:52.000Z</Time>
            <Position>
              <LatitudeDegrees>41.5292062796652317047119140625</LatitudeDegrees>
              <LongitudeDegrees>-4.567653425037860870361328125</LongitudeDegrees>
            </Position>
            <AltitudeMeters>1236.5999755859375</AltitudeMeters>
            <DistanceMeters>13434.324882267</DistanceMeters>
          </Trackpoint>
          <Trackpoint>
            <Time>2023-02-23T11:19:53.000Z</Time>
            <Position>
              <LatitudeDegrees>41.52920074760913848876953125</LatitudeDegrees>
              <LongitudeDegrees>-4.56766851246356964111328125</LongitudeDegrees>
            </Position>
            <AltitudeMeters>1236.4000244140625</AltitudeMeters>
            <DistanceMeters>13435.721484039</DistanceMeters>
          </Trackpoint>
          <Trackpoint>
            <Time>2023-02-23T11:19:59.000Z</Time>
            <Position>
              <LatitudeDegrees>41.52918063104152679443359375</LatitudeDegrees>
              <LongitudeDegrees>-4.56776909530162811279296875</LongitudeDegrees>
            </Position>
            <AltitudeMeters>1236.199951171875</AltitudeMeters>
            <DistanceMeters>13444.395502539</DistanceMeters>
          </Trackpoint>
          <Trackpoint>
            <Time>2023-02-23T11:20:00.000Z</Time>
            <Position>
              <LatitudeDegrees>41.5291764400899410247802734375</LatitudeDegrees>
              <LongitudeDegrees>-4.56779030151665210723876953125</LongitudeDegrees>
            </Position>
            <AltitudeMeters>1236.199951171875</AltitudeMeters>
            <DistanceMeters>13446.225846321</DistanceMeters>
          </Trackpoint>
          <Trackpoint>
            <Time>2023-02-23T11:20:07.000Z</Time>
            <Position>
              <LatitudeDegrees>41.52919714339077472686767578125</LatitudeDegrees>
              <LongitudeDegrees>-4.56790429539978504180908203125</LongitudeDegrees>
            </Position>
            <AltitudeMeters>1237</AltitudeMeters>
            <DistanceMeters>13456.0002112</DistanceMeters>
          </Trackpoint>
          <Trackpoint>
            <Time>2023-02-23T11:20:08.000Z</Time>
            <Position>
              <LatitudeDegrees>41.5291960537433624267578125</LatitudeDegrees>
              <LongitudeDegrees>-4.56791686825454235076904296875</LongitudeDegrees>
            </Position>
            <AltitudeMeters>1237</AltitudeMeters>
            <DistanceMeters>13457.058383907</DistanceMeters>
          </Trackpoint>
          <Trackpoint>
            <Time>2023-02-23T11:20:10.000Z</Time>
            <Position>
              <LatitudeDegrees>41.52918272651731967926025390625</LatitudeDegrees>
              <LongitudeDegrees>-4.56794016994535923004150390625</LongitudeDegrees>
            </Position>
            <AltitudeMeters>1237</AltitudeMeters>
            <DistanceMeters>13459.503360514</DistanceMeters>
          </Trackpoint>
          <Trackpoint>
            <Time>2023-02-23T11:20:13.000Z</Time>
            <Position>
              <LatitudeDegrees>41.52914936654269695281982421875</LatitudeDegrees>
              <LongitudeDegrees>-4.5679969154298305511474609375</LongitudeDegrees>
            </Position>
            <AltitudeMeters>1237.199951171875</AltitudeMeters>
            <DistanceMeters>13465.516381891</DistanceMeters>
          </Trackpoint>
          <Trackpoint>
            <Time>2023-02-23T11:20:17.000Z</Time>
            <Position>
              <LatitudeDegrees>41.52909689582884311676025390625</LatitudeDegrees>
              <LongitudeDegrees>-4.56806992180645465850830078125</LongitudeDegrees>
            </Position>
            <AltitudeMeters>1237.199951171875</AltitudeMeters>
            <DistanceMeters>13473.949701645</DistanceMeters>
          </Trackpoint>
          <Trackpoint>
            <Time>2023-02-23T11:20:19.000Z</Time>
            <Position>
              <LatitudeDegrees>41.52907208539545536041259765625</LatitudeDegrees>
              <LongitudeDegrees>-4.56810034811496734619140625</LongitudeDegrees>
            </Position>
            <AltitudeMeters>1237</AltitudeMeters>
            <DistanceMeters>13477.69814118</DistanceMeters>
          </Trackpoint>
          <Trackpoint>
            <Time>2023-02-23T11:20:24.000Z</Time>
            <Position>
              <LatitudeDegrees>41.5290141664445400238037109375</LatitudeDegrees>
              <LongitudeDegrees>-4.56818542443215847015380859375</LongitudeDegrees>
            </Position>
            <AltitudeMeters>1235.4000244140625</AltitudeMeters>
            <DistanceMeters>13487.280302589</DistanceMeters>
          </Trackpoint>
          <Trackpoint>
            <Time>2023-02-23T11:20:25.000Z</Time>
            <Position>
              <LatitudeDegrees>41.52900301851332187652587890625</LatitudeDegrees>
              <LongitudeDegrees>-4.5682041160762310028076171875</LongitudeDegrees>
            </Position>
            <AltitudeMeters>1235.199951171875</AltitudeMeters>
            <DistanceMeters>13489.271333367</DistanceMeters>
          </Trackpoint>
          <Trackpoint>
            <Time>2023-02-23T11:20:31.000Z</Time>
            <Position>
              <LatitudeDegrees>41.5289377234876155853271484375</LatitudeDegrees>
              <LongitudeDegrees>-4.56831090152263641357421875</LongitudeDegrees>
            </Position>
            <AltitudeMeters>1235.199951171875</AltitudeMeters>
            <DistanceMeters>13500.759744802</DistanceMeters>
          </Trackpoint>
          <Trackpoint>
            <Time>2023-02-23T11:20:34.000Z</Time>
            <Position>
              <LatitudeDegrees>41.528906710445880889892578125</LatitudeDegrees>
              <LongitudeDegrees>-4.568364880979061126708984375</LongitudeDegrees>
            </Position>
            <AltitudeMeters>1234.4000244140625</AltitudeMeters>
            <DistanceMeters>13506.429583613</DistanceMeters>
          </Trackpoint>
          <Trackpoint>
            <Time>2023-02-23T11:20:35.000Z</Time>
            <Position>
              <LatitudeDegrees>41.528902016580104827880859375</LatitudeDegrees>
              <LongitudeDegrees>-4.5683881826698780059814453125</LongitudeDegrees>
            </Position>
            <AltitudeMeters>1234.199951171875</AltitudeMeters>
            <DistanceMeters>13508.440920046</DistanceMeters>
          </Trackpoint>
          <Trackpoint>
            <Time>2023-02-23T11:20:37.000Z</Time>
            <Position>
              <LatitudeDegrees>41.52890034019947052001953125</LatitudeDegrees>
              <LongitudeDegrees>-4.56842481158673763275146484375</LongitudeDegrees>
            </Position>
            <AltitudeMeters>1234</AltitudeMeters>
            <DistanceMeters>13511.499540519</DistanceMeters>
          </Trackpoint>
          <Trackpoint>
            <Time>2023-02-23T11:20:39.000Z</Time>
            <Position>
              <LatitudeDegrees>41.52889187447726726531982421875</LatitudeDegrees>
              <LongitudeDegrees>-4.56845984794199466705322265625</LongitudeDegrees>
            </Position>
            <AltitudeMeters>1233.5999755859375</AltitudeMeters>
            <DistanceMeters>13514.567005214</DistanceMeters>
          </Trackpoint>
          <Trackpoint>
            <Time>2023-02-23T11:20:42.000Z</Time>
            <Position>
              <LatitudeDegrees>41.52887083590030670166015625</LatitudeDegrees>
              <LongitudeDegrees>-4.5685199461877346038818359375</LongitudeDegrees>
            </Position>
            <AltitudeMeters>1233.4000244140625</AltitudeMeters>
            <DistanceMeters>13520.095730995</DistanceMeters>
          </Trackpoint>
          <Trackpoint>
            <Time>2023-02-23T11:20:43.000Z</Time>
            <Position>
              <LatitudeDegrees>41.52885583229362964630126953125</LatitudeDegrees>
              <LongitudeDegrees>-4.5685427449643611907958984375</LongitudeDegrees>
            </Position>
            <AltitudeMeters>1233.199951171875</AltitudeMeters>
            <DistanceMeters>13522.626012442</DistanceMeters>
          </Trackpoint>
          <Trackpoint>
            <Time>2023-02-23T11:20:44.000Z</Time>
            <Position>
              <LatitudeDegrees>41.5288475342094898223876953125</LatitudeDegrees>
              <LongitudeDegrees>-4.56856462173163890838623046875</LongitudeDegrees>
            </Position>
            <AltitudeMeters>1233</AltitudeMeters>
            <DistanceMeters>13524.668534245</DistanceMeters>
          </Trackpoint>
          <Trackpoint>
            <Time>2023-02-23T11:20:48.000Z</Time>
            <Position>
              <LatitudeDegrees>41.528808809816837310791015625</LatitudeDegrees>
              <LongitudeDegrees>-4.56864039413630962371826171875</LongitudeDegrees>
            </Position>
            <AltitudeMeters>1232.5999755859375</AltitudeMeters>
            <DistanceMeters>13532.31331382</DistanceMeters>
          </Trackpoint>
          <Trackpoint>
            <Time>2023-02-23T11:20:50.000Z</Time>
            <Position>
              <LatitudeDegrees>41.5287935547530651092529296875</LatitudeDegrees>
              <LongitudeDegrees>-4.56868867389857769012451171875</LongitudeDegrees>
            </Position>
            <AltitudeMeters>1232.199951171875</AltitudeMeters>
            <DistanceMeters>13536.68040913</DistanceMeters>
          </Trackpoint>
          <Trackpoint>
            <Time>2023-02-23T11:20:51.000Z</Time>
            <Position>
              <LatitudeDegrees>41.52878500521183013916015625</LatitudeDegrees>
              <LongitudeDegrees>-4.5687259733676910400390625</LongitudeDegrees>
            </Position>
            <AltitudeMeters>1232.199951171875</AltitudeMeters>
            <DistanceMeters>13539.930822864</DistanceMeters>
          </Trackpoint>
          <Trackpoint>
            <Time>2023-02-23T11:20:54.000Z</Time>
            <Position>
              <LatitudeDegrees>41.52873848564922809600830078125</LatitudeDegrees>
              <LongitudeDegrees>-4.56883787177503108978271484375</LongitudeDegrees>
            </Position>
            <AltitudeMeters>1231.800048828125</AltitudeMeters>
            <DistanceMeters>13550.595428473</DistanceMeters>
          </Trackpoint>
          <Trackpoint>
            <Time>2023-02-23T11:20:56.000Z</Time>
            <Position>
              <LatitudeDegrees>41.528709232807159423828125</LatitudeDegrees>
              <LongitudeDegrees>-4.5688957907259464263916015625</LongitudeDegrees>
            </Position>
            <AltitudeMeters>1231.5999755859375</AltitudeMeters>
            <DistanceMeters>13556.4161541</DistanceMeters>
          </Trackpoint>
          <Trackpoint>
            <Time>2023-02-23T11:20:57.000Z</Time>
            <Position>
              <LatitudeDegrees>41.52870009653270244598388671875</LatitudeDegrees>
              <LongitudeDegrees>-4.56892403773963451385498046875</LongitudeDegrees>
            </Position>
            <AltitudeMeters>1231.4000244140625</AltitudeMeters>
            <DistanceMeters>13558.98011503</DistanceMeters>
          </Trackpoint>
          <Trackpoint>
            <Time>2023-02-23T11:20:59.000Z</Time>
            <Position>
              <LatitudeDegrees>41.52868852950632572174072265625</LatitudeDegrees>
              <LongitudeDegrees>-4.56898539327085018157958984375</LongitudeDegrees>
            </Position>
            <AltitudeMeters>1231.199951171875</AltitudeMeters>
            <DistanceMeters>13564.252171108</DistanceMeters>
          </Trackpoint>
          <Trackpoint>
            <Time>2023-02-23T11:21:00.000Z</Time>
            <Position>
              <LatitudeDegrees>41.528677046298980712890625</LatitudeDegrees>
              <LongitudeDegrees>-4.5690101198852062225341796875</LongitudeDegrees>
            </Position>
            <AltitudeMeters>1231.199951171875</AltitudeMeters>
            <DistanceMeters>13566.678610854</DistanceMeters>
          </Trackpoint>
          <Trackpoint>
            <Time>2023-02-23T11:21:02.000Z</Time>
            <Position>
              <LatitudeDegrees>41.5286507271230220794677734375</LatitudeDegrees>
              <LongitudeDegrees>-4.5690496824681758880615234375</LongitudeDegrees>
            </Position>
            <AltitudeMeters>1231</AltitudeMeters>
            <DistanceMeters>13571.088915227</DistanceMeters>
          </Trackpoint>
          <Trackpoint>
            <Time>2023-02-23T11:21:05.000Z</Time>
            <Position>
              <LatitudeDegrees>41.528591215610504150390625</LatitudeDegrees>
              <LongitudeDegrees>-4.56909888423979282379150390625</LongitudeDegrees>
            </Position>
            <AltitudeMeters>1230.800048828125</AltitudeMeters>
            <DistanceMeters>13578.878787736</DistanceMeters>
          </Trackpoint>
          <Trackpoint>
            <Time>2023-02-23T11:21:11.000Z</Time>
            <Position>
              <LatitudeDegrees>41.528476215898990631103515625</LatitudeDegrees>
              <LongitudeDegrees>-4.56915839575231075286865234375</LongitudeDegrees>
            </Position>
            <AltitudeMeters>1230.5999755859375</AltitudeMeters>
            <DistanceMeters>13592.605461589</DistanceMeters>
          </Trackpoint>
          <Trackpoint>
            <Time>2023-02-23T11:21:19.000Z</Time>
            <Position>
              <LatitudeDegrees>41.5283895470201969146728515625</LatitudeDegrees>
              <LongitudeDegrees>-4.5692206732928752899169921875</LongitudeDegrees>
            </Position>
            <AltitudeMeters>1230.5999755859375</AltitudeMeters>
            <DistanceMeters>13603.559119687</DistanceMeters>
          </Trackpoint>
          <Trackpoint>
            <Time>2023-02-23T11:21:21.000Z</Time>
            <Position>
              <LatitudeDegrees>41.52835576795041561126708984375</LatitudeDegrees>
              <LongitudeDegrees>-4.56923617981374263763427734375</LongitudeDegrees>
            </Position>
            <AltitudeMeters>1230.5999755859375</AltitudeMeters>
            <DistanceMeters>13607.534372355</DistanceMeters>
          </Trackpoint>
          <Trackpoint>
            <Time>2023-02-23T11:21:27.000Z</Time>
            <Position>
              <LatitudeDegrees>41.5282524190843105316162109375</LatitudeDegrees>
              <LongitudeDegrees>-4.56927674822509288787841796875</LongitudeDegrees>
            </Position>
            <AltitudeMeters>1230.5999755859375</AltitudeMeters>
            <DistanceMeters>13619.52356569</DistanceMeters>
          </Trackpoint>
          <Trackpoint>
            <Time>2023-02-23T11:21:28.000Z</Time>
            <Position>
              <LatitudeDegrees>41.5282369963824748992919921875</LatitudeDegrees>
              <LongitudeDegrees>-4.5692769996821880340576171875</LongitudeDegrees>
            </Position>
            <AltitudeMeters>1230.4000244140625</AltitudeMeters>
            <DistanceMeters>13621.241947195</DistanceMeters>
          </Trackpoint>
          <Trackpoint>
            <Time>2023-02-23T11:21:29.000Z</Time>
            <Position>
              <LatitudeDegrees>41.52822668664157390594482421875</LatitudeDegrees>
              <LongitudeDegrees>-4.5692763291299343109130859375</LongitudeDegrees>
            </Position>
            <AltitudeMeters>1230.4000244140625</AltitudeMeters>
            <DistanceMeters>13622.394084877</DistanceMeters>
          </Trackpoint>
          <Trackpoint>
            <Time>2023-02-23T11:21:31.000Z</Time>
            <Position>
              <LatitudeDegrees>41.52821444906294345855712890625</LatitudeDegrees>
              <LongitudeDegrees>-4.56928462721407413482666015625</LongitudeDegrees>
            </Position>
            <AltitudeMeters>1230.199951171875</AltitudeMeters>
            <DistanceMeters>13623.920439922</DistanceMeters>
          </Trackpoint>
          <Trackpoint>
            <Time>2023-02-23T11:21:32.000Z</Time>
            <Position>
              <LatitudeDegrees>41.5282148681581020355224609375</LatitudeDegrees>
              <LongitudeDegrees>-4.56928513012826442718505859375</LongitudeDegrees>
            </Position>
            <AltitudeMeters>1230.199951171875</AltitudeMeters>
            <DistanceMeters>13623.920439922</DistanceMeters>
          </Trackpoint>
          <Trackpoint>
            <Time>2023-02-23T11:21:37.000Z</Time>
            <Position>
              <LatitudeDegrees>41.52817991562187671661376953125</LatitudeDegrees>
              <LongitudeDegrees>-4.56929686479270458221435546875</LongitudeDegrees>
            </Position>
            <AltitudeMeters>1230.199951171875</AltitudeMeters>
            <DistanceMeters>13627.93187311</DistanceMeters>
          </Trackpoint>
          <Trackpoint>
            <Time>2023-02-23T11:21:43.000Z</Time>
            <Position>
              <LatitudeDegrees>41.52814823202788829803466796875</LatitudeDegrees>
              <LongitudeDegrees>-4.569333158433437347412109375</LongitudeDegrees>
            </Position>
            <AltitudeMeters>1230</AltitudeMeters>
            <DistanceMeters>13632.577503605</DistanceMeters>
          </Trackpoint>
          <Trackpoint>
            <Time>2023-02-23T11:21:44.000Z</Time>
            <Position>
              <LatitudeDegrees>41.5281397663056850433349609375</LatitudeDegrees>
              <LongitudeDegrees>-4.569341205060482025146484375</LongitudeDegrees>
            </Position>
            <AltitudeMeters>1229.800048828125</AltitudeMeters>
            <DistanceMeters>13633.737452479</DistanceMeters>
          </Trackpoint>
          <Trackpoint>
            <Time>2023-02-23T11:21:49.000Z</Time>
            <Position>
              <LatitudeDegrees>41.52810917235910892486572265625</LatitudeDegrees>
              <LongitudeDegrees>-4.56937037408351898193359375</LongitudeDegrees>
            </Position>
            <AltitudeMeters>1229.5999755859375</AltitudeMeters>
            <DistanceMeters>13637.920787052</DistanceMeters>
          </Trackpoint>
          <Trackpoint>
            <Time>2023-02-23T11:21:50.000Z</Time>
            <Position>
              <LatitudeDegrees>41.5280955098569393157958984375</LatitudeDegrees>
              <LongitudeDegrees>-4.56938152201473712921142578125</LongitudeDegrees>
            </Position>
            <AltitudeMeters>1229.5999755859375</AltitudeMeters>
            <DistanceMeters>13639.698574091</DistanceMeters>
          </Trackpoint>
          <Trackpoint>
            <Time>2023-02-23T11:21:51.000Z</Time>
            <Position>
              <LatitudeDegrees>41.5280817635357379913330078125</LatitudeDegrees>
              <LongitudeDegrees>-4.5693886466324329376220703125</LongitudeDegrees>
            </Position>
            <AltitudeMeters>1229.5999755859375</AltitudeMeters>
            <DistanceMeters>13641.33898952</DistanceMeters>
          </Trackpoint>
          <Trackpoint>
            <Time>2023-02-23T11:21:54.000Z</Time>
            <Position>
              <LatitudeDegrees>41.52804798446595668792724609375</LatitudeDegrees>
              <LongitudeDegrees>-4.5693886466324329376220703125</LongitudeDegrees>
            </Position>
            <AltitudeMeters>1229.199951171875</AltitudeMeters>
            <DistanceMeters>13645.098254027</DistanceMeters>
          </Trackpoint>
          <Trackpoint>
            <Time>2023-02-23T11:21:56.000Z</Time>
            <Position>
              <LatitudeDegrees>41.52801613323390483856201171875</LatitudeDegrees>
              <LongitudeDegrees>-4.569383449852466583251953125</LongitudeDegrees>
            </Position>
            <AltitudeMeters>1229</AltitudeMeters>
            <DistanceMeters>13648.669033766</DistanceMeters>
          </Trackpoint>
          <Trackpoint>
            <Time>2023-02-23T11:22:03.000Z</Time>
            <Position>
              <LatitudeDegrees>41.52789912186563014984130859375</LatitudeDegrees>
              <LongitudeDegrees>-4.56938655115664005279541015625</LongitudeDegrees>
            </Position>
            <AltitudeMeters>1229.199951171875</AltitudeMeters>
            <DistanceMeters>13661.694974668</DistanceMeters>
          </Trackpoint>
          <Trackpoint>
            <Time>2023-02-23T11:22:10.000Z</Time>
            <Position>
              <LatitudeDegrees>41.527814380824565887451171875</LatitudeDegrees>
              <LongitudeDegrees>-4.5694674365222454071044921875</LongitudeDegrees>
            </Position>
            <AltitudeMeters>1229.4000244140625</AltitudeMeters>
            <DistanceMeters>13673.287454887</DistanceMeters>
          </Trackpoint>
          <Trackpoint>
            <Time>2023-02-23T11:22:14.000Z</Time>
            <Position>
              <LatitudeDegrees>41.52777649462223052978515625</LatitudeDegrees>
              <LongitudeDegrees>-4.56952996551990509033203125</LongitudeDegrees>
            </Position>
            <AltitudeMeters>1229.4000244140625</AltitudeMeters>
            <DistanceMeters>13679.99003874</DistanceMeters>
          </Trackpoint>
          <Trackpoint>
            <Time>2023-02-23T11:22:18.000Z</Time>
            <Position>
              <LatitudeDegrees>41.52773626148700714111328125</LatitudeDegrees>
              <LongitudeDegrees>-4.56958386115729808807373046875</LongitudeDegrees>
            </Position>
            <AltitudeMeters>1229.199951171875</AltitudeMeters>
            <DistanceMeters>13686.331959623</DistanceMeters>
          </Trackpoint>
          <Trackpoint>
            <Time>2023-02-23T11:22:22.000Z</Time>
            <Position>
              <LatitudeDegrees>41.5276811085641384124755859375</LatitudeDegrees>
              <LongitudeDegrees>-4.56962208263576030731201171875</LongitudeDegrees>
            </Position>
            <AltitudeMeters>1229.199951171875</AltitudeMeters>
            <DistanceMeters>13693.247397776</DistanceMeters>
          </Trackpoint>
          <Trackpoint>
            <Time>2023-02-23T11:22:24.000Z</Time>
            <Position>
              <LatitudeDegrees>41.52765805833041667938232421875</LatitudeDegrees>
              <LongitudeDegrees>-4.569624848663806915283203125</LongitudeDegrees>
            </Position>
            <AltitudeMeters>1229.4000244140625</AltitudeMeters>
            <DistanceMeters>13695.821902798</DistanceMeters>
          </Trackpoint>
          <Trackpoint>
            <Time>2023-02-23T11:22:25.000Z</Time>
            <Position>
              <LatitudeDegrees>41.5276457369327545166015625</LatitudeDegrees>
              <LongitudeDegrees>-4.5696189813315868377685546875</LongitudeDegrees>
            </Position>
            <AltitudeMeters>1229.4000244140625</AltitudeMeters>
            <DistanceMeters>13697.275532011</DistanceMeters>
          </Trackpoint>
          <Trackpoint>
            <Time>2023-02-23T11:22:26.000Z</Time>
            <Position>
              <LatitudeDegrees>41.5276350080966949462890625</LatitudeDegrees>
              <LongitudeDegrees>-4.56961453892290592193603515625</LongitudeDegrees>
            </Position>
            <AltitudeMeters>1229.4000244140625</AltitudeMeters>
            <DistanceMeters>13698.521795686</DistanceMeters>
          </Trackpoint>
          <Trackpoint>
            <Time>2023-02-23T11:22:29.000Z</Time>
            <Position>
              <LatitudeDegrees>41.52759687043726444244384765625</LatitudeDegrees>
              <LongitudeDegrees>-4.56961235962808132171630859375</LongitudeDegrees>
            </Position>
            <AltitudeMeters>1229.199951171875</AltitudeMeters>
            <DistanceMeters>13702.769394153</DistanceMeters>
          </Trackpoint>
          <Trackpoint>
            <Time>2023-02-23T11:22:31.000Z</Time>
            <Position>
              <LatitudeDegrees>41.527572982013225555419921875</LatitudeDegrees>
              <LongitudeDegrees>-4.569600708782672882080078125</LongitudeDegrees>
            </Position>
            <AltitudeMeters>1229</AltitudeMeters>
            <DistanceMeters>13705.597935779</DistanceMeters>
          </Trackpoint>
          <Trackpoint>
            <Time>2023-02-23T11:22:32.000Z</Time>
            <Position>
              <LatitudeDegrees>41.52756133116781711578369140625</LatitudeDegrees>
              <LongitudeDegrees>-4.5695928297936916351318359375</LongitudeDegrees>
            </Position>
            <AltitudeMeters>1228.800048828125</AltitudeMeters>
            <DistanceMeters>13707.051564991</DistanceMeters>
          </Trackpoint>
          <Trackpoint>
            <Time>2023-02-23T11:22:33.000Z</Time>
            <Position>
              <LatitudeDegrees>41.52754993177950382232666015625</LatitudeDegrees>
              <LongitudeDegrees>-4.56958872266113758087158203125</LongitudeDegrees>
            </Position>
            <AltitudeMeters>1228.800048828125</AltitudeMeters>
            <DistanceMeters>13708.36829377</DistanceMeters>
          </Trackpoint>
          <Trackpoint>
            <Time>2023-02-23T11:22:39.000Z</Time>
            <Position>
              <LatitudeDegrees>41.5274705551564693450927734375</LatitudeDegrees>
              <LongitudeDegrees>-4.56952921114861965179443359375</LongitudeDegrees>
            </Position>
            <AltitudeMeters>1229.199951171875</AltitudeMeters>
            <DistanceMeters>13718.500120309</DistanceMeters>
          </Trackpoint>
          <Trackpoint>
            <Time>2023-02-23T11:22:44.000Z</Time>
            <Position>
              <LatitudeDegrees>41.52741716243326663970947265625</LatitudeDegrees>
              <LongitudeDegrees>-4.56950448453426361083984375</LongitudeDegrees>
            </Position>
            <AltitudeMeters>1228.800048828125</AltitudeMeters>
            <DistanceMeters>13724.790572994</DistanceMeters>
          </Trackpoint>
          <Trackpoint>
            <Time>2023-02-23T11:22:50.000Z</Time>
            <Position>
              <LatitudeDegrees>41.527358405292034149169921875</LatitudeDegrees>
              <LongitudeDegrees>-4.56944036297500133514404296875</LongitudeDegrees>
            </Position>
            <AltitudeMeters>1228.800048828125</AltitudeMeters>
            <DistanceMeters>13733.235662914</DistanceMeters>
          </Trackpoint>
          <Trackpoint>
            <Time>2023-02-23T11:22:51.000Z</Time>
            <Position>
              <LatitudeDegrees>41.527342312037944793701171875</LatitudeDegrees>
              <LongitudeDegrees>-4.56943851895630359649658203125</LongitudeDegrees>
            </Position>
            <AltitudeMeters>1229</AltitudeMeters>
            <DistanceMeters>13735.033652726</DistanceMeters>
          </Trackpoint>
          <Trackpoint>
            <Time>2023-02-23T11:22:58.000Z</Time>
            <Position>
              <LatitudeDegrees>41.52721918188035488128662109375</LatitudeDegrees>
              <LongitudeDegrees>-4.56941052339971065521240234375</LongitudeDegrees>
            </Position>
            <AltitudeMeters>1228.5999755859375</AltitudeMeters>
            <DistanceMeters>13748.935512172</DistanceMeters>
          </Trackpoint>
          <Trackpoint>
            <Time>2023-02-23T11:23:05.000Z</Time>
            <Position>
              <LatitudeDegrees>41.5271228738129138946533203125</LatitudeDegrees>
              <LongitudeDegrees>-4.5693467371165752410888671875</LongitudeDegrees>
            </Position>
            <AltitudeMeters>1229</AltitudeMeters>
            <DistanceMeters>13760.90095667</DistanceMeters>
          </Trackpoint>
          <Trackpoint>
            <Time>2023-02-23T11:23:12.000Z</Time>
            <Position>
              <LatitudeDegrees>41.527025140821933746337890625</LatitudeDegrees>
              <LongitudeDegrees>-4.5693014748394489288330078125</LongitudeDegrees>
            </Position>
            <AltitudeMeters>1228.199951171875</AltitudeMeters>
            <DistanceMeters>13772.414493146</DistanceMeters>
          </Trackpoint>
          <Trackpoint>
            <Time>2023-02-23T11:23:15.000Z</Time>
            <Position>
              <LatitudeDegrees>41.5269743464887142181396484375</LatitudeDegrees>
              <LongitudeDegrees>-4.5692753233015537261962890625</LongitudeDegrees>
            </Position>
            <AltitudeMeters>1228</AltitudeMeters>
            <DistanceMeters>13778.473890049</DistanceMeters>
          </Trackpoint>
          <Trackpoint>
            <Time>2023-02-23T11:23:19.000Z</Time>
            <Position>
              <LatitudeDegrees>41.52690888382494449615478515625</LatitudeDegrees>
              <LongitudeDegrees>-4.569225199520587921142578125</LongitudeDegrees>
            </Position>
            <AltitudeMeters>1227.800048828125</AltitudeMeters>
            <DistanceMeters>13786.871800326</DistanceMeters>
          </Trackpoint>
          <Trackpoint>
            <Time>2023-02-23T11:23:20.000Z</Time>
            <Position>
              <LatitudeDegrees>41.52689647860825061798095703125</LatitudeDegrees>
              <LongitudeDegrees>-4.56920550204813480377197265625</LongitudeDegrees>
            </Position>
            <AltitudeMeters>1227.800048828125</AltitudeMeters>
            <DistanceMeters>13789.017805682</DistanceMeters>
          </Trackpoint>
          <Trackpoint>
            <Time>2023-02-23T11:23:23.000Z</Time>
            <Position>
              <LatitudeDegrees>41.52685373090207576751708984375</LatitudeDegrees>
              <LongitudeDegrees>-4.56914783455431461334228515625</LongitudeDegrees>
            </Position>
            <AltitudeMeters>1227.800048828125</AltitudeMeters>
            <DistanceMeters>13795.780076536</DistanceMeters>
          </Trackpoint>
          <Trackpoint>
            <Time>2023-02-23T11:23:26.000Z</Time>
            <Position>
              <LatitudeDegrees>41.52681249193847179412841796875</LatitudeDegrees>
              <LongitudeDegrees>-4.5691060088574886322021484375</LongitudeDegrees>
            </Position>
            <AltitudeMeters>1227.5999755859375</AltitudeMeters>
            <DistanceMeters>13801.543115766</DistanceMeters>
          </Trackpoint>
          <Trackpoint>
            <Time>2023-02-23T11:23:27.000Z</Time>
            <Position>
              <LatitudeDegrees>41.52679623104631900787353515625</LatitudeDegrees>
              <LongitudeDegrees>-4.56910273991525173187255859375</LongitudeDegrees>
            </Position>
            <AltitudeMeters>1227.5999755859375</AltitudeMeters>
            <DistanceMeters>13803.375924659</DistanceMeters>
          </Trackpoint>
          <Trackpoint>
            <Time>2023-02-23T11:23:28.000Z</Time>
            <Position>
              <LatitudeDegrees>41.52678650803864002227783203125</LatitudeDegrees>
              <LongitudeDegrees>-4.56909284926950931549072265625</LongitudeDegrees>
            </Position>
            <AltitudeMeters>1227.4000244140625</AltitudeMeters>
            <DistanceMeters>13804.736500151</DistanceMeters>
          </Trackpoint>
          <Trackpoint>
            <Time>2023-02-23T11:23:31.000Z</Time>
            <Position>
              <LatitudeDegrees>41.526779048144817352294921875</LatitudeDegrees>
              <LongitudeDegrees>-4.56907994113862514495849609375</LongitudeDegrees>
            </Position>
            <AltitudeMeters>1226.800048828125</AltitudeMeters>
            <DistanceMeters>13806.09375311</DistanceMeters>
          </Trackpoint>
          <Trackpoint>
            <Time>2023-02-23T11:23:32.000Z</Time>
            <Position>
              <LatitudeDegrees>41.526771672070026397705078125</LatitudeDegrees>
              <LongitudeDegrees>-4.56907398998737335205078125</LongitudeDegrees>
            </Position>
            <AltitudeMeters>1226.5999755859375</AltitudeMeters>
            <DistanceMeters>13807.053475881</DistanceMeters>
          </Trackpoint>
          <Trackpoint>
            <Time>2023-02-23T11:23:36.000Z</Time>
            <Position>
              <LatitudeDegrees>41.52671542949974536895751953125</LatitudeDegrees>
              <LongitudeDegrees>-4.568997211754322052001953125</LongitudeDegrees>
            </Position>
            <AltitudeMeters>1226.4000244140625</AltitudeMeters>
            <DistanceMeters>13816.004669561</DistanceMeters>
          </Trackpoint>
          <Trackpoint>
            <Time>2023-02-23T11:23:37.000Z</Time>
            <Position>
              <LatitudeDegrees>41.5266989171504974365234375</LatitudeDegrees>
              <LongitudeDegrees>-4.5689839683473110198974609375</LongitudeDegrees>
            </Position>
            <AltitudeMeters>1226.199951171875</AltitudeMeters>
            <DistanceMeters>13818.150674916</DistanceMeters>
          </Trackpoint>
          <Trackpoint>
            <Time>2023-02-23T11:23:38.000Z</Time>
            <Position>
              <LatitudeDegrees>41.526682488620281219482421875</LatitudeDegrees>
              <LongitudeDegrees>-4.56897550262510776519775390625</LongitudeDegrees>
            </Position>
            <AltitudeMeters>1226.199951171875</AltitudeMeters>
            <DistanceMeters>13820.112004202</DistanceMeters>
          </Trackpoint>
          <Trackpoint>
            <Time>2023-02-23T11:23:39.000Z</Time>
            <Position>
              <LatitudeDegrees>41.526664383709430694580078125</LatitudeDegrees>
              <LongitudeDegrees>-4.56897265277802944183349609375</LongitudeDegrees>
            </Position>
            <AltitudeMeters>1226</AltitudeMeters>
            <DistanceMeters>13822.138993294</DistanceMeters>
          </Trackpoint>
          <Trackpoint>
            <Time>2023-02-23T11:23:41.000Z</Time>
            <Position>
              <LatitudeDegrees>41.5266264975070953369140625</LatitudeDegrees>
              <LongitudeDegrees>-4.56898405216634273529052734375</LongitudeDegrees>
            </Position>
            <AltitudeMeters>1225.800048828125</AltitudeMeters>
            <DistanceMeters>13826.461403289</DistanceMeters>
          </Trackpoint>
          <Trackpoint>
            <Time>2023-02-23T11:23:42.000Z</Time>
            <Position>
              <LatitudeDegrees>41.52660680003464221954345703125</LatitudeDegrees>
              <LongitudeDegrees>-4.56899142824113368988037109375</LongitudeDegrees>
            </Position>
            <AltitudeMeters>1225.800048828125</AltitudeMeters>
            <DistanceMeters>13828.738081544</DistanceMeters>
          </Trackpoint>
          <Trackpoint>
            <Time>2023-02-23T11:23:44.000Z</Time>
            <Position>
              <LatitudeDegrees>41.526572518050670623779296875</LatitudeDegrees>
              <LongitudeDegrees>-4.569007270038127899169921875</LongitudeDegrees>
            </Position>
            <AltitudeMeters>1225.800048828125</AltitudeMeters>
            <DistanceMeters>13832.776437405</DistanceMeters>
          </Trackpoint>
          <Trackpoint>
            <Time>2023-02-23T11:23:46.000Z</Time>
            <Position>
              <LatitudeDegrees>41.5265351347625255584716796875</LatitudeDegrees>
              <LongitudeDegrees>-4.56902596168220043182373046875</LongitudeDegrees>
            </Position>
            <AltitudeMeters>1225.800048828125</AltitudeMeters>
            <DistanceMeters>13837.21836458</DistanceMeters>
          </Trackpoint>
          <Trackpoint>
            <Time>2023-02-23T11:23:47.000Z</Time>
            <Position>
              <LatitudeDegrees>41.5265170298516750335693359375</LatitudeDegrees>
              <LongitudeDegrees>-4.5690376125276088714599609375</LongitudeDegrees>
            </Position>
            <AltitudeMeters>1226</AltitudeMeters>
            <DistanceMeters>13839.455027798</DistanceMeters>
          </Trackpoint>
          <Trackpoint>
            <Time>2023-02-23T11:23:49.000Z</Time>
            <Position>
              <LatitudeDegrees>41.52647755108773708343505859375</LatitudeDegrees>
              <LongitudeDegrees>-4.5690630935132503509521484375</LongitudeDegrees>
            </Position>
            <AltitudeMeters>1226.4000244140625</AltitudeMeters>
            <DistanceMeters>13844.335738982</DistanceMeters>
          </Trackpoint>
          <Trackpoint>
            <Time>2023-02-23T11:23:56.000Z</Time>
            <Position>
              <LatitudeDegrees>41.52633338235318660736083984375</LatitudeDegrees>
              <LongitudeDegrees>-4.56914716400206089019775390625</LongitudeDegrees>
            </Position>
            <AltitudeMeters>1226.199951171875</AltitudeMeters>
            <DistanceMeters>13861.844394988</DistanceMeters>
          </Trackpoint>
          <Trackpoint>
            <Time>2023-02-23T11:23:57.000Z</Time>
            <Position>
              <LatitudeDegrees>41.52631343342363834381103515625</LatitudeDegrees>
              <LongitudeDegrees>-4.5691603235900402069091796875</LongitudeDegrees>
            </Position>
            <AltitudeMeters>1226.199951171875</AltitudeMeters>
            <DistanceMeters>13864.320565803</DistanceMeters>
          </Trackpoint>
          <Trackpoint>
            <Time>2023-02-23T11:24:03.000Z</Time>
            <Position>
              <LatitudeDegrees>41.52617521584033966064453125</LatitudeDegrees>
              <LongitudeDegrees>-4.569237269461154937744140625</LongitudeDegrees>
            </Position>
            <AltitudeMeters>1226</AltitudeMeters>
            <DistanceMeters>13880.986853674</DistanceMeters>
          </Trackpoint>
          <Trackpoint>
            <Time>2023-02-23T11:24:07.000Z</Time>
            <Position>
              <LatitudeDegrees>41.52608997188508510589599609375</LatitudeDegrees>
              <LongitudeDegrees>-4.56930574961006641387939453125</LongitudeDegrees>
            </Position>
            <AltitudeMeters>1225.800048828125</AltitudeMeters>
            <DistanceMeters>13892.058179595</DistanceMeters>
          </Trackpoint>
          <Trackpoint>
            <Time>2023-02-23T11:24:08.000Z</Time>
            <Position>
              <LatitudeDegrees>41.52606566436588764190673828125</LatitudeDegrees>
              <LongitudeDegrees>-4.5693236030638217926025390625</LongitudeDegrees>
            </Position>
            <AltitudeMeters>1225.800048828125</AltitudeMeters>
            <DistanceMeters>13895.146182303</DistanceMeters>
          </Trackpoint>
          <Trackpoint>
            <Time>2023-02-23T11:24:12.000Z</Time>
            <Position>
              <LatitudeDegrees>41.5259587951004505157470703125</LatitudeDegrees>
              <LongitudeDegrees>-4.56937196664512157440185546875</LongitudeDegrees>
            </Position>
            <AltitudeMeters>1225.5999755859375</AltitudeMeters>
            <DistanceMeters>13907.7055364</DistanceMeters>
          </Trackpoint>
          <Trackpoint>
            <Time>2023-02-23T11:24:16.000Z</Time>
            <Position>
              <LatitudeDegrees>41.52588511817157268524169921875</LatitudeDegrees>
              <LongitudeDegrees>-4.56941421143710613250732421875</LongitudeDegrees>
            </Position>
            <AltitudeMeters>1226</AltitudeMeters>
            <DistanceMeters>13916.62894461</DistanceMeters>
          </Trackpoint>
          <Trackpoint>
            <Time>2023-02-23T11:24:20.000Z</Time>
            <Position>
              <LatitudeDegrees>41.525806076824665069580078125</LatitudeDegrees>
              <LongitudeDegrees>-4.5694691129028797149658203125</LongitudeDegrees>
            </Position>
            <AltitudeMeters>1226.199951171875</AltitudeMeters>
            <DistanceMeters>13926.545472857</DistanceMeters>
          </Trackpoint>
          <Trackpoint>
            <Time>2023-02-23T11:24:23.000Z</Time>
            <Position>
              <LatitudeDegrees>41.52576307766139507293701171875</LatitudeDegrees>
              <LongitudeDegrees>-4.5694969408214092254638671875</LongitudeDegrees>
            </Position>
            <AltitudeMeters>1226.199951171875</AltitudeMeters>
            <DistanceMeters>13931.863573967</DistanceMeters>
          </Trackpoint>
          <Trackpoint>
            <Time>2023-02-23T11:24:27.000Z</Time>
            <Position>
              <LatitudeDegrees>41.52569510042667388916015625</LatitudeDegrees>
              <LongitudeDegrees>-4.569494761526584625244140625</LongitudeDegrees>
            </Position>
            <AltitudeMeters>1226.199951171875</AltitudeMeters>
            <DistanceMeters>13939.431782136</DistanceMeters>
          </Trackpoint>
          <Trackpoint>
            <Time>2023-02-23T11:24:29.000Z</Time>
            <Position>
              <LatitudeDegrees>41.5256664343178272247314453125</LatitudeDegrees>
              <LongitudeDegrees>-4.56946886144578456878662109375</LongitudeDegrees>
            </Position>
            <AltitudeMeters>1226.199951171875</AltitudeMeters>
            <DistanceMeters>13943.284760941</DistanceMeters>
          </Trackpoint>
          <Trackpoint>
            <Time>2023-02-23T11:24:35.000Z</Time>
            <Position>
              <LatitudeDegrees>41.525590829551219940185546875</LatitudeDegrees>
              <LongitudeDegrees>-4.5693638361990451812744140625</LongitudeDegrees>
            </Position>
            <AltitudeMeters>1226.199951171875</AltitudeMeters>
            <DistanceMeters>13955.425888067</DistanceMeters>
          </Trackpoint>
          <Trackpoint>
            <Time>2023-02-23T11:24:37.000Z</Time>
            <Position>
              <LatitudeDegrees>41.52556744404137134552001953125</LatitudeDegrees>
              <LongitudeDegrees>-4.569312036037445068359375</LongitudeDegrees>
            </Position>
            <AltitudeMeters>1226.199951171875</AltitudeMeters>
            <DistanceMeters>13960.465888566</DistanceMeters>
          </Trackpoint>
          <Trackpoint>
            <Time>2023-02-23T11:24:43.000Z</Time>
            <Position>
              <LatitudeDegrees>41.5255232714116573333740234375</LatitudeDegrees>
              <LongitudeDegrees>-4.56914632581174373626708984375</LongitudeDegrees>
            </Position>
            <AltitudeMeters>1226.199951171875</AltitudeMeters>
            <DistanceMeters>13975.123431974</DistanceMeters>
          </Trackpoint>
          <Trackpoint>
            <Time>2023-02-23T11:24:44.000Z</Time>
            <Position>
              <LatitudeDegrees>41.525517739355564117431640625</LatitudeDegrees>
              <LongitudeDegrees>-4.56911833025515079498291015625</LongitudeDegrees>
            </Position>
            <AltitudeMeters>1226</AltitudeMeters>
            <DistanceMeters>13977.538681316</DistanceMeters>
          </Trackpoint>
          <Trackpoint>
            <Time>2023-02-23T11:24:45.000Z</Time>
            <Position>
              <LatitudeDegrees>41.525513045489788055419921875</LatitudeDegrees>
              <LongitudeDegrees>-4.56909544765949249267578125</LongitudeDegrees>
            </Position>
            <AltitudeMeters>1226</AltitudeMeters>
            <DistanceMeters>13979.513774484</DistanceMeters>
          </Trackpoint>
          <Trackpoint>
            <Time>2023-02-23T11:24:49.000Z</Time>
            <Position>
              <LatitudeDegrees>41.5254914201796054840087890625</LatitudeDegrees>
              <LongitudeDegrees>-4.569077007472515106201171875</LongitudeDegrees>
            </Position>
            <AltitudeMeters>1225.5999755859375</AltitudeMeters>
            <DistanceMeters>13982.367741715</DistanceMeters>
          </Trackpoint>
          <Trackpoint>
            <Time>2023-02-23T11:24:50.000Z</Time>
            <Position>
              <LatitudeDegrees>41.52548815123736858367919921875</LatitudeDegrees>
              <LongitudeDegrees>-4.56908044405281543731689453125</LongitudeDegrees>
            </Position>
            <AltitudeMeters>1226</AltitudeMeters>
            <DistanceMeters>13982.833275639</DistanceMeters>
          </Trackpoint>
          <Trackpoint>
            <Time>2023-02-23T11:24:54.000Z</Time>
            <Position>
              <LatitudeDegrees>41.525485217571258544921875</LatitudeDegrees>
              <LongitudeDegrees>-4.56906669773161411285400390625</LongitudeDegrees>
            </Position>
            <AltitudeMeters>1225.5999755859375</AltitudeMeters>
            <DistanceMeters>13984.027742917</DistanceMeters>
          </Trackpoint>
          <Trackpoint>
            <Time>2023-02-23T11:24:55.000Z</Time>
            <Position>
              <LatitudeDegrees>41.5254830382764339447021484375</LatitudeDegrees>
              <LongitudeDegrees>-4.569053538143634796142578125</LongitudeDegrees>
            </Position>
            <AltitudeMeters>1225.5999755859375</AltitudeMeters>
            <DistanceMeters>13985.152114164</DistanceMeters>
          </Trackpoint>
          <Trackpoint>
            <Time>2023-02-23T11:25:02.000Z</Time>
            <Position>
              <LatitudeDegrees>41.52547842822968959808349609375</LatitudeDegrees>
              <LongitudeDegrees>-4.56898187287151813507080078125</LongitudeDegrees>
            </Position>
            <AltitudeMeters>1225.5999755859375</AltitudeMeters>
            <DistanceMeters>13991.145580949</DistanceMeters>
          </Trackpoint>
          <Trackpoint>
            <Time>2023-02-23T11:25:11.000Z</Time>
            <Position>
              <LatitudeDegrees>41.5254602394998073577880859375</LatitudeDegrees>
              <LongitudeDegrees>-4.5688625983893871307373046875</LongitudeDegrees>
            </Position>
            <AltitudeMeters>1225.5999755859375</AltitudeMeters>
            <DistanceMeters>14001.2885421</DistanceMeters>
          </Trackpoint>
          <Trackpoint>
            <Time>2023-02-23T11:25:13.000Z</Time>
            <Position>
              <LatitudeDegrees>41.5254662744700908660888671875</LatitudeDegrees>
              <LongitudeDegrees>-4.56883468665182590484619140625</LongitudeDegrees>
            </Position>
            <AltitudeMeters>1225.5999755859375</AltitudeMeters>
            <DistanceMeters>14003.711257455</DistanceMeters>
          </Trackpoint>
          <Trackpoint>
            <Time>2023-02-23T11:25:15.000Z</Time>
            <Position>
              <LatitudeDegrees>41.52546040713787078857421875</LatitudeDegrees>
              <LongitudeDegrees>-4.5688012428581714630126953125</LongitudeDegrees>
            </Position>
            <AltitudeMeters>1226</AltitudeMeters>
            <DistanceMeters>14006.574701083</DistanceMeters>
          </Trackpoint>
          <Trackpoint>
            <Time>2023-02-23T11:25:16.000Z</Time>
            <Position>
              <LatitudeDegrees>41.5254568867385387420654296875</LatitudeDegrees>
              <LongitudeDegrees>-4.568782635033130645751953125</LongitudeDegrees>
            </Position>
            <AltitudeMeters>1226</AltitudeMeters>
            <DistanceMeters>14008.173297853</DistanceMeters>
          </Trackpoint>
          <Trackpoint>
            <Time>2023-02-23T11:25:19.000Z</Time>
            <Position>
              <LatitudeDegrees>41.52545764110982418060302734375</LatitudeDegrees>
              <LongitudeDegrees>-4.56874969415366649627685546875</LongitudeDegrees>
            </Position>
            <AltitudeMeters>1226.199951171875</AltitudeMeters>
            <DistanceMeters>14010.9208684</DistanceMeters>
          </Trackpoint>
          <Trackpoint>
            <Time>2023-02-23T11:25:28.000Z</Time>
            <Position>
              <LatitudeDegrees>41.52542545460164546966552734375</LatitudeDegrees>
              <LongitudeDegrees>-4.5686803758144378662109375</LongitudeDegrees>
            </Position>
            <AltitudeMeters>1226</AltitudeMeters>
            <DistanceMeters>14017.717769979</DistanceMeters>
          </Trackpoint>
          <Trackpoint>
            <Time>2023-02-23T11:25:35.000Z</Time>
            <Position>
              <LatitudeDegrees>41.52542344294488430023193359375</LatitudeDegrees>
              <LongitudeDegrees>-4.5686106383800506591796875</LongitudeDegrees>
            </Position>
            <AltitudeMeters>1226.4000244140625</AltitudeMeters>
            <DistanceMeters>14023.533839645</DistanceMeters>
          </Trackpoint>
          <Trackpoint>
            <Time>2023-02-23T11:25:39.000Z</Time>
            <Position>
              <LatitudeDegrees>41.5254223532974720001220703125</LatitudeDegrees>
              <LongitudeDegrees>-4.5685987360775470733642578125</LongitudeDegrees>
            </Position>
            <AltitudeMeters>1226</AltitudeMeters>
            <DistanceMeters>14024.535008205</DistanceMeters>
          </Trackpoint>
          <Trackpoint>
            <Time>2023-02-23T11:25:44.000Z</Time>
            <Position>
              <LatitudeDegrees>41.5254136361181735992431640625</LatitudeDegrees>
              <LongitudeDegrees>-4.5685802958905696868896484375</LongitudeDegrees>
            </Position>
            <AltitudeMeters>1226</AltitudeMeters>
            <DistanceMeters>14026.352976296</DistanceMeters>
          </Trackpoint>
          <Trackpoint>
            <Time>2023-02-23T11:25:45.000Z</Time>
            <Position>
              <LatitudeDegrees>41.5254072658717632293701171875</LatitudeDegrees>
              <LongitudeDegrees>-4.5685665495693683624267578125</LongitudeDegrees>
            </Position>
            <AltitudeMeters>1226</AltitudeMeters>
            <DistanceMeters>14027.703559667</DistanceMeters>
          </Trackpoint>
          <Trackpoint>
            <Time>2023-02-23T11:25:47.000Z</Time>
            <Position>
              <LatitudeDegrees>41.52539729140698909759521484375</LatitudeDegrees>
              <LongitudeDegrees>-4.56853075884282588958740234375</LongitudeDegrees>
            </Position>
            <AltitudeMeters>1226</AltitudeMeters>
            <DistanceMeters>14030.885181218</DistanceMeters>
          </Trackpoint>
          <Trackpoint>
            <Time>2023-02-23T11:25:49.000Z</Time>
            <Position>
              <LatitudeDegrees>41.525380946695804595947265625</LatitudeDegrees>
              <LongitudeDegrees>-4.568483568727970123291015625</LongitudeDegrees>
            </Position>
            <AltitudeMeters>1225.800048828125</AltitudeMeters>
            <DistanceMeters>14035.216982096</DistanceMeters>
          </Trackpoint>
          <Trackpoint>
            <Time>2023-02-23T11:25:50.000Z</Time>
            <Position>
              <LatitudeDegrees>41.52537080459296703338623046875</LatitudeDegrees>
              <LongitudeDegrees>-4.568459093570709228515625</LongitudeDegrees>
            </Position>
            <AltitudeMeters>1225.800048828125</AltitudeMeters>
            <DistanceMeters>14037.548527939</DistanceMeters>
          </Trackpoint>
          <Trackpoint>
            <Time>2023-02-23T11:25:55.000Z</Time>
            <Position>
              <LatitudeDegrees>41.52534079737961292266845703125</LatitudeDegrees>
              <LongitudeDegrees>-4.56835641525685787200927734375</LongitudeDegrees>
            </Position>
            <AltitudeMeters>1225</AltitudeMeters>
            <DistanceMeters>14046.733242096</DistanceMeters>
          </Trackpoint>
          <Trackpoint>
            <Time>2023-02-23T11:25:56.000Z</Time>
            <Position>
              <LatitudeDegrees>41.525336019694805145263671875</LatitudeDegrees>
              <LongitudeDegrees>-4.568332694470882415771484375</LongitudeDegrees>
            </Position>
            <AltitudeMeters>1225</AltitudeMeters>
            <DistanceMeters>14048.782384733</DistanceMeters>
          </Trackpoint>
          <Trackpoint>
            <Time>2023-02-23T11:25:58.000Z</Time>
            <Position>
              <LatitudeDegrees>41.52532763779163360595703125</LatitudeDegrees>
              <LongitudeDegrees>-4.5682805590331554412841796875</LongitudeDegrees>
            </Position>
            <AltitudeMeters>1224.5999755859375</AltitudeMeters>
            <DistanceMeters>14053.225328251</DistanceMeters>
          </Trackpoint>
          <Trackpoint>
            <Time>2023-02-23T11:26:04.000Z</Time>
            <Position>
              <LatitudeDegrees>41.52528564445674419403076171875</LatitudeDegrees>
              <LongitudeDegrees>-4.56814938224852085113525390625</LongitudeDegrees>
            </Position>
            <AltitudeMeters>1224.4000244140625</AltitudeMeters>
            <DistanceMeters>14065.113166421</DistanceMeters>
          </Trackpoint>
          <Trackpoint>
            <Time>2023-02-23T11:26:07.000Z</Time>
            <Position>
              <LatitudeDegrees>41.52526485733687877655029296875</LatitudeDegrees>
              <LongitudeDegrees>-4.5680844224989414215087890625</LongitudeDegrees>
            </Position>
            <AltitudeMeters>1224.4000244140625</AltitudeMeters>
            <DistanceMeters>14071.000222849</DistanceMeters>
          </Trackpoint>
          <Trackpoint>
            <Time>2023-02-23T11:26:10.000Z</Time>
            <Position>
              <LatitudeDegrees>41.5252533741295337677001953125</LatitudeDegrees>
              <LongitudeDegrees>-4.56801225431263446807861328125</LongitudeDegrees>
            </Position>
            <AltitudeMeters>1224.800048828125</AltitudeMeters>
            <DistanceMeters>14077.148385176</DistanceMeters>
          </Trackpoint>
          <Trackpoint>
            <Time>2023-02-23T11:26:11.000Z</Time>
            <Position>
              <LatitudeDegrees>41.525251865386962890625</LatitudeDegrees>
              <LongitudeDegrees>-4.56798057071864604949951171875</LongitudeDegrees>
            </Position>
            <AltitudeMeters>1225</AltitudeMeters>
            <DistanceMeters>14079.793816945</DistanceMeters>
          </Trackpoint>
          <Trackpoint>
            <Time>2023-02-23T11:26:14.000Z</Time>
            <Position>
              <LatitudeDegrees>41.52522705495357513427734375</LatitudeDegrees>
              <LongitudeDegrees>-4.56790446303784847259521484375</LongitudeDegrees>
            </Position>
            <AltitudeMeters>1225.199951171875</AltitudeMeters>
            <DistanceMeters>14086.71056076</DistanceMeters>
          </Trackpoint>
          <Trackpoint>
            <Time>2023-02-23T11:26:17.000Z</Time>
            <Position>
              <LatitudeDegrees>41.52519662864506244659423828125</LatitudeDegrees>
              <LongitudeDegrees>-4.5678215660154819488525390625</LongitudeDegrees>
            </Position>
            <AltitudeMeters>1225.199951171875</AltitudeMeters>
            <DistanceMeters>14094.403617435</DistanceMeters>
          </Trackpoint>
          <Trackpoint>
            <Time>2023-02-23T11:26:22.000Z</Time>
            <Position>
              <LatitudeDegrees>41.52516963891685009002685546875</LatitudeDegrees>
              <LongitudeDegrees>-4.56762400455772876739501953125</LongitudeDegrees>
            </Position>
            <AltitudeMeters>1225.199951171875</AltitudeMeters>
            <DistanceMeters>14111.138034984</DistanceMeters>
          </Trackpoint>
          <Trackpoint>
            <Time>2023-02-23T11:26:25.000Z</Time>
            <Position>
              <LatitudeDegrees>41.5251444093883037567138671875</LatitudeDegrees>
              <LongitudeDegrees>-4.567544125020503997802734375</LongitudeDegrees>
            </Position>
            <AltitudeMeters>1225.5999755859375</AltitudeMeters>
            <DistanceMeters>14118.362565546</DistanceMeters>
          </Trackpoint>
          <Trackpoint>
            <Time>2023-02-23T11:26:27.000Z</Time>
            <Position>
              <LatitudeDegrees>41.52512957341969013214111328125</LatitudeDegrees>
              <LongitudeDegrees>-4.56749408505856990814208984375</LongitudeDegrees>
            </Position>
            <AltitudeMeters>1225.5999755859375</AltitudeMeters>
            <DistanceMeters>14122.846980808</DistanceMeters>
          </Trackpoint>
          <Trackpoint>
            <Time>2023-02-23T11:26:29.000Z</Time>
            <Position>
              <LatitudeDegrees>41.52511314488947391510009765625</LatitudeDegrees>
              <LongitudeDegrees>-4.5674358308315277099609375</LongitudeDegrees>
            </Position>
            <AltitudeMeters>1225.800048828125</AltitudeMeters>
            <DistanceMeters>14128.034429873</DistanceMeters>
          </Trackpoint>
          <Trackpoint>
            <Time>2023-02-23T11:26:30.000Z</Time>
            <Position>
              <LatitudeDegrees>41.525099985301494598388671875</LatitudeDegrees>
              <LongitudeDegrees>-4.56740959547460079193115234375</LongitudeDegrees>
            </Position>
            <AltitudeMeters>1225.800048828125</AltitudeMeters>
            <DistanceMeters>14130.666172382</DistanceMeters>
          </Trackpoint>
          <Trackpoint>
            <Time>2023-02-23T11:26:31.000Z</Time>
            <Position>
              <LatitudeDegrees>41.5250890888273715972900390625</LatitudeDegrees>
              <LongitudeDegrees>-4.56738461740314960479736328125</LongitudeDegrees>
            </Position>
            <AltitudeMeters>1225.800048828125</AltitudeMeters>
            <DistanceMeters>14133.075807033</DistanceMeters>
          </Trackpoint>
          <Trackpoint>
            <Time>2023-02-23T11:26:36.000Z</Time>
            <Position>
              <LatitudeDegrees>41.52506369166076183319091796875</LatitudeDegrees>
              <LongitudeDegrees>-4.56724313087761402130126953125</LongitudeDegrees>
            </Position>
            <AltitudeMeters>1225.800048828125</AltitudeMeters>
            <DistanceMeters>14145.199815626</DistanceMeters>
          </Trackpoint>
          <Trackpoint>
            <Time>2023-02-23T11:26:41.000Z</Time>
            <Position>
              <LatitudeDegrees>41.5249807946383953094482421875</LatitudeDegrees>
              <LongitudeDegrees>-4.567176662385463714599609375</LongitudeDegrees>
            </Position>
            <AltitudeMeters>1225.800048828125</AltitudeMeters>
            <DistanceMeters>14155.961355032</DistanceMeters>
          </Trackpoint>
          <Trackpoint>
            <Time>2023-02-23T11:26:43.000Z</Time>
            <Position>
              <LatitudeDegrees>41.5249331854283809661865234375</LatitudeDegrees>
              <LongitudeDegrees>-4.5672076754271984100341796875</LongitudeDegrees>
            </Position>
            <AltitudeMeters>1225.4000244140625</AltitudeMeters>
            <DistanceMeters>14161.856075904</DistanceMeters>
          </Trackpoint>
          <Trackpoint>
            <Time>2023-02-23T11:26:45.000Z</Time>
            <Position>
              <LatitudeDegrees>41.52487493120133876800537109375</LatitudeDegrees>
              <LongitudeDegrees>-4.56725277006626129150390625</LongitudeDegrees>
            </Position>
            <AltitudeMeters>1225.199951171875</AltitudeMeters>
            <DistanceMeters>14169.34994309</DistanceMeters>
          </Trackpoint>
          <Trackpoint>
            <Time>2023-02-23T11:26:48.000Z</Time>
            <Position>
              <LatitudeDegrees>41.52479329146444797515869140625</LatitudeDegrees>
              <LongitudeDegrees>-4.5673199929296970367431640625</LongitudeDegrees>
            </Position>
            <AltitudeMeters>1225.199951171875</AltitudeMeters>
            <DistanceMeters>14180.024704663</DistanceMeters>
          </Trackpoint>
          <Trackpoint>
            <Time>2023-02-23T11:26:50.000Z</Time>
            <Position>
              <LatitudeDegrees>41.52474735863506793975830078125</LatitudeDegrees>
              <LongitudeDegrees>-4.56736852414906024932861328125</LongitudeDegrees>
            </Position>
            <AltitudeMeters>1225.199951171875</AltitudeMeters>
            <DistanceMeters>14186.543564974</DistanceMeters>
          </Trackpoint>
          <Trackpoint>
            <Time>2023-02-23T11:26:52.000Z</Time>
            <Position>
              <LatitudeDegrees>41.52469170279800891876220703125</LatitudeDegrees>
              <LongitudeDegrees>-4.56742602400481700897216796875</LongitudeDegrees>
            </Position>
            <AltitudeMeters>1225.199951171875</AltitudeMeters>
            <DistanceMeters>14194.375057757</DistanceMeters>
          </Trackpoint>
          <Trackpoint>
            <Time>2023-02-23T11:26:59.000Z</Time>
            <Position>
              <LatitudeDegrees>41.5244916267693042755126953125</LatitudeDegrees>
              <LongitudeDegrees>-4.56763993017375469207763671875</LongitudeDegrees>
            </Position>
            <AltitudeMeters>1225.4000244140625</AltitudeMeters>
            <DistanceMeters>14222.899063746</DistanceMeters>
          </Trackpoint>
          <Trackpoint>
            <Time>2023-02-23T11:27:02.000Z</Time>
            <Position>
              <LatitudeDegrees>41.52439959347248077392578125</LatitudeDegrees>
              <LongitudeDegrees>-4.56774285994470119476318359375</LongitudeDegrees>
            </Position>
            <AltitudeMeters>1225</AltitudeMeters>
            <DistanceMeters>14236.259022241</DistanceMeters>
          </Trackpoint>
          <Trackpoint>
            <Time>2023-02-23T11:27:03.000Z</Time>
            <Position>
              <LatitudeDegrees>41.52436673641204833984375</LatitudeDegrees>
              <LongitudeDegrees>-4.56778678111732006072998046875</LongitudeDegrees>
            </Position>
            <AltitudeMeters>1225.199951171875</AltitudeMeters>
            <DistanceMeters>14241.432526525</DistanceMeters>
          </Trackpoint>
          <Trackpoint>
            <Time>2023-02-23T11:27:05.000Z</Time>
            <Position>
              <LatitudeDegrees>41.52429490350186824798583984375</LatitudeDegrees>
              <LongitudeDegrees>-4.5678634755313396453857421875</LongitudeDegrees>
            </Position>
            <AltitudeMeters>1225</AltitudeMeters>
            <DistanceMeters>14251.668099147</DistanceMeters>
          </Trackpoint>
          <Trackpoint>
            <Time>2023-02-23T11:27:06.000Z</Time>
            <Position>
              <LatitudeDegrees>41.52426305226981639862060546875</LatitudeDegrees>
              <LongitudeDegrees>-4.56790278665721416473388671875</LongitudeDegrees>
            </Position>
            <AltitudeMeters>1225</AltitudeMeters>
            <DistanceMeters>14256.494857607</DistanceMeters>
          </Trackpoint>
          <Trackpoint>
            <Time>2023-02-23T11:27:11.000Z</Time>
            <Position>
              <LatitudeDegrees>41.5240933187305927276611328125</LatitudeDegrees>
              <LongitudeDegrees>-4.5680881105363368988037109375</LongitudeDegrees>
            </Position>
            <AltitudeMeters>1225</AltitudeMeters>
            <DistanceMeters>14280.895453097</DistanceMeters>
          </Trackpoint>
          <Trackpoint>
            <Time>2023-02-23T11:27:18.000Z</Time>
            <Position>
              <LatitudeDegrees>41.5239132754504680633544921875</LatitudeDegrees>
              <LongitudeDegrees>-4.56829455681145191192626953125</LongitudeDegrees>
            </Position>
            <AltitudeMeters>1226.5999755859375</AltitudeMeters>
            <DistanceMeters>14307.306042352</DistanceMeters>
          </Trackpoint>
          <Trackpoint>
            <Time>2023-02-23T11:27:19.000Z</Time>
            <Position>
              <LatitudeDegrees>41.52388854883611202239990234375</LatitudeDegrees>
              <LongitudeDegrees>-4.5683197863399982452392578125</LongitudeDegrees>
            </Position>
            <AltitudeMeters>1226.800048828125</AltitudeMeters>
            <DistanceMeters>14310.76898063</DistanceMeters>
          </Trackpoint>
          <Trackpoint>
            <Time>2023-02-23T11:27:24.000Z</Time>
            <Position>
              <LatitudeDegrees>41.523766256868839263916015625</LatitudeDegrees>
              <LongitudeDegrees>-4.56844844855368137359619140625</LongitudeDegrees>
            </Position>
            <AltitudeMeters>1227</AltitudeMeters>
            <DistanceMeters>14328.095662986</DistanceMeters>
          </Trackpoint>
          <Trackpoint>
            <Time>2023-02-23T11:27:26.000Z</Time>
            <Position>
              <LatitudeDegrees>41.523719318211078643798828125</LatitudeDegrees>
              <LongitudeDegrees>-4.56851718015968799591064453125</LongitudeDegrees>
            </Position>
            <AltitudeMeters>1227</AltitudeMeters>
            <DistanceMeters>14335.84835212</DistanceMeters>
          </Trackpoint>
          <Trackpoint>
            <Time>2023-02-23T11:27:28.000Z</Time>
            <Position>
              <LatitudeDegrees>41.5236537717282772064208984375</LatitudeDegrees>
              <LongitudeDegrees>-4.56860183738172054290771484375</LongitudeDegrees>
            </Position>
            <AltitudeMeters>1227</AltitudeMeters>
            <DistanceMeters>14345.997098443</DistanceMeters>
          </Trackpoint>
          <Trackpoint>
            <Time>2023-02-23T11:27:31.000Z</Time>
            <Position>
              <LatitudeDegrees>41.52357255108654499053955078125</LatitudeDegrees>
              <LongitudeDegrees>-4.568722955882549285888671875</LongitudeDegrees>
            </Position>
            <AltitudeMeters>1226</AltitudeMeters>
            <DistanceMeters>14359.546321819</DistanceMeters>
          </Trackpoint>
          <Trackpoint>
            <Time>2023-02-23T11:27:33.000Z</Time>
            <Position>
              <LatitudeDegrees>41.5235231816768646240234375</LatitudeDegrees>
              <LongitudeDegrees>-4.56879277713596820831298828125</LongitudeDegrees>
            </Position>
            <AltitudeMeters>1226</AltitudeMeters>
            <DistanceMeters>14367.548902787</DistanceMeters>
          </Trackpoint>
          <Trackpoint>
            <Time>2023-02-23T11:27:37.000Z</Time>
            <Position>
              <LatitudeDegrees>41.52338194660842418670654296875</LatitudeDegrees>
              <LongitudeDegrees>-4.5689182542264461517333984375</LongitudeDegrees>
            </Position>
            <AltitudeMeters>1225.800048828125</AltitudeMeters>
            <DistanceMeters>14386.428393707</DistanceMeters>
          </Trackpoint>
          <Trackpoint>
            <Time>2023-02-23T11:27:38.000Z</Time>
            <Position>
              <LatitudeDegrees>41.523342467844486236572265625</LatitudeDegrees>
              <LongitudeDegrees>-4.568951614201068878173828125</LongitudeDegrees>
            </Position>
            <AltitudeMeters>1225.4000244140625</AltitudeMeters>
            <DistanceMeters>14391.628013777</DistanceMeters>
          </Trackpoint>
          <Trackpoint>
            <Time>2023-02-23T11:27:39.000Z</Time>
            <Position>
              <LatitudeDegrees>41.52329829521477222442626953125</LatitudeDegrees>
              <LongitudeDegrees>-4.5689849741756916046142578125</LongitudeDegrees>
            </Position>
            <AltitudeMeters>1225.199951171875</AltitudeMeters>
            <DistanceMeters>14397.275511453</DistanceMeters>
          </Trackpoint>
          <Trackpoint>
            <Time>2023-02-23T11:27:40.000Z</Time>
            <Position>
              <LatitudeDegrees>41.52325437404215335845947265625</LatitudeDegrees>
              <LongitudeDegrees>-4.56901774741709232330322265625</LongitudeDegrees>
            </Position>
            <AltitudeMeters>1225.199951171875</AltitudeMeters>
            <DistanceMeters>14402.87483511</DistanceMeters>
          </Trackpoint>
          <Trackpoint>
            <Time>2023-02-23T11:27:42.000Z</Time>
            <Position>
              <LatitudeDegrees>41.52317809872329235076904296875</LatitudeDegrees>
              <LongitudeDegrees>-4.5690701343119144439697265625</LongitudeDegrees>
            </Position>
            <AltitudeMeters>1225</AltitudeMeters>
            <DistanceMeters>14412.421118757</DistanceMeters>
          </Trackpoint>
          <Trackpoint>
            <Time>2023-02-23T11:27:43.000Z</Time>
            <Position>
              <LatitudeDegrees>41.52314406819641590118408203125</LatitudeDegrees>
              <LongitudeDegrees>-4.56909033469855785369873046875</LongitudeDegrees>
            </Position>
            <AltitudeMeters>1225</AltitudeMeters>
            <DistanceMeters>14416.567595038</DistanceMeters>
          </Trackpoint>
          <Trackpoint>
            <Time>2023-02-23T11:27:51.000Z</Time>
            <Position>
              <LatitudeDegrees>41.522868387401103973388671875</LatitudeDegrees>
              <LongitudeDegrees>-4.56926266662776470184326171875</LongitudeDegrees>
            </Position>
            <AltitudeMeters>1225.4000244140625</AltitudeMeters>
            <DistanceMeters>14450.445651594</DistanceMeters>
          </Trackpoint>
          <Trackpoint>
            <Time>2023-02-23T11:27:53.000Z</Time>
            <Position>
              <LatitudeDegrees>41.5227890945971012115478515625</LatitudeDegrees>
              <LongitudeDegrees>-4.56930826418101787567138671875</LongitudeDegrees>
            </Position>
            <AltitudeMeters>1225.4000244140625</AltitudeMeters>
            <DistanceMeters>14460.054163527</DistanceMeters>
          </Trackpoint>
          <Trackpoint>
            <Time>2023-02-23T11:27:55.000Z</Time>
            <Position>
              <LatitudeDegrees>41.52270988561213016510009765625</LatitudeDegrees>
              <LongitudeDegrees>-4.5693604834377765655517578125</LongitudeDegrees>
            </Position>
            <AltitudeMeters>1225.5999755859375</AltitudeMeters>
            <DistanceMeters>14469.885640438</DistanceMeters>
          </Trackpoint>
          <Trackpoint>
            <Time>2023-02-23T11:27:58.000Z</Time>
            <Position>
              <LatitudeDegrees>41.52259002439677715301513671875</LatitudeDegrees>
              <LongitudeDegrees>-4.56943097524344921112060546875</LongitudeDegrees>
            </Position>
            <AltitudeMeters>1225.5999755859375</AltitudeMeters>
            <DistanceMeters>14484.462255228</DistanceMeters>
          </Trackpoint>
          <Trackpoint>
            <Time>2023-02-23T11:27:59.000Z</Time>
            <Position>
              <LatitudeDegrees>41.52254912070930004119873046875</LatitudeDegrees>
              <LongitudeDegrees>-4.56945025362074375152587890625</LongitudeDegrees>
            </Position>
            <AltitudeMeters>1225.5999755859375</AltitudeMeters>
            <DistanceMeters>14489.290884161</DistanceMeters>
          </Trackpoint>
          <Trackpoint>
            <Time>2023-02-23T11:28:01.000Z</Time>
            <Position>
              <LatitudeDegrees>41.5224491246044635772705078125</LatitudeDegrees>
              <LongitudeDegrees>-4.5694882236421108245849609375</LongitudeDegrees>
            </Position>
            <AltitudeMeters>1225.5999755859375</AltitudeMeters>
            <DistanceMeters>14500.861532949</DistanceMeters>
          </Trackpoint>
          <Trackpoint>
            <Time>2023-02-23T11:28:05.000Z</Time>
            <Position>
              <LatitudeDegrees>41.522239744663238525390625</LatitudeDegrees>
              <LongitudeDegrees>-4.5695291273295879364013671875</LongitudeDegrees>
            </Position>
            <AltitudeMeters>1225</AltitudeMeters>
            <DistanceMeters>14524.413593067</DistanceMeters>
          </Trackpoint>
          <Trackpoint>
            <Time>2023-02-23T11:28:07.000Z</Time>
            <Position>
              <LatitudeDegrees>41.52212751097977161407470703125</LatitudeDegrees>
              <LongitudeDegrees>-4.5695354975759983062744140625</LongitudeDegrees>
            </Position>
            <AltitudeMeters>1224.800048828125</AltitudeMeters>
            <DistanceMeters>14536.916740006</DistanceMeters>
          </Trackpoint>
          <Trackpoint>
            <Time>2023-02-23T11:28:11.000Z</Time>
            <Position>
              <LatitudeDegrees>41.5219084918498992919921875</LatitudeDegrees>
              <LongitudeDegrees>-4.56953122280538082122802734375</LongitudeDegrees>
            </Position>
            <AltitudeMeters>1224</AltitudeMeters>
            <DistanceMeters>14561.296602428</DistanceMeters>
          </Trackpoint>
          <Trackpoint>
            <Time>2023-02-23T11:28:12.000Z</Time>
            <Position>
              <LatitudeDegrees>41.5218566916882991790771484375</LatitudeDegrees>
              <LongitudeDegrees>-4.56953407265245914459228515625</LongitudeDegrees>
            </Position>
            <AltitudeMeters>1224</AltitudeMeters>
            <DistanceMeters>14567.066688376</DistanceMeters>
          </Trackpoint>
          <Trackpoint>
            <Time>2023-02-23T11:28:17.000Z</Time>
            <Position>
              <LatitudeDegrees>41.52164773084223270416259765625</LatitudeDegrees>
              <LongitudeDegrees>-4.56955150701105594635009765625</LongitudeDegrees>
            </Position>
            <AltitudeMeters>1225.4000244140625</AltitudeMeters>
            <DistanceMeters>14590.369749914</DistanceMeters>
          </Trackpoint>
          <Trackpoint>
            <Time>2023-02-23T11:28:19.000Z</Time>
            <Position>
              <LatitudeDegrees>41.52158888988196849822998046875</LatitudeDegrees>
              <LongitudeDegrees>-4.5695629902184009552001953125</LongitudeDegrees>
            </Position>
            <AltitudeMeters>1226.199951171875</AltitudeMeters>
            <DistanceMeters>14596.98895915</DistanceMeters>
          </Trackpoint>
          <Trackpoint>
            <Time>2023-02-23T11:28:22.000Z</Time>
            <Position>
              <LatitudeDegrees>41.52150875888764858245849609375</LatitudeDegrees>
              <LongitudeDegrees>-4.56957765854895114898681640625</LongitudeDegrees>
            </Position>
            <AltitudeMeters>1227</AltitudeMeters>
            <DistanceMeters>14605.990953707</DistanceMeters>
          </Trackpoint>
          <Trackpoint>
            <Time>2023-02-23T11:28:23.000Z</Time>
            <Position>
              <LatitudeDegrees>41.5214793384075164794921875</LatitudeDegrees>
              <LongitudeDegrees>-4.56957799382507801055908203125</LongitudeDegrees>
            </Position>
            <AltitudeMeters>1227.4000244140625</AltitudeMeters>
            <DistanceMeters>14609.263517024</DistanceMeters>
          </Trackpoint>
          <Trackpoint>
            <Time>2023-02-23T11:28:24.000Z</Time>
            <Position>
              <LatitudeDegrees>41.5214516781270503997802734375</LatitudeDegrees>
              <LongitudeDegrees>-4.56957682035863399505615234375</LongitudeDegrees>
            </Position>
            <AltitudeMeters>1227.4000244140625</AltitudeMeters>
            <DistanceMeters>14612.3427345</DistanceMeters>
          </Trackpoint>
          <Trackpoint>
            <Time>2023-02-23T11:28:27.000Z</Time>
            <Position>
              <LatitudeDegrees>41.52138789184391498565673828125</LatitudeDegrees>
              <LongitudeDegrees>-4.5696015469729900360107421875</LongitudeDegrees>
            </Position>
            <AltitudeMeters>1228</AltitudeMeters>
            <DistanceMeters>14619.735299862</DistanceMeters>
          </Trackpoint>
          <Trackpoint>
            <Time>2023-02-23T11:28:29.000Z</Time>
            <Position>
              <LatitudeDegrees>41.52135704644024372100830078125</LatitudeDegrees>
              <LongitudeDegrees>-4.5696330629289150238037109375</LongitudeDegrees>
            </Position>
            <AltitudeMeters>1228.199951171875</AltitudeMeters>
            <DistanceMeters>14624.057709857</DistanceMeters>
          </Trackpoint>
          <Trackpoint>
            <Time>2023-02-23T11:28:30.000Z</Time>
            <Position>
              <LatitudeDegrees>41.5213440544903278350830078125</LatitudeDegrees>
              <LongitudeDegrees>-4.56964840181171894073486328125</LongitudeDegrees>
            </Position>
            <AltitudeMeters>1228.4000244140625</AltitudeMeters>
            <DistanceMeters>14625.986541497</DistanceMeters>
          </Trackpoint>
          <Trackpoint>
            <Time>2023-02-23T11:28:31.000Z</Time>
            <Position>
              <LatitudeDegrees>41.52133374474942684173583984375</LatitudeDegrees>
              <LongitudeDegrees>-4.56966876983642578125</LongitudeDegrees>
            </Position>
            <AltitudeMeters>1228.4000244140625</AltitudeMeters>
            <DistanceMeters>14628.035684134</DistanceMeters>
          </Trackpoint>
          <Trackpoint>
            <Time>2023-02-23T11:28:33.000Z</Time>
            <Position>
              <LatitudeDegrees>41.52131916023790836334228515625</LatitudeDegrees>
              <LongitudeDegrees>-4.56968813203275203704833984375</LongitudeDegrees>
            </Position>
            <AltitudeMeters>1229</AltitudeMeters>
            <DistanceMeters>14630.324230471</DistanceMeters>
          </Trackpoint>
          <Trackpoint>
            <Time>2023-02-23T11:28:34.000Z</Time>
            <Position>
              <LatitudeDegrees>41.5213103592395782470703125</LatitudeDegrees>
              <LongitudeDegrees>-4.56968863494694232940673828125</LongitudeDegrees>
            </Position>
            <AltitudeMeters>1229.199951171875</AltitudeMeters>
            <DistanceMeters>14631.307194448</DistanceMeters>
          </Trackpoint>
          <Trackpoint>
            <Time>2023-02-23T11:28:35.000Z</Time>
            <Position>
              <LatitudeDegrees>41.521297283470630645751953125</LatitudeDegrees>
              <LongitudeDegrees>-4.56968058831989765167236328125</LongitudeDegrees>
            </Position>
            <AltitudeMeters>1229.4000244140625</AltitudeMeters>
            <DistanceMeters>14632.911430025</DistanceMeters>
          </Trackpoint>
          <Trackpoint>
            <Time>2023-02-23T11:28:36.000Z</Time>
            <Position>
              <LatitudeDegrees>41.52129049412906169891357421875</LatitudeDegrees>
              <LongitudeDegrees>-4.5696769841015338897705078125</LongitudeDegrees>
            </Position>
            <AltitudeMeters>1229.5999755859375</AltitudeMeters>
            <DistanceMeters>14633.728880731</DistanceMeters>
          </Trackpoint>
          <Trackpoint>
            <Time>2023-02-23T11:28:37.000Z</Time>
            <Position>
              <LatitudeDegrees>41.5212835371494293212890625</LatitudeDegrees>
              <LongitudeDegrees>-4.569661058485507965087890625</LongitudeDegrees>
            </Position>
            <AltitudeMeters>1229.5999755859375</AltitudeMeters>
            <DistanceMeters>14635.267022476</DistanceMeters>
          </Trackpoint>
          <Trackpoint>
            <Time>2023-02-23T11:28:38.000Z</Time>
            <Position>
              <LatitudeDegrees>41.52127607725560665130615234375</LatitudeDegrees>
              <LongitudeDegrees>-4.56963130272924900054931640625</LongitudeDegrees>
            </Position>
            <AltitudeMeters>1229.5999755859375</AltitudeMeters>
            <DistanceMeters>14637.881552619</DistanceMeters>
          </Trackpoint>
          <Trackpoint>
            <Time>2023-02-23T11:28:45.000Z</Time>
            <Position>
              <LatitudeDegrees>41.5212434716522693634033203125</LatitudeDegrees>
              <LongitudeDegrees>-4.56941504962742328643798828125</LongitudeDegrees>
            </Position>
            <AltitudeMeters>1230.5999755859375</AltitudeMeters>
            <DistanceMeters>14656.264248849</DistanceMeters>
          </Trackpoint>
          <Trackpoint>
            <Time>2023-02-23T11:28:50.000Z</Time>
            <Position>
              <LatitudeDegrees>41.5212250314652919769287109375</LatitudeDegrees>
              <LongitudeDegrees>-4.5692977868020534515380859375</LongitudeDegrees>
            </Position>
            <AltitudeMeters>1231.199951171875</AltitudeMeters>
            <DistanceMeters>14666.248839173</DistanceMeters>
          </Trackpoint>
          <Trackpoint>
            <Time>2023-02-23T11:28:51.000Z</Time>
            <Position>
              <LatitudeDegrees>41.52122980915009975433349609375</LatitudeDegrees>
              <LongitudeDegrees>-4.5692967809736728668212890625</LongitudeDegrees>
            </Position>
            <AltitudeMeters>1231.4000244140625</AltitudeMeters>
            <DistanceMeters>14666.786391446</DistanceMeters>
          </Trackpoint>
          <Trackpoint>
            <Time>2023-02-23T11:28:52.000Z</Time>
            <Position>
              <LatitudeDegrees>41.52123148553073406219482421875</LatitudeDegrees>
              <LongitudeDegrees>-4.5692944340407848358154296875</LongitudeDegrees>
            </Position>
            <AltitudeMeters>1231.5999755859375</AltitudeMeters>
            <DistanceMeters>14667.055167583</DistanceMeters>
          </Trackpoint>
          <Trackpoint>
            <Time>2023-02-23T11:28:55.000Z</Time>
            <Position>
              <LatitudeDegrees>41.52122008614242076873779296875</LatitudeDegrees>
              <LongitudeDegrees>-4.5693053305149078369140625</LongitudeDegrees>
            </Position>
            <AltitudeMeters>1232</AltitudeMeters>
            <DistanceMeters>14668.616615833</DistanceMeters>
          </Trackpoint>
          <Trackpoint>
            <Time>2023-02-23T11:28:56.000Z</Time>
            <Position>
              <LatitudeDegrees>41.52121924795210361480712890625</LatitudeDegrees>
              <LongitudeDegrees>-4.56930600106716156005859375</LongitudeDegrees>
            </Position>
            <AltitudeMeters>1232</AltitudeMeters>
            <DistanceMeters>14668.751003902</DistanceMeters>
          </Trackpoint>
          <Trackpoint>
            <Time>2023-02-23T11:29:00.000Z</Time>
            <Position>
              <LatitudeDegrees>41.5212206728756427764892578125</LatitudeDegrees>
              <LongitudeDegrees>-4.56931312568485736846923828125</LongitudeDegrees>
            </Position>
            <AltitudeMeters>1231.800048828125</AltitudeMeters>
            <DistanceMeters>14669.366847397</DistanceMeters>
          </Trackpoint>
          <Trackpoint>
            <Time>2023-02-23T11:29:05.000Z</Time>
            <Position>
              <LatitudeDegrees>41.5212189964950084686279296875</LatitudeDegrees>
              <LongitudeDegrees>-4.5692940987646579742431640625</LongitudeDegrees>
            </Position>
            <AltitudeMeters>1231.5999755859375</AltitudeMeters>
            <DistanceMeters>14670.965444167</DistanceMeters>
          </Trackpoint>
          <Trackpoint>
            <Time>2023-02-23T11:29:12.000Z</Time>
            <Position>
              <LatitudeDegrees>41.52124053798615932464599609375</LatitudeDegrees>
              <LongitudeDegrees>-4.569288231432437896728515625</LongitudeDegrees>
            </Position>
            <AltitudeMeters>1231.5999755859375</AltitudeMeters>
            <DistanceMeters>14673.410420773</DistanceMeters>
          </Trackpoint>
          <Trackpoint>
            <Time>2023-02-23T11:29:13.000Z</Time>
            <Position>
              <LatitudeDegrees>41.5212424658238887786865234375</LatitudeDegrees>
              <LongitudeDegrees>-4.5692957751452922821044921875</LongitudeDegrees>
            </Position>
            <AltitudeMeters>1231.5999755859375</AltitudeMeters>
            <DistanceMeters>14674.075607774</DistanceMeters>
          </Trackpoint>
          <Trackpoint>
            <Time>2023-02-23T11:29:15.000Z</Time>
            <Position>
              <LatitudeDegrees>41.52124053798615932464599609375</LatitudeDegrees>
              <LongitudeDegrees>-4.56930197775363922119140625</LongitudeDegrees>
            </Position>
            <AltitudeMeters>1231.5999755859375</AltitudeMeters>
            <DistanceMeters>14674.637793398</DistanceMeters>
          </Trackpoint>
          <Trackpoint>
            <Time>2023-02-23T11:29:18.000Z</Time>
            <Position>
              <LatitudeDegrees>41.52124397456645965576171875</LatitudeDegrees>
              <LongitudeDegrees>-4.56931849010288715362548828125</LongitudeDegrees>
            </Position>
            <AltitudeMeters>1231.5999755859375</AltitudeMeters>
            <DistanceMeters>14676.069515212</DistanceMeters>
          </Trackpoint>
          <Trackpoint>
            <Time>2023-02-23T11:29:21.000Z</Time>
            <Position>
              <LatitudeDegrees>41.52123735286295413970947265625</LatitudeDegrees>
              <LongitudeDegrees>-4.5693111978471279144287109375</LongitudeDegrees>
            </Position>
            <AltitudeMeters>1231.4000244140625</AltitudeMeters>
            <DistanceMeters>14677.024521872</DistanceMeters>
          </Trackpoint>
          <Trackpoint>
            <Time>2023-02-23T11:29:22.000Z</Time>
            <Position>
              <LatitudeDegrees>41.52122679166495800018310546875</LatitudeDegrees>
              <LongitudeDegrees>-4.569306671619415283203125</LongitudeDegrees>
            </Position>
            <AltitudeMeters>1231.5999755859375</AltitudeMeters>
            <DistanceMeters>14678.256208862</DistanceMeters>
          </Trackpoint>
          <Trackpoint>
            <Time>2023-02-23T11:29:24.000Z</Time>
            <Position>
              <LatitudeDegrees>41.5212186612188816070556640625</LatitudeDegrees>
              <LongitudeDegrees>-4.569291584193706512451171875</LongitudeDegrees>
            </Position>
            <AltitudeMeters>1231.5999755859375</AltitudeMeters>
            <DistanceMeters>14679.806047672</DistanceMeters>
          </Trackpoint>
          <Trackpoint>
            <Time>2023-02-23T11:29:27.000Z</Time>
            <Position>
              <LatitudeDegrees>41.5212039090692996978759765625</LatitudeDegrees>
              <LongitudeDegrees>-4.5692431367933750152587890625</LongitudeDegrees>
            </Position>
            <AltitudeMeters>1231.5999755859375</AltitudeMeters>
            <DistanceMeters>14684.164864121</DistanceMeters>
          </Trackpoint>
          <Trackpoint>
            <Time>2023-02-23T11:29:33.000Z</Time>
            <Position>
              <LatitudeDegrees>41.52114213444292545318603515625</LatitudeDegrees>
              <LongitudeDegrees>-4.569040797650814056396484375</LongitudeDegrees>
            </Position>
            <AltitudeMeters>1231.5999755859375</AltitudeMeters>
            <DistanceMeters>14702.374571342</DistanceMeters>
          </Trackpoint>
          <Trackpoint>
            <Time>2023-02-23T11:29:39.000Z</Time>
            <Position>
              <LatitudeDegrees>41.52107558213174343109130859375</LatitudeDegrees>
              <LongitudeDegrees>-4.5688230358064174652099609375</LongitudeDegrees>
            </Position>
            <AltitudeMeters>1232</AltitudeMeters>
            <DistanceMeters>14721.975198942</DistanceMeters>
          </Trackpoint>
          <Trackpoint>
            <Time>2023-02-23T11:29:40.000Z</Time>
            <Position>
              <LatitudeDegrees>41.52106133289635181427001953125</LatitudeDegrees>
              <LongitudeDegrees>-4.56878774799406528472900390625</LongitudeDegrees>
            </Position>
            <AltitudeMeters>1232.199951171875</AltitudeMeters>
            <DistanceMeters>14725.316033342</DistanceMeters>
          </Trackpoint>
          <Trackpoint>
            <Time>2023-02-23T11:29:42.000Z</Time>
            <Position>
              <LatitudeDegrees>41.521038115024566650390625</LatitudeDegrees>
              <LongitudeDegrees>-4.56871113739907741546630859375</LongitudeDegrees>
            </Position>
            <AltitudeMeters>1232.199951171875</AltitudeMeters>
            <DistanceMeters>14732.202684305</DistanceMeters>
          </Trackpoint>
          <Trackpoint>
            <Time>2023-02-23T11:29:45.000Z</Time>
            <Position>
              <LatitudeDegrees>41.52100450359284877777099609375</LatitudeDegrees>
              <LongitudeDegrees>-4.5685876719653606414794921875</LongitudeDegrees>
            </Position>
            <AltitudeMeters>1232.199951171875</AltitudeMeters>
            <DistanceMeters>14743.150157737</DistanceMeters>
          </Trackpoint>
          <Trackpoint>
            <Time>2023-02-23T11:29:47.000Z</Time>
            <Position>
              <LatitudeDegrees>41.52098053134977817535400390625</LatitudeDegrees>
              <LongitudeDegrees>-4.56849890761077404022216796875</LongitudeDegrees>
            </Position>
            <AltitudeMeters>1232.199951171875</AltitudeMeters>
            <DistanceMeters>14751.013869551</DistanceMeters>
          </Trackpoint>
          <Trackpoint>
            <Time>2023-02-23T11:29:51.000Z</Time>
            <Position>
              <LatitudeDegrees>41.52092101983726024627685546875</LatitudeDegrees>
              <LongitudeDegrees>-4.56833143718540668487548828125</LongitudeDegrees>
            </Position>
            <AltitudeMeters>1232.4000244140625</AltitudeMeters>
            <DistanceMeters>14766.461776535</DistanceMeters>
          </Trackpoint>
          <Trackpoint>
            <Time>2023-02-23T11:29:53.000Z</Time>
            <Position>
              <LatitudeDegrees>41.52089419774711132049560546875</LatitudeDegrees>
              <LongitudeDegrees>-4.56823957152664661407470703125</LongitudeDegrees>
            </Position>
            <AltitudeMeters>1232.4000244140625</AltitudeMeters>
            <DistanceMeters>14774.678703063</DistanceMeters>
          </Trackpoint>
          <Trackpoint>
            <Time>2023-02-23T11:29:58.000Z</Time>
            <Position>
              <LatitudeDegrees>41.52081339620053768157958984375</LatitudeDegrees>
              <LongitudeDegrees>-4.568008147180080413818359375</LongitudeDegrees>
            </Position>
            <AltitudeMeters>1231.800048828125</AltitudeMeters>
            <DistanceMeters>14795.958322735</DistanceMeters>
          </Trackpoint>
          <Trackpoint>
            <Time>2023-02-23T11:30:00.000Z</Time>
            <Position>
              <LatitudeDegrees>41.520789675414562225341796875</LatitudeDegrees>
              <LongitudeDegrees>-4.56790722906589508056640625</LongitudeDegrees>
            </Position>
            <AltitudeMeters>1231.800048828125</AltitudeMeters>
            <DistanceMeters>14804.772786855</DistanceMeters>
          </Trackpoint>
          <Trackpoint>
            <Time>2023-02-23T11:30:01.000Z</Time>
            <Position>
              <LatitudeDegrees>41.5207804553210735321044921875</LatitudeDegrees>
              <LongitudeDegrees>-4.56786163151264190673828125</LongitudeDegrees>
            </Position>
            <AltitudeMeters>1231.800048828125</AltitudeMeters>
            <DistanceMeters>14808.709233371</DistanceMeters>
          </Trackpoint>
          <Trackpoint>
            <Time>2023-02-23T11:30:04.000Z</Time>
            <Position>
              <LatitudeDegrees>41.5207475982606410980224609375</LatitudeDegrees>
              <LongitudeDegrees>-4.56771335564553737640380859375</LongitudeDegrees>
            </Position>
            <AltitudeMeters>1231.800048828125</AltitudeMeters>
            <DistanceMeters>14821.59508009</DistanceMeters>
          </Trackpoint>
          <Trackpoint>
            <Time>2023-02-23T11:30:14.000Z</Time>
            <Position>
              <LatitudeDegrees>41.52061390690505504608154296875</LatitudeDegrees>
              <LongitudeDegrees>-4.5672284625470638275146484375</LongitudeDegrees>
            </Position>
            <AltitudeMeters>1232</AltitudeMeters>
            <DistanceMeters>14864.655709868</DistanceMeters>
          </Trackpoint>
          <Trackpoint>
            <Time>2023-02-23T11:30:21.000Z</Time>
            <Position>
              <LatitudeDegrees>41.520506031811237335205078125</LatitudeDegrees>
              <LongitudeDegrees>-4.56689863465726375579833984375</LongitudeDegrees>
            </Position>
            <AltitudeMeters>1231.800048828125</AltitudeMeters>
            <DistanceMeters>14894.649398633</DistanceMeters>
          </Trackpoint>
          <Trackpoint>
            <Time>2023-02-23T11:30:27.000Z</Time>
            <Position>
              <LatitudeDegrees>41.52039815671741962432861328125</LatitudeDegrees>
              <LongitudeDegrees>-4.566616751253604888916015625</LongitudeDegrees>
            </Position>
            <AltitudeMeters>1231.5999755859375</AltitudeMeters>
            <DistanceMeters>14921.030567138</DistanceMeters>
          </Trackpoint>
          <Trackpoint>
            <Time>2023-02-23T11:30:30.000Z</Time>
            <Position>
              <LatitudeDegrees>41.520350463688373565673828125</LatitudeDegrees>
              <LongitudeDegrees>-4.56648004241287708282470703125</LongitudeDegrees>
            </Position>
            <AltitudeMeters>1231.800048828125</AltitudeMeters>
            <DistanceMeters>14933.598546178</DistanceMeters>
          </Trackpoint>
          <Trackpoint>
            <Time>2023-02-23T11:30:36.000Z</Time>
            <Position>
              <LatitudeDegrees>41.52026019059121608734130859375</LatitudeDegrees>
              <LongitudeDegrees>-4.566206373274326324462890625</LongitudeDegrees>
            </Position>
            <AltitudeMeters>1232</AltitudeMeters>
            <DistanceMeters>14958.519653047</DistanceMeters>
          </Trackpoint>
          <Trackpoint>
            <Time>2023-02-23T11:30:40.000Z</Time>
            <Position>
              <LatitudeDegrees>41.5201980806887149810791015625</LatitudeDegrees>
              <LongitudeDegrees>-4.5660278387367725372314453125</LongitudeDegrees>
            </Position>
            <AltitudeMeters>1232.199951171875</AltitudeMeters>
            <DistanceMeters>14974.925458681</DistanceMeters>
          </Trackpoint>
          <Trackpoint>
            <Time>2023-02-23T11:30:45.000Z</Time>
            <Position>
              <LatitudeDegrees>41.52011149562895298004150390625</LatitudeDegrees>
              <LongitudeDegrees>-4.56580328755080699920654296875</LongitudeDegrees>
            </Position>
            <AltitudeMeters>1232.5999755859375</AltitudeMeters>
            <DistanceMeters>14995.974251298</DistanceMeters>
          </Trackpoint>
          <Trackpoint>
            <Time>2023-02-23T11:30:46.000Z</Time>
            <Position>
              <LatitudeDegrees>41.52009691111743450164794921875</LatitudeDegrees>
              <LongitudeDegrees>-4.56575836054980754852294921875</LongitudeDegrees>
            </Position>
            <AltitudeMeters>1232.5999755859375</AltitudeMeters>
            <DistanceMeters>15000.054871467</DistanceMeters>
          </Trackpoint>
          <Trackpoint>
            <Time>2023-02-23T11:30:53.000Z</Time>
            <Position>
              <LatitudeDegrees>41.51998526416718959808349609375</LatitudeDegrees>
              <LongitudeDegrees>-4.56546331755816936492919921875</LongitudeDegrees>
            </Position>
            <AltitudeMeters>1232.800048828125</AltitudeMeters>
            <DistanceMeters>15027.603769899</DistanceMeters>
          </Trackpoint>
          <Trackpoint>
            <Time>2023-02-23T11:30:55.000Z</Time>
            <Position>
              <LatitudeDegrees>41.519944779574871063232421875</LatitudeDegrees>
              <LongitudeDegrees>-4.56538436003029346466064453125</LongitudeDegrees>
            </Position>
            <AltitudeMeters>1233.199951171875</AltitudeMeters>
            <DistanceMeters>15035.578091081</DistanceMeters>
          </Trackpoint>
          <Trackpoint>
            <Time>2023-02-23T11:31:00.000Z</Time>
            <Position>
              <LatitudeDegrees>41.51985567994415760040283203125</LatitudeDegrees>
              <LongitudeDegrees>-4.565178416669368743896484375</LongitudeDegrees>
            </Position>
            <AltitudeMeters>1233.5999755859375</AltitudeMeters>
            <DistanceMeters>15055.399306128</DistanceMeters>
          </Trackpoint>
          <Trackpoint>
            <Time>2023-02-23T11:31:02.000Z</Time>
            <Position>
              <LatitudeDegrees>41.519826762378215789794921875</LatitudeDegrees>
              <LongitudeDegrees>-4.56509518437087535858154296875</LongitudeDegrees>
            </Position>
            <AltitudeMeters>1233.800048828125</AltitudeMeters>
            <DistanceMeters>15063.046447754</DistanceMeters>
          </Trackpoint>
          <Trackpoint>
            <Time>2023-02-23T11:31:03.000Z</Time>
            <Position>
              <LatitudeDegrees>41.51980941183865070343017578125</LatitudeDegrees>
              <LongitudeDegrees>-4.56505713053047657012939453125</LongitudeDegrees>
            </Position>
            <AltitudeMeters>1233.5999755859375</AltitudeMeters>
            <DistanceMeters>15066.761007863</DistanceMeters>
          </Trackpoint>
          <Trackpoint>
            <Time>2023-02-23T11:31:07.000Z</Time>
            <Position>
              <LatitudeDegrees>41.5197501517832279205322265625</LatitudeDegrees>
              <LongitudeDegrees>-4.56488245166838169097900390625</LongitudeDegrees>
            </Position>
            <AltitudeMeters>1234</AltitudeMeters>
            <DistanceMeters>15082.742455925</DistanceMeters>
          </Trackpoint>
          <Trackpoint>
            <Time>2023-02-23T11:31:12.000Z</Time>
            <Position>
              <LatitudeDegrees>41.51967043988406658172607421875</LatitudeDegrees>
              <LongitudeDegrees>-4.56466200761497020721435546875</LongitudeDegrees>
            </Position>
            <AltitudeMeters>1234.199951171875</AltitudeMeters>
            <DistanceMeters>15103.143343731</DistanceMeters>
          </Trackpoint>
          <Trackpoint>
            <Time>2023-02-23T11:31:15.000Z</Time>
            <Position>
              <LatitudeDegrees>41.51962333358824253082275390625</LatitudeDegrees>
              <LongitudeDegrees>-4.56453829072415828704833984375</LongitudeDegrees>
            </Position>
            <AltitudeMeters>1234.4000244140625</AltitudeMeters>
            <DistanceMeters>15114.70969936</DistanceMeters>
          </Trackpoint>
          <Trackpoint>
            <Time>2023-02-23T11:31:21.000Z</Time>
            <Position>
              <LatitudeDegrees>41.5195213258266448974609375</LatitudeDegrees>
              <LongitudeDegrees>-4.56430041231215000152587890625</LongitudeDegrees>
            </Position>
            <AltitudeMeters>1234.4000244140625</AltitudeMeters>
            <DistanceMeters>15137.554485154</DistanceMeters>
          </Trackpoint>
          <Trackpoint>
            <Time>2023-02-23T11:31:23.000Z</Time>
            <Position>
              <LatitudeDegrees>41.51949458755552768707275390625</LatitudeDegrees>
              <LongitudeDegrees>-4.56421122886240482330322265625</LongitudeDegrees>
            </Position>
            <AltitudeMeters>1234.5999755859375</AltitudeMeters>
            <DistanceMeters>15145.560450593</DistanceMeters>
          </Trackpoint>
          <Trackpoint>
            <Time>2023-02-23T11:31:25.000Z</Time>
            <Position>
              <LatitudeDegrees>41.5194681845605373382568359375</LatitudeDegrees>
              <LongitudeDegrees>-4.564120955765247344970703125</LongitudeDegrees>
            </Position>
            <AltitudeMeters>1234.800048828125</AltitudeMeters>
            <DistanceMeters>15153.636044198</DistanceMeters>
          </Trackpoint>
          <Trackpoint>
            <Time>2023-02-23T11:31:30.000Z</Time>
            <Position>
              <LatitudeDegrees>41.51940909214317798614501953125</LatitudeDegrees>
              <LongitudeDegrees>-4.56391065381467342376708984375</LongitudeDegrees>
            </Position>
            <AltitudeMeters>1235.5999755859375</AltitudeMeters>
            <DistanceMeters>15172.355100967</DistanceMeters>
          </Trackpoint>
          <Trackpoint>
            <Time>2023-02-23T11:31:31.000Z</Time>
            <Position>
              <LatitudeDegrees>41.519395597279071807861328125</LatitudeDegrees>
              <LongitudeDegrees>-4.56387176178395748138427734375</LongitudeDegrees>
            </Position>
            <AltitudeMeters>1235.5999755859375</AltitudeMeters>
            <DistanceMeters>15175.927144922</DistanceMeters>
          </Trackpoint>
          <Trackpoint>
            <Time>2023-02-23T11:31:34.000Z</Time>
            <Position>
              <LatitudeDegrees>41.51934002526104450225830078125</LatitudeDegrees>
              <LongitudeDegrees>-4.56376883201301097869873046875</LongitudeDegrees>
            </Position>
            <AltitudeMeters>1235.800048828125</AltitudeMeters>
            <DistanceMeters>15186.502469823</DistanceMeters>
          </Trackpoint>
          <Trackpoint>
            <Time>2023-02-23T11:31:36.000Z</Time>
            <Position>
              <LatitudeDegrees>41.51929895393550395965576171875</LatitudeDegrees>
              <LongitudeDegrees>-4.56369892694056034088134765625</LongitudeDegrees>
            </Position>
            <AltitudeMeters>1235.800048828125</AltitudeMeters>
            <DistanceMeters>15193.907849911</DistanceMeters>
          </Trackpoint>
          <Trackpoint>
            <Time>2023-02-23T11:31:42.000Z</Time>
            <Position>
              <LatitudeDegrees>41.519205160439014434814453125</LatitudeDegrees>
              <LongitudeDegrees>-4.5634666644036769866943359375</LongitudeDegrees>
            </Position>
            <AltitudeMeters>1236.199951171875</AltitudeMeters>
            <DistanceMeters>15215.899298342</DistanceMeters>
          </Trackpoint>
          <Trackpoint>
            <Time>2023-02-23T11:31:45.000Z</Time>
            <Position>
              <LatitudeDegrees>41.519155539572238922119140625</LatitudeDegrees>
              <LongitudeDegrees>-4.5633533410727977752685546875</LongitudeDegrees>
            </Position>
            <AltitudeMeters>1236</AltitudeMeters>
            <DistanceMeters>15226.839345563</DistanceMeters>
          </Trackpoint>
          <Trackpoint>
            <Time>2023-02-23T11:31:57.000Z</Time>
            <Position>
              <LatitudeDegrees>41.51898547075688838958740234375</LatitudeDegrees>
              <LongitudeDegrees>-4.56288638524711132049560546875</LongitudeDegrees>
            </Position>
            <AltitudeMeters>1236.4000244140625</AltitudeMeters>
            <DistanceMeters>15270.113138239</DistanceMeters>
          </Trackpoint>
          <Trackpoint>
            <Time>2023-02-23T11:32:00.000Z</Time>
            <Position>
              <LatitudeDegrees>41.5189448185265064239501953125</LatitudeDegrees>
              <LongitudeDegrees>-4.56277616322040557861328125</LongitudeDegrees>
            </Position>
            <AltitudeMeters>1237</AltitudeMeters>
            <DistanceMeters>15280.352680104</DistanceMeters>
          </Trackpoint>
          <Trackpoint>
            <Time>2023-02-23T11:32:07.000Z</Time>
            <Position>
              <LatitudeDegrees>41.51886560954153537750244140625</LatitudeDegrees>
              <LongitudeDegrees>-4.56252076663076877593994140625</LongitudeDegrees>
            </Position>
            <AltitudeMeters>1237.4000244140625</AltitudeMeters>
            <DistanceMeters>15303.389946712</DistanceMeters>
          </Trackpoint>
          <Trackpoint>
            <Time>2023-02-23T11:32:14.000Z</Time>
            <Position>
              <LatitudeDegrees>41.51879168115556240081787109375</LatitudeDegrees>
              <LongitudeDegrees>-4.56225723959505558013916015625</LongitudeDegrees>
            </Position>
            <AltitudeMeters>1237.4000244140625</AltitudeMeters>
            <DistanceMeters>15326.842108575</DistanceMeters>
          </Trackpoint>
          <Trackpoint>
            <Time>2023-02-23T11:32:19.000Z</Time>
            <Position>
              <LatitudeDegrees>41.51871372945606708526611328125</LatitudeDegrees>
              <LongitudeDegrees>-4.5620821416378021240234375</LongitudeDegrees>
            </Position>
            <AltitudeMeters>1237.800048828125</AltitudeMeters>
            <DistanceMeters>15343.818678304</DistanceMeters>
          </Trackpoint>
          <Trackpoint>
            <Time>2023-02-23T11:32:20.000Z</Time>
            <Position>
              <LatitudeDegrees>41.51869763620197772979736328125</LatitudeDegrees>
              <LongitudeDegrees>-4.5620445907115936279296875</LongitudeDegrees>
            </Position>
            <AltitudeMeters>1238</AltitudeMeters>
            <DistanceMeters>15347.424688576</DistanceMeters>
          </Trackpoint>
          <Trackpoint>
            <Time>2023-02-23T11:32:23.000Z</Time>
            <Position>
              <LatitudeDegrees>41.51865354739129543304443359375</LatitudeDegrees>
              <LongitudeDegrees>-4.5619274117052555084228515625</LongitudeDegrees>
            </Position>
            <AltitudeMeters>1238</AltitudeMeters>
            <DistanceMeters>15358.353587017</DistanceMeters>
          </Trackpoint>
          <Trackpoint>
            <Time>2023-02-23T11:32:29.000Z</Time>
            <Position>
              <LatitudeDegrees>41.51857308112084865570068359375</LatitudeDegrees>
              <LongitudeDegrees>-4.5616836659610271453857421875</LongitudeDegrees>
            </Position>
            <AltitudeMeters>1238.199951171875</AltitudeMeters>
            <DistanceMeters>15380.553055973</DistanceMeters>
          </Trackpoint>
          <Trackpoint>
            <Time>2023-02-23T11:32:30.000Z</Time>
            <Position>
              <LatitudeDegrees>41.51855581440031528472900390625</LatitudeDegrees>
              <LongitudeDegrees>-4.56164116971194744110107421875</LongitudeDegrees>
            </Position>
            <AltitudeMeters>1238.4000244140625</AltitudeMeters>
            <DistanceMeters>15384.581336917</DistanceMeters>
          </Trackpoint>
          <Trackpoint>
            <Time>2023-02-23T11:32:32.000Z</Time>
            <Position>
              <LatitudeDegrees>41.5185273997485637664794921875</LatitudeDegrees>
              <LongitudeDegrees>-4.56155433319509029388427734375</LongitudeDegrees>
            </Position>
            <AltitudeMeters>1238.5999755859375</AltitudeMeters>
            <DistanceMeters>15392.479423273</DistanceMeters>
          </Trackpoint>
          <Trackpoint>
            <Time>2023-02-23T11:32:38.000Z</Time>
            <Position>
              <LatitudeDegrees>41.51843410916626453399658203125</LatitudeDegrees>
              <LongitudeDegrees>-4.5613027922809123992919921875</LongitudeDegrees>
            </Position>
            <AltitudeMeters>1238.4000244140625</AltitudeMeters>
            <DistanceMeters>15415.872599471</DistanceMeters>
          </Trackpoint>
          <Trackpoint>
            <Time>2023-02-23T11:32:41.000Z</Time>
            <Position>
              <LatitudeDegrees>41.518390439450740814208984375</LatitudeDegrees>
              <LongitudeDegrees>-4.56117329187691211700439453125</LongitudeDegrees>
            </Position>
            <AltitudeMeters>1239</AltitudeMeters>
            <DistanceMeters>15427.708671706</DistanceMeters>
          </Trackpoint>
          <Trackpoint>
            <Time>2023-02-23T11:32:43.000Z</Time>
            <Position>
              <LatitudeDegrees>41.5183547325432300567626953125</LatitudeDegrees>
              <LongitudeDegrees>-4.56109181977808475494384765625</LongitudeDegrees>
            </Position>
            <AltitudeMeters>1239.199951171875</AltitudeMeters>
            <DistanceMeters>15435.575827733</DistanceMeters>
          </Trackpoint>
          <Trackpoint>
            <Time>2023-02-23T11:32:44.000Z</Time>
            <Position>
              <LatitudeDegrees>41.51834006421267986297607421875</LatitudeDegrees>
              <LongitudeDegrees>-4.56105208955705165863037109375</LongitudeDegrees>
            </Position>
            <AltitudeMeters>1239.199951171875</AltitudeMeters>
            <DistanceMeters>15439.267221149</DistanceMeters>
          </Trackpoint>
          <Trackpoint>
            <Time>2023-02-23T11:32:50.000Z</Time>
            <Position>
              <LatitudeDegrees>41.51824635453522205352783203125</LatitudeDegrees>
              <LongitudeDegrees>-4.56081689335405826568603515625</LongitudeDegrees>
            </Position>
            <AltitudeMeters>1239.5999755859375</AltitudeMeters>
            <DistanceMeters>15461.469944026</DistanceMeters>
          </Trackpoint>
          <Trackpoint>
            <Time>2023-02-23T11:32:52.000Z</Time>
            <Position>
              <LatitudeDegrees>41.5182125754654407501220703125</LatitudeDegrees>
              <LongitudeDegrees>-4.56073977984488010406494140625</LongitudeDegrees>
            </Position>
            <AltitudeMeters>1239.5999755859375</AltitudeMeters>
            <DistanceMeters>15468.915455378</DistanceMeters>
          </Trackpoint>
          <Trackpoint>
            <Time>2023-02-23T11:32:54.000Z</Time>
            <Position>
              <LatitudeDegrees>41.5181855857372283935546875</LatitudeDegrees>
              <LongitudeDegrees>-4.5606550388038158416748046875</LongitudeDegrees>
            </Position>
            <AltitudeMeters>1239.5999755859375</AltitudeMeters>
            <DistanceMeters>15476.589708343</DistanceMeters>
          </Trackpoint>
          <Trackpoint>
            <Time>2023-02-23T11:32:55.000Z</Time>
            <Position>
              <LatitudeDegrees>41.51817427016794681549072265625</LatitudeDegrees>
              <LongitudeDegrees>-4.56061556003987789154052734375</LongitudeDegrees>
            </Position>
            <AltitudeMeters>1239.5999755859375</AltitudeMeters>
            <DistanceMeters>15480.112111646</DistanceMeters>
          </Trackpoint>
          <Trackpoint>
            <Time>2023-02-23T11:32:56.000Z</Time>
            <Position>
              <LatitudeDegrees>41.51816605590283870697021484375</LatitudeDegrees>
              <LongitudeDegrees>-4.56057800911366939544677734375</LongitudeDegrees>
            </Position>
            <AltitudeMeters>1239.5999755859375</AltitudeMeters>
            <DistanceMeters>15483.372234339</DistanceMeters>
          </Trackpoint>
          <Trackpoint>
            <Time>2023-02-23T11:32:57.000Z</Time>
            <Position>
              <LatitudeDegrees>41.51815381832420825958251953125</LatitudeDegrees>
              <LongitudeDegrees>-4.56053844653069972991943359375</LongitudeDegrees>
            </Position>
            <AltitudeMeters>1239.5999755859375</AltitudeMeters>
            <DistanceMeters>15486.939218739</DistanceMeters>
          </Trackpoint>
          <Trackpoint>
            <Time>2023-02-23T11:32:59.000Z</Time>
            <Position>
              <LatitudeDegrees>41.5181190334260463714599609375</LatitudeDegrees>
              <LongitudeDegrees>-4.56045865081250667572021484375</LongitudeDegrees>
            </Position>
            <AltitudeMeters>1239.5999755859375</AltitudeMeters>
            <DistanceMeters>15494.634035907</DistanceMeters>
          </Trackpoint>
          <Trackpoint>
            <Time>2023-02-23T11:33:05.000Z</Time>
            <Position>
              <LatitudeDegrees>41.51801736094057559967041015625</LatitudeDegrees>
              <LongitudeDegrees>-4.5602305792272090911865234375</LongitudeDegrees>
            </Position>
            <AltitudeMeters>1240.199951171875</AltitudeMeters>
            <DistanceMeters>15516.754654848</DistanceMeters>
          </Trackpoint>
          <Trackpoint>
            <Time>2023-02-23T11:33:07.000Z</Time>
            <Position>
              <LatitudeDegrees>41.517984755337238311767578125</LatitudeDegrees>
              <LongitudeDegrees>-4.56015019677579402923583984375</LongitudeDegrees>
            </Position>
            <AltitudeMeters>1240.199951171875</AltitudeMeters>
            <DistanceMeters>15524.373403524</DistanceMeters>
          </Trackpoint>
          <Trackpoint>
            <Time>2023-02-23T11:33:11.000Z</Time>
            <Position>
              <LatitudeDegrees>41.51792499236762523651123046875</LatitudeDegrees>
              <LongitudeDegrees>-4.55999060533940792083740234375</LongitudeDegrees>
            </Position>
            <AltitudeMeters>1240.800048828125</AltitudeMeters>
            <DistanceMeters>15539.243793968</DistanceMeters>
          </Trackpoint>
          <Trackpoint>
            <Time>2023-02-23T11:33:18.000Z</Time>
            <Position>
              <LatitudeDegrees>41.51780764572322368621826171875</LatitudeDegrees>
              <LongitudeDegrees>-4.55971266143023967742919921875</LongitudeDegrees>
            </Position>
            <AltitudeMeters>1240.5999755859375</AltitudeMeters>
            <DistanceMeters>15565.835488087</DistanceMeters>
          </Trackpoint>
          <Trackpoint>
            <Time>2023-02-23T11:33:25.000Z</Time>
            <Position>
              <LatitudeDegrees>41.51768334209918975830078125</LatitudeDegrees>
              <LongitudeDegrees>-4.55941963009536266326904296875</LongitudeDegrees>
            </Position>
            <AltitudeMeters>1241</AltitudeMeters>
            <DistanceMeters>15593.902975843</DistanceMeters>
          </Trackpoint>
          <Trackpoint>
            <Time>2023-02-23T11:33:28.000Z</Time>
            <Position>
              <LatitudeDegrees>41.51763900183141231536865234375</LatitudeDegrees>
              <LongitudeDegrees>-4.5592941530048847198486328125</LongitudeDegrees>
            </Position>
            <AltitudeMeters>1241.199951171875</AltitudeMeters>
            <DistanceMeters>15605.466208173</DistanceMeters>
          </Trackpoint>
          <Trackpoint>
            <Time>2023-02-23T11:33:34.000Z</Time>
            <Position>
              <LatitudeDegrees>41.517551243305206298828125</LatitudeDegrees>
              <LongitudeDegrees>-4.559040181338787078857421875</LongitudeDegrees>
            </Position>
            <AltitudeMeters>1240.4000244140625</AltitudeMeters>
            <DistanceMeters>15628.776631162</DistanceMeters>
          </Trackpoint>
          <Trackpoint>
            <Time>2023-02-23T11:33:44.000Z</Time>
            <Position>
              <LatitudeDegrees>41.5173961780965328216552734375</LatitudeDegrees>
              <LongitudeDegrees>-4.55863759852945804595947265625</LongitudeDegrees>
            </Position>
            <AltitudeMeters>1241.4000244140625</AltitudeMeters>
            <DistanceMeters>15666.505946696</DistanceMeters>
          </Trackpoint>
          <Trackpoint>
            <Time>2023-02-23T11:33:46.000Z</Time>
            <Position>
              <LatitudeDegrees>41.51736508123576641082763671875</LatitudeDegrees>
              <LongitudeDegrees>-4.55855931155383586883544921875</LongitudeDegrees>
            </Position>
            <AltitudeMeters>1241.4000244140625</AltitudeMeters>
            <DistanceMeters>15673.892401994</DistanceMeters>
          </Trackpoint>
          <Trackpoint>
            <Time>2023-02-23T11:33:55.000Z</Time>
            <Position>
              <LatitudeDegrees>41.5172251872718334197998046875</LatitudeDegrees>
              <LongitudeDegrees>-4.5581827126443386077880859375</LongitudeDegrees>
            </Position>
            <AltitudeMeters>1242</AltitudeMeters>
            <DistanceMeters>15708.927502836</DistanceMeters>
          </Trackpoint>
          <Trackpoint>
            <Time>2023-02-23T11:34:01.000Z</Time>
            <Position>
              <LatitudeDegrees>41.5171262808144092559814453125</LatitudeDegrees>
              <LongitudeDegrees>-4.55792999826371669769287109375</LongitudeDegrees>
            </Position>
            <AltitudeMeters>1242.4000244140625</AltitudeMeters>
            <DistanceMeters>15732.69178235</DistanceMeters>
          </Trackpoint>
          <Trackpoint>
            <Time>2023-02-23T11:34:04.000Z</Time>
            <Position>
              <LatitudeDegrees>41.517082862555980682373046875</LatitudeDegrees>
              <LongitudeDegrees>-4.557805359363555908203125</LongitudeDegrees>
            </Position>
            <AltitudeMeters>1242.199951171875</AltitudeMeters>
            <DistanceMeters>15744.147921797</DistanceMeters>
          </Trackpoint>
          <Trackpoint>
            <Time>2023-02-23T11:34:13.000Z</Time>
            <Position>
              <LatitudeDegrees>41.51694213040173053741455078125</LatitudeDegrees>
              <LongitudeDegrees>-4.55745398998260498046875</LongitudeDegrees>
            </Position>
            <AltitudeMeters>1243.4000244140625</AltitudeMeters>
            <DistanceMeters>15777.356597559</DistanceMeters>
          </Trackpoint>
          <Trackpoint>
            <Time>2023-02-23T11:34:23.000Z</Time>
            <Position>
              <LatitudeDegrees>41.51680449955165386199951171875</LatitudeDegrees>
              <LongitudeDegrees>-4.55708895809948444366455078125</LongitudeDegrees>
            </Position>
            <AltitudeMeters>1243.800048828125</AltitudeMeters>
            <DistanceMeters>15811.417014188</DistanceMeters>
          </Trackpoint>
          <Trackpoint>
            <Time>2023-02-23T11:34:32.000Z</Time>
            <Position>
              <LatitudeDegrees>41.5166843868792057037353515625</LatitudeDegrees>
              <LongitudeDegrees>-4.55673390068113803863525390625</LongitudeDegrees>
            </Position>
            <AltitudeMeters>1244</AltitudeMeters>
            <DistanceMeters>15843.886823474</DistanceMeters>
          </Trackpoint>
          <Trackpoint>
            <Time>2023-02-23T11:34:39.000Z</Time>
            <Position>
              <LatitudeDegrees>41.51657466776669025421142578125</LatitudeDegrees>
              <LongitudeDegrees>-4.55645084381103515625</LongitudeDegrees>
            </Position>
            <AltitudeMeters>1244.4000244140625</AltitudeMeters>
            <DistanceMeters>15870.450147312</DistanceMeters>
          </Trackpoint>
          <Trackpoint>
            <Time>2023-02-23T11:34:45.000Z</Time>
            <Position>
              <LatitudeDegrees>41.516505517065525054931640625</LatitudeDegrees>
              <LongitudeDegrees>-4.55623970367014408111572265625</LongitudeDegrees>
            </Position>
            <AltitudeMeters>1245</AltitudeMeters>
            <DistanceMeters>15889.656125357</DistanceMeters>
          </Trackpoint>
          <Trackpoint>
            <Time>2023-02-23T11:34:49.000Z</Time>
            <Position>
              <LatitudeDegrees>41.51644944213330745697021484375</LatitudeDegrees>
              <LongitudeDegrees>-4.55610877834260463714599609375</LongitudeDegrees>
            </Position>
            <AltitudeMeters>1245.199951171875</AltitudeMeters>
            <DistanceMeters>15902.226259708</DistanceMeters>
          </Trackpoint>
          <Trackpoint>
            <Time>2023-02-23T11:34:50.000Z</Time>
            <Position>
              <LatitudeDegrees>41.51643720455467700958251953125</LatitudeDegrees>
              <LongitudeDegrees>-4.55607441253960132598876953125</LongitudeDegrees>
            </Position>
            <AltitudeMeters>1245.4000244140625</AltitudeMeters>
            <DistanceMeters>15905.396508134</DistanceMeters>
          </Trackpoint>
          <Trackpoint>
            <Time>2023-02-23T11:34:51.000Z</Time>
            <Position>
              <LatitudeDegrees>41.5164238773286342620849609375</LatitudeDegrees>
              <LongitudeDegrees>-4.55604004673659801483154296875</LongitudeDegrees>
            </Position>
            <AltitudeMeters>1245.5999755859375</AltitudeMeters>
            <DistanceMeters>15908.621821772</DistanceMeters>
          </Trackpoint>
          <Trackpoint>
            <Time>2023-02-23T11:34:55.000Z</Time>
            <Position>
              <LatitudeDegrees>41.51637383736670017242431640625</LatitudeDegrees>
              <LongitudeDegrees>-4.55589822493493556976318359375</LongitudeDegrees>
            </Position>
            <AltitudeMeters>1245.5999755859375</AltitudeMeters>
            <DistanceMeters>15921.687217484</DistanceMeters>
          </Trackpoint>
          <Trackpoint>
            <Time>2023-02-23T11:35:02.000Z</Time>
            <Position>
              <LatitudeDegrees>41.51627786457538604736328125</LatitudeDegrees>
              <LongitudeDegrees>-4.5556812174618244171142578125</LongitudeDegrees>
            </Position>
            <AltitudeMeters>1246.4000244140625</AltitudeMeters>
            <DistanceMeters>15942.691560959</DistanceMeters>
          </Trackpoint>
          <Trackpoint>
            <Time>2023-02-23T11:35:06.000Z</Time>
            <Position>
              <LatitudeDegrees>41.5162243880331516265869140625</LatitudeDegrees>
              <LongitudeDegrees>-4.5555528067052364349365234375</LongitudeDegrees>
            </Position>
            <AltitudeMeters>1246.4000244140625</AltitudeMeters>
            <DistanceMeters>15954.937109106</DistanceMeters>
          </Trackpoint>
          <Trackpoint>
            <Time>2023-02-23T11:35:07.000Z</Time>
            <Position>
              <LatitudeDegrees>41.516213156282901763916015625</LatitudeDegrees>
              <LongitudeDegrees>-4.55552003346383571624755859375</LongitudeDegrees>
            </Position>
            <AltitudeMeters>1246.4000244140625</AltitudeMeters>
            <DistanceMeters>15957.940614786</DistanceMeters>
          </Trackpoint>
          <Trackpoint>
            <Time>2023-02-23T11:35:08.000Z</Time>
            <Position>
              <LatitudeDegrees>41.5161995775997638702392578125</LatitudeDegrees>
              <LongitudeDegrees>-4.55548751167953014373779296875</LongitudeDegrees>
            </Position>
            <AltitudeMeters>1246.5999755859375</AltitudeMeters>
            <DistanceMeters>15961.0461134</DistanceMeters>
          </Trackpoint>
          <Trackpoint>
            <Time>2023-02-23T11:35:10.000Z</Time>
            <Position>
              <LatitudeDegrees>41.51618004776537418365478515625</LatitudeDegrees>
              <LongitudeDegrees>-4.5554207079112529754638671875</LongitudeDegrees>
            </Position>
            <AltitudeMeters>1246.800048828125</AltitudeMeters>
            <DistanceMeters>15967.023739391</DistanceMeters>
          </Trackpoint>
          <Trackpoint>
            <Time>2023-02-23T11:35:14.000Z</Time>
            <Position>
              <LatitudeDegrees>41.51614283211529254913330078125</LatitudeDegrees>
              <LongitudeDegrees>-4.555289112031459808349609375</LongitudeDegrees>
            </Position>
            <AltitudeMeters>1247.5999755859375</AltitudeMeters>
            <DistanceMeters>15978.747124716</DistanceMeters>
          </Trackpoint>
          <Trackpoint>
            <Time>2023-02-23T11:35:17.000Z</Time>
            <Position>
              <LatitudeDegrees>41.516103185713291168212890625</LatitudeDegrees>
              <LongitudeDegrees>-4.55518559552729129791259765625</LongitudeDegrees>
            </Position>
            <AltitudeMeters>1248</AltitudeMeters>
            <DistanceMeters>15988.437054275</DistanceMeters>
          </Trackpoint>
          <Trackpoint>
            <Time>2023-02-23T11:35:19.000Z</Time>
            <Position>
              <LatitudeDegrees>41.51607359759509563446044921875</LatitudeDegrees>
              <LongitudeDegrees>-4.555119462311267852783203125</LongitudeDegrees>
            </Position>
            <AltitudeMeters>1248</AltitudeMeters>
            <DistanceMeters>15994.856810415</DistanceMeters>
          </Trackpoint>
          <Trackpoint>
            <Time>2023-02-23T11:35:28.000Z</Time>
            <Position>
              <LatitudeDegrees>41.5159571729600429534912109375</LatitudeDegrees>
              <LongitudeDegrees>-4.55481645651161670684814453125</LongitudeDegrees>
            </Position>
            <AltitudeMeters>1248.800048828125</AltitudeMeters>
            <DistanceMeters>16023.23990767</DistanceMeters>
          </Trackpoint>
          <Trackpoint>
            <Time>2023-02-23T11:35:36.000Z</Time>
            <Position>
              <LatitudeDegrees>41.515866480767726898193359375</LatitudeDegrees>
              <LongitudeDegrees>-4.5545392669737339019775390625</LongitudeDegrees>
            </Position>
            <AltitudeMeters>1249.800048828125</AltitudeMeters>
            <DistanceMeters>16048.449762491</DistanceMeters>
          </Trackpoint>
          <Trackpoint>
            <Time>2023-02-23T11:35:39.000Z</Time>
            <Position>
              <LatitudeDegrees>41.515826918184757232666015625</LatitudeDegrees>
              <LongitudeDegrees>-4.55445050261914730072021484375</LongitudeDegrees>
            </Position>
            <AltitudeMeters>1249.800048828125</AltitudeMeters>
            <DistanceMeters>16057.058469559</DistanceMeters>
          </Trackpoint>
          <Trackpoint>
            <Time>2023-02-23T11:35:41.000Z</Time>
            <Position>
              <LatitudeDegrees>41.51580302976071834564208984375</LatitudeDegrees>
              <LongitudeDegrees>-4.55439283512532711029052734375</LongitudeDegrees>
            </Position>
            <AltitudeMeters>1250</AltitudeMeters>
            <DistanceMeters>16062.551967122</DistanceMeters>
          </Trackpoint>
          <Trackpoint>
            <Time>2023-02-23T11:35:47.000Z</Time>
            <Position>
              <LatitudeDegrees>41.5157295204699039459228515625</LatitudeDegrees>
              <LongitudeDegrees>-4.55421245656907558441162109375</LongitudeDegrees>
            </Position>
            <AltitudeMeters>1250.4000244140625</AltitudeMeters>
            <DistanceMeters>16079.667330976</DistanceMeters>
          </Trackpoint>
          <Trackpoint>
            <Time>2023-02-23T11:35:53.000Z</Time>
            <Position>
              <LatitudeDegrees>41.51565399952232837677001953125</LatitudeDegrees>
              <LongitudeDegrees>-4.55403040163218975067138671875</LongitudeDegrees>
            </Position>
            <AltitudeMeters>1251</AltitudeMeters>
            <DistanceMeters>16097.012765158</DistanceMeters>
          </Trackpoint>
          <Trackpoint>
            <Time>2023-02-23T11:35:55.000Z</Time>
            <Position>
              <LatitudeDegrees>41.51562969200313091278076171875</LatitudeDegrees>
              <LongitudeDegrees>-4.553975164890289306640625</LongitudeDegrees>
            </Position>
            <AltitudeMeters>1251.5999755859375</AltitudeMeters>
            <DistanceMeters>16102.352894502</DistanceMeters>
          </Trackpoint>
          <Trackpoint>
            <Time>2023-02-23T11:36:04.000Z</Time>
            <Position>
              <LatitudeDegrees>41.51552760042250156402587890625</LatitudeDegrees>
              <LongitudeDegrees>-4.5536973886191844940185546875</LongitudeDegrees>
            </Position>
            <AltitudeMeters>1252</AltitudeMeters>
            <DistanceMeters>16128.141050888</DistanceMeters>
          </Trackpoint>
          <Trackpoint>
            <Time>2023-02-23T11:36:06.000Z</Time>
            <Position>
              <LatitudeDegrees>41.51550329290330410003662109375</LatitudeDegrees>
              <LongitudeDegrees>-4.55363376997411251068115234375</LongitudeDegrees>
            </Position>
            <AltitudeMeters>1252.4000244140625</AltitudeMeters>
            <DistanceMeters>16134.093699035</DistanceMeters>
          </Trackpoint>
          <Trackpoint>
            <Time>2023-02-23T11:36:11.000Z</Time>
            <Position>
              <LatitudeDegrees>41.5154462121427059173583984375</LatitudeDegrees>
              <LongitudeDegrees>-4.5534670539200305938720703125</LongitudeDegrees>
            </Position>
            <AltitudeMeters>1252.4000244140625</AltitudeMeters>
            <DistanceMeters>16149.371441536</DistanceMeters>
          </Trackpoint>
          <Trackpoint>
            <Time>2023-02-23T11:36:12.000Z</Time>
            <Position>
              <LatitudeDegrees>41.5154351480305194854736328125</LatitudeDegrees>
              <LongitudeDegrees>-4.55343143083155155181884765625</LongitudeDegrees>
            </Position>
            <AltitudeMeters>1252.4000244140625</AltitudeMeters>
            <DistanceMeters>16152.585536658</DistanceMeters>
          </Trackpoint>
          <Trackpoint>
            <Time>2023-02-23T11:36:13.000Z</Time>
            <Position>
              <LatitudeDegrees>41.51542383246123790740966796875</LatitudeDegrees>
              <LongitudeDegrees>-4.55339622683823108673095703125</LongitudeDegrees>
            </Position>
            <AltitudeMeters>1252.4000244140625</AltitudeMeters>
            <DistanceMeters>16155.778490824</DistanceMeters>
          </Trackpoint>
          <Trackpoint>
            <Time>2023-02-23T11:36:15.000Z</Time>
            <Position>
              <LatitudeDegrees>41.51540002785623073577880859375</LatitudeDegrees>
              <LongitudeDegrees>-4.553325064480304718017578125</LongitudeDegrees>
            </Position>
            <AltitudeMeters>1253.4000244140625</AltitudeMeters>
            <DistanceMeters>16162.274454742</DistanceMeters>
          </Trackpoint>
          <Trackpoint>
            <Time>2023-02-23T11:36:17.000Z</Time>
            <Position>
              <LatitudeDegrees>41.51537454687058925628662109375</LatitudeDegrees>
              <LongitudeDegrees>-4.55325088463723659515380859375</LongitudeDegrees>
            </Position>
            <AltitudeMeters>1253.800048828125</AltitudeMeters>
            <DistanceMeters>16169.076004684</DistanceMeters>
          </Trackpoint>
          <Trackpoint>
            <Time>2023-02-23T11:36:22.000Z</Time>
            <Position>
              <LatitudeDegrees>41.51529751718044281005859375</LatitudeDegrees>
              <LongitudeDegrees>-4.5530663989484310150146484375</LongitudeDegrees>
            </Position>
            <AltitudeMeters>1254.199951171875</AltitudeMeters>
            <DistanceMeters>16186.680328686</DistanceMeters>
          </Trackpoint>
          <Trackpoint>
            <Time>2023-02-23T11:36:25.000Z</Time>
            <Position>
              <LatitudeDegrees>41.515249572694301605224609375</LatitudeDegrees>
              <LongitudeDegrees>-4.5529547519981861114501953125</LongitudeDegrees>
            </Position>
            <AltitudeMeters>1254.4000244140625</AltitudeMeters>
            <DistanceMeters>16197.406146785</DistanceMeters>
          </Trackpoint>
          <Trackpoint>
            <Time>2023-02-23T11:36:27.000Z</Time>
            <Position>
              <LatitudeDegrees>41.515217721462249755859375</LatitudeDegrees>
              <LongitudeDegrees>-4.55288174562156200408935546875</LongitudeDegrees>
            </Position>
            <AltitudeMeters>1254.4000244140625</AltitudeMeters>
            <DistanceMeters>16204.447748148</DistanceMeters>
          </Trackpoint>
          <Trackpoint>
            <Time>2023-02-23T11:36:33.000Z</Time>
            <Position>
              <LatitudeDegrees>41.51513348333537578582763671875</LatitudeDegrees>
              <LongitudeDegrees>-4.5526670850813388824462890625</LongitudeDegrees>
            </Position>
            <AltitudeMeters>1254.5999755859375</AltitudeMeters>
            <DistanceMeters>16224.645787498</DistanceMeters>
          </Trackpoint>
          <Trackpoint>
            <Time>2023-02-23T11:36:42.000Z</Time>
            <Position>
              <LatitudeDegrees>41.515016220510005950927734375</LatitudeDegrees>
              <LongitudeDegrees>-4.55234597437083721160888671875</LongitudeDegrees>
            </Position>
            <AltitudeMeters>1255</AltitudeMeters>
            <DistanceMeters>16254.420555087</DistanceMeters>
          </Trackpoint>
          <Trackpoint>
            <Time>2023-02-23T11:36:45.000Z</Time>
            <Position>
              <LatitudeDegrees>41.51497774757444858551025390625</LatitudeDegrees>
              <LongitudeDegrees>-4.55224254168570041656494140625</LongitudeDegrees>
            </Position>
            <AltitudeMeters>1255</AltitudeMeters>
            <DistanceMeters>16264.045968549</DistanceMeters>
          </Trackpoint>
          <Trackpoint>
            <Time>2023-02-23T11:36:48.000Z</Time>
            <Position>
              <LatitudeDegrees>41.5149449743330478668212890625</LatitudeDegrees>
              <LongitudeDegrees>-4.55213374458253383636474609375</LongitudeDegrees>
            </Position>
            <AltitudeMeters>1255.4000244140625</AltitudeMeters>
            <DistanceMeters>16273.81987149</DistanceMeters>
          </Trackpoint>
          <Trackpoint>
            <Time>2023-02-23T11:36:52.000Z</Time>
            <Position>
              <LatitudeDegrees>41.5148946829140186309814453125</LatitudeDegrees>
              <LongitudeDegrees>-4.55198706127703189849853515625</LongitudeDegrees>
            </Position>
            <AltitudeMeters>1255.5999755859375</AltitudeMeters>
            <DistanceMeters>16287.264724418</DistanceMeters>
          </Trackpoint>
          <Trackpoint>
            <Time>2023-02-23T11:36:57.000Z</Time>
            <Position>
              <LatitudeDegrees>41.51482544839382171630859375</LatitudeDegrees>
              <LongitudeDegrees>-4.55179410986602306365966796875</LongitudeDegrees>
            </Position>
            <AltitudeMeters>1255.5999755859375</AltitudeMeters>
            <DistanceMeters>16305.096355071</DistanceMeters>
          </Trackpoint>
          <Trackpoint>
            <Time>2023-02-23T11:36:59.000Z</Time>
            <Position>
              <LatitudeDegrees>41.5147917531430721282958984375</LatitudeDegrees>
              <LongitudeDegrees>-4.55171816982328891754150390625</LongitudeDegrees>
            </Position>
            <AltitudeMeters>1255.5999755859375</AltitudeMeters>
            <DistanceMeters>16312.453411425</DistanceMeters>
          </Trackpoint>
          <Trackpoint>
            <Time>2023-02-23T11:37:00.000Z</Time>
            <Position>
              <LatitudeDegrees>41.51477624662220478057861328125</LatitudeDegrees>
              <LongitudeDegrees>-4.55167827196419239044189453125</LongitudeDegrees>
            </Position>
            <AltitudeMeters>1255.800048828125</AltitudeMeters>
            <DistanceMeters>16316.200646255</DistanceMeters>
          </Trackpoint>
          <Trackpoint>
            <Time>2023-02-23T11:37:06.000Z</Time>
            <Position>
              <LatitudeDegrees>41.51467683725059032440185546875</LatitudeDegrees>
              <LongitudeDegrees>-4.55142865888774394989013671875</LongitudeDegrees>
            </Position>
            <AltitudeMeters>1255.800048828125</AltitudeMeters>
            <DistanceMeters>16339.763056147</DistanceMeters>
          </Trackpoint>
          <Trackpoint>
            <Time>2023-02-23T11:37:12.000Z</Time>
            <Position>
              <LatitudeDegrees>41.51459268294274806976318359375</LatitudeDegrees>
              <LongitudeDegrees>-4.55118541605770587921142578125</LongitudeDegrees>
            </Position>
            <AltitudeMeters>1256.4000244140625</AltitudeMeters>
            <DistanceMeters>16362.094536208</DistanceMeters>
          </Trackpoint>
          <Trackpoint>
            <Time>2023-02-23T11:37:15.000Z</Time>
            <Position>
              <LatitudeDegrees>41.514556892216205596923828125</LatitudeDegrees>
              <LongitudeDegrees>-4.5510609447956085205078125</LongitudeDegrees>
            </Position>
            <AltitudeMeters>1256.4000244140625</AltitudeMeters>
            <DistanceMeters>16373.206568664</DistanceMeters>
          </Trackpoint>
          <Trackpoint>
            <Time>2023-02-23T11:37:20.000Z</Time>
            <Position>
              <LatitudeDegrees>41.5144841372966766357421875</LatitudeDegrees>
              <LongitudeDegrees>-4.55085575580596923828125</LongitudeDegrees>
            </Position>
            <AltitudeMeters>1256.5999755859375</AltitudeMeters>
            <DistanceMeters>16392.127625999</DistanceMeters>
          </Trackpoint>
          <Trackpoint>
            <Time>2023-02-23T11:37:24.000Z</Time>
            <Position>
              <LatitudeDegrees>41.51442169211804866790771484375</LatitudeDegrees>
              <LongitudeDegrees>-4.55068736337125301361083984375</LongitudeDegrees>
            </Position>
            <AltitudeMeters>1256.5999755859375</AltitudeMeters>
            <DistanceMeters>16407.788593603</DistanceMeters>
          </Trackpoint>
          <Trackpoint>
            <Time>2023-02-23T11:37:34.000Z</Time>
            <Position>
              <LatitudeDegrees>41.514269225299358367919921875</LatitudeDegrees>
              <LongitudeDegrees>-4.55025552771985530853271484375</LongitudeDegrees>
            </Position>
            <AltitudeMeters>1256.5999755859375</AltitudeMeters>
            <DistanceMeters>16447.578697059</DistanceMeters>
          </Trackpoint>
          <Trackpoint>
            <Time>2023-02-23T11:37:39.000Z</Time>
            <Position>
              <LatitudeDegrees>41.51419001631438732147216796875</LatitudeDegrees>
              <LongitudeDegrees>-4.550058804452419281005859375</LongitudeDegrees>
            </Position>
            <AltitudeMeters>1256.800048828125</AltitudeMeters>
            <DistanceMeters>16466.193991403</DistanceMeters>
          </Trackpoint>
          <Trackpoint>
            <Time>2023-02-23T11:37:45.000Z</Time>
            <Position>
              <LatitudeDegrees>41.51409848593175411224365234375</LatitudeDegrees>
              <LongitudeDegrees>-4.54983358271420001983642578125</LongitudeDegrees>
            </Position>
            <AltitudeMeters>1257.5999755859375</AltitudeMeters>
            <DistanceMeters>16487.550915135</DistanceMeters>
          </Trackpoint>
          <Trackpoint>
            <Time>2023-02-23T11:37:46.000Z</Time>
            <Position>
              <LatitudeDegrees>41.5140843205153942108154296875</LatitudeDegrees>
              <LongitudeDegrees>-4.5497954450547695159912109375</LongitudeDegrees>
            </Position>
            <AltitudeMeters>1257.4000244140625</AltitudeMeters>
            <DistanceMeters>16491.100134294</DistanceMeters>
          </Trackpoint>
          <Trackpoint>
            <Time>2023-02-23T11:37:49.000Z</Time>
            <Position>
              <LatitudeDegrees>41.51403528638184070587158203125</LatitudeDegrees>
              <LongitudeDegrees>-4.54969041980803012847900390625</LongitudeDegrees>
            </Position>
            <AltitudeMeters>1257.4000244140625</AltitudeMeters>
            <DistanceMeters>16501.415239273</DistanceMeters>
          </Trackpoint>
          <Trackpoint>
            <Time>2023-02-23T11:37:53.000Z</Time>
            <Position>
              <LatitudeDegrees>41.51397577486932277679443359375</LatitudeDegrees>
              <LongitudeDegrees>-4.5495401322841644287109375</LongitudeDegrees>
            </Position>
            <AltitudeMeters>1257</AltitudeMeters>
            <DistanceMeters>16515.584101595</DistanceMeters>
          </Trackpoint>
          <Trackpoint>
            <Time>2023-02-23T11:37:58.000Z</Time>
            <Position>
              <LatitudeDegrees>41.513905785977840423583984375</LatitudeDegrees>
              <LongitudeDegrees>-4.54933569766581058502197265625</LongitudeDegrees>
            </Position>
            <AltitudeMeters>1258</AltitudeMeters>
            <DistanceMeters>16534.318588811</DistanceMeters>
          </Trackpoint>
          <Trackpoint>
            <Time>2023-02-23T11:38:00.000Z</Time>
            <Position>
              <LatitudeDegrees>41.51387401856482028961181640625</LatitudeDegrees>
              <LongitudeDegrees>-4.549259506165981292724609375</LongitudeDegrees>
            </Position>
            <AltitudeMeters>1258.199951171875</AltitudeMeters>
            <DistanceMeters>16541.586734874</DistanceMeters>
          </Trackpoint>
          <Trackpoint>
            <Time>2023-02-23T11:38:06.000Z</Time>
            <Position>
              <LatitudeDegrees>41.51378533802926540374755859375</LatitudeDegrees>
              <LongitudeDegrees>-4.549026824533939361572265625</LongitudeDegrees>
            </Position>
            <AltitudeMeters>1258.5999755859375</AltitudeMeters>
            <DistanceMeters>16563.346400043</DistanceMeters>
          </Trackpoint>
          <Trackpoint>
            <Time>2023-02-23T11:38:07.000Z</Time>
            <Position>
              <LatitudeDegrees>41.51377075351774692535400390625</LatitudeDegrees>
              <LongitudeDegrees>-4.548987932503223419189453125</LongitudeDegrees>
            </Position>
            <AltitudeMeters>1258.5999755859375</AltitudeMeters>
            <DistanceMeters>16566.971142961</DistanceMeters>
          </Trackpoint>
          <Trackpoint>
            <Time>2023-02-23T11:38:12.000Z</Time>
            <Position>
              <LatitudeDegrees>41.513692550361156463623046875</LatitudeDegrees>
              <LongitudeDegrees>-4.54879154451191425323486328125</LongitudeDegrees>
            </Position>
            <AltitudeMeters>1259</AltitudeMeters>
            <DistanceMeters>16585.509147688</DistanceMeters>
          </Trackpoint>
          <Trackpoint>
            <Time>2023-02-23T11:38:15.000Z</Time>
            <Position>
              <LatitudeDegrees>41.51364351622760295867919921875</LatitudeDegrees>
              <LongitudeDegrees>-4.54868358559906482696533203125</LongitudeDegrees>
            </Position>
            <AltitudeMeters>1259.4000244140625</AltitudeMeters>
            <DistanceMeters>16596.032256897</DistanceMeters>
          </Trackpoint>
          <Trackpoint>
            <Time>2023-02-23T11:38:17.000Z</Time>
            <Position>
              <LatitudeDegrees>41.51362113654613494873046875</LatitudeDegrees>
              <LongitudeDegrees>-4.5486075617372989654541015625</LongitudeDegrees>
            </Position>
            <AltitudeMeters>1259.5999755859375</AltitudeMeters>
            <DistanceMeters>16602.840441852</DistanceMeters>
          </Trackpoint>
          <Trackpoint>
            <Time>2023-02-23T11:38:22.000Z</Time>
            <Position>
              <LatitudeDegrees>41.51357025839388370513916015625</LatitudeDegrees>
              <LongitudeDegrees>-4.54842726700007915496826171875</LongitudeDegrees>
            </Position>
            <AltitudeMeters>1260</AltitudeMeters>
            <DistanceMeters>16618.898550799</DistanceMeters>
          </Trackpoint>
          <Trackpoint>
            <Time>2023-02-23T11:38:25.000Z</Time>
            <Position>
              <LatitudeDegrees>41.51352667249739170074462890625</LatitudeDegrees>
              <LongitudeDegrees>-4.54832333140075206756591796875</LongitudeDegrees>
            </Position>
            <AltitudeMeters>1259.800048828125</AltitudeMeters>
            <DistanceMeters>16628.826909901</DistanceMeters>
          </Trackpoint>
          <Trackpoint>
            <Time>2023-02-23T11:38:26.000Z</Time>
            <Position>
              <LatitudeDegrees>41.51351141743361949920654296875</LatitudeDegrees>
              <LongitudeDegrees>-4.5482893846929073333740234375</LongitudeDegrees>
            </Position>
            <AltitudeMeters>1259.800048828125</AltitudeMeters>
            <DistanceMeters>16632.126951142</DistanceMeters>
          </Trackpoint>
          <Trackpoint>
            <Time>2023-02-23T11:38:30.000Z</Time>
            <Position>
              <LatitudeDegrees>41.51344872079789638519287109375</LatitudeDegrees>
              <LongitudeDegrees>-4.54815200529992580413818359375</LongitudeDegrees>
            </Position>
            <AltitudeMeters>1260.199951171875</AltitudeMeters>
            <DistanceMeters>16645.536159998</DistanceMeters>
          </Trackpoint>
          <Trackpoint>
            <Time>2023-02-23T11:38:35.000Z</Time>
            <Position>
              <LatitudeDegrees>41.51338300667703151702880859375</LatitudeDegrees>
              <LongitudeDegrees>-4.547977745532989501953125</LongitudeDegrees>
            </Position>
            <AltitudeMeters>1260.5999755859375</AltitudeMeters>
            <DistanceMeters>16661.797116256</DistanceMeters>
          </Trackpoint>
          <Trackpoint>
            <Time>2023-02-23T11:38:38.000Z</Time>
            <Position>
              <LatitudeDegrees>41.51334143243730068206787109375</LatitudeDegrees>
              <LongitudeDegrees>-4.54786903224885463714599609375</LongitudeDegrees>
            </Position>
            <AltitudeMeters>1260.800048828125</AltitudeMeters>
            <DistanceMeters>16671.970745707</DistanceMeters>
          </Trackpoint>
          <Trackpoint>
            <Time>2023-02-23T11:38:45.000Z</Time>
            <Position>
              <LatitudeDegrees>41.51325233280658721923828125</LatitudeDegrees>
              <LongitudeDegrees>-4.547620005905628204345703125</LongitudeDegrees>
            </Position>
            <AltitudeMeters>1260.5999755859375</AltitudeMeters>
            <DistanceMeters>16694.972707341</DistanceMeters>
          </Trackpoint>
          <Trackpoint>
            <Time>2023-02-23T11:38:48.000Z</Time>
            <Position>
              <LatitudeDegrees>41.51321117766201496124267578125</LatitudeDegrees>
              <LongitudeDegrees>-4.5475132204592227935791015625</LongitudeDegrees>
            </Position>
            <AltitudeMeters>1260.5999755859375</AltitudeMeters>
            <DistanceMeters>16704.98258887</DistanceMeters>
          </Trackpoint>
          <Trackpoint>
            <Time>2023-02-23T11:38:58.000Z</Time>
            <Position>
              <LatitudeDegrees>41.51308226399123668670654296875</LatitudeDegrees>
              <LongitudeDegrees>-4.54717182554304599761962890625</LongitudeDegrees>
            </Position>
            <AltitudeMeters>1261.5999755859375</AltitudeMeters>
            <DistanceMeters>16736.848717538</DistanceMeters>
          </Trackpoint>
          <Trackpoint>
            <Time>2023-02-23T11:39:00.000Z</Time>
            <Position>
              <LatitudeDegrees>41.5130647458136081695556640625</LatitudeDegrees>
              <LongitudeDegrees>-4.54711298458278179168701171875</LongitudeDegrees>
            </Position>
            <AltitudeMeters>1261.800048828125</AltitudeMeters>
            <DistanceMeters>16742.125053925</DistanceMeters>
          </Trackpoint>
          <Trackpoint>
            <Time>2023-02-23T11:39:05.000Z</Time>
            <Position>
              <LatitudeDegrees>41.51301068253815174102783203125</LatitudeDegrees>
              <LongitudeDegrees>-4.5469652116298675537109375</LongitudeDegrees>
            </Position>
            <AltitudeMeters>1262</AltitudeMeters>
            <DistanceMeters>16755.8323075</DistanceMeters>
          </Trackpoint>
          <Trackpoint>
            <Time>2023-02-23T11:39:08.000Z</Time>
            <Position>
              <LatitudeDegrees>41.51297933422029018402099609375</LatitudeDegrees>
              <LongitudeDegrees>-4.54687175340950489044189453125</LongitudeDegrees>
            </Position>
            <AltitudeMeters>1262.4000244140625</AltitudeMeters>
            <DistanceMeters>16764.367272449</DistanceMeters>
          </Trackpoint>
          <Trackpoint>
            <Time>2023-02-23T11:39:13.000Z</Time>
            <Position>
              <LatitudeDegrees>41.51292015798389911651611328125</LatitudeDegrees>
              <LongitudeDegrees>-4.5467197895050048828125</LongitudeDegrees>
            </Position>
            <AltitudeMeters>1262.5999755859375</AltitudeMeters>
            <DistanceMeters>16778.642486462</DistanceMeters>
          </Trackpoint>
          <Trackpoint>
            <Time>2023-02-23T11:39:16.000Z</Time>
            <Position>
              <LatitudeDegrees>41.5128909051418304443359375</LatitudeDegrees>
              <LongitudeDegrees>-4.54662146978080272674560546875</LongitudeDegrees>
            </Position>
            <AltitudeMeters>1262.800048828125</AltitudeMeters>
            <DistanceMeters>16787.46002343</DistanceMeters>
          </Trackpoint>
          <Trackpoint>
            <Time>2023-02-23T11:39:17.000Z</Time>
            <Position>
              <LatitudeDegrees>41.51288026012480258941650390625</LatitudeDegrees>
              <LongitudeDegrees>-4.54658794216811656951904296875</LongitudeDegrees>
            </Position>
            <AltitudeMeters>1263</AltitudeMeters>
            <DistanceMeters>16790.496420645</DistanceMeters>
          </Trackpoint>
          <Trackpoint>
            <Time>2023-02-23T11:39:26.000Z</Time>
            <Position>
              <LatitudeDegrees>41.51275889016687870025634765625</LatitudeDegrees>
              <LongitudeDegrees>-4.54629608429968357086181640625</LongitudeDegrees>
            </Position>
            <AltitudeMeters>1263</AltitudeMeters>
            <DistanceMeters>16818.320268576</DistanceMeters>
          </Trackpoint>
          <Trackpoint>
            <Time>2023-02-23T11:39:33.000Z</Time>
            <Position>
              <LatitudeDegrees>41.5126738138496875762939453125</LatitudeDegrees>
              <LongitudeDegrees>-4.54606977291405200958251953125</LongitudeDegrees>
            </Position>
            <AltitudeMeters>1263.800048828125</AltitudeMeters>
            <DistanceMeters>16839.425186266</DistanceMeters>
          </Trackpoint>
          <Trackpoint>
            <Time>2023-02-23T11:39:42.000Z</Time>
            <Position>
              <LatitudeDegrees>41.51256761513650417327880859375</LatitudeDegrees>
              <LongitudeDegrees>-4.54577322117984294891357421875</LongitudeDegrees>
            </Position>
            <AltitudeMeters>1264.4000244140625</AltitudeMeters>
            <DistanceMeters>16866.82206536</DistanceMeters>
          </Trackpoint>
          <Trackpoint>
            <Time>2023-02-23T11:39:47.000Z</Time>
            <Position>
              <LatitudeDegrees>41.5125098638236522674560546875</LatitudeDegrees>
              <LongitudeDegrees>-4.54561379738152027130126953125</LongitudeDegrees>
            </Position>
            <AltitudeMeters>1265.199951171875</AltitudeMeters>
            <DistanceMeters>16881.582133933</DistanceMeters>
          </Trackpoint>
          <Trackpoint>
            <Time>2023-02-23T11:39:53.000Z</Time>
            <Position>
              <LatitudeDegrees>41.51244767010211944580078125</LatitudeDegrees>
              <LongitudeDegrees>-4.545421265065670013427734375</LongitudeDegrees>
            </Position>
            <AltitudeMeters>1265.5999755859375</AltitudeMeters>
            <DistanceMeters>16899.058009173</DistanceMeters>
          </Trackpoint>
          <Trackpoint>
            <Time>2023-02-23T11:40:00.000Z</Time>
            <Position>
              <LatitudeDegrees>41.51236846111714839935302734375</LatitudeDegrees>
              <LongitudeDegrees>-4.54519386403262615203857421875</LongitudeDegrees>
            </Position>
            <AltitudeMeters>1265.800048828125</AltitudeMeters>
            <DistanceMeters>16919.960430532</DistanceMeters>
          </Trackpoint>
          <Trackpoint>
            <Time>2023-02-23T11:40:03.000Z</Time>
            <Position>
              <LatitudeDegrees>41.5123330056667327880859375</LatitudeDegrees>
              <LongitudeDegrees>-4.5450918562710285186767578125</LongitudeDegrees>
            </Position>
            <AltitudeMeters>1266</AltitudeMeters>
            <DistanceMeters>16929.33345639</DistanceMeters>
          </Trackpoint>
          <Trackpoint>
            <Time>2023-02-23T11:40:06.000Z</Time>
            <Position>
              <LatitudeDegrees>41.512295790016651153564453125</LatitudeDegrees>
              <LongitudeDegrees>-4.544992782175540924072265625</LongitudeDegrees>
            </Position>
            <AltitudeMeters>1266.199951171875</AltitudeMeters>
            <DistanceMeters>16938.572086296</DistanceMeters>
          </Trackpoint>
          <Trackpoint>
            <Time>2023-02-23T11:40:07.000Z</Time>
            <Position>
              <LatitudeDegrees>41.512283720076084136962890625</LatitudeDegrees>
              <LongitudeDegrees>-4.54495967365801334381103515625</LongitudeDegrees>
            </Position>
            <AltitudeMeters>1266.199951171875</AltitudeMeters>
            <DistanceMeters>16941.639550991</DistanceMeters>
          </Trackpoint>
          <Trackpoint>
            <Time>2023-02-23T11:40:10.000Z</Time>
            <Position>
              <LatitudeDegrees>41.51224650442600250244140625</LatitudeDegrees>
              <LongitudeDegrees>-4.54486194066703319549560546875</LongitudeDegrees>
            </Position>
            <AltitudeMeters>1266.5999755859375</AltitudeMeters>
            <DistanceMeters>16950.777939632</DistanceMeters>
          </Trackpoint>
          <Trackpoint>
            <Time>2023-02-23T11:40:19.000Z</Time>
            <Position>
              <LatitudeDegrees>41.51212312281131744384765625</LatitudeDegrees>
              <LongitudeDegrees>-4.544565975666046142578125</LongitudeDegrees>
            </Position>
            <AltitudeMeters>1267.199951171875</AltitudeMeters>
            <DistanceMeters>16979.009991052</DistanceMeters>
          </Trackpoint>
          <Trackpoint>
            <Time>2023-02-23T11:40:20.000Z</Time>
            <Position>
              <LatitudeDegrees>41.512112058699131011962890625</LatitudeDegrees>
              <LongitudeDegrees>-4.5445351302623748779296875</LongitudeDegrees>
            </Position>
            <AltitudeMeters>1267.199951171875</AltitudeMeters>
            <DistanceMeters>16981.859208265</DistanceMeters>
          </Trackpoint>
          <Trackpoint>
            <Time>2023-02-23T11:40:29.000Z</Time>
            <Position>
              <LatitudeDegrees>41.51200334541499614715576171875</LatitudeDegrees>
              <LongitudeDegrees>-4.54425416886806488037109375</LongitudeDegrees>
            </Position>
            <AltitudeMeters>1267.800048828125</AltitudeMeters>
            <DistanceMeters>17008.217261899</DistanceMeters>
          </Trackpoint>
          <Trackpoint>
            <Time>2023-02-23T11:40:35.000Z</Time>
            <Position>
              <LatitudeDegrees>41.51193813420832157135009765625</LatitudeDegrees>
              <LongitudeDegrees>-4.54406775534152984619140625</LongitudeDegrees>
            </Position>
            <AltitudeMeters>1268.199951171875</AltitudeMeters>
            <DistanceMeters>17025.365832378</DistanceMeters>
          </Trackpoint>
          <Trackpoint>
            <Time>2023-02-23T11:40:38.000Z</Time>
            <Position>
              <LatitudeDegrees>41.51189672760665416717529296875</LatitudeDegrees>
              <LongitudeDegrees>-4.54397982917726039886474609375</LongitudeDegrees>
            </Position>
            <AltitudeMeters>1268.5999755859375</AltitudeMeters>
            <DistanceMeters>17034.023178073</DistanceMeters>
          </Trackpoint>
          <Trackpoint>
            <Time>2023-02-23T11:40:43.000Z</Time>
            <Position>
              <LatitudeDegrees>41.51183688081800937652587890625</LatitudeDegrees>
              <LongitudeDegrees>-4.54382442869246006011962890625</LongitudeDegrees>
            </Position>
            <AltitudeMeters>1268.800048828125</AltitudeMeters>
            <DistanceMeters>17048.588017784</DistanceMeters>
          </Trackpoint>
          <Trackpoint>
            <Time>2023-02-23T11:40:48.000Z</Time>
            <Position>
              <LatitudeDegrees>41.51178524829447269439697265625</LatitudeDegrees>
              <LongitudeDegrees>-4.54366743564605712890625</LongitudeDegrees>
            </Position>
            <AltitudeMeters>1268.800048828125</AltitudeMeters>
            <DistanceMeters>17062.878721366</DistanceMeters>
          </Trackpoint>
          <Trackpoint>
            <Time>2023-02-23T11:40:54.000Z</Time>
            <Position>
              <LatitudeDegrees>41.51169807650148868560791015625</LatitudeDegrees>
              <LongitudeDegrees>-4.54349510371685028076171875</LongitudeDegrees>
            </Position>
            <AltitudeMeters>1269.4000244140625</AltitudeMeters>
            <DistanceMeters>17080.211396093</DistanceMeters>
          </Trackpoint>
          <Trackpoint>
            <Time>2023-02-23T11:40:59.000Z</Time>
            <Position>
              <LatitudeDegrees>41.51169187389314174652099609375</LatitudeDegrees>
              <LongitudeDegrees>-4.543429724872112274169921875</LongitudeDegrees>
            </Position>
            <AltitudeMeters>1269.800048828125</AltitudeMeters>
            <DistanceMeters>17085.703249635</DistanceMeters>
          </Trackpoint>
          <Trackpoint>
            <Time>2023-02-23T11:41:01.000Z</Time>
            <Position>
              <LatitudeDegrees>41.51169355027377605438232421875</LatitudeDegrees>
              <LongitudeDegrees>-4.5434319041669368743896484375</LongitudeDegrees>
            </Position>
            <AltitudeMeters>1270</AltitudeMeters>
            <DistanceMeters>17085.972025772</DistanceMeters>
          </Trackpoint>
          <Trackpoint>
            <Time>2023-02-23T11:41:06.000Z</Time>
            <Position>
              <LatitudeDegrees>41.51168667711317539215087890625</LatitudeDegrees>
              <LongitudeDegrees>-4.54343182034790515899658203125</LongitudeDegrees>
            </Position>
            <AltitudeMeters>1269.5999755859375</AltitudeMeters>
            <DistanceMeters>17086.738155636</DistanceMeters>
          </Trackpoint>
          <Trackpoint>
            <Time>2023-02-23T11:41:10.000Z</Time>
            <Position>
              <LatitudeDegrees>41.51168131269514560699462890625</LatitudeDegrees>
              <LongitudeDegrees>-4.54342327080667018890380859375</LongitudeDegrees>
            </Position>
            <AltitudeMeters>1269.5999755859375</AltitudeMeters>
            <DistanceMeters>17087.669223484</DistanceMeters>
          </Trackpoint>
          <Trackpoint>
            <Time>2023-02-23T11:41:12.000Z</Time>
            <Position>
              <LatitudeDegrees>41.5116911195218563079833984375</LatitudeDegrees>
              <LongitudeDegrees>-4.54339426942169666290283203125</LongitudeDegrees>
            </Position>
            <AltitudeMeters>1269.800048828125</AltitudeMeters>
            <DistanceMeters>17090.319770498</DistanceMeters>
          </Trackpoint>
          <Trackpoint>
            <Time>2023-02-23T11:41:18.000Z</Time>
            <Position>
              <LatitudeDegrees>41.51163672097027301788330078125</LatitudeDegrees>
              <LongitudeDegrees>-4.54325973987579345703125</LongitudeDegrees>
            </Position>
            <AltitudeMeters>1270</AltitudeMeters>
            <DistanceMeters>17103.062565899</DistanceMeters>
          </Trackpoint>
          <Trackpoint>
            <Time>2023-02-23T11:41:20.000Z</Time>
            <Position>
              <LatitudeDegrees>41.511616520583629608154296875</LatitudeDegrees>
              <LongitudeDegrees>-4.54320869408547878265380859375</LongitudeDegrees>
            </Position>
            <AltitudeMeters>1270.4000244140625</AltitudeMeters>
            <DistanceMeters>17107.874334389</DistanceMeters>
          </Trackpoint>
          <Trackpoint>
            <Time>2023-02-23T11:41:25.000Z</Time>
            <Position>
              <LatitudeDegrees>41.5115610323846340179443359375</LatitudeDegrees>
              <LongitudeDegrees>-4.543085396289825439453125</LongitudeDegrees>
            </Position>
            <AltitudeMeters>1270.5999755859375</AltitudeMeters>
            <DistanceMeters>17119.863904311</DistanceMeters>
          </Trackpoint>
          <Trackpoint>
            <Time>2023-02-23T11:41:29.000Z</Time>
            <Position>
              <LatitudeDegrees>41.51152490638196468353271484375</LatitudeDegrees>
              <LongitudeDegrees>-4.54296679235994815826416015625</LongitudeDegrees>
            </Position>
            <AltitudeMeters>1271</AltitudeMeters>
            <DistanceMeters>17130.535704726</DistanceMeters>
          </Trackpoint>
          <Trackpoint>
            <Time>2023-02-23T11:41:31.000Z</Time>
            <Position>
              <LatitudeDegrees>41.51150059886276721954345703125</LatitudeDegrees>
              <LongitudeDegrees>-4.5429097115993499755859375</LongitudeDegrees>
            </Position>
            <AltitudeMeters>1271</AltitudeMeters>
            <DistanceMeters>17136.008616526</DistanceMeters>
          </Trackpoint>
          <Trackpoint>
            <Time>2023-02-23T11:41:33.000Z</Time>
            <Position>
              <LatitudeDegrees>41.51147427968680858612060546875</LatitudeDegrees>
              <LongitudeDegrees>-4.5428538881242275238037109375</LongitudeDegrees>
            </Position>
            <AltitudeMeters>1271</AltitudeMeters>
            <DistanceMeters>17141.506221992</DistanceMeters>
          </Trackpoint>
          <Trackpoint>
            <Time>2023-02-23T11:41:40.000Z</Time>
            <Position>
              <LatitudeDegrees>41.51139196939766407012939453125</LatitudeDegrees>
              <LongitudeDegrees>-4.5426547341048717498779296875</LongitudeDegrees>
            </Position>
            <AltitudeMeters>1271.199951171875</AltitudeMeters>
            <DistanceMeters>17160.465420891</DistanceMeters>
          </Trackpoint>
          <Trackpoint>
            <Time>2023-02-23T11:41:44.000Z</Time>
            <Position>
              <LatitudeDegrees>41.51134855113923549652099609375</LatitudeDegrees>
              <LongitudeDegrees>-4.5425333641469478607177734375</LongitudeDegrees>
            </Position>
            <AltitudeMeters>1271.5999755859375</AltitudeMeters>
            <DistanceMeters>17171.676156993</DistanceMeters>
          </Trackpoint>
          <Trackpoint>
            <Time>2023-02-23T11:41:45.000Z</Time>
            <Position>
              <LatitudeDegrees>41.51133857667446136474609375</LatitudeDegrees>
              <LongitudeDegrees>-4.54250042326748371124267578125</LongitudeDegrees>
            </Position>
            <AltitudeMeters>1271.5999755859375</AltitudeMeters>
            <DistanceMeters>17174.638796746</DistanceMeters>
          </Trackpoint>
          <Trackpoint>
            <Time>2023-02-23T11:41:47.000Z</Time>
            <Position>
              <LatitudeDegrees>41.51131921447813510894775390625</LatitudeDegrees>
              <LongitudeDegrees>-4.54243320040404796600341796875</LongitudeDegrees>
            </Position>
            <AltitudeMeters>1271.800048828125</AltitudeMeters>
            <DistanceMeters>17180.642048789</DistanceMeters>
          </Trackpoint>
          <Trackpoint>
            <Time>2023-02-23T11:41:48.000Z</Time>
            <Position>
              <LatitudeDegrees>41.51130865328013896942138671875</LatitudeDegrees>
              <LongitudeDegrees>-4.5424022711813449859619140625</LongitudeDegrees>
            </Position>
            <AltitudeMeters>1271.800048828125</AltitudeMeters>
            <DistanceMeters>17183.476968194</DistanceMeters>
          </Trackpoint>
          <Trackpoint>
            <Time>2023-02-23T11:41:54.000Z</Time>
            <Position>
              <LatitudeDegrees>41.5112405084073543548583984375</LatitudeDegrees>
              <LongitudeDegrees>-4.5422225631773471832275390625</LongitudeDegrees>
            </Position>
            <AltitudeMeters>1272.5999755859375</AltitudeMeters>
            <DistanceMeters>17200.266066925</DistanceMeters>
          </Trackpoint>
          <Trackpoint>
            <Time>2023-02-23T11:41:55.000Z</Time>
            <Position>
              <LatitudeDegrees>41.5112260915338993072509765625</LatitudeDegrees>
              <LongitudeDegrees>-4.5421940647065639495849609375</LongitudeDegrees>
            </Position>
            <AltitudeMeters>1272.5999755859375</AltitudeMeters>
            <DistanceMeters>17203.132662391</DistanceMeters>
          </Trackpoint>
          <Trackpoint>
            <Time>2023-02-23T11:42:04.000Z</Time>
            <Position>
              <LatitudeDegrees>41.51110631413757801055908203125</LatitudeDegrees>
              <LongitudeDegrees>-4.54192056320607662200927734375</LongitudeDegrees>
            </Position>
            <AltitudeMeters>1273.199951171875</AltitudeMeters>
            <DistanceMeters>17229.539832313</DistanceMeters>
          </Trackpoint>
          <Trackpoint>
            <Time>2023-02-23T11:42:11.000Z</Time>
            <Position>
              <LatitudeDegrees>41.51101578958332538604736328125</LatitudeDegrees>
              <LongitudeDegrees>-4.54169693402945995330810546875</LongitudeDegrees>
            </Position>
            <AltitudeMeters>1273.5999755859375</AltitudeMeters>
            <DistanceMeters>17250.727593411</DistanceMeters>
          </Trackpoint>
          <Trackpoint>
            <Time>2023-02-23T11:42:13.000Z</Time>
            <Position>
              <LatitudeDegrees>41.51099617592990398406982421875</LatitudeDegrees>
              <LongitudeDegrees>-4.54163021408021450042724609375</LongitudeDegrees>
            </Position>
            <AltitudeMeters>1273.5999755859375</AltitudeMeters>
            <DistanceMeters>17256.701441593</DistanceMeters>
          </Trackpoint>
          <Trackpoint>
            <Time>2023-02-23T11:42:21.000Z</Time>
            <Position>
              <LatitudeDegrees>41.51088570244610309600830078125</LatitudeDegrees>
              <LongitudeDegrees>-4.5413655973970890045166015625</LongitudeDegrees>
            </Position>
            <AltitudeMeters>1274.199951171875</AltitudeMeters>
            <DistanceMeters>17281.952097774</DistanceMeters>
          </Trackpoint>
          <Trackpoint>
            <Time>2023-02-23T11:42:26.000Z</Time>
            <Position>
              <LatitudeDegrees>41.51082300581037998199462890625</LatitudeDegrees>
              <LongitudeDegrees>-4.541198126971721649169921875</LongitudeDegrees>
            </Position>
            <AltitudeMeters>1274.800048828125</AltitudeMeters>
            <DistanceMeters>17297.557324512</DistanceMeters>
          </Trackpoint>
          <Trackpoint>
            <Time>2023-02-23T11:42:29.000Z</Time>
            <Position>
              <LatitudeDegrees>41.51078629307448863983154296875</LatitudeDegrees>
              <LongitudeDegrees>-4.541095532476902008056640625</LongitudeDegrees>
            </Position>
            <AltitudeMeters>1275</AltitudeMeters>
            <DistanceMeters>17307.034304005</DistanceMeters>
          </Trackpoint>
          <Trackpoint>
            <Time>2023-02-23T11:42:37.000Z</Time>
            <Position>
              <LatitudeDegrees>41.51069618761539459228515625</LatitudeDegrees>
              <LongitudeDegrees>-4.54083477146923542022705078125</LongitudeDegrees>
            </Position>
            <AltitudeMeters>1275.5999755859375</AltitudeMeters>
            <DistanceMeters>17330.969909282</DistanceMeters>
          </Trackpoint>
          <Trackpoint>
            <Time>2023-02-23T11:42:44.000Z</Time>
            <Position>
              <LatitudeDegrees>41.5105987899005413055419921875</LatitudeDegrees>
              <LongitudeDegrees>-4.5406030118465423583984375</LongitudeDegrees>
            </Position>
            <AltitudeMeters>1276</AltitudeMeters>
            <DistanceMeters>17353.120308229</DistanceMeters>
          </Trackpoint>
          <Trackpoint>
            <Time>2023-02-23T11:42:46.000Z</Time>
            <Position>
              <LatitudeDegrees>41.510570459067821502685546875</LatitudeDegrees>
              <LongitudeDegrees>-4.54053319059312343597412109375</LongitudeDegrees>
            </Position>
            <AltitudeMeters>1276.199951171875</AltitudeMeters>
            <DistanceMeters>17359.738153101</DistanceMeters>
          </Trackpoint>
          <Trackpoint>
            <Time>2023-02-23T11:42:55.000Z</Time>
            <Position>
              <LatitudeDegrees>41.51045436970889568328857421875</LatitudeDegrees>
              <LongitudeDegrees>-4.54020311124622821807861328125</LongitudeDegrees>
            </Position>
            <AltitudeMeters>1277</AltitudeMeters>
            <DistanceMeters>17390.132295801</DistanceMeters>
          </Trackpoint>
          <Trackpoint>
            <Time>2023-02-23T11:42:56.000Z</Time>
            <Position>
              <LatitudeDegrees>41.5104435570538043975830078125</LatitudeDegrees>
              <LongitudeDegrees>-4.54016773961484432220458984375</LongitudeDegrees>
            </Position>
            <AltitudeMeters>1277</AltitudeMeters>
            <DistanceMeters>17393.315336135</DistanceMeters>
          </Trackpoint>
          <Trackpoint>
            <Time>2023-02-23T11:43:05.000Z</Time>
            <Position>
              <LatitudeDegrees>41.5103412978351116180419921875</LatitudeDegrees>
              <LongitudeDegrees>-4.53989130444824695587158203125</LongitudeDegrees>
            </Position>
            <AltitudeMeters>1277.4000244140625</AltitudeMeters>
            <DistanceMeters>17419.013342877</DistanceMeters>
          </Trackpoint>
          <Trackpoint>
            <Time>2023-02-23T11:43:12.000Z</Time>
            <Position>
              <LatitudeDegrees>41.51025471277534961700439453125</LatitudeDegrees>
              <LongitudeDegrees>-4.53966549597680568695068359375</LongitudeDegrees>
            </Position>
            <AltitudeMeters>1278</AltitudeMeters>
            <DistanceMeters>17440.157587596</DistanceMeters>
          </Trackpoint>
          <Trackpoint>
            <Time>2023-02-23T11:43:14.000Z</Time>
            <Position>
              <LatitudeDegrees>41.51023006998002529144287109375</LatitudeDegrees>
              <LongitudeDegrees>-4.53960481099784374237060546875</LongitudeDegrees>
            </Position>
            <AltitudeMeters>1278.4000244140625</AltitudeMeters>
            <DistanceMeters>17445.912002451</DistanceMeters>
          </Trackpoint>
          <Trackpoint>
            <Time>2023-02-23T11:43:22.000Z</Time>
            <Position>
              <LatitudeDegrees>41.5101374499499797821044921875</LatitudeDegrees>
              <LongitudeDegrees>-4.5393611490726470947265625</LongitudeDegrees>
            </Position>
            <AltitudeMeters>1278.800048828125</AltitudeMeters>
            <DistanceMeters>17468.687509278</DistanceMeters>
          </Trackpoint>
          <Trackpoint>
            <Time>2023-02-23T11:43:28.000Z</Time>
            <Position>
              <LatitudeDegrees>41.5100705623626708984375</LatitudeDegrees>
              <LongitudeDegrees>-4.5391886495053768157958984375</LongitudeDegrees>
            </Position>
            <AltitudeMeters>1279</AltitudeMeters>
            <DistanceMeters>17484.878343697</DistanceMeters>
          </Trackpoint>
          <Trackpoint>
            <Time>2023-02-23T11:43:29.000Z</Time>
            <Position>
              <LatitudeDegrees>41.51005891151726245880126953125</LatitudeDegrees>
              <LongitudeDegrees>-4.53916006721556186676025390625</LongitudeDegrees>
            </Position>
            <AltitudeMeters>1279.199951171875</AltitudeMeters>
            <DistanceMeters>17487.592849615</DistanceMeters>
          </Trackpoint>
          <Trackpoint>
            <Time>2023-02-23T11:43:38.000Z</Time>
            <Position>
              <LatitudeDegrees>41.50994810275733470916748046875</LatitudeDegrees>
              <LongitudeDegrees>-4.53889486379921436309814453125</LongitudeDegrees>
            </Position>
            <AltitudeMeters>1280.199951171875</AltitudeMeters>
            <DistanceMeters>17512.904941268</DistanceMeters>
          </Trackpoint>
          <Trackpoint>
            <Time>2023-02-23T11:43:39.000Z</Time>
            <Position>
              <LatitudeDegrees>41.50993821211159229278564453125</LatitudeDegrees>
              <LongitudeDegrees>-4.53886418603360652923583984375</LongitudeDegrees>
            </Position>
            <AltitudeMeters>1280.4000244140625</AltitudeMeters>
            <DistanceMeters>17515.688429293</DistanceMeters>
          </Trackpoint>
          <Trackpoint>
            <Time>2023-02-23T11:43:48.000Z</Time>
            <Position>
              <LatitudeDegrees>41.5098407305777072906494140625</LatitudeDegrees>
              <LongitudeDegrees>-4.53860602341592311859130859375</LongitudeDegrees>
            </Position>
            <AltitudeMeters>1280.5999755859375</AltitudeMeters>
            <DistanceMeters>17539.786274756</DistanceMeters>
          </Trackpoint>
          <Trackpoint>
            <Time>2023-02-23T11:43:52.000Z</Time>
            <Position>
              <LatitudeDegrees>41.50980225764214992523193359375</LatitudeDegrees>
              <LongitudeDegrees>-4.53851583413779735565185546875</LongitudeDegrees>
            </Position>
            <AltitudeMeters>1281.199951171875</AltitudeMeters>
            <DistanceMeters>17548.437359866</DistanceMeters>
          </Trackpoint>
          <Trackpoint>
            <Time>2023-02-23T11:43:56.000Z</Time>
            <Position>
              <LatitudeDegrees>41.50976621545851230621337890625</LatitudeDegrees>
              <LongitudeDegrees>-4.53843654133379459381103515625</LongitudeDegrees>
            </Position>
            <AltitudeMeters>1281.4000244140625</AltitudeMeters>
            <DistanceMeters>17556.168470781</DistanceMeters>
          </Trackpoint>
          <Trackpoint>
            <Time>2023-02-23T11:44:02.000Z</Time>
            <Position>
              <LatitudeDegrees>41.50974341668188571929931640625</LatitudeDegrees>
              <LongitudeDegrees>-4.53836797736585140228271484375</LongitudeDegrees>
            </Position>
            <AltitudeMeters>1281.800048828125</AltitudeMeters>
            <DistanceMeters>17562.421488532</DistanceMeters>
          </Trackpoint>
          <Trackpoint>
            <Time>2023-02-23T11:44:09.000Z</Time>
            <Position>
              <LatitudeDegrees>41.50974811054766178131103515625</LatitudeDegrees>
              <LongitudeDegrees>-4.53836672008037567138671875</LongitudeDegrees>
            </Position>
            <AltitudeMeters>1281.800048828125</AltitudeMeters>
            <DistanceMeters>17562.959040805</DistanceMeters>
          </Trackpoint>
          <Trackpoint>
            <Time>2023-02-23T11:44:15.000Z</Time>
            <Position>
              <LatitudeDegrees>41.50973821990191936492919921875</LatitudeDegrees>
              <LongitudeDegrees>-4.53836680389940738677978515625</LongitudeDegrees>
            </Position>
            <AltitudeMeters>1281.800048828125</AltitudeMeters>
            <DistanceMeters>17564.059054552</DistanceMeters>
          </Trackpoint>
          <Trackpoint>
            <Time>2023-02-23T11:44:19.000Z</Time>
            <Position>
              <LatitudeDegrees>41.50973067618906497955322265625</LatitudeDegrees>
              <LongitudeDegrees>-4.5383675582706928253173828125</LongitudeDegrees>
            </Position>
            <AltitudeMeters>1282</AltitudeMeters>
            <DistanceMeters>17564.908999324</DistanceMeters>
          </Trackpoint>
          <Trackpoint>
            <Time>2023-02-23T11:44:25.000Z</Time>
            <Position>
              <LatitudeDegrees>41.5097260661423206329345703125</LatitudeDegrees>
              <LongitudeDegrees>-4.53835624270141124725341796875</LongitudeDegrees>
            </Position>
            <AltitudeMeters>1282</AltitudeMeters>
            <DistanceMeters>17565.98410387</DistanceMeters>
          </Trackpoint>
          <Trackpoint>
            <Time>2023-02-23T11:44:31.000Z</Time>
            <Position>
              <LatitudeDegrees>41.50972749106585979461669921875</LatitudeDegrees>
              <LongitudeDegrees>-4.538373760879039764404296875</LongitudeDegrees>
            </Position>
            <AltitudeMeters>1282.199951171875</AltitudeMeters>
            <DistanceMeters>17567.456251399</DistanceMeters>
          </Trackpoint>
          <Trackpoint>
            <Time>2023-02-23T11:44:32.000Z</Time>
            <Position>
              <LatitudeDegrees>41.50972799398005008697509765625</LatitudeDegrees>
              <LongitudeDegrees>-4.53837233595550060272216796875</LongitudeDegrees>
            </Position>
            <AltitudeMeters>1282.199951171875</AltitudeMeters>
            <DistanceMeters>17567.590639467</DistanceMeters>
          </Trackpoint>
          <Trackpoint>
            <Time>2023-02-23T11:44:39.000Z</Time>
            <Position>
              <LatitudeDegrees>41.50972883217036724090576171875</LatitudeDegrees>
              <LongitudeDegrees>-4.5383648760616779327392578125</LongitudeDegrees>
            </Position>
            <AltitudeMeters>1282.199951171875</AltitudeMeters>
            <DistanceMeters>17568.228098046</DistanceMeters>
          </Trackpoint>
          <Trackpoint>
            <Time>2023-02-23T11:44:43.000Z</Time>
            <Position>
              <LatitudeDegrees>41.509733609855175018310546875</LatitudeDegrees>
              <LongitudeDegrees>-4.5383580029010772705078125</LongitudeDegrees>
            </Position>
            <AltitudeMeters>1282.4000244140625</AltitudeMeters>
            <DistanceMeters>17569.011708408</DistanceMeters>
          </Trackpoint>
          <Trackpoint>
            <Time>2023-02-23T11:44:47.000Z</Time>
            <Position>
              <LatitudeDegrees>41.50973067618906497955322265625</LatitudeDegrees>
              <LongitudeDegrees>-4.53836378641426563262939453125</LongitudeDegrees>
            </Position>
            <AltitudeMeters>1282</AltitudeMeters>
            <DistanceMeters>17569.597492416</DistanceMeters>
          </Trackpoint>
          <Trackpoint>
            <Time>2023-02-23T11:44:51.000Z</Time>
            <Position>
              <LatitudeDegrees>41.50973252020776271820068359375</LatitudeDegrees>
              <LongitudeDegrees>-4.538348615169525146484375</LongitudeDegrees>
            </Position>
            <AltitudeMeters>1281.4000244140625</AltitudeMeters>
            <DistanceMeters>17570.879472881</DistanceMeters>
          </Trackpoint>
          <Trackpoint>
            <Time>2023-02-23T11:44:52.000Z</Time>
            <Position>
              <LatitudeDegrees>41.50972791016101837158203125</LatitudeDegrees>
              <LongitudeDegrees>-4.5383347012102603912353515625</LongitudeDegrees>
            </Position>
            <AltitudeMeters>1281.4000244140625</AltitudeMeters>
            <DistanceMeters>17572.147287382</DistanceMeters>
          </Trackpoint>
          <Trackpoint>
            <Time>2023-02-23T11:44:54.000Z</Time>
            <Position>
              <LatitudeDegrees>41.509714834392070770263671875</LatitudeDegrees>
              <LongitudeDegrees>-4.53830058686435222625732421875</LongitudeDegrees>
            </Position>
            <AltitudeMeters>1281.800048828125</AltitudeMeters>
            <DistanceMeters>17575.343068422</DistanceMeters>
          </Trackpoint>
          <Trackpoint>
            <Time>2023-02-23T11:44:59.000Z</Time>
            <Position>
              <LatitudeDegrees>41.509665884077548980712890625</LatitudeDegrees>
              <LongitudeDegrees>-4.53819799236953258514404296875</LongitudeDegrees>
            </Position>
            <AltitudeMeters>1282.199951171875</AltitudeMeters>
            <DistanceMeters>17585.482022522</DistanceMeters>
          </Trackpoint>
          <Trackpoint>
            <Time>2023-02-23T11:45:06.000Z</Time>
            <Position>
              <LatitudeDegrees>41.50960612110793590545654296875</LatitudeDegrees>
              <LongitudeDegrees>-4.5380232296884059906005859375</LongitudeDegrees>
            </Position>
            <AltitudeMeters>1283</AltitudeMeters>
            <DistanceMeters>17601.495081277</DistanceMeters>
          </Trackpoint>
          <Trackpoint>
            <Time>2023-02-23T11:45:07.000Z</Time>
            <Position>
              <LatitudeDegrees>41.50959941558539867401123046875</LatitudeDegrees>
              <LongitudeDegrees>-4.53800185583531856536865234375</LongitudeDegrees>
            </Position>
            <AltitudeMeters>1283.199951171875</AltitudeMeters>
            <DistanceMeters>17603.428588879</DistanceMeters>
          </Trackpoint>
          <Trackpoint>
            <Time>2023-02-23T11:45:08.000Z</Time>
            <Position>
              <LatitudeDegrees>41.509595811367034912109375</LatitudeDegrees>
              <LongitudeDegrees>-4.5379866845905780792236328125</LongitudeDegrees>
            </Position>
            <AltitudeMeters>1283.4000244140625</AltitudeMeters>
            <DistanceMeters>17604.752157854</DistanceMeters>
          </Trackpoint>
          <Trackpoint>
            <Time>2023-02-23T11:45:11.000Z</Time>
            <Position>
              <LatitudeDegrees>41.50959874503314495086669921875</LatitudeDegrees>
              <LongitudeDegrees>-4.53797151334583759307861328125</LongitudeDegrees>
            </Position>
            <AltitudeMeters>1283.800048828125</AltitudeMeters>
            <DistanceMeters>17606.062010718</DistanceMeters>
          </Trackpoint>
          <Trackpoint>
            <Time>2023-02-23T11:45:13.000Z</Time>
            <Position>
              <LatitudeDegrees>41.50960142724215984344482421875</LatitudeDegrees>
              <LongitudeDegrees>-4.5379726029932498931884765625</LongitudeDegrees>
            </Position>
            <AltitudeMeters>1284.199951171875</AltitudeMeters>
            <DistanceMeters>17606.391192912</DistanceMeters>
          </Trackpoint>
          <Trackpoint>
            <Time>2023-02-23T11:45:20.000Z</Time>
            <Position>
              <LatitudeDegrees>41.50959522463381290435791015625</LatitudeDegrees>
              <LongitudeDegrees>-4.53795902431011199951171875</LongitudeDegrees>
            </Position>
            <AltitudeMeters>1283.800048828125</AltitudeMeters>
            <DistanceMeters>17607.718168762</DistanceMeters>
          </Trackpoint>
          <Trackpoint>
            <Time>2023-02-23T11:45:23.000Z</Time>
            <Position>
              <LatitudeDegrees>41.5095728449523448944091796875</LatitudeDegrees>
              <LongitudeDegrees>-4.5379045419394969940185546875</LongitudeDegrees>
            </Position>
            <AltitudeMeters>1284.199951171875</AltitudeMeters>
            <DistanceMeters>17612.89690674</DistanceMeters>
          </Trackpoint>
          <Trackpoint>
            <Time>2023-02-23T11:45:27.000Z</Time>
            <Position>
              <LatitudeDegrees>41.50954023934900760650634765625</LatitudeDegrees>
              <LongitudeDegrees>-4.53781879507005214691162109375</LongitudeDegrees>
            </Position>
            <AltitudeMeters>1284.800048828125</AltitudeMeters>
            <DistanceMeters>17620.912453752</DistanceMeters>
          </Trackpoint>
          <Trackpoint>
            <Time>2023-02-23T11:45:30.000Z</Time>
            <Position>
              <LatitudeDegrees>41.50951199233531951904296875</LatitudeDegrees>
              <LongitudeDegrees>-4.53775526024401187896728515625</LongitudeDegrees>
            </Position>
            <AltitudeMeters>1285</AltitudeMeters>
            <DistanceMeters>17627.070888704</DistanceMeters>
          </Trackpoint>
          <Trackpoint>
            <Time>2023-02-23T11:45:33.000Z</Time>
            <Position>
              <LatitudeDegrees>41.50948089547455310821533203125</LatitudeDegrees>
              <LongitudeDegrees>-4.5376882888376712799072265625</LongitudeDegrees>
            </Position>
            <AltitudeMeters>1285.4000244140625</AltitudeMeters>
            <DistanceMeters>17633.638052863</DistanceMeters>
          </Trackpoint>
          <Trackpoint>
            <Time>2023-02-23T11:45:37.000Z</Time>
            <Position>
              <LatitudeDegrees>41.5094415843486785888671875</LatitudeDegrees>
              <LongitudeDegrees>-4.53759617172181606292724609375</LongitudeDegrees>
            </Position>
            <AltitudeMeters>1286</AltitudeMeters>
            <DistanceMeters>17642.4755373</DistanceMeters>
          </Trackpoint>
          <Trackpoint>
            <Time>2023-02-23T11:45:43.000Z</Time>
            <Position>
              <LatitudeDegrees>41.50939120911061763763427734375</LatitudeDegrees>
              <LongitudeDegrees>-4.5374519191682338714599609375</LongitudeDegrees>
            </Position>
            <AltitudeMeters>1286.4000244140625</AltitudeMeters>
            <DistanceMeters>17655.741892862</DistanceMeters>
          </Trackpoint>
          <Trackpoint>
            <Time>2023-02-23T11:45:45.000Z</Time>
            <Position>
              <LatitudeDegrees>41.5093745291233062744140625</LatitudeDegrees>
              <LongitudeDegrees>-4.53740389086306095123291015625</LongitudeDegrees>
            </Position>
            <AltitudeMeters>1286.800048828125</AltitudeMeters>
            <DistanceMeters>17660.155267408</DistanceMeters>
          </Trackpoint>
          <Trackpoint>
            <Time>2023-02-23T11:45:46.000Z</Time>
            <Position>
              <LatitudeDegrees>41.50936656631529331207275390625</LatitudeDegrees>
              <LongitudeDegrees>-4.53737773932516574859619140625</LongitudeDegrees>
            </Position>
            <AltitudeMeters>1286.800048828125</AltitudeMeters>
            <DistanceMeters>17662.509936586</DistanceMeters>
          </Trackpoint>
          <Trackpoint>
            <Time>2023-02-23T11:45:48.000Z</Time>
            <Position>
              <LatitudeDegrees>41.50934795849025249481201171875</LatitudeDegrees>
              <LongitudeDegrees>-4.53732728026807308197021484375</LongitudeDegrees>
            </Position>
            <AltitudeMeters>1287.199951171875</AltitudeMeters>
            <DistanceMeters>17667.198135181</DistanceMeters>
          </Trackpoint>
          <Trackpoint>
            <Time>2023-02-23T11:45:51.000Z</Time>
            <Position>
              <LatitudeDegrees>41.50932021439075469970703125</LatitudeDegrees>
              <LongitudeDegrees>-4.53725301660597324371337890625</LongitudeDegrees>
            </Position>
            <AltitudeMeters>1287.4000244140625</AltitudeMeters>
            <DistanceMeters>17674.115531734</DistanceMeters>
          </Trackpoint>
          <Trackpoint>
            <Time>2023-02-23T11:45:56.000Z</Time>
            <Position>
              <LatitudeDegrees>41.509284339845180511474609375</LatitudeDegrees>
              <LongitudeDegrees>-4.537146650254726409912109375</LongitudeDegrees>
            </Position>
            <AltitudeMeters>1288.199951171875</AltitudeMeters>
            <DistanceMeters>17683.838487576</DistanceMeters>
          </Trackpoint>
          <Trackpoint>
            <Time>2023-02-23T11:46:02.000Z</Time>
            <Position>
              <LatitudeDegrees>41.50922994129359722137451171875</LatitudeDegrees>
              <LongitudeDegrees>-4.53701614402234554290771484375</LongitudeDegrees>
            </Position>
            <AltitudeMeters>1288.4000244140625</AltitudeMeters>
            <DistanceMeters>17696.287712532</DistanceMeters>
          </Trackpoint>
          <Trackpoint>
            <Time>2023-02-23T11:46:03.000Z</Time>
            <Position>
              <LatitudeDegrees>41.50922097265720367431640625</LatitudeDegrees>
              <LongitudeDegrees>-4.5369942672550678253173828125</LongitudeDegrees>
            </Position>
            <AltitudeMeters>1288.5999755859375</AltitudeMeters>
            <DistanceMeters>17698.365301649</DistanceMeters>
          </Trackpoint>
          <Trackpoint>
            <Time>2023-02-23T11:46:04.000Z</Time>
            <Position>
              <LatitudeDegrees>41.5092122554779052734375</LatitudeDegrees>
              <LongitudeDegrees>-4.5369697920978069305419921875</LongitudeDegrees>
            </Position>
            <AltitudeMeters>1289</AltitudeMeters>
            <DistanceMeters>17700.622061077</DistanceMeters>
          </Trackpoint>
          <Trackpoint>
            <Time>2023-02-23T11:46:12.000Z</Time>
            <Position>
              <LatitudeDegrees>41.50914528407156467437744140625</LatitudeDegrees>
              <LongitudeDegrees>-4.53679025173187255859375</LongitudeDegrees>
            </Position>
            <AltitudeMeters>1289.5999755859375</AltitudeMeters>
            <DistanceMeters>17717.340282456</DistanceMeters>
          </Trackpoint>
          <Trackpoint>
            <Time>2023-02-23T11:46:13.000Z</Time>
            <Position>
              <LatitudeDegrees>41.50913623161613941192626953125</LatitudeDegrees>
              <LongitudeDegrees>-4.53676812350749969482421875</LongitudeDegrees>
            </Position>
            <AltitudeMeters>1290</AltitudeMeters>
            <DistanceMeters>17719.443788448</DistanceMeters>
          </Trackpoint>
          <Trackpoint>
            <Time>2023-02-23T11:46:23.000Z</Time>
            <Position>
              <LatitudeDegrees>41.5090498141944408416748046875</LatitudeDegrees>
              <LongitudeDegrees>-4.536559917032718658447265625</LongitudeDegrees>
            </Position>
            <AltitudeMeters>1291.4000244140625</AltitudeMeters>
            <DistanceMeters>17739.284811168</DistanceMeters>
          </Trackpoint>
          <Trackpoint>
            <Time>2023-02-23T11:46:28.000Z</Time>
            <Position>
              <LatitudeDegrees>41.509009413421154022216796875</LatitudeDegrees>
              <LongitudeDegrees>-4.53646394424140453338623046875</LongitudeDegrees>
            </Position>
            <AltitudeMeters>1291.800048828125</AltitudeMeters>
            <DistanceMeters>17748.460672586</DistanceMeters>
          </Trackpoint>
          <Trackpoint>
            <Time>2023-02-23T11:46:29.000Z</Time>
            <Position>
              <LatitudeDegrees>41.5090005286037921905517578125</LatitudeDegrees>
              <LongitudeDegrees>-4.5364454202353954315185546875</LongitudeDegrees>
            </Position>
            <AltitudeMeters>1292.199951171875</AltitudeMeters>
            <DistanceMeters>17750.293481479</DistanceMeters>
          </Trackpoint>
          <Trackpoint>
            <Time>2023-02-23T11:46:32.000Z</Time>
            <Position>
              <LatitudeDegrees>41.5089773945510387420654296875</LatitudeDegrees>
              <LongitudeDegrees>-4.5363838970661163330078125</LongitudeDegrees>
            </Position>
            <AltitudeMeters>1292.4000244140625</AltitudeMeters>
            <DistanceMeters>17756.031395622</DistanceMeters>
          </Trackpoint>
          <Trackpoint>
            <Time>2023-02-23T11:46:33.000Z</Time>
            <Position>
              <LatitudeDegrees>41.50897094048559665679931640625</LatitudeDegrees>
              <LongitudeDegrees>-4.5363609306514263153076171875</LongitudeDegrees>
            </Position>
            <AltitudeMeters>1292.5999755859375</AltitudeMeters>
            <DistanceMeters>17758.076126752</DistanceMeters>
          </Trackpoint>
          <Trackpoint>
            <Time>2023-02-23T11:46:37.000Z</Time>
            <Position>
              <LatitudeDegrees>41.5089452080428600311279296875</LatitudeDegrees>
              <LongitudeDegrees>-4.53626529313623905181884765625</LongitudeDegrees>
            </Position>
            <AltitudeMeters>1293</AltitudeMeters>
            <DistanceMeters>17766.546840265</DistanceMeters>
          </Trackpoint>
          <Trackpoint>
            <Time>2023-02-23T11:46:40.000Z</Time>
            <Position>
              <LatitudeDegrees>41.50892618112266063690185546875</LatitudeDegrees>
              <LongitudeDegrees>-4.536199830472469329833984375</LongitudeDegrees>
            </Position>
            <AltitudeMeters>1293.199951171875</AltitudeMeters>
            <DistanceMeters>17772.400053915</DistanceMeters>
          </Trackpoint>
          <Trackpoint>
            <Time>2023-02-23T11:46:41.000Z</Time>
            <Position>
              <LatitudeDegrees>41.50892098434269428253173828125</LatitudeDegrees>
              <LongitudeDegrees>-4.5361773669719696044921875</LongitudeDegrees>
            </Position>
            <AltitudeMeters>1293</AltitudeMeters>
            <DistanceMeters>17774.359079818</DistanceMeters>
          </Trackpoint>
          <Trackpoint>
            <Time>2023-02-23T11:46:42.000Z</Time>
            <Position>
              <LatitudeDegrees>41.50891260243952274322509765625</LatitudeDegrees>
              <LongitudeDegrees>-4.5361570827662944793701171875</LongitudeDegrees>
            </Position>
            <AltitudeMeters>1293.199951171875</AltitudeMeters>
            <DistanceMeters>17776.287911458</DistanceMeters>
          </Trackpoint>
          <Trackpoint>
            <Time>2023-02-23T11:46:44.000Z</Time>
            <Position>
              <LatitudeDegrees>41.50889466516673564910888671875</LatitudeDegrees>
              <LongitudeDegrees>-4.53611827455461025238037109375</LongitudeDegrees>
            </Position>
            <AltitudeMeters>1293.4000244140625</AltitudeMeters>
            <DistanceMeters>17780.088980032</DistanceMeters>
          </Trackpoint>
          <Trackpoint>
            <Time>2023-02-23T11:46:51.000Z</Time>
            <Position>
              <LatitudeDegrees>41.5088349021971225738525390625</LatitudeDegrees>
              <LongitudeDegrees>-4.535967148840427398681640625</LongitudeDegrees>
            </Position>
            <AltitudeMeters>1294.199951171875</AltitudeMeters>
            <DistanceMeters>17794.333481347</DistanceMeters>
          </Trackpoint>
          <Trackpoint>
            <Time>2023-02-23T11:46:54.000Z</Time>
            <Position>
              <LatitudeDegrees>41.508812271058559417724609375</LatitudeDegrees>
              <LongitudeDegrees>-4.535898081958293914794921875</LongitudeDegrees>
            </Position>
            <AltitudeMeters>1294.800048828125</AltitudeMeters>
            <DistanceMeters>17800.617470867</DistanceMeters>
          </Trackpoint>
          <Trackpoint>
            <Time>2023-02-23T11:46:58.000Z</Time>
            <Position>
              <LatitudeDegrees>41.50877782143652439117431640625</LatitudeDegrees>
              <LongitudeDegrees>-4.5358072221279144287109375</LongitudeDegrees>
            </Position>
            <AltitudeMeters>1295</AltitudeMeters>
            <DistanceMeters>17809.105223801</DistanceMeters>
          </Trackpoint>
          <Trackpoint>
            <Time>2023-02-23T11:47:05.000Z</Time>
            <Position>
              <LatitudeDegrees>41.508716382086277008056640625</LatitudeDegrees>
              <LongitudeDegrees>-4.5356441102921962738037109375</LongitudeDegrees>
            </Position>
            <AltitudeMeters>1295.800048828125</AltitudeMeters>
            <DistanceMeters>17824.323448749</DistanceMeters>
          </Trackpoint>
          <Trackpoint>
            <Time>2023-02-23T11:47:08.000Z</Time>
            <Position>
              <LatitudeDegrees>41.508686207234859466552734375</LatitudeDegrees>
              <LongitudeDegrees>-4.53557160682976245880126953125</LongitudeDegrees>
            </Position>
            <AltitudeMeters>1296.199951171875</AltitudeMeters>
            <DistanceMeters>17831.237580993</DistanceMeters>
          </Trackpoint>
          <Trackpoint>
            <Time>2023-02-23T11:47:12.000Z</Time>
            <Position>
              <LatitudeDegrees>41.50864823721349239349365234375</LatitudeDegrees>
              <LongitudeDegrees>-4.535475634038448333740234375</LongitudeDegrees>
            </Position>
            <AltitudeMeters>1296.4000244140625</AltitudeMeters>
            <DistanceMeters>17840.284603315</DistanceMeters>
          </Trackpoint>
          <Trackpoint>
            <Time>2023-02-23T11:47:15.000Z</Time>
            <Position>
              <LatitudeDegrees>41.508627198636531829833984375</LatitudeDegrees>
              <LongitudeDegrees>-4.53540313057601451873779296875</LongitudeDegrees>
            </Position>
            <AltitudeMeters>1296.4000244140625</AltitudeMeters>
            <DistanceMeters>17846.765954688</DistanceMeters>
          </Trackpoint>
          <Trackpoint>
            <Time>2023-02-23T11:47:20.000Z</Time>
            <Position>
              <LatitudeDegrees>41.508589647710323333740234375</LatitudeDegrees>
              <LongitudeDegrees>-4.53529282473027706146240234375</LongitudeDegrees>
            </Position>
            <AltitudeMeters>1297</AltitudeMeters>
            <DistanceMeters>17856.865644956</DistanceMeters>
          </Trackpoint>
          <Trackpoint>
            <Time>2023-02-23T11:47:23.000Z</Time>
            <Position>
              <LatitudeDegrees>41.5085686929523944854736328125</LatitudeDegrees>
              <LongitudeDegrees>-4.5352280326187610626220703125</LongitudeDegrees>
            </Position>
            <AltitudeMeters>1297.800048828125</AltitudeMeters>
            <DistanceMeters>17862.748097925</DistanceMeters>
          </Trackpoint>
          <Trackpoint>
            <Time>2023-02-23T11:47:24.000Z</Time>
            <Position>
              <LatitudeDegrees>41.50856140069663524627685546875</LatitudeDegrees>
              <LongitudeDegrees>-4.5352069102227687835693359375</LongitudeDegrees>
            </Position>
            <AltitudeMeters>1298</AltitudeMeters>
            <DistanceMeters>17864.686270208</DistanceMeters>
          </Trackpoint>
          <Trackpoint>
            <Time>2023-02-23T11:47:31.000Z</Time>
            <Position>
              <LatitudeDegrees>41.50851328857243061065673828125</LatitudeDegrees>
              <LongitudeDegrees>-4.53505729325115680694580078125</LongitudeDegrees>
            </Position>
            <AltitudeMeters>1298.199951171875</AltitudeMeters>
            <DistanceMeters>17878.257801781</DistanceMeters>
          </Trackpoint>
          <Trackpoint>
            <Time>2023-02-23T11:47:32.000Z</Time>
            <Position>
              <LatitudeDegrees>41.50850809179246425628662109375</LatitudeDegrees>
              <LongitudeDegrees>-4.535034410655498504638671875</LongitudeDegrees>
            </Position>
            <AltitudeMeters>1298.199951171875</AltitudeMeters>
            <DistanceMeters>17880.251098958</DistanceMeters>
          </Trackpoint>
          <Trackpoint>
            <Time>2023-02-23T11:47:39.000Z</Time>
            <Position>
              <LatitudeDegrees>41.5084610693156719207763671875</LatitudeDegrees>
              <LongitudeDegrees>-4.53490172512829303741455078125</LongitudeDegrees>
            </Position>
            <AltitudeMeters>1299</AltitudeMeters>
            <DistanceMeters>17892.485580849</DistanceMeters>
          </Trackpoint>
          <Trackpoint>
            <Time>2023-02-23T11:47:40.000Z</Time>
            <Position>
              <LatitudeDegrees>41.508452184498310089111328125</LatitudeDegrees>
              <LongitudeDegrees>-4.5348845422267913818359375</LongitudeDegrees>
            </Position>
            <AltitudeMeters>1299</AltitudeMeters>
            <DistanceMeters>17894.227449295</DistanceMeters>
          </Trackpoint>
          <Trackpoint>
            <Time>2023-02-23T11:47:47.000Z</Time>
            <Position>
              <LatitudeDegrees>41.5083849616348743438720703125</LatitudeDegrees>
              <LongitudeDegrees>-4.53475487418472766876220703125</LongitudeDegrees>
            </Position>
            <AltitudeMeters>1300.4000244140625</AltitudeMeters>
            <DistanceMeters>17907.372773286</DistanceMeters>
          </Trackpoint>
          <Trackpoint>
            <Time>2023-02-23T11:47:55.000Z</Time>
            <Position>
              <LatitudeDegrees>41.50831631384789943695068359375</LatitudeDegrees>
              <LongitudeDegrees>-4.53458757139742374420166015625</LongitudeDegrees>
            </Position>
            <AltitudeMeters>1300.800048828125</AltitudeMeters>
            <DistanceMeters>17923.273783959</DistanceMeters>
          </Trackpoint>
          <Trackpoint>
            <Time>2023-02-23T11:47:59.000Z</Time>
            <Position>
              <LatitudeDegrees>41.50828463025391101837158203125</LatitudeDegrees>
              <LongitudeDegrees>-4.5345105417072772979736328125</LongitudeDegrees>
            </Position>
            <AltitudeMeters>1301.5999755859375</AltitudeMeters>
            <DistanceMeters>17930.598858309</DistanceMeters>
          </Trackpoint>
          <Trackpoint>
            <Time>2023-02-23T11:48:04.000Z</Time>
            <Position>
              <LatitudeDegrees>41.50823098607361316680908203125</LatitudeDegrees>
              <LongitudeDegrees>-4.53442328609526157379150390625</LongitudeDegrees>
            </Position>
            <AltitudeMeters>1302.199951171875</AltitudeMeters>
            <DistanceMeters>17940.00794272</DistanceMeters>
          </Trackpoint>
          <Trackpoint>
            <Time>2023-02-23T11:48:07.000Z</Time>
            <Position>
              <LatitudeDegrees>41.50820718146860599517822265625</LatitudeDegrees>
              <LongitudeDegrees>-4.5343690551817417144775390625</LongitudeDegrees>
            </Position>
            <AltitudeMeters>1302.4000244140625</AltitudeMeters>
            <DistanceMeters>17945.247354175</DistanceMeters>
          </Trackpoint>
          <Trackpoint>
            <Time>2023-02-23T11:48:08.000Z</Time>
            <Position>
              <LatitudeDegrees>41.5081995539367198944091796875</LatitudeDegrees>
              <LongitudeDegrees>-4.53434818424284458160400390625</LongitudeDegrees>
            </Position>
            <AltitudeMeters>1302.5999755859375</AltitudeMeters>
            <DistanceMeters>17947.180861777</DistanceMeters>
          </Trackpoint>
          <Trackpoint>
            <Time>2023-02-23T11:48:11.000Z</Time>
            <Position>
              <LatitudeDegrees>41.50817650370299816131591796875</LatitudeDegrees>
              <LongitudeDegrees>-4.53429135493934154510498046875</LongitudeDegrees>
            </Position>
            <AltitudeMeters>1303</AltitudeMeters>
            <DistanceMeters>17952.566454181</DistanceMeters>
          </Trackpoint>
          <Trackpoint>
            <Time>2023-02-23T11:48:14.000Z</Time>
            <Position>
              <LatitudeDegrees>41.50815504603087902069091796875</LatitudeDegrees>
              <LongitudeDegrees>-4.5342247188091278076171875</LongitudeDegrees>
            </Position>
            <AltitudeMeters>1303.5999755859375</AltitudeMeters>
            <DistanceMeters>17958.610930113</DistanceMeters>
          </Trackpoint>
          <Trackpoint>
            <Time>2023-02-23T11:48:15.000Z</Time>
            <Position>
              <LatitudeDegrees>41.5081489272415637969970703125</LatitudeDegrees>
              <LongitudeDegrees>-4.5342024229466915130615234375</LongitudeDegrees>
            </Position>
            <AltitudeMeters>1303.5999755859375</AltitudeMeters>
            <DistanceMeters>17960.588307947</DistanceMeters>
          </Trackpoint>
          <Trackpoint>
            <Time>2023-02-23T11:48:22.000Z</Time>
            <Position>
              <LatitudeDegrees>41.5080885775387287139892578125</LatitudeDegrees>
              <LongitudeDegrees>-4.53405783511698246002197265625</LongitudeDegrees>
            </Position>
            <AltitudeMeters>1304</AltitudeMeters>
            <DistanceMeters>17974.385846553</DistanceMeters>
          </Trackpoint>
          <Trackpoint>
            <Time>2023-02-23T11:48:27.000Z</Time>
            <Position>
              <LatitudeDegrees>41.50805580429732799530029296875</LatitudeDegrees>
              <LongitudeDegrees>-4.5339499600231647491455078125</LongitudeDegrees>
            </Position>
            <AltitudeMeters>1304.5999755859375</AltitudeMeters>
            <DistanceMeters>17984.089279301</DistanceMeters>
          </Trackpoint>
          <Trackpoint>
            <Time>2023-02-23T11:48:30.000Z</Time>
            <Position>
              <LatitudeDegrees>41.5080299042165279388427734375</LatitudeDegrees>
              <LongitudeDegrees>-4.53388751484453678131103515625</LongitudeDegrees>
            </Position>
            <AltitudeMeters>1305</AltitudeMeters>
            <DistanceMeters>17990.038892705</DistanceMeters>
          </Trackpoint>
          <Trackpoint>
            <Time>2023-02-23T11:48:31.000Z</Time>
            <Position>
              <LatitudeDegrees>41.50802227668464183807373046875</LatitudeDegrees>
              <LongitudeDegrees>-4.5338651351630687713623046875</LongitudeDegrees>
            </Position>
            <AltitudeMeters>1305.199951171875</AltitudeMeters>
            <DistanceMeters>17992.088035342</DistanceMeters>
          </Trackpoint>
          <Trackpoint>
            <Time>2023-02-23T11:48:39.000Z</Time>
            <Position>
              <LatitudeDegrees>41.50797131471335887908935546875</LatitudeDegrees>
              <LongitudeDegrees>-4.53370034694671630859375</LongitudeDegrees>
            </Position>
            <AltitudeMeters>1305.4000244140625</AltitudeMeters>
            <DistanceMeters>18006.948098914</DistanceMeters>
          </Trackpoint>
          <Trackpoint>
            <Time>2023-02-23T11:48:41.000Z</Time>
            <Position>
              <LatitudeDegrees>41.5079561434686183929443359375</LatitudeDegrees>
              <LongitudeDegrees>-4.533658437430858612060546875</LongitudeDegrees>
            </Position>
            <AltitudeMeters>1305.800048828125</AltitudeMeters>
            <DistanceMeters>18010.827936208</DistanceMeters>
          </Trackpoint>
          <Trackpoint>
            <Time>2023-02-23T11:48:44.000Z</Time>
            <Position>
              <LatitudeDegrees>41.507933847606182098388671875</LatitudeDegrees>
              <LongitudeDegrees>-4.533601105213165283203125</LongitudeDegrees>
            </Position>
            <AltitudeMeters>1306</AltitudeMeters>
            <DistanceMeters>18016.212690192</DistanceMeters>
          </Trackpoint>
          <Trackpoint>
            <Time>2023-02-23T11:48:47.000Z</Time>
            <Position>
              <LatitudeDegrees>41.5079100430011749267578125</LatitudeDegrees>
              <LongitudeDegrees>-4.53354570083320140838623046875</LongitudeDegrees>
            </Position>
            <AltitudeMeters>1306</AltitudeMeters>
            <DistanceMeters>18021.536730946</DistanceMeters>
          </Trackpoint>
          <Trackpoint>
            <Time>2023-02-23T11:48:51.000Z</Time>
            <Position>
              <LatitudeDegrees>41.507874168455600738525390625</LatitudeDegrees>
              <LongitudeDegrees>-4.53347168862819671630859375</LongitudeDegrees>
            </Position>
            <AltitudeMeters>1307.199951171875</AltitudeMeters>
            <DistanceMeters>18028.885190454</DistanceMeters>
          </Trackpoint>
          <Trackpoint>
            <Time>2023-02-23T11:48:57.000Z</Time>
            <Position>
              <LatitudeDegrees>41.507835276424884796142578125</LatitudeDegrees>
              <LongitudeDegrees>-4.53336699865758419036865234375</LongitudeDegrees>
            </Position>
            <AltitudeMeters>1307.5999755859375</AltitudeMeters>
            <DistanceMeters>18038.626239847</DistanceMeters>
          </Trackpoint>
          <Trackpoint>
            <Time>2023-02-23T11:49:01.000Z</Time>
            <Position>
              <LatitudeDegrees>41.50780753232538700103759765625</LatitudeDegrees>
              <LongitudeDegrees>-4.5332881249487400054931640625</LongitudeDegrees>
            </Position>
            <AltitudeMeters>1307.5999755859375</AltitudeMeters>
            <DistanceMeters>18045.889414537</DistanceMeters>
          </Trackpoint>
          <Trackpoint>
            <Time>2023-02-23T11:49:03.000Z</Time>
            <Position>
              <LatitudeDegrees>41.507788337767124176025390625</LatitudeDegrees>
              <LongitudeDegrees>-4.53324847854673862457275390625</LongitudeDegrees>
            </Position>
            <AltitudeMeters>1307.800048828125</AltitudeMeters>
            <DistanceMeters>18049.824713904</DistanceMeters>
          </Trackpoint>
          <Trackpoint>
            <Time>2023-02-23T11:49:06.000Z</Time>
            <Position>
              <LatitudeDegrees>41.50776528753340244293212890625</LatitudeDegrees>
              <LongitudeDegrees>-4.5331898890435695648193359375</LongitudeDegrees>
            </Position>
            <AltitudeMeters>1307.800048828125</AltitudeMeters>
            <DistanceMeters>18055.341994728</DistanceMeters>
          </Trackpoint>
          <Trackpoint>
            <Time>2023-02-23T11:49:10.000Z</Time>
            <Position>
              <LatitudeDegrees>41.50774064473807811737060546875</LatitudeDegrees>
              <LongitudeDegrees>-4.5331178046762943267822265625</LongitudeDegrees>
            </Position>
            <AltitudeMeters>1308</AltitudeMeters>
            <DistanceMeters>18061.946180463</DistanceMeters>
          </Trackpoint>
          <Trackpoint>
            <Time>2023-02-23T11:49:12.000Z</Time>
            <Position>
              <LatitudeDegrees>41.5077308379113674163818359375</LatitudeDegrees>
              <LongitudeDegrees>-4.53308410942554473876953125</LongitudeDegrees>
            </Position>
            <AltitudeMeters>1308.199951171875</AltitudeMeters>
            <DistanceMeters>18064.960190566</DistanceMeters>
          </Trackpoint>
          <Trackpoint>
            <Time>2023-02-23T11:49:14.000Z</Time>
            <Position>
              <LatitudeDegrees>41.5077264793217182159423828125</LatitudeDegrees>
              <LongitudeDegrees>-4.53304446302354335784912109375</LongitudeDegrees>
            </Position>
            <AltitudeMeters>1308.800048828125</AltitudeMeters>
            <DistanceMeters>18068.299673222</DistanceMeters>
          </Trackpoint>
          <Trackpoint>
            <Time>2023-02-23T11:49:15.000Z</Time>
            <Position>
              <LatitudeDegrees>41.50771650485694408416748046875</LatitudeDegrees>
              <LongitudeDegrees>-4.53302778303623199462890625</LongitudeDegrees>
            </Position>
            <AltitudeMeters>1309</AltitudeMeters>
            <DistanceMeters>18070.079998145</DistanceMeters>
          </Trackpoint>
          <Trackpoint>
            <Time>2023-02-23T11:49:17.000Z</Time>
            <Position>
              <LatitudeDegrees>41.50769890286028385162353515625</LatitudeDegrees>
              <LongitudeDegrees>-4.53299283050000667572021484375</LongitudeDegrees>
            </Position>
            <AltitudeMeters>1309.199951171875</AltitudeMeters>
            <DistanceMeters>18073.59213203</DistanceMeters>
          </Trackpoint>
          <Trackpoint>
            <Time>2023-02-23T11:49:20.000Z</Time>
            <Position>
              <LatitudeDegrees>41.50768163613975048065185546875</LatitudeDegrees>
              <LongitudeDegrees>-4.53293298371136188507080078125</LongitudeDegrees>
            </Position>
            <AltitudeMeters>1309.4000244140625</AltitudeMeters>
            <DistanceMeters>18078.939021034</DistanceMeters>
          </Trackpoint>
          <Trackpoint>
            <Time>2023-02-23T11:49:22.000Z</Time>
            <Position>
              <LatitudeDegrees>41.50766503997147083282470703125</LatitudeDegrees>
              <LongitudeDegrees>-4.53289442695677280426025390625</LongitudeDegrees>
            </Position>
            <AltitudeMeters>1309.5999755859375</AltitudeMeters>
            <DistanceMeters>18082.643844402</DistanceMeters>
          </Trackpoint>
          <Trackpoint>
            <Time>2023-02-23T11:49:30.000Z</Time>
            <Position>
              <LatitudeDegrees>41.50760988704860210418701171875</LatitudeDegrees>
              <LongitudeDegrees>-4.53273818828165531158447265625</LongitudeDegrees>
            </Position>
            <AltitudeMeters>1310.199951171875</AltitudeMeters>
            <DistanceMeters>18097.040313224</DistanceMeters>
          </Trackpoint>
          <Trackpoint>
            <Time>2023-02-23T11:49:31.000Z</Time>
            <Position>
              <LatitudeDegrees>41.50760385207831859588623046875</LatitudeDegrees>
              <LongitudeDegrees>-4.53272092156112194061279296875</LongitudeDegrees>
            </Position>
            <AltitudeMeters>1310.4000244140625</AltitudeMeters>
            <DistanceMeters>18098.624725182</DistanceMeters>
          </Trackpoint>
          <Trackpoint>
            <Time>2023-02-23T11:49:36.000Z</Time>
            <Position>
              <LatitudeDegrees>41.50757149793207645416259765625</LatitudeDegrees>
              <LongitudeDegrees>-4.5326289720833301544189453125</LongitudeDegrees>
            </Position>
            <AltitudeMeters>1311</AltitudeMeters>
            <DistanceMeters>18107.092773189</DistanceMeters>
          </Trackpoint>
          <Trackpoint>
            <Time>2023-02-23T11:49:38.000Z</Time>
            <Position>
              <LatitudeDegrees>41.5075621940195560455322265625</LatitudeDegrees>
              <LongitudeDegrees>-4.53258278779685497283935546875</LongitudeDegrees>
            </Position>
            <AltitudeMeters>1311.199951171875</AltitudeMeters>
            <DistanceMeters>18111.079367542</DistanceMeters>
          </Trackpoint>
          <Trackpoint>
            <Time>2023-02-23T11:49:43.000Z</Time>
            <Position>
              <LatitudeDegrees>41.5075286664068698883056640625</LatitudeDegrees>
              <LongitudeDegrees>-4.53246988356113433837890625</LongitudeDegrees>
            </Position>
            <AltitudeMeters>1311.4000244140625</AltitudeMeters>
            <DistanceMeters>18121.202723585</DistanceMeters>
          </Trackpoint>
          <Trackpoint>
            <Time>2023-02-23T11:49:44.000Z</Time>
            <Position>
              <LatitudeDegrees>41.5075212903320789337158203125</LatitudeDegrees>
              <LongitudeDegrees>-4.53245236538350582122802734375</LongitudeDegrees>
            </Position>
            <AltitudeMeters>1311.4000244140625</AltitudeMeters>
            <DistanceMeters>18122.875841542</DistanceMeters>
          </Trackpoint>
          <Trackpoint>
            <Time>2023-02-23T11:49:49.000Z</Time>
            <Position>
              <LatitudeDegrees>41.5074961446225643157958984375</LatitudeDegrees>
              <LongitudeDegrees>-4.53236217610538005828857421875</LongitudeDegrees>
            </Position>
            <AltitudeMeters>1312.4000244140625</AltitudeMeters>
            <DistanceMeters>18130.897582297</DistanceMeters>
          </Trackpoint>
          <Trackpoint>
            <Time>2023-02-23T11:49:51.000Z</Time>
            <Position>
              <LatitudeDegrees>41.5074934624135494232177734375</LatitudeDegrees>
              <LongitudeDegrees>-4.53231775201857089996337890625</LongitudeDegrees>
            </Position>
            <AltitudeMeters>1312.5999755859375</AltitudeMeters>
            <DistanceMeters>18134.612142406</DistanceMeters>
          </Trackpoint>
          <Trackpoint>
            <Time>2023-02-23T11:49:59.000Z</Time>
            <Position>
              <LatitudeDegrees>41.5074706636369228363037109375</LatitudeDegrees>
              <LongitudeDegrees>-4.53213603235781192779541015625</LongitudeDegrees>
            </Position>
            <AltitudeMeters>1313.5999755859375</AltitudeMeters>
            <DistanceMeters>18149.969470838</DistanceMeters>
          </Trackpoint>
          <Trackpoint>
            <Time>2023-02-23T11:50:03.000Z</Time>
            <Position>
              <LatitudeDegrees>41.507452391088008880615234375</LatitudeDegrees>
              <LongitudeDegrees>-4.5320472680032253265380859375</LongitudeDegrees>
            </Position>
            <AltitudeMeters>1314</AltitudeMeters>
            <DistanceMeters>18157.642547041</DistanceMeters>
          </Trackpoint>
          <Trackpoint>
            <Time>2023-02-23T11:50:06.000Z</Time>
            <Position>
              <LatitudeDegrees>41.507452391088008880615234375</LatitudeDegrees>
              <LongitudeDegrees>-4.53199018724262714385986328125</LongitudeDegrees>
            </Position>
            <AltitudeMeters>1314</AltitudeMeters>
            <DistanceMeters>18162.400529979</DistanceMeters>
          </Trackpoint>
          <Trackpoint>
            <Time>2023-02-23T11:50:07.000Z</Time>
            <Position>
              <LatitudeDegrees>41.50745063088834285736083984375</LatitudeDegrees>
              <LongitudeDegrees>-4.531969986855983734130859375</LongitudeDegrees>
            </Position>
            <AltitudeMeters>1314</AltitudeMeters>
            <DistanceMeters>18164.097761368</DistanceMeters>
          </Trackpoint>
          <Trackpoint>
            <Time>2023-02-23T11:50:11.000Z</Time>
            <Position>
              <LatitudeDegrees>41.507467143237590789794921875</LatitudeDegrees>
              <LongitudeDegrees>-4.5318766124546527862548828125</LongitudeDegrees>
            </Position>
            <AltitudeMeters>1314.199951171875</AltitudeMeters>
            <DistanceMeters>18172.094698367</DistanceMeters>
          </Trackpoint>
          <Trackpoint>
            <Time>2023-02-23T11:50:13.000Z</Time>
            <Position>
              <LatitudeDegrees>41.5074797160923480987548828125</LatitudeDegrees>
              <LongitudeDegrees>-4.5318484492599964141845703125</LongitudeDegrees>
            </Position>
            <AltitudeMeters>1314.5999755859375</AltitudeMeters>
            <DistanceMeters>18174.825786638</DistanceMeters>
          </Trackpoint>
          <Trackpoint>
            <Time>2023-02-23T11:50:14.000Z</Time>
            <Position>
              <LatitudeDegrees>41.50748315267264842987060546875</LatitudeDegrees>
              <LongitudeDegrees>-4.5318414084613323211669921875</LongitudeDegrees>
            </Position>
            <AltitudeMeters>1314.5999755859375</AltitudeMeters>
            <DistanceMeters>18175.524087525</DistanceMeters>
          </Trackpoint>
          <Trackpoint>
            <Time>2023-02-23T11:50:18.000Z</Time>
            <Position>
              <LatitudeDegrees>41.50750142522156238555908203125</LatitudeDegrees>
              <LongitudeDegrees>-4.53181249089539051055908203125</LongitudeDegrees>
            </Position>
            <AltitudeMeters>1314.4000244140625</AltitudeMeters>
            <DistanceMeters>18178.678630953</DistanceMeters>
          </Trackpoint>
          <Trackpoint>
            <Time>2023-02-23T11:50:23.000Z</Time>
            <Position>
              <LatitudeDegrees>41.5075601823627948760986328125</LatitudeDegrees>
              <LongitudeDegrees>-4.53178969211876392364501953125</LongitudeDegrees>
            </Position>
            <AltitudeMeters>1313.800048828125</AltitudeMeters>
            <DistanceMeters>18185.488805152</DistanceMeters>
          </Trackpoint>
          <Trackpoint>
            <Time>2023-02-23T11:50:24.000Z</Time>
            <Position>
              <LatitudeDegrees>41.5075667202472686767578125</LatitudeDegrees>
              <LongitudeDegrees>-4.53179120086133480072021484375</LongitudeDegrees>
            </Position>
            <AltitudeMeters>1313.800048828125</AltitudeMeters>
            <DistanceMeters>18186.224878916</DistanceMeters>
          </Trackpoint>
          <Trackpoint>
            <Time>2023-02-23T11:50:27.000Z</Time>
            <Position>
              <LatitudeDegrees>41.50760619901120662689208984375</LatitudeDegrees>
              <LongitudeDegrees>-4.5318082161247730255126953125</LongitudeDegrees>
            </Position>
            <AltitudeMeters>1313</AltitudeMeters>
            <DistanceMeters>18190.84321634</DistanceMeters>
          </Trackpoint>
          <Trackpoint>
            <Time>2023-02-23T11:50:29.000Z</Time>
            <Position>
              <LatitudeDegrees>41.50764224119484424591064453125</LatitudeDegrees>
              <LongitudeDegrees>-4.5318186096847057342529296875</LongitudeDegrees>
            </Position>
            <AltitudeMeters>1312.4000244140625</AltitudeMeters>
            <DistanceMeters>18194.947006365</DistanceMeters>
          </Trackpoint>
          <Trackpoint>
            <Time>2023-02-23T11:50:30.000Z</Time>
            <Position>
              <LatitudeDegrees>41.507662273943424224853515625</LatitudeDegrees>
              <LongitudeDegrees>-4.53182271681725978851318359375</LongitudeDegrees>
            </Position>
            <AltitudeMeters>1312.199951171875</AltitudeMeters>
            <DistanceMeters>18197.203765792</DistanceMeters>
          </Trackpoint>
          <Trackpoint>
            <Time>2023-02-23T11:50:32.000Z</Time>
            <Position>
              <LatitudeDegrees>41.50772790424525737762451171875</LatitudeDegrees>
              <LongitudeDegrees>-4.53183394856750965118408203125</LongitudeDegrees>
            </Position>
            <AltitudeMeters>1311.800048828125</AltitudeMeters>
            <DistanceMeters>18204.568182886</DistanceMeters>
          </Trackpoint>
          <Trackpoint>
            <Time>2023-02-23T11:50:34.000Z</Time>
            <Position>
              <LatitudeDegrees>41.50779864750802516937255859375</LatitudeDegrees>
              <LongitudeDegrees>-4.5318397320806980133056640625</LongitudeDegrees>
            </Position>
            <AltitudeMeters>1311.4000244140625</AltitudeMeters>
            <DistanceMeters>18212.457117342</DistanceMeters>
          </Trackpoint>
          <Trackpoint>
            <Time>2023-02-23T11:50:36.000Z</Time>
            <Position>
              <LatitudeDegrees>41.5078760124742984771728515625</LatitudeDegrees>
              <LongitudeDegrees>-4.53182975761592388153076171875</LongitudeDegrees>
            </Position>
            <AltitudeMeters>1310.4000244140625</AltitudeMeters>
            <DistanceMeters>18221.108202451</DistanceMeters>
          </Trackpoint>
          <Trackpoint>
            <Time>2023-02-23T11:50:38.000Z</Time>
            <Position>
              <LatitudeDegrees>41.50796494446694850921630859375</LatitudeDegrees>
              <LongitudeDegrees>-4.5318420790135860443115234375</LongitudeDegrees>
            </Position>
            <AltitudeMeters>1309.199951171875</AltitudeMeters>
            <DistanceMeters>18231.059273664</DistanceMeters>
          </Trackpoint>
          <Trackpoint>
            <Time>2023-02-23T11:50:40.000Z</Time>
            <Position>
              <LatitudeDegrees>41.50804792530834674835205078125</LatitudeDegrees>
              <LongitudeDegrees>-4.53184735961258411407470703125</LongitudeDegrees>
            </Position>
            <AltitudeMeters>1308</AltitudeMeters>
            <DistanceMeters>18240.305719671</DistanceMeters>
          </Trackpoint>
          <Trackpoint>
            <Time>2023-02-23T11:50:45.000Z</Time>
            <Position>
              <LatitudeDegrees>41.50823366828262805938720703125</LatitudeDegrees>
              <LongitudeDegrees>-4.5319054462015628814697265625</LongitudeDegrees>
            </Position>
            <AltitudeMeters>1307.199951171875</AltitudeMeters>
            <DistanceMeters>18261.538609172</DistanceMeters>
          </Trackpoint>
          <Trackpoint>
            <Time>2023-02-23T11:50:48.000Z</Time>
            <Position>
              <LatitudeDegrees>41.50828354060649871826171875</LatitudeDegrees>
              <LongitudeDegrees>-4.53197057358920574188232421875</LongitudeDegrees>
            </Position>
            <AltitudeMeters>1307</AltitudeMeters>
            <DistanceMeters>18269.302937239</DistanceMeters>
          </Trackpoint>
          <Trackpoint>
            <Time>2023-02-23T11:50:50.000Z</Time>
            <Position>
              <LatitudeDegrees>41.5082920901477336883544921875</LatitudeDegrees>
              <LongitudeDegrees>-4.53200452029705047607421875</LongitudeDegrees>
            </Position>
            <AltitudeMeters>1306.800048828125</AltitudeMeters>
            <DistanceMeters>18272.289861331</DistanceMeters>
          </Trackpoint>
          <Trackpoint>
            <Time>2023-02-23T11:50:52.000Z</Time>
            <Position>
              <LatitudeDegrees>41.50829502381384372711181640625</LatitudeDegrees>
              <LongitudeDegrees>-4.53201667405664920806884765625</LongitudeDegrees>
            </Position>
            <AltitudeMeters>1306.5999755859375</AltitudeMeters>
            <DistanceMeters>18273.356533554</DistanceMeters>
          </Trackpoint>
          <Trackpoint>
            <Time>2023-02-23T11:50:54.000Z</Time>
            <Position>
              <LatitudeDegrees>41.50829167105257511138916015625</LatitudeDegrees>
              <LongitudeDegrees>-4.53203528188169002532958984375</LongitudeDegrees>
            </Position>
            <AltitudeMeters>1306.5999755859375</AltitudeMeters>
            <DistanceMeters>18274.952303449</DistanceMeters>
          </Trackpoint>
          <Trackpoint>
            <Time>2023-02-23T11:50:56.000Z</Time>
            <Position>
              <LatitudeDegrees>41.508299969136714935302734375</LatitudeDegrees>
              <LongitudeDegrees>-4.53204919584095478057861328125</LongitudeDegrees>
            </Position>
            <AltitudeMeters>1306.800048828125</AltitudeMeters>
            <DistanceMeters>18276.436668179</DistanceMeters>
          </Trackpoint>
          <Trackpoint>
            <Time>2023-02-23T11:50:57.000Z</Time>
            <Position>
              <LatitudeDegrees>41.5083055011928081512451171875</LatitudeDegrees>
              <LongitudeDegrees>-4.5320435799658298492431640625</LongitudeDegrees>
            </Position>
            <AltitudeMeters>1306.800048828125</AltitudeMeters>
            <DistanceMeters>18277.202798043</DistanceMeters>
          </Trackpoint>
          <Trackpoint>
            <Time>2023-02-23T11:51:01.000Z</Time>
            <Position>
              <LatitudeDegrees>41.50832201354205608367919921875</LatitudeDegrees>
              <LongitudeDegrees>-4.5320194400846958160400390625</LongitudeDegrees>
            </Position>
            <AltitudeMeters>1306.800048828125</AltitudeMeters>
            <DistanceMeters>18279.927265484</DistanceMeters>
          </Trackpoint>
          <Trackpoint>
            <Time>2023-02-23T11:51:02.000Z</Time>
            <Position>
              <LatitudeDegrees>41.5083215944468975067138671875</LatitudeDegrees>
              <LongitudeDegrees>-4.5320137403905391693115234375</LongitudeDegrees>
            </Position>
            <AltitudeMeters>1306.800048828125</AltitudeMeters>
            <DistanceMeters>18280.402399056</DistanceMeters>
          </Trackpoint>
          <Trackpoint>
            <Time>2023-02-23T11:54:55.000Z</Time>
            <Position>
              <LatitudeDegrees>41.50835906155407428741455078125</LatitudeDegrees>
              <LongitudeDegrees>-4.53189865685999393463134765625</LongitudeDegrees>
            </Position>
            <AltitudeMeters>1306.5999755859375</AltitudeMeters>
            <DistanceMeters>18290.862246387</DistanceMeters>
          </Trackpoint>
          <Trackpoint>
            <Time>2023-02-23T11:54:58.000Z</Time>
            <Position>
              <LatitudeDegrees>41.50834657251834869384765625</LatitudeDegrees>
              <LongitudeDegrees>-4.5319285802543163299560546875</LongitudeDegrees>
            </Position>
            <AltitudeMeters>1306.5999755859375</AltitudeMeters>
            <DistanceMeters>18293.717795201</DistanceMeters>
          </Trackpoint>
          <Trackpoint>
            <Time>2023-02-23T11:55:01.000Z</Time>
            <Position>
              <LatitudeDegrees>41.5083319880068302154541015625</LatitudeDegrees>
              <LongitudeDegrees>-4.5319476909935474395751953125</LongitudeDegrees>
            </Position>
            <AltitudeMeters>1307</AltitudeMeters>
            <DistanceMeters>18295.990503657</DistanceMeters>
          </Trackpoint>
          <Trackpoint>
            <Time>2023-02-23T11:55:02.000Z</Time>
            <Position>
              <LatitudeDegrees>41.50832503102719783782958984375</LatitudeDegrees>
              <LongitudeDegrees>-4.531952552497386932373046875</LongitudeDegrees>
            </Position>
            <AltitudeMeters>1307</AltitudeMeters>
            <DistanceMeters>18296.861437881</DistanceMeters>
          </Trackpoint>
          <Trackpoint>
            <Time>2023-02-23T11:55:07.000Z</Time>
            <Position>
              <LatitudeDegrees>41.5082944370806217193603515625</LatitudeDegrees>
              <LongitudeDegrees>-4.531974680721759796142578125</LongitudeDegrees>
            </Position>
            <AltitudeMeters>1307.199951171875</AltitudeMeters>
            <DistanceMeters>18300.733120576</DistanceMeters>
          </Trackpoint>
          <Trackpoint>
            <Time>2023-02-23T11:55:08.000Z</Time>
            <Position>
              <LatitudeDegrees>41.50829234160482883453369140625</LatitudeDegrees>
              <LongitudeDegrees>-4.53197040595114231109619140625</LongitudeDegrees>
            </Position>
            <AltitudeMeters>1307.4000244140625</AltitudeMeters>
            <DistanceMeters>18301.158092962</DistanceMeters>
          </Trackpoint>
          <Trackpoint>
            <Time>2023-02-23T11:55:11.000Z</Time>
            <Position>
              <LatitudeDegrees>41.50829301215708255767822265625</LatitudeDegrees>
              <LongitudeDegrees>-4.531919695436954498291015625</LongitudeDegrees>
            </Position>
            <AltitudeMeters>1307.4000244140625</AltitudeMeters>
            <DistanceMeters>18305.384378708</DistanceMeters>
          </Trackpoint>
          <Trackpoint>
            <Time>2023-02-23T11:55:14.000Z</Time>
            <Position>
              <LatitudeDegrees>41.50825914926826953887939453125</LatitudeDegrees>
              <LongitudeDegrees>-4.53189052641391754150390625</LongitudeDegrees>
            </Position>
            <AltitudeMeters>1307.199951171875</AltitudeMeters>
            <DistanceMeters>18309.86879397</DistanceMeters>
          </Trackpoint>
          <Trackpoint>
            <Time>2023-02-23T11:55:19.000Z</Time>
            <Position>
              <LatitudeDegrees>41.50821774266660213470458984375</LatitudeDegrees>
              <LongitudeDegrees>-4.531884491443634033203125</LongitudeDegrees>
            </Position>
            <AltitudeMeters>1307.5999755859375</AltitudeMeters>
            <DistanceMeters>18314.504695386</DistanceMeters>
          </Trackpoint>
          <Trackpoint>
            <Time>2023-02-23T11:55:21.000Z</Time>
            <Position>
              <LatitudeDegrees>41.50820265524089336395263671875</LatitudeDegrees>
              <LongitudeDegrees>-4.53187837265431880950927734375</LongitudeDegrees>
            </Position>
            <AltitudeMeters>1307.800048828125</AltitudeMeters>
            <DistanceMeters>18316.259476303</DistanceMeters>
          </Trackpoint>
          <Trackpoint>
            <Time>2023-02-23T11:55:22.000Z</Time>
            <Position>
              <LatitudeDegrees>41.508196033537387847900390625</LatitudeDegrees>
              <LongitudeDegrees>-4.53187501989305019378662109375</LongitudeDegrees>
            </Position>
            <AltitudeMeters>1308</AltitudeMeters>
            <DistanceMeters>18317.043086664</DistanceMeters>
          </Trackpoint>
          <Trackpoint>
            <Time>2023-02-23T11:55:24.000Z</Time>
            <Position>
              <LatitudeDegrees>41.5081747435033321380615234375</LatitudeDegrees>
              <LongitudeDegrees>-4.53186579979956150054931640625</LongitudeDegrees>
            </Position>
            <AltitudeMeters>1308.4000244140625</AltitudeMeters>
            <DistanceMeters>18319.535614015</DistanceMeters>
          </Trackpoint>
          <Trackpoint>
            <Time>2023-02-23T11:55:26.000Z</Time>
            <Position>
              <LatitudeDegrees>41.5081552974879741668701171875</LatitudeDegrees>
              <LongitudeDegrees>-4.53185926191508769989013671875</LongitudeDegrees>
            </Position>
            <AltitudeMeters>1308.5999755859375</AltitudeMeters>
            <DistanceMeters>18321.768236284</DistanceMeters>
          </Trackpoint>
          <Trackpoint>
            <Time>2023-02-23T11:55:28.000Z</Time>
            <Position>
              <LatitudeDegrees>41.50814079679548740386962890625</LatitudeDegrees>
              <LongitudeDegrees>-4.53186294995248317718505859375</LongitudeDegrees>
            </Position>
            <AltitudeMeters>1308.800048828125</AltitudeMeters>
            <DistanceMeters>18323.408651713</DistanceMeters>
          </Trackpoint>
          <Trackpoint>
            <Time>2023-02-23T11:55:31.000Z</Time>
            <Position>
              <LatitudeDegrees>41.508110873401165008544921875</LatitudeDegrees>
              <LongitudeDegrees>-4.531861357390880584716796875</LongitudeDegrees>
            </Position>
            <AltitudeMeters>1308.800048828125</AltitudeMeters>
            <DistanceMeters>18326.741367427</DistanceMeters>
          </Trackpoint>
          <Trackpoint>
            <Time>2023-02-23T11:55:37.000Z</Time>
            <Position>
              <LatitudeDegrees>41.5080446563661098480224609375</LatitudeDegrees>
              <LongitudeDegrees>-4.5318568311631679534912109375</LongitudeDegrees>
            </Position>
            <AltitudeMeters>1309.5999755859375</AltitudeMeters>
            <DistanceMeters>18334.121095811</DistanceMeters>
          </Trackpoint>
          <Trackpoint>
            <Time>2023-02-23T11:55:38.000Z</Time>
            <Position>
              <LatitudeDegrees>41.50803451426327228546142578125</LatitudeDegrees>
              <LongitudeDegrees>-4.5318568311631679534912109375</LongitudeDegrees>
            </Position>
            <AltitudeMeters>1309.800048828125</AltitudeMeters>
            <DistanceMeters>18335.249475525</DistanceMeters>
          </Trackpoint>
          <Trackpoint>
            <Time>2023-02-23T11:55:39.000Z</Time>
            <Position>
              <LatitudeDegrees>41.5080255456268787384033203125</LatitudeDegrees>
              <LongitudeDegrees>-4.53185691498219966888427734375</LongitudeDegrees>
            </Position>
            <AltitudeMeters>1310</AltitudeMeters>
            <DistanceMeters>18336.246124114</DistanceMeters>
          </Trackpoint>
          <Trackpoint>
            <Time>2023-02-23T11:55:47.000Z</Time>
            <Position>
              <LatitudeDegrees>41.5079776011407375335693359375</LatitudeDegrees>
              <LongitudeDegrees>-4.53188247978687286376953125</LongitudeDegrees>
            </Position>
            <AltitudeMeters>1310.5999755859375</AltitudeMeters>
            <DistanceMeters>18341.991901649</DistanceMeters>
          </Trackpoint>
          <Trackpoint>
            <Time>2023-02-23T11:55:48.000Z</Time>
            <Position>
              <LatitudeDegrees>41.50797902606427669525146484375</LatitudeDegrees>
              <LongitudeDegrees>-4.531889520585536956787109375</LongitudeDegrees>
            </Position>
            <AltitudeMeters>1310.800048828125</AltitudeMeters>
            <DistanceMeters>18342.607745144</DistanceMeters>
          </Trackpoint>
          <Trackpoint>
            <Time>2023-02-23T11:55:50.000Z</Time>
            <Position>
              <LatitudeDegrees>41.50798045098781585693359375</LatitudeDegrees>
              <LongitudeDegrees>-4.53188910149037837982177734375</LongitudeDegrees>
            </Position>
            <AltitudeMeters>1310.800048828125</AltitudeMeters>
            <DistanceMeters>18342.797798572</DistanceMeters>
          </Trackpoint>
          <Trackpoint>
            <Time>2023-02-23T11:55:54.000Z</Time>
            <Position>
              <LatitudeDegrees>41.50794667191803455352783203125</LatitudeDegrees>
              <LongitudeDegrees>-4.53187686391174793243408203125</LongitudeDegrees>
            </Position>
            <AltitudeMeters>1310.800048828125</AltitudeMeters>
            <DistanceMeters>18346.692734827</DistanceMeters>
          </Trackpoint>
          <Trackpoint>
            <Time>2023-02-23T11:55:56.000Z</Time>
            <Position>
              <LatitudeDegrees>41.50793485343456268310546875</LatitudeDegrees>
              <LongitudeDegrees>-4.5318685658276081085205078125</LongitudeDegrees>
            </Position>
            <AltitudeMeters>1311</AltitudeMeters>
            <DistanceMeters>18348.180138178</DistanceMeters>
          </Trackpoint>
          <Trackpoint>
            <Time>2023-02-23T11:56:01.000Z</Time>
            <Position>
              <LatitudeDegrees>41.50790358893573284149169921875</LatitudeDegrees>
              <LongitudeDegrees>-4.53184484504163265228271484375</LongitudeDegrees>
            </Position>
            <AltitudeMeters>1311.800048828125</AltitudeMeters>
            <DistanceMeters>18352.182556898</DistanceMeters>
          </Trackpoint>
          <Trackpoint>
            <Time>2023-02-23T11:56:02.000Z</Time>
            <Position>
              <LatitudeDegrees>41.50789218954741954803466796875</LatitudeDegrees>
              <LongitudeDegrees>-4.53184367157518863677978515625</LongitudeDegrees>
            </Position>
            <AltitudeMeters>1311.800048828125</AltitudeMeters>
            <DistanceMeters>18353.453927687</DistanceMeters>
          </Trackpoint>
          <Trackpoint>
            <Time>2023-02-23T11:56:11.000Z</Time>
            <Position>
              <LatitudeDegrees>41.50779864750802516937255859375</LatitudeDegrees>
              <LongitudeDegrees>-4.5318206213414669036865234375</LongitudeDegrees>
            </Position>
            <AltitudeMeters>1312.4000244140625</AltitudeMeters>
            <DistanceMeters>18364.040773715</DistanceMeters>
          </Trackpoint>
          <Trackpoint>
            <Time>2023-02-23T11:56:14.000Z</Time>
            <Position>
              <LatitudeDegrees>41.50777299888432025909423828125</LatitudeDegrees>
              <LongitudeDegrees>-4.5318186096847057342529296875</LongitudeDegrees>
            </Position>
            <AltitudeMeters>1313</AltitudeMeters>
            <DistanceMeters>18366.901062033</DistanceMeters>
          </Trackpoint>
          <Trackpoint>
            <Time>2023-02-23T11:56:16.000Z</Time>
            <Position>
              <LatitudeDegrees>41.50775891728699207305908203125</LatitudeDegrees>
              <LongitudeDegrees>-4.5318149216473102569580078125</LongitudeDegrees>
            </Position>
            <AltitudeMeters>1313.199951171875</AltitudeMeters>
            <DistanceMeters>18368.499658803</DistanceMeters>
          </Trackpoint>
          <Trackpoint>
            <Time>2023-02-23T11:56:17.000Z</Time>
            <Position>
              <LatitudeDegrees>41.5077519603073596954345703125</LatitudeDegrees>
              <LongitudeDegrees>-4.53181433491408824920654296875</LongitudeDegrees>
            </Position>
            <AltitudeMeters>1313.4000244140625</AltitudeMeters>
            <DistanceMeters>18369.27165948</DistanceMeters>
          </Trackpoint>
          <Trackpoint>
            <Time>2023-02-23T11:56:22.000Z</Time>
            <Position>
              <LatitudeDegrees>41.5077249705791473388671875</LatitudeDegrees>
              <LongitudeDegrees>-4.53180360607802867889404296875</LongitudeDegrees>
            </Position>
            <AltitudeMeters>1314</AltitudeMeters>
            <DistanceMeters>18372.406100925</DistanceMeters>
          </Trackpoint>
          <Trackpoint>
            <Time>2023-02-23T11:56:23.000Z</Time>
            <Position>
              <LatitudeDegrees>41.50772522203624248504638671875</LatitudeDegrees>
              <LongitudeDegrees>-4.5318021811544895172119140625</LongitudeDegrees>
            </Position>
            <AltitudeMeters>1314.199951171875</AltitudeMeters>
            <DistanceMeters>18372.540488993</DistanceMeters>
          </Trackpoint>
          <Trackpoint>
            <Time>2023-02-23T11:56:29.000Z</Time>
            <Position>
              <LatitudeDegrees>41.5077006630599498748779296875</LatitudeDegrees>
              <LongitudeDegrees>-4.531779550015926361083984375</LongitudeDegrees>
            </Position>
            <AltitudeMeters>1314.800048828125</AltitudeMeters>
            <DistanceMeters>18375.862348926</DistanceMeters>
          </Trackpoint>
          <Trackpoint>
            <Time>2023-02-23T11:56:32.000Z</Time>
            <Position>
              <LatitudeDegrees>41.50767208077013492584228515625</LatitudeDegrees>
              <LongitudeDegrees>-4.53176840208470821380615234375</LongitudeDegrees>
            </Position>
            <AltitudeMeters>1315</AltitudeMeters>
            <DistanceMeters>18379.176043685</DistanceMeters>
          </Trackpoint>
          <Trackpoint>
            <Time>2023-02-23T11:56:34.000Z</Time>
            <Position>
              <LatitudeDegrees>41.50764861144125461578369140625</LatitudeDegrees>
              <LongitudeDegrees>-4.53176940791308879852294921875</LongitudeDegrees>
            </Position>
            <AltitudeMeters>1315.4000244140625</AltitudeMeters>
            <DistanceMeters>18381.788846355</DistanceMeters>
          </Trackpoint>
          <Trackpoint>
            <Time>2023-02-23T11:56:38.000Z</Time>
            <Position>
              <LatitudeDegrees>41.5076252259314060211181640625</LatitudeDegrees>
              <LongitudeDegrees>-4.53178147785365581512451171875</LongitudeDegrees>
            </Position>
            <AltitudeMeters>1315.800048828125</AltitudeMeters>
            <DistanceMeters>18384.578815153</DistanceMeters>
          </Trackpoint>
          <Trackpoint>
            <Time>2023-02-23T11:56:41.000Z</Time>
            <Position>
              <LatitudeDegrees>41.50759178213775157928466796875</LatitudeDegrees>
              <LongitudeDegrees>-4.53177996911108493804931640625</LongitudeDegrees>
            </Position>
            <AltitudeMeters>1316.199951171875</AltitudeMeters>
            <DistanceMeters>18388.303086547</DistanceMeters>
          </Trackpoint>
          <Trackpoint>
            <Time>2023-02-23T11:56:44.000Z</Time>
            <Position>
              <LatitudeDegrees>41.5075568296015262603759765625</LatitudeDegrees>
              <LongitudeDegrees>-4.53178583644330501556396484375</LongitudeDegrees>
            </Position>
            <AltitudeMeters>1316.5999755859375</AltitudeMeters>
            <DistanceMeters>18392.223442412</DistanceMeters>
          </Trackpoint>
          <Trackpoint>
            <Time>2023-02-23T11:56:46.000Z</Time>
            <Position>
              <LatitudeDegrees>41.50753294117748737335205078125</LatitudeDegrees>
              <LongitudeDegrees>-4.53179396688938140869140625</LongitudeDegrees>
            </Position>
            <AltitudeMeters>1316.5999755859375</AltitudeMeters>
            <DistanceMeters>18394.967724423</DistanceMeters>
          </Trackpoint>
          <Trackpoint>
            <Time>2023-02-23T11:56:53.000Z</Time>
            <Position>
              <LatitudeDegrees>41.50748868472874164581298828125</LatitudeDegrees>
              <LongitudeDegrees>-4.53180159442126750946044921875</LongitudeDegrees>
            </Position>
            <AltitudeMeters>1317.199951171875</AltitudeMeters>
            <DistanceMeters>18399.934631795</DistanceMeters>
          </Trackpoint>
          <Trackpoint>
            <Time>2023-02-23T11:56:58.000Z</Time>
            <Position>
              <LatitudeDegrees>41.50746689178049564361572265625</LatitudeDegrees>
              <LongitudeDegrees>-4.5317773707211017608642578125</LongitudeDegrees>
            </Position>
            <AltitudeMeters>1317.4000244140625</AltitudeMeters>
            <DistanceMeters>18403.092036488</DistanceMeters>
          </Trackpoint>
          <Trackpoint>
            <Time>2023-02-23T11:56:59.000Z</Time>
            <Position>
              <LatitudeDegrees>41.5074626170098781585693359375</LatitudeDegrees>
              <LongitudeDegrees>-4.53176957555115222930908203125</LongitudeDegrees>
            </Position>
            <AltitudeMeters>1317.4000244140625</AltitudeMeters>
            <DistanceMeters>18403.898364897</DistanceMeters>
          </Trackpoint>
          <Trackpoint>
            <Time>2023-02-23T11:57:00.000Z</Time>
            <Position>
              <LatitudeDegrees>41.50745968334376811981201171875</LatitudeDegrees>
              <LongitudeDegrees>-4.53175633214414119720458984375</LongitudeDegrees>
            </Position>
            <AltitudeMeters>1317.5999755859375</AltitudeMeters>
            <DistanceMeters>18405.046577056</DistanceMeters>
          </Trackpoint>
          <Trackpoint>
            <Time>2023-02-23T11:57:04.000Z</Time>
            <Position>
              <LatitudeDegrees>41.50747376494109630584716796875</LatitudeDegrees>
              <LongitudeDegrees>-4.5316677354276180267333984375</LongitudeDegrees>
            </Position>
            <AltitudeMeters>1317.800048828125</AltitudeMeters>
            <DistanceMeters>18412.595072427</DistanceMeters>
          </Trackpoint>
          <Trackpoint>
            <Time>2023-02-23T11:57:07.000Z</Time>
            <Position>
              <LatitudeDegrees>41.50748692452907562255859375</LatitudeDegrees>
              <LongitudeDegrees>-4.53157679177820682525634765625</LongitudeDegrees>
            </Position>
            <AltitudeMeters>1317.5999755859375</AltitudeMeters>
            <DistanceMeters>18420.315079197</DistanceMeters>
          </Trackpoint>
          <Trackpoint>
            <Time>2023-02-23T11:57:11.000Z</Time>
            <Position>
              <LatitudeDegrees>41.507526151835918426513671875</LatitudeDegrees>
              <LongitudeDegrees>-4.531452655792236328125</LongitudeDegrees>
            </Position>
            <AltitudeMeters>1317.5999755859375</AltitudeMeters>
            <DistanceMeters>18431.545130293</DistanceMeters>
          </Trackpoint>
          <Trackpoint>
            <Time>2023-02-23T11:57:17.000Z</Time>
            <Position>
              <LatitudeDegrees>41.50758373551070690155029296875</LatitudeDegrees>
              <LongitudeDegrees>-4.53126691281795501708984375</LongitudeDegrees>
            </Position>
            <AltitudeMeters>1317.800048828125</AltitudeMeters>
            <DistanceMeters>18448.30111838</DistanceMeters>
          </Trackpoint>
          <Trackpoint>
            <Time>2023-02-23T11:57:19.000Z</Time>
            <Position>
              <LatitudeDegrees>41.50759010575711727142333984375</LatitudeDegrees>
              <LongitudeDegrees>-4.531203210353851318359375</LongitudeDegrees>
            </Position>
            <AltitudeMeters>1318.199951171875</AltitudeMeters>
            <DistanceMeters>18453.658130882</DistanceMeters>
          </Trackpoint>
          <Trackpoint>
            <Time>2023-02-23T11:57:23.000Z</Time>
            <Position>
              <LatitudeDegrees>41.50762413628399372100830078125</LatitudeDegrees>
              <LongitudeDegrees>-4.531074799597263336181640625</LongitudeDegrees>
            </Position>
            <AltitudeMeters>1318.800048828125</AltitudeMeters>
            <DistanceMeters>18465.011337969</DistanceMeters>
          </Trackpoint>
          <Trackpoint>
            <Time>2023-02-23T11:57:31.000Z</Time>
            <Position>
              <LatitudeDegrees>41.507694460451602935791015625</LatitudeDegrees>
              <LongitudeDegrees>-4.53084186650812625885009765625</LongitudeDegrees>
            </Position>
            <AltitudeMeters>1319.199951171875</AltitudeMeters>
            <DistanceMeters>18485.944841012</DistanceMeters>
          </Trackpoint>
          <Trackpoint>
            <Time>2023-02-23T11:57:34.000Z</Time>
            <Position>
              <LatitudeDegrees>41.50772606022655963897705078125</LatitudeDegrees>
              <LongitudeDegrees>-4.5307497493922710418701171875</LongitudeDegrees>
            </Position>
            <AltitudeMeters>1319.4000244140625</AltitudeMeters>
            <DistanceMeters>18494.389930932</DistanceMeters>
          </Trackpoint>
          <Trackpoint>
            <Time>2023-02-23T11:57:37.000Z</Time>
            <Position>
              <LatitudeDegrees>41.5077482722699642181396484375</LatitudeDegrees>
              <LongitudeDegrees>-4.530656039714813232421875</LongitudeDegrees>
            </Position>
            <AltitudeMeters>1319.800048828125</AltitudeMeters>
            <DistanceMeters>18502.583195744</DistanceMeters>
          </Trackpoint>
          <Trackpoint>
            <Time>2023-02-23T11:57:39.000Z</Time>
            <Position>
              <LatitudeDegrees>41.50775874964892864227294921875</LatitudeDegrees>
              <LongitudeDegrees>-4.53060231171548366546630859375</LongitudeDegrees>
            </Position>
            <AltitudeMeters>1320</AltitudeMeters>
            <DistanceMeters>18507.211299171</DistanceMeters>
          </Trackpoint>
          <Trackpoint>
            <Time>2023-02-23T11:57:44.000Z</Time>
            <Position>
              <LatitudeDegrees>41.50776796974241733551025390625</LatitudeDegrees>
              <LongitudeDegrees>-4.53046895563602447509765625</LongitudeDegrees>
            </Position>
            <AltitudeMeters>1320.4000244140625</AltitudeMeters>
            <DistanceMeters>18518.373601566</DistanceMeters>
          </Trackpoint>
          <Trackpoint>
            <Time>2023-02-23T11:57:45.000Z</Time>
            <Position>
              <LatitudeDegrees>41.5077660419046878814697265625</LatitudeDegrees>
              <LongitudeDegrees>-4.530440457165241241455078125</LongitudeDegrees>
            </Position>
            <AltitudeMeters>1320.4000244140625</AltitudeMeters>
            <DistanceMeters>18520.758753167</DistanceMeters>
          </Trackpoint>
          <Trackpoint>
            <Time>2023-02-23T11:57:48.000Z</Time>
            <Position>
              <LatitudeDegrees>41.50775891728699207305908203125</LatitudeDegrees>
              <LongitudeDegrees>-4.5303611643612384796142578125</LongitudeDegrees>
            </Position>
            <AltitudeMeters>1320.5999755859375</AltitudeMeters>
            <DistanceMeters>18527.414694501</DistanceMeters>
          </Trackpoint>
          <Trackpoint>
            <Time>2023-02-23T11:57:53.000Z</Time>
            <Position>
              <LatitudeDegrees>41.50778775103390216827392578125</LatitudeDegrees>
              <LongitudeDegrees>-4.53018707223236560821533203125</LongitudeDegrees>
            </Position>
            <AltitudeMeters>1321.199951171875</AltitudeMeters>
            <DistanceMeters>18542.275973371</DistanceMeters>
          </Trackpoint>
          <Trackpoint>
            <Time>2023-02-23T11:57:54.000Z</Time>
            <Position>
              <LatitudeDegrees>41.50779278017580509185791015625</LatitudeDegrees>
              <LongitudeDegrees>-4.530154131352901458740234375</LongitudeDegrees>
            </Position>
            <AltitudeMeters>1321.4000244140625</AltitudeMeters>
            <DistanceMeters>18545.077247444</DistanceMeters>
          </Trackpoint>
          <Trackpoint>
            <Time>2023-02-23T11:57:58.000Z</Time>
            <Position>
              <LatitudeDegrees>41.50783435441553592681884765625</LatitudeDegrees>
              <LongitudeDegrees>-4.5300141535699367523193359375</LongitudeDegrees>
            </Position>
            <AltitudeMeters>1321.5999755859375</AltitudeMeters>
            <DistanceMeters>18557.628330408</DistanceMeters>
          </Trackpoint>
          <Trackpoint>
            <Time>2023-02-23T11:58:00.000Z</Time>
            <Position>
              <LatitudeDegrees>41.5078535489737987518310546875</LatitudeDegrees>
              <LongitudeDegrees>-4.52994533814489841461181640625</LongitudeDegrees>
            </Position>
            <AltitudeMeters>1321.800048828125</AltitudeMeters>
            <DistanceMeters>18563.749998256</DistanceMeters>
          </Trackpoint>
          <Trackpoint>
            <Time>2023-02-23T11:58:04.000Z</Time>
            <Position>
              <LatitudeDegrees>41.50787408463656902313232421875</LatitudeDegrees>
              <LongitudeDegrees>-4.5298223756253719329833984375</LongitudeDegrees>
            </Position>
            <AltitudeMeters>1322</AltitudeMeters>
            <DistanceMeters>18574.250772677</DistanceMeters>
          </Trackpoint>
          <Trackpoint>
            <Time>2023-02-23T11:58:07.000Z</Time>
            <Position>
              <LatitudeDegrees>41.50789336301386356353759765625</LatitudeDegrees>
              <LongitudeDegrees>-4.52972740866243839263916015625</LongitudeDegrees>
            </Position>
            <AltitudeMeters>1322</AltitudeMeters>
            <DistanceMeters>18582.452849823</DistanceMeters>
          </Trackpoint>
          <Trackpoint>
            <Time>2023-02-23T11:58:16.000Z</Time>
            <Position>
              <LatitudeDegrees>41.50797114707529544830322265625</LatitudeDegrees>
              <LongitudeDegrees>-4.52944971621036529541015625</LongitudeDegrees>
            </Position>
            <AltitudeMeters>1322.4000244140625</AltitudeMeters>
            <DistanceMeters>18607.164546439</DistanceMeters>
          </Trackpoint>
          <Trackpoint>
            <Time>2023-02-23T11:58:17.000Z</Time>
            <Position>
              <LatitudeDegrees>41.50796896778047084808349609375</LatitudeDegrees>
              <LongitudeDegrees>-4.5294187031686305999755859375</LongitudeDegrees>
            </Position>
            <AltitudeMeters>1322.4000244140625</AltitudeMeters>
            <DistanceMeters>18609.760011142</DistanceMeters>
          </Trackpoint>
          <Trackpoint>
            <Time>2023-02-23T11:58:19.000Z</Time>
            <Position>
              <LatitudeDegrees>41.5079368650913238525390625</LatitudeDegrees>
              <LongitudeDegrees>-4.52936480753123760223388671875</LongitudeDegrees>
            </Position>
            <AltitudeMeters>1322.5999755859375</AltitudeMeters>
            <DistanceMeters>18615.499498825</DistanceMeters>
          </Trackpoint>
          <Trackpoint>
            <Time>2023-02-23T11:58:21.000Z</Time>
            <Position>
              <LatitudeDegrees>41.5078944526612758636474609375</LatitudeDegrees>
              <LongitudeDegrees>-4.52934167347848415374755859375</LongitudeDegrees>
            </Position>
            <AltitudeMeters>1322.800048828125</AltitudeMeters>
            <DistanceMeters>18620.598282022</DistanceMeters>
          </Trackpoint>
          <Trackpoint>
            <Time>2023-02-23T11:58:25.000Z</Time>
            <Position>
              <LatitudeDegrees>41.50782085955142974853515625</LatitudeDegrees>
              <LongitudeDegrees>-4.52936078421771526336669921875</LongitudeDegrees>
            </Position>
            <AltitudeMeters>1323.5999755859375</AltitudeMeters>
            <DistanceMeters>18628.942796355</DistanceMeters>
          </Trackpoint>
          <Trackpoint>
            <Time>2023-02-23T11:58:27.000Z</Time>
            <Position>
              <LatitudeDegrees>41.50779043324291706085205078125</LatitudeDegrees>
              <LongitudeDegrees>-4.5293761231005191802978515625</LongitudeDegrees>
            </Position>
            <AltitudeMeters>1323.5999755859375</AltitudeMeters>
            <DistanceMeters>18632.56255338</DistanceMeters>
          </Trackpoint>
          <Trackpoint>
            <Time>2023-02-23T11:58:31.000Z</Time>
            <Position>
              <LatitudeDegrees>41.5077667124569416046142578125</LatitudeDegrees>
              <LongitudeDegrees>-4.52939498238265514373779296875</LongitudeDegrees>
            </Position>
            <AltitudeMeters>1323.800048828125</AltitudeMeters>
            <DistanceMeters>18635.635900084</DistanceMeters>
          </Trackpoint>
          <Trackpoint>
            <Time>2023-02-23T11:58:33.000Z</Time>
            <Position>
              <LatitudeDegrees>41.50776729919016361236572265625</LatitudeDegrees>
              <LongitudeDegrees>-4.52940219081938266754150390625</LongitudeDegrees>
            </Position>
            <AltitudeMeters>1323.800048828125</AltitudeMeters>
            <DistanceMeters>18636.236901796</DistanceMeters>
          </Trackpoint>
          <Trackpoint>
            <Time>2023-02-23T11:58:39.000Z</Time>
            <Position>
              <LatitudeDegrees>41.5077831409871578216552734375</LatitudeDegrees>
              <LongitudeDegrees>-4.5294083096086978912353515625</LongitudeDegrees>
            </Position>
            <AltitudeMeters>1323.4000244140625</AltitudeMeters>
            <DistanceMeters>18638.069710688</DistanceMeters>
          </Trackpoint>
          <Trackpoint>
            <Time>2023-02-23T11:58:40.000Z</Time>
            <Position>
              <LatitudeDegrees>41.507786326110363006591796875</LatitudeDegrees>
              <LongitudeDegrees>-4.52940738759934902191162109375</LongitudeDegrees>
            </Position>
            <AltitudeMeters>1323.4000244140625</AltitudeMeters>
            <DistanceMeters>18638.449817546</DistanceMeters>
          </Trackpoint>
          <Trackpoint>
            <Time>2023-02-23T11:58:44.000Z</Time>
            <Position>
              <LatitudeDegrees>41.50779713876545429229736328125</LatitudeDegrees>
              <LongitudeDegrees>-4.5293972454965114593505859375</LongitudeDegrees>
            </Position>
            <AltitudeMeters>1323.800048828125</AltitudeMeters>
            <DistanceMeters>18639.918894899</DistanceMeters>
          </Trackpoint>
          <Trackpoint>
            <Time>2023-02-23T11:58:46.000Z</Time>
            <Position>
              <LatitudeDegrees>41.50779378600418567657470703125</LatitudeDegrees>
              <LongitudeDegrees>-4.52939070761203765869140625</LongitudeDegrees>
            </Position>
            <AltitudeMeters>1323.800048828125</AltitudeMeters>
            <DistanceMeters>18640.577259289</DistanceMeters>
          </Trackpoint>
          <Trackpoint>
            <Time>2023-02-23T11:58:48.000Z</Time>
            <Position>
              <LatitudeDegrees>41.50779764167964458465576171875</LatitudeDegrees>
              <LongitudeDegrees>-4.5293918810784816741943359375</LongitudeDegrees>
            </Position>
            <AltitudeMeters>1323.800048828125</AltitudeMeters>
            <DistanceMeters>18641.022974087</DistanceMeters>
          </Trackpoint>
          <Trackpoint>
            <Time>2023-02-23T11:58:53.000Z</Time>
            <Position>
              <LatitudeDegrees>41.5077915228903293609619140625</LatitudeDegrees>
              <LongitudeDegrees>-4.52938945032656192779541015625</LongitudeDegrees>
            </Position>
            <AltitudeMeters>1324</AltitudeMeters>
            <DistanceMeters>18641.727711063</DistanceMeters>
          </Trackpoint>
          <Trackpoint>
            <Time>2023-02-23T11:59:00.000Z</Time>
            <Position>
              <LatitudeDegrees>41.50777467526495456695556640625</LatitudeDegrees>
              <LongitudeDegrees>-4.52940185554325580596923828125</LongitudeDegrees>
            </Position>
            <AltitudeMeters>1323.800048828125</AltitudeMeters>
            <DistanceMeters>18643.867395328</DistanceMeters>
          </Trackpoint>
          <Trackpoint>
            <Time>2023-02-23T11:59:05.000Z</Time>
            <Position>
              <LatitudeDegrees>41.50777048431336879730224609375</LatitudeDegrees>
              <LongitudeDegrees>-4.52939548529684543609619140625</LongitudeDegrees>
            </Position>
            <AltitudeMeters>1323.199951171875</AltitudeMeters>
            <DistanceMeters>18644.578510144</DistanceMeters>
          </Trackpoint>
          <Trackpoint>
            <Time>2023-02-23T11:59:08.000Z</Time>
            <Position>
              <LatitudeDegrees>41.5077693946659564971923828125</LatitudeDegrees>
              <LongitudeDegrees>-4.5293938927352428436279296875</LongitudeDegrees>
            </Position>
            <AltitudeMeters>1322.800048828125</AltitudeMeters>
            <DistanceMeters>18644.768563573</DistanceMeters>
          </Trackpoint>
          <Trackpoint>
            <Time>2023-02-23T11:59:11.000Z</Time>
            <Position>
              <LatitudeDegrees>41.5077705681324005126953125</LatitudeDegrees>
              <LongitudeDegrees>-4.52939313836395740509033203125</LongitudeDegrees>
            </Position>
            <AltitudeMeters>1322.5999755859375</AltitudeMeters>
            <DistanceMeters>18644.902951641</DistanceMeters>
          </Trackpoint>
          <Trackpoint>
            <Time>2023-02-23T11:59:21.000Z</Time>
            <Position>
              <LatitudeDegrees>41.5077630244195461273193359375</LatitudeDegrees>
              <LongitudeDegrees>-4.5293992571532726287841796875</LongitudeDegrees>
            </Position>
            <AltitudeMeters>1323</AltitudeMeters>
            <DistanceMeters>18645.881311545</DistanceMeters>
          </Trackpoint>
          <Trackpoint>
            <Time>2023-02-23T11:59:24.000Z</Time>
            <Position>
              <LatitudeDegrees>41.5077625215053558349609375</LatitudeDegrees>
              <LongitudeDegrees>-4.5294012688100337982177734375</LongitudeDegrees>
            </Position>
            <AltitudeMeters>1323.5999755859375</AltitudeMeters>
            <DistanceMeters>18646.071364974</DistanceMeters>
          </Trackpoint>
          <Trackpoint>
            <Time>2023-02-23T11:59:28.000Z</Time>
            <Position>
              <LatitudeDegrees>41.50776109658181667327880859375</LatitudeDegrees>
              <LongitudeDegrees>-4.52939833514392375946044921875</LongitudeDegrees>
            </Position>
            <AltitudeMeters>1323.4000244140625</AltitudeMeters>
            <DistanceMeters>18646.37186583</DistanceMeters>
          </Trackpoint>
          <Trackpoint>
            <Time>2023-02-23T11:59:29.000Z</Time>
            <Position>
              <LatitudeDegrees>41.50776025839149951934814453125</LatitudeDegrees>
              <LongitudeDegrees>-4.52939816750586032867431640625</LongitudeDegrees>
            </Position>
            <AltitudeMeters>1323.4000244140625</AltitudeMeters>
            <DistanceMeters>18646.466892545</DistanceMeters>
          </Trackpoint>
          <Trackpoint>
            <Time>2023-02-23T11:59:37.000Z</Time>
            <Position>
              <LatitudeDegrees>41.50776914320886135101318359375</LatitudeDegrees>
              <LongitudeDegrees>-4.5294039510190486907958984375</LongitudeDegrees>
            </Position>
            <AltitudeMeters>1323.5999755859375</AltitudeMeters>
            <DistanceMeters>18647.566906292</DistanceMeters>
          </Trackpoint>
          <Trackpoint>
            <Time>2023-02-23T11:59:38.000Z</Time>
            <Position>
              <LatitudeDegrees>41.50776696391403675079345703125</LatitudeDegrees>
              <LongitudeDegrees>-4.52940772287547588348388671875</LongitudeDegrees>
            </Position>
            <AltitudeMeters>1323.5999755859375</AltitudeMeters>
            <DistanceMeters>18647.958711472</DistanceMeters>
          </Trackpoint>
          <Trackpoint>
            <Time>2023-02-23T11:59:41.000Z</Time>
            <Position>
              <LatitudeDegrees>41.50776947848498821258544921875</LatitudeDegrees>
              <LongitudeDegrees>-4.52941928990185260772705078125</LongitudeDegrees>
            </Position>
            <AltitudeMeters>1324.199951171875</AltitudeMeters>
            <DistanceMeters>18648.964379689</DistanceMeters>
          </Trackpoint>
          <Trackpoint>
            <Time>2023-02-23T11:59:43.000Z</Time>
            <Position>
              <LatitudeDegrees>41.50776612572371959686279296875</LatitudeDegrees>
              <LongitudeDegrees>-4.5294240675866603851318359375</LongitudeDegrees>
            </Position>
            <AltitudeMeters>1324.199951171875</AltitudeMeters>
            <DistanceMeters>18649.510266602</DistanceMeters>
          </Trackpoint>
          <Trackpoint>
            <Time>2023-02-23T11:59:44.000Z</Time>
            <Position>
              <LatitudeDegrees>41.5077660419046878814697265625</LatitudeDegrees>
              <LongitudeDegrees>-4.52942381612956523895263671875</LongitudeDegrees>
            </Position>
            <AltitudeMeters>1324</AltitudeMeters>
            <DistanceMeters>18649.510266602</DistanceMeters>
          </Trackpoint>
          <Trackpoint>
            <Time>2023-02-23T11:59:46.000Z</Time>
            <Position>
              <LatitudeDegrees>41.5077677182853221893310546875</LatitudeDegrees>
              <LongitudeDegrees>-4.5294208824634552001953125</LongitudeDegrees>
            </Position>
            <AltitudeMeters>1323.800048828125</AltitudeMeters>
            <DistanceMeters>18649.810767458</DistanceMeters>
          </Trackpoint>
          <Trackpoint>
            <Time>2023-02-23T11:59:50.000Z</Time>
            <Position>
              <LatitudeDegrees>41.5077663771808147430419921875</LatitudeDegrees>
              <LongitudeDegrees>-4.529419206082820892333984375</LongitudeDegrees>
            </Position>
            <AltitudeMeters>1323.4000244140625</AltitudeMeters>
            <DistanceMeters>18650.000820887</DistanceMeters>
          </Trackpoint>
          <Trackpoint>
            <Time>2023-02-23T11:59:54.000Z</Time>
            <Position>
              <LatitudeDegrees>41.5077678859233856201171875</LatitudeDegrees>
              <LongitudeDegrees>-4.5294230617582798004150390625</LongitudeDegrees>
            </Position>
            <AltitudeMeters>1323.4000244140625</AltitudeMeters>
            <DistanceMeters>18650.356378295</DistanceMeters>
          </Trackpoint>
          <Trackpoint>
            <Time>2023-02-23T11:59:55.000Z</Time>
            <Position>
              <LatitudeDegrees>41.50776796974241733551025390625</LatitudeDegrees>
              <LongitudeDegrees>-4.5294223912060260772705078125</LongitudeDegrees>
            </Position>
            <AltitudeMeters>1323.4000244140625</AltitudeMeters>
            <DistanceMeters>18650.451405009</DistanceMeters>
          </Trackpoint>
          <Trackpoint>
            <Time>2023-02-23T12:00:01.000Z</Time>
            <Position>
              <LatitudeDegrees>41.507762856781482696533203125</LatitudeDegrees>
              <LongitudeDegrees>-4.5294223912060260772705078125</LongitudeDegrees>
            </Position>
            <AltitudeMeters>1323.4000244140625</AltitudeMeters>
            <DistanceMeters>18651.021565296</DistanceMeters>
          </Trackpoint>
          <Trackpoint>
            <Time>2023-02-23T12:00:06.000Z</Time>
            <Position>
              <LatitudeDegrees>41.50776344351470470428466796875</LatitudeDegrees>
              <LongitudeDegrees>-4.52941878698766231536865234375</LongitudeDegrees>
            </Position>
            <AltitudeMeters>1323.199951171875</AltitudeMeters>
            <DistanceMeters>18651.322066151</DistanceMeters>
          </Trackpoint>
          <Trackpoint>
            <Time>2023-02-23T12:00:11.000Z</Time>
            <Position>
              <LatitudeDegrees>41.5077603422105312347412109375</LatitudeDegrees>
              <LongitudeDegrees>-4.5294155180454254150390625</LongitudeDegrees>
            </Position>
            <AltitudeMeters>1323.4000244140625</AltitudeMeters>
            <DistanceMeters>18651.747038537</DistanceMeters>
          </Trackpoint>
          <Trackpoint>
            <Time>2023-02-23T12:00:15.000Z</Time>
            <Position>
              <LatitudeDegrees>41.5077529661357402801513671875</LatitudeDegrees>
              <LongitudeDegrees>-4.529416523873805999755859375</LongitudeDegrees>
            </Position>
            <AltitudeMeters>1323.5999755859375</AltitudeMeters>
            <DistanceMeters>18652.575462227</DistanceMeters>
          </Trackpoint>
          <Trackpoint>
            <Time>2023-02-23T12:00:18.000Z</Time>
            <Position>
              <LatitudeDegrees>41.5077539719641208648681640625</LatitudeDegrees>
              <LongitudeDegrees>-4.52942096628248691558837890625</LongitudeDegrees>
            </Position>
            <AltitudeMeters>1323.800048828125</AltitudeMeters>
            <DistanceMeters>18652.955569085</DistanceMeters>
          </Trackpoint>
          <Trackpoint>
            <Time>2023-02-23T12:00:24.000Z</Time>
            <Position>
              <LatitudeDegrees>41.507740728557109832763671875</LatitudeDegrees>
              <LongitudeDegrees>-4.529442675411701202392578125</LongitudeDegrees>
            </Position>
            <AltitudeMeters>1324</AltitudeMeters>
            <DistanceMeters>18655.289050624</DistanceMeters>
          </Trackpoint>
          <Trackpoint>
            <Time>2023-02-23T12:00:26.000Z</Time>
            <Position>
              <LatitudeDegrees>41.50774165056645870208740234375</LatitudeDegrees>
              <LongitudeDegrees>-4.5294428430497646331787109375</LongitudeDegrees>
            </Position>
            <AltitudeMeters>1324</AltitudeMeters>
            <DistanceMeters>18655.384077339</DistanceMeters>
          </Trackpoint>
          <Trackpoint>
            <Time>2023-02-23T12:00:27.000Z</Time>
            <Position>
              <LatitudeDegrees>41.5077415667474269866943359375</LatitudeDegrees>
              <LongitudeDegrees>-4.52944225631654262542724609375</LongitudeDegrees>
            </Position>
            <AltitudeMeters>1324</AltitudeMeters>
            <DistanceMeters>18655.384077339</DistanceMeters>
          </Trackpoint>
          <Trackpoint>
            <Time>2023-02-23T12:00:36.000Z</Time>
            <Position>
              <LatitudeDegrees>41.50774349458515644073486328125</LatitudeDegrees>
              <LongitudeDegrees>-4.52945382334291934967041015625</LongitudeDegrees>
            </Position>
            <AltitudeMeters>1323.4000244140625</AltitudeMeters>
            <DistanceMeters>18656.371623923</DistanceMeters>
          </Trackpoint>
          <Trackpoint>
            <Time>2023-02-23T12:00:41.000Z</Time>
            <Position>
              <LatitudeDegrees>41.507730670273303985595703125</LatitudeDegrees>
              <LongitudeDegrees>-4.52946983277797698974609375</LongitudeDegrees>
            </Position>
            <AltitudeMeters>1323.4000244140625</AltitudeMeters>
            <DistanceMeters>18658.323723372</DistanceMeters>
          </Trackpoint>
          <Trackpoint>
            <Time>2023-02-23T12:00:42.000Z</Time>
            <Position>
              <LatitudeDegrees>41.507723294198513031005859375</LatitudeDegrees>
              <LongitudeDegrees>-4.52948148362338542938232421875</LongitudeDegrees>
            </Position>
            <AltitudeMeters>1323.5999755859375</AltitudeMeters>
            <DistanceMeters>18659.591537872</DistanceMeters>
          </Trackpoint>
          <Trackpoint>
            <Time>2023-02-23T12:00:48.000Z</Time>
            <Position>
              <LatitudeDegrees>41.50764374993741512298583984375</LatitudeDegrees>
              <LongitudeDegrees>-4.52959581278264522552490234375</LongitudeDegrees>
            </Position>
            <AltitudeMeters>1324.199951171875</AltitudeMeters>
            <DistanceMeters>18672.598747883</DistanceMeters>
          </Trackpoint>
          <Trackpoint>
            <Time>2023-02-23T12:00:49.000Z</Time>
            <Position>
              <LatitudeDegrees>41.507624723017215728759765625</LatitudeDegrees>
              <LongitudeDegrees>-4.5296180248260498046875</LongitudeDegrees>
            </Position>
            <AltitudeMeters>1324.199951171875</AltitudeMeters>
            <DistanceMeters>18675.411281787</DistanceMeters>
          </Trackpoint>
          <Trackpoint>
            <Time>2023-02-23T12:00:52.000Z</Time>
            <Position>
              <LatitudeDegrees>41.5075640380382537841796875</LatitudeDegrees>
              <LongitudeDegrees>-4.52969337813556194305419921875</LongitudeDegrees>
            </Position>
            <AltitudeMeters>1324</AltitudeMeters>
            <DistanceMeters>18684.635238653</DistanceMeters>
          </Trackpoint>
          <Trackpoint>
            <Time>2023-02-23T12:00:55.000Z</Time>
            <Position>
              <LatitudeDegrees>41.5074914507567882537841796875</LatitudeDegrees>
              <LongitudeDegrees>-4.52977987937629222869873046875</LongitudeDegrees>
            </Position>
            <AltitudeMeters>1323.800048828125</AltitudeMeters>
            <DistanceMeters>18695.464115451</DistanceMeters>
          </Trackpoint>
          <Trackpoint>
            <Time>2023-02-23T12:00:56.000Z</Time>
            <Position>
              <LatitudeDegrees>41.5074703283607959747314453125</LatitudeDegrees>
              <LongitudeDegrees>-4.529810138046741485595703125</LongitudeDegrees>
            </Position>
            <AltitudeMeters>1323.800048828125</AltitudeMeters>
            <DistanceMeters>18698.911372418</DistanceMeters>
          </Trackpoint>
          <Trackpoint>
            <Time>2023-02-23T12:01:03.000Z</Time>
            <Position>
              <LatitudeDegrees>41.5072698332369327545166015625</LatitudeDegrees>
              <LongitudeDegrees>-4.53004424460232257843017578125</LongitudeDegrees>
            </Position>
            <AltitudeMeters>1323.5999755859375</AltitudeMeters>
            <DistanceMeters>18728.554833736</DistanceMeters>
          </Trackpoint>
          <Trackpoint>
            <Time>2023-02-23T12:01:10.000Z</Time>
            <Position>
              <LatitudeDegrees>41.50708593428134918212890625</LatitudeDegrees>
              <LongitudeDegrees>-4.530266784131526947021484375</LongitudeDegrees>
            </Position>
            <AltitudeMeters>1324.199951171875</AltitudeMeters>
            <DistanceMeters>18756.177385016</DistanceMeters>
          </Trackpoint>
          <Trackpoint>
            <Time>2023-02-23T12:01:14.000Z</Time>
            <Position>
              <LatitudeDegrees>41.50698945857584476470947265625</LatitudeDegrees>
              <LongitudeDegrees>-4.53038035891950130462646484375</LongitudeDegrees>
            </Position>
            <AltitudeMeters>1324</AltitudeMeters>
            <DistanceMeters>18770.492080076</DistanceMeters>
          </Trackpoint>
          <Trackpoint>
            <Time>2023-02-23T12:01:17.000Z</Time>
            <Position>
              <LatitudeDegrees>41.50691100396215915679931640625</LatitudeDegrees>
              <LongitudeDegrees>-4.53047306276857852935791015625</LongitudeDegrees>
            </Position>
            <AltitudeMeters>1324</AltitudeMeters>
            <DistanceMeters>18782.152132861</DistanceMeters>
          </Trackpoint>
          <Trackpoint>
            <Time>2023-02-23T12:01:23.000Z</Time>
            <Position>
              <LatitudeDegrees>41.5067612193524837493896484375</LatitudeDegrees>
              <LongitudeDegrees>-4.530618153512477874755859375</LongitudeDegrees>
            </Position>
            <AltitudeMeters>1324.5999755859375</AltitudeMeters>
            <DistanceMeters>18802.747953819</DistanceMeters>
          </Trackpoint>
          <Trackpoint>
            <Time>2023-02-23T12:01:24.000Z</Time>
            <Position>
              <LatitudeDegrees>41.5067330561578273773193359375</LatitudeDegrees>
              <LongitudeDegrees>-4.53063751570880413055419921875</LongitudeDegrees>
            </Position>
            <AltitudeMeters>1324.199951171875</AltitudeMeters>
            <DistanceMeters>18806.274200445</DistanceMeters>
          </Trackpoint>
          <Trackpoint>
            <Time>2023-02-23T12:01:27.000Z</Time>
            <Position>
              <LatitudeDegrees>41.50664806365966796875</LatitudeDegrees>
              <LongitudeDegrees>-4.53070499002933502197265625</LongitudeDegrees>
            </Position>
            <AltitudeMeters>1324.199951171875</AltitudeMeters>
            <DistanceMeters>18817.279672508</DistanceMeters>
          </Trackpoint>
          <Trackpoint>
            <Time>2023-02-23T12:01:29.000Z</Time>
            <Position>
              <LatitudeDegrees>41.50658712722361087799072265625</LatitudeDegrees>
              <LongitudeDegrees>-4.530737511813640594482421875</LongitudeDegrees>
            </Position>
            <AltitudeMeters>1324.4000244140625</AltitudeMeters>
            <DistanceMeters>18824.583759832</DistanceMeters>
          </Trackpoint>
          <Trackpoint>
            <Time>2023-02-23T12:01:31.000Z</Time>
            <Position>
              <LatitudeDegrees>41.50652443058788776397705078125</LatitudeDegrees>
              <LongitudeDegrees>-4.530765004456043243408203125</LongitudeDegrees>
            </Position>
            <AltitudeMeters>1324.800048828125</AltitudeMeters>
            <DistanceMeters>18831.928531896</DistanceMeters>
          </Trackpoint>
          <Trackpoint>
            <Time>2023-02-23T12:01:40.000Z</Time>
            <Position>
              <LatitudeDegrees>41.50625587441027164459228515625</LatitudeDegrees>
              <LongitudeDegrees>-4.53086248598992824554443359375</LongitudeDegrees>
            </Position>
            <AltitudeMeters>1325.4000244140625</AltitudeMeters>
            <DistanceMeters>18862.904034192</DistanceMeters>
          </Trackpoint>
          <Trackpoint>
            <Time>2023-02-23T12:01:41.000Z</Time>
            <Position>
              <LatitudeDegrees>41.5062284655869007110595703125</LatitudeDegrees>
              <LongitudeDegrees>-4.5308727957308292388916015625</LongitudeDegrees>
            </Position>
            <AltitudeMeters>1325.4000244140625</AltitudeMeters>
            <DistanceMeters>18866.074282618</DistanceMeters>
          </Trackpoint>
          <Trackpoint>
            <Time>2023-02-23T12:01:42.000Z</Time>
            <Position>
              <LatitudeDegrees>41.50619653053581714630126953125</LatitudeDegrees>
              <LongitudeDegrees>-4.53088201582431793212890625</LongitudeDegrees>
            </Position>
            <AltitudeMeters>1325.5999755859375</AltitudeMeters>
            <DistanceMeters>18869.712701515</DistanceMeters>
          </Trackpoint>
          <Trackpoint>
            <Time>2023-02-23T12:01:47.000Z</Time>
            <Position>
              <LatitudeDegrees>41.50605864822864532470703125</LatitudeDegrees>
              <LongitudeDegrees>-4.530937671661376953125</LongitudeDegrees>
            </Position>
            <AltitudeMeters>1325.800048828125</AltitudeMeters>
            <DistanceMeters>18885.744922069</DistanceMeters>
          </Trackpoint>
          <Trackpoint>
            <Time>2023-02-23T12:01:48.000Z</Time>
            <Position>
              <LatitudeDegrees>41.506028808653354644775390625</LatitudeDegrees>
              <LongitudeDegrees>-4.53094664029777050018310546875</LongitudeDegrees>
            </Position>
            <AltitudeMeters>1325.800048828125</AltitudeMeters>
            <DistanceMeters>18889.148682941</DistanceMeters>
          </Trackpoint>
          <Trackpoint>
            <Time>2023-02-23T12:01:55.000Z</Time>
            <Position>
              <LatitudeDegrees>41.50582529604434967041015625</LatitudeDegrees>
              <LongitudeDegrees>-4.5310400985181331634521484375</LongitudeDegrees>
            </Position>
            <AltitudeMeters>1326</AltitudeMeters>
            <DistanceMeters>18913.102201623</DistanceMeters>
          </Trackpoint>
          <Trackpoint>
            <Time>2023-02-23T12:01:56.000Z</Time>
            <Position>
              <LatitudeDegrees>41.50579436682164669036865234375</LatitudeDegrees>
              <LongitudeDegrees>-4.53105208463966846466064453125</LongitudeDegrees>
            </Position>
            <AltitudeMeters>1326</AltitudeMeters>
            <DistanceMeters>18916.688122545</DistanceMeters>
          </Trackpoint>
          <Trackpoint>
            <Time>2023-02-23T12:02:01.000Z</Time>
            <Position>
              <LatitudeDegrees>41.5056413970887660980224609375</LatitudeDegrees>
              <LongitudeDegrees>-4.5311095006763935089111328125</LongitudeDegrees>
            </Position>
            <AltitudeMeters>1326.5999755859375</AltitudeMeters>
            <DistanceMeters>18934.373816986</DistanceMeters>
          </Trackpoint>
          <Trackpoint>
            <Time>2023-02-23T12:02:04.000Z</Time>
            <Position>
              <LatitudeDegrees>41.50555246509611606597900390625</LatitudeDegrees>
              <LongitudeDegrees>-4.53113841824233531951904296875</LongitudeDegrees>
            </Position>
            <AltitudeMeters>1326.800048828125</AltitudeMeters>
            <DistanceMeters>18944.560751682</DistanceMeters>
          </Trackpoint>
          <Trackpoint>
            <Time>2023-02-23T12:02:06.000Z</Time>
            <Position>
              <LatitudeDegrees>41.5054942108690738677978515625</LatitudeDegrees>
              <LongitudeDegrees>-4.5311654917895793914794921875</LongitudeDegrees>
            </Position>
            <AltitudeMeters>1326.800048828125</AltitudeMeters>
            <DistanceMeters>18951.425733034</DistanceMeters>
          </Trackpoint>
          <Trackpoint>
            <Time>2023-02-23T12:02:11.000Z</Time>
            <Position>
              <LatitudeDegrees>41.50533520616590976715087890625</LatitudeDegrees>
              <LongitudeDegrees>-4.5312164537608623504638671875</LongitudeDegrees>
            </Position>
            <AltitudeMeters>1327.199951171875</AltitudeMeters>
            <DistanceMeters>18969.625767762</DistanceMeters>
          </Trackpoint>
          <Trackpoint>
            <Time>2023-02-23T12:02:13.000Z</Time>
            <Position>
              <LatitudeDegrees>41.5052749402821063995361328125</LatitudeDegrees>
              <LongitudeDegrees>-4.53124352730810642242431640625</LongitudeDegrees>
            </Position>
            <AltitudeMeters>1327.199951171875</AltitudeMeters>
            <DistanceMeters>18976.703184949</DistanceMeters>
          </Trackpoint>
          <Trackpoint>
            <Time>2023-02-23T12:02:18.000Z</Time>
            <Position>
              <LatitudeDegrees>41.50511392392218112945556640625</LatitudeDegrees>
              <LongitudeDegrees>-4.5312985964119434356689453125</LongitudeDegrees>
            </Position>
            <AltitudeMeters>1327.199951171875</AltitudeMeters>
            <DistanceMeters>18995.202911899</DistanceMeters>
          </Trackpoint>
          <Trackpoint>
            <Time>2023-02-23T12:02:20.000Z</Time>
            <Position>
              <LatitudeDegrees>41.50504837743937969207763671875</LatitudeDegrees>
              <LongitudeDegrees>-4.53131427057087421417236328125</LongitudeDegrees>
            </Position>
            <AltitudeMeters>1327.800048828125</AltitudeMeters>
            <DistanceMeters>19002.613777228</DistanceMeters>
          </Trackpoint>
          <Trackpoint>
            <Time>2023-02-23T12:02:27.000Z</Time>
            <Position>
              <LatitudeDegrees>41.50479692034423351287841796875</LatitudeDegrees>
              <LongitudeDegrees>-4.53139490447938442230224609375</LongitudeDegrees>
            </Position>
            <AltitudeMeters>1327.4000244140625</AltitudeMeters>
            <DistanceMeters>19031.397304698</DistanceMeters>
          </Trackpoint>
          <Trackpoint>
            <Time>2023-02-23T12:02:34.000Z</Time>
            <Position>
              <LatitudeDegrees>41.5045537613332271575927734375</LatitudeDegrees>
              <LongitudeDegrees>-4.53147620894014835357666015625</LongitudeDegrees>
            </Position>
            <AltitudeMeters>1327.199951171875</AltitudeMeters>
            <DistanceMeters>19059.296992679</DistanceMeters>
          </Trackpoint>
          <Trackpoint>
            <Time>2023-02-23T12:02:36.000Z</Time>
            <Position>
              <LatitudeDegrees>41.5044843591749668121337890625</LatitudeDegrees>
              <LongitudeDegrees>-4.53150336630642414093017578125</LongitudeDegrees>
            </Position>
            <AltitudeMeters>1327.199951171875</AltitudeMeters>
            <DistanceMeters>19067.34682675</DistanceMeters>
          </Trackpoint>
          <Trackpoint>
            <Time>2023-02-23T12:02:42.000Z</Time>
            <Position>
              <LatitudeDegrees>41.50426014326512813568115234375</LatitudeDegrees>
              <LongitudeDegrees>-4.53156522475183010101318359375</LongitudeDegrees>
            </Position>
            <AltitudeMeters>1327.4000244140625</AltitudeMeters>
            <DistanceMeters>19092.829582826</DistanceMeters>
          </Trackpoint>
          <Trackpoint>
            <Time>2023-02-23T12:02:44.000Z</Time>
            <Position>
              <LatitudeDegrees>41.50418235920369625091552734375</LatitudeDegrees>
              <LongitudeDegrees>-4.5315902866423130035400390625</LongitudeDegrees>
            </Position>
            <AltitudeMeters>1327.199951171875</AltitudeMeters>
            <DistanceMeters>19101.735264238</DistanceMeters>
          </Trackpoint>
          <Trackpoint>
            <Time>2023-02-23T12:02:49.000Z</Time>
            <Position>
              <LatitudeDegrees>41.504002399742603302001953125</LatitudeDegrees>
              <LongitudeDegrees>-4.53166748397052288055419921875</LongitudeDegrees>
            </Position>
            <AltitudeMeters>1327.4000244140625</AltitudeMeters>
            <DistanceMeters>19122.77332895</DistanceMeters>
          </Trackpoint>
          <Trackpoint>
            <Time>2023-02-23T12:02:50.000Z</Time>
            <Position>
              <LatitudeDegrees>41.50396560318768024444580078125</LatitudeDegrees>
              <LongitudeDegrees>-4.5316779613494873046875</LongitudeDegrees>
            </Position>
            <AltitudeMeters>1327.4000244140625</AltitudeMeters>
            <DistanceMeters>19126.960978464</DistanceMeters>
          </Trackpoint>
          <Trackpoint>
            <Time>2023-02-23T12:02:52.000Z</Time>
            <Position>
              <LatitudeDegrees>41.5038929320871829986572265625</LatitudeDegrees>
              <LongitudeDegrees>-4.531703107059001922607421875</LongitudeDegrees>
            </Position>
            <AltitudeMeters>1327.4000244140625</AltitudeMeters>
            <DistanceMeters>19135.316307362</DistanceMeters>
          </Trackpoint>
          <Trackpoint>
            <Time>2023-02-23T12:02:54.000Z</Time>
            <Position>
              <LatitudeDegrees>41.5038228593766689300537109375</LatitudeDegrees>
              <LongitudeDegrees>-4.5317351259291172027587890625</LongitudeDegrees>
            </Position>
            <AltitudeMeters>1327.4000244140625</AltitudeMeters>
            <DistanceMeters>19143.56011445</DistanceMeters>
          </Trackpoint>
          <Trackpoint>
            <Time>2023-02-23T12:02:55.000Z</Time>
            <Position>
              <LatitudeDegrees>41.50378975085914134979248046875</LatitudeDegrees>
              <LongitudeDegrees>-4.53175297938287258148193359375</LongitudeDegrees>
            </Position>
            <AltitudeMeters>1327.4000244140625</AltitudeMeters>
            <DistanceMeters>19147.53423117</DistanceMeters>
          </Trackpoint>
          <Trackpoint>
            <Time>2023-02-23T12:02:56.000Z</Time>
            <Position>
              <LatitudeDegrees>41.50375387631356716156005859375</LatitudeDegrees>
              <LongitudeDegrees>-4.53177058137953281402587890625</LongitudeDegrees>
            </Position>
            <AltitudeMeters>1327.5999755859375</AltitudeMeters>
            <DistanceMeters>19151.788202631</DistanceMeters>
          </Trackpoint>
          <Trackpoint>
            <Time>2023-02-23T12:02:57.000Z</Time>
            <Position>
              <LatitudeDegrees>41.50371766649186611175537109375</LatitudeDegrees>
              <LongitudeDegrees>-4.5317839086055755615234375</LongitudeDegrees>
            </Position>
            <AltitudeMeters>1327.4000244140625</AltitudeMeters>
            <DistanceMeters>19155.969378064</DistanceMeters>
          </Trackpoint>
          <Trackpoint>
            <Time>2023-02-23T12:03:05.000Z</Time>
            <Position>
              <LatitudeDegrees>41.50341742672026157379150390625</LatitudeDegrees>
              <LongitudeDegrees>-4.531874097883701324462890625</LongitudeDegrees>
            </Position>
            <AltitudeMeters>1327.4000244140625</AltitudeMeters>
            <DistanceMeters>19190.221994198</DistanceMeters>
          </Trackpoint>
          <Trackpoint>
            <Time>2023-02-23T12:03:14.000Z</Time>
            <Position>
              <LatitudeDegrees>41.50310159660875797271728515625</LatitudeDegrees>
              <LongitudeDegrees>-4.5319828949868679046630859375</LongitudeDegrees>
            </Position>
            <AltitudeMeters>1327.800048828125</AltitudeMeters>
            <DistanceMeters>19226.525557206</DistanceMeters>
          </Trackpoint>
          <Trackpoint>
            <Time>2023-02-23T12:03:17.000Z</Time>
            <Position>
              <LatitudeDegrees>41.50301459245383739471435546875</LatitudeDegrees>
              <LongitudeDegrees>-4.5320234633982181549072265625</LongitudeDegrees>
            </Position>
            <AltitudeMeters>1327.800048828125</AltitudeMeters>
            <DistanceMeters>19236.782721563</DistanceMeters>
          </Trackpoint>
          <Trackpoint>
            <Time>2023-02-23T12:03:20.000Z</Time>
            <Position>
              <LatitudeDegrees>41.5029276721179485321044921875</LatitudeDegrees>
              <LongitudeDegrees>-4.53204316087067127227783203125</LongitudeDegrees>
            </Position>
            <AltitudeMeters>1327.800048828125</AltitudeMeters>
            <DistanceMeters>19246.594891305</DistanceMeters>
          </Trackpoint>
          <Trackpoint>
            <Time>2023-02-23T12:03:21.000Z</Time>
            <Position>
              <LatitudeDegrees>41.50290110148489475250244140625</LatitudeDegrees>
              <LongitudeDegrees>-4.5320482738316059112548828125</LongitudeDegrees>
            </Position>
            <AltitudeMeters>1327.800048828125</AltitudeMeters>
            <DistanceMeters>19249.581815396</DistanceMeters>
          </Trackpoint>
          <Trackpoint>
            <Time>2023-02-23T12:03:27.000Z</Time>
            <Position>
              <LatitudeDegrees>41.50272944010794162750244140625</LatitudeDegrees>
              <LongitudeDegrees>-4.53210116364061832427978515625</LongitudeDegrees>
            </Position>
            <AltitudeMeters>1327.4000244140625</AltitudeMeters>
            <DistanceMeters>19269.190503649</DistanceMeters>
          </Trackpoint>
          <Trackpoint>
            <Time>2023-02-23T12:03:29.000Z</Time>
            <Position>
              <LatitudeDegrees>41.50266523472964763641357421875</LatitudeDegrees>
              <LongitudeDegrees>-4.53212521970272064208984375</LongitudeDegrees>
            </Position>
            <AltitudeMeters>1327.4000244140625</AltitudeMeters>
            <DistanceMeters>19276.6123273</DistanceMeters>
          </Trackpoint>
          <Trackpoint>
            <Time>2023-02-23T12:03:33.000Z</Time>
            <Position>
              <LatitudeDegrees>41.5025364048779010772705078125</LatitudeDegrees>
              <LongitudeDegrees>-4.5321786962449550628662109375</LongitudeDegrees>
            </Position>
            <AltitudeMeters>1327.800048828125</AltitudeMeters>
            <DistanceMeters>19291.628051682</DistanceMeters>
          </Trackpoint>
          <Trackpoint>
            <Time>2023-02-23T12:03:35.000Z</Time>
            <Position>
              <LatitudeDegrees>41.5024716965854167938232421875</LatitudeDegrees>
              <LongitudeDegrees>-4.532206021249294281005859375</LongitudeDegrees>
            </Position>
            <AltitudeMeters>1328</AltitudeMeters>
            <DistanceMeters>19299.181330637</DistanceMeters>
          </Trackpoint>
          <Trackpoint>
            <Time>2023-02-23T12:03:36.000Z</Time>
            <Position>
              <LatitudeDegrees>41.50243808515369892120361328125</LatitudeDegrees>
              <LongitudeDegrees>-4.53221641480922698974609375</LongitudeDegrees>
            </Position>
            <AltitudeMeters>1327.800048828125</AltitudeMeters>
            <DistanceMeters>19303.022573263</DistanceMeters>
          </Trackpoint>
          <Trackpoint>
            <Time>2023-02-23T12:03:44.000Z</Time>
            <Position>
              <LatitudeDegrees>41.502173133194446563720703125</LatitudeDegrees>
              <LongitudeDegrees>-4.53230685554444789886474609375</LongitudeDegrees>
            </Position>
            <AltitudeMeters>1327</AltitudeMeters>
            <DistanceMeters>19333.460803224</DistanceMeters>
          </Trackpoint>
          <Trackpoint>
            <Time>2023-02-23T12:03:52.000Z</Time>
            <Position>
              <LatitudeDegrees>41.5019560419023036956787109375</LatitudeDegrees>
              <LongitudeDegrees>-4.532402493059635162353515625</LongitudeDegrees>
            </Position>
            <AltitudeMeters>1327</AltitudeMeters>
            <DistanceMeters>19358.904549812</DistanceMeters>
          </Trackpoint>
          <Trackpoint>
            <Time>2023-02-23T12:03:53.000Z</Time>
            <Position>
              <LatitudeDegrees>41.5019332431256771087646484375</LatitudeDegrees>
              <LongitudeDegrees>-4.5324117131531238555908203125</LongitudeDegrees>
            </Position>
            <AltitudeMeters>1327</AltitudeMeters>
            <DistanceMeters>19361.558501512</DistanceMeters>
          </Trackpoint>
          <Trackpoint>
            <Time>2023-02-23T12:03:56.000Z</Time>
            <Position>
              <LatitudeDegrees>41.50190055370330810546875</LatitudeDegrees>
              <LongitudeDegrees>-4.53241246752440929412841796875</LongitudeDegrees>
            </Position>
            <AltitudeMeters>1327</AltitudeMeters>
            <DistanceMeters>19365.196920408</DistanceMeters>
          </Trackpoint>
          <Trackpoint>
            <Time>2023-02-23T12:04:01.000Z</Time>
            <Position>
              <LatitudeDegrees>41.501890160143375396728515625</LatitudeDegrees>
              <LongitudeDegrees>-4.53241481445729732513427734375</LongitudeDegrees>
            </Position>
            <AltitudeMeters>1327</AltitudeMeters>
            <DistanceMeters>19366.368488426</DistanceMeters>
          </Trackpoint>
          <Trackpoint>
            <Time>2023-02-23T12:04:06.000Z</Time>
            <Position>
              <LatitudeDegrees>41.50189879350364208221435546875</LatitudeDegrees>
              <LongitudeDegrees>-4.53242084942758083343505859375</LongitudeDegrees>
            </Position>
            <AltitudeMeters>1326.800048828125</AltitudeMeters>
            <DistanceMeters>19367.45195967</DistanceMeters>
          </Trackpoint>
          <Trackpoint>
            <Time>2023-02-23T12:04:09.000Z</Time>
            <Position>
              <LatitudeDegrees>41.50189896114170551300048828125</LatitudeDegrees>
              <LongitudeDegrees>-4.5324187539517879486083984375</LongitudeDegrees>
            </Position>
            <AltitudeMeters>1327.4000244140625</AltitudeMeters>
            <DistanceMeters>19367.586347739</DistanceMeters>
          </Trackpoint>
          <Trackpoint>
            <Time>2023-02-23T12:04:11.000Z</Time>
            <Position>
              <LatitudeDegrees>41.501896865665912628173828125</LatitudeDegrees>
              <LongitudeDegrees>-4.53241380862891674041748046875</LongitudeDegrees>
            </Position>
            <AltitudeMeters>1327.4000244140625</AltitudeMeters>
            <DistanceMeters>19368.051881663</DistanceMeters>
          </Trackpoint>
          <Trackpoint>
            <Time>2023-02-23T12:04:16.000Z</Time>
            <Position>
              <LatitudeDegrees>41.50189720094203948974609375</LatitudeDegrees>
              <LongitudeDegrees>-4.53240760602056980133056640625</LongitudeDegrees>
            </Position>
            <AltitudeMeters>1327.5999755859375</AltitudeMeters>
            <DistanceMeters>19368.572364413</DistanceMeters>
          </Trackpoint>
          <Trackpoint>
            <Time>2023-02-23T12:04:19.000Z</Time>
            <Position>
              <LatitudeDegrees>41.50190524756908416748046875</LatitudeDegrees>
              <LongitudeDegrees>-4.532407186925411224365234375</LongitudeDegrees>
            </Position>
            <AltitudeMeters>1327.4000244140625</AltitudeMeters>
            <DistanceMeters>19369.468844644</DistanceMeters>
          </Trackpoint>
          <Trackpoint>
            <Time>2023-02-23T12:04:23.000Z</Time>
            <Position>
              <LatitudeDegrees>41.501921676099300384521484375</LatitudeDegrees>
              <LongitudeDegrees>-4.532417915761470794677734375</LongitudeDegrees>
            </Position>
            <AltitudeMeters>1327</AltitudeMeters>
            <DistanceMeters>19371.504724082</DistanceMeters>
          </Trackpoint>
          <Trackpoint>
            <Time>2023-02-23T12:04:28.000Z</Time>
            <Position>
              <LatitudeDegrees>41.50192008353769779205322265625</LatitudeDegrees>
              <LongitudeDegrees>-4.53240425325930118560791015625</LongitudeDegrees>
            </Position>
            <AltitudeMeters>1326.800048828125</AltitudeMeters>
            <DistanceMeters>19372.660773957</DistanceMeters>
          </Trackpoint>
          <Trackpoint>
            <Time>2023-02-23T12:04:31.000Z</Time>
            <Position>
              <LatitudeDegrees>41.50191773660480976104736328125</LatitudeDegrees>
              <LongitudeDegrees>-4.53240492381155490875244140625</LongitudeDegrees>
            </Position>
            <AltitudeMeters>1327</AltitudeMeters>
            <DistanceMeters>19372.929550094</DistanceMeters>
          </Trackpoint>
          <Trackpoint>
            <Time>2023-02-23T12:04:32.000Z</Time>
            <Position>
              <LatitudeDegrees>41.5019174851477146148681640625</LatitudeDegrees>
              <LongitudeDegrees>-4.53240375034511089324951171875</LongitudeDegrees>
            </Position>
            <AltitudeMeters>1326.800048828125</AltitudeMeters>
            <DistanceMeters>19373.024576808</DistanceMeters>
          </Trackpoint>
          <Trackpoint>
            <Time>2023-02-23T12:04:33.000Z</Time>
            <Position>
              <LatitudeDegrees>41.5019166469573974609375</LatitudeDegrees>
              <LongitudeDegrees>-4.532400481402873992919921875</LongitudeDegrees>
            </Position>
            <AltitudeMeters>1327</AltitudeMeters>
            <DistanceMeters>19373.293352944</DistanceMeters>
          </Trackpoint>
          <Trackpoint>
            <Time>2023-02-23T12:04:35.000Z</Time>
            <Position>
              <LatitudeDegrees>41.50191253982484340667724609375</LatitudeDegrees>
              <LongitudeDegrees>-4.5323942787945270538330078125</LongitudeDegrees>
            </Position>
            <AltitudeMeters>1327</AltitudeMeters>
            <DistanceMeters>19373.985157867</DistanceMeters>
          </Trackpoint>
          <Trackpoint>
            <Time>2023-02-23T12:04:39.000Z</Time>
            <Position>
              <LatitudeDegrees>41.50190684013068675994873046875</LatitudeDegrees>
              <LongitudeDegrees>-4.53239587135612964630126953125</LongitudeDegrees>
            </Position>
            <AltitudeMeters>1327</AltitudeMeters>
            <DistanceMeters>19374.629660402</DistanceMeters>
          </Trackpoint>
          <Trackpoint>
            <Time>2023-02-23T12:04:43.000Z</Time>
            <Position>
              <LatitudeDegrees>41.501905582845211029052734375</LatitudeDegrees>
              <LongitudeDegrees>-4.53239402733743190765380859375</LongitudeDegrees>
            </Position>
            <AltitudeMeters>1326.800048828125</AltitudeMeters>
            <DistanceMeters>19374.862427364</DistanceMeters>
          </Trackpoint>
          <Trackpoint>
            <Time>2023-02-23T12:04:46.000Z</Time>
            <Position>
              <LatitudeDegrees>41.50190583430230617523193359375</LatitudeDegrees>
              <LongitudeDegrees>-4.5323922671377658843994140625</LongitudeDegrees>
            </Position>
            <AltitudeMeters>1326.800048828125</AltitudeMeters>
            <DistanceMeters>19374.996815432</DistanceMeters>
          </Trackpoint>
          <Trackpoint>
            <Time>2023-02-23T12:04:48.000Z</Time>
            <Position>
              <LatitudeDegrees>41.50190256536006927490234375</LatitudeDegrees>
              <LongitudeDegrees>-4.53239067457616329193115234375</LongitudeDegrees>
            </Position>
            <AltitudeMeters>1326.4000244140625</AltitudeMeters>
            <DistanceMeters>19375.376922289</DistanceMeters>
          </Trackpoint>
          <Trackpoint>
            <Time>2023-02-23T12:04:56.000Z</Time>
            <Position>
              <LatitudeDegrees>41.5018951892852783203125</LatitudeDegrees>
              <LongitudeDegrees>-4.5323761738836765289306640625</LongitudeDegrees>
            </Position>
            <AltitudeMeters>1326.5999755859375</AltitudeMeters>
            <DistanceMeters>19376.839839962</DistanceMeters>
          </Trackpoint>
          <Trackpoint>
            <Time>2023-02-23T12:04:58.000Z</Time>
            <Position>
              <LatitudeDegrees>41.50189426727592945098876953125</LatitudeDegrees>
              <LongitudeDegrees>-4.53237676061689853668212890625</LongitudeDegrees>
            </Position>
            <AltitudeMeters>1326.5999755859375</AltitudeMeters>
            <DistanceMeters>19376.934866677</DistanceMeters>
          </Trackpoint>
          <Trackpoint>
            <Time>2023-02-23T12:05:05.000Z</Time>
            <Position>
              <LatitudeDegrees>41.50188781321048736572265625</LatitudeDegrees>
              <LongitudeDegrees>-4.5323600806295871734619140625</LongitudeDegrees>
            </Position>
            <AltitudeMeters>1327.199951171875</AltitudeMeters>
            <DistanceMeters>19378.496314927</DistanceMeters>
          </Trackpoint>
          <Trackpoint>
            <Time>2023-02-23T12:05:08.000Z</Time>
            <Position>
              <LatitudeDegrees>41.50188605301082134246826171875</LatitudeDegrees>
              <LongitudeDegrees>-4.5323533751070499420166015625</LongitudeDegrees>
            </Position>
            <AltitudeMeters>1327.199951171875</AltitudeMeters>
            <DistanceMeters>19379.097316639</DistanceMeters>
          </Trackpoint>
          <Trackpoint>
            <Time>2023-02-23T12:05:20.000Z</Time>
            <Position>
              <LatitudeDegrees>41.501884795725345611572265625</LatitudeDegrees>
              <LongitudeDegrees>-4.5323525369167327880859375</LongitudeDegrees>
            </Position>
            <AltitudeMeters>1327.199951171875</AltitudeMeters>
            <DistanceMeters>19379.287370068</DistanceMeters>
          </Trackpoint>
          <Trackpoint>
            <Time>2023-02-23T12:05:23.000Z</Time>
            <Position>
              <LatitudeDegrees>41.5018858015537261962890625</LatitudeDegrees>
              <LongitudeDegrees>-4.53236368484795093536376953125</LongitudeDegrees>
            </Position>
            <AltitudeMeters>1327.199951171875</AltitudeMeters>
            <DistanceMeters>19380.223274665</DistanceMeters>
          </Trackpoint>
          <Trackpoint>
            <Time>2023-02-23T12:05:28.000Z</Time>
            <Position>
              <LatitudeDegrees>41.501876078546047210693359375</LatitudeDegrees>
              <LongitudeDegrees>-4.53236527740955352783203125</LongitudeDegrees>
            </Position>
            <AltitudeMeters>1327.199951171875</AltitudeMeters>
            <DistanceMeters>19381.315048493</DistanceMeters>
          </Trackpoint>
          <Trackpoint>
            <Time>2023-02-23T12:05:36.000Z</Time>
            <Position>
              <LatitudeDegrees>41.5018715523183345794677734375</LatitudeDegrees>
              <LongitudeDegrees>-4.5323768444359302520751953125</LongitudeDegrees>
            </Position>
            <AltitudeMeters>1327.199951171875</AltitudeMeters>
            <DistanceMeters>19382.398519737</DistanceMeters>
          </Trackpoint>
          <Trackpoint>
            <Time>2023-02-23T12:05:42.000Z</Time>
            <Position>
              <LatitudeDegrees>41.50187440216541290283203125</LatitudeDegrees>
              <LongitudeDegrees>-4.53239285387098789215087890625</LongitudeDegrees>
            </Position>
            <AltitudeMeters>1327.199951171875</AltitudeMeters>
            <DistanceMeters>19383.769014502</DistanceMeters>
          </Trackpoint>
          <Trackpoint>
            <Time>2023-02-23T12:05:47.000Z</Time>
            <Position>
              <LatitudeDegrees>41.50187716819345951080322265625</LatitudeDegrees>
              <LongitudeDegrees>-4.53239201568067073822021484375</LongitudeDegrees>
            </Position>
            <AltitudeMeters>1327.199951171875</AltitudeMeters>
            <DistanceMeters>19384.098196697</DistanceMeters>
          </Trackpoint>
          <Trackpoint>
            <Time>2023-02-23T12:05:48.000Z</Time>
            <Position>
              <LatitudeDegrees>41.50187733583152294158935546875</LatitudeDegrees>
              <LongitudeDegrees>-4.5323915965855121612548828125</LongitudeDegrees>
            </Position>
            <AltitudeMeters>1327.199951171875</AltitudeMeters>
            <DistanceMeters>19384.098196697</DistanceMeters>
          </Trackpoint>
          <Trackpoint>
            <Time>2023-02-23T12:05:49.000Z</Time>
            <Position>
              <LatitudeDegrees>41.50187716819345951080322265625</LatitudeDegrees>
              <LongitudeDegrees>-4.5323939435184001922607421875</LongitudeDegrees>
            </Position>
            <AltitudeMeters>1327.199951171875</AltitudeMeters>
            <DistanceMeters>19384.288250126</DistanceMeters>
          </Trackpoint>
          <Trackpoint>
            <Time>2023-02-23T12:05:54.000Z</Time>
            <Position>
              <LatitudeDegrees>41.5018571354448795318603515625</LatitudeDegrees>
              <LongitudeDegrees>-4.5323927700519561767578125</LongitudeDegrees>
            </Position>
            <AltitudeMeters>1327.199951171875</AltitudeMeters>
            <DistanceMeters>19386.520872395</DistanceMeters>
          </Trackpoint>
          <Trackpoint>
            <Time>2023-02-23T12:06:02.000Z</Time>
            <Position>
              <LatitudeDegrees>41.50186409242451190948486328125</LatitudeDegrees>
              <LongitudeDegrees>-4.53238296322524547576904296875</LongitudeDegrees>
            </Position>
            <AltitudeMeters>1327.199951171875</AltitudeMeters>
            <DistanceMeters>19387.645243642</DistanceMeters>
          </Trackpoint>
          <Trackpoint>
            <Time>2023-02-23T12:06:10.000Z</Time>
            <Position>
              <LatitudeDegrees>41.50186778046190738677978515625</LatitudeDegrees>
              <LongitudeDegrees>-4.53236217610538005828857421875</LongitudeDegrees>
            </Position>
            <AltitudeMeters>1327.199951171875</AltitudeMeters>
            <DistanceMeters>19389.425568565</DistanceMeters>
          </Trackpoint>
          <Trackpoint>
            <Time>2023-02-23T12:06:15.000Z</Time>
            <Position>
              <LatitudeDegrees>41.50185453705489635467529296875</LatitudeDegrees>
              <LongitudeDegrees>-4.53237977810204029083251953125</LongitudeDegrees>
            </Position>
            <AltitudeMeters>1327.199951171875</AltitudeMeters>
            <DistanceMeters>19391.505329758</DistanceMeters>
          </Trackpoint>
          <Trackpoint>
            <Time>2023-02-23T12:06:17.000Z</Time>
            <Position>
              <LatitudeDegrees>41.50183676742017269134521484375</LatitudeDegrees>
              <LongitudeDegrees>-4.53240056522190570831298828125</LongitudeDegrees>
            </Position>
            <AltitudeMeters>1327.199951171875</AltitudeMeters>
            <DistanceMeters>19394.135356099</DistanceMeters>
          </Trackpoint>
          <Trackpoint>
            <Time>2023-02-23T12:06:18.000Z</Time>
            <Position>
              <LatitudeDegrees>41.50182201527059078216552734375</LatitudeDegrees>
              <LongitudeDegrees>-4.5324115455150604248046875</LongitudeDegrees>
            </Position>
            <AltitudeMeters>1327.199951171875</AltitudeMeters>
            <DistanceMeters>19396.016789054</DistanceMeters>
          </Trackpoint>
          <Trackpoint>
            <Time>2023-02-23T12:06:23.000Z</Time>
            <Position>
              <LatitudeDegrees>41.50169997476041316986083984375</LatitudeDegrees>
              <LongitudeDegrees>-4.53246912918984889984130859375</LongitudeDegrees>
            </Position>
            <AltitudeMeters>1326.4000244140625</AltitudeMeters>
            <DistanceMeters>19410.42329026</DistanceMeters>
          </Trackpoint>
          <Trackpoint>
            <Time>2023-02-23T12:06:25.000Z</Time>
            <Position>
              <LatitudeDegrees>41.50164716877043247222900390625</LatitudeDegrees>
              <LongitudeDegrees>-4.532490335404872894287109375</LongitudeDegrees>
            </Position>
            <AltitudeMeters>1325.800048828125</AltitudeMeters>
            <DistanceMeters>19416.559691385</DistanceMeters>
          </Trackpoint>
          <Trackpoint>
            <Time>2023-02-23T12:06:26.000Z</Time>
            <Position>
              <LatitudeDegrees>41.5016170777380466461181640625</LatitudeDegrees>
              <LongitudeDegrees>-4.5325019024312496185302734375</LongitudeDegrees>
            </Position>
            <AltitudeMeters>1325.4000244140625</AltitudeMeters>
            <DistanceMeters>19420.046019381</DistanceMeters>
          </Trackpoint>
          <Trackpoint>
            <Time>2023-02-23T12:06:27.000Z</Time>
            <Position>
              <LatitudeDegrees>41.5015852265059947967529296875</LatitudeDegrees>
              <LongitudeDegrees>-4.5325159840285778045654296875</LongitudeDegrees>
            </Position>
            <AltitudeMeters>1325.199951171875</AltitudeMeters>
            <DistanceMeters>19423.779976803</DistanceMeters>
          </Trackpoint>
          <Trackpoint>
            <Time>2023-02-23T12:06:28.000Z</Time>
            <Position>
              <LatitudeDegrees>41.50155211798846721649169921875</LatitudeDegrees>
              <LongitudeDegrees>-4.53253098763525485992431640625</LongitudeDegrees>
            </Position>
            <AltitudeMeters>1325.4000244140625</AltitudeMeters>
            <DistanceMeters>19427.671433882</DistanceMeters>
          </Trackpoint>
          <Trackpoint>
            <Time>2023-02-23T12:06:29.000Z</Time>
            <Position>
              <LatitudeDegrees>41.5015188418328762054443359375</LatitudeDegrees>
              <LongitudeDegrees>-4.53254808671772480010986328125</LongitudeDegrees>
            </Position>
            <AltitudeMeters>1325.5999755859375</AltitudeMeters>
            <DistanceMeters>19431.63986598</DistanceMeters>
          </Trackpoint>
          <Trackpoint>
            <Time>2023-02-23T12:06:30.000Z</Time>
            <Position>
              <LatitudeDegrees>41.5014856494963169097900390625</LatitudeDegrees>
              <LongitudeDegrees>-4.53256309032440185546875</LongitudeDegrees>
            </Position>
            <AltitudeMeters>1325.5999755859375</AltitudeMeters>
            <DistanceMeters>19435.539436307</DistanceMeters>
          </Trackpoint>
          <Trackpoint>
            <Time>2023-02-23T12:06:32.000Z</Time>
            <Position>
              <LatitudeDegrees>41.5014244616031646728515625</LatitudeDegrees>
              <LongitudeDegrees>-4.53258496709167957305908203125</LongitudeDegrees>
            </Position>
            <AltitudeMeters>1325.4000244140625</AltitudeMeters>
            <DistanceMeters>19442.590649032</DistanceMeters>
          </Trackpoint>
          <Trackpoint>
            <Time>2023-02-23T12:06:34.000Z</Time>
            <Position>
              <LatitudeDegrees>41.50135765783488750457763671875</LatitudeDegrees>
              <LongitudeDegrees>-4.5326234400272369384765625</LongitudeDegrees>
            </Position>
            <AltitudeMeters>1325.199951171875</AltitudeMeters>
            <DistanceMeters>19450.688575627</DistanceMeters>
          </Trackpoint>
          <Trackpoint>
            <Time>2023-02-23T12:06:35.000Z</Time>
            <Position>
              <LatitudeDegrees>41.50132614187896251678466796875</LatitudeDegrees>
              <LongitudeDegrees>-4.53264565207064151763916015625</LongitudeDegrees>
            </Position>
            <AltitudeMeters>1325</AltitudeMeters>
            <DistanceMeters>19454.655869824</DistanceMeters>
          </Trackpoint>
          <Trackpoint>
            <Time>2023-02-23T12:06:38.000Z</Time>
            <Position>
              <LatitudeDegrees>41.50121818296611309051513671875</LatitudeDegrees>
              <LongitudeDegrees>-4.532705582678318023681640625</LongitudeDegrees>
            </Position>
            <AltitudeMeters>1325</AltitudeMeters>
            <DistanceMeters>19467.66932646</DistanceMeters>
          </Trackpoint>
          <Trackpoint>
            <Time>2023-02-23T12:06:41.000Z</Time>
            <Position>
              <LatitudeDegrees>41.5010829828679561614990234375</LatitudeDegrees>
              <LongitudeDegrees>-4.532725699245929718017578125</LongitudeDegrees>
            </Position>
            <AltitudeMeters>1325.5999755859375</AltitudeMeters>
            <DistanceMeters>19482.810514682</DistanceMeters>
          </Trackpoint>
          <Trackpoint>
            <Time>2023-02-23T12:06:46.000Z</Time>
            <Position>
              <LatitudeDegrees>41.50088290683925151824951171875</LatitudeDegrees>
              <LongitudeDegrees>-4.5327816903591156005859375</LongitudeDegrees>
            </Position>
            <AltitudeMeters>1325.5999755859375</AltitudeMeters>
            <DistanceMeters>19505.563212378</DistanceMeters>
          </Trackpoint>
          <Trackpoint>
            <Time>2023-02-23T12:06:47.000Z</Time>
            <Position>
              <LatitudeDegrees>41.500844098627567291259765625</LatitudeDegrees>
              <LongitudeDegrees>-4.53278797678649425506591796875</LongitudeDegrees>
            </Position>
            <AltitudeMeters>1325.800048828125</AltitudeMeters>
            <DistanceMeters>19509.913734212</DistanceMeters>
          </Trackpoint>
          <Trackpoint>
            <Time>2023-02-23T12:06:55.000Z</Time>
            <Position>
              <LatitudeDegrees>41.50054360739886760711669921875</LatitudeDegrees>
              <LongitudeDegrees>-4.5328881405293941497802734375</LongitudeDegrees>
            </Position>
            <AltitudeMeters>1324.800048828125</AltitudeMeters>
            <DistanceMeters>19544.385649007</DistanceMeters>
          </Trackpoint>
          <Trackpoint>
            <Time>2023-02-23T12:06:59.000Z</Time>
            <Position>
              <LatitudeDegrees>41.50038468651473522186279296875</LatitudeDegrees>
              <LongitudeDegrees>-4.5329360850155353546142578125</LongitudeDegrees>
            </Position>
            <AltitudeMeters>1324.5999755859375</AltitudeMeters>
            <DistanceMeters>19562.519574776</DistanceMeters>
          </Trackpoint>
          <Trackpoint>
            <Time>2023-02-23T12:07:00.000Z</Time>
            <Position>
              <LatitudeDegrees>41.5003440342843532562255859375</LatitudeDegrees>
              <LongitudeDegrees>-4.5329461432993412017822265625</LongitudeDegrees>
            </Position>
            <AltitudeMeters>1324.5999755859375</AltitudeMeters>
            <DistanceMeters>19567.120281154</DistanceMeters>
          </Trackpoint>
          <Trackpoint>
            <Time>2023-02-23T12:07:01.000Z</Time>
            <Position>
              <LatitudeDegrees>41.50029726326465606689453125</LatitudeDegrees>
              <LongitudeDegrees>-4.53295712359249591827392578125</LongitudeDegrees>
            </Position>
            <AltitudeMeters>1324.5999755859375</AltitudeMeters>
            <DistanceMeters>19572.406022022</DistanceMeters>
          </Trackpoint>
          <Trackpoint>
            <Time>2023-02-23T12:07:09.000Z</Time>
            <Position>
              <LatitudeDegrees>41.49998503737151622772216796875</LatitudeDegrees>
              <LongitudeDegrees>-4.53308603726327419281005859375</LongitudeDegrees>
            </Position>
            <AltitudeMeters>1325.5999755859375</AltitudeMeters>
            <DistanceMeters>19608.781026916</DistanceMeters>
          </Trackpoint>
          <Trackpoint>
            <Time>2023-02-23T12:07:12.000Z</Time>
            <Position>
              <LatitudeDegrees>41.49988546036183834075927734375</LatitudeDegrees>
              <LongitudeDegrees>-4.53313146717846393585205078125</LongitudeDegrees>
            </Position>
            <AltitudeMeters>1326.4000244140625</AltitudeMeters>
            <DistanceMeters>19620.493623611</DistanceMeters>
          </Trackpoint>
          <Trackpoint>
            <Time>2023-02-23T12:07:15.000Z</Time>
            <Position>
              <LatitudeDegrees>41.49978504516184329986572265625</LatitudeDegrees>
              <LongitudeDegrees>-4.53316147439181804656982421875</LongitudeDegrees>
            </Position>
            <AltitudeMeters>1327</AltitudeMeters>
            <DistanceMeters>19631.946609703</DistanceMeters>
          </Trackpoint>
          <Trackpoint>
            <Time>2023-02-23T12:07:17.000Z</Time>
            <Position>
              <LatitudeDegrees>41.49972067214548587799072265625</LatitudeDegrees>
              <LongitudeDegrees>-4.53318812884390354156494140625</LongitudeDegrees>
            </Position>
            <AltitudeMeters>1327</AltitudeMeters>
            <DistanceMeters>19639.447703378</DistanceMeters>
          </Trackpoint>
          <Trackpoint>
            <Time>2023-02-23T12:07:18.000Z</Time>
            <Position>
              <LatitudeDegrees>41.49968781508505344390869140625</LatitudeDegrees>
              <LongitudeDegrees>-4.5331979356706142425537109375</LongitudeDegrees>
            </Position>
            <AltitudeMeters>1327</AltitudeMeters>
            <DistanceMeters>19643.194938208</DistanceMeters>
          </Trackpoint>
          <Trackpoint>
            <Time>2023-02-23T12:07:21.000Z</Time>
            <Position>
              <LatitudeDegrees>41.49958689697086811065673828125</LatitudeDegrees>
              <LongitudeDegrees>-4.53322417102754116058349609375</LongitudeDegrees>
            </Position>
            <AltitudeMeters>1327.5999755859375</AltitudeMeters>
            <DistanceMeters>19654.63845902</DistanceMeters>
          </Trackpoint>
          <Trackpoint>
            <Time>2023-02-23T12:07:26.000Z</Time>
            <Position>
              <LatitudeDegrees>41.49942914955317974090576171875</LatitudeDegrees>
              <LongitudeDegrees>-4.53328552655875682830810546875</LongitudeDegrees>
            </Position>
            <AltitudeMeters>1327.800048828125</AltitudeMeters>
            <DistanceMeters>19672.926102695</DistanceMeters>
          </Trackpoint>
          <Trackpoint>
            <Time>2023-02-23T12:07:29.000Z</Time>
            <Position>
              <LatitudeDegrees>41.49933376349508762359619140625</LatitudeDegrees>
              <LongitudeDegrees>-4.533335901796817779541015625</LongitudeDegrees>
            </Position>
            <AltitudeMeters>1327.800048828125</AltitudeMeters>
            <DistanceMeters>19684.3427626</DistanceMeters>
          </Trackpoint>
          <Trackpoint>
            <Time>2023-02-23T12:07:35.000Z</Time>
            <Position>
              <LatitudeDegrees>41.4991276524960994720458984375</LatitudeDegrees>
              <LongitudeDegrees>-4.533431120216846466064453125</LongitudeDegrees>
            </Position>
            <AltitudeMeters>1327.5999755859375</AltitudeMeters>
            <DistanceMeters>19708.617578118</DistanceMeters>
          </Trackpoint>
          <Trackpoint>
            <Time>2023-02-23T12:07:42.000Z</Time>
            <Position>
              <LatitudeDegrees>41.4988818950951099395751953125</LatitudeDegrees>
              <LongitudeDegrees>-4.5335214771330356597900390625</LongitudeDegrees>
            </Position>
            <AltitudeMeters>1327.199951171875</AltitudeMeters>
            <DistanceMeters>19736.988901389</DistanceMeters>
          </Trackpoint>
          <Trackpoint>
            <Time>2023-02-23T12:07:48.000Z</Time>
            <Position>
              <LatitudeDegrees>41.49865306913852691650390625</LatitudeDegrees>
              <LongitudeDegrees>-4.53360605053603649139404296875</LongitudeDegrees>
            </Position>
            <AltitudeMeters>1327</AltitudeMeters>
            <DistanceMeters>19763.415555586</DistanceMeters>
          </Trackpoint>
          <Trackpoint>
            <Time>2023-02-23T12:07:51.000Z</Time>
            <Position>
              <LatitudeDegrees>41.49851870723068714141845703125</LatitudeDegrees>
              <LongitudeDegrees>-4.5336106605827808380126953125</LongitudeDegrees>
            </Position>
            <AltitudeMeters>1326.4000244140625</AltitudeMeters>
            <DistanceMeters>19778.374945762</DistanceMeters>
          </Trackpoint>
          <Trackpoint>
            <Time>2023-02-23T12:07:53.000Z</Time>
            <Position>
              <LatitudeDegrees>41.49843589402735233306884765625</LatitudeDegrees>
              <LongitudeDegrees>-4.5336321182548999786376953125</LongitudeDegrees>
            </Position>
            <AltitudeMeters>1326</AltitudeMeters>
            <DistanceMeters>19787.764816176</DistanceMeters>
          </Trackpoint>
          <Trackpoint>
            <Time>2023-02-23T12:07:58.000Z</Time>
            <Position>
              <LatitudeDegrees>41.498216204345226287841796875</LatitudeDegrees>
              <LongitudeDegrees>-4.53369892202317714691162109375</LongitudeDegrees>
            </Position>
            <AltitudeMeters>1325.4000244140625</AltitudeMeters>
            <DistanceMeters>19812.842688373</DistanceMeters>
          </Trackpoint>
          <Trackpoint>
            <Time>2023-02-23T12:07:59.000Z</Time>
            <Position>
              <LatitudeDegrees>41.49817454628646373748779296875</LatitudeDegrees>
              <LongitudeDegrees>-4.53371400944888591766357421875</LongitudeDegrees>
            </Position>
            <AltitudeMeters>1325.199951171875</AltitudeMeters>
            <DistanceMeters>19817.646004448</DistanceMeters>
          </Trackpoint>
          <Trackpoint>
            <Time>2023-02-23T12:08:00.000Z</Time>
            <Position>
              <LatitudeDegrees>41.49813330732285976409912109375</LatitudeDegrees>
              <LongitudeDegrees>-4.5337270013988018035888671875</LongitudeDegrees>
            </Position>
            <AltitudeMeters>1325</AltitudeMeters>
            <DistanceMeters>19822.361091744</DistanceMeters>
          </Trackpoint>
          <Trackpoint>
            <Time>2023-02-23T12:08:06.000Z</Time>
            <Position>
              <LatitudeDegrees>41.49787296541035175323486328125</LatitudeDegrees>
              <LongitudeDegrees>-4.5337839983403682708740234375</LongitudeDegrees>
            </Position>
            <AltitudeMeters>1324.800048828125</AltitudeMeters>
            <DistanceMeters>19851.724654012</DistanceMeters>
          </Trackpoint>
          <Trackpoint>
            <Time>2023-02-23T12:08:08.000Z</Time>
            <Position>
              <LatitudeDegrees>41.497793085873126983642578125</LatitudeDegrees>
              <LongitudeDegrees>-4.5338188670575618743896484375</LongitudeDegrees>
            </Position>
            <AltitudeMeters>1324.800048828125</AltitudeMeters>
            <DistanceMeters>19861.07887449</DistanceMeters>
          </Trackpoint>
          <Trackpoint>
            <Time>2023-02-23T12:08:16.000Z</Time>
            <Position>
              <LatitudeDegrees>41.497482955455780029296875</LatitudeDegrees>
              <LongitudeDegrees>-4.53395121730864048004150390625</LongitudeDegrees>
            </Position>
            <AltitudeMeters>1325.5999755859375</AltitudeMeters>
            <DistanceMeters>19897.317458722</DistanceMeters>
          </Trackpoint>
          <Trackpoint>
            <Time>2023-02-23T12:08:23.000Z</Time>
            <Position>
              <LatitudeDegrees>41.497225798666477203369140625</LatitudeDegrees>
              <LongitudeDegrees>-4.5340371318161487579345703125</LongitudeDegrees>
            </Position>
            <AltitudeMeters>1325.5999755859375</AltitudeMeters>
            <DistanceMeters>19926.821838046</DistanceMeters>
          </Trackpoint>
          <Trackpoint>
            <Time>2023-02-23T12:08:24.000Z</Time>
            <Position>
              <LatitudeDegrees>41.497190929949283599853515625</LatitudeDegrees>
              <LongitudeDegrees>-4.534050039947032928466796875</LongitudeDegrees>
            </Position>
            <AltitudeMeters>1325.800048828125</AltitudeMeters>
            <DistanceMeters>19930.848997999</DistanceMeters>
          </Trackpoint>
          <Trackpoint>
            <Time>2023-02-23T12:08:25.000Z</Time>
            <Position>
              <LatitudeDegrees>41.4971582405269145965576171875</LatitudeDegrees>
              <LongitudeDegrees>-4.53406454063951969146728515625</LongitudeDegrees>
            </Position>
            <AltitudeMeters>1325.800048828125</AltitudeMeters>
            <DistanceMeters>19934.683181674</DistanceMeters>
          </Trackpoint>
          <Trackpoint>
            <Time>2023-02-23T12:08:27.000Z</Time>
            <Position>
              <LatitudeDegrees>41.49710250087082386016845703125</LatitudeDegrees>
              <LongitudeDegrees>-4.53408281318843364715576171875</LongitudeDegrees>
            </Position>
            <AltitudeMeters>1326.199951171875</AltitudeMeters>
            <DistanceMeters>19941.071917506</DistanceMeters>
          </Trackpoint>
          <Trackpoint>
            <Time>2023-02-23T12:08:30.000Z</Time>
            <Position>
              <LatitudeDegrees>41.497032344341278076171875</LatitudeDegrees>
              <LongitudeDegrees>-4.5341122336685657501220703125</LongitudeDegrees>
            </Position>
            <AltitudeMeters>1326.4000244140625</AltitudeMeters>
            <DistanceMeters>19949.256360496</DistanceMeters>
          </Trackpoint>
          <Trackpoint>
            <Time>2023-02-23T12:08:37.000Z</Time>
            <Position>
              <LatitudeDegrees>41.49683092720806598663330078125</LatitudeDegrees>
              <LongitudeDegrees>-4.53416478820145130157470703125</LongitudeDegrees>
            </Position>
            <AltitudeMeters>1326.5999755859375</AltitudeMeters>
            <DistanceMeters>19972.09877449</DistanceMeters>
          </Trackpoint>
          <Trackpoint>
            <Time>2023-02-23T12:08:44.000Z</Time>
            <Position>
              <LatitudeDegrees>41.4965951442718505859375</LatitudeDegrees>
              <LongitudeDegrees>-4.53423553146421909332275390625</LongitudeDegrees>
            </Position>
            <AltitudeMeters>1326.199951171875</AltitudeMeters>
            <DistanceMeters>19998.996538797</DistanceMeters>
          </Trackpoint>
          <Trackpoint>
            <Time>2023-02-23T12:08:50.000Z</Time>
            <Position>
              <LatitudeDegrees>41.49633706547319889068603515625</LatitudeDegrees>
              <LongitudeDegrees>-4.534344412386417388916015625</LongitudeDegrees>
            </Position>
            <AltitudeMeters>1325.800048828125</AltitudeMeters>
            <DistanceMeters>20029.121356182</DistanceMeters>
          </Trackpoint>
          <Trackpoint>
            <Time>2023-02-23T12:08:51.000Z</Time>
            <Position>
              <LatitudeDegrees>41.49629297666251659393310546875</LatitudeDegrees>
              <LongitudeDegrees>-4.53436595387756824493408203125</LongitudeDegrees>
            </Position>
            <AltitudeMeters>1325.5999755859375</AltitudeMeters>
            <DistanceMeters>20034.346961521</DistanceMeters>
          </Trackpoint>
          <Trackpoint>
            <Time>2023-02-23T12:08:52.000Z</Time>
            <Position>
              <LatitudeDegrees>41.49624587036669254302978515625</LatitudeDegrees>
              <LongitudeDegrees>-4.534380622208118438720703125</LongitudeDegrees>
            </Position>
            <AltitudeMeters>1325.199951171875</AltitudeMeters>
            <DistanceMeters>20039.730876954</DistanceMeters>
          </Trackpoint>
          <Trackpoint>
            <Time>2023-02-23T12:08:54.000Z</Time>
            <Position>
              <LatitudeDegrees>41.49615995585918426513671875</LatitudeDegrees>
              <LongitudeDegrees>-4.53442445956170558929443359375</LongitudeDegrees>
            </Position>
            <AltitudeMeters>1324.800048828125</AltitudeMeters>
            <DistanceMeters>20049.967331763</DistanceMeters>
          </Trackpoint>
          <Trackpoint>
            <Time>2023-02-23T12:08:56.000Z</Time>
            <Position>
              <LatitudeDegrees>41.4960749633610248565673828125</LatitudeDegrees>
              <LongitudeDegrees>-4.5344580709934234619140625</LongitudeDegrees>
            </Position>
            <AltitudeMeters>1324.800048828125</AltitudeMeters>
            <DistanceMeters>20059.833649418</DistanceMeters>
          </Trackpoint>
          <Trackpoint>
            <Time>2023-02-23T12:08:58.000Z</Time>
            <Position>
              <LatitudeDegrees>41.49599508382380008697509765625</LatitudeDegrees>
              <LongitudeDegrees>-4.53447676263749599456787109375</LongitudeDegrees>
            </Position>
            <AltitudeMeters>1325.4000244140625</AltitudeMeters>
            <DistanceMeters>20068.860186946</DistanceMeters>
          </Trackpoint>
          <Trackpoint>
            <Time>2023-02-23T12:09:01.000Z</Time>
            <Position>
              <LatitudeDegrees>41.49588310159742832183837890625</LatitudeDegrees>
              <LongitudeDegrees>-4.53452646732330322265625</LongitudeDegrees>
            </Position>
            <AltitudeMeters>1326</AltitudeMeters>
            <DistanceMeters>20081.994515265</DistanceMeters>
          </Trackpoint>
          <Trackpoint>
            <Time>2023-02-23T12:09:04.000Z</Time>
            <Position>
              <LatitudeDegrees>41.4957557804882526397705078125</LatitudeDegrees>
              <LongitudeDegrees>-4.53455890528857707977294921875</LongitudeDegrees>
            </Position>
            <AltitudeMeters>1326</AltitudeMeters>
            <DistanceMeters>20096.421060308</DistanceMeters>
          </Trackpoint>
          <Trackpoint>
            <Time>2023-02-23T12:09:06.000Z</Time>
            <Position>
              <LatitudeDegrees>41.49567087180912494659423828125</LatitudeDegrees>
              <LongitudeDegrees>-4.5345920138061046600341796875</LongitudeDegrees>
            </Position>
            <AltitudeMeters>1326</AltitudeMeters>
            <DistanceMeters>20106.266763464</DistanceMeters>
          </Trackpoint>
          <Trackpoint>
            <Time>2023-02-23T12:09:10.000Z</Time>
            <Position>
              <LatitudeDegrees>41.49548797868192195892333984375</LatitudeDegrees>
              <LongitudeDegrees>-4.53464406542479991912841796875</LongitudeDegrees>
            </Position>
            <AltitudeMeters>1325.5999755859375</AltitudeMeters>
            <DistanceMeters>20127.080434147</DistanceMeters>
          </Trackpoint>
          <Trackpoint>
            <Time>2023-02-23T12:09:12.000Z</Time>
            <Position>
              <LatitudeDegrees>41.49539007805287837982177734375</LatitudeDegrees>
              <LongitudeDegrees>-4.53466485254466533660888671875</LongitudeDegrees>
            </Position>
            <AltitudeMeters>1325.5999755859375</AltitudeMeters>
            <DistanceMeters>20138.11417742</DistanceMeters>
          </Trackpoint>
          <Trackpoint>
            <Time>2023-02-23T12:09:17.000Z</Time>
            <Position>
              <LatitudeDegrees>41.49514876306056976318359375</LatitudeDegrees>
              <LongitudeDegrees>-4.53475621528923511505126953125</LongitudeDegrees>
            </Position>
            <AltitudeMeters>1325.4000244140625</AltitudeMeters>
            <DistanceMeters>20166.031984605</DistanceMeters>
          </Trackpoint>
          <Trackpoint>
            <Time>2023-02-23T12:09:18.000Z</Time>
            <Position>
              <LatitudeDegrees>41.49509872309863567352294921875</LatitudeDegrees>
              <LongitudeDegrees>-4.53476560302078723907470703125</LongitudeDegrees>
            </Position>
            <AltitudeMeters>1325.199951171875</AltitudeMeters>
            <DistanceMeters>20171.656249694</DistanceMeters>
          </Trackpoint>
          <Trackpoint>
            <Time>2023-02-23T12:09:24.000Z</Time>
            <Position>
              <LatitudeDegrees>41.49481776170432567596435546875</LatitudeDegrees>
              <LongitudeDegrees>-4.53485076315701007843017578125</LongitudeDegrees>
            </Position>
            <AltitudeMeters>1324.800048828125</AltitudeMeters>
            <DistanceMeters>20203.723647705</DistanceMeters>
          </Trackpoint>
          <Trackpoint>
            <Time>2023-02-23T12:09:28.000Z</Time>
            <Position>
              <LatitudeDegrees>41.49464626796543598175048828125</LatitudeDegrees>
              <LongitudeDegrees>-4.534904994070529937744140625</LongitudeDegrees>
            </Position>
            <AltitudeMeters>1325.4000244140625</AltitudeMeters>
            <DistanceMeters>20223.339472627</DistanceMeters>
          </Trackpoint>
          <Trackpoint>
            <Time>2023-02-23T12:09:30.000Z</Time>
            <Position>
              <LatitudeDegrees>41.49455725215375423431396484375</LatitudeDegrees>
              <LongitudeDegrees>-4.53493558801710605621337890625</LongitudeDegrees>
            </Position>
            <AltitudeMeters>1325.4000244140625</AltitudeMeters>
            <DistanceMeters>20233.56975053</DistanceMeters>
          </Trackpoint>
          <Trackpoint>
            <Time>2023-02-23T12:09:31.000Z</Time>
            <Position>
              <LatitudeDegrees>41.4945124089717864990234375</LatitudeDegrees>
              <LongitudeDegrees>-4.53494866378605365753173828125</LongitudeDegrees>
            </Position>
            <AltitudeMeters>1325.4000244140625</AltitudeMeters>
            <DistanceMeters>20238.678265082</DistanceMeters>
          </Trackpoint>
          <Trackpoint>
            <Time>2023-02-23T12:09:32.000Z</Time>
            <Position>
              <LatitudeDegrees>41.494467817246913909912109375</LatitudeDegrees>
              <LongitudeDegrees>-4.53496442176401615142822265625</LongitudeDegrees>
            </Position>
            <AltitudeMeters>1325.4000244140625</AltitudeMeters>
            <DistanceMeters>20243.81234661</DistanceMeters>
          </Trackpoint>
          <Trackpoint>
            <Time>2023-02-23T12:09:40.000Z</Time>
            <Position>
              <LatitudeDegrees>41.49410412646830081939697265625</LatitudeDegrees>
              <LongitudeDegrees>-4.535086043179035186767578125</LongitudeDegrees>
            </Position>
            <AltitudeMeters>1325</AltitudeMeters>
            <DistanceMeters>20285.5421681</DistanceMeters>
          </Trackpoint>
          <Trackpoint>
            <Time>2023-02-23T12:09:45.000Z</Time>
            <Position>
              <LatitudeDegrees>41.49389139376580715179443359375</LatitudeDegrees>
              <LongitudeDegrees>-4.5351536013185977935791015625</LongitudeDegrees>
            </Position>
            <AltitudeMeters>1325.199951171875</AltitudeMeters>
            <DistanceMeters>20309.880140375</DistanceMeters>
          </Trackpoint>
          <Trackpoint>
            <Time>2023-02-23T12:09:49.000Z</Time>
            <Position>
              <LatitudeDegrees>41.49373280815780162811279296875</LatitudeDegrees>
              <LongitudeDegrees>-4.53520196489989757537841796875</LongitudeDegrees>
            </Position>
            <AltitudeMeters>1325</AltitudeMeters>
            <DistanceMeters>20327.985659839</DistanceMeters>
          </Trackpoint>
          <Trackpoint>
            <Time>2023-02-23T12:09:56.000Z</Time>
            <Position>
              <LatitudeDegrees>41.4934423752129077911376953125</LatitudeDegrees>
              <LongitudeDegrees>-4.53531847335398197174072265625</LongitudeDegrees>
            </Position>
            <AltitudeMeters>1324.800048828125</AltitudeMeters>
            <DistanceMeters>20361.739277197</DistanceMeters>
          </Trackpoint>
          <Trackpoint>
            <Time>2023-02-23T12:10:04.000Z</Time>
            <Position>
              <LatitudeDegrees>41.49310785345733165740966796875</LatitudeDegrees>
              <LongitudeDegrees>-4.5354343950748443603515625</LongitudeDegrees>
            </Position>
            <AltitudeMeters>1325</AltitudeMeters>
            <DistanceMeters>20400.205969104</DistanceMeters>
          </Trackpoint>
          <Trackpoint>
            <Time>2023-02-23T12:10:05.000Z</Time>
            <Position>
              <LatitudeDegrees>41.49306661449372768402099609375</LatitudeDegrees>
              <LongitudeDegrees>-4.535451829433441162109375</LongitudeDegrees>
            </Position>
            <AltitudeMeters>1325</AltitudeMeters>
            <DistanceMeters>20405.021489461</DistanceMeters>
          </Trackpoint>
          <Trackpoint>
            <Time>2023-02-23T12:10:07.000Z</Time>
            <Position>
              <LatitudeDegrees>41.4929820410907268524169921875</LatitudeDegrees>
              <LongitudeDegrees>-4.5354851894080638885498046875</LongitudeDegrees>
            </Position>
            <AltitudeMeters>1324.5999755859375</AltitudeMeters>
            <DistanceMeters>20414.837339687</DistanceMeters>
          </Trackpoint>
          <Trackpoint>
            <Time>2023-02-23T12:10:13.000Z</Time>
            <Position>
              <LatitudeDegrees>41.4927208609879016876220703125</LatitudeDegrees>
              <LongitudeDegrees>-4.535564817488193511962890625</LongitudeDegrees>
            </Position>
            <AltitudeMeters>1324.800048828125</AltitudeMeters>
            <DistanceMeters>20444.655747542</DistanceMeters>
          </Trackpoint>
          <Trackpoint>
            <Time>2023-02-23T12:10:20.000Z</Time>
            <Position>
              <LatitudeDegrees>41.4924221299588680267333984375</LatitudeDegrees>
              <LongitudeDegrees>-4.535639584064483642578125</LongitudeDegrees>
            </Position>
            <AltitudeMeters>1324.5999755859375</AltitudeMeters>
            <DistanceMeters>20478.484457061</DistanceMeters>
          </Trackpoint>
          <Trackpoint>
            <Time>2023-02-23T12:10:23.000Z</Time>
            <Position>
              <LatitudeDegrees>41.49229824542999267578125</LatitudeDegrees>
              <LongitudeDegrees>-4.53568778000771999359130859375</LongitudeDegrees>
            </Position>
            <AltitudeMeters>1324.4000244140625</AltitudeMeters>
            <DistanceMeters>20492.846700486</DistanceMeters>
          </Trackpoint>
          <Trackpoint>
            <Time>2023-02-23T12:10:26.000Z</Time>
            <Position>
              <LatitudeDegrees>41.49219489656388759613037109375</LatitudeDegrees>
              <LongitudeDegrees>-4.53572650440037250518798828125</LongitudeDegrees>
            </Position>
            <AltitudeMeters>1324.4000244140625</AltitudeMeters>
            <DistanceMeters>20504.794396851</DistanceMeters>
          </Trackpoint>
          <Trackpoint>
            <Time>2023-02-23T12:10:34.000Z</Time>
            <Position>
              <LatitudeDegrees>41.4918913878500461578369140625</LatitudeDegrees>
              <LongitudeDegrees>-4.53579858876764774322509765625</LongitudeDegrees>
            </Position>
            <AltitudeMeters>1324.199951171875</AltitudeMeters>
            <DistanceMeters>20539.105884085</DistanceMeters>
          </Trackpoint>
          <Trackpoint>
            <Time>2023-02-23T12:10:35.000Z</Time>
            <Position>
              <LatitudeDegrees>41.491847299039363861083984375</LatitudeDegrees>
              <LongitudeDegrees>-4.53581132926046848297119140625</LongitudeDegrees>
            </Position>
            <AltitudeMeters>1324.199951171875</AltitudeMeters>
            <DistanceMeters>20544.127036685</DistanceMeters>
          </Trackpoint>
          <Trackpoint>
            <Time>2023-02-23T12:10:38.000Z</Time>
            <Position>
              <LatitudeDegrees>41.4917250908911228179931640625</LatitudeDegrees>
              <LongitudeDegrees>-4.53584888018667697906494140625</LongitudeDegrees>
            </Position>
            <AltitudeMeters>1324.4000244140625</AltitudeMeters>
            <DistanceMeters>20558.084646409</DistanceMeters>
          </Trackpoint>
          <Trackpoint>
            <Time>2023-02-23T12:10:43.000Z</Time>
            <Position>
              <LatitudeDegrees>41.49152685888111591339111328125</LatitudeDegrees>
              <LongitudeDegrees>-4.5359146781265735626220703125</LongitudeDegrees>
            </Position>
            <AltitudeMeters>1324.4000244140625</AltitudeMeters>
            <DistanceMeters>20580.819676113</DistanceMeters>
          </Trackpoint>
          <Trackpoint>
            <Time>2023-02-23T12:10:49.000Z</Time>
            <Position>
              <LatitudeDegrees>41.49128093384206295013427734375</LatitudeDegrees>
              <LongitudeDegrees>-4.53599698841571807861328125</LongitudeDegrees>
            </Position>
            <AltitudeMeters>1324.4000244140625</AltitudeMeters>
            <DistanceMeters>20609.038610557</DistanceMeters>
          </Trackpoint>
          <Trackpoint>
            <Time>2023-02-23T12:10:50.000Z</Time>
            <Position>
              <LatitudeDegrees>41.49124078452587127685546875</LatitudeDegrees>
              <LongitudeDegrees>-4.5360115729272365570068359375</LongitudeDegrees>
            </Position>
            <AltitudeMeters>1324.4000244140625</AltitudeMeters>
            <DistanceMeters>20613.670614619</DistanceMeters>
          </Trackpoint>
          <Trackpoint>
            <Time>2023-02-23T12:10:57.000Z</Time>
            <Position>
              <LatitudeDegrees>41.49098463356494903564453125</LatitudeDegrees>
              <LongitudeDegrees>-4.5361218787729740142822265625</LongitudeDegrees>
            </Position>
            <AltitudeMeters>1324.5999755859375</AltitudeMeters>
            <DistanceMeters>20643.627249392</DistanceMeters>
          </Trackpoint>
          <Trackpoint>
            <Time>2023-02-23T12:11:00.000Z</Time>
            <Position>
              <LatitudeDegrees>41.4908734895288944244384765625</LatitudeDegrees>
              <LongitudeDegrees>-4.5361567474901676177978515625</LongitudeDegrees>
            </Position>
            <AltitudeMeters>1324.4000244140625</AltitudeMeters>
            <DistanceMeters>20656.334918614</DistanceMeters>
          </Trackpoint>
          <Trackpoint>
            <Time>2023-02-23T12:11:01.000Z</Time>
            <Position>
              <LatitudeDegrees>41.49083317257463932037353515625</LatitudeDegrees>
              <LongitudeDegrees>-4.5361725054681301116943359375</LongitudeDegrees>
            </Position>
            <AltitudeMeters>1324.4000244140625</AltitudeMeters>
            <DistanceMeters>20661.00961486</DistanceMeters>
          </Trackpoint>
          <Trackpoint>
            <Time>2023-02-23T12:11:03.000Z</Time>
            <Position>
              <LatitudeDegrees>41.49075270630419254302978515625</LatitudeDegrees>
              <LongitudeDegrees>-4.53620276413857936859130859375</LongitudeDegrees>
            </Position>
            <AltitudeMeters>1324.4000244140625</AltitudeMeters>
            <DistanceMeters>20670.314472352</DistanceMeters>
          </Trackpoint>
          <Trackpoint>
            <Time>2023-02-23T12:11:13.000Z</Time>
            <Position>
              <LatitudeDegrees>41.49034534581005573272705078125</LatitudeDegrees>
              <LongitudeDegrees>-4.53635380603373050689697265625</LongitudeDegrees>
            </Position>
            <AltitudeMeters>1324</AltitudeMeters>
            <DistanceMeters>20717.370833932</DistanceMeters>
          </Trackpoint>
          <Trackpoint>
            <Time>2023-02-23T12:11:16.000Z</Time>
            <Position>
              <LatitudeDegrees>41.49021886289119720458984375</LatitudeDegrees>
              <LongitudeDegrees>-4.53639127314090728759765625</LongitudeDegrees>
            </Position>
            <AltitudeMeters>1324.199951171875</AltitudeMeters>
            <DistanceMeters>20731.791118268</DistanceMeters>
          </Trackpoint>
          <Trackpoint>
            <Time>2023-02-23T12:11:18.000Z</Time>
            <Position>
              <LatitudeDegrees>41.49013697169721126556396484375</LatitudeDegrees>
              <LongitudeDegrees>-4.5364303328096866607666015625</LongitudeDegrees>
            </Position>
            <AltitudeMeters>1324.4000244140625</AltitudeMeters>
            <DistanceMeters>20741.469858529</DistanceMeters>
          </Trackpoint>
          <Trackpoint>
            <Time>2023-02-23T12:11:19.000Z</Time>
            <Position>
              <LatitudeDegrees>41.49009640328586101531982421875</LatitudeDegrees>
              <LongitudeDegrees>-4.53644885681569576263427734375</LongitudeDegrees>
            </Position>
            <AltitudeMeters>1324.4000244140625</AltitudeMeters>
            <DistanceMeters>20746.242054333</DistanceMeters>
          </Trackpoint>
          <Trackpoint>
            <Time>2023-02-23T12:11:20.000Z</Time>
            <Position>
              <LatitudeDegrees>41.49005717597901821136474609375</LatitudeDegrees>
              <LongitudeDegrees>-4.5364628545939922332763671875</LongitudeDegrees>
            </Position>
            <AltitudeMeters>1324.4000244140625</AltitudeMeters>
            <DistanceMeters>20750.761571223</DistanceMeters>
          </Trackpoint>
          <Trackpoint>
            <Time>2023-02-23T12:11:21.000Z</Time>
            <Position>
              <LatitudeDegrees>41.49001476354897022247314453125</LatitudeDegrees>
              <LongitudeDegrees>-4.53647986985743045806884765625</LongitudeDegrees>
            </Position>
            <AltitudeMeters>1324.4000244140625</AltitudeMeters>
            <DistanceMeters>20755.691067719</DistanceMeters>
          </Trackpoint>
          <Trackpoint>
            <Time>2023-02-23T12:11:28.000Z</Time>
            <Position>
              <LatitudeDegrees>41.4897181279957294464111328125</LatitudeDegrees>
              <LongitudeDegrees>-4.53658112324774265289306640625</LongitudeDegrees>
            </Position>
            <AltitudeMeters>1324</AltitudeMeters>
            <DistanceMeters>20789.769507697</DistanceMeters>
          </Trackpoint>
          <Trackpoint>
            <Time>2023-02-23T12:11:32.000Z</Time>
            <Position>
              <LatitudeDegrees>41.4895602129399776458740234375</LatitudeDegrees>
              <LongitudeDegrees>-4.53661884181201457977294921875</LongitudeDegrees>
            </Position>
            <AltitudeMeters>1324.4000244140625</AltitudeMeters>
            <DistanceMeters>20807.624923652</DistanceMeters>
          </Trackpoint>
          <Trackpoint>
            <Time>2023-02-23T12:11:36.000Z</Time>
            <Position>
              <LatitudeDegrees>41.489401124417781829833984375</LatitudeDegrees>
              <LongitudeDegrees>-4.53667785041034221649169921875</LongitudeDegrees>
            </Position>
            <AltitudeMeters>1324.5999755859375</AltitudeMeters>
            <DistanceMeters>20826.002215591</DistanceMeters>
          </Trackpoint>
          <Trackpoint>
            <Time>2023-02-23T12:11:39.000Z</Time>
            <Position>
              <LatitudeDegrees>41.48927363567054271697998046875</LatitudeDegrees>
              <LongitudeDegrees>-4.53672663308680057525634765625</LongitudeDegrees>
            </Position>
            <AltitudeMeters>1324.5999755859375</AltitudeMeters>
            <DistanceMeters>20840.762895942</DistanceMeters>
          </Trackpoint>
          <Trackpoint>
            <Time>2023-02-23T12:11:43.000Z</Time>
            <Position>
              <LatitudeDegrees>41.489102058112621307373046875</LatitudeDegrees>
              <LongitudeDegrees>-4.53678262419998645782470703125</LongitudeDegrees>
            </Position>
            <AltitudeMeters>1324.4000244140625</AltitudeMeters>
            <DistanceMeters>20860.421945811</DistanceMeters>
          </Trackpoint>
          <Trackpoint>
            <Time>2023-02-23T12:11:50.000Z</Time>
            <Position>
              <LatitudeDegrees>41.48881011642515659332275390625</LatitudeDegrees>
              <LongitudeDegrees>-4.53686929307878017425537109375</LongitudeDegrees>
            </Position>
            <AltitudeMeters>1324.5999755859375</AltitudeMeters>
            <DistanceMeters>20893.709520374</DistanceMeters>
          </Trackpoint>
          <Trackpoint>
            <Time>2023-02-23T12:11:51.000Z</Time>
            <Position>
              <LatitudeDegrees>41.48876854218542575836181640625</LatitudeDegrees>
              <LongitudeDegrees>-4.53687951900064945220947265625</LongitudeDegrees>
            </Position>
            <AltitudeMeters>1324.4000244140625</AltitudeMeters>
            <DistanceMeters>20898.4150222</DistanceMeters>
          </Trackpoint>
          <Trackpoint>
            <Time>2023-02-23T12:11:54.000Z</Time>
            <Position>
              <LatitudeDegrees>41.488653458654880523681640625</LatitudeDegrees>
              <LongitudeDegrees>-4.5369339175522327423095703125</LongitudeDegrees>
            </Position>
            <AltitudeMeters>1324.5999755859375</AltitudeMeters>
            <DistanceMeters>20912.00351009</DistanceMeters>
          </Trackpoint>
          <Trackpoint>
            <Time>2023-02-23T12:11:58.000Z</Time>
            <Position>
              <LatitudeDegrees>41.4884816296398639678955078125</LatitudeDegrees>
              <LongitudeDegrees>-4.5369815267622470855712890625</LongitudeDegrees>
            </Position>
            <AltitudeMeters>1324.800048828125</AltitudeMeters>
            <DistanceMeters>20931.536065728</DistanceMeters>
          </Trackpoint>
          <Trackpoint>
            <Time>2023-02-23T12:12:01.000Z</Time>
            <Position>
              <LatitudeDegrees>41.48834743537008762359619140625</LatitudeDegrees>
              <LongitudeDegrees>-4.53702502883970737457275390625</LongitudeDegrees>
            </Position>
            <AltitudeMeters>1324.800048828125</AltitudeMeters>
            <DistanceMeters>20946.906324669</DistanceMeters>
          </Trackpoint>
          <Trackpoint>
            <Time>2023-02-23T12:12:05.000Z</Time>
            <Position>
              <LatitudeDegrees>41.4881560765206813812255859375</LatitudeDegrees>
              <LongitudeDegrees>-4.5370854623615741729736328125</LongitudeDegrees>
            </Position>
            <AltitudeMeters>1324.800048828125</AltitudeMeters>
            <DistanceMeters>20968.79281514</DistanceMeters>
          </Trackpoint>
          <Trackpoint>
            <Time>2023-02-23T12:12:12.000Z</Time>
            <Position>
              <LatitudeDegrees>41.48778266273438930511474609375</LatitudeDegrees>
              <LongitudeDegrees>-4.53720339573919773101806640625</LongitudeDegrees>
            </Position>
            <AltitudeMeters>1324</AltitudeMeters>
            <DistanceMeters>21011.501905643</DistanceMeters>
          </Trackpoint>
          <Trackpoint>
            <Time>2023-02-23T12:12:19.000Z</Time>
            <Position>
              <LatitudeDegrees>41.48742341436445713043212890625</LatitudeDegrees>
              <LongitudeDegrees>-4.53734085895121097564697265625</LongitudeDegrees>
            </Position>
            <AltitudeMeters>1324</AltitudeMeters>
            <DistanceMeters>21053.097346581</DistanceMeters>
          </Trackpoint>
          <Trackpoint>
            <Time>2023-02-23T12:12:26.000Z</Time>
            <Position>
              <LatitudeDegrees>41.48708478547632694244384765625</LatitudeDegrees>
              <LongitudeDegrees>-4.53745502047240734100341796875</LongitudeDegrees>
            </Position>
            <AltitudeMeters>1324.5999755859375</AltitudeMeters>
            <DistanceMeters>21091.970823048</DistanceMeters>
          </Trackpoint>
          <Trackpoint>
            <Time>2023-02-23T12:12:30.000Z</Time>
            <Position>
              <LatitudeDegrees>41.48689099587500095367431640625</LatitudeDegrees>
              <LongitudeDegrees>-4.53750112093985080718994140625</LongitudeDegrees>
            </Position>
            <AltitudeMeters>1323.800048828125</AltitudeMeters>
            <DistanceMeters>21113.879787958</DistanceMeters>
          </Trackpoint>
          <Trackpoint>
            <Time>2023-02-23T12:12:32.000Z</Time>
            <Position>
              <LatitudeDegrees>41.48679343052208423614501953125</LatitudeDegrees>
              <LongitudeDegrees>-4.5375343970954418182373046875</LongitudeDegrees>
            </Position>
            <AltitudeMeters>1323.5999755859375</AltitudeMeters>
            <DistanceMeters>21125.087301658</DistanceMeters>
          </Trackpoint>
          <Trackpoint>
            <Time>2023-02-23T12:12:33.000Z</Time>
            <Position>
              <LatitudeDegrees>41.48674498312175273895263671875</LatitudeDegrees>
              <LongitudeDegrees>-4.5375535078346729278564453125</LongitudeDegrees>
            </Position>
            <AltitudeMeters>1323.5999755859375</AltitudeMeters>
            <DistanceMeters>21130.709157896</DistanceMeters>
          </Trackpoint>
          <Trackpoint>
            <Time>2023-02-23T12:12:40.000Z</Time>
            <Position>
              <LatitudeDegrees>41.4863982237875461578369140625</LatitudeDegrees>
              <LongitudeDegrees>-4.537669681012630462646484375</LongitudeDegrees>
            </Position>
            <AltitudeMeters>1323.800048828125</AltitudeMeters>
            <DistanceMeters>21170.500963386</DistanceMeters>
          </Trackpoint>
          <Trackpoint>
            <Time>2023-02-23T12:12:47.000Z</Time>
            <Position>
              <LatitudeDegrees>41.486070156097412109375</LatitudeDegrees>
              <LongitudeDegrees>-4.5377814956009387969970703125</LongitudeDegrees>
            </Position>
            <AltitudeMeters>1323.4000244140625</AltitudeMeters>
            <DistanceMeters>21208.186933759</DistanceMeters>
          </Trackpoint>
          <Trackpoint>
            <Time>2023-02-23T12:12:50.000Z</Time>
            <Position>
              <LatitudeDegrees>41.4859355427324771881103515625</LatitudeDegrees>
              <LongitudeDegrees>-4.53783698379993438720703125</LongitudeDegrees>
            </Position>
            <AltitudeMeters>1323.199951171875</AltitudeMeters>
            <DistanceMeters>21223.867205485</DistanceMeters>
          </Trackpoint>
          <Trackpoint>
            <Time>2023-02-23T12:12:53.000Z</Time>
            <Position>
              <LatitudeDegrees>41.48580319248139858245849609375</LatitudeDegrees>
              <LongitudeDegrees>-4.53789104707539081573486328125</LongitudeDegrees>
            </Position>
            <AltitudeMeters>1323.5999755859375</AltitudeMeters>
            <DistanceMeters>21239.272381207</DistanceMeters>
          </Trackpoint>
          <Trackpoint>
            <Time>2023-02-23T12:13:01.000Z</Time>
            <Position>
              <LatitudeDegrees>41.48545182310044765472412109375</LatitudeDegrees>
              <LongitudeDegrees>-4.53801727853715419769287109375</LongitudeDegrees>
            </Position>
            <AltitudeMeters>1323.199951171875</AltitudeMeters>
            <DistanceMeters>21279.771937442</DistanceMeters>
          </Trackpoint>
          <Trackpoint>
            <Time>2023-02-23T12:13:02.000Z</Time>
            <Position>
              <LatitudeDegrees>41.48541024886071681976318359375</LatitudeDegrees>
              <LongitudeDegrees>-4.53803018666803836822509765625</LongitudeDegrees>
            </Position>
            <AltitudeMeters>1323.199951171875</AltitudeMeters>
            <DistanceMeters>21284.52327316</DistanceMeters>
          </Trackpoint>
          <Trackpoint>
            <Time>2023-02-23T12:13:04.000Z</Time>
            <Position>
              <LatitudeDegrees>41.48532693274319171905517578125</LatitudeDegrees>
              <LongitudeDegrees>-4.5380522310733795166015625</LongitudeDegrees>
            </Position>
            <AltitudeMeters>1323</AltitudeMeters>
            <DistanceMeters>21293.976879169</DistanceMeters>
          </Trackpoint>
          <Trackpoint>
            <Time>2023-02-23T12:13:08.000Z</Time>
            <Position>
              <LatitudeDegrees>41.48519047535955905914306640625</LatitudeDegrees>
              <LongitudeDegrees>-4.53810277394950389862060546875</LongitudeDegrees>
            </Position>
            <AltitudeMeters>1323.4000244140625</AltitudeMeters>
            <DistanceMeters>21309.738714821</DistanceMeters>
          </Trackpoint>
          <Trackpoint>
            <Time>2023-02-23T12:13:13.000Z</Time>
            <Position>
              <LatitudeDegrees>41.4850370027124881744384765625</LatitudeDegrees>
              <LongitudeDegrees>-4.53815474174916744232177734375</LongitudeDegrees>
            </Position>
            <AltitudeMeters>1323.5999755859375</AltitudeMeters>
            <DistanceMeters>21327.361495222</DistanceMeters>
          </Trackpoint>
          <Trackpoint>
            <Time>2023-02-23T12:13:16.000Z</Time>
            <Position>
              <LatitudeDegrees>41.4849545247852802276611328125</LatitudeDegrees>
              <LongitudeDegrees>-4.53817720524966716766357421875</LongitudeDegrees>
            </Position>
            <AltitudeMeters>1323.4000244140625</AltitudeMeters>
            <DistanceMeters>21336.730184727</DistanceMeters>
          </Trackpoint>
          <Trackpoint>
            <Time>2023-02-23T12:13:22.000Z</Time>
            <Position>
              <LatitudeDegrees>41.4847625792026519775390625</LatitudeDegrees>
              <LongitudeDegrees>-4.53823269344866275787353515625</LongitudeDegrees>
            </Position>
            <AltitudeMeters>1323.199951171875</AltitudeMeters>
            <DistanceMeters>21358.589220958</DistanceMeters>
          </Trackpoint>
          <Trackpoint>
            <Time>2023-02-23T12:13:25.000Z</Time>
            <Position>
              <LatitudeDegrees>41.48465017788112163543701171875</LatitudeDegrees>
              <LongitudeDegrees>-4.53828348778188228607177734375</LongitudeDegrees>
            </Position>
            <AltitudeMeters>1323.199951171875</AltitudeMeters>
            <DistanceMeters>21371.797250592</DistanceMeters>
          </Trackpoint>
          <Trackpoint>
            <Time>2023-02-23T12:13:29.000Z</Time>
            <Position>
              <LatitudeDegrees>41.48451573215425014495849609375</LatitudeDegrees>
              <LongitudeDegrees>-4.538373090326786041259765625</LongitudeDegrees>
            </Position>
            <AltitudeMeters>1323.199951171875</AltitudeMeters>
            <DistanceMeters>21388.522492237</DistanceMeters>
          </Trackpoint>
          <Trackpoint>
            <Time>2023-02-23T12:13:37.000Z</Time>
            <Position>
              <LatitudeDegrees>41.48424885235726833343505859375</LatitudeDegrees>
              <LongitudeDegrees>-4.53850124962627887725830078125</LongitudeDegrees>
            </Position>
            <AltitudeMeters>1323.4000244140625</AltitudeMeters>
            <DistanceMeters>21420.090389635</DistanceMeters>
          </Trackpoint>
          <Trackpoint>
            <Time>2023-02-23T12:13:41.000Z</Time>
            <Position>
              <LatitudeDegrees>41.48415983654558658599853515625</LatitudeDegrees>
              <LongitudeDegrees>-4.5384423248469829559326171875</LongitudeDegrees>
            </Position>
            <AltitudeMeters>1323.4000244140625</AltitudeMeters>
            <DistanceMeters>21431.149066106</DistanceMeters>
          </Trackpoint>
          <Trackpoint>
            <Time>2023-02-23T12:13:42.000Z</Time>
            <Position>
              <LatitudeDegrees>41.48414927534759044647216796875</LatitudeDegrees>
              <LongitudeDegrees>-4.5383977331221103668212890625</LongitudeDegrees>
            </Position>
            <AltitudeMeters>1323.4000244140625</AltitudeMeters>
            <DistanceMeters>21435.048636432</DistanceMeters>
          </Trackpoint>
          <Trackpoint>
            <Time>2023-02-23T12:13:45.000Z</Time>
            <Position>
              <LatitudeDegrees>41.4841414801776409149169921875</LatitudeDegrees>
              <LongitudeDegrees>-4.538261778652667999267578125</LongitudeDegrees>
            </Position>
            <AltitudeMeters>1323.4000244140625</AltitudeMeters>
            <DistanceMeters>21446.417739925</DistanceMeters>
          </Trackpoint>
          <Trackpoint>
            <Time>2023-02-23T12:13:46.000Z</Time>
            <Position>
              <LatitudeDegrees>41.484146676957607269287109375</LatitudeDegrees>
              <LongitudeDegrees>-4.53820712864398956298828125</LongitudeDegrees>
            </Position>
            <AltitudeMeters>1323.4000244140625</AltitudeMeters>
            <DistanceMeters>21451.010588558</DistanceMeters>
          </Trackpoint>
          <Trackpoint>
            <Time>2023-02-23T12:13:51.000Z</Time>
            <Position>
              <LatitudeDegrees>41.48413427174091339111328125</LatitudeDegrees>
              <LongitudeDegrees>-4.53793865628540515899658203125</LongitudeDegrees>
            </Position>
            <AltitudeMeters>1323</AltitudeMeters>
            <DistanceMeters>21473.438503714</DistanceMeters>
          </Trackpoint>
          <Trackpoint>
            <Time>2023-02-23T12:13:58.000Z</Time>
            <Position>
              <LatitudeDegrees>41.48408624343574047088623046875</LatitudeDegrees>
              <LongitudeDegrees>-4.53755090944468975067138671875</LongitudeDegrees>
            </Position>
            <AltitudeMeters>1322.800048828125</AltitudeMeters>
            <DistanceMeters>21506.207980832</DistanceMeters>
          </Trackpoint>
          <Trackpoint>
            <Time>2023-02-23T12:14:05.000Z</Time>
            <Position>
              <LatitudeDegrees>41.48401625454425811767578125</LatitudeDegrees>
              <LongitudeDegrees>-4.537192918360233306884765625</LongitudeDegrees>
            </Position>
            <AltitudeMeters>1323</AltitudeMeters>
            <DistanceMeters>21537.057288059</DistanceMeters>
          </Trackpoint>
          <Trackpoint>
            <Time>2023-02-23T12:14:11.000Z</Time>
            <Position>
              <LatitudeDegrees>41.48395230062305927276611328125</LatitudeDegrees>
              <LongitudeDegrees>-4.53689628280699253082275390625</LongitudeDegrees>
            </Position>
            <AltitudeMeters>1323.199951171875</AltitudeMeters>
            <DistanceMeters>21562.794971478</DistanceMeters>
          </Trackpoint>
          <Trackpoint>
            <Time>2023-02-23T12:14:15.000Z</Time>
            <Position>
              <LatitudeDegrees>41.4838962256908416748046875</LatitudeDegrees>
              <LongitudeDegrees>-4.5367025770246982574462890625</LongitudeDegrees>
            </Position>
            <AltitudeMeters>1323.199951171875</AltitudeMeters>
            <DistanceMeters>21580.110184388</DistanceMeters>
          </Trackpoint>
          <Trackpoint>
            <Time>2023-02-23T12:14:17.000Z</Time>
            <Position>
              <LatitudeDegrees>41.4838685654103755950927734375</LatitudeDegrees>
              <LongitudeDegrees>-4.5366076938807964324951171875</LongitudeDegrees>
            </Position>
            <AltitudeMeters>1323.4000244140625</AltitudeMeters>
            <DistanceMeters>21588.600064845</DistanceMeters>
          </Trackpoint>
          <Trackpoint>
            <Time>2023-02-23T12:14:24.000Z</Time>
            <Position>
              <LatitudeDegrees>41.48375951685011386871337890625</LatitudeDegrees>
              <LongitudeDegrees>-4.53625841997563838958740234375</LongitudeDegrees>
            </Position>
            <AltitudeMeters>1323.199951171875</AltitudeMeters>
            <DistanceMeters>21620.150937527</DistanceMeters>
          </Trackpoint>
          <Trackpoint>
            <Time>2023-02-23T12:14:30.000Z</Time>
            <Position>
              <LatitudeDegrees>41.48371182382106781005859375</LatitudeDegrees>
              <LongitudeDegrees>-4.53596069477498531341552734375</LongitudeDegrees>
            </Position>
            <AltitudeMeters>1323.4000244140625</AltitudeMeters>
            <DistanceMeters>21645.53676892</DistanceMeters>
          </Trackpoint>
          <Trackpoint>
            <Time>2023-02-23T12:14:38.000Z</Time>
            <Position>
              <LatitudeDegrees>41.48367603309452533721923828125</LatitudeDegrees>
              <LongitudeDegrees>-4.53555718995630741119384765625</LongitudeDegrees>
            </Position>
            <AltitudeMeters>1323</AltitudeMeters>
            <DistanceMeters>21679.416424717</DistanceMeters>
          </Trackpoint>
          <Trackpoint>
            <Time>2023-02-23T12:14:40.000Z</Time>
            <Position>
              <LatitudeDegrees>41.483675278723239898681640625</LatitudeDegrees>
              <LongitudeDegrees>-4.535472951829433441162109375</LongitudeDegrees>
            </Position>
            <AltitudeMeters>1322.800048828125</AltitudeMeters>
            <DistanceMeters>21686.44004968</DistanceMeters>
          </Trackpoint>
          <Trackpoint>
            <Time>2023-02-23T12:14:42.000Z</Time>
            <Position>
              <LatitudeDegrees>41.48367418907582759857177734375</LatitudeDegrees>
              <LongitudeDegrees>-4.53536801040172576904296875</LongitudeDegrees>
            </Position>
            <AltitudeMeters>1322.800048828125</AltitudeMeters>
            <DistanceMeters>21695.19128264</DistanceMeters>
          </Trackpoint>
          <Trackpoint>
            <Time>2023-02-23T12:14:46.000Z</Time>
            <Position>
              <LatitudeDegrees>41.4836653880774974822998046875</LatitudeDegrees>
              <LongitudeDegrees>-4.5351385138928890228271484375</LongitudeDegrees>
            </Position>
            <AltitudeMeters>1323.800048828125</AltitudeMeters>
            <DistanceMeters>21714.352071193</DistanceMeters>
          </Trackpoint>
          <Trackpoint>
            <Time>2023-02-23T12:14:54.000Z</Time>
            <Position>
              <LatitudeDegrees>41.48365306667983531951904296875</LatitudeDegrees>
              <LongitudeDegrees>-4.5347023196518421173095703125</LongitudeDegrees>
            </Position>
            <AltitudeMeters>1324</AltitudeMeters>
            <DistanceMeters>21750.748171177</DistanceMeters>
          </Trackpoint>
          <Trackpoint>
            <Time>2023-02-23T12:14:55.000Z</Time>
            <Position>
              <LatitudeDegrees>41.4836503006517887115478515625</LatitudeDegrees>
              <LongitudeDegrees>-4.5346480049192905426025390625</LongitudeDegrees>
            </Position>
            <AltitudeMeters>1324</AltitudeMeters>
            <DistanceMeters>21755.286629546</DistanceMeters>
          </Trackpoint>
          <Trackpoint>
            <Time>2023-02-23T12:15:02.000Z</Time>
            <Position>
              <LatitudeDegrees>41.4836422540247440338134765625</LatitudeDegrees>
              <LongitudeDegrees>-4.5342460088431835174560546875</LongitudeDegrees>
            </Position>
            <AltitudeMeters>1323.5999755859375</AltitudeMeters>
            <DistanceMeters>21788.817597143</DistanceMeters>
          </Trackpoint>
          <Trackpoint>
            <Time>2023-02-23T12:15:09.000Z</Time>
            <Position>
              <LatitudeDegrees>41.48364636115729808807373046875</LatitudeDegrees>
              <LongitudeDegrees>-4.533869326114654541015625</LongitudeDegrees>
            </Position>
            <AltitudeMeters>1324.199951171875</AltitudeMeters>
            <DistanceMeters>21820.229065315</DistanceMeters>
          </Trackpoint>
          <Trackpoint>
            <Time>2023-02-23T12:15:11.000Z</Time>
            <Position>
              <LatitudeDegrees>41.483651138842105865478515625</LatitudeDegrees>
              <LongitudeDegrees>-4.53376178629696369171142578125</LongitudeDegrees>
            </Position>
            <AltitudeMeters>1324.199951171875</AltitudeMeters>
            <DistanceMeters>21829.211477743</DistanceMeters>
          </Trackpoint>
          <Trackpoint>
            <Time>2023-02-23T12:15:19.000Z</Time>
            <Position>
              <LatitudeDegrees>41.4836727641522884368896484375</LatitudeDegrees>
              <LongitudeDegrees>-4.5333337225019931793212890625</LongitudeDegrees>
            </Position>
            <AltitudeMeters>1324</AltitudeMeters>
            <DistanceMeters>21864.985091814</DistanceMeters>
          </Trackpoint>
          <Trackpoint>
            <Time>2023-02-23T12:15:22.000Z</Time>
            <Position>
              <LatitudeDegrees>41.483678631484508514404296875</LatitudeDegrees>
              <LongitudeDegrees>-4.53316331841051578521728515625</LongitudeDegrees>
            </Position>
            <AltitudeMeters>1323.800048828125</AltitudeMeters>
            <DistanceMeters>21879.208657916</DistanceMeters>
          </Trackpoint>
          <Trackpoint>
            <Time>2023-02-23T12:15:23.000Z</Time>
            <Position>
              <LatitudeDegrees>41.48367821238934993743896484375</LatitudeDegrees>
              <LongitudeDegrees>-4.533107578754425048828125</LongitudeDegrees>
            </Position>
            <AltitudeMeters>1323.5999755859375</AltitudeMeters>
            <DistanceMeters>21883.856231783</DistanceMeters>
          </Trackpoint>
          <Trackpoint>
            <Time>2023-02-23T12:15:24.000Z</Time>
            <Position>
              <LatitudeDegrees>41.48367368616163730621337890625</LatitudeDegrees>
              <LongitudeDegrees>-4.5330525934696197509765625</LongitudeDegrees>
            </Position>
            <AltitudeMeters>1323.5999755859375</AltitudeMeters>
            <DistanceMeters>21888.46869968</DistanceMeters>
          </Trackpoint>
          <Trackpoint>
            <Time>2023-02-23T12:15:26.000Z</Time>
            <Position>
              <LatitudeDegrees>41.48365993984043598175048828125</LatitudeDegrees>
              <LongitudeDegrees>-4.5329478196799755096435546875</LongitudeDegrees>
            </Position>
            <AltitudeMeters>1323.5999755859375</AltitudeMeters>
            <DistanceMeters>21897.338312185</DistanceMeters>
          </Trackpoint>
          <Trackpoint>
            <Time>2023-02-23T12:15:27.000Z</Time>
            <Position>
              <LatitudeDegrees>41.48365424014627933502197265625</LatitudeDegrees>
              <LongitudeDegrees>-4.5328904874622821807861328125</LongitudeDegrees>
            </Position>
            <AltitudeMeters>1323.5999755859375</AltitudeMeters>
            <DistanceMeters>21902.16132752</DistanceMeters>
          </Trackpoint>
          <Trackpoint>
            <Time>2023-02-23T12:15:29.000Z</Time>
            <Position>
              <LatitudeDegrees>41.4836593531072139739990234375</LatitudeDegrees>
              <LongitudeDegrees>-4.5327714644372463226318359375</LongitudeDegrees>
            </Position>
            <AltitudeMeters>1323.5999755859375</AltitudeMeters>
            <DistanceMeters>21912.101957607</DistanceMeters>
          </Trackpoint>
          <Trackpoint>
            <Time>2023-02-23T12:15:31.000Z</Time>
            <Position>
              <LatitudeDegrees>41.4836647175252437591552734375</LatitudeDegrees>
              <LongitudeDegrees>-4.53265923075377941131591796875</LongitudeDegrees>
            </Position>
            <AltitudeMeters>1323.5999755859375</AltitudeMeters>
            <DistanceMeters>21921.479317811</DistanceMeters>
          </Trackpoint>
          <Trackpoint>
            <Time>2023-02-23T12:15:38.000Z</Time>
            <Position>
              <LatitudeDegrees>41.48368592374026775360107421875</LatitudeDegrees>
              <LongitudeDegrees>-4.5323295705020427703857421875</LongitudeDegrees>
            </Position>
            <AltitudeMeters>1324</AltitudeMeters>
            <DistanceMeters>21949.068013203</DistanceMeters>
          </Trackpoint>
          <Trackpoint>
            <Time>2023-02-23T12:15:44.000Z</Time>
            <Position>
              <LatitudeDegrees>41.48372565396130084991455078125</LatitudeDegrees>
              <LongitudeDegrees>-4.53211239539086818695068359375</LongitudeDegrees>
            </Position>
            <AltitudeMeters>1324</AltitudeMeters>
            <DistanceMeters>21967.708757328</DistanceMeters>
          </Trackpoint>
          <Trackpoint>
            <Time>2023-02-23T12:15:47.000Z</Time>
            <Position>
              <LatitudeDegrees>41.483739316463470458984375</LatitudeDegrees>
              <LongitudeDegrees>-4.53199991025030612945556640625</LongitudeDegrees>
            </Position>
            <AltitudeMeters>1324</AltitudeMeters>
            <DistanceMeters>21977.210478451</DistanceMeters>
          </Trackpoint>
          <Trackpoint>
            <Time>2023-02-23T12:15:49.000Z</Time>
            <Position>
              <LatitudeDegrees>41.48374526761472225189208984375</LatitudeDegrees>
              <LongitudeDegrees>-4.5319299213588237762451171875</LongitudeDegrees>
            </Position>
            <AltitudeMeters>1324.4000244140625</AltitudeMeters>
            <DistanceMeters>21983.083713676</DistanceMeters>
          </Trackpoint>
          <Trackpoint>
            <Time>2023-02-23T12:15:51.000Z</Time>
            <Position>
              <LatitudeDegrees>41.483743675053119659423828125</LatitudeDegrees>
              <LongitudeDegrees>-4.531855992972850799560546875</LongitudeDegrees>
            </Position>
            <AltitudeMeters>1324.199951171875</AltitudeMeters>
            <DistanceMeters>21989.250940118</DistanceMeters>
          </Trackpoint>
          <Trackpoint>
            <Time>2023-02-23T12:15:57.000Z</Time>
            <Position>
              <LatitudeDegrees>41.48374241776764392852783203125</LatitudeDegrees>
              <LongitudeDegrees>-4.5316368900239467620849609375</LongitudeDegrees>
            </Position>
            <AltitudeMeters>1324</AltitudeMeters>
            <DistanceMeters>22007.520799058</DistanceMeters>
          </Trackpoint>
          <Trackpoint>
            <Time>2023-02-23T12:15:59.000Z</Time>
            <Position>
              <LatitudeDegrees>41.483743004500865936279296875</LatitudeDegrees>
              <LongitudeDegrees>-4.53156237490475177764892578125</LongitudeDegrees>
            </Position>
            <AltitudeMeters>1324.199951171875</AltitudeMeters>
            <DistanceMeters>22013.734703376</DistanceMeters>
          </Trackpoint>
          <Trackpoint>
            <Time>2023-02-23T12:16:03.000Z</Time>
            <Position>
              <LatitudeDegrees>41.48378214798867702484130859375</LatitudeDegrees>
              <LongitudeDegrees>-4.53140345402061939239501953125</LongitudeDegrees>
            </Position>
            <AltitudeMeters>1324.199951171875</AltitudeMeters>
            <DistanceMeters>22027.683900027</DistanceMeters>
          </Trackpoint>
          <Trackpoint>
            <Time>2023-02-23T12:16:08.000Z</Time>
            <Position>
              <LatitudeDegrees>41.48381986655294895172119140625</LatitudeDegrees>
              <LongitudeDegrees>-4.5312164537608623504638671875</LongitudeDegrees>
            </Position>
            <AltitudeMeters>1324.5999755859375</AltitudeMeters>
            <DistanceMeters>22043.8314527</DistanceMeters>
          </Trackpoint>
          <Trackpoint>
            <Time>2023-02-23T12:16:09.000Z</Time>
            <Position>
              <LatitudeDegrees>41.4838269911706447601318359375</LatitudeDegrees>
              <LongitudeDegrees>-4.531179405748844146728515625</LongitudeDegrees>
            </Position>
            <AltitudeMeters>1324.5999755859375</AltitudeMeters>
            <DistanceMeters>22047.021577486</DistanceMeters>
          </Trackpoint>
          <Trackpoint>
            <Time>2023-02-23T12:16:14.000Z</Time>
            <Position>
              <LatitudeDegrees>41.4838471077382564544677734375</LatitudeDegrees>
              <LongitudeDegrees>-4.53099877573549747467041015625</LongitudeDegrees>
            </Position>
            <AltitudeMeters>1324.5999755859375</AltitudeMeters>
            <DistanceMeters>22062.248107383</DistanceMeters>
          </Trackpoint>
          <Trackpoint>
            <Time>2023-02-23T12:16:21.000Z</Time>
            <Position>
              <LatitudeDegrees>41.4838585071265697479248046875</LatitudeDegrees>
              <LongitudeDegrees>-4.53072535805404186248779296875</LongitudeDegrees>
            </Position>
            <AltitudeMeters>1324.4000244140625</AltitudeMeters>
            <DistanceMeters>22085.081229454</DistanceMeters>
          </Trackpoint>
          <Trackpoint>
            <Time>2023-02-23T12:16:25.000Z</Time>
            <Position>
              <LatitudeDegrees>41.483845598995685577392578125</LatitudeDegrees>
              <LongitudeDegrees>-4.53057113103568553924560546875</LongitudeDegrees>
            </Position>
            <AltitudeMeters>1324</AltitudeMeters>
            <DistanceMeters>22098.020574389</DistanceMeters>
          </Trackpoint>
          <Trackpoint>
            <Time>2023-02-23T12:16:28.000Z</Time>
            <Position>
              <LatitudeDegrees>41.48384182713925838470458984375</LatitudeDegrees>
              <LongitudeDegrees>-4.53042981214821338653564453125</LongitudeDegrees>
            </Position>
            <AltitudeMeters>1323.800048828125</AltitudeMeters>
            <DistanceMeters>22109.811547925</DistanceMeters>
          </Trackpoint>
          <Trackpoint>
            <Time>2023-02-23T12:16:35.000Z</Time>
            <Position>
              <LatitudeDegrees>41.4838491193950176239013671875</LatitudeDegrees>
              <LongitudeDegrees>-4.5301070250570774078369140625</LongitudeDegrees>
            </Position>
            <AltitudeMeters>1323.800048828125</AltitudeMeters>
            <DistanceMeters>22136.738168541</DistanceMeters>
          </Trackpoint>
          <Trackpoint>
            <Time>2023-02-23T12:16:40.000Z</Time>
            <Position>
              <LatitudeDegrees>41.48383176885545253753662109375</LatitudeDegrees>
              <LongitudeDegrees>-4.52990435063838958740234375</LongitudeDegrees>
            </Position>
            <AltitudeMeters>1324</AltitudeMeters>
            <DistanceMeters>22153.74741953</DistanceMeters>
          </Trackpoint>
          <Trackpoint>
            <Time>2023-02-23T12:16:45.000Z</Time>
            <Position>
              <LatitudeDegrees>41.4838479459285736083984375</LatitudeDegrees>
              <LongitudeDegrees>-4.529698826372623443603515625</LongitudeDegrees>
            </Position>
            <AltitudeMeters>1323.800048828125</AltitudeMeters>
            <DistanceMeters>22170.978464579</DistanceMeters>
          </Trackpoint>
          <Trackpoint>
            <Time>2023-02-23T12:16:49.000Z</Time>
            <Position>
              <LatitudeDegrees>41.4838611893355846405029296875</LatitudeDegrees>
              <LongitudeDegrees>-4.52954786829650402069091796875</LongitudeDegrees>
            </Position>
            <AltitudeMeters>1323.5999755859375</AltitudeMeters>
            <DistanceMeters>22183.651622813</DistanceMeters>
          </Trackpoint>
          <Trackpoint>
            <Time>2023-02-23T12:16:51.000Z</Time>
            <Position>
              <LatitudeDegrees>41.48387418128550052642822265625</LatitudeDegrees>
              <LongitudeDegrees>-4.52946723438799381256103515625</LongitudeDegrees>
            </Position>
            <AltitudeMeters>1323.5999755859375</AltitudeMeters>
            <DistanceMeters>22190.528432418</DistanceMeters>
          </Trackpoint>
          <Trackpoint>
            <Time>2023-02-23T12:16:54.000Z</Time>
            <Position>
              <LatitudeDegrees>41.48389195092022418975830078125</LatitudeDegrees>
              <LongitudeDegrees>-4.529338739812374114990234375</LongitudeDegrees>
            </Position>
            <AltitudeMeters>1323.800048828125</AltitudeMeters>
            <DistanceMeters>22201.42298724</DistanceMeters>
          </Trackpoint>
          <Trackpoint>
            <Time>2023-02-23T12:16:56.000Z</Time>
            <Position>
              <LatitudeDegrees>41.48390267975628376007080078125</LatitudeDegrees>
              <LongitudeDegrees>-4.52927227132022380828857421875</LongitudeDegrees>
            </Position>
            <AltitudeMeters>1324</AltitudeMeters>
            <DistanceMeters>22207.092826051</DistanceMeters>
          </Trackpoint>
          <Trackpoint>
            <Time>2023-02-23T12:16:57.000Z</Time>
            <Position>
              <LatitudeDegrees>41.4839111454784870147705078125</LatitudeDegrees>
              <LongitudeDegrees>-4.52923388220369815826416015625</LongitudeDegrees>
            </Position>
            <AltitudeMeters>1324</AltitudeMeters>
            <DistanceMeters>22210.430956416</DistanceMeters>
          </Trackpoint>
          <Trackpoint>
            <Time>2023-02-23T12:17:01.000Z</Time>
            <Position>
              <LatitudeDegrees>41.483951546251773834228515625</LatitudeDegrees>
              <LongitudeDegrees>-4.52907823026180267333984375</LongitudeDegrees>
            </Position>
            <AltitudeMeters>1324</AltitudeMeters>
            <DistanceMeters>22224.166508357</DistanceMeters>
          </Trackpoint>
          <Trackpoint>
            <Time>2023-02-23T12:17:03.000Z</Time>
            <Position>
              <LatitudeDegrees>41.483954899013042449951171875</LatitudeDegrees>
              <LongitudeDegrees>-4.52899499796330928802490234375</LongitudeDegrees>
            </Position>
            <AltitudeMeters>1324.199951171875</AltitudeMeters>
            <DistanceMeters>22231.116463674</DistanceMeters>
          </Trackpoint>
          <Trackpoint>
            <Time>2023-02-23T12:17:09.000Z</Time>
            <Position>
              <LatitudeDegrees>41.48401625454425811767578125</LatitudeDegrees>
              <LongitudeDegrees>-4.528766088187694549560546875</LongitudeDegrees>
            </Position>
            <AltitudeMeters>1324.5999755859375</AltitudeMeters>
            <DistanceMeters>22251.387913763</DistanceMeters>
          </Trackpoint>
          <Trackpoint>
            <Time>2023-02-23T12:17:15.000Z</Time>
            <Position>
              <LatitudeDegrees>41.48407123982906341552734375</LatitudeDegrees>
              <LongitudeDegrees>-4.52855008654296398162841796875</LongitudeDegrees>
            </Position>
            <AltitudeMeters>1325</AltitudeMeters>
            <DistanceMeters>22270.409404319</DistanceMeters>
          </Trackpoint>
          <Trackpoint>
            <Time>2023-02-23T12:17:16.000Z</Time>
            <Position>
              <LatitudeDegrees>41.48407333530485630035400390625</LatitudeDegrees>
              <LongitudeDegrees>-4.52851186506450176239013671875</LongitudeDegrees>
            </Position>
            <AltitudeMeters>1324.800048828125</AltitudeMeters>
            <DistanceMeters>22273.605185359</DistanceMeters>
          </Trackpoint>
          <Trackpoint>
            <Time>2023-02-23T12:17:17.000Z</Time>
            <Position>
              <LatitudeDegrees>41.48407920263707637786865234375</LatitudeDegrees>
              <LongitudeDegrees>-4.5284740626811981201171875</LongitudeDegrees>
            </Position>
            <AltitudeMeters>1325</AltitudeMeters>
            <DistanceMeters>22276.824894625</DistanceMeters>
          </Trackpoint>
          <Trackpoint>
            <Time>2023-02-23T12:17:19.000Z</Time>
            <Position>
              <LatitudeDegrees>41.48410418070852756500244140625</LatitudeDegrees>
              <LongitudeDegrees>-4.52840222977101802825927734375</LongitudeDegrees>
            </Position>
            <AltitudeMeters>1325.199951171875</AltitudeMeters>
            <DistanceMeters>22283.427712893</DistanceMeters>
          </Trackpoint>
          <Trackpoint>
            <Time>2023-02-23T12:17:21.000Z</Time>
            <Position>
              <LatitudeDegrees>41.48410200141370296478271484375</LatitudeDegrees>
              <LongitudeDegrees>-4.52833165414631366729736328125</LongitudeDegrees>
            </Position>
            <AltitudeMeters>1325.199951171875</AltitudeMeters>
            <DistanceMeters>22289.317836295</DistanceMeters>
          </Trackpoint>
          <Trackpoint>
            <Time>2023-02-23T12:17:23.000Z</Time>
            <Position>
              <LatitudeDegrees>41.484120190143585205078125</LatitudeDegrees>
              <LongitudeDegrees>-4.5282613299787044525146484375</LongitudeDegrees>
            </Position>
            <AltitudeMeters>1325.199951171875</AltitudeMeters>
            <DistanceMeters>22295.521559839</DistanceMeters>
          </Trackpoint>
          <Trackpoint>
            <Time>2023-02-23T12:17:28.000Z</Time>
            <Position>
              <LatitudeDegrees>41.48412010632455348968505859375</LatitudeDegrees>
              <LongitudeDegrees>-4.52809654176235198974609375</LongitudeDegrees>
            </Position>
            <AltitudeMeters>1325</AltitudeMeters>
            <DistanceMeters>22309.262041573</DistanceMeters>
          </Trackpoint>
          <Trackpoint>
            <Time>2023-02-23T12:17:36.000Z</Time>
            <Position>
              <LatitudeDegrees>41.48410753346979618072509765625</LatitudeDegrees>
              <LongitudeDegrees>-4.5277966372668743133544921875</LongitudeDegrees>
            </Position>
            <AltitudeMeters>1324.5999755859375</AltitudeMeters>
            <DistanceMeters>22334.307665747</DistanceMeters>
          </Trackpoint>
          <Trackpoint>
            <Time>2023-02-23T12:17:41.000Z</Time>
            <Position>
              <LatitudeDegrees>41.48409403860569000244140625</LatitudeDegrees>
              <LongitudeDegrees>-4.52761198394000530242919921875</LongitudeDegrees>
            </Position>
            <AltitudeMeters>1324.5999755859375</AltitudeMeters>
            <DistanceMeters>22349.777477831</DistanceMeters>
          </Trackpoint>
          <Trackpoint>
            <Time>2023-02-23T12:17:49.000Z</Time>
            <Position>
              <LatitudeDegrees>41.48399873636662960052490234375</LatitudeDegrees>
              <LongitudeDegrees>-4.52729648910462856292724609375</LongitudeDegrees>
            </Position>
            <AltitudeMeters>1324.800048828125</AltitudeMeters>
            <DistanceMeters>22378.141638857</DistanceMeters>
          </Trackpoint>
          <Trackpoint>
            <Time>2023-02-23T12:17:53.000Z</Time>
            <Position>
              <LatitudeDegrees>41.483995132148265838623046875</LatitudeDegrees>
              <LongitudeDegrees>-4.52712826430797576904296875</LongitudeDegrees>
            </Position>
            <AltitudeMeters>1325.199951171875</AltitudeMeters>
            <DistanceMeters>22392.174095767</DistanceMeters>
          </Trackpoint>
          <Trackpoint>
            <Time>2023-02-23T12:17:54.000Z</Time>
            <Position>
              <LatitudeDegrees>41.48399152792990207672119140625</LatitudeDegrees>
              <LongitudeDegrees>-4.52708727680146694183349609375</LongitudeDegrees>
            </Position>
            <AltitudeMeters>1325.199951171875</AltitudeMeters>
            <DistanceMeters>22395.616109755</DistanceMeters>
          </Trackpoint>
          <Trackpoint>
            <Time>2023-02-23T12:17:56.000Z</Time>
            <Position>
              <LatitudeDegrees>41.4839738421142101287841796875</LatitudeDegrees>
              <LongitudeDegrees>-4.52699691988527774810791015625</LongitudeDegrees>
            </Position>
            <AltitudeMeters>1325.199951171875</AltitudeMeters>
            <DistanceMeters>22403.403663504</DistanceMeters>
          </Trackpoint>
          <Trackpoint>
            <Time>2023-02-23T12:18:01.000Z</Time>
            <Position>
              <LatitudeDegrees>41.48395992815494537353515625</LatitudeDegrees>
              <LongitudeDegrees>-4.52679122798144817352294921875</LongitudeDegrees>
            </Position>
            <AltitudeMeters>1325.5999755859375</AltitudeMeters>
            <DistanceMeters>22420.624224193</DistanceMeters>
          </Trackpoint>
          <Trackpoint>
            <Time>2023-02-23T12:18:03.000Z</Time>
            <Position>
              <LatitudeDegrees>41.48395858705043792724609375</LatitudeDegrees>
              <LongitudeDegrees>-4.52672534622251987457275390625</LongitudeDegrees>
            </Position>
            <AltitudeMeters>1325.5999755859375</AltitudeMeters>
            <DistanceMeters>22426.119365285</DistanceMeters>
          </Trackpoint>
          <Trackpoint>
            <Time>2023-02-23T12:18:10.000Z</Time>
            <Position>
              <LatitudeDegrees>41.48397241719067096710205078125</LatitudeDegrees>
              <LongitudeDegrees>-4.5264853723347187042236328125</LongitudeDegrees>
            </Position>
            <AltitudeMeters>1325</AltitudeMeters>
            <DistanceMeters>22446.187783494</DistanceMeters>
          </Trackpoint>
          <Trackpoint>
            <Time>2023-02-23T12:18:17.000Z</Time>
            <Position>
              <LatitudeDegrees>41.48398817516863346099853515625</LatitudeDegrees>
              <LongitudeDegrees>-4.5262312330305576324462890625</LongitudeDegrees>
            </Position>
            <AltitudeMeters>1325</AltitudeMeters>
            <DistanceMeters>22467.450422259</DistanceMeters>
          </Trackpoint>
          <Trackpoint>
            <Time>2023-02-23T12:18:22.000Z</Time>
            <Position>
              <LatitudeDegrees>41.48401399143040180206298828125</LatitudeDegrees>
              <LongitudeDegrees>-4.5260565541684627532958984375</LongitudeDegrees>
            </Position>
            <AltitudeMeters>1325.199951171875</AltitudeMeters>
            <DistanceMeters>22482.295894488</DistanceMeters>
          </Trackpoint>
          <Trackpoint>
            <Time>2023-02-23T12:18:24.000Z</Time>
            <Position>
              <LatitudeDegrees>41.48403176106512546539306640625</LatitudeDegrees>
              <LongitudeDegrees>-4.5259730704128742218017578125</LongitudeDegrees>
            </Position>
            <AltitudeMeters>1325.199951171875</AltitudeMeters>
            <DistanceMeters>22489.532289536</DistanceMeters>
          </Trackpoint>
          <Trackpoint>
            <Time>2023-02-23T12:18:26.000Z</Time>
            <Position>
              <LatitudeDegrees>41.4840506203472614288330078125</LatitudeDegrees>
              <LongitudeDegrees>-4.52590090222656726837158203125</LongitudeDegrees>
            </Position>
            <AltitudeMeters>1325</AltitudeMeters>
            <DistanceMeters>22495.905458594</DistanceMeters>
          </Trackpoint>
          <Trackpoint>
            <Time>2023-02-23T12:18:31.000Z</Time>
            <Position>
              <LatitudeDegrees>41.48412161506712436676025390625</LatitudeDegrees>
              <LongitudeDegrees>-4.52572270296514034271240234375</LongitudeDegrees>
            </Position>
            <AltitudeMeters>1324.800048828125</AltitudeMeters>
            <DistanceMeters>22512.734311422</DistanceMeters>
          </Trackpoint>
          <Trackpoint>
            <Time>2023-02-23T12:18:37.000Z</Time>
            <Position>
              <LatitudeDegrees>41.48423057980835437774658203125</LatitudeDegrees>
              <LongitudeDegrees>-4.52552354894578456878662109375</LongitudeDegrees>
            </Position>
            <AltitudeMeters>1325</AltitudeMeters>
            <DistanceMeters>22533.297003353</DistanceMeters>
          </Trackpoint>
          <Trackpoint>
            <Time>2023-02-23T12:18:44.000Z</Time>
            <Position>
              <LatitudeDegrees>41.484345160424709320068359375</LatitudeDegrees>
              <LongitudeDegrees>-4.52531911432743072509765625</LongitudeDegrees>
            </Position>
            <AltitudeMeters>1324.800048828125</AltitudeMeters>
            <DistanceMeters>22554.585532578</DistanceMeters>
          </Trackpoint>
          <Trackpoint>
            <Time>2023-02-23T12:18:51.000Z</Time>
            <Position>
              <LatitudeDegrees>41.484410203993320465087890625</LatitudeDegrees>
              <LongitudeDegrees>-4.52508081682026386260986328125</LongitudeDegrees>
            </Position>
            <AltitudeMeters>1325</AltitudeMeters>
            <DistanceMeters>22575.732766577</DistanceMeters>
          </Trackpoint>
          <Trackpoint>
            <Time>2023-02-23T12:18:57.000Z</Time>
            <Position>
              <LatitudeDegrees>41.48442537523806095123291015625</LatitudeDegrees>
              <LongitudeDegrees>-4.52497637830674648284912109375</LongitudeDegrees>
            </Position>
            <AltitudeMeters>1324.800048828125</AltitudeMeters>
            <DistanceMeters>22584.603397114</DistanceMeters>
          </Trackpoint>
          <Trackpoint>
            <Time>2023-02-23T12:19:07.000Z</Time>
            <Position>
              <LatitudeDegrees>41.48441799916326999664306640625</LatitudeDegrees>
              <LongitudeDegrees>-4.524976797401905059814453125</LongitudeDegrees>
            </Position>
            <AltitudeMeters>1324.800048828125</AltitudeMeters>
            <DistanceMeters>22585.42084782</DistanceMeters>
          </Trackpoint>
          <Trackpoint>
            <Time>2023-02-23T12:19:08.000Z</Time>
            <Position>
              <LatitudeDegrees>41.4844167418777942657470703125</LatitudeDegrees>
              <LongitudeDegrees>-4.5249756239354610443115234375</LongitudeDegrees>
            </Position>
            <AltitudeMeters>1324.800048828125</AltitudeMeters>
            <DistanceMeters>22585.585438918</DistanceMeters>
          </Trackpoint>
          <Trackpoint>
            <Time>2023-02-23T12:19:10.000Z</Time>
            <Position>
              <LatitudeDegrees>41.484420597553253173828125</LatitudeDegrees>
              <LongitudeDegrees>-4.52496246434748172760009765625</LongitudeDegrees>
            </Position>
            <AltitudeMeters>1324.5999755859375</AltitudeMeters>
            <DistanceMeters>22586.768511971</DistanceMeters>
          </Trackpoint>
          <Trackpoint>
            <Time>2023-02-23T12:19:13.000Z</Time>
            <Position>
              <LatitudeDegrees>41.48443392477929592132568359375</LatitudeDegrees>
              <LongitudeDegrees>-4.52490161173045635223388671875</LongitudeDegrees>
            </Position>
            <AltitudeMeters>1324.5999755859375</AltitudeMeters>
            <DistanceMeters>22592.055960946</DistanceMeters>
          </Trackpoint>
          <Trackpoint>
            <Time>2023-02-23T12:19:18.000Z</Time>
            <Position>
              <LatitudeDegrees>41.484506763517856597900390625</LatitudeDegrees>
              <LongitudeDegrees>-4.5247764699161052703857421875</LongitudeDegrees>
            </Position>
            <AltitudeMeters>1324.800048828125</AltitudeMeters>
            <DistanceMeters>22605.26980059</DistanceMeters>
          </Trackpoint>
          <Trackpoint>
            <Time>2023-02-23T12:19:24.000Z</Time>
            <Position>
              <LatitudeDegrees>41.4846242778003215789794921875</LatitudeDegrees>
              <LongitudeDegrees>-4.524642527103424072265625</LongitudeDegrees>
            </Position>
            <AltitudeMeters>1324.4000244140625</AltitudeMeters>
            <DistanceMeters>22622.468848359</DistanceMeters>
          </Trackpoint>
          <Trackpoint>
            <Time>2023-02-23T12:19:30.000Z</Time>
            <Position>
              <LatitudeDegrees>41.48477959446609020233154296875</LatitudeDegrees>
              <LongitudeDegrees>-4.524489976465702056884765625</LongitudeDegrees>
            </Position>
            <AltitudeMeters>1324.4000244140625</AltitudeMeters>
            <DistanceMeters>22643.93121611</DistanceMeters>
          </Trackpoint>
          <Trackpoint>
            <Time>2023-02-23T12:19:35.000Z</Time>
            <Position>
              <LatitudeDegrees>41.48492493666708469390869140625</LatitudeDegrees>
              <LongitudeDegrees>-4.52435620129108428955078125</LongitudeDegrees>
            </Position>
            <AltitudeMeters>1324.5999755859375</AltitudeMeters>
            <DistanceMeters>22663.580847368</DistanceMeters>
          </Trackpoint>
          <Trackpoint>
            <Time>2023-02-23T12:19:38.000Z</Time>
            <Position>
              <LatitudeDegrees>41.4850068278610706329345703125</LatitudeDegrees>
              <LongitudeDegrees>-4.524261318147182464599609375</LongitudeDegrees>
            </Position>
            <AltitudeMeters>1324.5999755859375</AltitudeMeters>
            <DistanceMeters>22675.650362404</DistanceMeters>
          </Trackpoint>
          <Trackpoint>
            <Time>2023-02-23T12:19:42.000Z</Time>
            <Position>
              <LatitudeDegrees>41.485136412084102630615234375</LatitudeDegrees>
              <LongitudeDegrees>-4.5241367630660533905029296875</LongitudeDegrees>
            </Position>
            <AltitudeMeters>1324.199951171875</AltitudeMeters>
            <DistanceMeters>22693.423660751</DistanceMeters>
          </Trackpoint>
          <Trackpoint>
            <Time>2023-02-23T12:19:44.000Z</Time>
            <Position>
              <LatitudeDegrees>41.48520656861364841461181640625</LatitudeDegrees>
              <LongitudeDegrees>-4.52407230623066425323486328125</LongitudeDegrees>
            </Position>
            <AltitudeMeters>1324.4000244140625</AltitudeMeters>
            <DistanceMeters>22702.903498343</DistanceMeters>
          </Trackpoint>
          <Trackpoint>
            <Time>2023-02-23T12:19:49.000Z</Time>
            <Position>
              <LatitudeDegrees>41.48535442538559436798095703125</LatitudeDegrees>
              <LongitudeDegrees>-4.5239282213151454925537109375</LongitudeDegrees>
            </Position>
            <AltitudeMeters>1325.199951171875</AltitudeMeters>
            <DistanceMeters>22723.279140532</DistanceMeters>
          </Trackpoint>
          <Trackpoint>
            <Time>2023-02-23T12:19:50.000Z</Time>
            <Position>
              <LatitudeDegrees>41.48538359440863132476806640625</LatitudeDegrees>
              <LongitudeDegrees>-4.52390349470078945159912109375</LongitudeDegrees>
            </Position>
            <AltitudeMeters>1325.199951171875</AltitudeMeters>
            <DistanceMeters>22727.126255723</DistanceMeters>
          </Trackpoint>
          <Trackpoint>
            <Time>2023-02-23T12:19:52.000Z</Time>
            <Position>
              <LatitudeDegrees>41.4854346401989459991455078125</LatitudeDegrees>
              <LongitudeDegrees>-4.523852281272411346435546875</LongitudeDegrees>
            </Position>
            <AltitudeMeters>1325.199951171875</AltitudeMeters>
            <DistanceMeters>22734.233593313</DistanceMeters>
          </Trackpoint>
          <Trackpoint>
            <Time>2023-02-23T12:19:55.000Z</Time>
            <Position>
              <LatitudeDegrees>41.48552441038191318511962890625</LatitudeDegrees>
              <LongitudeDegrees>-4.5237850584089756011962890625</LongitudeDegrees>
            </Position>
            <AltitudeMeters>1325</AltitudeMeters>
            <DistanceMeters>22745.689732761</DistanceMeters>
          </Trackpoint>
          <Trackpoint>
            <Time>2023-02-23T12:19:59.000Z</Time>
            <Position>
              <LatitudeDegrees>41.4856450259685516357421875</LatitudeDegrees>
              <LongitudeDegrees>-4.523682296276092529296875</LongitudeDegrees>
            </Position>
            <AltitudeMeters>1325.199951171875</AltitudeMeters>
            <DistanceMeters>22761.615711134</DistanceMeters>
          </Trackpoint>
          <Trackpoint>
            <Time>2023-02-23T12:20:06.000Z</Time>
            <Position>
              <LatitudeDegrees>41.4858661405742168426513671875</LatitudeDegrees>
              <LongitudeDegrees>-4.5235419832170009613037109375</LongitudeDegrees>
            </Position>
            <AltitudeMeters>1324.800048828125</AltitudeMeters>
            <DistanceMeters>22788.865356746</DistanceMeters>
          </Trackpoint>
          <Trackpoint>
            <Time>2023-02-23T12:20:11.000Z</Time>
            <Position>
              <LatitudeDegrees>41.48602715693414211273193359375</LatitudeDegrees>
              <LongitudeDegrees>-4.52344969846308231353759765625</LongitudeDegrees>
            </Position>
            <AltitudeMeters>1324.4000244140625</AltitudeMeters>
            <DistanceMeters>22808.36876517</DistanceMeters>
          </Trackpoint>
          <Trackpoint>
            <Time>2023-02-23T12:20:13.000Z</Time>
            <Position>
              <LatitudeDegrees>41.486087925732135772705078125</LatitudeDegrees>
              <LongitudeDegrees>-4.523407705128192901611328125</LongitudeDegrees>
            </Position>
            <AltitudeMeters>1324.5999755859375</AltitudeMeters>
            <DistanceMeters>22815.983957283</DistanceMeters>
          </Trackpoint>
          <Trackpoint>
            <Time>2023-02-23T12:20:19.000Z</Time>
            <Position>
              <LatitudeDegrees>41.48630728013813495635986328125</LatitudeDegrees>
              <LongitudeDegrees>-4.5231916196644306182861328125</LongitudeDegrees>
            </Position>
            <AltitudeMeters>1325.4000244140625</AltitudeMeters>
            <DistanceMeters>22846.326509482</DistanceMeters>
          </Trackpoint>
          <Trackpoint>
            <Time>2023-02-23T12:20:24.000Z</Time>
            <Position>
              <LatitudeDegrees>41.48645077832043170928955078125</LatitudeDegrees>
              <LongitudeDegrees>-4.52298047952353954315185546875</LongitudeDegrees>
            </Position>
            <AltitudeMeters>1325.199951171875</AltitudeMeters>
            <DistanceMeters>22870.096488091</DistanceMeters>
          </Trackpoint>
          <Trackpoint>
            <Time>2023-02-23T12:20:26.000Z</Time>
            <Position>
              <LatitudeDegrees>41.48650509305298328399658203125</LatitudeDegrees>
              <LongitudeDegrees>-4.52289146371185779571533203125</LongitudeDegrees>
            </Position>
            <AltitudeMeters>1325</AltitudeMeters>
            <DistanceMeters>22879.669221021</DistanceMeters>
          </Trackpoint>
          <Trackpoint>
            <Time>2023-02-23T12:20:27.000Z</Time>
            <Position>
              <LatitudeDegrees>41.48653526790440082550048828125</LatitudeDegrees>
              <LongitudeDegrees>-4.52284687198698520660400390625</LongitudeDegrees>
            </Position>
            <AltitudeMeters>1325</AltitudeMeters>
            <DistanceMeters>22884.679571559</DistanceMeters>
          </Trackpoint>
          <Trackpoint>
            <Time>2023-02-23T12:20:30.000Z</Time>
            <Position>
              <LatitudeDegrees>41.4866386167705059051513671875</LatitudeDegrees>
              <LongitudeDegrees>-4.52273287810385227203369140625</LongitudeDegrees>
            </Position>
            <AltitudeMeters>1324.800048828125</AltitudeMeters>
            <DistanceMeters>22899.600883995</DistanceMeters>
          </Trackpoint>
          <Trackpoint>
            <Time>2023-02-23T12:20:32.000Z</Time>
            <Position>
              <LatitudeDegrees>41.486710868775844573974609375</LatitudeDegrees>
              <LongitudeDegrees>-4.5226652361452579498291015625</LongitudeDegrees>
            </Position>
            <AltitudeMeters>1324.800048828125</AltitudeMeters>
            <DistanceMeters>22909.423171749</DistanceMeters>
          </Trackpoint>
          <Trackpoint>
            <Time>2023-02-23T12:20:38.000Z</Time>
            <Position>
              <LatitudeDegrees>41.48692636750638484954833984375</LatitudeDegrees>
              <LongitudeDegrees>-4.5225048065185546875</LongitudeDegrees>
            </Position>
            <AltitudeMeters>1324.5999755859375</AltitudeMeters>
            <DistanceMeters>22936.886221012</DistanceMeters>
          </Trackpoint>
          <Trackpoint>
            <Time>2023-02-23T12:20:40.000Z</Time>
            <Position>
              <LatitudeDegrees>41.4869987033307552337646484375</LatitudeDegrees>
              <LongitudeDegrees>-4.522456191480159759521484375</LongitudeDegrees>
            </Position>
            <AltitudeMeters>1324.5999755859375</AltitudeMeters>
            <DistanceMeters>22945.899744062</DistanceMeters>
          </Trackpoint>
          <Trackpoint>
            <Time>2023-02-23T12:20:48.000Z</Time>
            <Position>
              <LatitudeDegrees>41.48730791173875331878662109375</LatitudeDegrees>
              <LongitudeDegrees>-4.52225024811923503875732421875</LongitudeDegrees>
            </Position>
            <AltitudeMeters>1324.800048828125</AltitudeMeters>
            <DistanceMeters>22984.361036328</DistanceMeters>
          </Trackpoint>
          <Trackpoint>
            <Time>2023-02-23T12:20:49.000Z</Time>
            <Position>
              <LatitudeDegrees>41.48734445683658123016357421875</LatitudeDegrees>
              <LongitudeDegrees>-4.52222191728651523590087890625</LongitudeDegrees>
            </Position>
            <AltitudeMeters>1324.800048828125</AltitudeMeters>
            <DistanceMeters>22989.064618716</DistanceMeters>
          </Trackpoint>
          <Trackpoint>
            <Time>2023-02-23T12:20:54.000Z</Time>
            <Position>
              <LatitudeDegrees>41.48752802051603794097900390625</LatitudeDegrees>
              <LongitudeDegrees>-4.52212150208652019500732421875</LongitudeDegrees>
            </Position>
            <AltitudeMeters>1324.800048828125</AltitudeMeters>
            <DistanceMeters>23011.144377933</DistanceMeters>
          </Trackpoint>
          <Trackpoint>
            <Time>2023-02-23T12:20:59.000Z</Time>
            <Position>
              <LatitudeDegrees>41.48774645291268825531005859375</LatitudeDegrees>
              <LongitudeDegrees>-4.52204070053994655609130859375</LongitudeDegrees>
            </Position>
            <AltitudeMeters>1325</AltitudeMeters>
            <DistanceMeters>23036.372494151</DistanceMeters>
          </Trackpoint>
          <Trackpoint>
            <Time>2023-02-23T12:21:03.000Z</Time>
            <Position>
              <LatitudeDegrees>41.48790185339748859405517578125</LatitudeDegrees>
              <LongitudeDegrees>-4.521946571767330169677734375</LongitudeDegrees>
            </Position>
            <AltitudeMeters>1325</AltitudeMeters>
            <DistanceMeters>23055.365954972</DistanceMeters>
          </Trackpoint>
          <Trackpoint>
            <Time>2023-02-23T12:21:05.000Z</Time>
            <Position>
              <LatitudeDegrees>41.48796672932803630828857421875</LatitudeDegrees>
              <LongitudeDegrees>-4.521883539855480194091796875</LongitudeDegrees>
            </Position>
            <AltitudeMeters>1324.800048828125</AltitudeMeters>
            <DistanceMeters>23064.296444049</DistanceMeters>
          </Trackpoint>
          <Trackpoint>
            <Time>2023-02-23T12:21:09.000Z</Time>
            <Position>
              <LatitudeDegrees>41.48811198770999908447265625</LatitudeDegrees>
              <LongitudeDegrees>-4.5217747427523136138916015625</LongitudeDegrees>
            </Position>
            <AltitudeMeters>1325.199951171875</AltitudeMeters>
            <DistanceMeters>23082.83493588</DistanceMeters>
          </Trackpoint>
          <Trackpoint>
            <Time>2023-02-23T12:21:13.000Z</Time>
            <Position>
              <LatitudeDegrees>41.48825255222618579864501953125</LatitudeDegrees>
              <LongitudeDegrees>-4.521670304238796234130859375</LongitudeDegrees>
            </Position>
            <AltitudeMeters>1325.199951171875</AltitudeMeters>
            <DistanceMeters>23100.740349421</DistanceMeters>
          </Trackpoint>
          <Trackpoint>
            <Time>2023-02-23T12:21:20.000Z</Time>
            <Position>
              <LatitudeDegrees>41.488483808934688568115234375</LatitudeDegrees>
              <LongitudeDegrees>-4.521493613719940185546875</LongitudeDegrees>
            </Position>
            <AltitudeMeters>1325.199951171875</AltitudeMeters>
            <DistanceMeters>23130.397363359</DistanceMeters>
          </Trackpoint>
          <Trackpoint>
            <Time>2023-02-23T12:21:21.000Z</Time>
            <Position>
              <LatitudeDegrees>41.48851968348026275634765625</LatitudeDegrees>
              <LongitudeDegrees>-4.5214708149433135986328125</LongitudeDegrees>
            </Position>
            <AltitudeMeters>1325.199951171875</AltitudeMeters>
            <DistanceMeters>23134.819935639</DistanceMeters>
          </Trackpoint>
          <Trackpoint>
            <Time>2023-02-23T12:21:24.000Z</Time>
            <Position>
              <LatitudeDegrees>41.4886130578815937042236328125</LatitudeDegrees>
              <LongitudeDegrees>-4.52140350826084613800048828125</LongitudeDegrees>
            </Position>
            <AltitudeMeters>1325.199951171875</AltitudeMeters>
            <DistanceMeters>23146.630804401</DistanceMeters>
          </Trackpoint>
          <Trackpoint>
            <Time>2023-02-23T12:21:28.000Z</Time>
            <Position>
              <LatitudeDegrees>41.4887424744665622711181640625</LatitudeDegrees>
              <LongitudeDegrees>-4.52129404060542583465576171875</LongitudeDegrees>
            </Position>
            <AltitudeMeters>1325.4000244140625</AltitudeMeters>
            <DistanceMeters>23163.682738646</DistanceMeters>
          </Trackpoint>
          <Trackpoint>
            <Time>2023-02-23T12:21:29.000Z</Time>
            <Position>
              <LatitudeDegrees>41.4887820370495319366455078125</LatitudeDegrees>
              <LongitudeDegrees>-4.5212696492671966552734375</LongitudeDegrees>
            </Position>
            <AltitudeMeters>1325.4000244140625</AltitudeMeters>
            <DistanceMeters>23168.531895177</DistanceMeters>
          </Trackpoint>
          <Trackpoint>
            <Time>2023-02-23T12:21:31.000Z</Time>
            <Position>
              <LatitudeDegrees>41.48884867317974567413330078125</LatitudeDegrees>
              <LongitudeDegrees>-4.52121675945818424224853515625</LongitudeDegrees>
            </Position>
            <AltitudeMeters>1325.800048828125</AltitudeMeters>
            <DistanceMeters>23177.160509219</DistanceMeters>
          </Trackpoint>
          <Trackpoint>
            <Time>2023-02-23T12:21:36.000Z</Time>
            <Position>
              <LatitudeDegrees>41.48901346139609813690185546875</LatitudeDegrees>
              <LongitudeDegrees>-4.52105716802179813385009765625</LongitudeDegrees>
            </Position>
            <AltitudeMeters>1326</AltitudeMeters>
            <DistanceMeters>23199.819947574</DistanceMeters>
          </Trackpoint>
          <Trackpoint>
            <Time>2023-02-23T12:21:43.000Z</Time>
            <Position>
              <LatitudeDegrees>41.4892115257680416107177734375</LatitudeDegrees>
              <LongitudeDegrees>-4.5208051241934299468994140625</LongitudeDegrees>
            </Position>
            <AltitudeMeters>1326</AltitudeMeters>
            <DistanceMeters>23230.275972468</DistanceMeters>
          </Trackpoint>
          <Trackpoint>
            <Time>2023-02-23T12:21:44.000Z</Time>
            <Position>
              <LatitudeDegrees>41.48924312554299831390380859375</LatitudeDegrees>
              <LongitudeDegrees>-4.5207675732672214508056640625</LongitudeDegrees>
            </Position>
            <AltitudeMeters>1326.199951171875</AltitudeMeters>
            <DistanceMeters>23234.98339295</DistanceMeters>
          </Trackpoint>
          <Trackpoint>
            <Time>2023-02-23T12:21:49.000Z</Time>
            <Position>
              <LatitudeDegrees>41.48937807418406009674072265625</LatitudeDegrees>
              <LongitudeDegrees>-4.520544111728668212890625</LongitudeDegrees>
            </Position>
            <AltitudeMeters>1326.199951171875</AltitudeMeters>
            <DistanceMeters>23258.914659281</DistanceMeters>
          </Trackpoint>
          <Trackpoint>
            <Time>2023-02-23T12:21:52.000Z</Time>
            <Position>
              <LatitudeDegrees>41.48944412358105182647705078125</LatitudeDegrees>
              <LongitudeDegrees>-4.5203950814902782440185546875</LongitudeDegrees>
            </Position>
            <AltitudeMeters>1325.800048828125</AltitudeMeters>
            <DistanceMeters>23273.351841295</DistanceMeters>
          </Trackpoint>
          <Trackpoint>
            <Time>2023-02-23T12:21:55.000Z</Time>
            <Position>
              <LatitudeDegrees>41.4895260147750377655029296875</LatitudeDegrees>
              <LongitudeDegrees>-4.52025652863085269927978515625</LongitudeDegrees>
            </Position>
            <AltitudeMeters>1325.5999755859375</AltitudeMeters>
            <DistanceMeters>23288.066567693</DistanceMeters>
          </Trackpoint>
          <Trackpoint>
            <Time>2023-02-23T12:21:56.000Z</Time>
            <Position>
              <LatitudeDegrees>41.48956113494932651519775390625</LatitudeDegrees>
              <LongitudeDegrees>-4.520221240818500518798828125</LongitudeDegrees>
            </Position>
            <AltitudeMeters>1325.5999755859375</AltitudeMeters>
            <DistanceMeters>23292.958367216</DistanceMeters>
          </Trackpoint>
          <Trackpoint>
            <Time>2023-02-23T12:22:00.000Z</Time>
            <Position>
              <LatitudeDegrees>41.48972324095666408538818359375</LatitudeDegrees>
              <LongitudeDegrees>-4.52017924748361110687255859375</LongitudeDegrees>
            </Position>
            <AltitudeMeters>1325.4000244140625</AltitudeMeters>
            <DistanceMeters>23311.337624536</DistanceMeters>
          </Trackpoint>
          <Trackpoint>
            <Time>2023-02-23T12:22:06.000Z</Time>
            <Position>
              <LatitudeDegrees>41.48996765725314617156982421875</LatitudeDegrees>
              <LongitudeDegrees>-4.52025334350764751434326171875</LongitudeDegrees>
            </Position>
            <AltitudeMeters>1325.5999755859375</AltitudeMeters>
            <DistanceMeters>23339.234399405</DistanceMeters>
          </Trackpoint>
          <Trackpoint>
            <Time>2023-02-23T12:22:08.000Z</Time>
            <Position>
              <LatitudeDegrees>41.4900450222194194793701171875</LatitudeDegrees>
              <LongitudeDegrees>-4.520268850028514862060546875</LongitudeDegrees>
            </Position>
            <AltitudeMeters>1326</AltitudeMeters>
            <DistanceMeters>23347.941667738</DistanceMeters>
          </Trackpoint>
          <Trackpoint>
            <Time>2023-02-23T12:22:13.000Z</Time>
            <Position>
              <LatitudeDegrees>41.4902173541486263275146484375</LatitudeDegrees>
              <LongitudeDegrees>-4.52032081782817840576171875</LongitudeDegrees>
            </Position>
            <AltitudeMeters>1326.199951171875</AltitudeMeters>
            <DistanceMeters>23367.605540025</DistanceMeters>
          </Trackpoint>
          <Trackpoint>
            <Time>2023-02-23T12:22:15.000Z</Time>
            <Position>
              <LatitudeDegrees>41.4902870915830135345458984375</LatitudeDegrees>
              <LongitudeDegrees>-4.52034906484186649322509765625</LongitudeDegrees>
            </Position>
            <AltitudeMeters>1326.4000244140625</AltitudeMeters>
            <DistanceMeters>23375.716836898</DistanceMeters>
          </Trackpoint>
          <Trackpoint>
            <Time>2023-02-23T12:22:19.000Z</Time>
            <Position>
              <LatitudeDegrees>41.49042698554694652557373046875</LatitudeDegrees>
              <LongitudeDegrees>-4.5204101689159870147705078125</LongitudeDegrees>
            </Position>
            <AltitudeMeters>1326.800048828125</AltitudeMeters>
            <DistanceMeters>23392.0995086</DistanceMeters>
          </Trackpoint>
          <Trackpoint>
            <Time>2023-02-23T12:22:26.000Z</Time>
            <Position>
              <LatitudeDegrees>41.4906756766140460968017578125</LatitudeDegrees>
              <LongitudeDegrees>-4.520517624914646148681640625</LongitudeDegrees>
            </Position>
            <AltitudeMeters>1326.199951171875</AltitudeMeters>
            <DistanceMeters>23421.193051104</DistanceMeters>
          </Trackpoint>
          <Trackpoint>
            <Time>2023-02-23T12:22:30.000Z</Time>
            <Position>
              <LatitudeDegrees>41.4908230304718017578125</LatitudeDegrees>
              <LongitudeDegrees>-4.520560540258884429931640625</LongitudeDegrees>
            </Position>
            <AltitudeMeters>1326</AltitudeMeters>
            <DistanceMeters>23437.97972932</DistanceMeters>
          </Trackpoint>
          <Trackpoint>
            <Time>2023-02-23T12:22:34.000Z</Time>
            <Position>
              <LatitudeDegrees>41.4909665286540985107421875</LatitudeDegrees>
              <LongitudeDegrees>-4.52061577700078487396240234375</LongitudeDegrees>
            </Position>
            <AltitudeMeters>1326.4000244140625</AltitudeMeters>
            <DistanceMeters>23454.602343708</DistanceMeters>
          </Trackpoint>
          <Trackpoint>
            <Time>2023-02-23T12:22:42.000Z</Time>
            <Position>
              <LatitudeDegrees>41.49126358330249786376953125</LatitudeDegrees>
              <LongitudeDegrees>-4.52075541950762271881103515625</LongitudeDegrees>
            </Position>
            <AltitudeMeters>1326.199951171875</AltitudeMeters>
            <DistanceMeters>23489.65496674</DistanceMeters>
          </Trackpoint>
          <Trackpoint>
            <Time>2023-02-23T12:22:44.000Z</Time>
            <Position>
              <LatitudeDegrees>41.49132837541401386260986328125</LatitudeDegrees>
              <LongitudeDegrees>-4.520793221890926361083984375</LongitudeDegrees>
            </Position>
            <AltitudeMeters>1326.199951171875</AltitudeMeters>
            <DistanceMeters>23497.524991793</DistanceMeters>
          </Trackpoint>
          <Trackpoint>
            <Time>2023-02-23T12:22:48.000Z</Time>
            <Position>
              <LatitudeDegrees>41.49145091883838176727294921875</LatitudeDegrees>
              <LongitudeDegrees>-4.5208490453660488128662109375</LongitudeDegrees>
            </Position>
            <AltitudeMeters>1326.4000244140625</AltitudeMeters>
            <DistanceMeters>23511.937133145</DistanceMeters>
          </Trackpoint>
          <Trackpoint>
            <Time>2023-02-23T12:22:50.000Z</Time>
            <Position>
              <LatitudeDegrees>41.49151478894054889678955078125</LatitudeDegrees>
              <LongitudeDegrees>-4.52087762765586376190185546875</LongitudeDegrees>
            </Position>
            <AltitudeMeters>1326.5999755859375</AltitudeMeters>
            <DistanceMeters>23519.43521663</DistanceMeters>
          </Trackpoint>
          <Trackpoint>
            <Time>2023-02-23T12:22:56.000Z</Time>
            <Position>
              <LatitudeDegrees>41.491685025393962860107421875</LatitudeDegrees>
              <LongitudeDegrees>-4.5209744386374950408935546875</LongitudeDegrees>
            </Position>
            <AltitudeMeters>1326.199951171875</AltitudeMeters>
            <DistanceMeters>23540.030379915</DistanceMeters>
          </Trackpoint>
          <Trackpoint>
            <Time>2023-02-23T12:23:01.000Z</Time>
            <Position>
              <LatitudeDegrees>41.4917455427348613739013671875</LatitudeDegrees>
              <LongitudeDegrees>-4.52104157768189907073974609375</LongitudeDegrees>
            </Position>
            <AltitudeMeters>1326</AltitudeMeters>
            <DistanceMeters>23548.788317418</DistanceMeters>
          </Trackpoint>
          <Trackpoint>
            <Time>2023-02-23T12:23:05.000Z</Time>
            <Position>
              <LatitudeDegrees>41.4917586185038089752197265625</LatitudeDegrees>
              <LongitudeDegrees>-4.52108633704483509063720703125</LongitudeDegrees>
            </Position>
            <AltitudeMeters>1325.199951171875</AltitudeMeters>
            <DistanceMeters>23552.794118941</DistanceMeters>
          </Trackpoint>
          <Trackpoint>
            <Time>2023-02-23T12:23:06.000Z</Time>
            <Position>
              <LatitudeDegrees>41.49176188744604587554931640625</LatitudeDegrees>
              <LongitudeDegrees>-4.52108482830226421356201171875</LongitudeDegrees>
            </Position>
            <AltitudeMeters>1325.199951171875</AltitudeMeters>
            <DistanceMeters>23553.185924122</DistanceMeters>
          </Trackpoint>
          <Trackpoint>
            <Time>2023-02-23T12:23:13.000Z</Time>
            <Position>
              <LatitudeDegrees>41.4917871169745922088623046875</LatitudeDegrees>
              <LongitudeDegrees>-4.521087594330310821533203125</LongitudeDegrees>
            </Position>
            <AltitudeMeters>1325.199951171875</AltitudeMeters>
            <DistanceMeters>23556.001666851</DistanceMeters>
          </Trackpoint>
          <Trackpoint>
            <Time>2023-02-23T12:23:21.000Z</Time>
            <Position>
              <LatitudeDegrees>41.49178393185138702392578125</LatitudeDegrees>
              <LongitudeDegrees>-4.521059095859527587890625</LongitudeDegrees>
            </Position>
            <AltitudeMeters>1325.199951171875</AltitudeMeters>
            <DistanceMeters>23558.401914499</DistanceMeters>
          </Trackpoint>
          <Trackpoint>
            <Time>2023-02-23T12:23:28.000Z</Time>
            <Position>
              <LatitudeDegrees>41.49177965708076953887939453125</LatitudeDegrees>
              <LongitudeDegrees>-4.52102892100811004638671875</LongitudeDegrees>
            </Position>
            <AltitudeMeters>1325.199951171875</AltitudeMeters>
            <DistanceMeters>23560.962351082</DistanceMeters>
          </Trackpoint>
          <Trackpoint>
            <Time>2023-02-23T12:23:33.000Z</Time>
            <Position>
              <LatitudeDegrees>41.49177320301532745361328125</LatitudeDegrees>
              <LongitudeDegrees>-4.52099933288991451263427734375</LongitudeDegrees>
            </Position>
            <AltitudeMeters>1325.199951171875</AltitudeMeters>
            <DistanceMeters>23563.531589468</DistanceMeters>
          </Trackpoint>
          <Trackpoint>
            <Time>2023-02-23T12:23:34.000Z</Time>
            <Position>
              <LatitudeDegrees>41.49177378974854946136474609375</LatitudeDegrees>
              <LongitudeDegrees>-4.520994387567043304443359375</LongitudeDegrees>
            </Position>
            <AltitudeMeters>1325.199951171875</AltitudeMeters>
            <DistanceMeters>23563.956561854</DistanceMeters>
          </Trackpoint>
          <Trackpoint>
            <Time>2023-02-23T12:23:36.000Z</Time>
            <Position>
              <LatitudeDegrees>41.49177278392016887664794921875</LatitudeDegrees>
              <LongitudeDegrees>-4.52099271118640899658203125</LongitudeDegrees>
            </Position>
            <AltitudeMeters>1325.199951171875</AltitudeMeters>
            <DistanceMeters>23564.146615283</DistanceMeters>
          </Trackpoint>
          <Trackpoint>
            <Time>2023-02-23T12:23:38.000Z</Time>
            <Position>
              <LatitudeDegrees>41.49177253246307373046875</LatitudeDegrees>
              <LongitudeDegrees>-4.5210009254515171051025390625</LongitudeDegrees>
            </Position>
            <AltitudeMeters>1325.199951171875</AltitudeMeters>
            <DistanceMeters>23564.831862665</DistanceMeters>
          </Trackpoint>
          <Trackpoint>
            <Time>2023-02-23T12:23:46.000Z</Time>
            <Position>
              <LatitudeDegrees>41.49177144281566143035888671875</LatitudeDegrees>
              <LongitudeDegrees>-4.52100352384150028228759765625</LongitudeDegrees>
            </Position>
            <AltitudeMeters>1325.199951171875</AltitudeMeters>
            <DistanceMeters>23565.064629627</DistanceMeters>
          </Trackpoint>
          <Trackpoint>
            <Time>2023-02-23T12:23:53.000Z</Time>
            <Position>
              <LatitudeDegrees>41.49177362211048603057861328125</LatitudeDegrees>
              <LongitudeDegrees>-4.52100369147956371307373046875</LongitudeDegrees>
            </Position>
            <AltitudeMeters>1325.199951171875</AltitudeMeters>
            <DistanceMeters>23565.27711582</DistanceMeters>
          </Trackpoint>
          <Trackpoint>
            <Time>2023-02-23T12:24:04.000Z</Time>
            <Position>
              <LatitudeDegrees>41.49177194572985172271728515625</LatitudeDegrees>
              <LongitudeDegrees>-4.5209881849586963653564453125</LongitudeDegrees>
            </Position>
            <AltitudeMeters>1325.199951171875</AltitudeMeters>
            <DistanceMeters>23566.580056483</DistanceMeters>
          </Trackpoint>
          <Trackpoint>
            <Time>2023-02-23T12:24:13.000Z</Time>
            <Position>
              <LatitudeDegrees>41.4917455427348613739013671875</LatitudeDegrees>
              <LongitudeDegrees>-4.5209772884845733642578125</LongitudeDegrees>
            </Position>
            <AltitudeMeters>1325.199951171875</AltitudeMeters>
            <DistanceMeters>23569.654871931</DistanceMeters>
          </Trackpoint>
          <Trackpoint>
            <Time>2023-02-23T12:24:19.000Z</Time>
            <Position>
              <LatitudeDegrees>41.491735987365245819091796875</LatitudeDegrees>
              <LongitudeDegrees>-4.52097251079976558685302734375</LongitudeDegrees>
            </Position>
            <AltitudeMeters>1325.199951171875</AltitudeMeters>
            <DistanceMeters>23570.787245922</DistanceMeters>
          </Trackpoint>
          <Trackpoint>
            <Time>2023-02-23T12:24:21.000Z</Time>
            <Position>
              <LatitudeDegrees>41.4917336404323577880859375</LatitudeDegrees>
              <LongitudeDegrees>-4.52097393572330474853515625</LongitudeDegrees>
            </Position>
            <AltitudeMeters>1325.199951171875</AltitudeMeters>
            <DistanceMeters>23571.087746778</DistanceMeters>
          </Trackpoint>
          <Trackpoint>
            <Time>2023-02-23T12:24:27.000Z</Time>
            <Position>
              <LatitudeDegrees>41.49172785691916942596435546875</LatitudeDegrees>
              <LongitudeDegrees>-4.52099002897739410400390625</LongitudeDegrees>
            </Position>
            <AltitudeMeters>1325.199951171875</AltitudeMeters>
            <DistanceMeters>23572.575150129</DistanceMeters>
          </Trackpoint>
          <Trackpoint>
            <Time>2023-02-23T12:24:30.000Z</Time>
            <Position>
              <LatitudeDegrees>41.49172450415790081024169921875</LatitudeDegrees>
              <LongitudeDegrees>-4.520995058119297027587890625</LongitudeDegrees>
            </Position>
            <AltitudeMeters>1325.199951171875</AltitudeMeters>
            <DistanceMeters>23573.137335752</DistanceMeters>
          </Trackpoint>
          <Trackpoint>
            <Time>2023-02-23T12:24:32.000Z</Time>
            <Position>
              <LatitudeDegrees>41.49171729572117328643798828125</LatitudeDegrees>
              <LongitudeDegrees>-4.52100402675569057464599609375</LongitudeDegrees>
            </Position>
            <AltitudeMeters>1325.199951171875</AltitudeMeters>
            <DistanceMeters>23574.237349499</DistanceMeters>
          </Trackpoint>
          <Trackpoint>
            <Time>2023-02-23T12:24:34.000Z</Time>
            <Position>
              <LatitudeDegrees>41.4917126856744289398193359375</LatitudeDegrees>
              <LongitudeDegrees>-4.5210056193172931671142578125</LongitudeDegrees>
            </Position>
            <AltitudeMeters>1325.199951171875</AltitudeMeters>
            <DistanceMeters>23574.774901772</DistanceMeters>
          </Trackpoint>
          <Trackpoint>
            <Time>2023-02-23T12:24:40.000Z</Time>
            <Position>
              <LatitudeDegrees>41.491725258529186248779296875</LatitudeDegrees>
              <LongitudeDegrees>-4.52103286050260066986083984375</LongitudeDegrees>
            </Position>
            <AltitudeMeters>1325.199951171875</AltitudeMeters>
            <DistanceMeters>23577.442428761</DistanceMeters>
          </Trackpoint>
          <Trackpoint>
            <Time>2023-02-23T12:24:41.000Z</Time>
            <Position>
              <LatitudeDegrees>41.49173288606107234954833984375</LatitudeDegrees>
              <LongitudeDegrees>-4.5210445113480091094970703125</LongitudeDegrees>
            </Position>
            <AltitudeMeters>1325.199951171875</AltitudeMeters>
            <DistanceMeters>23578.73143383</DistanceMeters>
          </Trackpoint>
          <Trackpoint>
            <Time>2023-02-23T12:24:49.000Z</Time>
            <Position>
              <LatitudeDegrees>41.49172131903469562530517578125</LatitudeDegrees>
              <LongitudeDegrees>-4.52104099094867706298828125</LongitudeDegrees>
            </Position>
            <AltitudeMeters>1325.199951171875</AltitudeMeters>
            <DistanceMeters>23580.055002804</DistanceMeters>
          </Trackpoint>
          <Trackpoint>
            <Time>2023-02-23T12:24:57.000Z</Time>
            <Position>
              <LatitudeDegrees>41.49174663238227367401123046875</LatitudeDegrees>
              <LongitudeDegrees>-4.52108382247388362884521484375</LongitudeDegrees>
            </Position>
            <AltitudeMeters>1325.199951171875</AltitudeMeters>
            <DistanceMeters>23584.602405915</DistanceMeters>
          </Trackpoint>
          <Trackpoint>
            <Time>2023-02-23T12:25:01.000Z</Time>
            <Position>
              <LatitudeDegrees>41.49175451137125492095947265625</LatitudeDegrees>
              <LongitudeDegrees>-4.52108315192162990570068359375</LongitudeDegrees>
            </Position>
            <AltitudeMeters>1325.199951171875</AltitudeMeters>
            <DistanceMeters>23585.483647411</DistanceMeters>
          </Trackpoint>
          <Trackpoint>
            <Time>2023-02-23T12:25:05.000Z</Time>
            <Position>
              <LatitudeDegrees>41.491762809455394744873046875</LatitudeDegrees>
              <LongitudeDegrees>-4.52109287492930889129638671875</LongitudeDegrees>
            </Position>
            <AltitudeMeters>1325.199951171875</AltitudeMeters>
            <DistanceMeters>23586.715334402</DistanceMeters>
          </Trackpoint>
          <Trackpoint>
            <Time>2023-02-23T12:25:11.000Z</Time>
            <Position>
              <LatitudeDegrees>41.49173774756491184234619140625</LatitudeDegrees>
              <LongitudeDegrees>-4.5210689865052700042724609375</LongitudeDegrees>
            </Position>
            <AltitudeMeters>1325.199951171875</AltitudeMeters>
            <DistanceMeters>23590.141571314</DistanceMeters>
          </Trackpoint>
          <Trackpoint>
            <Time>2023-02-23T12:25:15.000Z</Time>
            <Position>
              <LatitudeDegrees>41.49170589633285999298095703125</LatitudeDegrees>
              <LongitudeDegrees>-4.5210652984678745269775390625</LongitudeDegrees>
            </Position>
            <AltitudeMeters>1325.199951171875</AltitudeMeters>
            <DistanceMeters>23593.699684181</DistanceMeters>
          </Trackpoint>
          <Trackpoint>
            <Time>2023-02-23T12:25:18.000Z</Time>
            <Position>
              <LatitudeDegrees>41.49167530238628387451171875</LatitudeDegrees>
              <LongitudeDegrees>-4.52106588520109653472900390625</LongitudeDegrees>
            </Position>
            <AltitudeMeters>1325.199951171875</AltitudeMeters>
            <DistanceMeters>23597.10477128</DistanceMeters>
          </Trackpoint>
          <Trackpoint>
            <Time>2023-02-23T12:25:25.000Z</Time>
            <Position>
              <LatitudeDegrees>41.49162258021533489227294921875</LatitudeDegrees>
              <LongitudeDegrees>-4.52108281664550304412841796875</LongitudeDegrees>
            </Position>
            <AltitudeMeters>1325.199951171875</AltitudeMeters>
            <DistanceMeters>23603.140276924</DistanceMeters>
          </Trackpoint>
          <Trackpoint>
            <Time>2023-02-23T12:25:29.000Z</Time>
            <Position>
              <LatitudeDegrees>41.4916523359715938568115234375</LatitudeDegrees>
              <LongitudeDegrees>-4.52109999954700469970703125</LongitudeDegrees>
            </Position>
            <AltitudeMeters>1325.199951171875</AltitudeMeters>
            <DistanceMeters>23606.7487905</DistanceMeters>
          </Trackpoint>
          <Trackpoint>
            <Time>2023-02-23T12:25:31.000Z</Time>
            <Position>
              <LatitudeDegrees>41.4916664175689220428466796875</LatitudeDegrees>
              <LongitudeDegrees>-4.5210926234722137451171875</LongitudeDegrees>
            </Position>
            <AltitudeMeters>1325.199951171875</AltitudeMeters>
            <DistanceMeters>23608.432668169</DistanceMeters>
          </Trackpoint>
          <Trackpoint>
            <Time>2023-02-23T12:25:39.000Z</Time>
            <Position>
              <LatitudeDegrees>41.49164454080164432525634765625</LatitudeDegrees>
              <LongitudeDegrees>-4.52116169035434722900390625</LongitudeDegrees>
            </Position>
            <AltitudeMeters>1325.199951171875</AltitudeMeters>
            <DistanceMeters>23614.684241639</DistanceMeters>
          </Trackpoint>
          <Trackpoint>
            <Time>2023-02-23T12:25:41.000Z</Time>
            <Position>
              <LatitudeDegrees>41.4916409365832805633544921875</LatitudeDegrees>
              <LongitudeDegrees>-4.52116906642913818359375</LongitudeDegrees>
            </Position>
            <AltitudeMeters>1325.199951171875</AltitudeMeters>
            <DistanceMeters>23615.420315403</DistanceMeters>
          </Trackpoint>
          <Trackpoint>
            <Time>2023-02-23T12:25:47.000Z</Time>
            <Position>
              <LatitudeDegrees>41.49162710644304752349853515625</LatitudeDegrees>
              <LongitudeDegrees>-4.5211866684257984161376953125</LongitudeDegrees>
            </Position>
            <AltitudeMeters>1325.199951171875</AltitudeMeters>
            <DistanceMeters>23617.545177334</DistanceMeters>
          </Trackpoint>
          <Trackpoint>
            <Time>2023-02-23T12:25:50.000Z</Time>
            <Position>
              <LatitudeDegrees>41.4916248433291912078857421875</LatitudeDegrees>
              <LongitudeDegrees>-4.5211732573807239532470703125</LongitudeDegrees>
            </Position>
            <AltitudeMeters>1325.199951171875</AltitudeMeters>
            <DistanceMeters>23618.693389492</DistanceMeters>
          </Trackpoint>
          <Trackpoint>
            <Time>2023-02-23T12:25:55.000Z</Time>
            <Position>
              <LatitudeDegrees>41.49166851304471492767333984375</LatitudeDegrees>
              <LongitudeDegrees>-4.5211283303797245025634765625</LongitudeDegrees>
            </Position>
            <AltitudeMeters>1325.199951171875</AltitudeMeters>
            <DistanceMeters>23624.829790617</DistanceMeters>
          </Trackpoint>
          <Trackpoint>
            <Time>2023-02-23T12:25:58.000Z</Time>
            <Position>
              <LatitudeDegrees>41.49167991243302822113037109375</LatitudeDegrees>
              <LongitudeDegrees>-4.5211045257747173309326171875</LongitudeDegrees>
            </Position>
            <AltitudeMeters>1325.199951171875</AltitudeMeters>
            <DistanceMeters>23627.188291643</DistanceMeters>
          </Trackpoint>
          <Trackpoint>
            <Time>2023-02-23T12:26:01.000Z</Time>
            <Position>
              <LatitudeDegrees>41.491681002080440521240234375</LatitudeDegrees>
              <LongitudeDegrees>-4.5211018435657024383544921875</LongitudeDegrees>
            </Position>
            <AltitudeMeters>1325.199951171875</AltitudeMeters>
            <DistanceMeters>23627.45706778</DistanceMeters>
          </Trackpoint>
          <Trackpoint>
            <Time>2023-02-23T12:26:04.000Z</Time>
            <Position>
              <LatitudeDegrees>41.49167957715690135955810546875</LatitudeDegrees>
              <LongitudeDegrees>-4.52109522186219692230224609375</LongitudeDegrees>
            </Position>
            <AltitudeMeters>1325.199951171875</AltitudeMeters>
            <DistanceMeters>23628.027228066</DistanceMeters>
          </Trackpoint>
          <Trackpoint>
            <Time>2023-02-23T12:26:06.000Z</Time>
            <Position>
              <LatitudeDegrees>41.49168041534721851348876953125</LatitudeDegrees>
              <LongitudeDegrees>-4.5210964791476726531982421875</LongitudeDegrees>
            </Position>
            <AltitudeMeters>1325.199951171875</AltitudeMeters>
            <DistanceMeters>23628.161616134</DistanceMeters>
          </Trackpoint>
          <Trackpoint>
            <Time>2023-02-23T12:26:11.000Z</Time>
            <Position>
              <LatitudeDegrees>41.49167672730982303619384765625</LatitudeDegrees>
              <LongitudeDegrees>-4.52108700759708881378173828125</LongitudeDegrees>
            </Position>
            <AltitudeMeters>1325.199951171875</AltitudeMeters>
            <DistanceMeters>23629.047966319</DistanceMeters>
          </Trackpoint>
          <Trackpoint>
            <Time>2023-02-23T12:26:18.000Z</Time>
            <Position>
              <LatitudeDegrees>41.49167270399630069732666015625</LatitudeDegrees>
              <LongitudeDegrees>-4.52108331955969333648681640625</LongitudeDegrees>
            </Position>
            <AltitudeMeters>1325.199951171875</AltitudeMeters>
            <DistanceMeters>23629.60206252</DistanceMeters>
          </Trackpoint>
          <Trackpoint>
            <Time>2023-02-23T12:26:19.000Z</Time>
            <Position>
              <LatitudeDegrees>41.4916677586734294891357421875</LatitudeDegrees>
              <LongitudeDegrees>-4.521085917949676513671875</LongitudeDegrees>
            </Position>
            <AltitudeMeters>1325.199951171875</AltitudeMeters>
            <DistanceMeters>23630.195504161</DistanceMeters>
          </Trackpoint>
          <Trackpoint>
            <Time>2023-02-23T12:26:27.000Z</Time>
            <Position>
              <LatitudeDegrees>41.49167270399630069732666015625</LatitudeDegrees>
              <LongitudeDegrees>-4.5210917852818965911865234375</LongitudeDegrees>
            </Position>
            <AltitudeMeters>1325.199951171875</AltitudeMeters>
            <DistanceMeters>23630.931577925</DistanceMeters>
          </Trackpoint>
          <Trackpoint>
            <Time>2023-02-23T12:26:35.000Z</Time>
            <Position>
              <LatitudeDegrees>41.4916768111288547515869140625</LatitudeDegrees>
              <LongitudeDegrees>-4.52107577584683895111083984375</LongitudeDegrees>
            </Position>
            <AltitudeMeters>1325.199951171875</AltitudeMeters>
            <DistanceMeters>23632.341051876</DistanceMeters>
          </Trackpoint>
          <Trackpoint>
            <Time>2023-02-23T12:26:36.000Z</Time>
            <Position>
              <LatitudeDegrees>41.49168309755623340606689453125</LatitudeDegrees>
              <LongitudeDegrees>-4.5210736803710460662841796875</LongitudeDegrees>
            </Position>
            <AltitudeMeters>1325.199951171875</AltitudeMeters>
            <DistanceMeters>23633.064753771</DistanceMeters>
          </Trackpoint>
          <Trackpoint>
            <Time>2023-02-23T12:26:39.000Z</Time>
            <Position>
              <LatitudeDegrees>41.49171930737793445587158203125</LatitudeDegrees>
              <LongitudeDegrees>-4.52105951495468616485595703125</LongitudeDegrees>
            </Position>
            <AltitudeMeters>1325.199951171875</AltitudeMeters>
            <DistanceMeters>23637.265321515</DistanceMeters>
          </Trackpoint>
          <Trackpoint>
            <Time>2023-02-23T12:26:40.000Z</Time>
            <Position>
              <LatitudeDegrees>41.49172534234821796417236328125</LatitudeDegrees>
              <LongitudeDegrees>-4.521056748926639556884765625</LongitudeDegrees>
            </Position>
            <AltitudeMeters>1325.199951171875</AltitudeMeters>
            <DistanceMeters>23637.976436331</DistanceMeters>
          </Trackpoint>
          <Trackpoint>
            <Time>2023-02-23T12:26:47.000Z</Time>
            <Position>
              <LatitudeDegrees>41.49174562655389308929443359375</LatitudeDegrees>
              <LongitudeDegrees>-4.5210818946361541748046875</LongitudeDegrees>
            </Position>
            <AltitudeMeters>1325.199951171875</AltitudeMeters>
            <DistanceMeters>23641.055653807</DistanceMeters>
          </Trackpoint>
          <Trackpoint>
            <Time>2023-02-23T12:26:53.000Z</Time>
            <Position>
              <LatitudeDegrees>41.4917743764817714691162109375</LatitudeDegrees>
              <LongitudeDegrees>-4.5210810564458370208740234375</LongitudeDegrees>
            </Position>
            <AltitudeMeters>1325.199951171875</AltitudeMeters>
            <DistanceMeters>23644.257081108</DistanceMeters>
          </Trackpoint>
          <Trackpoint>
            <Time>2023-02-23T12:27:01.000Z</Time>
            <Position>
              <LatitudeDegrees>41.49177429266273975372314453125</LatitudeDegrees>
              <LongitudeDegrees>-4.52107376419007778167724609375</LongitudeDegrees>
            </Position>
            <AltitudeMeters>1324.800048828125</AltitudeMeters>
            <DistanceMeters>23644.85808282</DistanceMeters>
          </Trackpoint>
          <Trackpoint>
            <Time>2023-02-23T12:27:05.000Z</Time>
            <Position>
              <LatitudeDegrees>41.49176205508410930633544921875</LatitudeDegrees>
              <LongitudeDegrees>-4.52107644639909267425537109375</LongitudeDegrees>
            </Position>
            <AltitudeMeters>1324.800048828125</AltitudeMeters>
            <DistanceMeters>23646.241692666</DistanceMeters>
          </Trackpoint>
          <Trackpoint>
            <Time>2023-02-23T12:27:06.000Z</Time>
            <Position>
              <LatitudeDegrees>41.49176171980798244476318359375</LatitudeDegrees>
              <LongitudeDegrees>-4.52107560820877552032470703125</LongitudeDegrees>
            </Position>
            <AltitudeMeters>1324.800048828125</AltitudeMeters>
            <DistanceMeters>23646.376080734</DistanceMeters>
          </Trackpoint>
          <Trackpoint>
            <Time>2023-02-23T12:27:07.000Z</Time>
            <Position>
              <LatitudeDegrees>41.49176825769245624542236328125</LatitudeDegrees>
              <LongitudeDegrees>-4.5210709981620311737060546875</LongitudeDegrees>
            </Position>
            <AltitudeMeters>1324.800048828125</AltitudeMeters>
            <DistanceMeters>23647.19353144</DistanceMeters>
          </Trackpoint>
          <Trackpoint>
            <Time>2023-02-23T12:27:08.000Z</Time>
            <Position>
              <LatitudeDegrees>41.49177479557693004608154296875</LatitudeDegrees>
              <LongitudeDegrees>-4.52106102369725704193115234375</LongitudeDegrees>
            </Position>
            <AltitudeMeters>1325</AltitudeMeters>
            <DistanceMeters>23648.293545187</DistanceMeters>
          </Trackpoint>
          <Trackpoint>
            <Time>2023-02-23T12:27:15.000Z</Time>
            <Position>
              <LatitudeDegrees>41.491809077560901641845703125</LatitudeDegrees>
              <LongitudeDegrees>-4.52100955881178379058837890625</LongitudeDegrees>
            </Position>
            <AltitudeMeters>1324.800048828125</AltitudeMeters>
            <DistanceMeters>23654.036178658</DistanceMeters>
          </Trackpoint>
          <Trackpoint>
            <Time>2023-02-23T12:27:16.000Z</Time>
            <Position>
              <LatitudeDegrees>41.49181921966373920440673828125</LatitudeDegrees>
              <LongitudeDegrees>-4.5210134983062744140625</LongitudeDegrees>
            </Position>
            <AltitudeMeters>1324.800048828125</AltitudeMeters>
            <DistanceMeters>23655.211594199</DistanceMeters>
          </Trackpoint>
          <Trackpoint>
            <Time>2023-02-23T12:27:20.000Z</Time>
            <Position>
              <LatitudeDegrees>41.491905637085437774658203125</LatitudeDegrees>
              <LongitudeDegrees>-4.5210321061313152313232421875</LongitudeDegrees>
            </Position>
            <AltitudeMeters>1324.800048828125</AltitudeMeters>
            <DistanceMeters>23664.954497441</DistanceMeters>
          </Trackpoint>
          <Trackpoint>
            <Time>2023-02-23T12:27:22.000Z</Time>
            <Position>
              <LatitudeDegrees>41.4919616281986236572265625</LatitudeDegrees>
              <LongitudeDegrees>-4.52104493044316768646240234375</LongitudeDegrees>
            </Position>
            <AltitudeMeters>1324.800048828125</AltitudeMeters>
            <DistanceMeters>23671.27788091</DistanceMeters>
          </Trackpoint>
          <Trackpoint>
            <Time>2023-02-23T12:27:23.000Z</Time>
            <Position>
              <LatitudeDegrees>41.4919909648597240447998046875</LatitudeDegrees>
              <LongitudeDegrees>-4.52105431817471981048583984375</LongitudeDegrees>
            </Position>
            <AltitudeMeters>1324.5999755859375</AltitudeMeters>
            <DistanceMeters>23674.637582616</DistanceMeters>
          </Trackpoint>
          <Trackpoint>
            <Time>2023-02-23T12:27:27.000Z</Time>
            <Position>
              <LatitudeDegrees>41.492111496627330780029296875</LatitudeDegrees>
              <LongitudeDegrees>-4.5210864208638668060302734375</LongitudeDegrees>
            </Position>
            <AltitudeMeters>1324.4000244140625</AltitudeMeters>
            <DistanceMeters>23688.317469466</DistanceMeters>
          </Trackpoint>
          <Trackpoint>
            <Time>2023-02-23T12:27:29.000Z</Time>
            <Position>
              <LatitudeDegrees>41.49217964150011539459228515625</LatitudeDegrees>
              <LongitudeDegrees>-4.52110578306019306182861328125</LongitudeDegrees>
            </Position>
            <AltitudeMeters>1324.4000244140625</AltitudeMeters>
            <DistanceMeters>23696.07132328</DistanceMeters>
          </Trackpoint>
          <Trackpoint>
            <Time>2023-02-23T12:27:31.000Z</Time>
            <Position>
              <LatitudeDegrees>41.4922467805445194244384765625</LatitudeDegrees>
              <LongitudeDegrees>-4.521112740039825439453125</LongitudeDegrees>
            </Position>
            <AltitudeMeters>1324</AltitudeMeters>
            <DistanceMeters>23703.56579294</DistanceMeters>
          </Trackpoint>
          <Trackpoint>
            <Time>2023-02-23T12:27:34.000Z</Time>
            <Position>
              <LatitudeDegrees>41.49235331453382968902587890625</LatitudeDegrees>
              <LongitudeDegrees>-4.52115825377404689788818359375</LongitudeDegrees>
            </Position>
            <AltitudeMeters>1324</AltitudeMeters>
            <DistanceMeters>23716.016105877</DistanceMeters>
          </Trackpoint>
          <Trackpoint>
            <Time>2023-02-23T12:27:41.000Z</Time>
            <Position>
              <LatitudeDegrees>41.49259605444967746734619140625</LatitudeDegrees>
              <LongitudeDegrees>-4.52126369811594486236572265625</LongitudeDegrees>
            </Position>
            <AltitudeMeters>1325</AltitudeMeters>
            <DistanceMeters>23744.427822185</DistanceMeters>
          </Trackpoint>
          <Trackpoint>
            <Time>2023-02-23T12:27:42.000Z</Time>
            <Position>
              <LatitudeDegrees>41.49263243190944194793701171875</LatitudeDegrees>
              <LongitudeDegrees>-4.52127476222813129425048828125</LongitudeDegrees>
            </Position>
            <AltitudeMeters>1325</AltitudeMeters>
            <DistanceMeters>23748.579739324</DistanceMeters>
          </Trackpoint>
          <Trackpoint>
            <Time>2023-02-23T12:27:43.000Z</Time>
            <Position>
              <LatitudeDegrees>41.49266914464533329010009765625</LatitudeDegrees>
              <LongitudeDegrees>-4.52128708362579345703125</LongitudeDegrees>
            </Position>
            <AltitudeMeters>1325.199951171875</AltitudeMeters>
            <DistanceMeters>23752.793185691</DistanceMeters>
          </Trackpoint>
          <Trackpoint>
            <Time>2023-02-23T12:27:51.000Z</Time>
            <Position>
              <LatitudeDegrees>41.49295832030475139617919921875</LatitudeDegrees>
              <LongitudeDegrees>-4.5213948749005794525146484375</LongitudeDegrees>
            </Position>
            <AltitudeMeters>1325.4000244140625</AltitudeMeters>
            <DistanceMeters>23786.209907751</DistanceMeters>
          </Trackpoint>
          <Trackpoint>
            <Time>2023-02-23T12:27:55.000Z</Time>
            <Position>
              <LatitudeDegrees>41.49309611879289150238037109375</LatitudeDegrees>
              <LongitudeDegrees>-4.521417506039142608642578125</LongitudeDegrees>
            </Position>
            <AltitudeMeters>1325</AltitudeMeters>
            <DistanceMeters>23801.662782612</DistanceMeters>
          </Trackpoint>
          <Trackpoint>
            <Time>2023-02-23T12:27:58.000Z</Time>
            <Position>
              <LatitudeDegrees>41.49320525117218494415283203125</LatitudeDegrees>
              <LongitudeDegrees>-4.52141557820141315460205078125</LongitudeDegrees>
            </Position>
            <AltitudeMeters>1325.4000244140625</AltitudeMeters>
            <DistanceMeters>23813.810601727</DistanceMeters>
          </Trackpoint>
          <Trackpoint>
            <Time>2023-02-23T12:28:06.000Z</Time>
            <Position>
              <LatitudeDegrees>41.49350850842893123626708984375</LatitudeDegrees>
              <LongitudeDegrees>-4.52137433923780918121337890625</LongitudeDegrees>
            </Position>
            <AltitudeMeters>1325.5999755859375</AltitudeMeters>
            <DistanceMeters>23847.73846586</DistanceMeters>
          </Trackpoint>
          <Trackpoint>
            <Time>2023-02-23T12:28:11.000Z</Time>
            <Position>
              <LatitudeDegrees>41.49365569464862346649169921875</LatitudeDegrees>
              <LongitudeDegrees>-4.52121390961110591888427734375</LongitudeDegrees>
            </Position>
            <AltitudeMeters>1325.4000244140625</AltitudeMeters>
            <DistanceMeters>23868.88698085</DistanceMeters>
          </Trackpoint>
          <Trackpoint>
            <Time>2023-02-23T12:28:14.000Z</Time>
            <Position>
              <LatitudeDegrees>41.49371646344661712646484375</LatitudeDegrees>
              <LongitudeDegrees>-4.52108432538807392120361328125</LongitudeDegrees>
            </Position>
            <AltitudeMeters>1326.199951171875</AltitudeMeters>
            <DistanceMeters>23881.632964739</DistanceMeters>
          </Trackpoint>
          <Trackpoint>
            <Time>2023-02-23T12:28:18.000Z</Time>
            <Position>
              <LatitudeDegrees>41.4937907271087169647216796875</LatitudeDegrees>
              <LongitudeDegrees>-4.52090595848858356475830078125</LongitudeDegrees>
            </Position>
            <AltitudeMeters>1326.5999755859375</AltitudeMeters>
            <DistanceMeters>23898.645931566</DistanceMeters>
          </Trackpoint>
          <Trackpoint>
            <Time>2023-02-23T12:28:26.000Z</Time>
            <Position>
              <LatitudeDegrees>41.49395895190536975860595703125</LatitudeDegrees>
              <LongitudeDegrees>-4.52055039815604686737060546875</LongitudeDegrees>
            </Position>
            <AltitudeMeters>1326.199951171875</AltitudeMeters>
            <DistanceMeters>23933.706539749</DistanceMeters>
          </Trackpoint>
          <Trackpoint>
            <Time>2023-02-23T12:28:32.000Z</Time>
            <Position>
              <LatitudeDegrees>41.49413949809968471527099609375</LatitudeDegrees>
              <LongitudeDegrees>-4.5203109271824359893798828125</LongitudeDegrees>
            </Position>
            <AltitudeMeters>1326.4000244140625</AltitudeMeters>
            <DistanceMeters>23962.033109126</DistanceMeters>
          </Trackpoint>
          <Trackpoint>
            <Time>2023-02-23T12:28:34.000Z</Time>
            <Position>
              <LatitudeDegrees>41.494182832539081573486328125</LatitudeDegrees>
              <LongitudeDegrees>-4.52023305930197238922119140625</LongitudeDegrees>
            </Position>
            <AltitudeMeters>1326.4000244140625</AltitudeMeters>
            <DistanceMeters>23970.120993507</DistanceMeters>
          </Trackpoint>
          <Trackpoint>
            <Time>2023-02-23T12:28:38.000Z</Time>
            <Position>
              <LatitudeDegrees>41.4942721836268901824951171875</LatitudeDegrees>
              <LongitudeDegrees>-4.52007363550364971160888671875</LongitudeDegrees>
            </Position>
            <AltitudeMeters>1325.800048828125</AltitudeMeters>
            <DistanceMeters>23986.72050412</DistanceMeters>
          </Trackpoint>
          <Trackpoint>
            <Time>2023-02-23T12:28:43.000Z</Time>
            <Position>
              <LatitudeDegrees>41.49440352804958820343017578125</LatitudeDegrees>
              <LongitudeDegrees>-4.51987196691334247589111328125</LongitudeDegrees>
            </Position>
            <AltitudeMeters>1326.199951171875</AltitudeMeters>
            <DistanceMeters>24008.999759987</DistanceMeters>
          </Trackpoint>
          <Trackpoint>
            <Time>2023-02-23T12:28:47.000Z</Time>
            <Position>
              <LatitudeDegrees>41.49448181502521038055419921875</LatitudeDegrees>
              <LongitudeDegrees>-4.5196993835270404815673828125</LongitudeDegrees>
            </Position>
            <AltitudeMeters>1326.199951171875</AltitudeMeters>
            <DistanceMeters>24025.820293722</DistanceMeters>
          </Trackpoint>
          <Trackpoint>
            <Time>2023-02-23T12:28:49.000Z</Time>
            <Position>
              <LatitudeDegrees>41.49452523328363895416259765625</LatitudeDegrees>
              <LongitudeDegrees>-4.51961682178080081939697265625</LongitudeDegrees>
            </Position>
            <AltitudeMeters>1326.199951171875</AltitudeMeters>
            <DistanceMeters>24034.230023725</DistanceMeters>
          </Trackpoint>
          <Trackpoint>
            <Time>2023-02-23T12:28:52.000Z</Time>
            <Position>
              <LatitudeDegrees>41.49460787884891033172607421875</LatitudeDegrees>
              <LongitudeDegrees>-4.51949737966060638427734375</LongitudeDegrees>
            </Position>
            <AltitudeMeters>1325.800048828125</AltitudeMeters>
            <DistanceMeters>24047.785910108</DistanceMeters>
          </Trackpoint>
          <Trackpoint>
            <Time>2023-02-23T12:28:53.000Z</Time>
            <Position>
              <LatitudeDegrees>41.4946342818439006805419921875</LatitudeDegrees>
              <LongitudeDegrees>-4.5194564759731292724609375</LongitudeDegrees>
            </Position>
            <AltitudeMeters>1326</AltitudeMeters>
            <DistanceMeters>24052.287408918</DistanceMeters>
          </Trackpoint>
          <Trackpoint>
            <Time>2023-02-23T12:28:55.000Z</Time>
            <Position>
              <LatitudeDegrees>41.49468448944389820098876953125</LatitudeDegrees>
              <LongitudeDegrees>-4.5193786919116973876953125</LongitudeDegrees>
            </Position>
            <AltitudeMeters>1326</AltitudeMeters>
            <DistanceMeters>24060.847728442</DistanceMeters>
          </Trackpoint>
          <Trackpoint>
            <Time>2023-02-23T12:29:01.000Z</Time>
            <Position>
              <LatitudeDegrees>41.49488330818712711334228515625</LatitudeDegrees>
              <LongitudeDegrees>-4.51911784708499908447265625</LongitudeDegrees>
            </Position>
            <AltitudeMeters>1326.4000244140625</AltitudeMeters>
            <DistanceMeters>24091.873041149</DistanceMeters>
          </Trackpoint>
          <Trackpoint>
            <Time>2023-02-23T12:29:07.000Z</Time>
            <Position>
              <LatitudeDegrees>41.4950822107493877410888671875</LatitudeDegrees>
              <LongitudeDegrees>-4.5188833214342594146728515625</LongitudeDegrees>
            </Position>
            <AltitudeMeters>1326.4000244140625</AltitudeMeters>
            <DistanceMeters>24121.408774845</DistanceMeters>
          </Trackpoint>
          <Trackpoint>
            <Time>2023-02-23T12:29:10.000Z</Time>
            <Position>
              <LatitudeDegrees>41.49516996927559375762939453125</LatitudeDegrees>
              <LongitudeDegrees>-4.5187604427337646484375</LongitudeDegrees>
            </Position>
            <AltitudeMeters>1326.4000244140625</AltitudeMeters>
            <DistanceMeters>24135.56329024</DistanceMeters>
          </Trackpoint>
          <Trackpoint>
            <Time>2023-02-23T12:29:14.000Z</Time>
            <Position>
              <LatitudeDegrees>41.4952672831714153289794921875</LatitudeDegrees>
              <LongitudeDegrees>-4.51859657652676105499267578125</LongitudeDegrees>
            </Position>
            <AltitudeMeters>1326.800048828125</AltitudeMeters>
            <DistanceMeters>24152.997002207</DistanceMeters>
          </Trackpoint>
          <Trackpoint>
            <Time>2023-02-23T12:29:16.000Z</Time>
            <Position>
              <LatitudeDegrees>41.4953128807246685028076171875</LatitudeDegrees>
              <LongitudeDegrees>-4.51851175166666507720947265625</LongitudeDegrees>
            </Position>
            <AltitudeMeters>1326.800048828125</AltitudeMeters>
            <DistanceMeters>24161.701158764</DistanceMeters>
          </Trackpoint>
          <Trackpoint>
            <Time>2023-02-23T12:29:17.000Z</Time>
            <Position>
              <LatitudeDegrees>41.4953346736729145050048828125</LatitudeDegrees>
              <LongitudeDegrees>-4.51847168616950511932373046875</LongitudeDegrees>
            </Position>
            <AltitudeMeters>1326.800048828125</AltitudeMeters>
            <DistanceMeters>24165.83017612</DistanceMeters>
          </Trackpoint>
          <Trackpoint>
            <Time>2023-02-23T12:29:20.000Z</Time>
            <Position>
              <LatitudeDegrees>41.4954184927046298980712890625</LatitudeDegrees>
              <LongitudeDegrees>-4.51836389489471912384033203125</LongitudeDegrees>
            </Position>
            <AltitudeMeters>1326.800048828125</AltitudeMeters>
            <DistanceMeters>24178.783819641</DistanceMeters>
          </Trackpoint>
          <Trackpoint>
            <Time>2023-02-23T12:29:21.000Z</Time>
            <Position>
              <LatitudeDegrees>41.4954471588134765625</LatitudeDegrees>
              <LongitudeDegrees>-4.5183254219591617584228515625</LongitudeDegrees>
            </Position>
            <AltitudeMeters>1327.199951171875</AltitudeMeters>
            <DistanceMeters>24183.307330802</DistanceMeters>
          </Trackpoint>
          <Trackpoint>
            <Time>2023-02-23T12:29:22.000Z</Time>
            <Position>
              <LatitudeDegrees>41.49547599256038665771484375</LatitudeDegrees>
              <LongitudeDegrees>-4.51828191988170146942138671875</LongitudeDegrees>
            </Position>
            <AltitudeMeters>1327.4000244140625</AltitudeMeters>
            <DistanceMeters>24188.149032822</DistanceMeters>
          </Trackpoint>
          <Trackpoint>
            <Time>2023-02-23T12:29:23.000Z</Time>
            <Position>
              <LatitudeDegrees>41.495496444404125213623046875</LatitudeDegrees>
              <LongitudeDegrees>-4.51824017800390720367431640625</LongitudeDegrees>
            </Position>
            <AltitudeMeters>1327.4000244140625</AltitudeMeters>
            <DistanceMeters>24192.306383699</DistanceMeters>
          </Trackpoint>
          <Trackpoint>
            <Time>2023-02-23T12:29:31.000Z</Time>
            <Position>
              <LatitudeDegrees>41.49570909328758716583251953125</LatitudeDegrees>
              <LongitudeDegrees>-4.51789668761193752288818359375</LongitudeDegrees>
            </Position>
            <AltitudeMeters>1327</AltitudeMeters>
            <DistanceMeters>24229.456967998</DistanceMeters>
          </Trackpoint>
          <Trackpoint>
            <Time>2023-02-23T12:29:38.000Z</Time>
            <Position>
              <LatitudeDegrees>41.495856530964374542236328125</LatitudeDegrees>
              <LongitudeDegrees>-4.51758789829909801483154296875</LongitudeDegrees>
            </Position>
            <AltitudeMeters>1327.5999755859375</AltitudeMeters>
            <DistanceMeters>24259.984956295</DistanceMeters>
          </Trackpoint>
          <Trackpoint>
            <Time>2023-02-23T12:29:43.000Z</Time>
            <Position>
              <LatitudeDegrees>41.49595971219241619110107421875</LatitudeDegrees>
              <LongitudeDegrees>-4.5173799432814121246337890625</LongitudeDegrees>
            </Position>
            <AltitudeMeters>1327.199951171875</AltitudeMeters>
            <DistanceMeters>24280.779962926</DistanceMeters>
          </Trackpoint>
          <Trackpoint>
            <Time>2023-02-23T12:29:44.000Z</Time>
            <Position>
              <LatitudeDegrees>41.49598821066319942474365234375</LatitudeDegrees>
              <LongitudeDegrees>-4.517336525022983551025390625</LongitudeDegrees>
            </Position>
            <AltitudeMeters>1327.199951171875</AltitudeMeters>
            <DistanceMeters>24285.592669657</DistanceMeters>
          </Trackpoint>
          <Trackpoint>
            <Time>2023-02-23T12:29:51.000Z</Time>
            <Position>
              <LatitudeDegrees>41.49616003967821598052978515625</LatitudeDegrees>
              <LongitudeDegrees>-4.51704173348844051361083984375</LongitudeDegrees>
            </Position>
            <AltitudeMeters>1327</AltitudeMeters>
            <DistanceMeters>24316.732736917</DistanceMeters>
          </Trackpoint>
          <Trackpoint>
            <Time>2023-02-23T12:29:52.000Z</Time>
            <Position>
              <LatitudeDegrees>41.49618552066385746002197265625</LatitudeDegrees>
              <LongitudeDegrees>-4.51700200326740741729736328125</LongitudeDegrees>
            </Position>
            <AltitudeMeters>1326.800048828125</AltitudeMeters>
            <DistanceMeters>24321.093624555</DistanceMeters>
          </Trackpoint>
          <Trackpoint>
            <Time>2023-02-23T12:29:57.000Z</Time>
            <Position>
              <LatitudeDegrees>41.49635232053697109222412109375</LatitudeDegrees>
              <LongitudeDegrees>-4.516824893653392791748046875</LongitudeDegrees>
            </Position>
            <AltitudeMeters>1326.800048828125</AltitudeMeters>
            <DistanceMeters>24344.814165511</DistanceMeters>
          </Trackpoint>
          <Trackpoint>
            <Time>2023-02-23T12:29:58.000Z</Time>
            <Position>
              <LatitudeDegrees>41.496398337185382843017578125</LatitudeDegrees>
              <LongitudeDegrees>-4.5167935453355312347412109375</LongitudeDegrees>
            </Position>
            <AltitudeMeters>1326.800048828125</AltitudeMeters>
            <DistanceMeters>24350.563870709</DistanceMeters>
          </Trackpoint>
          <Trackpoint>
            <Time>2023-02-23T12:30:00.000Z</Time>
            <Position>
              <LatitudeDegrees>41.49646413512527942657470703125</LatitudeDegrees>
              <LongitudeDegrees>-4.5167231373488903045654296875</LongitudeDegrees>
            </Position>
            <AltitudeMeters>1326.800048828125</AltitudeMeters>
            <DistanceMeters>24359.948931478</DistanceMeters>
          </Trackpoint>
          <Trackpoint>
            <Time>2023-02-23T12:30:03.000Z</Time>
            <Position>
              <LatitudeDegrees>41.49654351174831390380859375</LatitudeDegrees>
              <LongitudeDegrees>-4.5166259072721004486083984375</LongitudeDegrees>
            </Position>
            <AltitudeMeters>1327</AltitudeMeters>
            <DistanceMeters>24371.938124813</DistanceMeters>
          </Trackpoint>
          <Trackpoint>
            <Time>2023-02-23T12:30:06.000Z</Time>
            <Position>
              <LatitudeDegrees>41.49663227610290050506591796875</LatitudeDegrees>
              <LongitudeDegrees>-4.51652021147310733795166015625</LongitudeDegrees>
            </Position>
            <AltitudeMeters>1327.199951171875</AltitudeMeters>
            <DistanceMeters>24385.176202224</DistanceMeters>
          </Trackpoint>
          <Trackpoint>
            <Time>2023-02-23T12:30:08.000Z</Time>
            <Position>
              <LatitudeDegrees>41.496690027415752410888671875</LatitudeDegrees>
              <LongitudeDegrees>-4.516452737152576446533203125</LongitudeDegrees>
            </Position>
            <AltitudeMeters>1327.199951171875</AltitudeMeters>
            <DistanceMeters>24393.717512873</DistanceMeters>
          </Trackpoint>
          <Trackpoint>
            <Time>2023-02-23T12:30:09.000Z</Time>
            <Position>
              <LatitudeDegrees>41.496714837849140167236328125</LatitudeDegrees>
              <LongitudeDegrees>-4.51641661114990711212158203125</LongitudeDegrees>
            </Position>
            <AltitudeMeters>1327.199951171875</AltitudeMeters>
            <DistanceMeters>24397.80366159</DistanceMeters>
          </Trackpoint>
          <Trackpoint>
            <Time>2023-02-23T12:30:10.000Z</Time>
            <Position>
              <LatitudeDegrees>41.49674140848219394683837890625</LatitudeDegrees>
              <LongitudeDegrees>-4.51638056896626949310302734375</LongitudeDegrees>
            </Position>
            <AltitudeMeters>1327.199951171875</AltitudeMeters>
            <DistanceMeters>24402.01925057</DistanceMeters>
          </Trackpoint>
          <Trackpoint>
            <Time>2023-02-23T12:30:16.000Z</Time>
            <Position>
              <LatitudeDegrees>41.496935784816741943359375</LatitudeDegrees>
              <LongitudeDegrees>-4.51617403887212276458740234375</LongitudeDegrees>
            </Position>
            <AltitudeMeters>1327</AltitudeMeters>
            <DistanceMeters>24429.668268845</DistanceMeters>
          </Trackpoint>
          <Trackpoint>
            <Time>2023-02-23T12:30:18.000Z</Time>
            <Position>
              <LatitudeDegrees>41.49699973873794078826904296875</LatitudeDegrees>
              <LongitudeDegrees>-4.51610597781836986541748046875</LongitudeDegrees>
            </Position>
            <AltitudeMeters>1327.199951171875</AltitudeMeters>
            <DistanceMeters>24438.771014664</DistanceMeters>
          </Trackpoint>
          <Trackpoint>
            <Time>2023-02-23T12:30:24.000Z</Time>
            <Position>
              <LatitudeDegrees>41.49719252251088619232177734375</LatitudeDegrees>
              <LongitudeDegrees>-4.51590715907514095306396484375</LongitudeDegrees>
            </Position>
            <AltitudeMeters>1327.5999755859375</AltitudeMeters>
            <DistanceMeters>24465.884452722</DistanceMeters>
          </Trackpoint>
          <Trackpoint>
            <Time>2023-02-23T12:30:26.000Z</Time>
            <Position>
              <LatitudeDegrees>41.49724918417632579803466796875</LatitudeDegrees>
              <LongitudeDegrees>-4.51583842746913433074951171875</LongitudeDegrees>
            </Position>
            <AltitudeMeters>1327.5999755859375</AltitudeMeters>
            <DistanceMeters>24474.405122567</DistanceMeters>
          </Trackpoint>
          <Trackpoint>
            <Time>2023-02-23T12:30:32.000Z</Time>
            <Position>
              <LatitudeDegrees>41.49735580198466777801513671875</LatitudeDegrees>
              <LongitudeDegrees>-4.51564078219234943389892578125</LongitudeDegrees>
            </Position>
            <AltitudeMeters>1327.800048828125</AltitudeMeters>
            <DistanceMeters>24494.710176871</DistanceMeters>
          </Trackpoint>
          <Trackpoint>
            <Time>2023-02-23T12:30:38.000Z</Time>
            <Position>
              <LatitudeDegrees>41.49746795184910297393798828125</LatitudeDegrees>
              <LongitudeDegrees>-4.5154065079987049102783203125</LongitudeDegrees>
            </Position>
            <AltitudeMeters>1328</AltitudeMeters>
            <DistanceMeters>24517.88871</DistanceMeters>
          </Trackpoint>
          <Trackpoint>
            <Time>2023-02-23T12:30:39.000Z</Time>
            <Position>
              <LatitudeDegrees>41.4974918402731418609619140625</LatitudeDegrees>
              <LongitudeDegrees>-4.5153666101396083831787109375</LongitudeDegrees>
            </Position>
            <AltitudeMeters>1328</AltitudeMeters>
            <DistanceMeters>24522.146924826</DistanceMeters>
          </Trackpoint>
          <Trackpoint>
            <Time>2023-02-23T12:30:44.000Z</Time>
            <Position>
              <LatitudeDegrees>41.49758932180702686309814453125</LatitudeDegrees>
              <LongitudeDegrees>-4.515173323452472686767578125</LongitudeDegrees>
            </Position>
            <AltitudeMeters>1327.800048828125</AltitudeMeters>
            <DistanceMeters>24541.572625959</DistanceMeters>
          </Trackpoint>
          <Trackpoint>
            <Time>2023-02-23T12:30:45.000Z</Time>
            <Position>
              <LatitudeDegrees>41.497608013451099395751953125</LatitudeDegrees>
              <LongitudeDegrees>-4.51513686217367649078369140625</LongitudeDegrees>
            </Position>
            <AltitudeMeters>1327.800048828125</AltitudeMeters>
            <DistanceMeters>24545.256673311</DistanceMeters>
          </Trackpoint>
          <Trackpoint>
            <Time>2023-02-23T12:30:47.000Z</Time>
            <Position>
              <LatitudeDegrees>41.49764187633991241455078125</LatitudeDegrees>
              <LongitudeDegrees>-4.51506746001541614532470703125</LongitudeDegrees>
            </Position>
            <AltitudeMeters>1328.199951171875</AltitudeMeters>
            <DistanceMeters>24552.161657281</DistanceMeters>
          </Trackpoint>
          <Trackpoint>
            <Time>2023-02-23T12:30:48.000Z</Time>
            <Position>
              <LatitudeDegrees>41.49765838868916034698486328125</LatitudeDegrees>
              <LongitudeDegrees>-4.51503376476466655731201171875</LongitudeDegrees>
            </Position>
            <AltitudeMeters>1328.4000244140625</AltitudeMeters>
            <DistanceMeters>24555.51867015</DistanceMeters>
          </Trackpoint>
          <Trackpoint>
            <Time>2023-02-23T12:30:49.000Z</Time>
            <Position>
              <LatitudeDegrees>41.49767632596194744110107421875</LatitudeDegrees>
              <LongitudeDegrees>-4.51500040479004383087158203125</LongitudeDegrees>
            </Position>
            <AltitudeMeters>1328.4000244140625</AltitudeMeters>
            <DistanceMeters>24558.942270481</DistanceMeters>
          </Trackpoint>
          <Trackpoint>
            <Time>2023-02-23T12:30:54.000Z</Time>
            <Position>
              <LatitudeDegrees>41.49780171923339366912841796875</LatitudeDegrees>
              <LongitudeDegrees>-4.51480619609355926513671875</LongitudeDegrees>
            </Position>
            <AltitudeMeters>1328</AltitudeMeters>
            <DistanceMeters>24580.317156393</DistanceMeters>
          </Trackpoint>
          <Trackpoint>
            <Time>2023-02-23T12:30:58.000Z</Time>
            <Position>
              <LatitudeDegrees>41.49787045083940029144287109375</LatitudeDegrees>
              <LongitudeDegrees>-4.514652974903583526611328125</LongitudeDegrees>
            </Position>
            <AltitudeMeters>1328.4000244140625</AltitudeMeters>
            <DistanceMeters>24595.205753256</DistanceMeters>
          </Trackpoint>
          <Trackpoint>
            <Time>2023-02-23T12:31:00.000Z</Time>
            <Position>
              <LatitudeDegrees>41.49789492599666118621826171875</LatitudeDegrees>
              <LongitudeDegrees>-4.51457359828054904937744140625</LongitudeDegrees>
            </Position>
            <AltitudeMeters>1328.4000244140625</AltitudeMeters>
            <DistanceMeters>24602.362469933</DistanceMeters>
          </Trackpoint>
          <Trackpoint>
            <Time>2023-02-23T12:31:02.000Z</Time>
            <Position>
              <LatitudeDegrees>41.49792510084807872772216796875</LatitudeDegrees>
              <LongitudeDegrees>-4.51449103653430938720703125</LongitudeDegrees>
            </Position>
            <AltitudeMeters>1328.800048828125</AltitudeMeters>
            <DistanceMeters>24610.020231774</DistanceMeters>
          </Trackpoint>
          <Trackpoint>
            <Time>2023-02-23T12:31:07.000Z</Time>
            <Position>
              <LatitudeDegrees>41.498011685907840728759765625</LatitudeDegrees>
              <LongitudeDegrees>-4.5143021084368228912353515625</LongitudeDegrees>
            </Position>
            <AltitudeMeters>1329</AltitudeMeters>
            <DistanceMeters>24628.48404709</DistanceMeters>
          </Trackpoint>
          <Trackpoint>
            <Time>2023-02-23T12:31:09.000Z</Time>
            <Position>
              <LatitudeDegrees>41.498061306774616241455078125</LatitudeDegrees>
              <LongitudeDegrees>-4.5142226479947566986083984375</LongitudeDegrees>
            </Position>
            <AltitudeMeters>1328.5999755859375</AltitudeMeters>
            <DistanceMeters>24637.108997509</DistanceMeters>
          </Trackpoint>
          <Trackpoint>
            <Time>2023-02-23T12:31:12.000Z</Time>
            <Position>
              <LatitudeDegrees>41.4981576986610889434814453125</LatitudeDegrees>
              <LongitudeDegrees>-4.5140875317156314849853515625</LongitudeDegrees>
            </Position>
            <AltitudeMeters>1328.5999755859375</AltitudeMeters>
            <DistanceMeters>24652.664380127</DistanceMeters>
          </Trackpoint>
          <Trackpoint>
            <Time>2023-02-23T12:31:13.000Z</Time>
            <Position>
              <LatitudeDegrees>41.4981895498931407928466796875</LatitudeDegrees>
              <LongitudeDegrees>-4.51404335908591747283935546875</LongitudeDegrees>
            </Position>
            <AltitudeMeters>1328.5999755859375</AltitudeMeters>
            <DistanceMeters>24657.776428761</DistanceMeters>
          </Trackpoint>
          <Trackpoint>
            <Time>2023-02-23T12:31:18.000Z</Time>
            <Position>
              <LatitudeDegrees>41.4983467943966388702392578125</LatitudeDegrees>
              <LongitudeDegrees>-4.5138377510011196136474609375</LongitudeDegrees>
            </Position>
            <AltitudeMeters>1328.800048828125</AltitudeMeters>
            <DistanceMeters>24682.273423682</DistanceMeters>
          </Trackpoint>
          <Trackpoint>
            <Time>2023-02-23T12:31:25.000Z</Time>
            <Position>
              <LatitudeDegrees>41.49851049296557903289794921875</LatitudeDegrees>
              <LongitudeDegrees>-4.51355385594069957733154296875</LongitudeDegrees>
            </Position>
            <AltitudeMeters>1329.199951171875</AltitudeMeters>
            <DistanceMeters>24712.140548277</DistanceMeters>
          </Trackpoint>
          <Trackpoint>
            <Time>2023-02-23T12:31:26.000Z</Time>
            <Position>
              <LatitudeDegrees>41.4985291846096515655517578125</LatitudeDegrees>
              <LongitudeDegrees>-4.513513036072254180908203125</LongitudeDegrees>
            </Position>
            <AltitudeMeters>1329.199951171875</AltitudeMeters>
            <DistanceMeters>24716.127142631</DistanceMeters>
          </Trackpoint>
          <Trackpoint>
            <Time>2023-02-23T12:31:32.000Z</Time>
            <Position>
              <LatitudeDegrees>41.49867511354386806488037109375</LatitudeDegrees>
              <LongitudeDegrees>-4.513259232044219970703125</LongitudeDegrees>
            </Position>
            <AltitudeMeters>1328.4000244140625</AltitudeMeters>
            <DistanceMeters>24742.80021206</DistanceMeters>
          </Trackpoint>
          <Trackpoint>
            <Time>2023-02-23T12:31:38.000Z</Time>
            <Position>
              <LatitudeDegrees>41.49882079102098941802978515625</LatitudeDegrees>
              <LongitudeDegrees>-4.513034261763095855712890625</LongitudeDegrees>
            </Position>
            <AltitudeMeters>1328.4000244140625</AltitudeMeters>
            <DistanceMeters>24767.591441617</DistanceMeters>
          </Trackpoint>
          <Trackpoint>
            <Time>2023-02-23T12:31:42.000Z</Time>
            <Position>
              <LatitudeDegrees>41.49890209548175334930419921875</LatitudeDegrees>
              <LongitudeDegrees>-4.512865282595157623291015625</LongitudeDegrees>
            </Position>
            <AltitudeMeters>1328.199951171875</AltitudeMeters>
            <DistanceMeters>24784.333951374</DistanceMeters>
          </Trackpoint>
          <Trackpoint>
            <Time>2023-02-23T12:31:44.000Z</Time>
            <Position>
              <LatitudeDegrees>41.49893696419894695281982421875</LatitudeDegrees>
              <LongitudeDegrees>-4.5127789489924907684326171875</LongitudeDegrees>
            </Position>
            <AltitudeMeters>1328.199951171875</AltitudeMeters>
            <DistanceMeters>24792.510667463</DistanceMeters>
          </Trackpoint>
          <Trackpoint>
            <Time>2023-02-23T12:31:49.000Z</Time>
            <Position>
              <LatitudeDegrees>41.49904727004468441009521484375</LatitudeDegrees>
              <LongitudeDegrees>-4.51252019964158535003662109375</LongitudeDegrees>
            </Position>
            <AltitudeMeters>1329.199951171875</AltitudeMeters>
            <DistanceMeters>24817.329564186</DistanceMeters>
          </Trackpoint>
          <Trackpoint>
            <Time>2023-02-23T12:31:51.000Z</Time>
            <Position>
              <LatitudeDegrees>41.49909965693950653076171875</LatitudeDegrees>
              <LongitudeDegrees>-4.51242397539317607879638671875</LongitudeDegrees>
            </Position>
            <AltitudeMeters>1329</AltitudeMeters>
            <DistanceMeters>24827.246092433</DistanceMeters>
          </Trackpoint>
          <Trackpoint>
            <Time>2023-02-23T12:31:52.000Z</Time>
            <Position>
              <LatitudeDegrees>41.49912069551646709442138671875</LatitudeDegrees>
              <LongitudeDegrees>-4.512382484972476959228515625</LongitudeDegrees>
            </Position>
            <AltitudeMeters>1329.199951171875</AltitudeMeters>
            <DistanceMeters>24831.422946236</DistanceMeters>
          </Trackpoint>
          <Trackpoint>
            <Time>2023-02-23T12:31:54.000Z</Time>
            <Position>
              <LatitudeDegrees>41.4991621859371662139892578125</LatitudeDegrees>
              <LongitudeDegrees>-4.51231417246162891387939453125</LongitudeDegrees>
            </Position>
            <AltitudeMeters>1329</AltitudeMeters>
            <DistanceMeters>24838.754181806</DistanceMeters>
          </Trackpoint>
          <Trackpoint>
            <Time>2023-02-23T12:31:56.000Z</Time>
            <Position>
              <LatitudeDegrees>41.4991997368633747100830078125</LatitudeDegrees>
              <LongitudeDegrees>-4.51225030235946178436279296875</LongitudeDegrees>
            </Position>
            <AltitudeMeters>1328.800048828125</AltitudeMeters>
            <DistanceMeters>24845.52245912</DistanceMeters>
          </Trackpoint>
          <Trackpoint>
            <Time>2023-02-23T12:32:00.000Z</Time>
            <Position>
              <LatitudeDegrees>41.49928816594183444976806640625</LatitudeDegrees>
              <LongitudeDegrees>-4.51213764958083629608154296875</LongitudeDegrees>
            </Position>
            <AltitudeMeters>1329.4000244140625</AltitudeMeters>
            <DistanceMeters>24859.125890914</DistanceMeters>
          </Trackpoint>
          <Trackpoint>
            <Time>2023-02-23T12:32:01.000Z</Time>
            <Position>
              <LatitudeDegrees>41.49931817315518856048583984375</LatitudeDegrees>
              <LongitudeDegrees>-4.512106217443943023681640625</LongitudeDegrees>
            </Position>
            <AltitudeMeters>1329.4000244140625</AltitudeMeters>
            <DistanceMeters>24863.3692354</DistanceMeters>
          </Trackpoint>
          <Trackpoint>
            <Time>2023-02-23T12:32:07.000Z</Time>
            <Position>
              <LatitudeDegrees>41.499518416821956634521484375</LatitudeDegrees>
              <LongitudeDegrees>-4.511907063424587249755859375</LongitudeDegrees>
            </Position>
            <AltitudeMeters>1329.199951171875</AltitudeMeters>
            <DistanceMeters>24891.160285007</DistanceMeters>
          </Trackpoint>
          <Trackpoint>
            <Time>2023-02-23T12:32:08.000Z</Time>
            <Position>
              <LatitudeDegrees>41.49954624474048614501953125</LatitudeDegrees>
              <LongitudeDegrees>-4.511880576610565185546875</LongitudeDegrees>
            </Position>
            <AltitudeMeters>1329.5999755859375</AltitudeMeters>
            <DistanceMeters>24894.964915415</DistanceMeters>
          </Trackpoint>
          <Trackpoint>
            <Time>2023-02-23T12:32:12.000Z</Time>
            <Position>
              <LatitudeDegrees>41.49966820143163204193115234375</LatitudeDegrees>
              <LongitudeDegrees>-4.51177102513611316680908203125</LongitudeDegrees>
            </Position>
            <AltitudeMeters>1329.800048828125</AltitudeMeters>
            <DistanceMeters>24911.324972438</DistanceMeters>
          </Trackpoint>
          <Trackpoint>
            <Time>2023-02-23T12:32:14.000Z</Time>
            <Position>
              <LatitudeDegrees>41.499722935259342193603515625</LatitudeDegrees>
              <LongitudeDegrees>-4.51171905733644962310791015625</LongitudeDegrees>
            </Position>
            <AltitudeMeters>1329.5999755859375</AltitudeMeters>
            <DistanceMeters>24918.80013886</DistanceMeters>
          </Trackpoint>
          <Trackpoint>
            <Time>2023-02-23T12:32:19.000Z</Time>
            <Position>
              <LatitudeDegrees>41.49992049671709537506103515625</LatitudeDegrees>
              <LongitudeDegrees>-4.511577151715755462646484375</LongitudeDegrees>
            </Position>
            <AltitudeMeters>1330</AltitudeMeters>
            <DistanceMeters>24943.769210486</DistanceMeters>
          </Trackpoint>
          <Trackpoint>
            <Time>2023-02-23T12:32:24.000Z</Time>
            <Position>
              <LatitudeDegrees>41.50007489137351512908935546875</LatitudeDegrees>
              <LongitudeDegrees>-4.5114354975521564483642578125</LongitudeDegrees>
            </Position>
            <AltitudeMeters>1330</AltitudeMeters>
            <DistanceMeters>24964.619726074</DistanceMeters>
          </Trackpoint>
          <Trackpoint>
            <Time>2023-02-23T12:32:27.000Z</Time>
            <Position>
              <LatitudeDegrees>41.5001730434596538543701171875</LatitudeDegrees>
              <LongitudeDegrees>-4.5113372616469860076904296875</LongitudeDegrees>
            </Position>
            <AltitudeMeters>1329.800048828125</AltitudeMeters>
            <DistanceMeters>24978.273183443</DistanceMeters>
          </Trackpoint>
          <Trackpoint>
            <Time>2023-02-23T12:32:29.000Z</Time>
            <Position>
              <LatitudeDegrees>41.50024873204529285430908203125</LatitudeDegrees>
              <LongitudeDegrees>-4.51127146370708942413330078125</LongitudeDegrees>
            </Position>
            <AltitudeMeters>1329.5999755859375</AltitudeMeters>
            <DistanceMeters>24988.325824165</DistanceMeters>
          </Trackpoint>
          <Trackpoint>
            <Time>2023-02-23T12:32:32.000Z</Time>
            <Position>
              <LatitudeDegrees>41.50038820691406726837158203125</LatitudeDegrees>
              <LongitudeDegrees>-4.5111488364636898040771484375</LongitudeDegrees>
            </Position>
            <AltitudeMeters>1329.5999755859375</AltitudeMeters>
            <DistanceMeters>25006.912719134</DistanceMeters>
          </Trackpoint>
          <Trackpoint>
            <Time>2023-02-23T12:32:33.000Z</Time>
            <Position>
              <LatitudeDegrees>41.5004342235624790191650390625</LatitudeDegrees>
              <LongitudeDegrees>-4.5111025683581829071044921875</LongitudeDegrees>
            </Position>
            <AltitudeMeters>1329.5999755859375</AltitudeMeters>
            <DistanceMeters>25013.324030074</DistanceMeters>
          </Trackpoint>
          <Trackpoint>
            <Time>2023-02-23T12:32:34.000Z</Time>
            <Position>
              <LatitudeDegrees>41.50046984665095806121826171875</LatitudeDegrees>
              <LongitudeDegrees>-4.5110583119094371795654296875</LongitudeDegrees>
            </Position>
            <AltitudeMeters>1329.5999755859375</AltitudeMeters>
            <DistanceMeters>25018.739719161</DistanceMeters>
          </Trackpoint>
          <Trackpoint>
            <Time>2023-02-23T12:32:36.000Z</Time>
            <Position>
              <LatitudeDegrees>41.50052650831639766693115234375</LatitudeDegrees>
              <LongitudeDegrees>-4.51096854172646999359130859375</LongitudeDegrees>
            </Position>
            <AltitudeMeters>1329.5999755859375</AltitudeMeters>
            <DistanceMeters>25028.526086759</DistanceMeters>
          </Trackpoint>
          <Trackpoint>
            <Time>2023-02-23T12:32:41.000Z</Time>
            <Position>
              <LatitudeDegrees>41.50066682137548923492431640625</LatitudeDegrees>
              <LongitudeDegrees>-4.51075094752013683319091796875</LongitudeDegrees>
            </Position>
            <AltitudeMeters>1330.199951171875</AltitudeMeters>
            <DistanceMeters>25052.461126132</DistanceMeters>
          </Trackpoint>
          <Trackpoint>
            <Time>2023-02-23T12:32:42.000Z</Time>
            <Position>
              <LatitudeDegrees>41.5006990917026996612548828125</LatitudeDegrees>
              <LongitudeDegrees>-4.51070685870945453643798828125</LongitudeDegrees>
            </Position>
            <AltitudeMeters>1330.4000244140625</AltitudeMeters>
            <DistanceMeters>25057.599602902</DistanceMeters>
          </Trackpoint>
          <Trackpoint>
            <Time>2023-02-23T12:32:44.000Z</Time>
            <Position>
              <LatitudeDegrees>41.50076396763324737548828125</LatitudeDegrees>
              <LongitudeDegrees>-4.51062371022999286651611328125</LongitudeDegrees>
            </Position>
            <AltitudeMeters>1330.199951171875</AltitudeMeters>
            <DistanceMeters>25067.608582274</DistanceMeters>
          </Trackpoint>
          <Trackpoint>
            <Time>2023-02-23T12:32:48.000Z</Time>
            <Position>
              <LatitudeDegrees>41.500857174396514892578125</LatitudeDegrees>
              <LongitudeDegrees>-4.5104521326720714569091796875</LongitudeDegrees>
            </Position>
            <AltitudeMeters>1330.199951171875</AltitudeMeters>
            <DistanceMeters>25085.277163789</DistanceMeters>
          </Trackpoint>
          <Trackpoint>
            <Time>2023-02-23T12:32:50.000Z</Time>
            <Position>
              <LatitudeDegrees>41.50089732371270656585693359375</LatitudeDegrees>
              <LongitudeDegrees>-4.51035615988075733184814453125</LongitudeDegrees>
            </Position>
            <AltitudeMeters>1330.199951171875</AltitudeMeters>
            <DistanceMeters>25094.441208253</DistanceMeters>
          </Trackpoint>
          <Trackpoint>
            <Time>2023-02-23T12:32:54.000Z</Time>
            <Position>
              <LatitudeDegrees>41.50099857710301876068115234375</LatitudeDegrees>
              <LongitudeDegrees>-4.510170333087444305419921875</LongitudeDegrees>
            </Position>
            <AltitudeMeters>1330.199951171875</AltitudeMeters>
            <DistanceMeters>25113.597283437</DistanceMeters>
          </Trackpoint>
          <Trackpoint>
            <Time>2023-02-23T12:33:00.000Z</Time>
            <Position>
              <LatitudeDegrees>41.501156575977802276611328125</LatitudeDegrees>
              <LongitudeDegrees>-4.5098848454654216766357421875</LongitudeDegrees>
            </Position>
            <AltitudeMeters>1330.800048828125</AltitudeMeters>
            <DistanceMeters>25143.187692902</DistanceMeters>
          </Trackpoint>
          <Trackpoint>
            <Time>2023-02-23T12:33:01.000Z</Time>
            <Position>
              <LatitudeDegrees>41.5011698193848133087158203125</LatitudeDegrees>
              <LongitudeDegrees>-4.509830363094806671142578125</LongitudeDegrees>
            </Position>
            <AltitudeMeters>1330.800048828125</AltitudeMeters>
            <DistanceMeters>25147.961780557</DistanceMeters>
          </Trackpoint>
          <Trackpoint>
            <Time>2023-02-23T12:33:04.000Z</Time>
            <Position>
              <LatitudeDegrees>41.5012442506849765777587890625</LatitudeDegrees>
              <LongitudeDegrees>-4.50970605947077274322509765625</LongitudeDegrees>
            </Position>
            <AltitudeMeters>1330.4000244140625</AltitudeMeters>
            <DistanceMeters>25161.228136119</DistanceMeters>
          </Trackpoint>
          <Trackpoint>
            <Time>2023-02-23T12:33:05.000Z</Time>
            <Position>
              <LatitudeDegrees>41.5012734197080135345458984375</LatitudeDegrees>
              <LongitudeDegrees>-4.50966632924973964691162109375</LongitudeDegrees>
            </Position>
            <AltitudeMeters>1330.199951171875</AltitudeMeters>
            <DistanceMeters>25165.865984984</DistanceMeters>
          </Trackpoint>
          <Trackpoint>
            <Time>2023-02-23T12:33:10.000Z</Time>
            <Position>
              <LatitudeDegrees>41.50138582102954387664794921875</LatitudeDegrees>
              <LongitudeDegrees>-4.509446136653423309326171875</LongitudeDegrees>
            </Position>
            <AltitudeMeters>1330</AltitudeMeters>
            <DistanceMeters>25188.079076553</DistanceMeters>
          </Trackpoint>
          <Trackpoint>
            <Time>2023-02-23T12:33:13.000Z</Time>
            <Position>
              <LatitudeDegrees>41.50146310217678546905517578125</LatitudeDegrees>
              <LongitudeDegrees>-4.50931328348815441131591796875</LongitudeDegrees>
            </Position>
            <AltitudeMeters>1330</AltitudeMeters>
            <DistanceMeters>25202.101233466</DistanceMeters>
          </Trackpoint>
          <Trackpoint>
            <Time>2023-02-23T12:33:15.000Z</Time>
            <Position>
              <LatitudeDegrees>41.50152160786092281341552734375</LatitudeDegrees>
              <LongitudeDegrees>-4.5092310570180416107177734375</LongitudeDegrees>
            </Position>
            <AltitudeMeters>1330</AltitudeMeters>
            <DistanceMeters>25211.555317062</DistanceMeters>
          </Trackpoint>
          <Trackpoint>
            <Time>2023-02-23T12:33:17.000Z</Time>
            <Position>
              <LatitudeDegrees>41.50155832059681415557861328125</LatitudeDegrees>
              <LongitudeDegrees>-4.50913122855126857757568359375</LongitudeDegrees>
            </Position>
            <AltitudeMeters>1330</AltitudeMeters>
            <DistanceMeters>25220.826632916</DistanceMeters>
          </Trackpoint>
          <Trackpoint>
            <Time>2023-02-23T12:33:19.000Z</Time>
            <Position>
              <LatitudeDegrees>41.50159218348562717437744140625</LatitudeDegrees>
              <LongitudeDegrees>-4.50903852470219135284423828125</LongitudeDegrees>
            </Position>
            <AltitudeMeters>1330</AltitudeMeters>
            <DistanceMeters>25229.424318987</DistanceMeters>
          </Trackpoint>
          <Trackpoint>
            <Time>2023-02-23T12:33:23.000Z</Time>
            <Position>
              <LatitudeDegrees>41.5016687102615833282470703125</LatitudeDegrees>
              <LongitudeDegrees>-4.50885496102273464202880859375</LongitudeDegrees>
            </Position>
            <AltitudeMeters>1330.4000244140625</AltitudeMeters>
            <DistanceMeters>25246.936584865</DistanceMeters>
          </Trackpoint>
          <Trackpoint>
            <Time>2023-02-23T12:33:30.000Z</Time>
            <Position>
              <LatitudeDegrees>41.50183978490531444549560546875</LatitudeDegrees>
              <LongitudeDegrees>-4.50856042094528675079345703125</LongitudeDegrees>
            </Position>
            <AltitudeMeters>1330.199951171875</AltitudeMeters>
            <DistanceMeters>25278.006978366</DistanceMeters>
          </Trackpoint>
          <Trackpoint>
            <Time>2023-02-23T12:33:32.000Z</Time>
            <Position>
              <LatitudeDegrees>41.50189946405589580535888671875</LatitudeDegrees>
              <LongitudeDegrees>-4.50847148895263671875</LongitudeDegrees>
            </Position>
            <AltitudeMeters>1330.4000244140625</AltitudeMeters>
            <DistanceMeters>25287.96077155</DistanceMeters>
          </Trackpoint>
          <Trackpoint>
            <Time>2023-02-23T12:33:37.000Z</Time>
            <Position>
              <LatitudeDegrees>41.5019872225821018218994140625</LatitudeDegrees>
              <LongitudeDegrees>-4.5082208700478076934814453125</LongitudeDegrees>
            </Position>
            <AltitudeMeters>1330.5999755859375</AltitudeMeters>
            <DistanceMeters>25311.022327921</DistanceMeters>
          </Trackpoint>
          <Trackpoint>
            <Time>2023-02-23T12:33:38.000Z</Time>
            <Position>
              <LatitudeDegrees>41.50200591422617435455322265625</LatitudeDegrees>
              <LongitudeDegrees>-4.50816814787685871124267578125</LongitudeDegrees>
            </Position>
            <AltitudeMeters>1330.5999755859375</AltitudeMeters>
            <DistanceMeters>25315.884502345</DistanceMeters>
          </Trackpoint>
          <Trackpoint>
            <Time>2023-02-23T12:33:40.000Z</Time>
            <Position>
              <LatitudeDegrees>41.50204396806657314300537109375</LatitudeDegrees>
              <LongitudeDegrees>-4.50806773267686367034912109375</LongitudeDegrees>
            </Position>
            <AltitudeMeters>1330.5999755859375</AltitudeMeters>
            <DistanceMeters>25325.265713622</DistanceMeters>
          </Trackpoint>
          <Trackpoint>
            <Time>2023-02-23T12:33:43.000Z</Time>
            <Position>
              <LatitudeDegrees>41.50208218954503536224365234375</LatitudeDegrees>
              <LongitudeDegrees>-4.50791484676301479339599609375</LongitudeDegrees>
            </Position>
            <AltitudeMeters>1330.4000244140625</AltitudeMeters>
            <DistanceMeters>25338.701160325</DistanceMeters>
          </Trackpoint>
          <Trackpoint>
            <Time>2023-02-23T12:33:49.000Z</Time>
            <Position>
              <LatitudeDegrees>41.502182185649871826171875</LatitudeDegrees>
              <LongitudeDegrees>-4.507572613656520843505859375</LongitudeDegrees>
            </Position>
            <AltitudeMeters>1330.4000244140625</AltitudeMeters>
            <DistanceMeters>25369.323067485</DistanceMeters>
          </Trackpoint>
          <Trackpoint>
            <Time>2023-02-23T12:33:50.000Z</Time>
            <Position>
              <LatitudeDegrees>41.5021987818181514739990234375</LatitudeDegrees>
              <LongitudeDegrees>-4.507515616714954376220703125</LongitudeDegrees>
            </Position>
            <AltitudeMeters>1330.5999755859375</AltitudeMeters>
            <DistanceMeters>25374.420965091</DistanceMeters>
          </Trackpoint>
          <Trackpoint>
            <Time>2023-02-23T12:33:51.000Z</Time>
            <Position>
              <LatitudeDegrees>41.502212695777416229248046875</LatitudeDegrees>
              <LongitudeDegrees>-4.50746172107756137847900390625</LongitudeDegrees>
            </Position>
            <AltitudeMeters>1330.5999755859375</AltitudeMeters>
            <DistanceMeters>25379.172300809</DistanceMeters>
          </Trackpoint>
          <Trackpoint>
            <Time>2023-02-23T12:33:53.000Z</Time>
            <Position>
              <LatitudeDegrees>41.5022467263042926788330078125</LatitudeDegrees>
              <LongitudeDegrees>-4.507359378039836883544921875</LongitudeDegrees>
            </Position>
            <AltitudeMeters>1330.4000244140625</AltitudeMeters>
            <DistanceMeters>25388.506226968</DistanceMeters>
          </Trackpoint>
          <Trackpoint>
            <Time>2023-02-23T12:33:54.000Z</Time>
            <Position>
              <LatitudeDegrees>41.5022644959390163421630859375</LatitudeDegrees>
              <LongitudeDegrees>-4.50730715878307819366455078125</LongitudeDegrees>
            </Position>
            <AltitudeMeters>1330.4000244140625</AltitudeMeters>
            <DistanceMeters>25393.285985686</DistanceMeters>
          </Trackpoint>
          <Trackpoint>
            <Time>2023-02-23T12:33:55.000Z</Time>
            <Position>
              <LatitudeDegrees>41.50228075683116912841796875</LatitudeDegrees>
              <LongitudeDegrees>-4.50725854374468326568603515625</LongitudeDegrees>
            </Position>
            <AltitudeMeters>1330.4000244140625</AltitudeMeters>
            <DistanceMeters>25397.722827654</DistanceMeters>
          </Trackpoint>
          <Trackpoint>
            <Time>2023-02-23T12:33:58.000Z</Time>
            <Position>
              <LatitudeDegrees>41.50233683176338672637939453125</LatitudeDegrees>
              <LongitudeDegrees>-4.50711437501013278961181640625</LongitudeDegrees>
            </Position>
            <AltitudeMeters>1330.4000244140625</AltitudeMeters>
            <DistanceMeters>25411.26438452</DistanceMeters>
          </Trackpoint>
          <Trackpoint>
            <Time>2023-02-23T12:34:02.000Z</Time>
            <Position>
              <LatitudeDegrees>41.50239408016204833984375</LatitudeDegrees>
              <LongitudeDegrees>-4.5069199986755847930908203125</LongitudeDegrees>
            </Position>
            <AltitudeMeters>1330.5999755859375</AltitudeMeters>
            <DistanceMeters>25428.674772398</DistanceMeters>
          </Trackpoint>
          <Trackpoint>
            <Time>2023-02-23T12:34:03.000Z</Time>
            <Position>
              <LatitudeDegrees>41.50240413844585418701171875</LatitudeDegrees>
              <LongitudeDegrees>-4.50686819851398468017578125</LongitudeDegrees>
            </Position>
            <AltitudeMeters>1330.5999755859375</AltitudeMeters>
            <DistanceMeters>25433.135970497</DistanceMeters>
          </Trackpoint>
          <Trackpoint>
            <Time>2023-02-23T12:34:07.000Z</Time>
            <Position>
              <LatitudeDegrees>41.50246448814868927001953125</LatitudeDegrees>
              <LongitudeDegrees>-4.506661333143711090087890625</LongitudeDegrees>
            </Position>
            <AltitudeMeters>1330.5999755859375</AltitudeMeters>
            <DistanceMeters>25451.642041912</DistanceMeters>
          </Trackpoint>
          <Trackpoint>
            <Time>2023-02-23T12:34:09.000Z</Time>
            <Position>
              <LatitudeDegrees>41.50247949175536632537841796875</LatitudeDegrees>
              <LongitudeDegrees>-4.50657726265490055084228515625</LongitudeDegrees>
            </Position>
            <AltitudeMeters>1330.4000244140625</AltitudeMeters>
            <DistanceMeters>25458.845919293</DistanceMeters>
          </Trackpoint>
          <Trackpoint>
            <Time>2023-02-23T12:34:15.000Z</Time>
            <Position>
              <LatitudeDegrees>41.50251737795770168304443359375</LatitudeDegrees>
              <LongitudeDegrees>-4.5064048469066619873046875</LongitudeDegrees>
            </Position>
            <AltitudeMeters>1331.4000244140625</AltitudeMeters>
            <DistanceMeters>25473.823407702</DistanceMeters>
          </Trackpoint>
          <Trackpoint>
            <Time>2023-02-23T12:34:16.000Z</Time>
            <Position>
              <LatitudeDegrees>41.50252081453800201416015625</LatitudeDegrees>
              <LongitudeDegrees>-4.50639436952769756317138671875</LongitudeDegrees>
            </Position>
            <AltitudeMeters>1331.5999755859375</AltitudeMeters>
            <DistanceMeters>25474.773674845</DistanceMeters>
          </Trackpoint>
          <Trackpoint>
            <Time>2023-02-23T12:34:21.000Z</Time>
            <Position>
              <LatitudeDegrees>41.502536572515964508056640625</LatitudeDegrees>
              <LongitudeDegrees>-4.50639235787093639373779296875</LongitudeDegrees>
            </Position>
            <AltitudeMeters>1331.800048828125</AltitudeMeters>
            <DistanceMeters>25476.531026872</DistanceMeters>
          </Trackpoint>
          <Trackpoint>
            <Time>2023-02-23T12:34:23.000Z</Time>
            <Position>
              <LatitudeDegrees>41.50253296829760074615478515625</LatitudeDegrees>
              <LongitudeDegrees>-4.50640426017343997955322265625</LongitudeDegrees>
            </Position>
            <AltitudeMeters>1331.800048828125</AltitudeMeters>
            <DistanceMeters>25477.601923556</DistanceMeters>
          </Trackpoint>
          <Trackpoint>
            <Time>2023-02-23T12:34:24.000Z</Time>
            <Position>
              <LatitudeDegrees>41.502531208097934722900390625</LatitudeDegrees>
              <LongitudeDegrees>-4.5064053498208522796630859375</LongitudeDegrees>
            </Position>
            <AltitudeMeters>1331.800048828125</AltitudeMeters>
            <DistanceMeters>25477.834690518</DistanceMeters>
          </Trackpoint>
          <Trackpoint>
            <Time>2023-02-23T12:34:25.000Z</Time>
            <Position>
              <LatitudeDegrees>41.502525173127651214599609375</LatitudeDegrees>
              <LongitudeDegrees>-4.50640593655407428741455078125</LongitudeDegrees>
            </Position>
            <AltitudeMeters>1331.800048828125</AltitudeMeters>
            <DistanceMeters>25478.506630859</DistanceMeters>
          </Trackpoint>
          <Trackpoint>
            <Time>2023-02-23T12:34:26.000Z</Time>
            <Position>
              <LatitudeDegrees>41.50252240709960460662841796875</LatitudeDegrees>
              <LongitudeDegrees>-4.5064050145447254180908203125</LongitudeDegrees>
            </Position>
            <AltitudeMeters>1332</AltitudeMeters>
            <DistanceMeters>25478.835813054</DistanceMeters>
          </Trackpoint>
          <Trackpoint>
            <Time>2023-02-23T12:34:27.000Z</Time>
            <Position>
              <LatitudeDegrees>41.5025226585566997528076171875</LatitudeDegrees>
              <LongitudeDegrees>-4.50640778057277202606201171875</LongitudeDegrees>
            </Position>
            <AltitudeMeters>1331.800048828125</AltitudeMeters>
            <DistanceMeters>25479.068580016</DistanceMeters>
          </Trackpoint>
          <Trackpoint>
            <Time>2023-02-23T12:34:29.000Z</Time>
            <Position>
              <LatitudeDegrees>41.50253280065953731536865234375</LatitudeDegrees>
              <LongitudeDegrees>-4.50640845112502574920654296875</LongitudeDegrees>
            </Position>
            <AltitudeMeters>1332</AltitudeMeters>
            <DistanceMeters>25480.200954007</DistanceMeters>
          </Trackpoint>
          <Trackpoint>
            <Time>2023-02-23T12:34:32.000Z</Time>
            <Position>
              <LatitudeDegrees>41.5025494806468486785888671875</LatitudeDegrees>
              <LongitudeDegrees>-4.50642161071300506591796875</LongitudeDegrees>
            </Position>
            <AltitudeMeters>1331.800048828125</AltitudeMeters>
            <DistanceMeters>25482.355358633</DistanceMeters>
          </Trackpoint>
          <Trackpoint>
            <Time>2023-02-23T12:34:39.000Z</Time>
            <Position>
              <LatitudeDegrees>41.50254922918975353240966796875</LatitudeDegrees>
              <LongitudeDegrees>-4.5064558088779449462890625</LongitudeDegrees>
            </Position>
            <AltitudeMeters>1331.5999755859375</AltitudeMeters>
            <DistanceMeters>25485.206160064</DistanceMeters>
          </Trackpoint>
          <Trackpoint>
            <Time>2023-02-23T12:34:43.000Z</Time>
            <Position>
              <LatitudeDegrees>41.5025561861693859100341796875</LatitudeDegrees>
              <LongitudeDegrees>-4.50644734315574169158935546875</LongitudeDegrees>
            </Position>
            <AltitudeMeters>1331.5999755859375</AltitudeMeters>
            <DistanceMeters>25486.25576443</DistanceMeters>
          </Trackpoint>
          <Trackpoint>
            <Time>2023-02-23T12:34:46.000Z</Time>
            <Position>
              <LatitudeDegrees>41.50256616063416004180908203125</LatitudeDegrees>
              <LongitudeDegrees>-4.50645002536475658416748046875</LongitudeDegrees>
            </Position>
            <AltitudeMeters>1331.5999755859375</AltitudeMeters>
            <DistanceMeters>25487.392118658</DistanceMeters>
          </Trackpoint>
          <Trackpoint>
            <Time>2023-02-23T12:34:50.000Z</Time>
            <Position>
              <LatitudeDegrees>41.50255861692130565643310546875</LatitudeDegrees>
              <LongitudeDegrees>-4.50648330152034759521484375</LongitudeDegrees>
            </Position>
            <AltitudeMeters>1331.5999755859375</AltitudeMeters>
            <DistanceMeters>25490.290043967</DistanceMeters>
          </Trackpoint>
          <Trackpoint>
            <Time>2023-02-23T12:34:54.000Z</Time>
            <Position>
              <LatitudeDegrees>41.5025501511991024017333984375</LatitudeDegrees>
              <LongitudeDegrees>-4.50651909224689006805419921875</LongitudeDegrees>
            </Position>
            <AltitudeMeters>1331.4000244140625</AltitudeMeters>
            <DistanceMeters>25493.418718265</DistanceMeters>
          </Trackpoint>
          <Trackpoint>
            <Time>2023-02-23T12:35:00.000Z</Time>
            <Position>
              <LatitudeDegrees>41.5025377459824085235595703125</LatitudeDegrees>
              <LongitudeDegrees>-4.50659058988094329833984375</LongitudeDegrees>
            </Position>
            <AltitudeMeters>1331.199951171875</AltitudeMeters>
            <DistanceMeters>25499.53669725</DistanceMeters>
          </Trackpoint>
          <Trackpoint>
            <Time>2023-02-23T12:35:03.000Z</Time>
            <Position>
              <LatitudeDegrees>41.502531878650188446044921875</LatitudeDegrees>
              <LongitudeDegrees>-4.506594948470592498779296875</LongitudeDegrees>
            </Position>
            <AltitudeMeters>1331.5999755859375</AltitudeMeters>
            <DistanceMeters>25500.284938347</DistanceMeters>
          </Trackpoint>
          <Trackpoint>
            <Time>2023-02-23T12:35:06.000Z</Time>
            <Position>
              <LatitudeDegrees>41.50253447704017162322998046875</LatitudeDegrees>
              <LongitudeDegrees>-4.50656016357243061065673828125</LongitudeDegrees>
            </Position>
            <AltitudeMeters>1331.5999755859375</AltitudeMeters>
            <DistanceMeters>25503.199951543</DistanceMeters>
          </Trackpoint>
          <Trackpoint>
            <Time>2023-02-23T12:35:10.000Z</Time>
            <Position>
              <LatitudeDegrees>41.50252073071897029876708984375</LatitudeDegrees>
              <LongitudeDegrees>-4.50652797706425189971923828125</LongitudeDegrees>
            </Position>
            <AltitudeMeters>1331.4000244140625</AltitudeMeters>
            <DistanceMeters>25506.290877113</DistanceMeters>
          </Trackpoint>
          <Trackpoint>
            <Time>2023-02-23T12:35:11.000Z</Time>
            <Position>
              <LatitudeDegrees>41.5025236643850803375244140625</LatitudeDegrees>
              <LongitudeDegrees>-4.50652009807527065277099609375</LongitudeDegrees>
            </Position>
            <AltitudeMeters>1331.199951171875</AltitudeMeters>
            <DistanceMeters>25507.026950878</DistanceMeters>
          </Trackpoint>
          <Trackpoint>
            <Time>2023-02-23T12:35:12.000Z</Time>
            <Position>
              <LatitudeDegrees>41.5025263465940952301025390625</LatitudeDegrees>
              <LongitudeDegrees>-4.50651775114238262176513671875</LongitudeDegrees>
            </Position>
            <AltitudeMeters>1331.199951171875</AltitudeMeters>
            <DistanceMeters>25507.382508285</DistanceMeters>
          </Trackpoint>
          <Trackpoint>
            <Time>2023-02-23T12:35:17.000Z</Time>
            <Position>
              <LatitudeDegrees>41.5025152824819087982177734375</LatitudeDegrees>
              <LongitudeDegrees>-4.50650936923921108245849609375</LongitudeDegrees>
            </Position>
            <AltitudeMeters>1330.5999755859375</AltitudeMeters>
            <DistanceMeters>25508.798374441</DistanceMeters>
          </Trackpoint>
          <Trackpoint>
            <Time>2023-02-23T12:35:22.000Z</Time>
            <Position>
              <LatitudeDegrees>41.50246809236705303192138671875</LatitudeDegrees>
              <LongitudeDegrees>-4.50651808641850948333740234375</LongitudeDegrees>
            </Position>
            <AltitudeMeters>1330.5999755859375</AltitudeMeters>
            <DistanceMeters>25514.100320119</DistanceMeters>
          </Trackpoint>
          <Trackpoint>
            <Time>2023-02-23T12:35:24.000Z</Time>
            <Position>
              <LatitudeDegrees>41.5024133585393428802490234375</LatitudeDegrees>
              <LongitudeDegrees>-4.5065538771450519561767578125</LongitudeDegrees>
            </Position>
            <AltitudeMeters>1330.5999755859375</AltitudeMeters>
            <DistanceMeters>25520.882591818</DistanceMeters>
          </Trackpoint>
          <Trackpoint>
            <Time>2023-02-23T12:35:31.000Z</Time>
            <Position>
              <LatitudeDegrees>41.50233699940145015716552734375</LatitudeDegrees>
              <LongitudeDegrees>-4.50658028014004230499267578125</LongitudeDegrees>
            </Position>
            <AltitudeMeters>1330.800048828125</AltitudeMeters>
            <DistanceMeters>25529.661126569</DistanceMeters>
          </Trackpoint>
          <Trackpoint>
            <Time>2023-02-23T12:35:34.000Z</Time>
            <Position>
              <LatitudeDegrees>41.50235309265553951263427734375</LatitudeDegrees>
              <LongitudeDegrees>-4.50650568120181560516357421875</LongitudeDegrees>
            </Position>
            <AltitudeMeters>1330.5999755859375</AltitudeMeters>
            <DistanceMeters>25536.132717915</DistanceMeters>
          </Trackpoint>
          <Trackpoint>
            <Time>2023-02-23T12:35:38.000Z</Time>
            <Position>
              <LatitudeDegrees>41.5024086646735668182373046875</LatitudeDegrees>
              <LongitudeDegrees>-4.5064264722168445587158203125</LongitudeDegrees>
            </Position>
            <AltitudeMeters>1330.5999755859375</AltitudeMeters>
            <DistanceMeters>25545.180738308</DistanceMeters>
          </Trackpoint>
          <Trackpoint>
            <Time>2023-02-23T12:35:45.000Z</Time>
            <Position>
              <LatitudeDegrees>41.50249206461012363433837890625</LatitudeDegrees>
              <LongitudeDegrees>-4.506371654570102691650390625</LongitudeDegrees>
            </Position>
            <AltitudeMeters>1330.199951171875</AltitudeMeters>
            <DistanceMeters>25555.527310506</DistanceMeters>
          </Trackpoint>
          <Trackpoint>
            <Time>2023-02-23T12:35:47.000Z</Time>
            <Position>
              <LatitudeDegrees>41.50251586921513080596923828125</LatitudeDegrees>
              <LongitudeDegrees>-4.5063543878495693206787109375</LongitudeDegrees>
            </Position>
            <AltitudeMeters>1330.199951171875</AltitudeMeters>
            <DistanceMeters>25558.544315156</DistanceMeters>
          </Trackpoint>
          <Trackpoint>
            <Time>2023-02-23T12:35:52.000Z</Time>
            <Position>
              <LatitudeDegrees>41.5025035478174686431884765625</LatitudeDegrees>
              <LongitudeDegrees>-4.5063684694468975067138671875</LongitudeDegrees>
            </Position>
            <AltitudeMeters>1330.4000244140625</AltitudeMeters>
            <DistanceMeters>25560.349822729</DistanceMeters>
          </Trackpoint>
          <Trackpoint>
            <Time>2023-02-23T12:35:56.000Z</Time>
            <Position>
              <LatitudeDegrees>41.5024998597800731658935546875</LatitudeDegrees>
              <LongitudeDegrees>-4.5063557289540767669677734375</LongitudeDegrees>
            </Position>
            <AltitudeMeters>1330.199951171875</AltitudeMeters>
            <DistanceMeters>25561.490143301</DistanceMeters>
          </Trackpoint>
          <Trackpoint>
            <Time>2023-02-23T12:36:00.000Z</Time>
            <Position>
              <LatitudeDegrees>41.5024321340024471282958984375</LatitudeDegrees>
              <LongitudeDegrees>-4.50640794821083545684814453125</LongitudeDegrees>
            </Position>
            <AltitudeMeters>1330</AltitudeMeters>
            <DistanceMeters>25570.194299858</DistanceMeters>
          </Trackpoint>
          <Trackpoint>
            <Time>2023-02-23T12:36:03.000Z</Time>
            <Position>
              <LatitudeDegrees>41.50242626667022705078125</LatitudeDegrees>
              <LongitudeDegrees>-4.50638967566192150115966796875</LongitudeDegrees>
            </Position>
            <AltitudeMeters>1329.5999755859375</AltitudeMeters>
            <DistanceMeters>25571.851147237</DistanceMeters>
          </Trackpoint>
          <Trackpoint>
            <Time>2023-02-23T12:36:05.000Z</Time>
            <Position>
              <LatitudeDegrees>41.50241981260478496551513671875</LatitudeDegrees>
              <LongitudeDegrees>-4.50640157796442508697509765625</LongitudeDegrees>
            </Position>
            <AltitudeMeters>1329.5999755859375</AltitudeMeters>
            <DistanceMeters>25573.075480807</DistanceMeters>
          </Trackpoint>
          <Trackpoint>
            <Time>2023-02-23T12:36:09.000Z</Time>
            <Position>
              <LatitudeDegrees>41.50244244374334812164306640625</LatitudeDegrees>
              <LongitudeDegrees>-4.506462514400482177734375</LongitudeDegrees>
            </Position>
            <AltitudeMeters>1330.5999755859375</AltitudeMeters>
            <DistanceMeters>25578.745319618</DistanceMeters>
          </Trackpoint>
          <Trackpoint>
            <Time>2023-02-23T12:36:13.000Z</Time>
            <Position>
              <LatitudeDegrees>41.50249692611396312713623046875</LatitudeDegrees>
              <LongitudeDegrees>-4.50648405589163303375244140625</LongitudeDegrees>
            </Position>
            <AltitudeMeters>1330.800048828125</AltitudeMeters>
            <DistanceMeters>25585.069417069</DistanceMeters>
          </Trackpoint>
          <Trackpoint>
            <Time>2023-02-23T12:36:19.000Z</Time>
            <Position>
              <LatitudeDegrees>41.50256800465285778045654296875</LatitudeDegrees>
              <LongitudeDegrees>-4.5064482651650905609130859375</LongitudeDegrees>
            </Position>
            <AltitudeMeters>1330.5999755859375</AltitudeMeters>
            <DistanceMeters>25593.524124937</DistanceMeters>
          </Trackpoint>
          <Trackpoint>
            <Time>2023-02-23T12:36:26.000Z</Time>
            <Position>
              <LatitudeDegrees>41.50254537351429462432861328125</LatitudeDegrees>
              <LongitudeDegrees>-4.50641381554305553436279296875</LongitudeDegrees>
            </Position>
            <AltitudeMeters>1330.800048828125</AltitudeMeters>
            <DistanceMeters>25597.342969455</DistanceMeters>
          </Trackpoint>
          <Trackpoint>
            <Time>2023-02-23T12:36:30.000Z</Time>
            <Position>
              <LatitudeDegrees>41.5025402605533599853515625</LatitudeDegrees>
              <LongitudeDegrees>-4.50638665817677974700927734375</LongitudeDegrees>
            </Position>
            <AltitudeMeters>1330.4000244140625</AltitudeMeters>
            <DistanceMeters>25599.678385087</DistanceMeters>
          </Trackpoint>
          <Trackpoint>
            <Time>2023-02-23T12:36:34.000Z</Time>
            <Position>
              <LatitudeDegrees>41.50251410901546478271484375</LatitudeDegrees>
              <LongitudeDegrees>-4.50634843669831752777099609375</LongitudeDegrees>
            </Position>
            <AltitudeMeters>1330.4000244140625</AltitudeMeters>
            <DistanceMeters>25603.993476931</DistanceMeters>
          </Trackpoint>
          <Trackpoint>
            <Time>2023-02-23T12:36:35.000Z</Time>
            <Position>
              <LatitudeDegrees>41.50251000188291072845458984375</LatitudeDegrees>
              <LongitudeDegrees>-4.5063480176031589508056640625</LongitudeDegrees>
            </Position>
            <AltitudeMeters>1330.4000244140625</AltitudeMeters>
            <DistanceMeters>25604.449209044</DistanceMeters>
          </Trackpoint>
          <Trackpoint>
            <Time>2023-02-23T12:36:37.000Z</Time>
            <Position>
              <LatitudeDegrees>41.50251201353967189788818359375</LatitudeDegrees>
              <LongitudeDegrees>-4.50635212473571300506591796875</LongitudeDegrees>
            </Position>
            <AltitudeMeters>1330.4000244140625</AltitudeMeters>
            <DistanceMeters>25604.852373249</DistanceMeters>
          </Trackpoint>
          <Trackpoint>
            <Time>2023-02-23T12:36:40.000Z</Time>
            <Position>
              <LatitudeDegrees>41.50251234881579875946044921875</LatitudeDegrees>
              <LongitudeDegrees>-4.50635530985891819000244140625</LongitudeDegrees>
            </Position>
            <AltitudeMeters>1330.5999755859375</AltitudeMeters>
            <DistanceMeters>25605.121149385</DistanceMeters>
          </Trackpoint>
          <Trackpoint>
            <Time>2023-02-23T12:36:43.000Z</Time>
            <Position>
              <LatitudeDegrees>41.50251301936805248260498046875</LatitudeDegrees>
              <LongitudeDegrees>-4.50635463930666446685791015625</LongitudeDegrees>
            </Position>
            <AltitudeMeters>1330.800048828125</AltitudeMeters>
            <DistanceMeters>25605.255537453</DistanceMeters>
          </Trackpoint>
          <Trackpoint>
            <Time>2023-02-23T12:36:52.000Z</Time>
            <Position>
              <LatitudeDegrees>41.50254436768591403961181640625</LatitudeDegrees>
              <LongitudeDegrees>-4.5063403062522411346435546875</LongitudeDegrees>
            </Position>
            <AltitudeMeters>1330.4000244140625</AltitudeMeters>
            <DistanceMeters>25608.943259667</DistanceMeters>
          </Trackpoint>
          <Trackpoint>
            <Time>2023-02-23T12:36:58.000Z</Time>
            <Position>
              <LatitudeDegrees>41.502521149814128875732421875</LatitudeDegrees>
              <LongitudeDegrees>-4.50633167289197444915771484375</LongitudeDegrees>
            </Position>
            <AltitudeMeters>1330.199951171875</AltitudeMeters>
            <DistanceMeters>25611.624293208</DistanceMeters>
          </Trackpoint>
          <Trackpoint>
            <Time>2023-02-23T12:37:03.000Z</Time>
            <Position>
              <LatitudeDegrees>41.5024975128471851348876953125</LatitudeDegrees>
              <LongitudeDegrees>-4.50633703731000423431396484375</LongitudeDegrees>
            </Position>
            <AltitudeMeters>1330.199951171875</AltitudeMeters>
            <DistanceMeters>25614.291820197</DistanceMeters>
          </Trackpoint>
          <Trackpoint>
            <Time>2023-02-23T12:37:11.000Z</Time>
            <Position>
              <LatitudeDegrees>41.50247932411730289459228515625</LatitudeDegrees>
              <LongitudeDegrees>-4.50632236897945404052734375</LongitudeDegrees>
            </Position>
            <AltitudeMeters>1330</AltitudeMeters>
            <DistanceMeters>25616.656057351</DistanceMeters>
          </Trackpoint>
          <Trackpoint>
            <Time>2023-02-23T12:37:12.000Z</Time>
            <Position>
              <LatitudeDegrees>41.50247295387089252471923828125</LatitudeDegrees>
              <LongitudeDegrees>-4.50631725601851940155029296875</LongitudeDegrees>
            </Position>
            <AltitudeMeters>1330.4000244140625</AltitudeMeters>
            <DistanceMeters>25617.484481041</DistanceMeters>
          </Trackpoint>
          <Trackpoint>
            <Time>2023-02-23T12:37:18.000Z</Time>
            <Position>
              <LatitudeDegrees>41.50245551951229572296142578125</LatitudeDegrees>
              <LongitudeDegrees>-4.5062890090048313140869140625</LongitudeDegrees>
            </Position>
            <AltitudeMeters>1330.800048828125</AltitudeMeters>
            <DistanceMeters>25620.53719113</DistanceMeters>
          </Trackpoint>
          <Trackpoint>
            <Time>2023-02-23T12:37:21.000Z</Time>
            <Position>
              <LatitudeDegrees>41.5024214051663875579833984375</LatitudeDegrees>
              <LongitudeDegrees>-4.5062705688178539276123046875</LongitudeDegrees>
            </Position>
            <AltitudeMeters>1330.5999755859375</AltitudeMeters>
            <DistanceMeters>25624.632170001</DistanceMeters>
          </Trackpoint>
          <Trackpoint>
            <Time>2023-02-23T12:37:24.000Z</Time>
            <Position>
              <LatitudeDegrees>41.50239382870495319366455078125</LatitudeDegrees>
              <LongitudeDegrees>-4.50627333484590053558349609375</LongitudeDegrees>
            </Position>
            <AltitudeMeters>1330.4000244140625</AltitudeMeters>
            <DistanceMeters>25627.711387478</DistanceMeters>
          </Trackpoint>
          <Trackpoint>
            <Time>2023-02-23T12:37:32.000Z</Time>
            <Position>
              <LatitudeDegrees>41.50238309986889362335205078125</LatitudeDegrees>
              <LongitudeDegrees>-4.50628641061484813690185546875</LongitudeDegrees>
            </Position>
            <AltitudeMeters>1330.199951171875</AltitudeMeters>
            <DistanceMeters>25629.329634112</DistanceMeters>
          </Trackpoint>
          <Trackpoint>
            <Time>2023-02-23T12:37:36.000Z</Time>
            <Position>
              <LatitudeDegrees>41.502380669116973876953125</LatitudeDegrees>
              <LongitudeDegrees>-4.5062823034822940826416015625</LongitudeDegrees>
            </Position>
            <AltitudeMeters>1329.800048828125</AltitudeMeters>
            <DistanceMeters>25629.77534891</DistanceMeters>
          </Trackpoint>
          <Trackpoint>
            <Time>2023-02-23T12:37:38.000Z</Time>
            <Position>
              <LatitudeDegrees>41.50237991474568843841552734375</LatitudeDegrees>
              <LongitudeDegrees>-4.50628473423421382904052734375</LongitudeDegrees>
            </Position>
            <AltitudeMeters>1330</AltitudeMeters>
            <DistanceMeters>25629.987835103</DistanceMeters>
          </Trackpoint>
          <Trackpoint>
            <Time>2023-02-23T12:37:41.000Z</Time>
            <Position>
              <LatitudeDegrees>41.502373628318309783935546875</LatitudeDegrees>
              <LongitudeDegrees>-4.50628758408129215240478515625</LongitudeDegrees>
            </Position>
            <AltitudeMeters>1330</AltitudeMeters>
            <DistanceMeters>25630.730017469</DistanceMeters>
          </Trackpoint>
          <Trackpoint>
            <Time>2023-02-23T12:37:46.000Z</Time>
            <Position>
              <LatitudeDegrees>41.50241780094802379608154296875</LatitudeDegrees>
              <LongitudeDegrees>-4.5062868297100067138671875</LongitudeDegrees>
            </Position>
            <AltitudeMeters>1329.800048828125</AltitudeMeters>
            <DistanceMeters>25635.647592554</DistanceMeters>
          </Trackpoint>
          <Trackpoint>
            <Time>2023-02-23T12:37:53.000Z</Time>
            <Position>
              <LatitudeDegrees>41.50245166383683681488037109375</LatitudeDegrees>
              <LongitudeDegrees>-4.50635313056409358978271484375</LongitudeDegrees>
            </Position>
            <AltitudeMeters>1330.4000244140625</AltitudeMeters>
            <DistanceMeters>25642.33736526</DistanceMeters>
          </Trackpoint>
          <Trackpoint>
            <Time>2023-02-23T12:38:01.000Z</Time>
            <Position>
              <LatitudeDegrees>41.5024844370782375335693359375</LatitudeDegrees>
              <LongitudeDegrees>-4.506393782794475555419921875</LongitudeDegrees>
            </Position>
            <AltitudeMeters>1330.800048828125</AltitudeMeters>
            <DistanceMeters>25647.316982706</DistanceMeters>
          </Trackpoint>
          <Trackpoint>
            <Time>2023-02-23T12:38:03.000Z</Time>
            <Position>
              <LatitudeDegrees>41.50248653255403041839599609375</LatitudeDegrees>
              <LongitudeDegrees>-4.50637727044522762298583984375</LongitudeDegrees>
            </Position>
            <AltitudeMeters>1330.4000244140625</AltitudeMeters>
            <DistanceMeters>25648.713584479</DistanceMeters>
          </Trackpoint>
          <Trackpoint>
            <Time>2023-02-23T12:38:06.000Z</Time>
            <Position>
              <LatitudeDegrees>41.50248871184885501861572265625</LatitudeDegrees>
              <LongitudeDegrees>-4.50633309781551361083984375</LongitudeDegrees>
            </Position>
            <AltitudeMeters>1330.199951171875</AltitudeMeters>
            <DistanceMeters>25652.404977895</DistanceMeters>
          </Trackpoint>
          <Trackpoint>
            <Time>2023-02-23T12:38:07.000Z</Time>
            <Position>
              <LatitudeDegrees>41.50249759666621685028076171875</LatitudeDegrees>
              <LongitudeDegrees>-4.50632262043654918670654296875</LongitudeDegrees>
            </Position>
            <AltitudeMeters>1330.199951171875</AltitudeMeters>
            <DistanceMeters>25653.725131202</DistanceMeters>
          </Trackpoint>
          <Trackpoint>
            <Time>2023-02-23T12:38:08.000Z</Time>
            <Position>
              <LatitudeDegrees>41.5025038830935955047607421875</LatitudeDegrees>
              <LongitudeDegrees>-4.50631792657077312469482421875</LongitudeDegrees>
            </Position>
            <AltitudeMeters>1330.4000244140625</AltitudeMeters>
            <DistanceMeters>25654.520181736</DistanceMeters>
          </Trackpoint>
          <Trackpoint>
            <Time>2023-02-23T12:38:11.000Z</Time>
            <Position>
              <LatitudeDegrees>41.50253229774534702301025390625</LatitudeDegrees>
              <LongitudeDegrees>-4.50633536092936992645263671875</LongitudeDegrees>
            </Position>
            <AltitudeMeters>1330.800048828125</AltitudeMeters>
            <DistanceMeters>25658.000028358</DistanceMeters>
          </Trackpoint>
          <Trackpoint>
            <Time>2023-02-23T12:38:12.000Z</Time>
            <Position>
              <LatitudeDegrees>41.50253162719309329986572265625</LatitudeDegrees>
              <LongitudeDegrees>-4.5063453353941440582275390625</LongitudeDegrees>
            </Position>
            <AltitudeMeters>1331</AltitudeMeters>
            <DistanceMeters>25658.828452047</DistanceMeters>
          </Trackpoint>
          <Trackpoint>
            <Time>2023-02-23T12:38:16.000Z</Time>
            <Position>
              <LatitudeDegrees>41.50254135020077228546142578125</LatitudeDegrees>
              <LongitudeDegrees>-4.5063914358615875244140625</LongitudeDegrees>
            </Position>
            <AltitudeMeters>1331</AltitudeMeters>
            <DistanceMeters>25662.820705161</DistanceMeters>
          </Trackpoint>
          <Trackpoint>
            <Time>2023-02-23T12:38:18.000Z</Time>
            <Position>
              <LatitudeDegrees>41.502540595829486846923828125</LatitudeDegrees>
              <LongitudeDegrees>-4.50640694238245487213134765625</LongitudeDegrees>
            </Position>
            <AltitudeMeters>1330.800048828125</AltitudeMeters>
            <DistanceMeters>25664.116696758</DistanceMeters>
          </Trackpoint>
          <Trackpoint>
            <Time>2023-02-23T12:38:20.000Z</Time>
            <Position>
              <LatitudeDegrees>41.5025330521166324615478515625</LatitudeDegrees>
              <LongitudeDegrees>-4.50640107505023479461669921875</LongitudeDegrees>
            </Position>
            <AltitudeMeters>1330.800048828125</AltitudeMeters>
            <DistanceMeters>25665.085782899</DistanceMeters>
          </Trackpoint>
          <Trackpoint>
            <Time>2023-02-23T12:38:26.000Z</Time>
            <Position>
              <LatitudeDegrees>41.50253355503082275390625</LatitudeDegrees>
              <LongitudeDegrees>-4.50638003647327423095703125</LongitudeDegrees>
            </Position>
            <AltitudeMeters>1330.5999755859375</AltitudeMeters>
            <DistanceMeters>25666.837988935</DistanceMeters>
          </Trackpoint>
          <Trackpoint>
            <Time>2023-02-23T12:38:29.000Z</Time>
            <Position>
              <LatitudeDegrees>41.502546630799770355224609375</LatitudeDegrees>
              <LongitudeDegrees>-4.50636369176208972930908203125</LongitudeDegrees>
            </Position>
            <AltitudeMeters>1330.199951171875</AltitudeMeters>
            <DistanceMeters>25668.829019713</DistanceMeters>
          </Trackpoint>
          <Trackpoint>
            <Time>2023-02-23T12:38:30.000Z</Time>
            <Position>
              <LatitudeDegrees>41.5025491453707218170166015625</LatitudeDegrees>
              <LongitudeDegrees>-4.506354890763759613037109375</LongitudeDegrees>
            </Position>
            <AltitudeMeters>1330</AltitudeMeters>
            <DistanceMeters>25669.612630074</DistanceMeters>
          </Trackpoint>
          <Trackpoint>
            <Time>2023-02-23T12:38:34.000Z</Time>
            <Position>
              <LatitudeDegrees>41.50256029330193996429443359375</LatitudeDegrees>
              <LongitudeDegrees>-4.5063191838562488555908203125</LongitudeDegrees>
            </Position>
            <AltitudeMeters>1330</AltitudeMeters>
            <DistanceMeters>25672.837943712</DistanceMeters>
          </Trackpoint>
          <Trackpoint>
            <Time>2023-02-23T12:38:36.000Z</Time>
            <Position>
              <LatitudeDegrees>41.50256079621613025665283203125</LatitudeDegrees>
              <LongitudeDegrees>-4.5063081197440624237060546875</LongitudeDegrees>
            </Position>
            <AltitudeMeters>1330.4000244140625</AltitudeMeters>
            <DistanceMeters>25673.759261891</DistanceMeters>
          </Trackpoint>
          <Trackpoint>
            <Time>2023-02-23T12:38:37.000Z</Time>
            <Position>
              <LatitudeDegrees>41.50256833992898464202880859375</LatitudeDegrees>
              <LongitudeDegrees>-4.50629730708897113800048828125</LongitudeDegrees>
            </Position>
            <AltitudeMeters>1330.4000244140625</AltitudeMeters>
            <DistanceMeters>25674.990948881</DistanceMeters>
          </Trackpoint>
          <Trackpoint>
            <Time>2023-02-23T12:38:40.000Z</Time>
            <Position>
              <LatitudeDegrees>41.5025823377072811126708984375</LatitudeDegrees>
              <LongitudeDegrees>-4.5062538050115108489990234375</LongitudeDegrees>
            </Position>
            <AltitudeMeters>1330.5999755859375</AltitudeMeters>
            <DistanceMeters>25678.936560594</DistanceMeters>
          </Trackpoint>
          <Trackpoint>
            <Time>2023-02-23T12:38:45.000Z</Time>
            <Position>
              <LatitudeDegrees>41.50261511094868183135986328125</LatitudeDegrees>
              <LongitudeDegrees>-4.5060932077467441558837890625</LongitudeDegrees>
            </Position>
            <AltitudeMeters>1330.4000244140625</AltitudeMeters>
            <DistanceMeters>25692.811762567</DistanceMeters>
          </Trackpoint>
          <Trackpoint>
            <Time>2023-02-23T12:38:51.000Z</Time>
            <Position>
              <LatitudeDegrees>41.50268468074500560760498046875</LatitudeDegrees>
              <LongitudeDegrees>-4.505844600498676300048828125</LongitudeDegrees>
            </Position>
            <AltitudeMeters>1330.199951171875</AltitudeMeters>
            <DistanceMeters>25714.934422513</DistanceMeters>
          </Trackpoint>
          <Trackpoint>
            <Time>2023-02-23T12:38:53.000Z</Time>
            <Position>
              <LatitudeDegrees>41.50272793136537075042724609375</LatitudeDegrees>
              <LongitudeDegrees>-4.50575700961053371429443359375</LongitudeDegrees>
            </Position>
            <AltitudeMeters>1330.199951171875</AltitudeMeters>
            <DistanceMeters>25723.679978384</DistanceMeters>
          </Trackpoint>
          <Trackpoint>
            <Time>2023-02-23T12:38:57.000Z</Time>
            <Position>
              <LatitudeDegrees>41.50280923582613468170166015625</LatitudeDegrees>
              <LongitudeDegrees>-4.505588114261627197265625</LongitudeDegrees>
            </Position>
            <AltitudeMeters>1330.199951171875</AltitudeMeters>
            <DistanceMeters>25740.416554237</DistanceMeters>
          </Trackpoint>
          <Trackpoint>
            <Time>2023-02-23T12:38:59.000Z</Time>
            <Position>
              <LatitudeDegrees>41.50284209288656711578369140625</LatitudeDegrees>
              <LongitudeDegrees>-4.50549985282123088836669921875</LongitudeDegrees>
            </Position>
            <AltitudeMeters>1330.199951171875</AltitudeMeters>
            <DistanceMeters>25748.632931267</DistanceMeters>
          </Trackpoint>
          <Trackpoint>
            <Time>2023-02-23T12:39:02.000Z</Time>
            <Position>
              <LatitudeDegrees>41.5028958208858966827392578125</LatitudeDegrees>
              <LongitudeDegrees>-4.50536825694143772125244140625</LongitudeDegrees>
            </Position>
            <AltitudeMeters>1330.199951171875</AltitudeMeters>
            <DistanceMeters>25761.126324374</DistanceMeters>
          </Trackpoint>
          <Trackpoint>
            <Time>2023-02-23T12:39:06.000Z</Time>
            <Position>
              <LatitudeDegrees>41.502974443137645721435546875</LatitudeDegrees>
              <LongitudeDegrees>-4.50520120561122894287109375</LongitudeDegrees>
            </Position>
            <AltitudeMeters>1330.199951171875</AltitudeMeters>
            <DistanceMeters>25777.572261552</DistanceMeters>
          </Trackpoint>
          <Trackpoint>
            <Time>2023-02-23T12:39:12.000Z</Time>
            <Position>
              <LatitudeDegrees>41.50312003679573535919189453125</LatitudeDegrees>
              <LongitudeDegrees>-4.504974894225597381591796875</LongitudeDegrees>
            </Position>
            <AltitudeMeters>1330.4000244140625</AltitudeMeters>
            <DistanceMeters>25802.441317337</DistanceMeters>
          </Trackpoint>
          <Trackpoint>
            <Time>2023-02-23T12:39:13.000Z</Time>
            <Position>
              <LatitudeDegrees>41.503143422305583953857421875</LatitudeDegrees>
              <LongitudeDegrees>-4.50494027696549892425537109375</LongitudeDegrees>
            </Position>
            <AltitudeMeters>1330.4000244140625</AltitudeMeters>
            <DistanceMeters>25806.32813067</DistanceMeters>
          </Trackpoint>
          <Trackpoint>
            <Time>2023-02-23T12:39:21.000Z</Time>
            <Position>
              <LatitudeDegrees>41.50332438759505748748779296875</LatitudeDegrees>
              <LongitudeDegrees>-4.50461673550307750701904296875</LongitudeDegrees>
            </Position>
            <AltitudeMeters>1330</AltitudeMeters>
            <DistanceMeters>25839.98865327</DistanceMeters>
          </Trackpoint>
          <Trackpoint>
            <Time>2023-02-23T12:39:28.000Z</Time>
            <Position>
              <LatitudeDegrees>41.50347660295665264129638671875</LatitudeDegrees>
              <LongitudeDegrees>-4.50434901751577854156494140625</LongitudeDegrees>
            </Position>
            <AltitudeMeters>1330</AltitudeMeters>
            <DistanceMeters>25868.006873513</DistanceMeters>
          </Trackpoint>
          <Trackpoint>
            <Time>2023-02-23T12:39:29.000Z</Time>
            <Position>
              <LatitudeDegrees>41.50349739007651805877685546875</LatitudeDegrees>
              <LongitudeDegrees>-4.50430794619023799896240234375</LongitudeDegrees>
            </Position>
            <AltitudeMeters>1330</AltitudeMeters>
            <DistanceMeters>25872.139170036</DistanceMeters>
          </Trackpoint>
          <Trackpoint>
            <Time>2023-02-23T12:39:36.000Z</Time>
            <Position>
              <LatitudeDegrees>41.50366972200572490692138671875</LatitudeDegrees>
              <LongitudeDegrees>-4.5040198601782321929931640625</LongitudeDegrees>
            </Position>
            <AltitudeMeters>1331</AltitudeMeters>
            <DistanceMeters>25902.872930889</DistanceMeters>
          </Trackpoint>
          <Trackpoint>
            <Time>2023-02-23T12:39:43.000Z</Time>
            <Position>
              <LatitudeDegrees>41.50382512249052524566650390625</LatitudeDegrees>
              <LongitudeDegrees>-4.503717608749866485595703125</LongitudeDegrees>
            </Position>
            <AltitudeMeters>1330.800048828125</AltitudeMeters>
            <DistanceMeters>25933.432848526</DistanceMeters>
          </Trackpoint>
          <Trackpoint>
            <Time>2023-02-23T12:39:49.000Z</Time>
            <Position>
              <LatitudeDegrees>41.50394976139068603515625</LatitudeDegrees>
              <LongitudeDegrees>-4.5034736953675746917724609375</LongitudeDegrees>
            </Position>
            <AltitudeMeters>1330.5999755859375</AltitudeMeters>
            <DistanceMeters>25958.046051659</DistanceMeters>
          </Trackpoint>
          <Trackpoint>
            <Time>2023-02-23T12:39:55.000Z</Time>
            <Position>
              <LatitudeDegrees>41.50406685657799243927001953125</LatitudeDegrees>
              <LongitudeDegrees>-4.50325316749513149261474609375</LongitudeDegrees>
            </Position>
            <AltitudeMeters>1331</AltitudeMeters>
            <DistanceMeters>25980.579608823</DistanceMeters>
          </Trackpoint>
          <Trackpoint>
            <Time>2023-02-23T12:39:57.000Z</Time>
            <Position>
              <LatitudeDegrees>41.504119075834751129150390625</LatitudeDegrees>
              <LongitudeDegrees>-4.50320069678127765655517578125</LongitudeDegrees>
            </Position>
            <AltitudeMeters>1331.199951171875</AltitudeMeters>
            <DistanceMeters>25987.852722861</DistanceMeters>
          </Trackpoint>
          <Trackpoint>
            <Time>2023-02-23T12:40:00.000Z</Time>
            <Position>
              <LatitudeDegrees>41.50420331396162509918212890625</LatitudeDegrees>
              <LongitudeDegrees>-4.5031437836587429046630859375</LongitudeDegrees>
            </Position>
            <AltitudeMeters>1331.4000244140625</AltitudeMeters>
            <DistanceMeters>25998.360374581</DistanceMeters>
          </Trackpoint>
          <Trackpoint>
            <Time>2023-02-23T12:40:06.000Z</Time>
            <Position>
              <LatitudeDegrees>41.50437547825276851654052734375</LatitudeDegrees>
              <LongitudeDegrees>-4.50296558439731597900390625</LongitudeDegrees>
            </Position>
            <AltitudeMeters>1331.199951171875</AltitudeMeters>
            <DistanceMeters>26022.605412346</DistanceMeters>
          </Trackpoint>
          <Trackpoint>
            <Time>2023-02-23T12:40:12.000Z</Time>
            <Position>
              <LatitudeDegrees>41.504503972828388214111328125</LatitudeDegrees>
              <LongitudeDegrees>-4.5027612335979938507080078125</LongitudeDegrees>
            </Position>
            <AltitudeMeters>1331</AltitudeMeters>
            <DistanceMeters>26044.846739142</DistanceMeters>
          </Trackpoint>
          <Trackpoint>
            <Time>2023-02-23T12:40:20.000Z</Time>
            <Position>
              <LatitudeDegrees>41.50466113351285457611083984375</LatitudeDegrees>
              <LongitudeDegrees>-4.50250499881803989410400390625</LongitudeDegrees>
            </Position>
            <AltitudeMeters>1331.199951171875</AltitudeMeters>
            <DistanceMeters>26072.453757851</DistanceMeters>
          </Trackpoint>
          <Trackpoint>
            <Time>2023-02-23T12:40:22.000Z</Time>
            <Position>
              <LatitudeDegrees>41.50471846573054790496826171875</LatitudeDegrees>
              <LongitudeDegrees>-4.50244347564876079559326171875</LongitudeDegrees>
            </Position>
            <AltitudeMeters>1331.4000244140625</AltitudeMeters>
            <DistanceMeters>26080.640958681</DistanceMeters>
          </Trackpoint>
          <Trackpoint>
            <Time>2023-02-23T12:40:24.000Z</Time>
            <Position>
              <LatitudeDegrees>41.50478015653789043426513671875</LatitudeDegrees>
              <LongitudeDegrees>-4.50238547287881374359130859375</LongitudeDegrees>
            </Position>
            <AltitudeMeters>1331.800048828125</AltitudeMeters>
            <DistanceMeters>26089.037793613</DistanceMeters>
          </Trackpoint>
          <Trackpoint>
            <Time>2023-02-23T12:40:26.000Z</Time>
            <Position>
              <LatitudeDegrees>41.50485659949481487274169921875</LatitudeDegrees>
              <LongitudeDegrees>-4.50233786366879940032958984375</LongitudeDegrees>
            </Position>
            <AltitudeMeters>1331.5999755859375</AltitudeMeters>
            <DistanceMeters>26098.425740465</DistanceMeters>
          </Trackpoint>
          <Trackpoint>
            <Time>2023-02-23T12:40:27.000Z</Time>
            <Position>
              <LatitudeDegrees>41.5048994310200214385986328125</LatitudeDegrees>
              <LongitudeDegrees>-4.5023163221776485443115234375</LongitudeDegrees>
            </Position>
            <AltitudeMeters>1331.199951171875</AltitudeMeters>
            <DistanceMeters>26103.520094173</DistanceMeters>
          </Trackpoint>
          <Trackpoint>
            <Time>2023-02-23T12:40:34.000Z</Time>
            <Position>
              <LatitudeDegrees>41.5051984973251819610595703125</LatitudeDegrees>
              <LongitudeDegrees>-4.5021669566631317138671875</LongitudeDegrees>
            </Position>
            <AltitudeMeters>1330.800048828125</AltitudeMeters>
            <DistanceMeters>26139.059069004</DistanceMeters>
          </Trackpoint>
          <Trackpoint>
            <Time>2023-02-23T12:40:39.000Z</Time>
            <Position>
              <LatitudeDegrees>41.5053713321685791015625</LatitudeDegrees>
              <LongitudeDegrees>-4.50207584537565708160400390625</LongitudeDegrees>
            </Position>
            <AltitudeMeters>1330.800048828125</AltitudeMeters>
            <DistanceMeters>26159.740427781</DistanceMeters>
          </Trackpoint>
          <Trackpoint>
            <Time>2023-02-23T12:40:40.000Z</Time>
            <Position>
              <LatitudeDegrees>41.50541047565639019012451171875</LatitudeDegrees>
              <LongitudeDegrees>-4.50205237604677677154541015625</LongitudeDegrees>
            </Position>
            <AltitudeMeters>1330.5999755859375</AltitudeMeters>
            <DistanceMeters>26164.516406539</DistanceMeters>
          </Trackpoint>
          <Trackpoint>
            <Time>2023-02-23T12:40:42.000Z</Time>
            <Position>
              <LatitudeDegrees>41.5054905228316783905029296875</LatitudeDegrees>
              <LongitudeDegrees>-4.50201063416898250579833984375</LongitudeDegrees>
            </Position>
            <AltitudeMeters>1330.5999755859375</AltitudeMeters>
            <DistanceMeters>26174.080645891</DistanceMeters>
          </Trackpoint>
          <Trackpoint>
            <Time>2023-02-23T12:40:45.000Z</Time>
            <Position>
              <LatitudeDegrees>41.50561206042766571044921875</LatitudeDegrees>
              <LongitudeDegrees>-4.50195833109319210052490234375</LongitudeDegrees>
            </Position>
            <AltitudeMeters>1330.5999755859375</AltitudeMeters>
            <DistanceMeters>26188.293097473</DistanceMeters>
          </Trackpoint>
          <Trackpoint>
            <Time>2023-02-23T12:40:46.000Z</Time>
            <Position>
              <LatitudeDegrees>41.50566008873283863067626953125</LatitudeDegrees>
              <LongitudeDegrees>-4.5019367896020412445068359375</LongitudeDegrees>
            </Position>
            <AltitudeMeters>1330.800048828125</AltitudeMeters>
            <DistanceMeters>26193.932594723</DistanceMeters>
          </Trackpoint>
          <Trackpoint>
            <Time>2023-02-23T12:40:52.000Z</Time>
            <Position>
              <LatitudeDegrees>41.50590014643967151641845703125</LatitudeDegrees>
              <LongitudeDegrees>-4.50178834609687328338623046875</LongitudeDegrees>
            </Position>
            <AltitudeMeters>1331.199951171875</AltitudeMeters>
            <DistanceMeters>26223.377385426</DistanceMeters>
          </Trackpoint>
          <Trackpoint>
            <Time>2023-02-23T12:40:55.000Z</Time>
            <Position>
              <LatitudeDegrees>41.5059884078800678253173828125</LatitudeDegrees>
              <LongitudeDegrees>-4.5016997493803501129150390625</LongitudeDegrees>
            </Position>
            <AltitudeMeters>1331.199951171875</AltitudeMeters>
            <DistanceMeters>26235.667098954</DistanceMeters>
          </Trackpoint>
          <Trackpoint>
            <Time>2023-02-23T12:40:59.000Z</Time>
            <Position>
              <LatitudeDegrees>41.50610558688640594482421875</LatitudeDegrees>
              <LongitudeDegrees>-4.50159874744713306427001953125</LongitudeDegrees>
            </Position>
            <AltitudeMeters>1330.5999755859375</AltitudeMeters>
            <DistanceMeters>26251.190520612</DistanceMeters>
          </Trackpoint>
          <Trackpoint>
            <Time>2023-02-23T12:41:05.000Z</Time>
            <Position>
              <LatitudeDegrees>41.50629744865000247955322265625</LatitudeDegrees>
              <LongitudeDegrees>-4.5014452748000621795654296875</LongitudeDegrees>
            </Position>
            <AltitudeMeters>1331.199951171875</AltitudeMeters>
            <DistanceMeters>26276.083529786</DistanceMeters>
          </Trackpoint>
          <Trackpoint>
            <Time>2023-02-23T12:41:11.000Z</Time>
            <Position>
              <LatitudeDegrees>41.5064956806600093841552734375</LatitudeDegrees>
              <LongitudeDegrees>-4.50129817239940166473388671875</LongitudeDegrees>
            </Position>
            <AltitudeMeters>1331.800048828125</AltitudeMeters>
            <DistanceMeters>26301.325422818</DistanceMeters>
          </Trackpoint>
          <Trackpoint>
            <Time>2023-02-23T12:41:18.000Z</Time>
            <Position>
              <LatitudeDegrees>41.50674889795482158660888671875</LatitudeDegrees>
              <LongitudeDegrees>-4.501131288707256317138671875</LongitudeDegrees>
            </Position>
            <AltitudeMeters>1331.4000244140625</AltitudeMeters>
            <DistanceMeters>26332.75485317</DistanceMeters>
          </Trackpoint>
          <Trackpoint>
            <Time>2023-02-23T12:41:21.000Z</Time>
            <Position>
              <LatitudeDegrees>41.5068571083247661590576171875</LatitudeDegrees>
              <LongitudeDegrees>-4.501056186854839324951171875</LongitudeDegrees>
            </Position>
            <AltitudeMeters>1331.5999755859375</AltitudeMeters>
            <DistanceMeters>26346.328713335</DistanceMeters>
          </Trackpoint>
          <Trackpoint>
            <Time>2023-02-23T12:41:24.000Z</Time>
            <Position>
              <LatitudeDegrees>41.50695492513477802276611328125</LatitudeDegrees>
              <LongitudeDegrees>-4.50094998814165592193603515625</LongitudeDegrees>
            </Position>
            <AltitudeMeters>1331.800048828125</AltitudeMeters>
            <DistanceMeters>26360.360204941</DistanceMeters>
          </Trackpoint>
          <Trackpoint>
            <Time>2023-02-23T12:41:29.000Z</Time>
            <Position>
              <LatitudeDegrees>41.5070592798292636871337890625</LatitudeDegrees>
              <LongitudeDegrees>-4.50075418688356876373291015625</LongitudeDegrees>
            </Position>
            <AltitudeMeters>1331.5999755859375</AltitudeMeters>
            <DistanceMeters>26380.391692077</DistanceMeters>
          </Trackpoint>
          <Trackpoint>
            <Time>2023-02-23T12:41:36.000Z</Time>
            <Position>
              <LatitudeDegrees>41.5072168596088886260986328125</LatitudeDegrees>
              <LongitudeDegrees>-4.5004476606845855712890625</LongitudeDegrees>
            </Position>
            <AltitudeMeters>1331.199951171875</AltitudeMeters>
            <DistanceMeters>26411.381767103</DistanceMeters>
          </Trackpoint>
          <Trackpoint>
            <Time>2023-02-23T12:41:43.000Z</Time>
            <Position>
              <LatitudeDegrees>41.50730914436280727386474609375</LatitudeDegrees>
              <LongitudeDegrees>-4.500095285475254058837890625</LongitudeDegrees>
            </Position>
            <AltitudeMeters>1331.800048828125</AltitudeMeters>
            <DistanceMeters>26442.49688587</DistanceMeters>
          </Trackpoint>
          <Trackpoint>
            <Time>2023-02-23T12:41:49.000Z</Time>
            <Position>
              <LatitudeDegrees>41.5073814801871776580810546875</LatitudeDegrees>
              <LongitudeDegrees>-4.49983469210565090179443359375</LongitudeDegrees>
            </Position>
            <AltitudeMeters>1332</AltitudeMeters>
            <DistanceMeters>26465.661584499</DistanceMeters>
          </Trackpoint>
          <Trackpoint>
            <Time>2023-02-23T12:41:55.000Z</Time>
            <Position>
              <LatitudeDegrees>41.507497988641262054443359375</LatitudeDegrees>
              <LongitudeDegrees>-4.4995925389230251312255859375</LongitudeDegrees>
            </Position>
            <AltitudeMeters>1332</AltitudeMeters>
            <DistanceMeters>26489.651642692</DistanceMeters>
          </Trackpoint>
          <Trackpoint>
            <Time>2023-02-23T12:42:01.000Z</Time>
            <Position>
              <LatitudeDegrees>41.507651545107364654541015625</LatitudeDegrees>
              <LongitudeDegrees>-4.49938039295375347137451171875</LongitudeDegrees>
            </Position>
            <AltitudeMeters>1332.199951171875</AltitudeMeters>
            <DistanceMeters>26514.243741213</DistanceMeters>
          </Trackpoint>
          <Trackpoint>
            <Time>2023-02-23T12:42:02.000Z</Time>
            <Position>
              <LatitudeDegrees>41.5076887607574462890625</LatitudeDegrees>
              <LongitudeDegrees>-4.49936279095709323883056640625</LongitudeDegrees>
            </Position>
            <AltitudeMeters>1332.199951171875</AltitudeMeters>
            <DistanceMeters>26518.637635094</DistanceMeters>
          </Trackpoint>
          <Trackpoint>
            <Time>2023-02-23T12:42:04.000Z</Time>
            <Position>
              <LatitudeDegrees>41.50775807909667491912841796875</LatitudeDegrees>
              <LongitudeDegrees>-4.499313421547412872314453125</LongitudeDegrees>
            </Position>
            <AltitudeMeters>1332.800048828125</AltitudeMeters>
            <DistanceMeters>26527.38215837</DistanceMeters>
          </Trackpoint>
          <Trackpoint>
            <Time>2023-02-23T12:42:08.000Z</Time>
            <Position>
              <LatitudeDegrees>41.50790006853640079498291015625</LatitudeDegrees>
              <LongitudeDegrees>-4.499163217842578887939453125</LongitudeDegrees>
            </Position>
            <AltitudeMeters>1332</AltitudeMeters>
            <DistanceMeters>26547.543951971</DistanceMeters>
          </Trackpoint>
          <Trackpoint>
            <Time>2023-02-23T12:42:10.000Z</Time>
            <Position>
              <LatitudeDegrees>41.50796125642955303192138671875</LatitudeDegrees>
              <LongitudeDegrees>-4.4990946538746356964111328125</LongitudeDegrees>
            </Position>
            <AltitudeMeters>1331.800048828125</AltitudeMeters>
            <DistanceMeters>26556.434410852</DistanceMeters>
          </Trackpoint>
          <Trackpoint>
            <Time>2023-02-23T12:42:15.000Z</Time>
            <Position>
              <LatitudeDegrees>41.5081085264682769775390625</LatitudeDegrees>
              <LongitudeDegrees>-4.498921819031238555908203125</LongitudeDegrees>
            </Position>
            <AltitudeMeters>1331.800048828125</AltitudeMeters>
            <DistanceMeters>26578.256442867</DistanceMeters>
          </Trackpoint>
          <Trackpoint>
            <Time>2023-02-23T12:42:20.000Z</Time>
            <Position>
              <LatitudeDegrees>41.5082292258739471435546875</LatitudeDegrees>
              <LongitudeDegrees>-4.49873213656246662139892578125</LongitudeDegrees>
            </Position>
            <AltitudeMeters>1332</AltitudeMeters>
            <DistanceMeters>26599.003192583</DistanceMeters>
          </Trackpoint>
          <Trackpoint>
            <Time>2023-02-23T12:42:23.000Z</Time>
            <Position>
              <LatitudeDegrees>41.50829829275608062744140625</LatitudeDegrees>
              <LongitudeDegrees>-4.49862501583993434906005859375</LongitudeDegrees>
            </Position>
            <AltitudeMeters>1332</AltitudeMeters>
            <DistanceMeters>26610.784972377</DistanceMeters>
          </Trackpoint>
          <Trackpoint>
            <Time>2023-02-23T12:42:27.000Z</Time>
            <Position>
              <LatitudeDegrees>41.50841094553470611572265625</LatitudeDegrees>
              <LongitudeDegrees>-4.49850465171039104461669921875</LongitudeDegrees>
            </Position>
            <AltitudeMeters>1332.4000244140625</AltitudeMeters>
            <DistanceMeters>26626.843081323</DistanceMeters>
          </Trackpoint>
          <Trackpoint>
            <Time>2023-02-23T12:42:28.000Z</Time>
            <Position>
              <LatitudeDegrees>41.50844179093837738037109375</LatitudeDegrees>
              <LongitudeDegrees>-4.49847414158284664154052734375</LongitudeDegrees>
            </Position>
            <AltitudeMeters>1332.4000244140625</AltitudeMeters>
            <DistanceMeters>26631.114000945</DistanceMeters>
          </Trackpoint>
          <Trackpoint>
            <Time>2023-02-23T12:42:30.000Z</Time>
            <Position>
              <LatitudeDegrees>41.5085006318986415863037109375</LatitudeDegrees>
              <LongitudeDegrees>-4.498410187661647796630859375</LongitudeDegrees>
            </Position>
            <AltitudeMeters>1332.5999755859375</AltitudeMeters>
            <DistanceMeters>26639.558021528</DistanceMeters>
          </Trackpoint>
          <Trackpoint>
            <Time>2023-02-23T12:42:36.000Z</Time>
            <Position>
              <LatitudeDegrees>41.50869383476674556732177734375</LatitudeDegrees>
              <LongitudeDegrees>-4.498191587626934051513671875</LongitudeDegrees>
            </Position>
            <AltitudeMeters>1332.199951171875</AltitudeMeters>
            <DistanceMeters>26667.743015495</DistanceMeters>
          </Trackpoint>
          <Trackpoint>
            <Time>2023-02-23T12:42:39.000Z</Time>
            <Position>
              <LatitudeDegrees>41.50878653861582279205322265625</LatitudeDegrees>
              <LongitudeDegrees>-4.4980723969638347625732421875</LongitudeDegrees>
            </Position>
            <AltitudeMeters>1332</AltitudeMeters>
            <DistanceMeters>26682.066539391</DistanceMeters>
          </Trackpoint>
          <Trackpoint>
            <Time>2023-02-23T12:42:43.000Z</Time>
            <Position>
              <LatitudeDegrees>41.5088838525116443634033203125</LatitudeDegrees>
              <LongitudeDegrees>-4.49793686158955097198486328125</LongitudeDegrees>
            </Position>
            <AltitudeMeters>1332.4000244140625</AltitudeMeters>
            <DistanceMeters>26697.716836304</DistanceMeters>
          </Trackpoint>
          <Trackpoint>
            <Time>2023-02-23T12:42:51.000Z</Time>
            <Position>
              <LatitudeDegrees>41.50905291549861431121826171875</LatitudeDegrees>
              <LongitudeDegrees>-4.4977170042693614959716796875</LongitudeDegrees>
            </Position>
            <AltitudeMeters>1332</AltitudeMeters>
            <DistanceMeters>26723.982398932</DistanceMeters>
          </Trackpoint>
          <Trackpoint>
            <Time>2023-02-23T12:42:53.000Z</Time>
            <Position>
              <LatitudeDegrees>41.5091068111360073089599609375</LatitudeDegrees>
              <LongitudeDegrees>-4.49765204451978206634521484375</LongitudeDegrees>
            </Position>
            <AltitudeMeters>1331.800048828125</AltitudeMeters>
            <DistanceMeters>26732.063581571</DistanceMeters>
          </Trackpoint>
          <Trackpoint>
            <Time>2023-02-23T12:42:57.000Z</Time>
            <Position>
              <LatitudeDegrees>41.50924955494701862335205078125</LatitudeDegrees>
              <LongitudeDegrees>-4.4975245557725429534912109375</LongitudeDegrees>
            </Position>
            <AltitudeMeters>1331.800048828125</AltitudeMeters>
            <DistanceMeters>26751.176947905</DistanceMeters>
          </Trackpoint>
          <Trackpoint>
            <Time>2023-02-23T12:43:03.000Z</Time>
            <Position>
              <LatitudeDegrees>41.5094404108822345733642578125</LatitudeDegrees>
              <LongitudeDegrees>-4.4973482005298137664794921875</LongitudeDegrees>
            </Position>
            <AltitudeMeters>1332.800048828125</AltitudeMeters>
            <DistanceMeters>26777.009012456</DistanceMeters>
          </Trackpoint>
          <Trackpoint>
            <Time>2023-02-23T12:43:04.000Z</Time>
            <Position>
              <LatitudeDegrees>41.50948324240744113922119140625</LatitudeDegrees>
              <LongitudeDegrees>-4.49731341563165187835693359375</LongitudeDegrees>
            </Position>
            <AltitudeMeters>1333</AltitudeMeters>
            <DistanceMeters>26782.588140838</DistanceMeters>
          </Trackpoint>
          <Trackpoint>
            <Time>2023-02-23T12:43:12.000Z</Time>
            <Position>
              <LatitudeDegrees>41.50976805947721004486083984375</LatitudeDegrees>
              <LongitudeDegrees>-4.49709347449243068695068359375</LongitudeDegrees>
            </Position>
            <AltitudeMeters>1333.4000244140625</AltitudeMeters>
            <DistanceMeters>26819.207471553</DistanceMeters>
          </Trackpoint>
          <Trackpoint>
            <Time>2023-02-23T12:43:18.000Z</Time>
            <Position>
              <LatitudeDegrees>41.50994206778705120086669921875</LatitudeDegrees>
              <LongitudeDegrees>-4.49699222110211849212646484375</LongitudeDegrees>
            </Position>
            <AltitudeMeters>1333</AltitudeMeters>
            <DistanceMeters>26840.33377171</DistanceMeters>
          </Trackpoint>
          <Trackpoint>
            <Time>2023-02-23T12:43:24.000Z</Time>
            <Position>
              <LatitudeDegrees>41.5100693888962268829345703125</LatitudeDegrees>
              <LongitudeDegrees>-4.49691586196422576904296875</LongitudeDegrees>
            </Position>
            <AltitudeMeters>1333.4000244140625</AltitudeMeters>
            <DistanceMeters>26855.868532505</DistanceMeters>
          </Trackpoint>
          <Trackpoint>
            <Time>2023-02-23T12:43:29.000Z</Time>
            <Position>
              <LatitudeDegrees>41.51014742441475391387939453125</LatitudeDegrees>
              <LongitudeDegrees>-4.4969230704009532928466796875</LongitudeDegrees>
            </Position>
            <AltitudeMeters>1333.4000244140625</AltitudeMeters>
            <DistanceMeters>26864.574763703</DistanceMeters>
          </Trackpoint>
          <Trackpoint>
            <Time>2023-02-23T12:43:30.000Z</Time>
            <Position>
              <LatitudeDegrees>41.51015035808086395263671875</LatitudeDegrees>
              <LongitudeDegrees>-4.4969244115054607391357421875</LongitudeDegrees>
            </Position>
            <AltitudeMeters>1333.4000244140625</AltitudeMeters>
            <DistanceMeters>26864.903945898</DistanceMeters>
          </Trackpoint>
          <Trackpoint>
            <Time>2023-02-23T12:43:36.000Z</Time>
            <Position>
              <LatitudeDegrees>41.51014641858637332916259765625</LatitudeDegrees>
              <LongitudeDegrees>-4.496908150613307952880859375</LongitudeDegrees>
            </Position>
            <AltitudeMeters>1333.5999755859375</AltitudeMeters>
            <DistanceMeters>26866.332510659</DistanceMeters>
          </Trackpoint>
          <Trackpoint>
            <Time>2023-02-23T12:43:37.000Z</Time>
            <Position>
              <LatitudeDegrees>41.51015412993729114532470703125</LatitudeDegrees>
              <LongitudeDegrees>-4.49689834378659725189208984375</LongitudeDegrees>
            </Position>
            <AltitudeMeters>1333.5999755859375</AltitudeMeters>
            <DistanceMeters>26867.523191977</DistanceMeters>
          </Trackpoint>
          <Trackpoint>
            <Time>2023-02-23T12:43:43.000Z</Time>
            <Position>
              <LatitudeDegrees>41.510253287851810455322265625</LatitudeDegrees>
              <LongitudeDegrees>-4.4968251697719097137451171875</LongitudeDegrees>
            </Position>
            <AltitudeMeters>1334</AltitudeMeters>
            <DistanceMeters>26880.13277508</DistanceMeters>
          </Trackpoint>
          <Trackpoint>
            <Time>2023-02-23T12:43:50.000Z</Time>
            <Position>
              <LatitudeDegrees>41.510435007512569427490234375</LatitudeDegrees>
              <LongitudeDegrees>-4.496696926653385162353515625</LongitudeDegrees>
            </Position>
            <AltitudeMeters>1333.199951171875</AltitudeMeters>
            <DistanceMeters>26903.009161382</DistanceMeters>
          </Trackpoint>
          <Trackpoint>
            <Time>2023-02-23T12:43:52.000Z</Time>
            <Position>
              <LatitudeDegrees>41.5104951895773410797119140625</LatitudeDegrees>
              <LongitudeDegrees>-4.49665836989879608154296875</LongitudeDegrees>
            </Position>
            <AltitudeMeters>1332.800048828125</AltitudeMeters>
            <DistanceMeters>26910.4382816</DistanceMeters>
          </Trackpoint>
          <Trackpoint>
            <Time>2023-02-23T12:43:57.000Z</Time>
            <Position>
              <LatitudeDegrees>41.51063089258968830108642578125</LatitudeDegrees>
              <LongitudeDegrees>-4.4965737126767635345458984375</LongitudeDegrees>
            </Position>
            <AltitudeMeters>1332.800048828125</AltitudeMeters>
            <DistanceMeters>26927.108903444</DistanceMeters>
          </Trackpoint>
          <Trackpoint>
            <Time>2023-02-23T12:44:03.000Z</Time>
            <Position>
              <LatitudeDegrees>41.51077254675328731536865234375</LatitudeDegrees>
              <LongitudeDegrees>-4.49638872407376766204833984375</LongitudeDegrees>
            </Position>
            <AltitudeMeters>1333.800048828125</AltitudeMeters>
            <DistanceMeters>26949.16124429</DistanceMeters>
          </Trackpoint>
          <Trackpoint>
            <Time>2023-02-23T12:44:04.000Z</Time>
            <Position>
              <LatitudeDegrees>41.51080079376697540283203125</LatitudeDegrees>
              <LongitudeDegrees>-4.496356956660747528076171875</LongitudeDegrees>
            </Position>
            <AltitudeMeters>1333.800048828125</AltitudeMeters>
            <DistanceMeters>26953.271630285</DistanceMeters>
          </Trackpoint>
          <Trackpoint>
            <Time>2023-02-23T12:44:10.000Z</Time>
            <Position>
              <LatitudeDegrees>41.51092308573424816131591796875</LatitudeDegrees>
              <LongitudeDegrees>-4.49620465748012065887451171875</LongitudeDegrees>
            </Position>
            <AltitudeMeters>1332.800048828125</AltitudeMeters>
            <DistanceMeters>26971.883286106</DistanceMeters>
          </Trackpoint>
          <Trackpoint>
            <Time>2023-02-23T12:44:11.000Z</Time>
            <Position>
              <LatitudeDegrees>41.51094789616763591766357421875</LatitudeDegrees>
              <LongitudeDegrees>-4.4961777515709400177001953125</LongitudeDegrees>
            </Position>
            <AltitudeMeters>1332.5999755859375</AltitudeMeters>
            <DistanceMeters>26975.441398973</DistanceMeters>
          </Trackpoint>
          <Trackpoint>
            <Time>2023-02-23T12:44:13.000Z</Time>
            <Position>
              <LatitudeDegrees>41.511002965271472930908203125</LatitudeDegrees>
              <LongitudeDegrees>-4.49612268246710300445556640625</LongitudeDegrees>
            </Position>
            <AltitudeMeters>1332.5999755859375</AltitudeMeters>
            <DistanceMeters>26983.099160815</DistanceMeters>
          </Trackpoint>
          <Trackpoint>
            <Time>2023-02-23T12:44:17.000Z</Time>
            <Position>
              <LatitudeDegrees>41.511110253632068634033203125</LatitudeDegrees>
              <LongitudeDegrees>-4.496017657220363616943359375</LongitudeDegrees>
            </Position>
            <AltitudeMeters>1332.5999755859375</AltitudeMeters>
            <DistanceMeters>26997.905042611</DistanceMeters>
          </Trackpoint>
          <Trackpoint>
            <Time>2023-02-23T12:44:21.000Z</Time>
            <Position>
              <LatitudeDegrees>41.51131116785109043121337890625</LatitudeDegrees>
              <LongitudeDegrees>-4.49594079516828060150146484375</LongitudeDegrees>
            </Position>
            <AltitudeMeters>1332.5999755859375</AltitudeMeters>
            <DistanceMeters>27021.166604052</DistanceMeters>
          </Trackpoint>
          <Trackpoint>
            <Time>2023-02-23T12:44:22.000Z</Time>
            <Position>
              <LatitudeDegrees>41.51135039515793323516845703125</LatitudeDegrees>
              <LongitudeDegrees>-4.4959353469312191009521484375</LongitudeDegrees>
            </Position>
            <AltitudeMeters>1333</AltitudeMeters>
            <DistanceMeters>27025.556385724</DistanceMeters>
          </Trackpoint>
          <Trackpoint>
            <Time>2023-02-23T12:44:26.000Z</Time>
            <Position>
              <LatitudeDegrees>41.51150814257562160491943359375</LatitudeDegrees>
              <LongitudeDegrees>-4.495918750762939453125</LongitudeDegrees>
            </Position>
            <AltitudeMeters>1334</AltitudeMeters>
            <DistanceMeters>27043.168402243</DistanceMeters>
          </Trackpoint>
          <Trackpoint>
            <Time>2023-02-23T12:44:30.000Z</Time>
            <Position>
              <LatitudeDegrees>41.51174065656960010528564453125</LatitudeDegrees>
              <LongitudeDegrees>-4.4958713091909885406494140625</LongitudeDegrees>
            </Position>
            <AltitudeMeters>1333.800048828125</AltitudeMeters>
            <DistanceMeters>27069.348218936</DistanceMeters>
          </Trackpoint>
          <Trackpoint>
            <Time>2023-02-23T12:44:31.000Z</Time>
            <Position>
              <LatitudeDegrees>41.51179882697761058807373046875</LatitudeDegrees>
              <LongitudeDegrees>-4.4958646036684513092041015625</LongitudeDegrees>
            </Position>
            <AltitudeMeters>1333.5999755859375</AltitudeMeters>
            <DistanceMeters>27075.847657189</DistanceMeters>
          </Trackpoint>
          <Trackpoint>
            <Time>2023-02-23T12:44:36.000Z</Time>
            <Position>
              <LatitudeDegrees>41.512053050100803375244140625</LatitudeDegrees>
              <LongitudeDegrees>-4.49588865973055362701416015625</LongitudeDegrees>
            </Position>
            <AltitudeMeters>1333</AltitudeMeters>
            <DistanceMeters>27104.214205831</DistanceMeters>
          </Trackpoint>
          <Trackpoint>
            <Time>2023-02-23T12:44:38.000Z</Time>
            <Position>
              <LatitudeDegrees>41.5121511183679103851318359375</LatitudeDegrees>
              <LongitudeDegrees>-4.49591615237295627593994140625</LongitudeDegrees>
            </Position>
            <AltitudeMeters>1333</AltitudeMeters>
            <DistanceMeters>27115.366796245</DistanceMeters>
          </Trackpoint>
          <Trackpoint>
            <Time>2023-02-23T12:44:43.000Z</Time>
            <Position>
              <LatitudeDegrees>41.51235236786305904388427734375</LatitudeDegrees>
              <LongitudeDegrees>-4.49601204134523868560791015625</LongitudeDegrees>
            </Position>
            <AltitudeMeters>1332.5999755859375</AltitudeMeters>
            <DistanceMeters>27139.14911821</DistanceMeters>
          </Trackpoint>
          <Trackpoint>
            <Time>2023-02-23T12:44:44.000Z</Time>
            <Position>
              <LatitudeDegrees>41.5123905055224895477294921875</LatitudeDegrees>
              <LongitudeDegrees>-4.4960305653512477874755859375</LongitudeDegrees>
            </Position>
            <AltitudeMeters>1332.5999755859375</AltitudeMeters>
            <DistanceMeters>27143.665637078</DistanceMeters>
          </Trackpoint>
          <Trackpoint>
            <Time>2023-02-23T12:44:50.000Z</Time>
            <Position>
              <LatitudeDegrees>41.5126231871545314788818359375</LatitudeDegrees>
              <LongitudeDegrees>-4.496104158461093902587890625</LongitudeDegrees>
            </Position>
            <AltitudeMeters>1332.5999755859375</AltitudeMeters>
            <DistanceMeters>27170.280243151</DistanceMeters>
          </Trackpoint>
          <Trackpoint>
            <Time>2023-02-23T12:44:51.000Z</Time>
            <Position>
              <LatitudeDegrees>41.51265914551913738250732421875</LatitudeDegrees>
              <LongitudeDegrees>-4.49611932970583438873291015625</LongitudeDegrees>
            </Position>
            <AltitudeMeters>1332.4000244140625</AltitudeMeters>
            <DistanceMeters>27174.476509237</DistanceMeters>
          </Trackpoint>
          <Trackpoint>
            <Time>2023-02-23T12:44:58.000Z</Time>
            <Position>
              <LatitudeDegrees>41.51293105445802211761474609375</LatitudeDegrees>
              <LongitudeDegrees>-4.4962538592517375946044921875</LongitudeDegrees>
            </Position>
            <AltitudeMeters>1332.4000244140625</AltitudeMeters>
            <DistanceMeters>27206.750636922</DistanceMeters>
          </Trackpoint>
          <Trackpoint>
            <Time>2023-02-23T12:45:00.000Z</Time>
            <Position>
              <LatitudeDegrees>41.5130117721855640411376953125</LatitudeDegrees>
              <LongitudeDegrees>-4.49629534967243671417236328125</LongitudeDegrees>
            </Position>
            <AltitudeMeters>1332</AltitudeMeters>
            <DistanceMeters>27216.376988488</DistanceMeters>
          </Trackpoint>
          <Trackpoint>
            <Time>2023-02-23T12:45:03.000Z</Time>
            <Position>
              <LatitudeDegrees>41.51313875801861286163330078125</LatitudeDegrees>
              <LongitudeDegrees>-4.49633088894188404083251953125</LongitudeDegrees>
            </Position>
            <AltitudeMeters>1332.199951171875</AltitudeMeters>
            <DistanceMeters>27230.817922855</DistanceMeters>
          </Trackpoint>
          <Trackpoint>
            <Time>2023-02-23T12:45:04.000Z</Time>
            <Position>
              <LatitudeDegrees>41.51318133808672428131103515625</LatitudeDegrees>
              <LongitudeDegrees>-4.4963380135595798492431640625</LongitudeDegrees>
            </Position>
            <AltitudeMeters>1332.199951171875</AltitudeMeters>
            <DistanceMeters>27235.593901613</DistanceMeters>
          </Trackpoint>
          <Trackpoint>
            <Time>2023-02-23T12:45:07.000Z</Time>
            <Position>
              <LatitudeDegrees>41.5133037976920604705810546875</LatitudeDegrees>
              <LongitudeDegrees>-4.49636693112552165985107421875</LongitudeDegrees>
            </Position>
            <AltitudeMeters>1332.4000244140625</AltitudeMeters>
            <DistanceMeters>27249.434894054</DistanceMeters>
          </Trackpoint>
          <Trackpoint>
            <Time>2023-02-23T12:45:10.000Z</Time>
            <Position>
              <LatitudeDegrees>41.513413600623607635498046875</LatitudeDegrees>
              <LongitudeDegrees>-4.496404230594635009765625</LongitudeDegrees>
            </Position>
            <AltitudeMeters>1332.5999755859375</AltitudeMeters>
            <DistanceMeters>27262.044835216</DistanceMeters>
          </Trackpoint>
          <Trackpoint>
            <Time>2023-02-23T12:45:16.000Z</Time>
            <Position>
              <LatitudeDegrees>41.5136685781180858612060546875</LatitudeDegrees>
              <LongitudeDegrees>-4.49647539295256137847900390625</LongitudeDegrees>
            </Position>
            <AltitudeMeters>1332.4000244140625</AltitudeMeters>
            <DistanceMeters>27291.037328482</DistanceMeters>
          </Trackpoint>
          <Trackpoint>
            <Time>2023-02-23T12:45:21.000Z</Time>
            <Position>
              <LatitudeDegrees>41.5139026008546352386474609375</LatitudeDegrees>
              <LongitudeDegrees>-4.496566839516162872314453125</LongitudeDegrees>
            </Position>
            <AltitudeMeters>1332.199951171875</AltitudeMeters>
            <DistanceMeters>27318.176565486</DistanceMeters>
          </Trackpoint>
          <Trackpoint>
            <Time>2023-02-23T12:45:22.000Z</Time>
            <Position>
              <LatitudeDegrees>41.5139458514750003814697265625</LatitudeDegrees>
              <LongitudeDegrees>-4.49659257195889949798583984375</LongitudeDegrees>
            </Position>
            <AltitudeMeters>1332</AltitudeMeters>
            <DistanceMeters>27323.44605171</DistanceMeters>
          </Trackpoint>
          <Trackpoint>
            <Time>2023-02-23T12:45:28.000Z</Time>
            <Position>
              <LatitudeDegrees>41.51418867520987987518310546875</LatitudeDegrees>
              <LongitudeDegrees>-4.4967574439942836761474609375</LongitudeDegrees>
            </Position>
            <AltitudeMeters>1331.800048828125</AltitudeMeters>
            <DistanceMeters>27353.765381881</DistanceMeters>
          </Trackpoint>
          <Trackpoint>
            <Time>2023-02-23T12:45:29.000Z</Time>
            <Position>
              <LatitudeDegrees>41.514233686029911041259765625</LatitudeDegrees>
              <LongitudeDegrees>-4.49677647091448307037353515625</LongitudeDegrees>
            </Position>
            <AltitudeMeters>1331.800048828125</AltitudeMeters>
            <DistanceMeters>27359.021140993</DistanceMeters>
          </Trackpoint>
          <Trackpoint>
            <Time>2023-02-23T12:45:32.000Z</Time>
            <Position>
              <LatitudeDegrees>41.51437425054609775543212890625</LatitudeDegrees>
              <LongitudeDegrees>-4.4968006946146488189697265625</LongitudeDegrees>
            </Position>
            <AltitudeMeters>1331.800048828125</AltitudeMeters>
            <DistanceMeters>27374.7958618</DistanceMeters>
          </Trackpoint>
          <Trackpoint>
            <Time>2023-02-23T12:45:33.000Z</Time>
            <Position>
              <LatitudeDegrees>41.5144209377467632293701171875</LatitudeDegrees>
              <LongitudeDegrees>-4.49680387973785400390625</LongitudeDegrees>
            </Position>
            <AltitudeMeters>1331.800048828125</AltitudeMeters>
            <DistanceMeters>27379.999821759</DistanceMeters>
          </Trackpoint>
          <Trackpoint>
            <Time>2023-02-23T12:45:40.000Z</Time>
            <Position>
              <LatitudeDegrees>41.5147039107978343963623046875</LatitudeDegrees>
              <LongitudeDegrees>-4.49682324193418025970458984375</LongitudeDegrees>
            </Position>
            <AltitudeMeters>1331.5999755859375</AltitudeMeters>
            <DistanceMeters>27411.536667187</DistanceMeters>
          </Trackpoint>
          <Trackpoint>
            <Time>2023-02-23T12:45:42.000Z</Time>
            <Position>
              <LatitudeDegrees>41.51478211395442485809326171875</LatitudeDegrees>
              <LongitudeDegrees>-4.496824331581592559814453125</LongitudeDegrees>
            </Position>
            <AltitudeMeters>1331.5999755859375</AltitudeMeters>
            <DistanceMeters>27420.241342451</DistanceMeters>
          </Trackpoint>
          <Trackpoint>
            <Time>2023-02-23T12:45:48.000Z</Time>
            <Position>
              <LatitudeDegrees>41.515006832778453826904296875</LatitudeDegrees>
              <LongitudeDegrees>-4.4968415983021259307861328125</LongitudeDegrees>
            </Position>
            <AltitudeMeters>1332.199951171875</AltitudeMeters>
            <DistanceMeters>27445.294536927</DistanceMeters>
          </Trackpoint>
          <Trackpoint>
            <Time>2023-02-23T12:45:55.000Z</Time>
            <Position>
              <LatitudeDegrees>41.51527337729930877685546875</LatitudeDegrees>
              <LongitudeDegrees>-4.49689700268208980560302734375</LongitudeDegrees>
            </Position>
            <AltitudeMeters>1332</AltitudeMeters>
            <DistanceMeters>27475.318768328</DistanceMeters>
          </Trackpoint>
          <Trackpoint>
            <Time>2023-02-23T12:46:00.000Z</Time>
            <Position>
              <LatitudeDegrees>41.515459455549716949462890625</LatitudeDegrees>
              <LongitudeDegrees>-4.49692935682833194732666015625</LongitudeDegrees>
            </Position>
            <AltitudeMeters>1332</AltitudeMeters>
            <DistanceMeters>27496.204766817</DistanceMeters>
          </Trackpoint>
          <Trackpoint>
            <Time>2023-02-23T12:46:08.000Z</Time>
            <Position>
              <LatitudeDegrees>41.515758521854877471923828125</LatitudeDegrees>
              <LongitudeDegrees>-4.49704670347273349761962890625</LongitudeDegrees>
            </Position>
            <AltitudeMeters>1332</AltitudeMeters>
            <DistanceMeters>27530.898498376</DistanceMeters>
          </Trackpoint>
          <Trackpoint>
            <Time>2023-02-23T12:46:15.000Z</Time>
            <Position>
              <LatitudeDegrees>41.5160228870809078216552734375</LatitudeDegrees>
              <LongitudeDegrees>-4.49714384973049163818359375</LongitudeDegrees>
            </Position>
            <AltitudeMeters>1332</AltitudeMeters>
            <DistanceMeters>27561.416427931</DistanceMeters>
          </Trackpoint>
          <Trackpoint>
            <Time>2023-02-23T12:46:21.000Z</Time>
            <Position>
              <LatitudeDegrees>41.51623017154633998870849609375</LatitudeDegrees>
              <LongitudeDegrees>-4.49721300043165683746337890625</LongitudeDegrees>
            </Position>
            <AltitudeMeters>1332</AltitudeMeters>
            <DistanceMeters>27585.196471605</DistanceMeters>
          </Trackpoint>
          <Trackpoint>
            <Time>2023-02-23T12:46:22.000Z</Time>
            <Position>
              <LatitudeDegrees>41.5162582509219646453857421875</LatitudeDegrees>
              <LongitudeDegrees>-4.4972261600196361541748046875</LongitudeDegrees>
            </Position>
            <AltitudeMeters>1332</AltitudeMeters>
            <DistanceMeters>27588.507440164</DistanceMeters>
          </Trackpoint>
          <Trackpoint>
            <Time>2023-02-23T12:46:28.000Z</Time>
            <Position>
              <LatitudeDegrees>41.51648079045116901397705078125</LatitudeDegrees>
              <LongitudeDegrees>-4.4973242282867431640625</LongitudeDegrees>
            </Position>
            <AltitudeMeters>1331.5999755859375</AltitudeMeters>
            <DistanceMeters>27614.589979708</DistanceMeters>
          </Trackpoint>
          <Trackpoint>
            <Time>2023-02-23T12:46:37.000Z</Time>
            <Position>
              <LatitudeDegrees>41.516858898103237152099609375</LatitudeDegrees>
              <LongitudeDegrees>-4.49744719080626964569091796875</LongitudeDegrees>
            </Position>
            <AltitudeMeters>1331.4000244140625</AltitudeMeters>
            <DistanceMeters>27657.90371485</DistanceMeters>
          </Trackpoint>
          <Trackpoint>
            <Time>2023-02-23T12:46:42.000Z</Time>
            <Position>
              <LatitudeDegrees>41.51705143041908740997314453125</LatitudeDegrees>
              <LongitudeDegrees>-4.49748809449374675750732421875</LongitudeDegrees>
            </Position>
            <AltitudeMeters>1331</AltitudeMeters>
            <DistanceMeters>27679.602290513</DistanceMeters>
          </Trackpoint>
          <Trackpoint>
            <Time>2023-02-23T12:46:46.000Z</Time>
            <Position>
              <LatitudeDegrees>41.517202891409397125244140625</LatitudeDegrees>
              <LongitudeDegrees>-4.49750821106135845184326171875</LongitudeDegrees>
            </Position>
            <AltitudeMeters>1331.5999755859375</AltitudeMeters>
            <DistanceMeters>27696.543184513</DistanceMeters>
          </Trackpoint>
          <Trackpoint>
            <Time>2023-02-23T12:46:48.000Z</Time>
            <Position>
              <LatitudeDegrees>41.51728511787950992584228515625</LatitudeDegrees>
              <LongitudeDegrees>-4.4975171796977519989013671875</LongitudeDegrees>
            </Position>
            <AltitudeMeters>1332</AltitudeMeters>
            <DistanceMeters>27705.725440432</DistanceMeters>
          </Trackpoint>
          <Trackpoint>
            <Time>2023-02-23T12:46:51.000Z</Time>
            <Position>
              <LatitudeDegrees>41.51740129105746746063232421875</LatitudeDegrees>
              <LongitudeDegrees>-4.4975352846086025238037109375</LongitudeDegrees>
            </Position>
            <AltitudeMeters>1332</AltitudeMeters>
            <DistanceMeters>27718.743059821</DistanceMeters>
          </Trackpoint>
          <Trackpoint>
            <Time>2023-02-23T12:46:58.000Z</Time>
            <Position>
              <LatitudeDegrees>41.5176583640277385711669921875</LatitudeDegrees>
              <LongitudeDegrees>-4.4975775294005870819091796875</LongitudeDegrees>
            </Position>
            <AltitudeMeters>1331.199951171875</AltitudeMeters>
            <DistanceMeters>27747.57141488</DistanceMeters>
          </Trackpoint>
          <Trackpoint>
            <Time>2023-02-23T12:46:59.000Z</Time>
            <Position>
              <LatitudeDegrees>41.5176932327449321746826171875</LatitudeDegrees>
              <LongitudeDegrees>-4.49758565984666347503662109375</LongitudeDegrees>
            </Position>
            <AltitudeMeters>1331.199951171875</AltitudeMeters>
            <DistanceMeters>27751.510154695</DistanceMeters>
          </Trackpoint>
          <Trackpoint>
            <Time>2023-02-23T12:47:06.000Z</Time>
            <Position>
              <LatitudeDegrees>41.5179403312504291534423828125</LatitudeDegrees>
              <LongitudeDegrees>-4.49762186966836452484130859375</LongitudeDegrees>
            </Position>
            <AltitudeMeters>1331.800048828125</AltitudeMeters>
            <DistanceMeters>27779.177782716</DistanceMeters>
          </Trackpoint>
          <Trackpoint>
            <Time>2023-02-23T12:47:11.000Z</Time>
            <Position>
              <LatitudeDegrees>41.51811475865542888641357421875</LatitudeDegrees>
              <LongitudeDegrees>-4.49765942059457302093505859375</LongitudeDegrees>
            </Position>
            <AltitudeMeters>1331.800048828125</AltitudeMeters>
            <DistanceMeters>27798.842573426</DistanceMeters>
          </Trackpoint>
          <Trackpoint>
            <Time>2023-02-23T12:47:13.000Z</Time>
            <Position>
              <LatitudeDegrees>41.51818734593689441680908203125</LatitudeDegrees>
              <LongitudeDegrees>-4.49767953716218471527099609375</LongitudeDegrees>
            </Position>
            <AltitudeMeters>1332.199951171875</AltitudeMeters>
            <DistanceMeters>27807.094044591</DistanceMeters>
          </Trackpoint>
          <Trackpoint>
            <Time>2023-02-23T12:47:14.000Z</Time>
            <Position>
              <LatitudeDegrees>41.518221460282802581787109375</LatitudeDegrees>
              <LongitudeDegrees>-4.49768758378922939300537109375</LongitudeDegrees>
            </Position>
            <AltitudeMeters>1332.199951171875</AltitudeMeters>
            <DistanceMeters>27810.949366345</DistanceMeters>
          </Trackpoint>
          <Trackpoint>
            <Time>2023-02-23T12:47:22.000Z</Time>
            <Position>
              <LatitudeDegrees>41.51847870089113712310791015625</LatitudeDegrees>
              <LongitudeDegrees>-4.49774759821593761444091796875</LongitudeDegrees>
            </Position>
            <AltitudeMeters>1331.4000244140625</AltitudeMeters>
            <DistanceMeters>27840.014339791</DistanceMeters>
          </Trackpoint>
          <Trackpoint>
            <Time>2023-02-23T12:47:24.000Z</Time>
            <Position>
              <LatitudeDegrees>41.51854164898395538330078125</LatitudeDegrees>
              <LongitudeDegrees>-4.497764110565185546875</LongitudeDegrees>
            </Position>
            <AltitudeMeters>1331.199951171875</AltitudeMeters>
            <DistanceMeters>27847.154634715</DistanceMeters>
          </Trackpoint>
          <Trackpoint>
            <Time>2023-02-23T12:47:28.000Z</Time>
            <Position>
              <LatitudeDegrees>41.5186732448637485504150390625</LatitudeDegrees>
              <LongitudeDegrees>-4.4977800361812114715576171875</LongitudeDegrees>
            </Position>
            <AltitudeMeters>1332</AltitudeMeters>
            <DistanceMeters>27861.861381159</DistanceMeters>
          </Trackpoint>
          <Trackpoint>
            <Time>2023-02-23T12:47:34.000Z</Time>
            <Position>
              <LatitudeDegrees>41.5188804455101490020751953125</LatitudeDegrees>
              <LongitudeDegrees>-4.49781415052711963653564453125</LongitudeDegrees>
            </Position>
            <AltitudeMeters>1332.800048828125</AltitudeMeters>
            <DistanceMeters>27885.097696072</DistanceMeters>
          </Trackpoint>
          <Trackpoint>
            <Time>2023-02-23T12:47:35.000Z</Time>
            <Position>
              <LatitudeDegrees>41.51891372166574001312255859375</LatitudeDegrees>
              <LongitudeDegrees>-4.4978192634880542755126953125</LongitudeDegrees>
            </Position>
            <AltitudeMeters>1333</AltitudeMeters>
            <DistanceMeters>27888.826813625</DistanceMeters>
          </Trackpoint>
          <Trackpoint>
            <Time>2023-02-23T12:47:40.000Z</Time>
            <Position>
              <LatitudeDegrees>41.51907398365437984466552734375</LatitudeDegrees>
              <LongitudeDegrees>-4.49787802062928676605224609375</LongitudeDegrees>
            </Position>
            <AltitudeMeters>1333</AltitudeMeters>
            <DistanceMeters>27907.324099817</DistanceMeters>
          </Trackpoint>
          <Trackpoint>
            <Time>2023-02-23T12:47:47.000Z</Time>
            <Position>
              <LatitudeDegrees>41.51929895393550395965576171875</LatitudeDegrees>
              <LongitudeDegrees>-4.497947506606578826904296875</LongitudeDegrees>
            </Position>
            <AltitudeMeters>1333.199951171875</AltitudeMeters>
            <DistanceMeters>27933.024566186</DistanceMeters>
          </Trackpoint>
          <Trackpoint>
            <Time>2023-02-23T12:47:52.000Z</Time>
            <Position>
              <LatitudeDegrees>41.51946491561830043792724609375</LatitudeDegrees>
              <LongitudeDegrees>-4.4979848898947238922119140625</LongitudeDegrees>
            </Position>
            <AltitudeMeters>1333</AltitudeMeters>
            <DistanceMeters>27951.757607337</DistanceMeters>
          </Trackpoint>
          <Trackpoint>
            <Time>2023-02-23T12:47:55.000Z</Time>
            <Position>
              <LatitudeDegrees>41.51957203634083271026611328125</LatitudeDegrees>
              <LongitudeDegrees>-4.49799184687435626983642578125</LongitudeDegrees>
            </Position>
            <AltitudeMeters>1333</AltitudeMeters>
            <DistanceMeters>27963.694717803</DistanceMeters>
          </Trackpoint>
          <Trackpoint>
            <Time>2023-02-23T12:48:01.000Z</Time>
            <Position>
              <LatitudeDegrees>41.5197887085378170013427734375</LatitudeDegrees>
              <LongitudeDegrees>-4.49802990071475505828857421875</LongitudeDegrees>
            </Position>
            <AltitudeMeters>1333.199951171875</AltitudeMeters>
            <DistanceMeters>27988.018401293</DistanceMeters>
          </Trackpoint>
          <Trackpoint>
            <Time>2023-02-23T12:48:07.000Z</Time>
            <Position>
              <LatitudeDegrees>41.5199928916990756988525390625</LatitudeDegrees>
              <LongitudeDegrees>-4.4980194233357906341552734375</LongitudeDegrees>
            </Position>
            <AltitudeMeters>1332.4000244140625</AltitudeMeters>
            <DistanceMeters>28010.761373366</DistanceMeters>
          </Trackpoint>
          <Trackpoint>
            <Time>2023-02-23T12:48:13.000Z</Time>
            <Position>
              <LatitudeDegrees>41.52020537294447422027587890625</LatitudeDegrees>
              <LongitudeDegrees>-4.49798312969505786895751953125</LongitudeDegrees>
            </Position>
            <AltitudeMeters>1332.800048828125</AltitudeMeters>
            <DistanceMeters>28034.603611982</DistanceMeters>
          </Trackpoint>
          <Trackpoint>
            <Time>2023-02-23T12:48:15.000Z</Time>
            <Position>
              <LatitudeDegrees>41.52028818614780902862548828125</LatitudeDegrees>
              <LongitudeDegrees>-4.4979679584503173828125</LongitudeDegrees>
            </Position>
            <AltitudeMeters>1333.199951171875</AltitudeMeters>
            <DistanceMeters>28043.907498954</DistanceMeters>
          </Trackpoint>
          <Trackpoint>
            <Time>2023-02-23T12:48:18.000Z</Time>
            <Position>
              <LatitudeDegrees>41.52040578424930572509765625</LatitudeDegrees>
              <LongitudeDegrees>-4.49798405170440673828125</LongitudeDegrees>
            </Position>
            <AltitudeMeters>1333.4000244140625</AltitudeMeters>
            <DistanceMeters>28057.065182093</DistanceMeters>
          </Trackpoint>
          <Trackpoint>
            <Time>2023-02-23T12:48:19.000Z</Time>
            <Position>
              <LatitudeDegrees>41.5204471908509731292724609375</LatitudeDegrees>
              <LongitudeDegrees>-4.49799218215048313140869140625</LongitudeDegrees>
            </Position>
            <AltitudeMeters>1333.4000244140625</AltitudeMeters>
            <DistanceMeters>28061.723430015</DistanceMeters>
          </Trackpoint>
          <Trackpoint>
            <Time>2023-02-23T12:48:21.000Z</Time>
            <Position>
              <LatitudeDegrees>41.5205189399421215057373046875</LatitudeDegrees>
              <LongitudeDegrees>-4.4980050064623355865478515625</LongitudeDegrees>
            </Position>
            <AltitudeMeters>1333.5999755859375</AltitudeMeters>
            <DistanceMeters>28069.780552302</DistanceMeters>
          </Trackpoint>
          <Trackpoint>
            <Time>2023-02-23T12:48:25.000Z</Time>
            <Position>
              <LatitudeDegrees>41.52066151611506938934326171875</LatitudeDegrees>
              <LongitudeDegrees>-4.49803677387535572052001953125</LongitudeDegrees>
            </Position>
            <AltitudeMeters>1333.800048828125</AltitudeMeters>
            <DistanceMeters>28085.868998815</DistanceMeters>
          </Trackpoint>
          <Trackpoint>
            <Time>2023-02-23T12:48:31.000Z</Time>
            <Position>
              <LatitudeDegrees>41.5208874084055423736572265625</LatitudeDegrees>
              <LongitudeDegrees>-4.4980076886713504791259765625</LongitudeDegrees>
            </Position>
            <AltitudeMeters>1332.199951171875</AltitudeMeters>
            <DistanceMeters>28111.127878859</DistanceMeters>
          </Trackpoint>
          <Trackpoint>
            <Time>2023-02-23T12:48:39.000Z</Time>
            <Position>
              <LatitudeDegrees>41.52118739672005176544189453125</LatitudeDegrees>
              <LongitudeDegrees>-4.49805839918553829193115234375</LongitudeDegrees>
            </Position>
            <AltitudeMeters>1332</AltitudeMeters>
            <DistanceMeters>28144.783706422</DistanceMeters>
          </Trackpoint>
          <Trackpoint>
            <Time>2023-02-23T12:48:43.000Z</Time>
            <Position>
              <LatitudeDegrees>41.5213269554078578948974609375</LatitudeDegrees>
              <LongitudeDegrees>-4.4980978779494762420654296875</LongitudeDegrees>
            </Position>
            <AltitudeMeters>1331.5999755859375</AltitudeMeters>
            <DistanceMeters>28160.661416401</DistanceMeters>
          </Trackpoint>
          <Trackpoint>
            <Time>2023-02-23T12:48:45.000Z</Time>
            <Position>
              <LatitudeDegrees>41.5214002132415771484375</LatitudeDegrees>
              <LongitudeDegrees>-4.498099721968173980712890625</LongitudeDegrees>
            </Position>
            <AltitudeMeters>1331.4000244140625</AltitudeMeters>
            <DistanceMeters>28168.816568944</DistanceMeters>
          </Trackpoint>
          <Trackpoint>
            <Time>2023-02-23T12:48:48.000Z</Time>
            <Position>
              <LatitudeDegrees>41.5214927494525909423828125</LatitudeDegrees>
              <LongitudeDegrees>-4.49812822043895721435546875</LongitudeDegrees>
            </Position>
            <AltitudeMeters>1331.4000244140625</AltitudeMeters>
            <DistanceMeters>28179.386342157</DistanceMeters>
          </Trackpoint>
          <Trackpoint>
            <Time>2023-02-23T12:48:49.000Z</Time>
            <Position>
              <LatitudeDegrees>41.52152024209499359130859375</LatitudeDegrees>
              <LongitudeDegrees>-4.498152025043964385986328125</LongitudeDegrees>
            </Position>
            <AltitudeMeters>1331.4000244140625</AltitudeMeters>
            <DistanceMeters>28183.03467502</DistanceMeters>
          </Trackpoint>
          <Trackpoint>
            <Time>2023-02-23T12:48:52.000Z</Time>
            <Position>
              <LatitudeDegrees>41.5215928293764591217041015625</LatitudeDegrees>
              <LongitudeDegrees>-4.49822771362960338592529296875</LongitudeDegrees>
            </Position>
            <AltitudeMeters>1331.4000244140625</AltitudeMeters>
            <DistanceMeters>28193.284353519</DistanceMeters>
          </Trackpoint>
          <Trackpoint>
            <Time>2023-02-23T12:48:55.000Z</Time>
            <Position>
              <LatitudeDegrees>41.5216729603707790374755859375</LatitudeDegrees>
              <LongitudeDegrees>-4.498294852674007415771484375</LongitudeDegrees>
            </Position>
            <AltitudeMeters>1331.5999755859375</AltitudeMeters>
            <DistanceMeters>28203.813467846</DistanceMeters>
          </Trackpoint>
          <Trackpoint>
            <Time>2023-02-23T12:49:00.000Z</Time>
            <Position>
              <LatitudeDegrees>41.521810255944728851318359375</LatitudeDegrees>
              <LongitudeDegrees>-4.498398788273334503173828125</LongitudeDegrees>
            </Position>
            <AltitudeMeters>1332</AltitudeMeters>
            <DistanceMeters>28221.378764653</DistanceMeters>
          </Trackpoint>
          <Trackpoint>
            <Time>2023-02-23T12:49:01.000Z</Time>
            <Position>
              <LatitudeDegrees>41.52183649130165576934814453125</LatitudeDegrees>
              <LongitudeDegrees>-4.4984177313745021820068359375</LongitudeDegrees>
            </Position>
            <AltitudeMeters>1332.199951171875</AltitudeMeters>
            <DistanceMeters>28224.699265118</DistanceMeters>
          </Trackpoint>
          <Trackpoint>
            <Time>2023-02-23T12:49:02.000Z</Time>
            <Position>
              <LatitudeDegrees>41.521864570677280426025390625</LatitudeDegrees>
              <LongitudeDegrees>-4.49843675829470157623291015625</LongitudeDegrees>
            </Position>
            <AltitudeMeters>1332.199951171875</AltitudeMeters>
            <DistanceMeters>28228.206253016</DistanceMeters>
          </Trackpoint>
          <Trackpoint>
            <Time>2023-02-23T12:49:08.000Z</Time>
            <Position>
              <LatitudeDegrees>41.522050313651561737060546875</LatitudeDegrees>
              <LongitudeDegrees>-4.49848202057182788848876953125</LongitudeDegrees>
            </Position>
            <AltitudeMeters>1332.199951171875</AltitudeMeters>
            <DistanceMeters>28249.221126763</DistanceMeters>
          </Trackpoint>
          <Trackpoint>
            <Time>2023-02-23T12:49:15.000Z</Time>
            <Position>
              <LatitudeDegrees>41.5222858451306819915771484375</LatitudeDegrees>
              <LongitudeDegrees>-4.49851001612842082977294921875</LongitudeDegrees>
            </Position>
            <AltitudeMeters>1332</AltitudeMeters>
            <DistanceMeters>28275.539924301</DistanceMeters>
          </Trackpoint>
          <Trackpoint>
            <Time>2023-02-23T12:49:24.000Z</Time>
            <Position>
              <LatitudeDegrees>41.52254090644419193267822265625</LatitudeDegrees>
              <LongitudeDegrees>-4.4986547715961933135986328125</LongitudeDegrees>
            </Position>
            <AltitudeMeters>1332.199951171875</AltitudeMeters>
            <DistanceMeters>28306.385133237</DistanceMeters>
          </Trackpoint>
          <Trackpoint>
            <Time>2023-02-23T12:49:30.000Z</Time>
            <Position>
              <LatitudeDegrees>41.52274425141513347625732421875</LatitudeDegrees>
              <LongitudeDegrees>-4.4987332262098789215087890625</LongitudeDegrees>
            </Position>
            <AltitudeMeters>1332</AltitudeMeters>
            <DistanceMeters>28329.942943791</DistanceMeters>
          </Trackpoint>
          <Trackpoint>
            <Time>2023-02-23T12:49:34.000Z</Time>
            <Position>
              <LatitudeDegrees>41.52288825251162052154541015625</LatitudeDegrees>
              <LongitudeDegrees>-4.4987310469150543212890625</LongitudeDegrees>
            </Position>
            <AltitudeMeters>1331.800048828125</AltitudeMeters>
            <DistanceMeters>28345.971784516</DistanceMeters>
          </Trackpoint>
          <Trackpoint>
            <Time>2023-02-23T12:49:38.000Z</Time>
            <Position>
              <LatitudeDegrees>41.52302755974233150482177734375</LatitudeDegrees>
              <LongitudeDegrees>-4.49872006662189960479736328125</LongitudeDegrees>
            </Position>
            <AltitudeMeters>1332.199951171875</AltitudeMeters>
            <DistanceMeters>28361.503929322</DistanceMeters>
          </Trackpoint>
          <Trackpoint>
            <Time>2023-02-23T12:49:41.000Z</Time>
            <Position>
              <LatitudeDegrees>41.523168124258518218994140625</LatitudeDegrees>
              <LongitudeDegrees>-4.49871621094644069671630859375</LongitudeDegrees>
            </Position>
            <AltitudeMeters>1332.199951171875</AltitudeMeters>
            <DistanceMeters>28377.151918101</DistanceMeters>
          </Trackpoint>
          <Trackpoint>
            <Time>2023-02-23T12:49:45.000Z</Time>
            <Position>
              <LatitudeDegrees>41.52331774123013019561767578125</LatitudeDegrees>
              <LongitudeDegrees>-4.49875309132039546966552734375</LongitudeDegrees>
            </Position>
            <AltitudeMeters>1331.4000244140625</AltitudeMeters>
            <DistanceMeters>28394.085881239</DistanceMeters>
          </Trackpoint>
          <Trackpoint>
            <Time>2023-02-23T12:49:50.000Z</Time>
            <Position>
              <LatitudeDegrees>41.52346082031726837158203125</LatitudeDegrees>
              <LongitudeDegrees>-4.49881981126964092254638671875</LongitudeDegrees>
            </Position>
            <AltitudeMeters>1331.5999755859375</AltitudeMeters>
            <DistanceMeters>28410.953591475</DistanceMeters>
          </Trackpoint>
          <Trackpoint>
            <Time>2023-02-23T12:49:52.000Z</Time>
            <Position>
              <LatitudeDegrees>41.5235178172588348388671875</LatitudeDegrees>
              <LongitudeDegrees>-4.49884713627398014068603515625</LongitudeDegrees>
            </Position>
            <AltitudeMeters>1332</AltitudeMeters>
            <DistanceMeters>28417.693792851</DistanceMeters>
          </Trackpoint>
          <Trackpoint>
            <Time>2023-02-23T12:49:53.000Z</Time>
            <Position>
              <LatitudeDegrees>41.5235491655766963958740234375</LatitudeDegrees>
              <LongitudeDegrees>-4.4988606311380863189697265625</LongitudeDegrees>
            </Position>
            <AltitudeMeters>1332</AltitudeMeters>
            <DistanceMeters>28421.359410636</DistanceMeters>
          </Trackpoint>
          <Trackpoint>
            <Time>2023-02-23T12:50:02.000Z</Time>
            <Position>
              <LatitudeDegrees>41.52383356355130672454833984375</LatitudeDegrees>
              <LongitudeDegrees>-4.4989977590739727020263671875</LongitudeDegrees>
            </Position>
            <AltitudeMeters>1332.199951171875</AltitudeMeters>
            <DistanceMeters>28455.012823355</DistanceMeters>
          </Trackpoint>
          <Trackpoint>
            <Time>2023-02-23T12:50:03.000Z</Time>
            <Position>
              <LatitudeDegrees>41.52386558242142200469970703125</LatitudeDegrees>
              <LongitudeDegrees>-4.49900538660585880279541015625</LongitudeDegrees>
            </Position>
            <AltitudeMeters>1332.199951171875</AltitudeMeters>
            <DistanceMeters>28458.633827497</DistanceMeters>
          </Trackpoint>
          <Trackpoint>
            <Time>2023-02-23T12:50:05.000Z</Time>
            <Position>
              <LatitudeDegrees>41.5239307098090648651123046875</LatitudeDegrees>
              <LongitudeDegrees>-4.49901477433741092681884765625</LongitudeDegrees>
            </Position>
            <AltitudeMeters>1332.199951171875</AltitudeMeters>
            <DistanceMeters>28465.924302787</DistanceMeters>
          </Trackpoint>
          <Trackpoint>
            <Time>2023-02-23T12:50:06.000Z</Time>
            <Position>
              <LatitudeDegrees>41.52396214194595813751220703125</LatitudeDegrees>
              <LongitudeDegrees>-4.4990178756415843963623046875</LongitudeDegrees>
            </Position>
            <AltitudeMeters>1332</AltitudeMeters>
            <DistanceMeters>28469.431290685</DistanceMeters>
          </Trackpoint>
          <Trackpoint>
            <Time>2023-02-23T12:50:10.000Z</Time>
            <Position>
              <LatitudeDegrees>41.52406540699303150177001953125</LatitudeDegrees>
              <LongitudeDegrees>-4.49902097694575786590576171875</LongitudeDegrees>
            </Position>
            <AltitudeMeters>1332</AltitudeMeters>
            <DistanceMeters>28480.927559594</DistanceMeters>
          </Trackpoint>
          <Trackpoint>
            <Time>2023-02-23T12:50:17.000Z</Time>
            <Position>
              <LatitudeDegrees>41.52426104061305522918701171875</LatitudeDegrees>
              <LongitudeDegrees>-4.499005638062953948974609375</LongitudeDegrees>
            </Position>
            <AltitudeMeters>1332.4000244140625</AltitudeMeters>
            <DistanceMeters>28502.739451019</DistanceMeters>
          </Trackpoint>
          <Trackpoint>
            <Time>2023-02-23T12:50:19.000Z</Time>
            <Position>
              <LatitudeDegrees>41.5243320353329181671142578125</LatitudeDegrees>
              <LongitudeDegrees>-4.49901175685226917266845703125</LongitudeDegrees>
            </Position>
            <AltitudeMeters>1332.5999755859375</AltitudeMeters>
            <DistanceMeters>28510.656950035</DistanceMeters>
          </Trackpoint>
          <Trackpoint>
            <Time>2023-02-23T12:50:20.000Z</Time>
            <Position>
              <LatitudeDegrees>41.5243672393262386322021484375</LatitudeDegrees>
              <LongitudeDegrees>-4.49901913292706012725830078125</LongitudeDegrees>
            </Position>
            <AltitudeMeters>1332.800048828125</AltitudeMeters>
            <DistanceMeters>28514.623106003</DistanceMeters>
          </Trackpoint>
          <Trackpoint>
            <Time>2023-02-23T12:50:22.000Z</Time>
            <Position>
              <LatitudeDegrees>41.52443186379969120025634765625</LatitudeDegrees>
              <LongitudeDegrees>-4.49903480708599090576171875</LongitudeDegrees>
            </Position>
            <AltitudeMeters>1333</AltitudeMeters>
            <DistanceMeters>28521.933372236</DistanceMeters>
          </Trackpoint>
          <Trackpoint>
            <Time>2023-02-23T12:50:24.000Z</Time>
            <Position>
              <LatitudeDegrees>41.52449187822639942169189453125</LatitudeDegrees>
              <LongitudeDegrees>-4.499049894511699676513671875</LongitudeDegrees>
            </Position>
            <AltitudeMeters>1333.199951171875</AltitudeMeters>
            <DistanceMeters>28528.729609505</DistanceMeters>
          </Trackpoint>
          <Trackpoint>
            <Time>2023-02-23T12:50:25.000Z</Time>
            <Position>
              <LatitudeDegrees>41.52451895177364349365234375</LatitudeDegrees>
              <LongitudeDegrees>-4.4990520738065242767333984375</LongitudeDegrees>
            </Position>
            <AltitudeMeters>1332.800048828125</AltitudeMeters>
            <DistanceMeters>28531.749605731</DistanceMeters>
          </Trackpoint>
          <Trackpoint>
            <Time>2023-02-23T12:50:26.000Z</Time>
            <Position>
              <LatitudeDegrees>41.5245424211025238037109375</LatitudeDegrees>
              <LongitudeDegrees>-4.4990408420562744140625</LongitudeDegrees>
            </Position>
            <AltitudeMeters>1332.800048828125</AltitudeMeters>
            <DistanceMeters>28534.523344207</DistanceMeters>
          </Trackpoint>
          <Trackpoint>
            <Time>2023-02-23T12:50:28.000Z</Time>
            <Position>
              <LatitudeDegrees>41.52456547133624553680419921875</LatitudeDegrees>
              <LongitudeDegrees>-4.4990232400596141815185546875</LongitudeDegrees>
            </Position>
            <AltitudeMeters>1332.5999755859375</AltitudeMeters>
            <DistanceMeters>28537.476825855</DistanceMeters>
          </Trackpoint>
          <Trackpoint>
            <Time>2023-02-23T12:50:31.000Z</Time>
            <Position>
              <LatitudeDegrees>41.52456413023173809051513671875</LatitudeDegrees>
              <LongitudeDegrees>-4.49902969412505626678466796875</LongitudeDegrees>
            </Position>
            <AltitudeMeters>1330.800048828125</AltitudeMeters>
            <DistanceMeters>28538.030922055</DistanceMeters>
          </Trackpoint>
          <Trackpoint>
            <Time>2023-02-23T12:50:36.000Z</Time>
            <Position>
              <LatitudeDegrees>41.52457100339233875274658203125</LatitudeDegrees>
              <LongitudeDegrees>-4.49903237633407115936279296875</LongitudeDegrees>
            </Position>
            <AltitudeMeters>1330.800048828125</AltitudeMeters>
            <DistanceMeters>28538.837250465</DistanceMeters>
          </Trackpoint>
          <Trackpoint>
            <Time>2023-02-23T12:50:38.000Z</Time>
            <Position>
              <LatitudeDegrees>41.5245828218758106231689453125</LatitudeDegrees>
              <LongitudeDegrees>-4.49903438799083232879638671875</LongitudeDegrees>
            </Position>
            <AltitudeMeters>1330.800048828125</AltitudeMeters>
            <DistanceMeters>28540.160819439</DistanceMeters>
          </Trackpoint>
          <Trackpoint>
            <Time>2023-02-23T12:50:41.000Z</Time>
            <Position>
              <LatitudeDegrees>41.5246240608394145965576171875</LatitudeDegrees>
              <LongitudeDegrees>-4.49904427863657474517822265625</LongitudeDegrees>
            </Position>
            <AltitudeMeters>1330.800048828125</AltitudeMeters>
            <DistanceMeters>28544.823911126</DistanceMeters>
          </Trackpoint>
          <Trackpoint>
            <Time>2023-02-23T12:50:43.000Z</Time>
            <Position>
              <LatitudeDegrees>41.52467007748782634735107421875</LatitudeDegrees>
              <LongitudeDegrees>-4.49904821813106536865234375</LongitudeDegrees>
            </Position>
            <AltitudeMeters>1330.800048828125</AltitudeMeters>
            <DistanceMeters>28549.957113154</DistanceMeters>
          </Trackpoint>
          <Trackpoint>
            <Time>2023-02-23T12:50:47.000Z</Time>
            <Position>
              <LatitudeDegrees>41.52477585710585117340087890625</LatitudeDegrees>
              <LongitudeDegrees>-4.49904419481754302978515625</LongitudeDegrees>
            </Position>
            <AltitudeMeters>1332.199951171875</AltitudeMeters>
            <DistanceMeters>28561.735443443</DistanceMeters>
          </Trackpoint>
          <Trackpoint>
            <Time>2023-02-23T12:50:54.000Z</Time>
            <Position>
              <LatitudeDegrees>41.524998061358928680419921875</LatitudeDegrees>
              <LongitudeDegrees>-4.4990493915975093841552734375</LongitudeDegrees>
            </Position>
            <AltitudeMeters>1332.4000244140625</AltitudeMeters>
            <DistanceMeters>28586.470880766</DistanceMeters>
          </Trackpoint>
          <Trackpoint>
            <Time>2023-02-23T12:51:01.000Z</Time>
            <Position>
              <LatitudeDegrees>41.5252225287258625030517578125</LatitudeDegrees>
              <LongitudeDegrees>-4.4990396685898303985595703125</LongitudeDegrees>
            </Position>
            <AltitudeMeters>1332.199951171875</AltitudeMeters>
            <DistanceMeters>28611.467783966</DistanceMeters>
          </Trackpoint>
          <Trackpoint>
            <Time>2023-02-23T12:51:08.000Z</Time>
            <Position>
              <LatitudeDegrees>41.52540818788111209869384765625</LatitudeDegrees>
              <LongitudeDegrees>-4.499005638062953948974609375</LongitudeDegrees>
            </Position>
            <AltitudeMeters>1332.4000244140625</AltitudeMeters>
            <DistanceMeters>28632.325877192</DistanceMeters>
          </Trackpoint>
          <Trackpoint>
            <Time>2023-02-23T12:51:14.000Z</Time>
            <Position>
              <LatitudeDegrees>41.52563718147575855255126953125</LatitudeDegrees>
              <LongitudeDegrees>-4.49900840409100055694580078125</LongitudeDegrees>
            </Position>
            <AltitudeMeters>1332.4000244140625</AltitudeMeters>
            <DistanceMeters>28657.814302402</DistanceMeters>
          </Trackpoint>
          <Trackpoint>
            <Time>2023-02-23T12:51:19.000Z</Time>
            <Position>
              <LatitudeDegrees>41.5257995389401912689208984375</LatitudeDegrees>
              <LongitudeDegrees>-4.49897152371704578399658203125</LongitudeDegrees>
            </Position>
            <AltitudeMeters>1331.199951171875</AltitudeMeters>
            <DistanceMeters>28676.144361985</DistanceMeters>
          </Trackpoint>
          <Trackpoint>
            <Time>2023-02-23T12:51:20.000Z</Time>
            <Position>
              <LatitudeDegrees>41.52583449147641658782958984375</LatitudeDegrees>
              <LongitudeDegrees>-4.49896414764225482940673828125</LongitudeDegrees>
            </Position>
            <AltitudeMeters>1330.800048828125</AltitudeMeters>
            <DistanceMeters>28680.0831018</DistanceMeters>
          </Trackpoint>
          <Trackpoint>
            <Time>2023-02-23T12:51:26.000Z</Time>
            <Position>
              <LatitudeDegrees>41.52604043483734130859375</LatitudeDegrees>
              <LongitudeDegrees>-4.49886448681354522705078125</LongitudeDegrees>
            </Position>
            <AltitudeMeters>1331.800048828125</AltitudeMeters>
            <DistanceMeters>28704.462964222</DistanceMeters>
          </Trackpoint>
          <Trackpoint>
            <Time>2023-02-23T12:51:28.000Z</Time>
            <Position>
              <LatitudeDegrees>41.52609902434051036834716796875</LatitudeDegrees>
              <LongitudeDegrees>-4.4988116808235645294189453125</LongitudeDegrees>
            </Position>
            <AltitudeMeters>1331.800048828125</AltitudeMeters>
            <DistanceMeters>28712.330120248</DistanceMeters>
          </Trackpoint>
          <Trackpoint>
            <Time>2023-02-23T12:51:29.000Z</Time>
            <Position>
              <LatitudeDegrees>41.5261267684400081634521484375</LatitudeDegrees>
              <LongitudeDegrees>-4.49878871440887451171875</LongitudeDegrees>
            </Position>
            <AltitudeMeters>1331.199951171875</AltitudeMeters>
            <DistanceMeters>28715.963572018</DistanceMeters>
          </Trackpoint>
          <Trackpoint>
            <Time>2023-02-23T12:51:30.000Z</Time>
            <Position>
              <LatitudeDegrees>41.52617395855486392974853515625</LatitudeDegrees>
              <LongitudeDegrees>-4.4987553544342517852783203125</LongitudeDegrees>
            </Position>
            <AltitudeMeters>1331</AltitudeMeters>
            <DistanceMeters>28721.907111287</DistanceMeters>
          </Trackpoint>
          <Trackpoint>
            <Time>2023-02-23T12:51:31.000Z</Time>
            <Position>
              <LatitudeDegrees>41.52620128355920314788818359375</LatitudeDegrees>
              <LongitudeDegrees>-4.49872995726764202117919921875</LongitudeDegrees>
            </Position>
            <AltitudeMeters>1330.800048828125</AltitudeMeters>
            <DistanceMeters>28725.611934656</DistanceMeters>
          </Trackpoint>
          <Trackpoint>
            <Time>2023-02-23T12:51:35.000Z</Time>
            <Position>
              <LatitudeDegrees>41.52633480727672576904296875</LatitudeDegrees>
              <LongitudeDegrees>-4.4986913166940212249755859375</LongitudeDegrees>
            </Position>
            <AltitudeMeters>1331</AltitudeMeters>
            <DistanceMeters>28740.817990602</DistanceMeters>
          </Trackpoint>
          <Trackpoint>
            <Time>2023-02-23T12:51:41.000Z</Time>
            <Position>
              <LatitudeDegrees>41.52655298821628093719482421875</LatitudeDegrees>
              <LongitudeDegrees>-4.4986909814178943634033203125</LongitudeDegrees>
            </Position>
            <AltitudeMeters>1332.199951171875</AltitudeMeters>
            <DistanceMeters>28765.101918253</DistanceMeters>
          </Trackpoint>
          <Trackpoint>
            <Time>2023-02-23T12:51:44.000Z</Time>
            <Position>
              <LatitudeDegrees>41.52666966430842876434326171875</LatitudeDegrees>
              <LongitudeDegrees>-4.498691819608211517333984375</LongitudeDegrees>
            </Position>
            <AltitudeMeters>1332.199951171875</AltitudeMeters>
            <DistanceMeters>28778.088632146</DistanceMeters>
          </Trackpoint>
          <Trackpoint>
            <Time>2023-02-23T12:51:48.000Z</Time>
            <Position>
              <LatitudeDegrees>41.52680813334882259368896484375</LatitudeDegrees>
              <LongitudeDegrees>-4.49868855066597461700439453125</LongitudeDegrees>
            </Position>
            <AltitudeMeters>1332</AltitudeMeters>
            <DistanceMeters>28793.50289085</DistanceMeters>
          </Trackpoint>
          <Trackpoint>
            <Time>2023-02-23T12:51:53.000Z</Time>
            <Position>
              <LatitudeDegrees>41.52697845362126827239990234375</LatitudeDegrees>
              <LongitudeDegrees>-4.4987013749778270721435546875</LongitudeDegrees>
            </Position>
            <AltitudeMeters>1331.199951171875</AltitudeMeters>
            <DistanceMeters>28812.490170064</DistanceMeters>
          </Trackpoint>
          <Trackpoint>
            <Time>2023-02-23T12:51:58.000Z</Time>
            <Position>
              <LatitudeDegrees>41.52714441530406475067138671875</LatitudeDegrees>
              <LongitudeDegrees>-4.4987593777477741241455078125</LongitudeDegrees>
            </Position>
            <AltitudeMeters>1330.800048828125</AltitudeMeters>
            <DistanceMeters>28831.583919729</DistanceMeters>
          </Trackpoint>
          <Trackpoint>
            <Time>2023-02-23T12:52:03.000Z</Time>
            <Position>
              <LatitudeDegrees>41.527278609573841094970703125</LatitudeDegrees>
              <LongitudeDegrees>-4.49879131279885768890380859375</LongitudeDegrees>
            </Position>
            <AltitudeMeters>1332</AltitudeMeters>
            <DistanceMeters>28846.755195829</DistanceMeters>
          </Trackpoint>
          <Trackpoint>
            <Time>2023-02-23T12:52:04.000Z</Time>
            <Position>
              <LatitudeDegrees>41.527318172156810760498046875</LatitudeDegrees>
              <LongitudeDegrees>-4.49879047460854053497314453125</LongitudeDegrees>
            </Position>
            <AltitudeMeters>1332.199951171875</AltitudeMeters>
            <DistanceMeters>28851.16037849</DistanceMeters>
          </Trackpoint>
          <Trackpoint>
            <Time>2023-02-23T12:52:11.000Z</Time>
            <Position>
              <LatitudeDegrees>41.5275724790990352630615234375</LatitudeDegrees>
              <LongitudeDegrees>-4.4988079927861690521240234375</LongitudeDegrees>
            </Position>
            <AltitudeMeters>1331.5999755859375</AltitudeMeters>
            <DistanceMeters>28879.502882619</DistanceMeters>
          </Trackpoint>
          <Trackpoint>
            <Time>2023-02-23T12:52:14.000Z</Time>
            <Position>
              <LatitudeDegrees>41.5276868082582950592041015625</LatitudeDegrees>
              <LongitudeDegrees>-4.49881830252707004547119140625</LongitudeDegrees>
            </Position>
            <AltitudeMeters>1331.800048828125</AltitudeMeters>
            <DistanceMeters>28892.257011247</DistanceMeters>
          </Trackpoint>
          <Trackpoint>
            <Time>2023-02-23T12:52:18.000Z</Time>
            <Position>
              <LatitudeDegrees>41.52782770805060863494873046875</LatitudeDegrees>
              <LongitudeDegrees>-4.49879047460854053497314453125</LongitudeDegrees>
            </Position>
            <AltitudeMeters>1331.800048828125</AltitudeMeters>
            <DistanceMeters>28908.109677503</DistanceMeters>
          </Trackpoint>
          <Trackpoint>
            <Time>2023-02-23T12:52:23.000Z</Time>
            <Position>
              <LatitudeDegrees>41.52799601666629314422607421875</LatitudeDegrees>
              <LongitudeDegrees>-4.49879474937915802001953125</LongitudeDegrees>
            </Position>
            <AltitudeMeters>1331.800048828125</AltitudeMeters>
            <DistanceMeters>28926.846092631</DistanceMeters>
          </Trackpoint>
          <Trackpoint>
            <Time>2023-02-23T12:52:25.000Z</Time>
            <Position>
              <LatitudeDegrees>41.528078578412532806396484375</LatitudeDegrees>
              <LongitudeDegrees>-4.49880824424326419830322265625</LongitudeDegrees>
            </Position>
            <AltitudeMeters>1331.800048828125</AltitudeMeters>
            <DistanceMeters>28936.104250418</DistanceMeters>
          </Trackpoint>
          <Trackpoint>
            <Time>2023-02-23T12:52:29.000Z</Time>
            <Position>
              <LatitudeDegrees>41.528241522610187530517578125</LatitudeDegrees>
              <LongitudeDegrees>-4.49884043075144290924072265625</LongitudeDegrees>
            </Position>
            <AltitudeMeters>1331.4000244140625</AltitudeMeters>
            <DistanceMeters>28954.437265588</DistanceMeters>
          </Trackpoint>
          <Trackpoint>
            <Time>2023-02-23T12:52:31.000Z</Time>
            <Position>
              <LatitudeDegrees>41.5283221565186977386474609375</LatitudeDegrees>
              <LongitudeDegrees>-4.4988586194813251495361328125</LongitudeDegrees>
            </Position>
            <AltitudeMeters>1331.5999755859375</AltitudeMeters>
            <DistanceMeters>28963.539019337</DistanceMeters>
          </Trackpoint>
          <Trackpoint>
            <Time>2023-02-23T12:52:37.000Z</Time>
            <Position>
              <LatitudeDegrees>41.52854469604790210723876953125</LatitudeDegrees>
              <LongitudeDegrees>-4.49891687370836734771728515625</LongitudeDegrees>
            </Position>
            <AltitudeMeters>1331.199951171875</AltitudeMeters>
            <DistanceMeters>28988.779302479</DistanceMeters>
          </Trackpoint>
          <Trackpoint>
            <Time>2023-02-23T12:52:38.000Z</Time>
            <Position>
              <LatitudeDegrees>41.5285791456699371337890625</LatitudeDegrees>
              <LongitudeDegrees>-4.498925171792507171630859375</LongitudeDegrees>
            </Position>
            <AltitudeMeters>1331</AltitudeMeters>
            <DistanceMeters>28992.676556459</DistanceMeters>
          </Trackpoint>
          <Trackpoint>
            <Time>2023-02-23T12:52:44.000Z</Time>
            <Position>
              <LatitudeDegrees>41.52878190390765666961669921875</LatitudeDegrees>
              <LongitudeDegrees>-4.4989065639674663543701171875</LongitudeDegrees>
            </Position>
            <AltitudeMeters>1331.4000244140625</AltitudeMeters>
            <DistanceMeters>29015.297306043</DistanceMeters>
          </Trackpoint>
          <Trackpoint>
            <Time>2023-02-23T12:52:50.000Z</Time>
            <Position>
              <LatitudeDegrees>41.528979130089282989501953125</LatitudeDegrees>
              <LongitudeDegrees>-4.49886716902256011962890625</LongitudeDegrees>
            </Position>
            <AltitudeMeters>1331.4000244140625</AltitudeMeters>
            <DistanceMeters>29037.493113768</DistanceMeters>
          </Trackpoint>
          <Trackpoint>
            <Time>2023-02-23T12:52:53.000Z</Time>
            <Position>
              <LatitudeDegrees>41.52908004820346832275390625</LatitudeDegrees>
              <LongitudeDegrees>-4.4988700188696384429931640625</LongitudeDegrees>
            </Position>
            <AltitudeMeters>1331.5999755859375</AltitudeMeters>
            <DistanceMeters>29048.727988424</DistanceMeters>
          </Trackpoint>
          <Trackpoint>
            <Time>2023-02-23T12:52:57.000Z</Time>
            <Position>
              <LatitudeDegrees>41.5292260609567165374755859375</LatitudeDegrees>
              <LongitudeDegrees>-4.4988877885043621063232421875</LongitudeDegrees>
            </Position>
            <AltitudeMeters>1331.199951171875</AltitudeMeters>
            <DistanceMeters>29065.047149385</DistanceMeters>
          </Trackpoint>
          <Trackpoint>
            <Time>2023-02-23T12:52:58.000Z</Time>
            <Position>
              <LatitudeDegrees>41.5292631089687347412109375</LatitudeDegrees>
              <LongitudeDegrees>-4.4988901354372501373291015625</LongitudeDegrees>
            </Position>
            <AltitudeMeters>1331.199951171875</AltitudeMeters>
            <DistanceMeters>29069.175073107</DistanceMeters>
          </Trackpoint>
          <Trackpoint>
            <Time>2023-02-23T12:53:04.000Z</Time>
            <Position>
              <LatitudeDegrees>41.5294838882982730865478515625</LatitudeDegrees>
              <LongitudeDegrees>-4.49890597723424434661865234375</LongitudeDegrees>
            </Position>
            <AltitudeMeters>1331.5999755859375</AltitudeMeters>
            <DistanceMeters>29093.78368982</DistanceMeters>
          </Trackpoint>
          <Trackpoint>
            <Time>2023-02-23T12:53:10.000Z</Time>
            <Position>
              <LatitudeDegrees>41.5297029912471771240234375</LatitudeDegrees>
              <LongitudeDegrees>-4.4989176280796527862548828125</LongitudeDegrees>
            </Position>
            <AltitudeMeters>1330.4000244140625</AltitudeMeters>
            <DistanceMeters>29118.189465825</DistanceMeters>
          </Trackpoint>
          <Trackpoint>
            <Time>2023-02-23T12:53:17.000Z</Time>
            <Position>
              <LatitudeDegrees>41.52998973615467548370361328125</LatitudeDegrees>
              <LongitudeDegrees>-4.49891771189868450164794921875</LongitudeDegrees>
            </Position>
            <AltitudeMeters>1331.199951171875</AltitudeMeters>
            <DistanceMeters>29150.104863721</DistanceMeters>
          </Trackpoint>
          <Trackpoint>
            <Time>2023-02-23T12:53:24.000Z</Time>
            <Position>
              <LatitudeDegrees>41.5301940031349658966064453125</LatitudeDegrees>
              <LongitudeDegrees>-4.49894361197948455810546875</LongitudeDegrees>
            </Position>
            <AltitudeMeters>1331.5999755859375</AltitudeMeters>
            <DistanceMeters>29172.942533376</DistanceMeters>
          </Trackpoint>
          <Trackpoint>
            <Time>2023-02-23T12:53:31.000Z</Time>
            <Position>
              <LatitudeDegrees>41.5304146148264408111572265625</LatitudeDegrees>
              <LongitudeDegrees>-4.4989260099828243255615234375</LongitudeDegrees>
            </Position>
            <AltitudeMeters>1330.4000244140625</AltitudeMeters>
            <DistanceMeters>29197.540689856</DistanceMeters>
          </Trackpoint>
          <Trackpoint>
            <Time>2023-02-23T12:53:35.000Z</Time>
            <Position>
              <LatitudeDegrees>41.5305644832551479339599609375</LatitudeDegrees>
              <LongitudeDegrees>-4.49892072938382625579833984375</LongitudeDegrees>
            </Position>
            <AltitudeMeters>1331</AltitudeMeters>
            <DistanceMeters>29214.226742325</DistanceMeters>
          </Trackpoint>
          <Trackpoint>
            <Time>2023-02-23T12:53:37.000Z</Time>
            <Position>
              <LatitudeDegrees>41.53064243495464324951171875</LatitudeDegrees>
              <LongitudeDegrees>-4.49890698306262493133544921875</LongitudeDegrees>
            </Position>
            <AltitudeMeters>1330.800048828125</AltitudeMeters>
            <DistanceMeters>29222.978491201</DistanceMeters>
          </Trackpoint>
          <Trackpoint>
            <Time>2023-02-23T12:53:44.000Z</Time>
            <Position>
              <LatitudeDegrees>41.530927084386348724365234375</LatitudeDegrees>
              <LongitudeDegrees>-4.49885317124426364898681640625</LongitudeDegrees>
            </Position>
            <AltitudeMeters>1330.4000244140625</AltitudeMeters>
            <DistanceMeters>29254.976259209</DistanceMeters>
          </Trackpoint>
          <Trackpoint>
            <Time>2023-02-23T12:53:51.000Z</Time>
            <Position>
              <LatitudeDegrees>41.53116974048316478729248046875</LatitudeDegrees>
              <LongitudeDegrees>-4.49891502968966960906982421875</LongitudeDegrees>
            </Position>
            <AltitudeMeters>1330.800048828125</AltitudeMeters>
            <DistanceMeters>29282.472005426</DistanceMeters>
          </Trackpoint>
          <Trackpoint>
            <Time>2023-02-23T12:53:52.000Z</Time>
            <Position>
              <LatitudeDegrees>41.531197316944599151611328125</LatitudeDegrees>
              <LongitudeDegrees>-4.498937912285327911376953125</LongitudeDegrees>
            </Position>
            <AltitudeMeters>1331</AltitudeMeters>
            <DistanceMeters>29286.08552041</DistanceMeters>
          </Trackpoint>
          <Trackpoint>
            <Time>2023-02-23T12:53:56.000Z</Time>
            <Position>
              <LatitudeDegrees>41.53132111765444278717041015625</LatitudeDegrees>
              <LongitudeDegrees>-4.499043859541416168212890625</LongitudeDegrees>
            </Position>
            <AltitudeMeters>1331</AltitudeMeters>
            <DistanceMeters>29302.449992507</DistanceMeters>
          </Trackpoint>
          <Trackpoint>
            <Time>2023-02-23T12:53:58.000Z</Time>
            <Position>
              <LatitudeDegrees>41.53136922977864742279052734375</LatitudeDegrees>
              <LongitudeDegrees>-4.499102197587490081787109375</LongitudeDegrees>
            </Position>
            <AltitudeMeters>1331</AltitudeMeters>
            <DistanceMeters>29309.682018693</DistanceMeters>
          </Trackpoint>
          <Trackpoint>
            <Time>2023-02-23T12:54:05.000Z</Time>
            <Position>
              <LatitudeDegrees>41.5315297432243824005126953125</LatitudeDegrees>
              <LongitudeDegrees>-4.4992659799754619598388671875</LongitudeDegrees>
            </Position>
            <AltitudeMeters>1330</AltitudeMeters>
            <DistanceMeters>29332.163017746</DistanceMeters>
          </Trackpoint>
          <Trackpoint>
            <Time>2023-02-23T12:54:10.000Z</Time>
            <Position>
              <LatitudeDegrees>41.5316477604210376739501953125</LatitudeDegrees>
              <LongitudeDegrees>-4.49941727332770824432373046875</LongitudeDegrees>
            </Position>
            <AltitudeMeters>1330</AltitudeMeters>
            <DistanceMeters>29350.368509385</DistanceMeters>
          </Trackpoint>
          <Trackpoint>
            <Time>2023-02-23T12:54:15.000Z</Time>
            <Position>
              <LatitudeDegrees>41.53173686005175113677978515625</LatitudeDegrees>
              <LongitudeDegrees>-4.49952003546059131622314453125</LongitudeDegrees>
            </Position>
            <AltitudeMeters>1330.199951171875</AltitudeMeters>
            <DistanceMeters>29363.470139937</DistanceMeters>
          </Trackpoint>
          <Trackpoint>
            <Time>2023-02-23T12:54:20.000Z</Time>
            <Position>
              <LatitudeDegrees>41.531839706003665924072265625</LatitudeDegrees>
              <LongitudeDegrees>-4.499622546136379241943359375</LongitudeDegrees>
            </Position>
            <AltitudeMeters>1330.199951171875</AltitudeMeters>
            <DistanceMeters>29377.752626656</DistanceMeters>
          </Trackpoint>
          <Trackpoint>
            <Time>2023-02-23T12:54:27.000Z</Time>
            <Position>
              <LatitudeDegrees>41.53197859413921833038330078125</LatitudeDegrees>
              <LongitudeDegrees>-4.499786160886287689208984375</LongitudeDegrees>
            </Position>
            <AltitudeMeters>1330.4000244140625</AltitudeMeters>
            <DistanceMeters>29398.363568318</DistanceMeters>
          </Trackpoint>
          <Trackpoint>
            <Time>2023-02-23T12:54:28.000Z</Time>
            <Position>
              <LatitudeDegrees>41.5319910831749439239501953125</LatitudeDegrees>
              <LongitudeDegrees>-4.499817676842212677001953125</LongitudeDegrees>
            </Position>
            <AltitudeMeters>1330.5999755859375</AltitudeMeters>
            <DistanceMeters>29401.335337953</DistanceMeters>
          </Trackpoint>
          <Trackpoint>
            <Time>2023-02-23T12:54:30.000Z</Time>
            <Position>
              <LatitudeDegrees>41.53201497159898281097412109375</LatitudeDegrees>
              <LongitudeDegrees>-4.499878026545047760009765625</LongitudeDegrees>
            </Position>
            <AltitudeMeters>1330.800048828125</AltitudeMeters>
            <DistanceMeters>29407.022668946</DistanceMeters>
          </Trackpoint>
          <Trackpoint>
            <Time>2023-02-23T12:54:33.000Z</Time>
            <Position>
              <LatitudeDegrees>41.5320740640163421630859375</LatitudeDegrees>
              <LongitudeDegrees>-4.49996310286223888397216796875</LongitudeDegrees>
            </Position>
            <AltitudeMeters>1330.800048828125</AltitudeMeters>
            <DistanceMeters>29416.693008736</DistanceMeters>
          </Trackpoint>
          <Trackpoint>
            <Time>2023-02-23T12:54:39.000Z</Time>
            <Position>
              <LatitudeDegrees>41.5321473218500614166259765625</LatitudeDegrees>
              <LongitudeDegrees>-4.5001195929944515228271484375</LongitudeDegrees>
            </Position>
            <AltitudeMeters>1330.4000244140625</AltitudeMeters>
            <DistanceMeters>29432.071196925</DistanceMeters>
          </Trackpoint>
          <Trackpoint>
            <Time>2023-02-23T12:54:43.000Z</Time>
            <Position>
              <LatitudeDegrees>41.532160229980945587158203125</LatitudeDegrees>
              <LongitudeDegrees>-4.50016778893768787384033203125</LongitudeDegrees>
            </Position>
            <AltitudeMeters>1330.4000244140625</AltitudeMeters>
            <DistanceMeters>29436.336827481</DistanceMeters>
          </Trackpoint>
          <Trackpoint>
            <Time>2023-02-23T12:54:45.000Z</Time>
            <Position>
              <LatitudeDegrees>41.5321733057498931884765625</LatitudeDegrees>
              <LongitudeDegrees>-4.500192515552043914794921875</LongitudeDegrees>
            </Position>
            <AltitudeMeters>1330.199951171875</AltitudeMeters>
            <DistanceMeters>29438.861750048</DistanceMeters>
          </Trackpoint>
          <Trackpoint>
            <Time>2023-02-23T12:54:54.000Z</Time>
            <Position>
              <LatitudeDegrees>41.532256789505481719970703125</LatitudeDegrees>
              <LongitudeDegrees>-4.50028412975370883941650390625</LongitudeDegrees>
            </Position>
            <AltitudeMeters>1330.4000244140625</AltitudeMeters>
            <DistanceMeters>29450.886666434</DistanceMeters>
          </Trackpoint>
          <Trackpoint>
            <Time>2023-02-23T12:54:57.000Z</Time>
            <Position>
              <LatitudeDegrees>41.53227665461599826812744140625</LatitudeDegrees>
              <LongitudeDegrees>-4.50031832791864871978759765625</LongitudeDegrees>
            </Position>
            <AltitudeMeters>1330.4000244140625</AltitudeMeters>
            <DistanceMeters>29454.492676706</DistanceMeters>
          </Trackpoint>
          <Trackpoint>
            <Time>2023-02-23T12:55:00.000Z</Time>
            <Position>
              <LatitudeDegrees>41.53229123912751674652099609375</LatitudeDegrees>
              <LongitudeDegrees>-4.50035579502582550048828125</LongitudeDegrees>
            </Position>
            <AltitudeMeters>1330</AltitudeMeters>
            <DistanceMeters>29458.009949048</DistanceMeters>
          </Trackpoint>
          <Trackpoint>
            <Time>2023-02-23T12:55:06.000Z</Time>
            <Position>
              <LatitudeDegrees>41.53235963545739650726318359375</LatitudeDegrees>
              <LongitudeDegrees>-4.5004342496395111083984375</LongitudeDegrees>
            </Position>
            <AltitudeMeters>1329.800048828125</AltitudeMeters>
            <DistanceMeters>29468.044158152</DistanceMeters>
          </Trackpoint>
          <Trackpoint>
            <Time>2023-02-23T12:55:07.000Z</Time>
            <Position>
              <LatitudeDegrees>41.53236868791282176971435546875</LatitudeDegrees>
              <LongitudeDegrees>-4.50044238008558750152587890625</LongitudeDegrees>
            </Position>
            <AltitudeMeters>1330.199951171875</AltitudeMeters>
            <DistanceMeters>29469.257378025</DistanceMeters>
          </Trackpoint>
          <Trackpoint>
            <Time>2023-02-23T12:55:08.000Z</Time>
            <Position>
              <LatitudeDegrees>41.5323763154447078704833984375</LatitudeDegrees>
              <LongitudeDegrees>-4.500452689826488494873046875</LongitudeDegrees>
            </Position>
            <AltitudeMeters>1330.4000244140625</AltitudeMeters>
            <DistanceMeters>29470.466870639</DistanceMeters>
          </Trackpoint>
          <Trackpoint>
            <Time>2023-02-23T12:55:10.000Z</Time>
            <Position>
              <LatitudeDegrees>41.5323878824710845947265625</LatitudeDegrees>
              <LongitudeDegrees>-4.50047289021313190460205078125</LongitudeDegrees>
            </Position>
            <AltitudeMeters>1330.800048828125</AltitudeMeters>
            <DistanceMeters>29472.587478587</DistanceMeters>
          </Trackpoint>
          <Trackpoint>
            <Time>2023-02-23T12:55:11.000Z</Time>
            <Position>
              <LatitudeDegrees>41.53239685110747814178466796875</LatitudeDegrees>
              <LongitudeDegrees>-4.50048747472465038299560546875</LongitudeDegrees>
            </Position>
            <AltitudeMeters>1331.199951171875</AltitudeMeters>
            <DistanceMeters>29474.160450598</DistanceMeters>
          </Trackpoint>
          <Trackpoint>
            <Time>2023-02-23T12:55:12.000Z</Time>
            <Position>
              <LatitudeDegrees>41.53240439482033252716064453125</LatitudeDegrees>
              <LongitudeDegrees>-4.500503651797771453857421875</LongitudeDegrees>
            </Position>
            <AltitudeMeters>1331.4000244140625</AltitudeMeters>
            <DistanceMeters>29475.750551665</DistanceMeters>
          </Trackpoint>
          <Trackpoint>
            <Time>2023-02-23T12:55:13.000Z</Time>
            <Position>
              <LatitudeDegrees>41.5324108488857746124267578125</LatitudeDegrees>
              <LongitudeDegrees>-4.50051848776638507843017578125</LongitudeDegrees>
            </Position>
            <AltitudeMeters>1331.5999755859375</AltitudeMeters>
            <DistanceMeters>29477.179116426</DistanceMeters>
          </Trackpoint>
          <Trackpoint>
            <Time>2023-02-23T12:55:19.000Z</Time>
            <Position>
              <LatitudeDegrees>41.53245032764971256256103515625</LatitudeDegrees>
              <LongitudeDegrees>-4.5006087608635425567626953125</LongitudeDegrees>
            </Position>
            <AltitudeMeters>1331.800048828125</AltitudeMeters>
            <DistanceMeters>29485.890532065</DistanceMeters>
          </Trackpoint>
          <Trackpoint>
            <Time>2023-02-23T12:55:20.000Z</Time>
            <Position>
              <LatitudeDegrees>41.53246055357158184051513671875</LatitudeDegrees>
              <LongitudeDegrees>-4.5006235130131244659423828125</LongitudeDegrees>
            </Position>
            <AltitudeMeters>1332</AltitudeMeters>
            <DistanceMeters>29487.5690385</DistanceMeters>
          </Trackpoint>
          <Trackpoint>
            <Time>2023-02-23T12:55:22.000Z</Time>
            <Position>
              <LatitudeDegrees>41.5324802510440349578857421875</LatitudeDegrees>
              <LongitudeDegrees>-4.50064488686621189117431640625</LongitudeDegrees>
            </Position>
            <AltitudeMeters>1332.199951171875</AltitudeMeters>
            <DistanceMeters>29490.394385837</DistanceMeters>
          </Trackpoint>
          <Trackpoint>
            <Time>2023-02-23T12:55:26.000Z</Time>
            <Position>
              <LatitudeDegrees>41.53251905925571918487548828125</LatitudeDegrees>
              <LongitudeDegrees>-4.50067925266921520233154296875</LongitudeDegrees>
            </Position>
            <AltitudeMeters>1332.800048828125</AltitudeMeters>
            <DistanceMeters>29495.576610007</DistanceMeters>
          </Trackpoint>
          <Trackpoint>
            <Time>2023-02-23T12:55:31.000Z</Time>
            <Position>
              <LatitudeDegrees>41.53256214223802089691162109375</LatitudeDegrees>
              <LongitudeDegrees>-4.50074245221912860870361328125</LongitudeDegrees>
            </Position>
            <AltitudeMeters>1333</AltitudeMeters>
            <DistanceMeters>29502.699177624</DistanceMeters>
          </Trackpoint>
          <Trackpoint>
            <Time>2023-02-23T12:55:32.000Z</Time>
            <Position>
              <LatitudeDegrees>41.53256733901798725128173828125</LatitudeDegrees>
              <LongitudeDegrees>-4.50075686909258365631103515625</LongitudeDegrees>
            </Position>
            <AltitudeMeters>1333</AltitudeMeters>
            <DistanceMeters>29504.032941118</DistanceMeters>
          </Trackpoint>
          <Trackpoint>
            <Time>2023-02-23T12:55:33.000Z</Time>
            <Position>
              <LatitudeDegrees>41.5325717814266681671142578125</LatitudeDegrees>
              <LongitudeDegrees>-4.5007737167179584503173828125</LongitudeDegrees>
            </Position>
            <AltitudeMeters>1333</AltitudeMeters>
            <DistanceMeters>29505.523376895</DistanceMeters>
          </Trackpoint>
          <Trackpoint>
            <Time>2023-02-23T12:55:34.000Z</Time>
            <Position>
              <LatitudeDegrees>41.532579995691776275634765625</LatitudeDegrees>
              <LongitudeDegrees>-4.50079425238072872161865234375</LongitudeDegrees>
            </Position>
            <AltitudeMeters>1332.4000244140625</AltitudeMeters>
            <DistanceMeters>29507.461549179</DistanceMeters>
          </Trackpoint>
          <Trackpoint>
            <Time>2023-02-23T12:55:35.000Z</Time>
            <Position>
              <LatitudeDegrees>41.53259080834686756134033203125</LatitudeDegrees>
              <LongitudeDegrees>-4.5008075796067714691162109375</LongitudeDegrees>
            </Position>
            <AltitudeMeters>1332</AltitudeMeters>
            <DistanceMeters>29509.101964608</DistanceMeters>
          </Trackpoint>
          <Trackpoint>
            <Time>2023-02-23T12:55:37.000Z</Time>
            <Position>
              <LatitudeDegrees>41.53261427767574787139892578125</LatitudeDegrees>
              <LongitudeDegrees>-4.50083917938172817230224609375</LongitudeDegrees>
            </Position>
            <AltitudeMeters>1331.4000244140625</AltitudeMeters>
            <DistanceMeters>29512.811659542</DistanceMeters>
          </Trackpoint>
          <Trackpoint>
            <Time>2023-02-23T12:55:38.000Z</Time>
            <Position>
              <LatitudeDegrees>41.53262794017791748046875</LatitudeDegrees>
              <LongitudeDegrees>-4.500856697559356689453125</LongitudeDegrees>
            </Position>
            <AltitudeMeters>1331.4000244140625</AltitudeMeters>
            <DistanceMeters>29514.919454031</DistanceMeters>
          </Trackpoint>
          <Trackpoint>
            <Time>2023-02-23T12:55:44.000Z</Time>
            <Position>
              <LatitudeDegrees>41.532696001231670379638671875</LatitudeDegrees>
              <LongitudeDegrees>-4.50101352296769618988037109375</LongitudeDegrees>
            </Position>
            <AltitudeMeters>1332</AltitudeMeters>
            <DistanceMeters>29530.023022852</DistanceMeters>
          </Trackpoint>
          <Trackpoint>
            <Time>2023-02-23T12:55:49.000Z</Time>
            <Position>
              <LatitudeDegrees>41.53274838812649250030517578125</LatitudeDegrees>
              <LongitudeDegrees>-4.50119809247553348541259765625</LongitudeDegrees>
            </Position>
            <AltitudeMeters>1331.800048828125</AltitudeMeters>
            <DistanceMeters>29546.46896003</DistanceMeters>
          </Trackpoint>
          <Trackpoint>
            <Time>2023-02-23T12:55:53.000Z</Time>
            <Position>
              <LatitudeDegrees>41.532816700637340545654296875</LatitudeDegrees>
              <LongitudeDegrees>-4.5013470388948917388916015625</LongitudeDegrees>
            </Position>
            <AltitudeMeters>1331.199951171875</AltitudeMeters>
            <DistanceMeters>29561.022945846</DistanceMeters>
          </Trackpoint>
          <Trackpoint>
            <Time>2023-02-23T12:55:56.000Z</Time>
            <Position>
              <LatitudeDegrees>41.53287746943533420562744140625</LatitudeDegrees>
              <LongitudeDegrees>-4.50144477188587188720703125</LongitudeDegrees>
            </Position>
            <AltitudeMeters>1331.199951171875</AltitudeMeters>
            <DistanceMeters>29571.608938888</DistanceMeters>
          </Trackpoint>
          <Trackpoint>
            <Time>2023-02-23T12:55:57.000Z</Time>
            <Position>
              <LatitudeDegrees>41.5328980050981044769287109375</LatitudeDegrees>
              <LongitudeDegrees>-4.5014803111553192138671875</LongitudeDegrees>
            </Position>
            <AltitudeMeters>1331</AltitudeMeters>
            <DistanceMeters>29575.350144374</DistanceMeters>
          </Trackpoint>
          <Trackpoint>
            <Time>2023-02-23T12:56:05.000Z</Time>
            <Position>
              <LatitudeDegrees>41.53302063234150409698486328125</LatitudeDegrees>
              <LongitudeDegrees>-4.50178599916398525238037109375</LongitudeDegrees>
            </Position>
            <AltitudeMeters>1330.800048828125</AltitudeMeters>
            <DistanceMeters>29604.24592293</DistanceMeters>
          </Trackpoint>
          <Trackpoint>
            <Time>2023-02-23T12:56:11.000Z</Time>
            <Position>
              <LatitudeDegrees>41.53310998342931270599365234375</LatitudeDegrees>
              <LongitudeDegrees>-4.50203058309853076934814453125</LongitudeDegrees>
            </Position>
            <AltitudeMeters>1330.800048828125</AltitudeMeters>
            <DistanceMeters>29626.921296195</DistanceMeters>
          </Trackpoint>
          <Trackpoint>
            <Time>2023-02-23T12:56:16.000Z</Time>
            <Position>
              <LatitudeDegrees>41.5331943891942501068115234375</LatitudeDegrees>
              <LongitudeDegrees>-4.5021674595773220062255859375</LongitudeDegrees>
            </Position>
            <AltitudeMeters>1330.5999755859375</AltitudeMeters>
            <DistanceMeters>29641.696651626</DistanceMeters>
          </Trackpoint>
          <Trackpoint>
            <Time>2023-02-23T12:56:22.000Z</Time>
            <Position>
              <LatitudeDegrees>41.5332956425845623016357421875</LatitudeDegrees>
              <LongitudeDegrees>-4.502341635525226593017578125</LongitudeDegrees>
            </Position>
            <AltitudeMeters>1330.4000244140625</AltitudeMeters>
            <DistanceMeters>29660.070749373</DistanceMeters>
          </Trackpoint>
          <Trackpoint>
            <Time>2023-02-23T12:56:24.000Z</Time>
            <Position>
              <LatitudeDegrees>41.5333238057792186737060546875</LatitudeDegrees>
              <LongitudeDegrees>-4.50241782702505588531494140625</LongitudeDegrees>
            </Position>
            <AltitudeMeters>1330.199951171875</AltitudeMeters>
            <DistanceMeters>29667.151355591</DistanceMeters>
          </Trackpoint>
          <Trackpoint>
            <Time>2023-02-23T12:56:25.000Z</Time>
            <Position>
              <LatitudeDegrees>41.5333375521004199981689453125</LatitudeDegrees>
              <LongitudeDegrees>-4.50245487503707408905029296875</LongitudeDegrees>
            </Position>
            <AltitudeMeters>1330.199951171875</AltitudeMeters>
            <DistanceMeters>29670.595992067</DistanceMeters>
          </Trackpoint>
          <Trackpoint>
            <Time>2023-02-23T12:56:29.000Z</Time>
            <Position>
              <LatitudeDegrees>41.533398739993572235107421875</LatitudeDegrees>
              <LongitudeDegrees>-4.5025982894003391265869140625</LongitudeDegrees>
            </Position>
            <AltitudeMeters>1330.199951171875</AltitudeMeters>
            <DistanceMeters>29684.3489547</DistanceMeters>
          </Trackpoint>
          <Trackpoint>
            <Time>2023-02-23T12:56:34.000Z</Time>
            <Position>
              <LatitudeDegrees>41.5334317646920680999755859375</LatitudeDegrees>
              <LongitudeDegrees>-4.50278847478330135345458984375</LongitudeDegrees>
            </Position>
            <AltitudeMeters>1330.199951171875</AltitudeMeters>
            <DistanceMeters>29700.615463236</DistanceMeters>
          </Trackpoint>
          <Trackpoint>
            <Time>2023-02-23T12:56:35.000Z</Time>
            <Position>
              <LatitudeDegrees>41.53343386016786098480224609375</LatitudeDegrees>
              <LongitudeDegrees>-4.50283189304172992706298828125</LongitudeDegrees>
            </Position>
            <AltitudeMeters>1330.199951171875</AltitudeMeters>
            <DistanceMeters>29704.241451557</DistanceMeters>
          </Trackpoint>
          <Trackpoint>
            <Time>2023-02-23T12:56:42.000Z</Time>
            <Position>
              <LatitudeDegrees>41.53344894759356975555419921875</LatitudeDegrees>
              <LongitudeDegrees>-4.50312106870114803314208984375</LongitudeDegrees>
            </Position>
            <AltitudeMeters>1330</AltitudeMeters>
            <DistanceMeters>29728.393384152</DistanceMeters>
          </Trackpoint>
          <Trackpoint>
            <Time>2023-02-23T12:56:48.000Z</Time>
            <Position>
              <LatitudeDegrees>41.53346336446702480316162109375</LatitudeDegrees>
              <LongitudeDegrees>-4.5033660717308521270751953125</LongitudeDegrees>
            </Position>
            <AltitudeMeters>1329.4000244140625</AltitudeMeters>
            <DistanceMeters>29748.869381058</DistanceMeters>
          </Trackpoint>
          <Trackpoint>
            <Time>2023-02-23T12:56:50.000Z</Time>
            <Position>
              <LatitudeDegrees>41.53347040526568889617919921875</LatitudeDegrees>
              <LongitudeDegrees>-4.503442347049713134765625</LongitudeDegrees>
            </Position>
            <AltitudeMeters>1329.4000244140625</AltitudeMeters>
            <DistanceMeters>29755.272940781</DistanceMeters>
          </Trackpoint>
          <Trackpoint>
            <Time>2023-02-23T12:56:55.000Z</Time>
            <Position>
              <LatitudeDegrees>41.5334753505885601043701171875</LatitudeDegrees>
              <LongitudeDegrees>-4.50364493764936923980712890625</LongitudeDegrees>
            </Position>
            <AltitudeMeters>1330</AltitudeMeters>
            <DistanceMeters>29772.160981946</DistanceMeters>
          </Trackpoint>
          <Trackpoint>
            <Time>2023-02-23T12:56:57.000Z</Time>
            <Position>
              <LatitudeDegrees>41.5334649570286273956298828125</LatitudeDegrees>
              <LongitudeDegrees>-4.50374300591647624969482421875</LongitudeDegrees>
            </Position>
            <AltitudeMeters>1330.199951171875</AltitudeMeters>
            <DistanceMeters>29780.413547399</DistanceMeters>
          </Trackpoint>
          <Trackpoint>
            <Time>2023-02-23T12:57:02.000Z</Time>
            <Position>
              <LatitudeDegrees>41.53348314575850963592529296875</LatitudeDegrees>
              <LongitudeDegrees>-4.50395842082798480987548828125</LongitudeDegrees>
            </Position>
            <AltitudeMeters>1331</AltitudeMeters>
            <DistanceMeters>29798.475123786</DistanceMeters>
          </Trackpoint>
          <Trackpoint>
            <Time>2023-02-23T12:57:04.000Z</Time>
            <Position>
              <LatitudeDegrees>41.53349471278488636016845703125</LatitudeDegrees>
              <LongitudeDegrees>-4.5040269009768962860107421875</LongitudeDegrees>
            </Position>
            <AltitudeMeters>1331.199951171875</AltitudeMeters>
            <DistanceMeters>29804.323707339</DistanceMeters>
          </Trackpoint>
          <Trackpoint>
            <Time>2023-02-23T12:57:05.000Z</Time>
            <Position>
              <LatitudeDegrees>41.53349840082228183746337890625</LatitudeDegrees>
              <LongitudeDegrees>-4.504064284265041351318359375</LongitudeDegrees>
            </Position>
            <AltitudeMeters>1331.199951171875</AltitudeMeters>
            <DistanceMeters>29807.463905338</DistanceMeters>
          </Trackpoint>
          <Trackpoint>
            <Time>2023-02-23T12:57:11.000Z</Time>
            <Position>
              <LatitudeDegrees>41.53349203057587146759033203125</LatitudeDegrees>
              <LongitudeDegrees>-4.50430593453347682952880859375</LongitudeDegrees>
            </Position>
            <AltitudeMeters>1331</AltitudeMeters>
            <DistanceMeters>29827.610017019</DistanceMeters>
          </Trackpoint>
          <Trackpoint>
            <Time>2023-02-23T12:57:16.000Z</Time>
            <Position>
              <LatitudeDegrees>41.53350242413580417633056640625</LatitudeDegrees>
              <LongitudeDegrees>-4.50448346324265003204345703125</LongitudeDegrees>
            </Position>
            <AltitudeMeters>1331</AltitudeMeters>
            <DistanceMeters>29842.446666691</DistanceMeters>
          </Trackpoint>
          <Trackpoint>
            <Time>2023-02-23T12:57:17.000Z</Time>
            <Position>
              <LatitudeDegrees>41.5335004962980747222900390625</LatitudeDegrees>
              <LongitudeDegrees>-4.50452034361660480499267578125</LongitudeDegrees>
            </Position>
            <AltitudeMeters>1331</AltitudeMeters>
            <DistanceMeters>29845.52881536</DistanceMeters>
          </Trackpoint>
          <Trackpoint>
            <Time>2023-02-23T12:57:22.000Z</Time>
            <Position>
              <LatitudeDegrees>41.5334921143949031829833984375</LatitudeDegrees>
              <LongitudeDegrees>-4.5047386921942234039306640625</LongitudeDegrees>
            </Position>
            <AltitudeMeters>1331</AltitudeMeters>
            <DistanceMeters>29863.745215914</DistanceMeters>
          </Trackpoint>
          <Trackpoint>
            <Time>2023-02-23T12:57:23.000Z</Time>
            <Position>
              <LatitudeDegrees>41.53349437750875949859619140625</LatitudeDegrees>
              <LongitudeDegrees>-4.504779763519763946533203125</LongitudeDegrees>
            </Position>
            <AltitudeMeters>1331</AltitudeMeters>
            <DistanceMeters>29867.176719912</DistanceMeters>
          </Trackpoint>
          <Trackpoint>
            <Time>2023-02-23T12:57:28.000Z</Time>
            <Position>
              <LatitudeDegrees>41.53350661508738994598388671875</LatitudeDegrees>
              <LongitudeDegrees>-4.50497698970139026641845703125</LongitudeDegrees>
            </Position>
            <AltitudeMeters>1330.800048828125</AltitudeMeters>
            <DistanceMeters>29883.66542943</DistanceMeters>
          </Trackpoint>
          <Trackpoint>
            <Time>2023-02-23T12:57:30.000Z</Time>
            <Position>
              <LatitudeDegrees>41.5335075370967388153076171875</LatitudeDegrees>
              <LongitudeDegrees>-4.5050610601902008056640625</LongitudeDegrees>
            </Position>
            <AltitudeMeters>1330.5999755859375</AltitudeMeters>
            <DistanceMeters>29890.670387345</DistanceMeters>
          </Trackpoint>
          <Trackpoint>
            <Time>2023-02-23T12:57:32.000Z</Time>
            <Position>
              <LatitudeDegrees>41.5335065312683582305908203125</LatitudeDegrees>
              <LongitudeDegrees>-4.5051554404199123382568359375</LongitudeDegrees>
            </Position>
            <AltitudeMeters>1330.5999755859375</AltitudeMeters>
            <DistanceMeters>29898.535247397</DistanceMeters>
          </Trackpoint>
          <Trackpoint>
            <Time>2023-02-23T12:57:34.000Z</Time>
            <Position>
              <LatitudeDegrees>41.53351667337119579315185546875</LatitudeDegrees>
              <LongitudeDegrees>-4.5052422769367694854736328125</LongitudeDegrees>
            </Position>
            <AltitudeMeters>1330.199951171875</AltitudeMeters>
            <DistanceMeters>29905.85847237</DistanceMeters>
          </Trackpoint>
          <Trackpoint>
            <Time>2023-02-23T12:57:35.000Z</Time>
            <Position>
              <LatitudeDegrees>41.5335197746753692626953125</LatitudeDegrees>
              <LongitudeDegrees>-4.50527940876781940460205078125</LongitudeDegrees>
            </Position>
            <AltitudeMeters>1330.199951171875</AltitudeMeters>
            <DistanceMeters>29908.972682077</DistanceMeters>
          </Trackpoint>
          <Trackpoint>
            <Time>2023-02-23T12:57:36.000Z</Time>
            <Position>
              <LatitudeDegrees>41.53352203778922557830810546875</LatitudeDegrees>
              <LongitudeDegrees>-4.50531528331339359283447265625</LongitudeDegrees>
            </Position>
            <AltitudeMeters>1330.4000244140625</AltitudeMeters>
            <DistanceMeters>29911.974684124</DistanceMeters>
          </Trackpoint>
          <Trackpoint>
            <Time>2023-02-23T12:57:42.000Z</Time>
            <Position>
              <LatitudeDegrees>41.53353259898722171783447265625</LatitudeDegrees>
              <LongitudeDegrees>-4.50556757859885692596435546875</LongitudeDegrees>
            </Position>
            <AltitudeMeters>1330.800048828125</AltitudeMeters>
            <DistanceMeters>29933.027980832</DistanceMeters>
          </Trackpoint>
          <Trackpoint>
            <Time>2023-02-23T12:57:44.000Z</Time>
            <Position>
              <LatitudeDegrees>41.53353310190141201019287109375</LatitudeDegrees>
              <LongitudeDegrees>-4.5056583546102046966552734375</LongitudeDegrees>
            </Position>
            <AltitudeMeters>1331</AltitudeMeters>
            <DistanceMeters>29940.590817879</DistanceMeters>
          </Trackpoint>
          <Trackpoint>
            <Time>2023-02-23T12:57:48.000Z</Time>
            <Position>
              <LatitudeDegrees>41.53355858288705348968505859375</LatitudeDegrees>
              <LongitudeDegrees>-4.5058444328606128692626953125</LongitudeDegrees>
            </Position>
            <AltitudeMeters>1330.800048828125</AltitudeMeters>
            <DistanceMeters>29956.351507674</DistanceMeters>
          </Trackpoint>
          <Trackpoint>
            <Time>2023-02-23T12:57:54.000Z</Time>
            <Position>
              <LatitudeDegrees>41.53363150544464588165283203125</LatitudeDegrees>
              <LongitudeDegrees>-4.50613587163388729095458984375</LongitudeDegrees>
            </Position>
            <AltitudeMeters>1329.199951171875</AltitudeMeters>
            <DistanceMeters>29981.953757358</DistanceMeters>
          </Trackpoint>
          <Trackpoint>
            <Time>2023-02-23T12:57:56.000Z</Time>
            <Position>
              <LatitudeDegrees>41.5336533822119235992431640625</LatitudeDegrees>
              <LongitudeDegrees>-4.50622874312102794647216796875</LongitudeDegrees>
            </Position>
            <AltitudeMeters>1329.199951171875</AltitudeMeters>
            <DistanceMeters>29990.066167427</DistanceMeters>
          </Trackpoint>
          <Trackpoint>
            <Time>2023-02-23T12:57:58.000Z</Time>
            <Position>
              <LatitudeDegrees>41.53367190621793270111083984375</LatitudeDegrees>
              <LongitudeDegrees>-4.50632815249264240264892578125</LongitudeDegrees>
            </Position>
            <AltitudeMeters>1329</AltitudeMeters>
            <DistanceMeters>29998.60219032</DistanceMeters>
          </Trackpoint>
          <Trackpoint>
            <Time>2023-02-23T12:57:59.000Z</Time>
            <Position>
              <LatitudeDegrees>41.533681042492389678955078125</LatitudeDegrees>
              <LongitudeDegrees>-4.5063753426074981689453125</LongitudeDegrees>
            </Position>
            <AltitudeMeters>1329.800048828125</AltitudeMeters>
            <DistanceMeters>30002.663957135</DistanceMeters>
          </Trackpoint>
          <Trackpoint>
            <Time>2023-02-23T12:58:00.000Z</Time>
            <Position>
              <LatitudeDegrees>41.53368917293846607208251953125</LatitudeDegrees>
              <LongitudeDegrees>-4.5064197666943073272705078125</LongitudeDegrees>
            </Position>
            <AltitudeMeters>1330.199951171875</AltitudeMeters>
            <DistanceMeters>30006.474516533</DistanceMeters>
          </Trackpoint>
          <Trackpoint>
            <Time>2023-02-23T12:58:01.000Z</Time>
            <Position>
              <LatitudeDegrees>41.5336983092129230499267578125</LatitudeDegrees>
              <LongitudeDegrees>-4.5064613409340381622314453125</LongitudeDegrees>
            </Position>
            <AltitudeMeters>1330.4000244140625</AltitudeMeters>
            <DistanceMeters>30010.085531679</DistanceMeters>
          </Trackpoint>
          <Trackpoint>
            <Time>2023-02-23T12:58:08.000Z</Time>
            <Position>
              <LatitudeDegrees>41.533753462135791778564453125</LatitudeDegrees>
              <LongitudeDegrees>-4.50678127817809581756591796875</LongitudeDegrees>
            </Position>
            <AltitudeMeters>1329.199951171875</AltitudeMeters>
            <DistanceMeters>30037.439363845</DistanceMeters>
          </Trackpoint>
          <Trackpoint>
            <Time>2023-02-23T12:58:10.000Z</Time>
            <Position>
              <LatitudeDegrees>41.53376930393278598785400390625</LatitudeDegrees>
              <LongitudeDegrees>-4.506875574588775634765625</LongitudeDegrees>
            </Position>
            <AltitudeMeters>1329.199951171875</AltitudeMeters>
            <DistanceMeters>30045.491441146</DistanceMeters>
          </Trackpoint>
          <Trackpoint>
            <Time>2023-02-23T12:58:13.000Z</Time>
            <Position>
              <LatitudeDegrees>41.53379805386066436767578125</LatitudeDegrees>
              <LongitudeDegrees>-4.50694707222282886505126953125</LongitudeDegrees>
            </Position>
            <AltitudeMeters>1329.5999755859375</AltitudeMeters>
            <DistanceMeters>30052.253712001</DistanceMeters>
          </Trackpoint>
          <Trackpoint>
            <Time>2023-02-23T12:58:16.000Z</Time>
            <Position>
              <LatitudeDegrees>41.53379009105265140533447265625</LatitudeDegrees>
              <LongitudeDegrees>-4.50695260427892208099365234375</LongitudeDegrees>
            </Position>
            <AltitudeMeters>1330</AltitudeMeters>
            <DistanceMeters>30053.254880561</DistanceMeters>
          </Trackpoint>
          <Trackpoint>
            <Time>2023-02-23T12:58:18.000Z</Time>
            <Position>
              <LatitudeDegrees>41.5337874926626682281494140625</LatitudeDegrees>
              <LongitudeDegrees>-4.50695000588893890380859375</LongitudeDegrees>
            </Position>
            <AltitudeMeters>1329.5999755859375</AltitudeMeters>
            <DistanceMeters>30053.610437968</DistanceMeters>
          </Trackpoint>
          <Trackpoint>
            <Time>2023-02-23T12:58:25.000Z</Time>
            <Position>
              <LatitudeDegrees>41.53379092924296855926513671875</LatitudeDegrees>
              <LongitudeDegrees>-4.50693659484386444091796875</LongitudeDegrees>
            </Position>
            <AltitudeMeters>1329.800048828125</AltitudeMeters>
            <DistanceMeters>30054.789688481</DistanceMeters>
          </Trackpoint>
          <Trackpoint>
            <Time>2023-02-23T12:58:28.000Z</Time>
            <Position>
              <LatitudeDegrees>41.53378707356750965118408203125</LatitudeDegrees>
              <LongitudeDegrees>-4.50694330036640167236328125</LongitudeDegrees>
            </Position>
            <AltitudeMeters>1330.199951171875</AltitudeMeters>
            <DistanceMeters>30055.487989368</DistanceMeters>
          </Trackpoint>
          <Trackpoint>
            <Time>2023-02-23T12:58:30.000Z</Time>
            <Position>
              <LatitudeDegrees>41.53379193507134914398193359375</LatitudeDegrees>
              <LongitudeDegrees>-4.506940282881259918212890625</LongitudeDegrees>
            </Position>
            <AltitudeMeters>1330</AltitudeMeters>
            <DistanceMeters>30056.08899108</DistanceMeters>
          </Trackpoint>
          <Trackpoint>
            <Time>2023-02-23T12:58:32.000Z</Time>
            <Position>
              <LatitudeDegrees>41.5337727405130863189697265625</LatitudeDegrees>
              <LongitudeDegrees>-4.50695805251598358154296875</LongitudeDegrees>
            </Position>
            <AltitudeMeters>1329.800048828125</AltitudeMeters>
            <DistanceMeters>30058.68793263</DistanceMeters>
          </Trackpoint>
          <Trackpoint>
            <Time>2023-02-23T12:58:36.000Z</Time>
            <Position>
              <LatitudeDegrees>41.533754132688045501708984375</LatitudeDegrees>
              <LongitudeDegrees>-4.50696081854403018951416015625</LongitudeDegrees>
            </Position>
            <AltitudeMeters>1330</AltitudeMeters>
            <DistanceMeters>30060.769863631</DistanceMeters>
          </Trackpoint>
          <Trackpoint>
            <Time>2023-02-23T12:58:42.000Z</Time>
            <Position>
              <LatitudeDegrees>41.5337291546165943145751953125</LatitudeDegrees>
              <LongitudeDegrees>-4.506947658956050872802734375</LongitudeDegrees>
            </Position>
            <AltitudeMeters>1329.199951171875</AltitudeMeters>
            <DistanceMeters>30063.756787722</DistanceMeters>
          </Trackpoint>
          <Trackpoint>
            <Time>2023-02-23T12:58:46.000Z</Time>
            <Position>
              <LatitudeDegrees>41.53371155261993408203125</LatitudeDegrees>
              <LongitudeDegrees>-4.506924860179424285888671875</LongitudeDegrees>
            </Position>
            <AltitudeMeters>1329.199951171875</AltitudeMeters>
            <DistanceMeters>30066.487875993</DistanceMeters>
          </Trackpoint>
          <Trackpoint>
            <Time>2023-02-23T12:58:49.000Z</Time>
            <Position>
              <LatitudeDegrees>41.5337128937244415283203125</LatitudeDegrees>
              <LongitudeDegrees>-4.50692092068493366241455078125</LongitudeDegrees>
            </Position>
            <AltitudeMeters>1329.5999755859375</AltitudeMeters>
            <DistanceMeters>30066.8434334</DistanceMeters>
          </Trackpoint>
          <Trackpoint>
            <Time>2023-02-23T12:58:59.000Z</Time>
            <Position>
              <LatitudeDegrees>41.5337137319147586822509765625</LatitudeDegrees>
              <LongitudeDegrees>-4.506908096373081207275390625</LongitudeDegrees>
            </Position>
            <AltitudeMeters>1329.5999755859375</AltitudeMeters>
            <DistanceMeters>30067.922729403</DistanceMeters>
          </Trackpoint>
          <Trackpoint>
            <Time>2023-02-23T12:59:01.000Z</Time>
            <Position>
              <LatitudeDegrees>41.5337083674967288970947265625</LatitudeDegrees>
              <LongitudeDegrees>-4.50689208693802356719970703125</LongitudeDegrees>
            </Position>
            <AltitudeMeters>1329.5999755859375</AltitudeMeters>
            <DistanceMeters>30069.382557489</DistanceMeters>
          </Trackpoint>
          <Trackpoint>
            <Time>2023-02-23T12:59:05.000Z</Time>
            <Position>
              <LatitudeDegrees>41.5337268076837062835693359375</LatitudeDegrees>
              <LongitudeDegrees>-4.506919495761394500732421875</LongitudeDegrees>
            </Position>
            <AltitudeMeters>1329.4000244140625</AltitudeMeters>
            <DistanceMeters>30072.452964597</DistanceMeters>
          </Trackpoint>
          <Trackpoint>
            <Time>2023-02-23T12:59:07.000Z</Time>
            <Position>
              <LatitudeDegrees>41.5337412245571613311767578125</LatitudeDegrees>
              <LongitudeDegrees>-4.50693651102483272552490234375</LongitudeDegrees>
            </Position>
            <AltitudeMeters>1329</AltitudeMeters>
            <DistanceMeters>30074.592648863</DistanceMeters>
          </Trackpoint>
          <Trackpoint>
            <Time>2023-02-23T12:59:13.000Z</Time>
            <Position>
              <LatitudeDegrees>41.5337496064603328704833984375</LatitudeDegrees>
              <LongitudeDegrees>-4.5069454796612262725830078125</LongitudeDegrees>
            </Position>
            <AltitudeMeters>1329.199951171875</AltitudeMeters>
            <DistanceMeters>30075.787116141</DistanceMeters>
          </Trackpoint>
          <Trackpoint>
            <Time>2023-02-23T12:59:20.000Z</Time>
            <Position>
              <LatitudeDegrees>41.533731333911418914794921875</LatitudeDegrees>
              <LongitudeDegrees>-4.50693466700613498687744140625</LongitudeDegrees>
            </Position>
            <AltitudeMeters>1328.4000244140625</AltitudeMeters>
            <DistanceMeters>30078.011634491</DistanceMeters>
          </Trackpoint>
          <Trackpoint>
            <Time>2023-02-23T12:59:21.000Z</Time>
            <Position>
              <LatitudeDegrees>41.5337294898927211761474609375</LatitudeDegrees>
              <LongitudeDegrees>-4.50694774277508258819580078125</LongitudeDegrees>
            </Position>
            <AltitudeMeters>1328.5999755859375</AltitudeMeters>
            <DistanceMeters>30079.119826891</DistanceMeters>
          </Trackpoint>
          <Trackpoint>
            <Time>2023-02-23T12:59:26.000Z</Time>
            <Position>
              <LatitudeDegrees>41.53371850959956645965576171875</LatitudeDegrees>
              <LongitudeDegrees>-4.50699551962316036224365234375</LongitudeDegrees>
            </Position>
            <AltitudeMeters>1329.199951171875</AltitudeMeters>
            <DistanceMeters>30083.283688894</DistanceMeters>
          </Trackpoint>
          <Trackpoint>
            <Time>2023-02-23T12:59:28.000Z</Time>
            <Position>
              <LatitudeDegrees>41.5337127260863780975341796875</LatitudeDegrees>
              <LongitudeDegrees>-4.5069964416325092315673828125</LongitudeDegrees>
            </Position>
            <AltitudeMeters>1329.800048828125</AltitudeMeters>
            <DistanceMeters>30083.942053283</DistanceMeters>
          </Trackpoint>
          <Trackpoint>
            <Time>2023-02-23T12:59:30.000Z</Time>
            <Position>
              <LatitudeDegrees>41.53371146880090236663818359375</LatitudeDegrees>
              <LongitudeDegrees>-4.5069900713860988616943359375</LongitudeDegrees>
            </Position>
            <AltitudeMeters>1329.800048828125</AltitudeMeters>
            <DistanceMeters>30084.496149483</DistanceMeters>
          </Trackpoint>
          <Trackpoint>
            <Time>2023-02-23T12:59:32.000Z</Time>
            <Position>
              <LatitudeDegrees>41.533713229000568389892578125</LatitudeDegrees>
              <LongitudeDegrees>-4.50697339139878749847412109375</LongitudeDegrees>
            </Position>
            <AltitudeMeters>1329.800048828125</AltitudeMeters>
            <DistanceMeters>30085.899202107</DistanceMeters>
          </Trackpoint>
          <Trackpoint>
            <Time>2023-02-23T12:59:33.000Z</Time>
            <Position>
              <LatitudeDegrees>41.533711217343807220458984375</LatitudeDegrees>
              <LongitudeDegrees>-4.5069625787436962127685546875</LongitudeDegrees>
            </Position>
            <AltitudeMeters>1329.800048828125</AltitudeMeters>
            <DistanceMeters>30086.830269955</DistanceMeters>
          </Trackpoint>
          <Trackpoint>
            <Time>2023-02-23T12:59:41.000Z</Time>
            <Position>
              <LatitudeDegrees>41.53372404165565967559814453125</LatitudeDegrees>
              <LongitudeDegrees>-4.5068874768912792205810546875</LongitudeDegrees>
            </Position>
            <AltitudeMeters>1328.800048828125</AltitudeMeters>
            <DistanceMeters>30093.248619333</DistanceMeters>
          </Trackpoint>
          <Trackpoint>
            <Time>2023-02-23T12:59:47.000Z</Time>
            <Position>
              <LatitudeDegrees>41.533730328083038330078125</LatitudeDegrees>
              <LongitudeDegrees>-4.50687029398977756500244140625</LongitudeDegrees>
            </Position>
            <AltitudeMeters>1329</AltitudeMeters>
            <DistanceMeters>30094.841557336</DistanceMeters>
          </Trackpoint>
          <Trackpoint>
            <Time>2023-02-23T12:59:48.000Z</Time>
            <Position>
              <LatitudeDegrees>41.53373057954013347625732421875</LatitudeDegrees>
              <LongitudeDegrees>-4.50687029398977756500244140625</LongitudeDegrees>
            </Position>
            <AltitudeMeters>1329.199951171875</AltitudeMeters>
            <DistanceMeters>30094.841557336</DistanceMeters>
          </Trackpoint>
          <Trackpoint>
            <Time>2023-02-23T12:59:52.000Z</Time>
            <Position>
              <LatitudeDegrees>41.53372772969305515289306640625</LatitudeDegrees>
              <LongitudeDegrees>-4.5068688690662384033203125</LongitudeDegrees>
            </Position>
            <AltitudeMeters>1329.199951171875</AltitudeMeters>
            <DistanceMeters>30095.197114744</DistanceMeters>
          </Trackpoint>
          <Trackpoint>
            <Time>2023-02-23T12:59:57.000Z</Time>
            <Position>
              <LatitudeDegrees>41.5337184257805347442626953125</LatitudeDegrees>
              <LongitudeDegrees>-4.5068787597119808197021484375</LongitudeDegrees>
            </Position>
            <AltitudeMeters>1329</AltitudeMeters>
            <DistanceMeters>30096.520683718</DistanceMeters>
          </Trackpoint>
          <Trackpoint>
            <Time>2023-02-23T13:00:01.000Z</Time>
            <Position>
              <LatitudeDegrees>41.533730663359165191650390625</LatitudeDegrees>
              <LongitudeDegrees>-4.50690533034503459930419921875</LongitudeDegrees>
            </Position>
            <AltitudeMeters>1328.5999755859375</AltitudeMeters>
            <DistanceMeters>30099.119625268</DistanceMeters>
          </Trackpoint>
          <Trackpoint>
            <Time>2023-02-23T13:00:03.000Z</Time>
            <Position>
              <LatitudeDegrees>41.53374063782393932342529296875</LatitudeDegrees>
              <LongitudeDegrees>-4.50690851546823978424072265625</LongitudeDegrees>
            </Position>
            <AltitudeMeters>1328.5999755859375</AltitudeMeters>
            <DistanceMeters>30100.259945841</DistanceMeters>
          </Trackpoint>
          <Trackpoint>
            <Time>2023-02-23T13:00:06.000Z</Time>
            <Position>
              <LatitudeDegrees>41.5337450802326202392578125</LatitudeDegrees>
              <LongitudeDegrees>-4.50693265534937381744384765625</LongitudeDegrees>
            </Position>
            <AltitudeMeters>1328.4000244140625</AltitudeMeters>
            <DistanceMeters>30102.331005065</DistanceMeters>
          </Trackpoint>
          <Trackpoint>
            <Time>2023-02-23T13:00:09.000Z</Time>
            <Position>
              <LatitudeDegrees>41.5337543003261089324951171875</LatitudeDegrees>
              <LongitudeDegrees>-4.50695679523050785064697265625</LongitudeDegrees>
            </Position>
            <AltitudeMeters>1328.5999755859375</AltitudeMeters>
            <DistanceMeters>30104.58976428</DistanceMeters>
          </Trackpoint>
          <Trackpoint>
            <Time>2023-02-23T13:00:11.000Z</Time>
            <Position>
              <LatitudeDegrees>41.53375538997352123260498046875</LatitudeDegrees>
              <LongitudeDegrees>-4.50696350075304508209228515625</LongitudeDegrees>
            </Position>
            <AltitudeMeters>1328.800048828125</AltitudeMeters>
            <DistanceMeters>30105.159924566</DistanceMeters>
          </Trackpoint>
          <Trackpoint>
            <Time>2023-02-23T13:00:13.000Z</Time>
            <Position>
              <LatitudeDegrees>41.53375723399221897125244140625</LatitudeDegrees>
              <LongitudeDegrees>-4.50696702115237712860107421875</LongitudeDegrees>
            </Position>
            <AltitudeMeters>1329</AltitudeMeters>
            <DistanceMeters>30105.515481974</DistanceMeters>
          </Trackpoint>
          <Trackpoint>
            <Time>2023-02-23T13:00:17.000Z</Time>
            <Position>
              <LatitudeDegrees>41.53375421650707721710205078125</LatitudeDegrees>
              <LongitudeDegrees>-4.50696769170463085174560546875</LongitudeDegrees>
            </Position>
            <AltitudeMeters>1329</AltitudeMeters>
            <DistanceMeters>30105.871039382</DistanceMeters>
          </Trackpoint>
          <Trackpoint>
            <Time>2023-02-23T13:00:19.000Z</Time>
            <Position>
              <LatitudeDegrees>41.53374700807034969329833984375</LatitudeDegrees>
              <LongitudeDegrees>-4.5069578848779201507568359375</LongitudeDegrees>
            </Position>
            <AltitudeMeters>1329</AltitudeMeters>
            <DistanceMeters>30107.01925154</DistanceMeters>
          </Trackpoint>
          <Trackpoint>
            <Time>2023-02-23T13:00:21.000Z</Time>
            <Position>
              <LatitudeDegrees>41.533748097717761993408203125</LatitudeDegrees>
              <LongitudeDegrees>-4.50695495121181011199951171875</LongitudeDegrees>
            </Position>
            <AltitudeMeters>1329</AltitudeMeters>
            <DistanceMeters>30107.304331683</DistanceMeters>
          </Trackpoint>
          <Trackpoint>
            <Time>2023-02-23T13:00:24.000Z</Time>
            <Position>
              <LatitudeDegrees>41.53374583460390567779541015625</LatitudeDegrees>
              <LongitudeDegrees>-4.50694858096539974212646484375</LongitudeDegrees>
            </Position>
            <AltitudeMeters>1329.4000244140625</AltitudeMeters>
            <DistanceMeters>30107.890115692</DistanceMeters>
          </Trackpoint>
          <Trackpoint>
            <Time>2023-02-23T13:00:32.000Z</Time>
            <Position>
              <LatitudeDegrees>41.5337770991027355194091796875</LatitudeDegrees>
              <LongitudeDegrees>-4.50695092789828777313232421875</LongitudeDegrees>
            </Position>
            <AltitudeMeters>1328.5999755859375</AltitudeMeters>
            <DistanceMeters>30111.375148377</DistanceMeters>
          </Trackpoint>
          <Trackpoint>
            <Time>2023-02-23T13:00:35.000Z</Time>
            <Position>
              <LatitudeDegrees>41.5337891690433025360107421875</LatitudeDegrees>
              <LongitudeDegrees>-4.5069615729153156280517578125</LongitudeDegrees>
            </Position>
            <AltitudeMeters>1328.4000244140625</AltitudeMeters>
            <DistanceMeters>30112.98500301</DistanceMeters>
          </Trackpoint>
          <Trackpoint>
            <Time>2023-02-23T13:00:36.000Z</Time>
            <Position>
              <LatitudeDegrees>41.533789336681365966796875</LatitudeDegrees>
              <LongitudeDegrees>-4.5069654285907745361328125</LongitudeDegrees>
            </Position>
            <AltitudeMeters>1328.4000244140625</AltitudeMeters>
            <DistanceMeters>30113.300170967</DistanceMeters>
          </Trackpoint>
          <Trackpoint>
            <Time>2023-02-23T13:00:39.000Z</Time>
            <Position>
              <LatitudeDegrees>41.5337908454239368438720703125</LatitudeDegrees>
              <LongitudeDegrees>-4.50698009692132472991943359375</LongitudeDegrees>
            </Position>
            <AltitudeMeters>1328.800048828125</AltitudeMeters>
            <DistanceMeters>30114.531857957</DistanceMeters>
          </Trackpoint>
          <Trackpoint>
            <Time>2023-02-23T13:16:08.000Z</Time>
            <Position>
              <LatitudeDegrees>41.5337720699608325958251953125</LatitudeDegrees>
              <LongitudeDegrees>-4.50700859539210796356201171875</LongitudeDegrees>
            </Position>
            <AltitudeMeters>1327.800048828125</AltitudeMeters>
            <DistanceMeters>30117.694977415</DistanceMeters>
          </Trackpoint>
          <Trackpoint>
            <Time>2023-02-23T13:16:09.000Z</Time>
            <Position>
              <LatitudeDegrees>41.53377081267535686492919921875</LatitudeDegrees>
              <LongitudeDegrees>-4.50701144523918628692626953125</LongitudeDegrees>
            </Position>
            <AltitudeMeters>1327.800048828125</AltitudeMeters>
            <DistanceMeters>30117.995478271</DistanceMeters>
          </Trackpoint>
          <Trackpoint>
            <Time>2023-02-23T13:16:12.000Z</Time>
            <Position>
              <LatitudeDegrees>41.533767543733119964599609375</LatitudeDegrees>
              <LongitudeDegrees>-4.50703508220613002777099609375</LongitudeDegrees>
            </Position>
            <AltitudeMeters>1329</AltitudeMeters>
            <DistanceMeters>30119.99781539</DistanceMeters>
          </Trackpoint>
          <Trackpoint>
            <Time>2023-02-23T13:16:15.000Z</Time>
            <Position>
              <LatitudeDegrees>41.53377927839756011962890625</LatitudeDegrees>
              <LongitudeDegrees>-4.507087804377079010009765625</LongitudeDegrees>
            </Position>
            <AltitudeMeters>1329.5999755859375</AltitudeMeters>
            <DistanceMeters>30124.580822897</DistanceMeters>
          </Trackpoint>
          <Trackpoint>
            <Time>2023-02-23T13:16:16.000Z</Time>
            <Position>
              <LatitudeDegrees>41.53378992341458797454833984375</LatitudeDegrees>
              <LongitudeDegrees>-4.50710984878242015838623046875</LongitudeDegrees>
            </Position>
            <AltitudeMeters>1329.5999755859375</AltitudeMeters>
            <DistanceMeters>30126.768502151</DistanceMeters>
          </Trackpoint>
          <Trackpoint>
            <Time>2023-02-23T13:16:17.000Z</Time>
            <Position>
              <LatitudeDegrees>41.5338032506406307220458984375</LatitudeDegrees>
              <LongitudeDegrees>-4.50714052654802799224853515625</LongitudeDegrees>
            </Position>
            <AltitudeMeters>1329.800048828125</AltitudeMeters>
            <DistanceMeters>30129.721983798</DistanceMeters>
          </Trackpoint>
          <Trackpoint>
            <Time>2023-02-23T13:16:22.000Z</Time>
            <Position>
              <LatitudeDegrees>41.53386854566633701324462890625</LatitudeDegrees>
              <LongitudeDegrees>-4.50730816461145877838134765625</LongitudeDegrees>
            </Position>
            <AltitudeMeters>1329.199951171875</AltitudeMeters>
            <DistanceMeters>30145.46662284</DistanceMeters>
          </Trackpoint>
          <Trackpoint>
            <Time>2023-02-23T13:16:27.000Z</Time>
            <Position>
              <LatitudeDegrees>41.5339319966733455657958984375</LatitudeDegrees>
              <LongitudeDegrees>-4.50749776326119899749755859375</LongitudeDegrees>
            </Position>
            <AltitudeMeters>1330</AltitudeMeters>
            <DistanceMeters>30162.7703587</DistanceMeters>
          </Trackpoint>
          <Trackpoint>
            <Time>2023-02-23T13:16:29.000Z</Time>
            <Position>
              <LatitudeDegrees>41.5339407138526439666748046875</LatitudeDegrees>
              <LongitudeDegrees>-4.507580660283565521240234375</LongitudeDegrees>
            </Position>
            <AltitudeMeters>1330</AltitudeMeters>
            <DistanceMeters>30169.744309641</DistanceMeters>
          </Trackpoint>
          <Trackpoint>
            <Time>2023-02-23T13:16:31.000Z</Time>
            <Position>
              <LatitudeDegrees>41.533943898975849151611328125</LatitudeDegrees>
              <LongitudeDegrees>-4.50766213238239288330078125</LongitudeDegrees>
            </Position>
            <AltitudeMeters>1330</AltitudeMeters>
            <DistanceMeters>30176.541875468</DistanceMeters>
          </Trackpoint>
          <Trackpoint>
            <Time>2023-02-23T13:16:32.000Z</Time>
            <Position>
              <LatitudeDegrees>41.5339484252035617828369140625</LatitudeDegrees>
              <LongitudeDegrees>-4.5077035389840602874755859375</LongitudeDegrees>
            </Position>
            <AltitudeMeters>1329.800048828125</AltitudeMeters>
            <DistanceMeters>30180.028203463</DistanceMeters>
          </Trackpoint>
          <Trackpoint>
            <Time>2023-02-23T13:16:33.000Z</Time>
            <Position>
              <LatitudeDegrees>41.53395907022058963775634765625</LatitudeDegrees>
              <LongitudeDegrees>-4.5077447779476642608642578125</LongitudeDegrees>
            </Position>
            <AltitudeMeters>1329.5999755859375</AltitudeMeters>
            <DistanceMeters>30183.661655233</DistanceMeters>
          </Trackpoint>
          <Trackpoint>
            <Time>2023-02-23T13:16:35.000Z</Time>
            <Position>
              <LatitudeDegrees>41.5339839644730091094970703125</LatitudeDegrees>
              <LongitudeDegrees>-4.5078329555690288543701171875</LongitudeDegrees>
            </Position>
            <AltitudeMeters>1329.4000244140625</AltitudeMeters>
            <DistanceMeters>30191.513875426</DistanceMeters>
          </Trackpoint>
          <Trackpoint>
            <Time>2023-02-23T13:16:38.000Z</Time>
            <Position>
              <LatitudeDegrees>41.5340173244476318359375</LatitudeDegrees>
              <LongitudeDegrees>-4.50796044431626796722412109375</LongitudeDegrees>
            </Position>
            <AltitudeMeters>1329.4000244140625</AltitudeMeters>
            <DistanceMeters>30202.766418778</DistanceMeters>
          </Trackpoint>
          <Trackpoint>
            <Time>2023-02-23T13:16:39.000Z</Time>
            <Position>
              <LatitudeDegrees>41.534024365246295928955078125</LatitudeDegrees>
              <LongitudeDegrees>-4.50800486840307712554931640625</LongitudeDegrees>
            </Position>
            <AltitudeMeters>1329.5999755859375</AltitudeMeters>
            <DistanceMeters>30206.55082114</DistanceMeters>
          </Trackpoint>
          <Trackpoint>
            <Time>2023-02-23T13:16:42.000Z</Time>
            <Position>
              <LatitudeDegrees>41.5340590663254261016845703125</LatitudeDegrees>
              <LongitudeDegrees>-4.50811869464814662933349609375</LongitudeDegrees>
            </Position>
            <AltitudeMeters>1329.800048828125</AltitudeMeters>
            <DistanceMeters>30216.79124485</DistanceMeters>
          </Trackpoint>
          <Trackpoint>
            <Time>2023-02-23T13:16:44.000Z</Time>
            <Position>
              <LatitudeDegrees>41.53407323174178600311279296875</LatitudeDegrees>
              <LongitudeDegrees>-4.50818340294063091278076171875</LongitudeDegrees>
            </Position>
            <AltitudeMeters>1329.800048828125</AltitudeMeters>
            <DistanceMeters>30222.408280286</DistanceMeters>
          </Trackpoint>
          <Trackpoint>
            <Time>2023-02-23T13:16:48.000Z</Time>
            <Position>
              <LatitudeDegrees>41.53409468941390514373779296875</LatitudeDegrees>
              <LongitudeDegrees>-4.5083207823336124420166015625</LongitudeDegrees>
            </Position>
            <AltitudeMeters>1330</AltitudeMeters>
            <DistanceMeters>30234.100814544</DistanceMeters>
          </Trackpoint>
          <Trackpoint>
            <Time>2023-02-23T13:16:54.000Z</Time>
            <Position>
              <LatitudeDegrees>41.5341901592910289764404296875</LatitudeDegrees>
              <LongitudeDegrees>-4.50849588029086589813232421875</LongitudeDegrees>
            </Position>
            <AltitudeMeters>1329.4000244140625</AltitudeMeters>
            <DistanceMeters>30252.149137113</DistanceMeters>
          </Trackpoint>
          <Trackpoint>
            <Time>2023-02-23T13:16:58.000Z</Time>
            <Position>
              <LatitudeDegrees>41.53421270661056041717529296875</LatitudeDegrees>
              <LongitudeDegrees>-4.50864960439503192901611328125</LongitudeDegrees>
            </Position>
            <AltitudeMeters>1329.800048828125</AltitudeMeters>
            <DistanceMeters>30265.200702614</DistanceMeters>
          </Trackpoint>
          <Trackpoint>
            <Time>2023-02-23T13:17:03.000Z</Time>
            <Position>
              <LatitudeDegrees>41.53419745154678821563720703125</LatitudeDegrees>
              <LongitudeDegrees>-4.50886904262006282806396484375</LongitudeDegrees>
            </Position>
            <AltitudeMeters>1330.199951171875</AltitudeMeters>
            <DistanceMeters>30283.561772135</DistanceMeters>
          </Trackpoint>
          <Trackpoint>
            <Time>2023-02-23T13:17:09.000Z</Time>
            <Position>
              <LatitudeDegrees>41.5342096053063869476318359375</LatitudeDegrees>
              <LongitudeDegrees>-4.5091076754033565521240234375</LongitudeDegrees>
            </Position>
            <AltitudeMeters>1330</AltitudeMeters>
            <DistanceMeters>30303.489760038</DistanceMeters>
          </Trackpoint>
          <Trackpoint>
            <Time>2023-02-23T13:17:10.000Z</Time>
            <Position>
              <LatitudeDegrees>41.534210778772830963134765625</LatitudeDegrees>
              <LongitudeDegrees>-4.5091502554714679718017578125</LongitudeDegrees>
            </Position>
            <AltitudeMeters>1330</AltitudeMeters>
            <DistanceMeters>30307.041522529</DistanceMeters>
          </Trackpoint>
          <Trackpoint>
            <Time>2023-02-23T13:17:11.000Z</Time>
            <Position>
              <LatitudeDegrees>41.53421203605830669403076171875</LatitudeDegrees>
              <LongitudeDegrees>-4.5091965235769748687744140625</LongitudeDegrees>
            </Position>
            <AltitudeMeters>1330</AltitudeMeters>
            <DistanceMeters>30310.899185809</DistanceMeters>
          </Trackpoint>
          <Trackpoint>
            <Time>2023-02-23T13:17:17.000Z</Time>
            <Position>
              <LatitudeDegrees>41.53421639464795589447021484375</LatitudeDegrees>
              <LongitudeDegrees>-4.50947337783873081207275390625</LongitudeDegrees>
            </Position>
            <AltitudeMeters>1330.800048828125</AltitudeMeters>
            <DistanceMeters>30333.970529204</DistanceMeters>
          </Trackpoint>
          <Trackpoint>
            <Time>2023-02-23T13:17:19.000Z</Time>
            <Position>
              <LatitudeDegrees>41.5342189930379390716552734375</LatitudeDegrees>
              <LongitudeDegrees>-4.50956909917294979095458984375</LongitudeDegrees>
            </Position>
            <AltitudeMeters>1330.800048828125</AltitudeMeters>
            <DistanceMeters>30341.95051035</DistanceMeters>
          </Trackpoint>
          <Trackpoint>
            <Time>2023-02-23T13:17:20.000Z</Time>
            <Position>
              <LatitudeDegrees>41.53421672992408275604248046875</LatitudeDegrees>
              <LongitudeDegrees>-4.50961922295391559600830078125</LongitudeDegrees>
            </Position>
            <AltitudeMeters>1330.800048828125</AltitudeMeters>
            <DistanceMeters>30346.133844922</DistanceMeters>
          </Trackpoint>
          <Trackpoint>
            <Time>2023-02-23T13:17:24.000Z</Time>
            <Position>
              <LatitudeDegrees>41.5342062525451183319091796875</LatitudeDegrees>
              <LongitudeDegrees>-4.50983128510415554046630859375</LongitudeDegrees>
            </Position>
            <AltitudeMeters>1330.4000244140625</AltitudeMeters>
            <DistanceMeters>30363.840461034</DistanceMeters>
          </Trackpoint>
          <Trackpoint>
            <Time>2023-02-23T13:17:26.000Z</Time>
            <Position>
              <LatitudeDegrees>41.53419057838618755340576171875</LatitudeDegrees>
              <LongitudeDegrees>-4.509944356977939605712890625</LongitudeDegrees>
            </Position>
            <AltitudeMeters>1330.4000244140625</AltitudeMeters>
            <DistanceMeters>30373.420737491</DistanceMeters>
          </Trackpoint>
          <Trackpoint>
            <Time>2023-02-23T13:17:30.000Z</Time>
            <Position>
              <LatitudeDegrees>41.53416275046765804290771484375</LatitudeDegrees>
              <LongitudeDegrees>-4.51016731560230255126953125</LongitudeDegrees>
            </Position>
            <AltitudeMeters>1330.4000244140625</AltitudeMeters>
            <DistanceMeters>30392.253296595</DistanceMeters>
          </Trackpoint>
          <Trackpoint>
            <Time>2023-02-23T13:17:32.000Z</Time>
            <Position>
              <LatitudeDegrees>41.53415705077350139617919921875</LatitudeDegrees>
              <LongitudeDegrees>-4.510268904268741607666015625</LongitudeDegrees>
            </Position>
            <AltitudeMeters>1330.199951171875</AltitudeMeters>
            <DistanceMeters>30400.741049529</DistanceMeters>
          </Trackpoint>
          <Trackpoint>
            <Time>2023-02-23T13:17:37.000Z</Time>
            <Position>
              <LatitudeDegrees>41.534185297787189483642578125</LatitudeDegrees>
              <LongitudeDegrees>-4.5105101354420185089111328125</LongitudeDegrees>
            </Position>
            <AltitudeMeters>1330</AltitudeMeters>
            <DistanceMeters>30421.084091911</DistanceMeters>
          </Trackpoint>
          <Trackpoint>
            <Time>2023-02-23T13:17:38.000Z</Time>
            <Position>
              <LatitudeDegrees>41.53419979847967624664306640625</LatitudeDegrees>
              <LongitudeDegrees>-4.51055279932916164398193359375</LongitudeDegrees>
            </Position>
            <AltitudeMeters>1330</AltitudeMeters>
            <DistanceMeters>30424.988290809</DistanceMeters>
          </Trackpoint>
          <Trackpoint>
            <Time>2023-02-23T13:17:43.000Z</Time>
            <Position>
              <LatitudeDegrees>41.53430105186998844146728515625</LatitudeDegrees>
              <LongitudeDegrees>-4.51073435135185718536376953125</LongitudeDegrees>
            </Position>
            <AltitudeMeters>1329.800048828125</AltitudeMeters>
            <DistanceMeters>30443.85151249</DistanceMeters>
          </Trackpoint>
          <Trackpoint>
            <Time>2023-02-23T13:17:49.000Z</Time>
            <Position>
              <LatitudeDegrees>41.534403897821903228759765625</LatitudeDegrees>
              <LongitudeDegrees>-4.51099284924566745758056640625</LongitudeDegrees>
            </Position>
            <AltitudeMeters>1330</AltitudeMeters>
            <DistanceMeters>30468.241558532</DistanceMeters>
          </Trackpoint>
          <Trackpoint>
            <Time>2023-02-23T13:17:55.000Z</Time>
            <Position>
              <LatitudeDegrees>41.53454496525228023529052734375</LatitudeDegrees>
              <LongitudeDegrees>-4.51123156584799289703369140625</LongitudeDegrees>
            </Position>
            <AltitudeMeters>1329.5999755859375</AltitudeMeters>
            <DistanceMeters>30493.581283189</DistanceMeters>
          </Trackpoint>
          <Trackpoint>
            <Time>2023-02-23T13:17:56.000Z</Time>
            <Position>
              <LatitudeDegrees>41.53456642292439937591552734375</LatitudeDegrees>
              <LongitudeDegrees>-4.5112695358693599700927734375</LongitudeDegrees>
            </Position>
            <AltitudeMeters>1329.5999755859375</AltitudeMeters>
            <DistanceMeters>30497.54516172</DistanceMeters>
          </Trackpoint>
          <Trackpoint>
            <Time>2023-02-23T13:18:02.000Z</Time>
            <Position>
              <LatitudeDegrees>41.5346945822238922119140625</LatitudeDegrees>
              <LongitudeDegrees>-4.5114985294640064239501953125</LongitudeDegrees>
            </Position>
            <AltitudeMeters>1330</AltitudeMeters>
            <DistanceMeters>30521.366560374</DistanceMeters>
          </Trackpoint>
          <Trackpoint>
            <Time>2023-02-23T13:18:09.000Z</Time>
            <Position>
              <LatitudeDegrees>41.5348603762686252593994140625</LatitudeDegrees>
              <LongitudeDegrees>-4.51173531822860240936279296875</LongitudeDegrees>
            </Position>
            <AltitudeMeters>1330</AltitudeMeters>
            <DistanceMeters>30548.379899254</DistanceMeters>
          </Trackpoint>
          <Trackpoint>
            <Time>2023-02-23T13:18:12.000Z</Time>
            <Position>
              <LatitudeDegrees>41.5349374897778034210205078125</LatitudeDegrees>
              <LongitudeDegrees>-4.51183338649570941925048828125</LongitudeDegrees>
            </Position>
            <AltitudeMeters>1330</AltitudeMeters>
            <DistanceMeters>30560.23007726</DistanceMeters>
          </Trackpoint>
          <Trackpoint>
            <Time>2023-02-23T13:18:15.000Z</Time>
            <Position>
              <LatitudeDegrees>41.53499976731836795806884765625</LatitudeDegrees>
              <LongitudeDegrees>-4.51194201596081256866455078125</LongitudeDegrees>
            </Position>
            <AltitudeMeters>1330</AltitudeMeters>
            <DistanceMeters>30571.630114987</DistanceMeters>
          </Trackpoint>
          <Trackpoint>
            <Time>2023-02-23T13:18:19.000Z</Time>
            <Position>
              <LatitudeDegrees>41.53510470874607563018798828125</LatitudeDegrees>
              <LongitudeDegrees>-4.51209574006497859954833984375</LongitudeDegrees>
            </Position>
            <AltitudeMeters>1329.5999755859375</AltitudeMeters>
            <DistanceMeters>30588.96409213</DistanceMeters>
          </Trackpoint>
          <Trackpoint>
            <Time>2023-02-23T13:18:25.000Z</Time>
            <Position>
              <LatitudeDegrees>41.53525155968964099884033203125</LatitudeDegrees>
              <LongitudeDegrees>-4.5123347081243991851806640625</LongitudeDegrees>
            </Position>
            <AltitudeMeters>1329.199951171875</AltitudeMeters>
            <DistanceMeters>30614.723519089</DistanceMeters>
          </Trackpoint>
          <Trackpoint>
            <Time>2023-02-23T13:18:26.000Z</Time>
            <Position>
              <LatitudeDegrees>41.5352694131433963775634765625</LatitudeDegrees>
              <LongitudeDegrees>-4.51238759793341159820556640625</LongitudeDegrees>
            </Position>
            <AltitudeMeters>1328.800048828125</AltitudeMeters>
            <DistanceMeters>30619.558688984</DistanceMeters>
          </Trackpoint>
          <Trackpoint>
            <Time>2023-02-23T13:18:33.000Z</Time>
            <Position>
              <LatitudeDegrees>41.535389609634876251220703125</LatitudeDegrees>
              <LongitudeDegrees>-4.51273150742053985595703125</LongitudeDegrees>
            </Position>
            <AltitudeMeters>1329.5999755859375</AltitudeMeters>
            <DistanceMeters>30651.180746873</DistanceMeters>
          </Trackpoint>
          <Trackpoint>
            <Time>2023-02-23T13:18:40.000Z</Time>
            <Position>
              <LatitudeDegrees>41.535489857196807861328125</LatitudeDegrees>
              <LongitudeDegrees>-4.5130243711173534393310546875</LongitudeDegrees>
            </Position>
            <AltitudeMeters>1329.800048828125</AltitudeMeters>
            <DistanceMeters>30678.010610342</DistanceMeters>
          </Trackpoint>
          <Trackpoint>
            <Time>2023-02-23T13:18:42.000Z</Time>
            <Position>
              <LatitudeDegrees>41.53551332652568817138671875</LatitudeDegrees>
              <LongitudeDegrees>-4.51308178715407848358154296875</LongitudeDegrees>
            </Position>
            <AltitudeMeters>1329.5999755859375</AltitudeMeters>
            <DistanceMeters>30683.461202191</DistanceMeters>
          </Trackpoint>
          <Trackpoint>
            <Time>2023-02-23T13:18:46.000Z</Time>
            <Position>
              <LatitudeDegrees>41.53556738980114459991455078125</LatitudeDegrees>
              <LongitudeDegrees>-4.51324976049363613128662109375</LongitudeDegrees>
            </Position>
            <AltitudeMeters>1329.4000244140625</AltitudeMeters>
            <DistanceMeters>30698.694550623</DistanceMeters>
          </Trackpoint>
          <Trackpoint>
            <Time>2023-02-23T13:18:52.000Z</Time>
            <Position>
              <LatitudeDegrees>41.535666882991790771484375</LatitudeDegrees>
              <LongitudeDegrees>-4.513495266437530517578125</LongitudeDegrees>
            </Position>
            <AltitudeMeters>1329.5999755859375</AltitudeMeters>
            <DistanceMeters>30721.954170997</DistanceMeters>
          </Trackpoint>
          <Trackpoint>
            <Time>2023-02-23T13:18:53.000Z</Time>
            <Position>
              <LatitudeDegrees>41.53566059656441211700439453125</LatitudeDegrees>
              <LongitudeDegrees>-4.51355704106390476226806640625</LongitudeDegrees>
            </Position>
            <AltitudeMeters>1330</AltitudeMeters>
            <DistanceMeters>30727.148578414</DistanceMeters>
          </Trackpoint>
          <Trackpoint>
            <Time>2023-02-23T13:18:56.000Z</Time>
            <Position>
              <LatitudeDegrees>41.53568658046424388885498046875</LatitudeDegrees>
              <LongitudeDegrees>-4.513724930584430694580078125</LongitudeDegrees>
            </Position>
            <AltitudeMeters>1331</AltitudeMeters>
            <DistanceMeters>30741.432329573</DistanceMeters>
          </Trackpoint>
          <Trackpoint>
            <Time>2023-02-23T13:18:59.000Z</Time>
            <Position>
              <LatitudeDegrees>41.5357210300862789154052734375</LatitudeDegrees>
              <LongitudeDegrees>-4.51389214955270290374755859375</LongitudeDegrees>
            </Position>
            <AltitudeMeters>1331.4000244140625</AltitudeMeters>
            <DistanceMeters>30755.882015643</DistanceMeters>
          </Trackpoint>
          <Trackpoint>
            <Time>2023-02-23T13:19:00.000Z</Time>
            <Position>
              <LatitudeDegrees>41.53573519550263881683349609375</LatitudeDegrees>
              <LongitudeDegrees>-4.51394596137106418609619140625</LongitudeDegrees>
            </Position>
            <AltitudeMeters>1331.4000244140625</AltitudeMeters>
            <DistanceMeters>30760.635251516</DistanceMeters>
          </Trackpoint>
          <Trackpoint>
            <Time>2023-02-23T13:19:05.000Z</Time>
            <Position>
              <LatitudeDegrees>41.5357931144535541534423828125</LatitudeDegrees>
              <LongitudeDegrees>-4.5142008550465106964111328125</LongitudeDegrees>
            </Position>
            <AltitudeMeters>1331.5999755859375</AltitudeMeters>
            <DistanceMeters>30782.828618085</DistanceMeters>
          </Trackpoint>
          <Trackpoint>
            <Time>2023-02-23T13:19:12.000Z</Time>
            <Position>
              <LatitudeDegrees>41.5358641929924488067626953125</LatitudeDegrees>
              <LongitudeDegrees>-4.5145411603152751922607421875</LongitudeDegrees>
            </Position>
            <AltitudeMeters>1331.199951171875</AltitudeMeters>
            <DistanceMeters>30812.263900227</DistanceMeters>
          </Trackpoint>
          <Trackpoint>
            <Time>2023-02-23T13:19:15.000Z</Time>
            <Position>
              <LatitudeDegrees>41.5359047614037990570068359375</LatitudeDegrees>
              <LongitudeDegrees>-4.51469681225717067718505859375</LongitudeDegrees>
            </Position>
            <AltitudeMeters>1331.4000244140625</AltitudeMeters>
            <DistanceMeters>30825.995835863</DistanceMeters>
          </Trackpoint>
          <Trackpoint>
            <Time>2023-02-23T13:19:18.000Z</Time>
            <Position>
              <LatitudeDegrees>41.53594541363418102264404296875</LatitudeDegrees>
              <LongitudeDegrees>-4.5148489437997341156005859375</LongitudeDegrees>
            </Position>
            <AltitudeMeters>1331.5999755859375</AltitudeMeters>
            <DistanceMeters>30839.45411485</DistanceMeters>
          </Trackpoint>
          <Trackpoint>
            <Time>2023-02-23T13:19:20.000Z</Time>
            <Position>
              <LatitudeDegrees>41.5359686315059661865234375</LatitudeDegrees>
              <LongitudeDegrees>-4.51494860462844371795654296875</LongitudeDegrees>
            </Position>
            <AltitudeMeters>1331.199951171875</AltitudeMeters>
            <DistanceMeters>30848.149967893</DistanceMeters>
          </Trackpoint>
          <Trackpoint>
            <Time>2023-02-23T13:19:24.000Z</Time>
            <Position>
              <LatitudeDegrees>41.53600458987057209014892578125</LatitudeDegrees>
              <LongitudeDegrees>-4.515157230198383331298828125</LongitudeDegrees>
            </Position>
            <AltitudeMeters>1331.199951171875</AltitudeMeters>
            <DistanceMeters>30865.986155634</DistanceMeters>
          </Trackpoint>
          <Trackpoint>
            <Time>2023-02-23T13:19:27.000Z</Time>
            <Position>
              <LatitudeDegrees>41.53602805919945240020751953125</LatitudeDegrees>
              <LongitudeDegrees>-4.51531891711056232452392578125</LongitudeDegrees>
            </Position>
            <AltitudeMeters>1331.199951171875</AltitudeMeters>
            <DistanceMeters>30879.707894734</DistanceMeters>
          </Trackpoint>
          <Trackpoint>
            <Time>2023-02-23T13:19:29.000Z</Time>
            <Position>
              <LatitudeDegrees>41.53605203144252300262451171875</LatitudeDegrees>
              <LongitudeDegrees>-4.515415392816066741943359375</LongitudeDegrees>
            </Position>
            <AltitudeMeters>1331.199951171875</AltitudeMeters>
            <DistanceMeters>30888.177542145</DistanceMeters>
          </Trackpoint>
          <Trackpoint>
            <Time>2023-02-23T13:19:34.000Z</Time>
            <Position>
              <LatitudeDegrees>41.53610198758542537689208984375</LatitudeDegrees>
              <LongitudeDegrees>-4.51565352268517017364501953125</LongitudeDegrees>
            </Position>
            <AltitudeMeters>1331.4000244140625</AltitudeMeters>
            <DistanceMeters>30908.781472687</DistanceMeters>
          </Trackpoint>
          <Trackpoint>
            <Time>2023-02-23T13:19:43.000Z</Time>
            <Position>
              <LatitudeDegrees>41.5361917577683925628662109375</LatitudeDegrees>
              <LongitudeDegrees>-4.5161461271345615386962890625</LongitudeDegrees>
            </Position>
            <AltitudeMeters>1331.4000244140625</AltitudeMeters>
            <DistanceMeters>30951.020927394</DistanceMeters>
          </Trackpoint>
          <Trackpoint>
            <Time>2023-02-23T13:19:44.000Z</Time>
            <Position>
              <LatitudeDegrees>41.53620089404284954071044921875</LatitudeDegrees>
              <LongitudeDegrees>-4.51619935221970081329345703125</LongitudeDegrees>
            </Position>
            <AltitudeMeters>1331.199951171875</AltitudeMeters>
            <DistanceMeters>30955.569323279</DistanceMeters>
          </Trackpoint>
          <Trackpoint>
            <Time>2023-02-23T13:19:47.000Z</Time>
            <Position>
              <LatitudeDegrees>41.5362249501049518585205078125</LatitudeDegrees>
              <LongitudeDegrees>-4.5163550041615962982177734375</LongitudeDegrees>
            </Position>
            <AltitudeMeters>1331</AltitudeMeters>
            <DistanceMeters>30968.810469915</DistanceMeters>
          </Trackpoint>
          <Trackpoint>
            <Time>2023-02-23T13:19:51.000Z</Time>
            <Position>
              <LatitudeDegrees>41.536266691982746124267578125</LatitudeDegrees>
              <LongitudeDegrees>-4.5165581814944744110107421875</LongitudeDegrees>
            </Position>
            <AltitudeMeters>1331</AltitudeMeters>
            <DistanceMeters>30986.363424318</DistanceMeters>
          </Trackpoint>
          <Trackpoint>
            <Time>2023-02-23T13:20:00.000Z</Time>
            <Position>
              <LatitudeDegrees>41.53635428287088871002197265625</LatitudeDegrees>
              <LongitudeDegrees>-4.51700451783835887908935546875</LongitudeDegrees>
            </Position>
            <AltitudeMeters>1331.800048828125</AltitudeMeters>
            <DistanceMeters>31024.806164213</DistanceMeters>
          </Trackpoint>
          <Trackpoint>
            <Time>2023-02-23T13:20:04.000Z</Time>
            <Position>
              <LatitudeDegrees>41.53638529591262340545654296875</LatitudeDegrees>
              <LongitudeDegrees>-4.5171982236206531524658203125</LongitudeDegrees>
            </Position>
            <AltitudeMeters>1331.800048828125</AltitudeMeters>
            <DistanceMeters>31041.309653714</DistanceMeters>
          </Trackpoint>
          <Trackpoint>
            <Time>2023-02-23T13:20:07.000Z</Time>
            <Position>
              <LatitudeDegrees>41.5364053286612033843994140625</LatitudeDegrees>
              <LongitudeDegrees>-4.517339877784252166748046875</LongitudeDegrees>
            </Position>
            <AltitudeMeters>1331.5999755859375</AltitudeMeters>
            <DistanceMeters>31053.32029363</DistanceMeters>
          </Trackpoint>
          <Trackpoint>
            <Time>2023-02-23T13:20:13.000Z</Time>
            <Position>
              <LatitudeDegrees>41.53641060926020145416259765625</LatitudeDegrees>
              <LongitudeDegrees>-4.5176379382610321044921875</LongitudeDegrees>
            </Position>
            <AltitudeMeters>1331.199951171875</AltitudeMeters>
            <DistanceMeters>31078.159556967</DistanceMeters>
          </Trackpoint>
          <Trackpoint>
            <Time>2023-02-23T13:20:19.000Z</Time>
            <Position>
              <LatitudeDegrees>41.53646693564951419830322265625</LatitudeDegrees>
              <LongitudeDegrees>-4.51792895793914794921875</LongitudeDegrees>
            </Position>
            <AltitudeMeters>1331.4000244140625</AltitudeMeters>
            <DistanceMeters>31103.202657198</DistanceMeters>
          </Trackpoint>
          <Trackpoint>
            <Time>2023-02-23T13:20:24.000Z</Time>
            <Position>
              <LatitudeDegrees>41.5365038998425006866455078125</LatitudeDegrees>
              <LongitudeDegrees>-4.5181849412620067596435546875</LongitudeDegrees>
            </Position>
            <AltitudeMeters>1332</AltitudeMeters>
            <DistanceMeters>31124.922446644</DistanceMeters>
          </Trackpoint>
          <Trackpoint>
            <Time>2023-02-23T13:20:26.000Z</Time>
            <Position>
              <LatitudeDegrees>41.53651772998273372650146484375</LatitudeDegrees>
              <LongitudeDegrees>-4.51828544028103351593017578125</LongitudeDegrees>
            </Position>
            <AltitudeMeters>1332</AltitudeMeters>
            <DistanceMeters>31133.435694763</DistanceMeters>
          </Trackpoint>
          <Trackpoint>
            <Time>2023-02-23T13:20:28.000Z</Time>
            <Position>
              <LatitudeDegrees>41.5365344099700450897216796875</LatitudeDegrees>
              <LongitudeDegrees>-4.51838753186166286468505859375</LongitudeDegrees>
            </Position>
            <AltitudeMeters>1332.199951171875</AltitudeMeters>
            <DistanceMeters>31142.141925961</DistanceMeters>
          </Trackpoint>
          <Trackpoint>
            <Time>2023-02-23T13:20:35.000Z</Time>
            <Position>
              <LatitudeDegrees>41.53661462478339672088623046875</LatitudeDegrees>
              <LongitudeDegrees>-4.51875600032508373260498046875</LongitudeDegrees>
            </Position>
            <AltitudeMeters>1331.800048828125</AltitudeMeters>
            <DistanceMeters>31174.112307921</DistanceMeters>
          </Trackpoint>
          <Trackpoint>
            <Time>2023-02-23T13:20:36.000Z</Time>
            <Position>
              <LatitudeDegrees>41.536622084677219390869140625</LatitudeDegrees>
              <LongitudeDegrees>-4.51881098560988903045654296875</LongitudeDegrees>
            </Position>
            <AltitudeMeters>1331.800048828125</AltitudeMeters>
            <DistanceMeters>31178.768616925</DistanceMeters>
          </Trackpoint>
          <Trackpoint>
            <Time>2023-02-23T13:20:42.000Z</Time>
            <Position>
              <LatitudeDegrees>41.53666525147855281829833984375</LatitudeDegrees>
              <LongitudeDegrees>-4.51913754455745220184326171875</LongitudeDegrees>
            </Position>
            <AltitudeMeters>1331</AltitudeMeters>
            <DistanceMeters>31206.396398263</DistanceMeters>
          </Trackpoint>
          <Trackpoint>
            <Time>2023-02-23T13:20:44.000Z</Time>
            <Position>
              <LatitudeDegrees>41.536678411066532135009765625</LatitudeDegrees>
              <LongitudeDegrees>-4.51924080960452556610107421875</LongitudeDegrees>
            </Position>
            <AltitudeMeters>1330.4000244140625</AltitudeMeters>
            <DistanceMeters>31215.124383418</DistanceMeters>
          </Trackpoint>
          <Trackpoint>
            <Time>2023-02-23T13:20:51.000Z</Time>
            <Position>
              <LatitudeDegrees>41.5367285348474979400634765625</LatitudeDegrees>
              <LongitudeDegrees>-4.51958899386227130889892578125</LongitudeDegrees>
            </Position>
            <AltitudeMeters>1330.5999755859375</AltitudeMeters>
            <DistanceMeters>31244.664244234</DistanceMeters>
          </Trackpoint>
          <Trackpoint>
            <Time>2023-02-23T13:20:59.000Z</Time>
            <Position>
              <LatitudeDegrees>41.53683020733296871185302734375</LatitudeDegrees>
              <LongitudeDegrees>-4.51995628885924816131591796875</LongitudeDegrees>
            </Position>
            <AltitudeMeters>1331.5999755859375</AltitudeMeters>
            <DistanceMeters>31277.290251976</DistanceMeters>
          </Trackpoint>
          <Trackpoint>
            <Time>2023-02-23T13:21:05.000Z</Time>
            <Position>
              <LatitudeDegrees>41.53690463863313198089599609375</LatitudeDegrees>
              <LongitudeDegrees>-4.5202262699604034423828125</LongitudeDegrees>
            </Position>
            <AltitudeMeters>1330.800048828125</AltitudeMeters>
            <DistanceMeters>31301.260352183</DistanceMeters>
          </Trackpoint>
          <Trackpoint>
            <Time>2023-02-23T13:21:07.000Z</Time>
            <Position>
              <LatitudeDegrees>41.53691436164081096649169921875</LatitudeDegrees>
              <LongitudeDegrees>-4.52031419612467288970947265625</LongitudeDegrees>
            </Position>
            <AltitudeMeters>1331.4000244140625</AltitudeMeters>
            <DistanceMeters>31308.665122549</DistanceMeters>
          </Trackpoint>
          <Trackpoint>
            <Time>2023-02-23T13:21:13.000Z</Time>
            <Position>
              <LatitudeDegrees>41.5369592048227787017822265625</LatitudeDegrees>
              <LongitudeDegrees>-4.5205727778375148773193359375</LongitudeDegrees>
            </Position>
            <AltitudeMeters>1330</AltitudeMeters>
            <DistanceMeters>31330.778800663</DistanceMeters>
          </Trackpoint>
          <Trackpoint>
            <Time>2023-02-23T13:21:15.000Z</Time>
            <Position>
              <LatitudeDegrees>41.53697605244815349578857421875</LatitudeDegrees>
              <LongitudeDegrees>-4.52066606841981410980224609375</LongitudeDegrees>
            </Position>
            <AltitudeMeters>1329.800048828125</AltitudeMeters>
            <DistanceMeters>31338.774608391</DistanceMeters>
          </Trackpoint>
          <Trackpoint>
            <Time>2023-02-23T13:21:20.000Z</Time>
            <Position>
              <LatitudeDegrees>41.537006311118602752685546875</LatitudeDegrees>
              <LongitudeDegrees>-4.520896486937999725341796875</LongitudeDegrees>
            </Position>
            <AltitudeMeters>1331.199951171875</AltitudeMeters>
            <DistanceMeters>31358.265048506</DistanceMeters>
          </Trackpoint>
          <Trackpoint>
            <Time>2023-02-23T13:21:21.000Z</Time>
            <Position>
              <LatitudeDegrees>41.5370172075927257537841796875</LatitudeDegrees>
              <LongitudeDegrees>-4.52093479223549365997314453125</LongitudeDegrees>
            </Position>
            <AltitudeMeters>1331.5999755859375</AltitudeMeters>
            <DistanceMeters>31361.679404768</DistanceMeters>
          </Trackpoint>
          <Trackpoint>
            <Time>2023-02-23T13:21:29.000Z</Time>
            <Position>
              <LatitudeDegrees>41.53710161335766315460205078125</LatitudeDegrees>
              <LongitudeDegrees>-4.5212781988084316253662109375</LongitudeDegrees>
            </Position>
            <AltitudeMeters>1331.5999755859375</AltitudeMeters>
            <DistanceMeters>31391.792529424</DistanceMeters>
          </Trackpoint>
          <Trackpoint>
            <Time>2023-02-23T13:21:34.000Z</Time>
            <Position>
              <LatitudeDegrees>41.53714335523545742034912109375</LatitudeDegrees>
              <LongitudeDegrees>-4.52149537391960620880126953125</LongitudeDegrees>
            </Position>
            <AltitudeMeters>1332.4000244140625</AltitudeMeters>
            <DistanceMeters>31410.472954314</DistanceMeters>
          </Trackpoint>
          <Trackpoint>
            <Time>2023-02-23T13:21:37.000Z</Time>
            <Position>
              <LatitudeDegrees>41.537161208689212799072265625</LatitudeDegrees>
              <LongitudeDegrees>-4.52161540277302265167236328125</LongitudeDegrees>
            </Position>
            <AltitudeMeters>1332.5999755859375</AltitudeMeters>
            <DistanceMeters>31420.667863822</DistanceMeters>
          </Trackpoint>
          <Trackpoint>
            <Time>2023-02-23T13:21:41.000Z</Time>
            <Position>
              <LatitudeDegrees>41.53719800524413585662841796875</LatitudeDegrees>
              <LongitudeDegrees>-4.52178706414997577667236328125</LongitudeDegrees>
            </Position>
            <AltitudeMeters>1331.199951171875</AltitudeMeters>
            <DistanceMeters>31435.544325548</DistanceMeters>
          </Trackpoint>
          <Trackpoint>
            <Time>2023-02-23T13:21:43.000Z</Time>
            <Position>
              <LatitudeDegrees>41.537217535078525543212890625</LatitudeDegrees>
              <LongitudeDegrees>-4.5218706317245960235595703125</LongitudeDegrees>
            </Position>
            <AltitudeMeters>1331.199951171875</AltitudeMeters>
            <DistanceMeters>31442.83851573</DistanceMeters>
          </Trackpoint>
          <Trackpoint>
            <Time>2023-02-23T13:21:45.000Z</Time>
            <Position>
              <LatitudeDegrees>41.537235639989376068115234375</LatitudeDegrees>
              <LongitudeDegrees>-4.52196476049721240997314453125</LongitudeDegrees>
            </Position>
            <AltitudeMeters>1331.5999755859375</AltitudeMeters>
            <DistanceMeters>31450.935327138</DistanceMeters>
          </Trackpoint>
          <Trackpoint>
            <Time>2023-02-23T13:21:47.000Z</Time>
            <Position>
              <LatitudeDegrees>41.53725869022309780120849609375</LatitudeDegrees>
              <LongitudeDegrees>-4.5220533572137355804443359375</LongitudeDegrees>
            </Position>
            <AltitudeMeters>1331.800048828125</AltitudeMeters>
            <DistanceMeters>31458.749505081</DistanceMeters>
          </Trackpoint>
          <Trackpoint>
            <Time>2023-02-23T13:21:51.000Z</Time>
            <Position>
              <LatitudeDegrees>41.5373097360134124755859375</LatitudeDegrees>
              <LongitudeDegrees>-4.52222392894327640533447265625</LongitudeDegrees>
            </Position>
            <AltitudeMeters>1330.5999755859375</AltitudeMeters>
            <DistanceMeters>31474.05382221</DistanceMeters>
          </Trackpoint>
          <Trackpoint>
            <Time>2023-02-23T13:21:53.000Z</Time>
            <Position>
              <LatitudeDegrees>41.53733110986649990081787109375</LatitudeDegrees>
              <LongitudeDegrees>-4.5223138667643070220947265625</LongitudeDegrees>
            </Position>
            <AltitudeMeters>1330</AltitudeMeters>
            <DistanceMeters>31481.916385618</DistanceMeters>
          </Trackpoint>
          <Trackpoint>
            <Time>2023-02-23T13:21:56.000Z</Time>
            <Position>
              <LatitudeDegrees>41.5373575128614902496337890625</LatitudeDegrees>
              <LongitudeDegrees>-4.52245719730854034423828125</LongitudeDegrees>
            </Position>
            <AltitudeMeters>1331</AltitudeMeters>
            <DistanceMeters>31494.21381178</DistanceMeters>
          </Trackpoint>
          <Trackpoint>
            <Time>2023-02-23T13:21:57.000Z</Time>
            <Position>
              <LatitudeDegrees>41.53736530803143978118896484375</LatitudeDegrees>
              <LongitudeDegrees>-4.522505812346935272216796875</LongitudeDegrees>
            </Position>
            <AltitudeMeters>1331.199951171875</AltitudeMeters>
            <DistanceMeters>31498.354840054</DistanceMeters>
          </Trackpoint>
          <Trackpoint>
            <Time>2023-02-23T13:21:59.000Z</Time>
            <Position>
              <LatitudeDegrees>41.537383832037448883056640625</LatitudeDegrees>
              <LongitudeDegrees>-4.52260597608983516693115234375</LongitudeDegrees>
            </Position>
            <AltitudeMeters>1331.199951171875</AltitudeMeters>
            <DistanceMeters>31506.950425285</DistanceMeters>
          </Trackpoint>
          <Trackpoint>
            <Time>2023-02-23T13:22:00.000Z</Time>
            <Position>
              <LatitudeDegrees>41.53739129193127155303955078125</LatitudeDegrees>
              <LongitudeDegrees>-4.52265727333724498748779296875</LongitudeDegrees>
            </Position>
            <AltitudeMeters>1331.199951171875</AltitudeMeters>
            <DistanceMeters>31511.305096401</DistanceMeters>
          </Trackpoint>
          <Trackpoint>
            <Time>2023-02-23T13:22:05.000Z</Time>
            <Position>
              <LatitudeDegrees>41.53741761110723018646240234375</LatitudeDegrees>
              <LongitudeDegrees>-4.52287855558097362518310546875</LongitudeDegrees>
            </Position>
            <AltitudeMeters>1330.800048828125</AltitudeMeters>
            <DistanceMeters>31529.971981246</DistanceMeters>
          </Trackpoint>
          <Trackpoint>
            <Time>2023-02-23T13:22:13.000Z</Time>
            <Position>
              <LatitudeDegrees>41.537487767636775970458984375</LatitudeDegrees>
              <LongitudeDegrees>-4.5232499577105045318603515625</LongitudeDegrees>
            </Position>
            <AltitudeMeters>1331.5999755859375</AltitudeMeters>
            <DistanceMeters>31561.884266674</DistanceMeters>
          </Trackpoint>
          <Trackpoint>
            <Time>2023-02-23T13:22:21.000Z</Time>
            <Position>
              <LatitudeDegrees>41.53752498328685760498046875</LatitudeDegrees>
              <LongitudeDegrees>-4.5236231200397014617919921875</LongitudeDegrees>
            </Position>
            <AltitudeMeters>1330.199951171875</AltitudeMeters>
            <DistanceMeters>31593.247689433</DistanceMeters>
          </Trackpoint>
          <Trackpoint>
            <Time>2023-02-23T13:22:22.000Z</Time>
            <Position>
              <LatitudeDegrees>41.53751702047884464263916015625</LatitudeDegrees>
              <LongitudeDegrees>-4.52367684803903102874755859375</LongitudeDegrees>
            </Position>
            <AltitudeMeters>1330.199951171875</AltitudeMeters>
            <DistanceMeters>31597.810951017</DistanceMeters>
          </Trackpoint>
          <Trackpoint>
            <Time>2023-02-23T13:22:28.000Z</Time>
            <Position>
              <LatitudeDegrees>41.53748734854161739349365234375</LatitudeDegrees>
              <LongitudeDegrees>-4.52396518550813198089599609375</LongitudeDegrees>
            </Position>
            <AltitudeMeters>1330</AltitudeMeters>
            <DistanceMeters>31622.058781999</DistanceMeters>
          </Trackpoint>
          <Trackpoint>
            <Time>2023-02-23T13:22:32.000Z</Time>
            <Position>
              <LatitudeDegrees>41.5374621190130710601806640625</LatitudeDegrees>
              <LongitudeDegrees>-4.52416433952748775482177734375</LongitudeDegrees>
            </Position>
            <AltitudeMeters>1331.5999755859375</AltitudeMeters>
            <DistanceMeters>31638.886293316</DistanceMeters>
          </Trackpoint>
          <Trackpoint>
            <Time>2023-02-23T13:22:36.000Z</Time>
            <Position>
              <LatitudeDegrees>41.53743923641741275787353515625</LatitudeDegrees>
              <LongitudeDegrees>-4.52437321655452251434326171875</LongitudeDegrees>
            </Position>
            <AltitudeMeters>1331.800048828125</AltitudeMeters>
            <DistanceMeters>31656.473681937</DistanceMeters>
          </Trackpoint>
          <Trackpoint>
            <Time>2023-02-23T13:22:42.000Z</Time>
            <Position>
              <LatitudeDegrees>41.53741509653627872467041015625</LatitudeDegrees>
              <LongitudeDegrees>-4.5246742106974124908447265625</LongitudeDegrees>
            </Position>
            <AltitudeMeters>1332.4000244140625</AltitudeMeters>
            <DistanceMeters>31681.693743287</DistanceMeters>
          </Trackpoint>
          <Trackpoint>
            <Time>2023-02-23T13:22:49.000Z</Time>
            <Position>
              <LatitudeDegrees>41.5374004282057285308837890625</LatitudeDegrees>
              <LongitudeDegrees>-4.52502499334514141082763671875</LongitudeDegrees>
            </Position>
            <AltitudeMeters>1331.199951171875</AltitudeMeters>
            <DistanceMeters>31710.963822424</DistanceMeters>
          </Trackpoint>
          <Trackpoint>
            <Time>2023-02-23T13:22:51.000Z</Time>
            <Position>
              <LatitudeDegrees>41.53739799745380878448486328125</LatitudeDegrees>
              <LongitudeDegrees>-4.5251320302486419677734375</LongitudeDegrees>
            </Position>
            <AltitudeMeters>1330.5999755859375</AltitudeMeters>
            <DistanceMeters>31719.885206497</DistanceMeters>
          </Trackpoint>
          <Trackpoint>
            <Time>2023-02-23T13:22:54.000Z</Time>
            <Position>
              <LatitudeDegrees>41.53738710097968578338623046875</LatitudeDegrees>
              <LongitudeDegrees>-4.52528030611574649810791015625</LongitudeDegrees>
            </Position>
            <AltitudeMeters>1330.4000244140625</AltitudeMeters>
            <DistanceMeters>31732.297383349</DistanceMeters>
          </Trackpoint>
          <Trackpoint>
            <Time>2023-02-23T13:22:57.000Z</Time>
            <Position>
              <LatitudeDegrees>41.5373732708394527435302734375</LatitudeDegrees>
              <LongitudeDegrees>-4.52543285675346851348876953125</LongitudeDegrees>
            </Position>
            <AltitudeMeters>1331</AltitudeMeters>
            <DistanceMeters>31745.099566267</DistanceMeters>
          </Trackpoint>
          <Trackpoint>
            <Time>2023-02-23T13:23:03.000Z</Time>
            <Position>
              <LatitudeDegrees>41.5373231470584869384765625</LatitudeDegrees>
              <LongitudeDegrees>-4.5257467590272426605224609375</LongitudeDegrees>
            </Position>
            <AltitudeMeters>1331.800048828125</AltitudeMeters>
            <DistanceMeters>31771.83975275</DistanceMeters>
          </Trackpoint>
          <Trackpoint>
            <Time>2023-02-23T13:23:04.000Z</Time>
            <Position>
              <LatitudeDegrees>41.5373149327933788299560546875</LatitudeDegrees>
              <LongitudeDegrees>-4.52579814009368419647216796875</LongitudeDegrees>
            </Position>
            <AltitudeMeters>1332</AltitudeMeters>
            <DistanceMeters>31776.217174618</DistanceMeters>
          </Trackpoint>
          <Trackpoint>
            <Time>2023-02-23T13:23:10.000Z</Time>
            <Position>
              <LatitudeDegrees>41.53726489283144474029541015625</LatitudeDegrees>
              <LongitudeDegrees>-4.52611732296645641326904296875</LongitudeDegrees>
            </Position>
            <AltitudeMeters>1333</AltitudeMeters>
            <DistanceMeters>31803.386008579</DistanceMeters>
          </Trackpoint>
          <Trackpoint>
            <Time>2023-02-23T13:23:12.000Z</Time>
            <Position>
              <LatitudeDegrees>41.5372478775680065155029296875</LatitudeDegrees>
              <LongitudeDegrees>-4.526229389011859893798828125</LongitudeDegrees>
            </Position>
            <AltitudeMeters>1333.199951171875</AltitudeMeters>
            <DistanceMeters>31812.912407072</DistanceMeters>
          </Trackpoint>
          <Trackpoint>
            <Time>2023-02-23T13:23:13.000Z</Time>
            <Position>
              <LatitudeDegrees>41.53723941184580326080322265625</LatitudeDegrees>
              <LongitudeDegrees>-4.526281021535396575927734375</LongitudeDegrees>
            </Position>
            <AltitudeMeters>1333.199951171875</AltitudeMeters>
            <DistanceMeters>31817.316564676</DistanceMeters>
          </Trackpoint>
          <Trackpoint>
            <Time>2023-02-23T13:23:18.000Z</Time>
            <Position>
              <LatitudeDegrees>41.5372039563953876495361328125</LatitudeDegrees>
              <LongitudeDegrees>-4.52655133791267871856689453125</LongitudeDegrees>
            </Position>
            <AltitudeMeters>1332</AltitudeMeters>
            <DistanceMeters>31840.180710965</DistanceMeters>
          </Trackpoint>
          <Trackpoint>
            <Time>2023-02-23T13:23:20.000Z</Time>
            <Position>
              <LatitudeDegrees>41.5371892042458057403564453125</LatitudeDegrees>
              <LongitudeDegrees>-4.52665762044489383697509765625</LongitudeDegrees>
            </Position>
            <AltitudeMeters>1331.800048828125</AltitudeMeters>
            <DistanceMeters>31849.186717106</DistanceMeters>
          </Trackpoint>
          <Trackpoint>
            <Time>2023-02-23T13:23:23.000Z</Time>
            <Position>
              <LatitudeDegrees>41.537180654704570770263671875</LatitudeDegrees>
              <LongitudeDegrees>-4.526810757815837860107421875</LongitudeDegrees>
            </Position>
            <AltitudeMeters>1331.800048828125</AltitudeMeters>
            <DistanceMeters>31861.980432971</DistanceMeters>
          </Trackpoint>
          <Trackpoint>
            <Time>2023-02-23T13:23:28.000Z</Time>
            <Position>
              <LatitudeDegrees>41.53715726919472217559814453125</LatitudeDegrees>
              <LongitudeDegrees>-4.527064226567745208740234375</LongitudeDegrees>
            </Position>
            <AltitudeMeters>1331.199951171875</AltitudeMeters>
            <DistanceMeters>31883.25750637</DistanceMeters>
          </Trackpoint>
          <Trackpoint>
            <Time>2023-02-23T13:23:31.000Z</Time>
            <Position>
              <LatitudeDegrees>41.53713782317936420440673828125</LatitudeDegrees>
              <LongitudeDegrees>-4.5272219739854335784912109375</LongitudeDegrees>
            </Position>
            <AltitudeMeters>1331.199951171875</AltitudeMeters>
            <DistanceMeters>31896.576509777</DistanceMeters>
          </Trackpoint>
          <Trackpoint>
            <Time>2023-02-23T13:23:33.000Z</Time>
            <Position>
              <LatitudeDegrees>41.5371275134384632110595703125</LatitudeDegrees>
              <LongitudeDegrees>-4.5273368060588836669921875</LongitudeDegrees>
            </Position>
            <AltitudeMeters>1331</AltitudeMeters>
            <DistanceMeters>31906.212237357</DistanceMeters>
          </Trackpoint>
          <Trackpoint>
            <Time>2023-02-23T13:23:34.000Z</Time>
            <Position>
              <LatitudeDegrees>41.5371231548488140106201171875</LatitudeDegrees>
              <LongitudeDegrees>-4.5273933000862598419189453125</LongitudeDegrees>
            </Position>
            <AltitudeMeters>1330.800048828125</AltitudeMeters>
            <DistanceMeters>31910.944529569</DistanceMeters>
          </Trackpoint>
          <Trackpoint>
            <Time>2023-02-23T13:23:38.000Z</Time>
            <Position>
              <LatitudeDegrees>41.5371154434978961944580078125</LatitudeDegrees>
              <LongitudeDegrees>-4.52762220986187458038330078125</LongitudeDegrees>
            </Position>
            <AltitudeMeters>1330.4000244140625</AltitudeMeters>
            <DistanceMeters>31930.034968411</DistanceMeters>
          </Trackpoint>
          <Trackpoint>
            <Time>2023-02-23T13:23:46.000Z</Time>
            <Position>
              <LatitudeDegrees>41.53712089173495769500732421875</LatitudeDegrees>
              <LongitudeDegrees>-4.52805656008422374725341796875</LongitudeDegrees>
            </Position>
            <AltitudeMeters>1330.4000244140625</AltitudeMeters>
            <DistanceMeters>31966.227049985</DistanceMeters>
          </Trackpoint>
          <Trackpoint>
            <Time>2023-02-23T13:23:49.000Z</Time>
            <Position>
              <LatitudeDegrees>41.53712390922009944915771484375</LatitudeDegrees>
              <LongitudeDegrees>-4.52820391394197940826416015625</LongitudeDegrees>
            </Position>
            <AltitudeMeters>1329.4000244140625</AltitudeMeters>
            <DistanceMeters>31978.508310786</DistanceMeters>
          </Trackpoint>
          <Trackpoint>
            <Time>2023-02-23T13:23:53.000Z</Time>
            <Position>
              <LatitudeDegrees>41.537136398255825042724609375</LatitudeDegrees>
              <LongitudeDegrees>-4.528384543955326080322265625</LongitudeDegrees>
            </Position>
            <AltitudeMeters>1328.4000244140625</AltitudeMeters>
            <DistanceMeters>31993.621143859</DistanceMeters>
          </Trackpoint>
          <Trackpoint>
            <Time>2023-02-23T13:23:59.000Z</Time>
            <Position>
              <LatitudeDegrees>41.53718342073261737823486328125</LatitudeDegrees>
              <LongitudeDegrees>-4.52867547981441020965576171875</LongitudeDegrees>
            </Position>
            <AltitudeMeters>1330</AltitudeMeters>
            <DistanceMeters>32018.418382726</DistanceMeters>
          </Trackpoint>
          <Trackpoint>
            <Time>2023-02-23T13:24:01.000Z</Time>
            <Position>
              <LatitudeDegrees>41.5371945686638355255126953125</LatitudeDegrees>
              <LongitudeDegrees>-4.528775475919246673583984375</LongitudeDegrees>
            </Position>
            <AltitudeMeters>1329.5999755859375</AltitudeMeters>
            <DistanceMeters>32026.840988056</DistanceMeters>
          </Trackpoint>
          <Trackpoint>
            <Time>2023-02-23T13:24:10.000Z</Time>
            <Position>
              <LatitudeDegrees>41.53726640157401561737060546875</LatitudeDegrees>
              <LongitudeDegrees>-4.52922667376697063446044921875</LongitudeDegrees>
            </Position>
            <AltitudeMeters>1330.4000244140625</AltitudeMeters>
            <DistanceMeters>32065.272216285</DistanceMeters>
          </Trackpoint>
          <Trackpoint>
            <Time>2023-02-23T13:24:11.000Z</Time>
            <Position>
              <LatitudeDegrees>41.53727461583912372589111328125</LatitudeDegrees>
              <LongitudeDegrees>-4.5292792282998561859130859375</LongitudeDegrees>
            </Position>
            <AltitudeMeters>1330.800048828125</AltitudeMeters>
            <DistanceMeters>32069.744533282</DistanceMeters>
          </Trackpoint>
          <Trackpoint>
            <Time>2023-02-23T13:24:20.000Z</Time>
            <Position>
              <LatitudeDegrees>41.53736229054629802703857421875</LatitudeDegrees>
              <LongitudeDegrees>-4.529724307358264923095703125</LongitudeDegrees>
            </Position>
            <AltitudeMeters>1330.4000244140625</AltitudeMeters>
            <DistanceMeters>32108.087547585</DistanceMeters>
          </Trackpoint>
          <Trackpoint>
            <Time>2023-02-23T13:24:27.000Z</Time>
            <Position>
              <LatitudeDegrees>41.5374403260648250579833984375</LatitudeDegrees>
              <LongitudeDegrees>-4.530054889619350433349609375</LongitudeDegrees>
            </Position>
            <AltitudeMeters>1330.199951171875</AltitudeMeters>
            <DistanceMeters>32136.96613325</DistanceMeters>
          </Trackpoint>
          <Trackpoint>
            <Time>2023-02-23T13:24:35.000Z</Time>
            <Position>
              <LatitudeDegrees>41.5375207923352718353271484375</LatitudeDegrees>
              <LongitudeDegrees>-4.53046535141766071319580078125</LongitudeDegrees>
            </Position>
            <AltitudeMeters>1329.800048828125</AltitudeMeters>
            <DistanceMeters>32172.315943271</DistanceMeters>
          </Trackpoint>
          <Trackpoint>
            <Time>2023-02-23T13:24:42.000Z</Time>
            <Position>
              <LatitudeDegrees>41.53755071572959423065185546875</LatitudeDegrees>
              <LongitudeDegrees>-4.53082661144435405731201171875</LongitudeDegrees>
            </Position>
            <AltitudeMeters>1331.199951171875</AltitudeMeters>
            <DistanceMeters>32202.596828699</DistanceMeters>
          </Trackpoint>
          <Trackpoint>
            <Time>2023-02-23T13:24:46.000Z</Time>
            <Position>
              <LatitudeDegrees>41.53758172877132892608642578125</LatitudeDegrees>
              <LongitudeDegrees>-4.53104789368808269500732421875</LongitudeDegrees>
            </Position>
            <AltitudeMeters>1330.5999755859375</AltitudeMeters>
            <DistanceMeters>32221.352752777</DistanceMeters>
          </Trackpoint>
          <Trackpoint>
            <Time>2023-02-23T13:24:48.000Z</Time>
            <Position>
              <LatitudeDegrees>41.537582315504550933837890625</LatitudeDegrees>
              <LongitudeDegrees>-4.53115819953382015228271484375</LongitudeDegrees>
            </Position>
            <AltitudeMeters>1330.800048828125</AltitudeMeters>
            <DistanceMeters>32230.542872742</DistanceMeters>
          </Trackpoint>
          <Trackpoint>
            <Time>2023-02-23T13:24:55.000Z</Time>
            <Position>
              <LatitudeDegrees>41.53762263245880603790283203125</LatitudeDegrees>
              <LongitudeDegrees>-4.53153504990041255950927734375</LongitudeDegrees>
            </Position>
            <AltitudeMeters>1330.4000244140625</AltitudeMeters>
            <DistanceMeters>32262.258029766</DistanceMeters>
          </Trackpoint>
          <Trackpoint>
            <Time>2023-02-23T13:25:00.000Z</Time>
            <Position>
              <LatitudeDegrees>41.5376408211886882781982421875</LatitudeDegrees>
              <LongitudeDegrees>-4.5318142510950565338134765625</LongitudeDegrees>
            </Position>
            <AltitudeMeters>1330</AltitudeMeters>
            <DistanceMeters>32285.606772239</DistanceMeters>
          </Trackpoint>
          <Trackpoint>
            <Time>2023-02-23T13:25:03.000Z</Time>
            <Position>
              <LatitudeDegrees>41.53764702379703521728515625</LatitudeDegrees>
              <LongitudeDegrees>-4.53195624053478240966796875</LongitudeDegrees>
            </Position>
            <AltitudeMeters>1329.5999755859375</AltitudeMeters>
            <DistanceMeters>32297.455807159</DistanceMeters>
          </Trackpoint>
          <Trackpoint>
            <Time>2023-02-23T13:25:08.000Z</Time>
            <Position>
              <LatitudeDegrees>41.537656076252460479736328125</LatitudeDegrees>
              <LongitudeDegrees>-4.53220526687800884246826171875</LongitudeDegrees>
            </Position>
            <AltitudeMeters>1329.800048828125</AltitudeMeters>
            <DistanceMeters>32318.227134089</DistanceMeters>
          </Trackpoint>
          <Trackpoint>
            <Time>2023-02-23T13:25:09.000Z</Time>
            <Position>
              <LatitudeDegrees>41.53765683062374591827392578125</LatitudeDegrees>
              <LongitudeDegrees>-4.5322454161942005157470703125</LongitudeDegrees>
            </Position>
            <AltitudeMeters>1330</AltitudeMeters>
            <DistanceMeters>32321.572020442</DistanceMeters>
          </Trackpoint>
          <Trackpoint>
            <Time>2023-02-23T13:25:14.000Z</Time>
            <Position>
              <LatitudeDegrees>41.53764693997800350189208984375</LatitudeDegrees>
              <LongitudeDegrees>-4.53247885219752788543701171875</LongitudeDegrees>
            </Position>
            <AltitudeMeters>1330.5999755859375</AltitudeMeters>
            <DistanceMeters>32341.051337991</DistanceMeters>
          </Trackpoint>
          <Trackpoint>
            <Time>2023-02-23T13:25:21.000Z</Time>
            <Position>
              <LatitudeDegrees>41.53765984810888767242431640625</LatitudeDegrees>
              <LongitudeDegrees>-4.5328492484986782073974609375</LongitudeDegrees>
            </Position>
            <AltitudeMeters>1329.5999755859375</AltitudeMeters>
            <DistanceMeters>32371.943059837</DistanceMeters>
          </Trackpoint>
          <Trackpoint>
            <Time>2023-02-23T13:25:29.000Z</Time>
            <Position>
              <LatitudeDegrees>41.53770645149052143096923828125</LatitudeDegrees>
              <LongitudeDegrees>-4.53321897424757480621337890625</LongitudeDegrees>
            </Position>
            <AltitudeMeters>1329.5999755859375</AltitudeMeters>
            <DistanceMeters>32403.179252943</DistanceMeters>
          </Trackpoint>
          <Trackpoint>
            <Time>2023-02-23T13:25:33.000Z</Time>
            <Position>
              <LatitudeDegrees>41.53768247924745082855224609375</LatitudeDegrees>
              <LongitudeDegrees>-4.53340605832636356353759765625</LongitudeDegrees>
            </Position>
            <AltitudeMeters>1330</AltitudeMeters>
            <DistanceMeters>32418.99199517</DistanceMeters>
          </Trackpoint>
          <Trackpoint>
            <Time>2023-02-23T13:25:37.000Z</Time>
            <Position>
              <LatitudeDegrees>41.5375945530831813812255859375</LatitudeDegrees>
              <LongitudeDegrees>-4.5335915498435497283935546875</LongitudeDegrees>
            </Position>
            <AltitudeMeters>1329.4000244140625</AltitudeMeters>
            <DistanceMeters>32437.28358866</DistanceMeters>
          </Trackpoint>
          <Trackpoint>
            <Time>2023-02-23T13:25:40.000Z</Time>
            <Position>
              <LatitudeDegrees>41.53753160499036312103271484375</LatitudeDegrees>
              <LongitudeDegrees>-4.5337394066154956817626953125</LongitudeDegrees>
            </Position>
            <AltitudeMeters>1329</AltitudeMeters>
            <DistanceMeters>32451.455000026</DistanceMeters>
          </Trackpoint>
          <Trackpoint>
            <Time>2023-02-23T13:25:46.000Z</Time>
            <Position>
              <LatitudeDegrees>41.53746522031724452972412109375</LatitudeDegrees>
              <LongitudeDegrees>-4.53404744155704975128173828125</LongitudeDegrees>
            </Position>
            <AltitudeMeters>1328.800048828125</AltitudeMeters>
            <DistanceMeters>32478.160719218</DistanceMeters>
          </Trackpoint>
          <Trackpoint>
            <Time>2023-02-23T13:25:51.000Z</Time>
            <Position>
              <LatitudeDegrees>41.5374507196247577667236328125</LatitudeDegrees>
              <LongitudeDegrees>-4.53421005047857761383056640625</LongitudeDegrees>
            </Position>
            <AltitudeMeters>1328.800048828125</AltitudeMeters>
            <DistanceMeters>32491.803921398</DistanceMeters>
          </Trackpoint>
          <Trackpoint>
            <Time>2023-02-23T13:25:56.000Z</Time>
            <Position>
              <LatitudeDegrees>41.53733932413160800933837890625</LatitudeDegrees>
              <LongitudeDegrees>-4.53424709849059581756591796875</LongitudeDegrees>
            </Position>
            <AltitudeMeters>1329.4000244140625</AltitudeMeters>
            <DistanceMeters>32504.581393062</DistanceMeters>
          </Trackpoint>
          <Trackpoint>
            <Time>2023-02-23T13:26:01.000Z</Time>
            <Position>
              <LatitudeDegrees>41.537213511765003204345703125</LatitudeDegrees>
              <LongitudeDegrees>-4.53428984619677066802978515625</LongitudeDegrees>
            </Position>
            <AltitudeMeters>1329.4000244140625</AltitudeMeters>
            <DistanceMeters>32519.030766663</DistanceMeters>
          </Trackpoint>
          <Trackpoint>
            <Time>2023-02-23T13:26:02.000Z</Time>
            <Position>
              <LatitudeDegrees>41.53718844987452030181884765625</LatitudeDegrees>
              <LongitudeDegrees>-4.53429604880511760711669921875</LongitudeDegrees>
            </Position>
            <AltitudeMeters>1329.4000244140625</AltitudeMeters>
            <DistanceMeters>32521.870460003</DistanceMeters>
          </Trackpoint>
          <Trackpoint>
            <Time>2023-02-23T13:26:05.000Z</Time>
            <Position>
              <LatitudeDegrees>41.5371151082217693328857421875</LatitudeDegrees>
              <LongitudeDegrees>-4.53430661000311374664306640625</LongitudeDegrees>
            </Position>
            <AltitudeMeters>1329.4000244140625</AltitudeMeters>
            <DistanceMeters>32530.081340024</DistanceMeters>
          </Trackpoint>
          <Trackpoint>
            <Time>2023-02-23T13:26:08.000Z</Time>
            <Position>
              <LatitudeDegrees>41.53701125644147396087646484375</LatitudeDegrees>
              <LongitudeDegrees>-4.53431918285787105560302734375</LongitudeDegrees>
            </Position>
            <AltitudeMeters>1329.4000244140625</AltitudeMeters>
            <DistanceMeters>32541.687833051</DistanceMeters>
          </Trackpoint>
          <Trackpoint>
            <Time>2023-02-23T13:26:09.000Z</Time>
            <Position>
              <LatitudeDegrees>41.53695635497570037841796875</LatitudeDegrees>
              <LongitudeDegrees>-4.534331001341342926025390625</LongitudeDegrees>
            </Position>
            <AltitudeMeters>1329.199951171875</AltitudeMeters>
            <DistanceMeters>32547.877713046</DistanceMeters>
          </Trackpoint>
          <Trackpoint>
            <Time>2023-02-23T13:26:10.000Z</Time>
            <Position>
              <LatitudeDegrees>41.5369320474565029144287109375</LatitudeDegrees>
              <LongitudeDegrees>-4.5343284867703914642333984375</LongitudeDegrees>
            </Position>
            <AltitudeMeters>1329.199951171875</AltitudeMeters>
            <DistanceMeters>32550.592218964</DistanceMeters>
          </Trackpoint>
          <Trackpoint>
            <Time>2023-02-23T13:26:11.000Z</Time>
            <Position>
              <LatitudeDegrees>41.53691905550658702850341796875</LatitudeDegrees>
              <LongitudeDegrees>-4.53432152979075908660888671875</LongitudeDegrees>
            </Position>
            <AltitudeMeters>1329.199951171875</AltitudeMeters>
            <DistanceMeters>32552.147873324</DistanceMeters>
          </Trackpoint>
          <Trackpoint>
            <Time>2023-02-23T13:26:12.000Z</Time>
            <Position>
              <LatitudeDegrees>41.536916792392730712890625</LatitudeDegrees>
              <LongitudeDegrees>-4.5343073643743991851806640625</LongitudeDegrees>
            </Position>
            <AltitudeMeters>1329</AltitudeMeters>
            <DistanceMeters>32553.349876748</DistanceMeters>
          </Trackpoint>
          <Trackpoint>
            <Time>2023-02-23T13:26:13.000Z</Time>
            <Position>
              <LatitudeDegrees>41.5369330532848834991455078125</LatitudeDegrees>
              <LongitudeDegrees>-4.53429956920444965362548828125</LongitudeDegrees>
            </Position>
            <AltitudeMeters>1328.800048828125</AltitudeMeters>
            <DistanceMeters>32555.274021062</DistanceMeters>
          </Trackpoint>
          <Trackpoint>
            <Time>2023-02-23T13:26:14.000Z</Time>
            <Position>
              <LatitudeDegrees>41.53695694170892238616943359375</LatitudeDegrees>
              <LongitudeDegrees>-4.5342952944338321685791015625</LongitudeDegrees>
            </Position>
            <AltitudeMeters>1328.800048828125</AltitudeMeters>
            <DistanceMeters>32557.956738141</DistanceMeters>
          </Trackpoint>
          <Trackpoint>
            <Time>2023-02-23T13:26:16.000Z</Time>
            <Position>
              <LatitudeDegrees>41.53701494447886943817138671875</LatitudeDegrees>
              <LongitudeDegrees>-4.53429336659610271453857421875</LongitudeDegrees>
            </Position>
            <AltitudeMeters>1328.199951171875</AltitudeMeters>
            <DistanceMeters>32564.414361002</DistanceMeters>
          </Trackpoint>
          <Trackpoint>
            <Time>2023-02-23T13:26:17.000Z</Time>
            <Position>
              <LatitudeDegrees>41.53703824616968631744384765625</LatitudeDegrees>
              <LongitudeDegrees>-4.53429470770061016082763671875</LongitudeDegrees>
            </Position>
            <AltitudeMeters>1328.199951171875</AltitudeMeters>
            <DistanceMeters>32567.009825706</DistanceMeters>
          </Trackpoint>
          <Trackpoint>
            <Time>2023-02-23T13:26:18.000Z</Time>
            <Position>
              <LatitudeDegrees>41.5370601229369640350341796875</LatitudeDegrees>
              <LongitudeDegrees>-4.5342949591577053070068359375</LongitudeDegrees>
            </Position>
            <AltitudeMeters>1328.5999755859375</AltitudeMeters>
            <DistanceMeters>32569.447404484</DistanceMeters>
          </Trackpoint>
          <Trackpoint>
            <Time>2023-02-23T13:26:21.000Z</Time>
            <Position>
              <LatitudeDegrees>41.53716330416500568389892578125</LatitudeDegrees>
              <LongitudeDegrees>-4.5342818833887577056884765625</LongitudeDegrees>
            </Position>
            <AltitudeMeters>1328.800048828125</AltitudeMeters>
            <DistanceMeters>32580.983663264</DistanceMeters>
          </Trackpoint>
          <Trackpoint>
            <Time>2023-02-23T13:26:23.000Z</Time>
            <Position>
              <LatitudeDegrees>41.5372210554778575897216796875</LatitudeDegrees>
              <LongitudeDegrees>-4.5342872478067874908447265625</LongitudeDegrees>
            </Position>
            <AltitudeMeters>1328.800048828125</AltitudeMeters>
            <DistanceMeters>32587.426586623</DistanceMeters>
          </Trackpoint>
          <Trackpoint>
            <Time>2023-02-23T13:26:27.000Z</Time>
            <Position>
              <LatitudeDegrees>41.53732121922075748443603515625</LatitudeDegrees>
              <LongitudeDegrees>-4.534274674952030181884765625</LongitudeDegrees>
            </Position>
            <AltitudeMeters>1328.199951171875</AltitudeMeters>
            <DistanceMeters>32598.62402434</DistanceMeters>
          </Trackpoint>
          <Trackpoint>
            <Time>2023-02-23T13:26:31.000Z</Time>
            <Position>
              <LatitudeDegrees>41.53742079623043537139892578125</LatitudeDegrees>
              <LongitudeDegrees>-4.53424148261547088623046875</LongitudeDegrees>
            </Position>
            <AltitudeMeters>1328.199951171875</AltitudeMeters>
            <DistanceMeters>32610.047010141</DistanceMeters>
          </Trackpoint>
          <Trackpoint>
            <Time>2023-02-23T13:26:32.000Z</Time>
            <Position>
              <LatitudeDegrees>41.53743202798068523406982421875</LatitudeDegrees>
              <LongitudeDegrees>-4.53421055339276790618896484375</LongitudeDegrees>
            </Position>
            <AltitudeMeters>1328.800048828125</AltitudeMeters>
            <DistanceMeters>32612.910453769</DistanceMeters>
          </Trackpoint>
          <Trackpoint>
            <Time>2023-02-23T13:26:35.000Z</Time>
            <Position>
              <LatitudeDegrees>41.53742708265781402587890625</LatitudeDegrees>
              <LongitudeDegrees>-4.53408532775938510894775390625</LongitudeDegrees>
            </Position>
            <AltitudeMeters>1329.4000244140625</AltitudeMeters>
            <DistanceMeters>32623.357343445</DistanceMeters>
          </Trackpoint>
          <Trackpoint>
            <Time>2023-02-23T13:26:37.000Z</Time>
            <Position>
              <LatitudeDegrees>41.53741811402142047882080078125</LatitudeDegrees>
              <LongitudeDegrees>-4.5340022630989551544189453125</LongitudeDegrees>
            </Position>
            <AltitudeMeters>1329.4000244140625</AltitudeMeters>
            <DistanceMeters>32630.349398498</DistanceMeters>
          </Trackpoint>
          <Trackpoint>
            <Time>2023-02-23T13:26:42.000Z</Time>
            <Position>
              <LatitudeDegrees>41.53743253089487552642822265625</LatitudeDegrees>
              <LongitudeDegrees>-4.5337803103029727935791015625</LongitudeDegrees>
            </Position>
            <AltitudeMeters>1329.199951171875</AltitudeMeters>
            <DistanceMeters>32648.910526602</DistanceMeters>
          </Trackpoint>
          <Trackpoint>
            <Time>2023-02-23T13:26:44.000Z</Time>
            <Position>
              <LatitudeDegrees>41.5374399907886981964111328125</LatitudeDegrees>
              <LongitudeDegrees>-4.53370076604187488555908203125</LongitudeDegrees>
            </Position>
            <AltitudeMeters>1329.5999755859375</AltitudeMeters>
            <DistanceMeters>32655.589491914</DistanceMeters>
          </Trackpoint>
          <Trackpoint>
            <Time>2023-02-23T13:26:45.000Z</Time>
            <Position>
              <LatitudeDegrees>41.53743856586515903472900390625</LatitudeDegrees>
              <LongitudeDegrees>-4.53366438858211040496826171875</LongitudeDegrees>
            </Position>
            <AltitudeMeters>1329.5999755859375</AltitudeMeters>
            <DistanceMeters>32658.624401793</DistanceMeters>
          </Trackpoint>
          <Trackpoint>
            <Time>2023-02-23T13:26:48.000Z</Time>
            <Position>
              <LatitudeDegrees>41.53745264746248722076416015625</LatitudeDegrees>
              <LongitudeDegrees>-4.53357503749430179595947265625</LongitudeDegrees>
            </Position>
            <AltitudeMeters>1329</AltitudeMeters>
            <DistanceMeters>32666.231882317</DistanceMeters>
          </Trackpoint>
          <Trackpoint>
            <Time>2023-02-23T13:26:49.000Z</Time>
            <Position>
              <LatitudeDegrees>41.5374798886477947235107421875</LatitudeDegrees>
              <LongitudeDegrees>-4.5335707627236843109130859375</LongitudeDegrees>
            </Position>
            <AltitudeMeters>1329</AltitudeMeters>
            <DistanceMeters>32669.284592407</DistanceMeters>
          </Trackpoint>
          <Trackpoint>
            <Time>2023-02-23T13:26:53.000Z</Time>
            <Position>
              <LatitudeDegrees>41.53758273459970951080322265625</LatitudeDegrees>
              <LongitudeDegrees>-4.53348384238779544830322265625</LongitudeDegrees>
            </Position>
            <AltitudeMeters>1328.800048828125</AltitudeMeters>
            <DistanceMeters>32682.829816406</DistanceMeters>
          </Trackpoint>
          <Trackpoint>
            <Time>2023-02-23T13:26:55.000Z</Time>
            <Position>
              <LatitudeDegrees>41.53761684894561767578125</LatitudeDegrees>
              <LongitudeDegrees>-4.533413350582122802734375</LongitudeDegrees>
            </Position>
            <AltitudeMeters>1329</AltitudeMeters>
            <DistanceMeters>32689.823162817</DistanceMeters>
          </Trackpoint>
          <Trackpoint>
            <Time>2023-02-23T13:26:58.000Z</Time>
            <Position>
              <LatitudeDegrees>41.5376374684274196624755859375</LatitudeDegrees>
              <LongitudeDegrees>-4.53328971751034259796142578125</LongitudeDegrees>
            </Position>
            <AltitudeMeters>1328.800048828125</AltitudeMeters>
            <DistanceMeters>32700.375835592</DistanceMeters>
          </Trackpoint>
          <Trackpoint>
            <Time>2023-02-23T13:26:59.000Z</Time>
            <Position>
              <LatitudeDegrees>41.53763419948518276214599609375</LatitudeDegrees>
              <LongitudeDegrees>-4.53324504196643829345703125</LongitudeDegrees>
            </Position>
            <AltitudeMeters>1328.800048828125</AltitudeMeters>
            <DistanceMeters>32704.115834043</DistanceMeters>
          </Trackpoint>
          <Trackpoint>
            <Time>2023-02-23T13:27:07.000Z</Time>
            <Position>
              <LatitudeDegrees>41.53762330301105976104736328125</LatitudeDegrees>
              <LongitudeDegrees>-4.532890655100345611572265625</LongitudeDegrees>
            </Position>
            <AltitudeMeters>1329.4000244140625</AltitudeMeters>
            <DistanceMeters>32733.665322563</DistanceMeters>
          </Trackpoint>
          <Trackpoint>
            <Time>2023-02-23T13:27:15.000Z</Time>
            <Position>
              <LatitudeDegrees>41.53759446926414966583251953125</LatitudeDegrees>
              <LongitudeDegrees>-4.532544650137424468994140625</LongitudeDegrees>
            </Position>
            <AltitudeMeters>1329.4000244140625</AltitudeMeters>
            <DistanceMeters>32762.669648992</DistanceMeters>
          </Trackpoint>
          <Trackpoint>
            <Time>2023-02-23T13:27:19.000Z</Time>
            <Position>
              <LatitudeDegrees>41.5375912003219127655029296875</LatitudeDegrees>
              <LongitudeDegrees>-4.532360918819904327392578125</LongitudeDegrees>
            </Position>
            <AltitudeMeters>1329.5999755859375</AltitudeMeters>
            <DistanceMeters>32777.9810449</DistanceMeters>
          </Trackpoint>
          <Trackpoint>
            <Time>2023-02-23T13:27:21.000Z</Time>
            <Position>
              <LatitudeDegrees>41.53757485561072826385498046875</LatitudeDegrees>
              <LongitudeDegrees>-4.532279111444950103759765625</LongitudeDegrees>
            </Position>
            <AltitudeMeters>1329.4000244140625</AltitudeMeters>
            <DistanceMeters>32785.035458503</DistanceMeters>
          </Trackpoint>
          <Trackpoint>
            <Time>2023-02-23T13:27:23.000Z</Time>
            <Position>
              <LatitudeDegrees>41.53755775652825832366943359375</LatitudeDegrees>
              <LongitudeDegrees>-4.53219990245997905731201171875</LongitudeDegrees>
            </Position>
            <AltitudeMeters>1329.199951171875</AltitudeMeters>
            <DistanceMeters>32791.903070116</DistanceMeters>
          </Trackpoint>
          <Trackpoint>
            <Time>2023-02-23T13:27:26.000Z</Time>
            <Position>
              <LatitudeDegrees>41.53752992860972881317138671875</LatitudeDegrees>
              <LongitudeDegrees>-4.53210786916315555572509765625</LongitudeDegrees>
            </Position>
            <AltitudeMeters>1329.5999755859375</AltitudeMeters>
            <DistanceMeters>32800.173124468</DistanceMeters>
          </Trackpoint>
          <Trackpoint>
            <Time>2023-02-23T13:27:27.000Z</Time>
            <Position>
              <LatitudeDegrees>41.53750210069119930267333984375</LatitudeDegrees>
              <LongitudeDegrees>-4.5321079529821872711181640625</LongitudeDegrees>
            </Position>
            <AltitudeMeters>1329.5999755859375</AltitudeMeters>
            <DistanceMeters>32803.269887485</DistanceMeters>
          </Trackpoint>
          <Trackpoint>
            <Time>2023-02-23T13:27:31.000Z</Time>
            <Position>
              <LatitudeDegrees>41.53743102215230464935302734375</LatitudeDegrees>
              <LongitudeDegrees>-4.53210066072642803192138671875</LongitudeDegrees>
            </Position>
            <AltitudeMeters>1329.800048828125</AltitudeMeters>
            <DistanceMeters>32811.204475878</DistanceMeters>
          </Trackpoint>
          <Trackpoint>
            <Time>2023-02-23T13:27:32.000Z</Time>
            <Position>
              <LatitudeDegrees>41.53742096386849880218505859375</LatitudeDegrees>
              <LongitudeDegrees>-4.53209839761257171630859375</LongitudeDegrees>
            </Position>
            <AltitudeMeters>1329.800048828125</AltitudeMeters>
            <DistanceMeters>32812.340830106</DistanceMeters>
          </Trackpoint>
          <Trackpoint>
            <Time>2023-02-23T13:27:36.000Z</Time>
            <Position>
              <LatitudeDegrees>41.53741526417434215545654296875</LatitudeDegrees>
              <LongitudeDegrees>-4.5320516265928745269775390625</LongitudeDegrees>
            </Position>
            <AltitudeMeters>1329.800048828125</AltitudeMeters>
            <DistanceMeters>32816.287585972</DistanceMeters>
          </Trackpoint>
          <Trackpoint>
            <Time>2023-02-23T13:27:37.000Z</Time>
            <Position>
              <LatitudeDegrees>41.5374158509075641632080078125</LatitudeDegrees>
              <LongitudeDegrees>-4.5320499502122402191162109375</LongitudeDegrees>
            </Position>
            <AltitudeMeters>1329.5999755859375</AltitudeMeters>
            <DistanceMeters>32816.42197404</DistanceMeters>
          </Trackpoint>
          <Trackpoint>
            <Time>2023-02-23T13:27:38.000Z</Time>
            <Position>
              <LatitudeDegrees>41.537415683269500732421875</LatitudeDegrees>
              <LongitudeDegrees>-4.53204986639320850372314453125</LongitudeDegrees>
            </Position>
            <AltitudeMeters>1329.5999755859375</AltitudeMeters>
            <DistanceMeters>NAN</DistanceMeters>
          </Trackpoint>
          <Trackpoint>
            <Time>2023-02-23T13:27:43.000Z</Time>
            <Position>
              <LatitudeDegrees>41.53743973933160305023193359375</LatitudeDegrees>
              <LongitudeDegrees>-4.5320398919284343719482421875</LongitudeDegrees>
            </Position>
            <AltitudeMeters>1329.5999755859375</AltitudeMeters>
            <DistanceMeters>NAN</DistanceMeters>
          </Trackpoint>
          <Trackpoint>
            <Time>2023-02-23T13:27:44.000Z</Time>
            <Position>
              <LatitudeDegrees>41.53745097108185291290283203125</LatitudeDegrees>
              <LongitudeDegrees>-4.53204198740422725677490234375</LongitudeDegrees>
            </Position>
            <AltitudeMeters>1329.5999755859375</AltitudeMeters>
            <DistanceMeters>NAN</DistanceMeters>
          </Trackpoint>
          <Trackpoint>
            <Time>2023-02-23T13:27:52.000Z</Time>
            <Position>
              <LatitudeDegrees>41.5374741889536380767822265625</LatitudeDegrees>
              <LongitudeDegrees>-4.5320623554289340972900390625</LongitudeDegrees>
            </Position>
            <AltitudeMeters>1329.5999755859375</AltitudeMeters>
            <DistanceMeters>NAN</DistanceMeters>
          </Trackpoint>
          <Trackpoint>
            <Time>2023-02-23T13:27:59.000Z</Time>
            <Position>
              <LatitudeDegrees>41.53748516924679279327392578125</LatitudeDegrees>
              <LongitudeDegrees>-4.53202488832175731658935546875</LongitudeDegrees>
            </Position>
            <AltitudeMeters>1329.5999755859375</AltitudeMeters>
            <DistanceMeters>NAN</DistanceMeters>
          </Trackpoint>
          <Trackpoint>
            <Time>2023-02-23T13:28:03.000Z</Time>
            <Position>
              <LatitudeDegrees>41.53747628442943096160888671875</LatitudeDegrees>
              <LongitudeDegrees>-4.53197367489337921142578125</LongitudeDegrees>
            </Position>
            <AltitudeMeters>1329.5999755859375</AltitudeMeters>
            <DistanceMeters>NAN</DistanceMeters>
          </Trackpoint>
          <Trackpoint>
            <Time>2023-02-23T13:28:05.000Z</Time>
            <Position>
              <LatitudeDegrees>41.5374772064387798309326171875</LatitudeDegrees>
              <LongitudeDegrees>-4.53195850364863872528076171875</LongitudeDegrees>
            </Position>
            <AltitudeMeters>1329.5999755859375</AltitudeMeters>
            <DistanceMeters>NAN</DistanceMeters>
          </Trackpoint>
          <Trackpoint>
            <Time>2023-02-23T13:28:13.000Z</Time>
            <Position>
              <LatitudeDegrees>41.53746102936565876007080078125</LatitudeDegrees>
              <LongitudeDegrees>-4.5320070348680019378662109375</LongitudeDegrees>
            </Position>
            <AltitudeMeters>1329.5999755859375</AltitudeMeters>
            <DistanceMeters>NAN</DistanceMeters>
          </Trackpoint>
          <Trackpoint>
            <Time>2023-02-23T13:28:22.000Z</Time>
            <Position>
              <LatitudeDegrees>41.5374456904828548431396484375</LatitudeDegrees>
              <LongitudeDegrees>-4.532010219991207122802734375</LongitudeDegrees>
            </Position>
            <AltitudeMeters>1329.5999755859375</AltitudeMeters>
            <DistanceMeters>NAN</DistanceMeters>
          </Trackpoint>
          <Trackpoint>
            <Time>2023-02-23T13:28:27.000Z</Time>
            <Position>
              <LatitudeDegrees>41.5374500490725040435791015625</LatitudeDegrees>
              <LongitudeDegrees>-4.5320016704499721527099609375</LongitudeDegrees>
            </Position>
            <AltitudeMeters>1329.5999755859375</AltitudeMeters>
            <DistanceMeters>NAN</DistanceMeters>
          </Trackpoint>
          <Trackpoint>
            <Time>2023-02-23T13:28:29.000Z</Time>
            <Position>
              <LatitudeDegrees>41.53745885007083415985107421875</LatitudeDegrees>
              <LongitudeDegrees>-4.531959928572177886962890625</LongitudeDegrees>
            </Position>
            <AltitudeMeters>1329.5999755859375</AltitudeMeters>
            <DistanceMeters>NAN</DistanceMeters>
          </Trackpoint>
          <Trackpoint>
            <Time>2023-02-23T13:28:31.000Z</Time>
            <Position>
              <LatitudeDegrees>41.5374507196247577667236328125</LatitudeDegrees>
              <LongitudeDegrees>-4.53196135349571704864501953125</LongitudeDegrees>
            </Position>
            <AltitudeMeters>1329.5999755859375</AltitudeMeters>
            <DistanceMeters>NAN</DistanceMeters>
          </Trackpoint>
          <Trackpoint>
            <Time>2023-02-23T13:28:32.000Z</Time>
            <Position>
              <LatitudeDegrees>41.53744393028318881988525390625</LatitudeDegrees>
              <LongitudeDegrees>-4.5319600962102413177490234375</LongitudeDegrees>
            </Position>
            <AltitudeMeters>1329.5999755859375</AltitudeMeters>
            <DistanceMeters>NAN</DistanceMeters>
          </Trackpoint>
          <Trackpoint>
            <Time>2023-02-23T13:28:42.000Z</Time>
            <Position>
              <LatitudeDegrees>41.53736866079270839691162109375</LatitudeDegrees>
              <LongitudeDegrees>-4.53187468461692333221435546875</LongitudeDegrees>
            </Position>
            <AltitudeMeters>1329.5999755859375</AltitudeMeters>
            <DistanceMeters>NAN</DistanceMeters>
          </Trackpoint>
          <Trackpoint>
            <Time>2023-02-23T13:28:47.000Z</Time>
            <Position>
              <LatitudeDegrees>41.5373712591826915740966796875</LatitudeDegrees>
              <LongitudeDegrees>-4.53186638653278350830078125</LongitudeDegrees>
            </Position>
            <AltitudeMeters>1329.5999755859375</AltitudeMeters>
            <DistanceMeters>NAN</DistanceMeters>
          </Trackpoint>
          <Trackpoint>
            <Time>2023-02-23T13:28:51.000Z</Time>
            <Position>
              <LatitudeDegrees>41.53737871907651424407958984375</LatitudeDegrees>
              <LongitudeDegrees>-4.5318735949695110321044921875</LongitudeDegrees>
            </Position>
            <AltitudeMeters>1329.5999755859375</AltitudeMeters>
            <DistanceMeters>NAN</DistanceMeters>
          </Trackpoint>
          <Trackpoint>
            <Time>2023-02-23T13:28:56.000Z</Time>
            <Position>
              <LatitudeDegrees>41.537433452904224395751953125</LatitudeDegrees>
              <LongitudeDegrees>-4.5319126546382904052734375</LongitudeDegrees>
            </Position>
            <AltitudeMeters>1329.5999755859375</AltitudeMeters>
            <DistanceMeters>NAN</DistanceMeters>
          </Trackpoint>
          <Trackpoint>
            <Time>2023-02-23T13:28:58.000Z</Time>
            <Position>
              <LatitudeDegrees>41.53745180927217006683349609375</LatitudeDegrees>
              <LongitudeDegrees>-4.531901590526103973388671875</LongitudeDegrees>
            </Position>
            <AltitudeMeters>1329.5999755859375</AltitudeMeters>
            <DistanceMeters>NAN</DistanceMeters>
          </Trackpoint>
          <Trackpoint>
            <Time>2023-02-23T13:29:01.000Z</Time>
            <Position>
              <LatitudeDegrees>41.53748500160872936248779296875</LatitudeDegrees>
              <LongitudeDegrees>-4.531867392361164093017578125</LongitudeDegrees>
            </Position>
            <AltitudeMeters>1329.5999755859375</AltitudeMeters>
            <DistanceMeters>NAN</DistanceMeters>
          </Trackpoint>
          <Trackpoint>
            <Time>2023-02-23T13:29:02.000Z</Time>
            <Position>
              <LatitudeDegrees>41.53747444041073322296142578125</LatitudeDegrees>
              <LongitudeDegrees>-4.531848616898059844970703125</LongitudeDegrees>
            </Position>
            <AltitudeMeters>1329.5999755859375</AltitudeMeters>
            <DistanceMeters>NAN</DistanceMeters>
          </Trackpoint>
          <Trackpoint>
            <Time>2023-02-23T13:29:04.000Z</Time>
            <Position>
              <LatitudeDegrees>41.537466980516910552978515625</LatitudeDegrees>
              <LongitudeDegrees>-4.531851969659328460693359375</LongitudeDegrees>
            </Position>
            <AltitudeMeters>1329.5999755859375</AltitudeMeters>
            <DistanceMeters>NAN</DistanceMeters>
          </Trackpoint>
          <Trackpoint>
            <Time>2023-02-23T13:29:07.000Z</Time>
            <Position>
              <LatitudeDegrees>41.53741660527884960174560546875</LatitudeDegrees>
              <LongitudeDegrees>-4.53183763660490512847900390625</LongitudeDegrees>
            </Position>
            <AltitudeMeters>1328</AltitudeMeters>
            <DistanceMeters>NAN</DistanceMeters>
          </Trackpoint>
          <Trackpoint>
            <Time>2023-02-23T13:29:08.000Z</Time>
            <Position>
              <LatitudeDegrees>41.5374037809669971466064453125</LatitudeDegrees>
              <LongitudeDegrees>-4.53183059580624103546142578125</LongitudeDegrees>
            </Position>
            <AltitudeMeters>1327.199951171875</AltitudeMeters>
            <DistanceMeters>NAN</DistanceMeters>
          </Trackpoint>
          <Trackpoint>
            <Time>2023-02-23T13:29:09.000Z</Time>
            <Position>
              <LatitudeDegrees>41.537383832037448883056640625</LatitudeDegrees>
              <LongitudeDegrees>-4.53182741068303585052490234375</LongitudeDegrees>
            </Position>
            <AltitudeMeters>1326.5999755859375</AltitudeMeters>
            <DistanceMeters>NAN</DistanceMeters>
          </Trackpoint>
          <Trackpoint>
            <Time>2023-02-23T13:29:10.000Z</Time>
            <Position>
              <LatitudeDegrees>41.53737586922943592071533203125</LatitudeDegrees>
              <LongitudeDegrees>-4.53182741068303585052490234375</LongitudeDegrees>
            </Position>
            <AltitudeMeters>1326.199951171875</AltitudeMeters>
            <DistanceMeters>NAN</DistanceMeters>
          </Trackpoint>
          <Trackpoint>
            <Time>2023-02-23T13:29:15.000Z</Time>
            <Position>
              <LatitudeDegrees>41.53738726861774921417236328125</LatitudeDegrees>
              <LongitudeDegrees>-4.53183243982493877410888671875</LongitudeDegrees>
            </Position>
            <AltitudeMeters>1325.800048828125</AltitudeMeters>
            <DistanceMeters>NAN</DistanceMeters>
          </Trackpoint>
          <Trackpoint>
            <Time>2023-02-23T13:29:16.000Z</Time>
            <Position>
              <LatitudeDegrees>41.53740319423377513885498046875</LatitudeDegrees>
              <LongitudeDegrees>-4.53181182034313678741455078125</LongitudeDegrees>
            </Position>
            <AltitudeMeters>1325.800048828125</AltitudeMeters>
            <DistanceMeters>NAN</DistanceMeters>
          </Trackpoint>
          <Trackpoint>
            <Time>2023-02-23T13:29:17.000Z</Time>
            <Position>
              <LatitudeDegrees>41.53740788809955120086669921875</LatitudeDegrees>
              <LongitudeDegrees>-4.531801007688045501708984375</LongitudeDegrees>
            </Position>
            <AltitudeMeters>1325.800048828125</AltitudeMeters>
            <DistanceMeters>NAN</DistanceMeters>
          </Trackpoint>
          <Trackpoint>
            <Time>2023-02-23T13:29:22.000Z</Time>
            <Position>
              <LatitudeDegrees>41.53739154338836669921875</LatitudeDegrees>
              <LongitudeDegrees>-4.53176714479923248291015625</LongitudeDegrees>
            </Position>
            <AltitudeMeters>1326.199951171875</AltitudeMeters>
            <DistanceMeters>NAN</DistanceMeters>
          </Trackpoint>
          <Trackpoint>
            <Time>2023-02-23T13:29:24.000Z</Time>
            <Position>
              <LatitudeDegrees>41.537378467619419097900390625</LatitudeDegrees>
              <LongitudeDegrees>-4.53177695162594318389892578125</LongitudeDegrees>
            </Position>
            <AltitudeMeters>1326.4000244140625</AltitudeMeters>
            <DistanceMeters>NAN</DistanceMeters>
          </Trackpoint>
          <Trackpoint>
            <Time>2023-02-23T13:29:27.000Z</Time>
            <Position>
              <LatitudeDegrees>41.537356674671173095703125</LatitudeDegrees>
              <LongitudeDegrees>-4.5317539013922214508056640625</LongitudeDegrees>
            </Position>
            <AltitudeMeters>1326.199951171875</AltitudeMeters>
            <DistanceMeters>NAN</DistanceMeters>
          </Trackpoint>
          <Trackpoint>
            <Time>2023-02-23T13:29:29.000Z</Time>
            <Position>
              <LatitudeDegrees>41.5373893640935420989990234375</LatitudeDegrees>
              <LongitudeDegrees>-4.53176337294280529022216796875</LongitudeDegrees>
            </Position>
            <AltitudeMeters>1325.4000244140625</AltitudeMeters>
            <DistanceMeters>NAN</DistanceMeters>
          </Trackpoint>
          <Trackpoint>
            <Time>2023-02-23T13:29:31.000Z</Time>
            <Position>
              <LatitudeDegrees>41.53740235604345798492431640625</LatitudeDegrees>
              <LongitudeDegrees>-4.5317812263965606689453125</LongitudeDegrees>
            </Position>
            <AltitudeMeters>1325.199951171875</AltitudeMeters>
            <DistanceMeters>NAN</DistanceMeters>
          </Trackpoint>
          <Trackpoint>
            <Time>2023-02-23T13:29:36.000Z</Time>
            <Position>
              <LatitudeDegrees>41.53741308487951755523681640625</LatitudeDegrees>
              <LongitudeDegrees>-4.53175767324864864349365234375</LongitudeDegrees>
            </Position>
            <AltitudeMeters>1325</AltitudeMeters>
            <DistanceMeters>NAN</DistanceMeters>
          </Trackpoint>
          <Trackpoint>
            <Time>2023-02-23T14:02:04.000Z</Time>
            <Position>
              <LatitudeDegrees>41.5366048179566860198974609375</LatitudeDegrees>
              <LongitudeDegrees>-4.53253836371004581451416015625</LongitudeDegrees>
            </Position>
            <AltitudeMeters>1315.5999755859375</AltitudeMeters>
            <DistanceMeters>NAN</DistanceMeters>
          </Trackpoint>
          <Trackpoint>
            <Time>2023-02-23T14:02:23.000Z</Time>
            <Position>
              <LatitudeDegrees>41.53749321587383747100830078125</LatitudeDegrees>
              <LongitudeDegrees>-4.532012231647968292236328125</LongitudeDegrees>
            </Position>
            <AltitudeMeters>1315.4000244140625</AltitudeMeters>
            <DistanceMeters>NAN</DistanceMeters>
          </Trackpoint>
          <Trackpoint>
            <Time>2023-02-23T14:02:33.000Z</Time>
            <Position>
              <LatitudeDegrees>41.537208147346973419189453125</LatitudeDegrees>
              <LongitudeDegrees>-4.5320038497447967529296875</LongitudeDegrees>
            </Position>
            <AltitudeMeters>1315.199951171875</AltitudeMeters>
            <DistanceMeters>NAN</DistanceMeters>
          </Trackpoint>
          <Trackpoint>
            <Time>2023-02-23T14:02:36.000Z</Time>
            <Position>
              <LatitudeDegrees>41.53727461583912372589111328125</LatitudeDegrees>
              <LongitudeDegrees>-4.5319698192179203033447265625</LongitudeDegrees>
            </Position>
            <AltitudeMeters>1315.199951171875</AltitudeMeters>
            <DistanceMeters>NAN</DistanceMeters>
          </Trackpoint>
          <Trackpoint>
            <Time>2023-02-23T14:02:39.000Z</Time>
            <Position>
              <LatitudeDegrees>41.53738961555063724517822265625</LatitudeDegrees>
              <LongitudeDegrees>-4.53185641206800937652587890625</LongitudeDegrees>
            </Position>
            <AltitudeMeters>1315.199951171875</AltitudeMeters>
            <DistanceMeters>NAN</DistanceMeters>
          </Trackpoint>
          <Trackpoint>
            <Time>2023-02-23T14:02:46.000Z</Time>
            <Position>
              <LatitudeDegrees>41.537415347993373870849609375</LatitudeDegrees>
              <LongitudeDegrees>-4.53194324858486652374267578125</LongitudeDegrees>
            </Position>
            <AltitudeMeters>1314.800048828125</AltitudeMeters>
            <DistanceMeters>NAN</DistanceMeters>
          </Trackpoint>
          <Trackpoint>
            <Time>2023-02-23T14:02:47.000Z</Time>
            <Position>
              <LatitudeDegrees>41.53740696609020233154296875</LatitudeDegrees>
              <LongitudeDegrees>-4.53195414505898952484130859375</LongitudeDegrees>
            </Position>
            <AltitudeMeters>1314.5999755859375</AltitudeMeters>
            <DistanceMeters>NAN</DistanceMeters>
          </Trackpoint>
          <Trackpoint>
            <Time>2023-02-23T14:02:51.000Z</Time>
            <Position>
              <LatitudeDegrees>41.5373913757503032684326171875</LatitudeDegrees>
              <LongitudeDegrees>-4.531978704035282135009765625</LongitudeDegrees>
            </Position>
            <AltitudeMeters>1314.199951171875</AltitudeMeters>
            <DistanceMeters>NAN</DistanceMeters>
          </Trackpoint>
          <Trackpoint>
            <Time>2023-02-23T14:02:57.000Z</Time>
            <Position>
              <LatitudeDegrees>41.53738928027451038360595703125</LatitudeDegrees>
              <LongitudeDegrees>-4.53206486999988555908203125</LongitudeDegrees>
            </Position>
            <AltitudeMeters>1314.5999755859375</AltitudeMeters>
            <DistanceMeters>NAN</DistanceMeters>
          </Trackpoint>
          <Trackpoint>
            <Time>2023-02-23T14:03:03.000Z</Time>
            <Position>
              <LatitudeDegrees>41.5374544076621532440185546875</LatitudeDegrees>
              <LongitudeDegrees>-4.5321002416312694549560546875</LongitudeDegrees>
            </Position>
            <AltitudeMeters>1315</AltitudeMeters>
            <DistanceMeters>NAN</DistanceMeters>
          </Trackpoint>
          <Trackpoint>
            <Time>2023-02-23T14:03:04.000Z</Time>
            <Position>
              <LatitudeDegrees>41.5374762006103992462158203125</LatitudeDegrees>
              <LongitudeDegrees>-4.532120525836944580078125</LongitudeDegrees>
            </Position>
            <AltitudeMeters>1315</AltitudeMeters>
            <DistanceMeters>NAN</DistanceMeters>
          </Trackpoint>
          <Trackpoint>
            <Time>2023-02-23T14:03:05.000Z</Time>
            <Position>
              <LatitudeDegrees>41.5374892763793468475341796875</LatitudeDegrees>
              <LongitudeDegrees>-4.5321458391845226287841796875</LongitudeDegrees>
            </Position>
            <AltitudeMeters>1315.199951171875</AltitudeMeters>
            <DistanceMeters>NAN</DistanceMeters>
          </Trackpoint>
          <Trackpoint>
            <Time>2023-02-23T14:03:08.000Z</Time>
            <Position>
              <LatitudeDegrees>41.5375372208654880523681640625</LatitudeDegrees>
              <LongitudeDegrees>-4.53225203789770603179931640625</LongitudeDegrees>
            </Position>
            <AltitudeMeters>1315</AltitudeMeters>
            <DistanceMeters>NAN</DistanceMeters>
          </Trackpoint>
          <Trackpoint>
            <Time>2023-02-23T14:03:13.000Z</Time>
            <Position>
              <LatitudeDegrees>41.5375801362097263336181640625</LatitudeDegrees>
              <LongitudeDegrees>-4.5324663631618022918701171875</LongitudeDegrees>
            </Position>
            <AltitudeMeters>1314.5999755859375</AltitudeMeters>
            <DistanceMeters>NAN</DistanceMeters>
          </Trackpoint>
          <Trackpoint>
            <Time>2023-02-23T14:03:19.000Z</Time>
            <Position>
              <LatitudeDegrees>41.5375962294638156890869140625</LatitudeDegrees>
              <LongitudeDegrees>-4.5327298901975154876708984375</LongitudeDegrees>
            </Position>
            <AltitudeMeters>1314.4000244140625</AltitudeMeters>
            <DistanceMeters>NAN</DistanceMeters>
          </Trackpoint>
          <Trackpoint>
            <Time>2023-02-23T14:03:20.000Z</Time>
            <Position>
              <LatitudeDegrees>41.53760704211890697479248046875</LatitudeDegrees>
              <LongitudeDegrees>-4.53276769258081912994384765625</LongitudeDegrees>
            </Position>
            <AltitudeMeters>1314.4000244140625</AltitudeMeters>
            <DistanceMeters>NAN</DistanceMeters>
          </Trackpoint>
          <Trackpoint>
            <Time>2023-02-23T14:03:28.000Z</Time>
            <Position>
              <LatitudeDegrees>41.53765766881406307220458984375</LatitudeDegrees>
              <LongitudeDegrees>-4.5330819301307201385498046875</LongitudeDegrees>
            </Position>
            <AltitudeMeters>1315.199951171875</AltitudeMeters>
            <DistanceMeters>NAN</DistanceMeters>
          </Trackpoint>
          <Trackpoint>
            <Time>2023-02-23T14:03:34.000Z</Time>
            <Position>
              <LatitudeDegrees>41.53761810623109340667724609375</LatitudeDegrees>
              <LongitudeDegrees>-4.5333622209727764129638671875</LongitudeDegrees>
            </Position>
            <AltitudeMeters>1315</AltitudeMeters>
            <DistanceMeters>NAN</DistanceMeters>
          </Trackpoint>
          <Trackpoint>
            <Time>2023-02-23T14:03:39.000Z</Time>
            <Position>
              <LatitudeDegrees>41.53757016174495220184326171875</LatitudeDegrees>
              <LongitudeDegrees>-4.533553160727024078369140625</LongitudeDegrees>
            </Position>
            <AltitudeMeters>1315.199951171875</AltitudeMeters>
            <DistanceMeters>NAN</DistanceMeters>
          </Trackpoint>
          <Trackpoint>
            <Time>2023-02-23T14:03:44.000Z</Time>
            <Position>
              <LatitudeDegrees>41.5375217981636524200439453125</LatitudeDegrees>
              <LongitudeDegrees>-4.533771090209484100341796875</LongitudeDegrees>
            </Position>
            <AltitudeMeters>1315.4000244140625</AltitudeMeters>
            <DistanceMeters>NAN</DistanceMeters>
          </Trackpoint>
          <Trackpoint>
            <Time>2023-02-23T14:03:45.000Z</Time>
            <Position>
              <LatitudeDegrees>41.537527330219745635986328125</LatitudeDegrees>
              <LongitudeDegrees>-4.5338078029453754425048828125</LongitudeDegrees>
            </Position>
            <AltitudeMeters>1315.199951171875</AltitudeMeters>
            <DistanceMeters>NAN</DistanceMeters>
          </Trackpoint>
          <Trackpoint>
            <Time>2023-02-23T14:03:46.000Z</Time>
            <Position>
              <LatitudeDegrees>41.537522971630096435546875</LatitudeDegrees>
              <LongitudeDegrees>-4.53385918401181697845458984375</LongitudeDegrees>
            </Position>
            <AltitudeMeters>1315.199951171875</AltitudeMeters>
            <DistanceMeters>NAN</DistanceMeters>
          </Trackpoint>
          <Trackpoint>
            <Time>2023-02-23T14:03:48.000Z</Time>
            <Position>
              <LatitudeDegrees>41.5375150926411151885986328125</LatitudeDegrees>
              <LongitudeDegrees>-4.53397351317107677459716796875</LongitudeDegrees>
            </Position>
            <AltitudeMeters>1315.199951171875</AltitudeMeters>
            <DistanceMeters>NAN</DistanceMeters>
          </Trackpoint>
          <Trackpoint>
            <Time>2023-02-23T14:03:50.000Z</Time>
            <Position>
              <LatitudeDegrees>41.53753965161740779876708984375</LatitudeDegrees>
              <LongitudeDegrees>-4.53406504355370998382568359375</LongitudeDegrees>
            </Position>
            <AltitudeMeters>1315.199951171875</AltitudeMeters>
            <DistanceMeters>NAN</DistanceMeters>
          </Trackpoint>
          <Trackpoint>
            <Time>2023-02-23T14:03:53.000Z</Time>
            <Position>
              <LatitudeDegrees>41.53754149563610553741455078125</LatitudeDegrees>
              <LongitudeDegrees>-4.5341833122074604034423828125</LongitudeDegrees>
            </Position>
            <AltitudeMeters>1315</AltitudeMeters>
            <DistanceMeters>NAN</DistanceMeters>
          </Trackpoint>
          <Trackpoint>
            <Time>2023-02-23T14:03:54.000Z</Time>
            <Position>
              <LatitudeDegrees>41.5375519730150699615478515625</LatitudeDegrees>
              <LongitudeDegrees>-4.5341983996331691741943359375</LongitudeDegrees>
            </Position>
            <AltitudeMeters>1315</AltitudeMeters>
            <DistanceMeters>NAN</DistanceMeters>
          </Trackpoint>
          <Trackpoint>
            <Time>2023-02-23T14:03:55.000Z</Time>
            <Position>
              <LatitudeDegrees>41.53756563551723957061767578125</LatitudeDegrees>
              <LongitudeDegrees>-4.5342044346034526824951171875</LongitudeDegrees>
            </Position>
            <AltitudeMeters>1315</AltitudeMeters>
            <DistanceMeters>NAN</DistanceMeters>
          </Trackpoint>
          <Trackpoint>
            <Time>2023-02-23T14:03:58.000Z</Time>
            <Position>
              <LatitudeDegrees>41.53763805516064167022705078125</LatitudeDegrees>
              <LongitudeDegrees>-4.53419378958642482757568359375</LongitudeDegrees>
            </Position>
            <AltitudeMeters>1314.800048828125</AltitudeMeters>
            <DistanceMeters>NAN</DistanceMeters>
          </Trackpoint>
          <Trackpoint>
            <Time>2023-02-23T14:03:59.000Z</Time>
            <Position>
              <LatitudeDegrees>41.53766688890755176544189453125</LatitudeDegrees>
              <LongitudeDegrees>-4.5341866649687290191650390625</LongitudeDegrees>
            </Position>
            <AltitudeMeters>1315</AltitudeMeters>
            <DistanceMeters>NAN</DistanceMeters>
          </Trackpoint>
          <Trackpoint>
            <Time>2023-02-23T14:04:05.000Z</Time>
            <Position>
              <LatitudeDegrees>41.53786101378500461578369140625</LatitudeDegrees>
              <LongitudeDegrees>-4.53415137715637683868408203125</LongitudeDegrees>
            </Position>
            <AltitudeMeters>1316</AltitudeMeters>
            <DistanceMeters>NAN</DistanceMeters>
          </Trackpoint>
          <Trackpoint>
            <Time>2023-02-23T14:04:10.000Z</Time>
            <Position>
              <LatitudeDegrees>41.538042314350605010986328125</LatitudeDegrees>
              <LongitudeDegrees>-4.53414224088191986083984375</LongitudeDegrees>
            </Position>
            <AltitudeMeters>1316.4000244140625</AltitudeMeters>
            <DistanceMeters>NAN</DistanceMeters>
          </Trackpoint>
          <Trackpoint>
            <Time>2023-02-23T14:04:11.000Z</Time>
            <Position>
              <LatitudeDegrees>41.538085900247097015380859375</LatitudeDegrees>
              <LongitudeDegrees>-4.53413863666355609893798828125</LongitudeDegrees>
            </Position>
            <AltitudeMeters>1316.5999755859375</AltitudeMeters>
            <DistanceMeters>NAN</DistanceMeters>
          </Trackpoint>
          <Trackpoint>
            <Time>2023-02-23T14:04:18.000Z</Time>
            <Position>
              <LatitudeDegrees>41.538248844444751739501953125</LatitudeDegrees>
              <LongitudeDegrees>-4.5341025106608867645263671875</LongitudeDegrees>
            </Position>
            <AltitudeMeters>1317.5999755859375</AltitudeMeters>
            <DistanceMeters>NAN</DistanceMeters>
          </Trackpoint>
          <Trackpoint>
            <Time>2023-02-23T14:04:21.000Z</Time>
            <Position>
              <LatitudeDegrees>41.53832964599132537841796875</LatitudeDegrees>
              <LongitudeDegrees>-4.53410762362182140350341796875</LongitudeDegrees>
            </Position>
            <AltitudeMeters>1317.800048828125</AltitudeMeters>
            <DistanceMeters>NAN</DistanceMeters>
          </Trackpoint>
          <Trackpoint>
            <Time>2023-02-23T14:04:23.000Z</Time>
            <Position>
              <LatitudeDegrees>41.53838756494224071502685546875</LatitudeDegrees>
              <LongitudeDegrees>-4.5341122336685657501220703125</LongitudeDegrees>
            </Position>
            <AltitudeMeters>1317.800048828125</AltitudeMeters>
            <DistanceMeters>NAN</DistanceMeters>
          </Trackpoint>
          <Trackpoint>
            <Time>2023-02-23T14:04:26.000Z</Time>
            <Position>
              <LatitudeDegrees>41.53854732401669025421142578125</LatitudeDegrees>
              <LongitudeDegrees>-4.53411634080111980438232421875</LongitudeDegrees>
            </Position>
            <AltitudeMeters>1317.800048828125</AltitudeMeters>
            <DistanceMeters>NAN</DistanceMeters>
          </Trackpoint>
          <Trackpoint>
            <Time>2023-02-23T14:04:30.000Z</Time>
            <Position>
              <LatitudeDegrees>41.5386919118463993072509765625</LatitudeDegrees>
              <LongitudeDegrees>-4.53416897915303707122802734375</LongitudeDegrees>
            </Position>
            <AltitudeMeters>1317.199951171875</AltitudeMeters>
            <DistanceMeters>NAN</DistanceMeters>
          </Trackpoint>
          <Trackpoint>
            <Time>2023-02-23T14:04:32.000Z</Time>
            <Position>
              <LatitudeDegrees>41.538762487471103668212890625</LatitudeDegrees>
              <LongitudeDegrees>-4.5341970585286617279052734375</LongitudeDegrees>
            </Position>
            <AltitudeMeters>1316.800048828125</AltitudeMeters>
            <DistanceMeters>NAN</DistanceMeters>
          </Trackpoint>
          <Trackpoint>
            <Time>2023-02-23T14:04:35.000Z</Time>
            <Position>
              <LatitudeDegrees>41.538872458040714263916015625</LatitudeDegrees>
              <LongitudeDegrees>-4.5342493616044521331787109375</LongitudeDegrees>
            </Position>
            <AltitudeMeters>1316.800048828125</AltitudeMeters>
            <DistanceMeters>NAN</DistanceMeters>
          </Trackpoint>
          <Trackpoint>
            <Time>2023-02-23T14:04:39.000Z</Time>
            <Position>
              <LatitudeDegrees>41.53901268728077411651611328125</LatitudeDegrees>
              <LongitudeDegrees>-4.53431113623082637786865234375</LongitudeDegrees>
            </Position>
            <AltitudeMeters>1317.199951171875</AltitudeMeters>
            <DistanceMeters>NAN</DistanceMeters>
          </Trackpoint>
          <Trackpoint>
            <Time>2023-02-23T14:04:41.000Z</Time>
            <Position>
              <LatitudeDegrees>41.53908468782901763916015625</LatitudeDegrees>
              <LongitudeDegrees>-4.53434919007122516632080078125</LongitudeDegrees>
            </Position>
            <AltitudeMeters>1317.4000244140625</AltitudeMeters>
            <DistanceMeters>NAN</DistanceMeters>
          </Trackpoint>
          <Trackpoint>
            <Time>2023-02-23T14:04:44.000Z</Time>
            <Position>
              <LatitudeDegrees>41.539188958704471588134765625</LatitudeDegrees>
              <LongitudeDegrees>-4.5344030857086181640625</LongitudeDegrees>
            </Position>
            <AltitudeMeters>1317.5999755859375</AltitudeMeters>
            <DistanceMeters>NAN</DistanceMeters>
          </Trackpoint>
          <Trackpoint>
            <Time>2023-02-23T14:04:48.000Z</Time>
            <Position>
              <LatitudeDegrees>41.53930622152984142303466796875</LatitudeDegrees>
              <LongitudeDegrees>-4.534489251673221588134765625</LongitudeDegrees>
            </Position>
            <AltitudeMeters>1317.5999755859375</AltitudeMeters>
            <DistanceMeters>NAN</DistanceMeters>
          </Trackpoint>
          <Trackpoint>
            <Time>2023-02-23T14:04:50.000Z</Time>
            <Position>
              <LatitudeDegrees>41.53937243856489658355712890625</LatitudeDegrees>
              <LongitudeDegrees>-4.53452889807522296905517578125</LongitudeDegrees>
            </Position>
            <AltitudeMeters>1317.800048828125</AltitudeMeters>
            <DistanceMeters>NAN</DistanceMeters>
          </Trackpoint>
          <Trackpoint>
            <Time>2023-02-23T14:04:56.000Z</Time>
            <Position>
              <LatitudeDegrees>41.5395815670490264892578125</LatitudeDegrees>
              <LongitudeDegrees>-4.53463375568389892578125</LongitudeDegrees>
            </Position>
            <AltitudeMeters>1317.5999755859375</AltitudeMeters>
            <DistanceMeters>NAN</DistanceMeters>
          </Trackpoint>
          <Trackpoint>
            <Time>2023-02-23T14:04:57.000Z</Time>
            <Position>
              <LatitudeDegrees>41.53961551375687122344970703125</LatitudeDegrees>
              <LongitudeDegrees>-4.5346520282328128814697265625</LongitudeDegrees>
            </Position>
            <AltitudeMeters>1317.5999755859375</AltitudeMeters>
            <DistanceMeters>NAN</DistanceMeters>
          </Trackpoint>
          <Trackpoint>
            <Time>2023-02-23T14:05:02.000Z</Time>
            <Position>
              <LatitudeDegrees>41.53977761976420879364013671875</LatitudeDegrees>
              <LongitudeDegrees>-4.53477515839040279388427734375</LongitudeDegrees>
            </Position>
            <AltitudeMeters>1318</AltitudeMeters>
            <DistanceMeters>NAN</DistanceMeters>
          </Trackpoint>
          <Trackpoint>
            <Time>2023-02-23T14:05:05.000Z</Time>
            <Position>
              <LatitudeDegrees>41.5398844890296459197998046875</LatitudeDegrees>
              <LongitudeDegrees>-4.5348246954381465911865234375</LongitudeDegrees>
            </Position>
            <AltitudeMeters>1318.199951171875</AltitudeMeters>
            <DistanceMeters>NAN</DistanceMeters>
          </Trackpoint>
          <Trackpoint>
            <Time>2023-02-23T14:05:08.000Z</Time>
            <Position>
              <LatitudeDegrees>41.5399877540767192840576171875</LatitudeDegrees>
              <LongitudeDegrees>-4.53486987389624118804931640625</LongitudeDegrees>
            </Position>
            <AltitudeMeters>1318.199951171875</AltitudeMeters>
            <DistanceMeters>NAN</DistanceMeters>
          </Trackpoint>
          <Trackpoint>
            <Time>2023-02-23T14:05:12.000Z</Time>
            <Position>
              <LatitudeDegrees>41.54012412764132022857666015625</LatitudeDegrees>
              <LongitudeDegrees>-4.53493860550224781036376953125</LongitudeDegrees>
            </Position>
            <AltitudeMeters>1318.5999755859375</AltitudeMeters>
            <DistanceMeters>NAN</DistanceMeters>
          </Trackpoint>
          <Trackpoint>
            <Time>2023-02-23T14:05:13.000Z</Time>
            <Position>
              <LatitudeDegrees>41.54015933163464069366455078125</LatitudeDegrees>
              <LongitudeDegrees>-4.53495562076568603515625</LongitudeDegrees>
            </Position>
            <AltitudeMeters>1318.5999755859375</AltitudeMeters>
            <DistanceMeters>NAN</DistanceMeters>
          </Trackpoint>
          <Trackpoint>
            <Time>2023-02-23T14:05:20.000Z</Time>
            <Position>
              <LatitudeDegrees>41.54040173627436161041259765625</LatitudeDegrees>
              <LongitudeDegrees>-4.535074643790721893310546875</LongitudeDegrees>
            </Position>
            <AltitudeMeters>1319.4000244140625</AltitudeMeters>
            <DistanceMeters>NAN</DistanceMeters>
          </Trackpoint>
          <Trackpoint>
            <Time>2023-02-23T14:05:22.000Z</Time>
            <Position>
              <LatitudeDegrees>41.5404745750129222869873046875</LatitudeDegrees>
              <LongitudeDegrees>-4.53510054387152194976806640625</LongitudeDegrees>
            </Position>
            <AltitudeMeters>1319.5999755859375</AltitudeMeters>
            <DistanceMeters>NAN</DistanceMeters>
          </Trackpoint>
          <Trackpoint>
            <Time>2023-02-23T14:05:23.000Z</Time>
            <Position>
              <LatitudeDegrees>41.54051053337752819061279296875</LatitudeDegrees>
              <LongitudeDegrees>-4.535116888582706451416015625</LongitudeDegrees>
            </Position>
            <AltitudeMeters>1319.800048828125</AltitudeMeters>
            <DistanceMeters>NAN</DistanceMeters>
          </Trackpoint>
          <Trackpoint>
            <Time>2023-02-23T14:05:27.000Z</Time>
            <Position>
              <LatitudeDegrees>41.54065989889204502105712890625</LatitudeDegrees>
              <LongitudeDegrees>-4.53518151305615901947021484375</LongitudeDegrees>
            </Position>
            <AltitudeMeters>1319.800048828125</AltitudeMeters>
            <DistanceMeters>NAN</DistanceMeters>
          </Trackpoint>
          <Trackpoint>
            <Time>2023-02-23T14:05:28.000Z</Time>
            <Position>
              <LatitudeDegrees>41.54069359414279460906982421875</LatitudeDegrees>
              <LongitudeDegrees>-4.53519626520574092864990234375</LongitudeDegrees>
            </Position>
            <AltitudeMeters>1319.800048828125</AltitudeMeters>
            <DistanceMeters>NAN</DistanceMeters>
          </Trackpoint>
          <Trackpoint>
            <Time>2023-02-23T14:05:30.000Z</Time>
            <Position>
              <LatitudeDegrees>41.54076031409204006195068359375</LatitudeDegrees>
              <LongitudeDegrees>-4.53522895462810993194580078125</LongitudeDegrees>
            </Position>
            <AltitudeMeters>1319.800048828125</AltitudeMeters>
            <DistanceMeters>NAN</DistanceMeters>
          </Trackpoint>
          <Trackpoint>
            <Time>2023-02-23T14:05:35.000Z</Time>
            <Position>
              <LatitudeDegrees>41.54091604985296726226806640625</LatitudeDegrees>
              <LongitudeDegrees>-4.5353058166801929473876953125</LongitudeDegrees>
            </Position>
            <AltitudeMeters>1320</AltitudeMeters>
            <DistanceMeters>NAN</DistanceMeters>
          </Trackpoint>
          <Trackpoint>
            <Time>2023-02-23T14:05:41.000Z</Time>
            <Position>
              <LatitudeDegrees>41.54114135541021823883056640625</LatitudeDegrees>
              <LongitudeDegrees>-4.53539944253861904144287109375</LongitudeDegrees>
            </Position>
            <AltitudeMeters>1319.4000244140625</AltitudeMeters>
            <DistanceMeters>NAN</DistanceMeters>
          </Trackpoint>
          <Trackpoint>
            <Time>2023-02-23T14:05:42.000Z</Time>
            <Position>
              <LatitudeDegrees>41.54117840342223644256591796875</LatitudeDegrees>
              <LongitudeDegrees>-4.53541629016399383544921875</LongitudeDegrees>
            </Position>
            <AltitudeMeters>1319.4000244140625</AltitudeMeters>
            <DistanceMeters>NAN</DistanceMeters>
          </Trackpoint>
          <Trackpoint>
            <Time>2023-02-23T14:05:47.000Z</Time>
            <Position>
              <LatitudeDegrees>41.54138124547898769378662109375</LatitudeDegrees>
              <LongitudeDegrees>-4.53547990880906581878662109375</LongitudeDegrees>
            </Position>
            <AltitudeMeters>1318.800048828125</AltitudeMeters>
            <DistanceMeters>NAN</DistanceMeters>
          </Trackpoint>
          <Trackpoint>
            <Time>2023-02-23T14:05:48.000Z</Time>
            <Position>
              <LatitudeDegrees>41.5414187125861644744873046875</LatitudeDegrees>
              <LongitudeDegrees>-4.53549499623477458953857421875</LongitudeDegrees>
            </Position>
            <AltitudeMeters>1318.800048828125</AltitudeMeters>
            <DistanceMeters>NAN</DistanceMeters>
          </Trackpoint>
          <Trackpoint>
            <Time>2023-02-23T14:05:50.000Z</Time>
            <Position>
              <LatitudeDegrees>41.5414881147444248199462890625</LatitudeDegrees>
              <LongitudeDegrees>-4.535521231591701507568359375</LongitudeDegrees>
            </Position>
            <AltitudeMeters>1319.199951171875</AltitudeMeters>
            <DistanceMeters>NAN</DistanceMeters>
          </Trackpoint>
          <Trackpoint>
            <Time>2023-02-23T14:05:53.000Z</Time>
            <Position>
              <LatitudeDegrees>41.54159833677113056182861328125</LatitudeDegrees>
              <LongitudeDegrees>-4.53556993044912815093994140625</LongitudeDegrees>
            </Position>
            <AltitudeMeters>1319</AltitudeMeters>
            <DistanceMeters>NAN</DistanceMeters>
          </Trackpoint>
          <Trackpoint>
            <Time>2023-02-23T14:05:56.000Z</Time>
            <Position>
              <LatitudeDegrees>41.54171048663556575775146484375</LatitudeDegrees>
              <LongitudeDegrees>-4.535628519952297210693359375</LongitudeDegrees>
            </Position>
            <AltitudeMeters>1319</AltitudeMeters>
            <DistanceMeters>NAN</DistanceMeters>
          </Trackpoint>
          <Trackpoint>
            <Time>2023-02-23T14:05:57.000Z</Time>
            <Position>
              <LatitudeDegrees>41.54174652881920337677001953125</LatitudeDegrees>
              <LongitudeDegrees>-4.53564721159636974334716796875</LongitudeDegrees>
            </Position>
            <AltitudeMeters>1318.800048828125</AltitudeMeters>
            <DistanceMeters>NAN</DistanceMeters>
          </Trackpoint>
          <Trackpoint>
            <Time>2023-02-23T14:05:59.000Z</Time>
            <Position>
              <LatitudeDegrees>41.54181324876844882965087890625</LatitudeDegrees>
              <LongitudeDegrees>-4.5356799848377704620361328125</LongitudeDegrees>
            </Position>
            <AltitudeMeters>1319</AltitudeMeters>
            <DistanceMeters>NAN</DistanceMeters>
          </Trackpoint>
          <Trackpoint>
            <Time>2023-02-23T14:06:04.000Z</Time>
            <Position>
              <LatitudeDegrees>41.54198549687862396240234375</LatitudeDegrees>
              <LongitudeDegrees>-4.5357664860785007476806640625</LongitudeDegrees>
            </Position>
            <AltitudeMeters>1319</AltitudeMeters>
            <DistanceMeters>NAN</DistanceMeters>
          </Trackpoint>
          <Trackpoint>
            <Time>2023-02-23T14:06:05.000Z</Time>
            <Position>
              <LatitudeDegrees>41.5420208685100078582763671875</LatitudeDegrees>
              <LongitudeDegrees>-4.5357869379222393035888671875</LongitudeDegrees>
            </Position>
            <AltitudeMeters>1319</AltitudeMeters>
            <DistanceMeters>NAN</DistanceMeters>
          </Trackpoint>
          <Trackpoint>
            <Time>2023-02-23T14:06:13.000Z</Time>
            <Position>
              <LatitudeDegrees>41.5423102118074893951416015625</LatitudeDegrees>
              <LongitudeDegrees>-4.53591057099401950836181640625</LongitudeDegrees>
            </Position>
            <AltitudeMeters>1320.199951171875</AltitudeMeters>
            <DistanceMeters>NAN</DistanceMeters>
          </Trackpoint>
          <Trackpoint>
            <Time>2023-02-23T14:06:16.000Z</Time>
            <Position>
              <LatitudeDegrees>41.54240660369396209716796875</LatitudeDegrees>
              <LongitudeDegrees>-4.53597209416329860687255859375</LongitudeDegrees>
            </Position>
            <AltitudeMeters>1320</AltitudeMeters>
            <DistanceMeters>NAN</DistanceMeters>
          </Trackpoint>
          <Trackpoint>
            <Time>2023-02-23T14:06:19.000Z</Time>
            <Position>
              <LatitudeDegrees>41.54250022955238819122314453125</LatitudeDegrees>
              <LongitudeDegrees>-4.53602850437164306640625</LongitudeDegrees>
            </Position>
            <AltitudeMeters>1320</AltitudeMeters>
            <DistanceMeters>NAN</DistanceMeters>
          </Trackpoint>
          <Trackpoint>
            <Time>2023-02-23T14:06:22.000Z</Time>
            <Position>
              <LatitudeDegrees>41.5425978787243366241455078125</LatitudeDegrees>
              <LongitudeDegrees>-4.53608684241771697998046875</LongitudeDegrees>
            </Position>
            <AltitudeMeters>1320</AltitudeMeters>
            <DistanceMeters>NAN</DistanceMeters>
          </Trackpoint>
          <Trackpoint>
            <Time>2023-02-23T14:06:26.000Z</Time>
            <Position>
              <LatitudeDegrees>41.54273525811731815338134765625</LatitudeDegrees>
              <LongitudeDegrees>-4.53616688959300518035888671875</LongitudeDegrees>
            </Position>
            <AltitudeMeters>1319.800048828125</AltitudeMeters>
            <DistanceMeters>NAN</DistanceMeters>
          </Trackpoint>
          <Trackpoint>
            <Time>2023-02-23T14:06:29.000Z</Time>
            <Position>
              <LatitudeDegrees>41.54283634386956691741943359375</LatitudeDegrees>
              <LongitudeDegrees>-4.53622723929584026336669921875</LongitudeDegrees>
            </Position>
            <AltitudeMeters>1319.800048828125</AltitudeMeters>
            <DistanceMeters>NAN</DistanceMeters>
          </Trackpoint>
          <Trackpoint>
            <Time>2023-02-23T14:06:33.000Z</Time>
            <Position>
              <LatitudeDegrees>41.54297715984284877777099609375</LatitudeDegrees>
              <LongitudeDegrees>-4.53630502335727214813232421875</LongitudeDegrees>
            </Position>
            <AltitudeMeters>1320</AltitudeMeters>
            <DistanceMeters>NAN</DistanceMeters>
          </Trackpoint>
          <Trackpoint>
            <Time>2023-02-23T14:06:39.000Z</Time>
            <Position>
              <LatitudeDegrees>41.54320196248590946197509765625</LatitudeDegrees>
              <LongitudeDegrees>-4.536423794925212860107421875</LongitudeDegrees>
            </Position>
            <AltitudeMeters>1319</AltitudeMeters>
            <DistanceMeters>NAN</DistanceMeters>
          </Trackpoint>
          <Trackpoint>
            <Time>2023-02-23T14:06:40.000Z</Time>
            <Position>
              <LatitudeDegrees>41.54323649592697620391845703125</LatitudeDegrees>
              <LongitudeDegrees>-4.53644265420734882354736328125</LongitudeDegrees>
            </Position>
            <AltitudeMeters>1318.800048828125</AltitudeMeters>
            <DistanceMeters>NAN</DistanceMeters>
          </Trackpoint>
          <Trackpoint>
            <Time>2023-02-23T14:06:43.000Z</Time>
            <Position>
              <LatitudeDegrees>41.54333339072763919830322265625</LatitudeDegrees>
              <LongitudeDegrees>-4.5365045964717864990234375</LongitudeDegrees>
            </Position>
            <AltitudeMeters>1318.5999755859375</AltitudeMeters>
            <DistanceMeters>NAN</DistanceMeters>
          </Trackpoint>
          <Trackpoint>
            <Time>2023-02-23T14:06:46.000Z</Time>
            <Position>
              <LatitudeDegrees>41.5434199757874011993408203125</LatitudeDegrees>
              <LongitudeDegrees>-4.5365614257752895355224609375</LongitudeDegrees>
            </Position>
            <AltitudeMeters>1318.5999755859375</AltitudeMeters>
            <DistanceMeters>NAN</DistanceMeters>
          </Trackpoint>
          <Trackpoint>
            <Time>2023-02-23T14:06:48.000Z</Time>
            <Position>
              <LatitudeDegrees>41.54348040930926799774169921875</LatitudeDegrees>
              <LongitudeDegrees>-4.5365962944924831390380859375</LongitudeDegrees>
            </Position>
            <AltitudeMeters>1318.5999755859375</AltitudeMeters>
            <DistanceMeters>NAN</DistanceMeters>
          </Trackpoint>
          <Trackpoint>
            <Time>2023-02-23T14:06:52.000Z</Time>
            <Position>
              <LatitudeDegrees>41.54362826608121395111083984375</LatitudeDegrees>
              <LongitudeDegrees>-4.53668229281902313232421875</LongitudeDegrees>
            </Position>
            <AltitudeMeters>1320.199951171875</AltitudeMeters>
            <DistanceMeters>NAN</DistanceMeters>
          </Trackpoint>
          <Trackpoint>
            <Time>2023-02-23T14:06:54.000Z</Time>
            <Position>
              <LatitudeDegrees>41.54371996410191059112548828125</LatitudeDegrees>
              <LongitudeDegrees>-4.53671984374523162841796875</LongitudeDegrees>
            </Position>
            <AltitudeMeters>1320.5999755859375</AltitudeMeters>
            <DistanceMeters>NAN</DistanceMeters>
          </Trackpoint>
          <Trackpoint>
            <Time>2023-02-23T14:07:01.000Z</Time>
            <Position>
              <LatitudeDegrees>41.5440378896892070770263671875</LatitudeDegrees>
              <LongitudeDegrees>-4.53685319982469081878662109375</LongitudeDegrees>
            </Position>
            <AltitudeMeters>1320</AltitudeMeters>
            <DistanceMeters>NAN</DistanceMeters>
          </Trackpoint>
          <Trackpoint>
            <Time>2023-02-23T14:07:03.000Z</Time>
            <Position>
              <LatitudeDegrees>41.544120199978351593017578125</LatitudeDegrees>
              <LongitudeDegrees>-4.5368881523609161376953125</LongitudeDegrees>
            </Position>
            <AltitudeMeters>1319.4000244140625</AltitudeMeters>
            <DistanceMeters>NAN</DistanceMeters>
          </Trackpoint>
          <Trackpoint>
            <Time>2023-02-23T14:07:08.000Z</Time>
            <Position>
              <LatitudeDegrees>41.544313319027423858642578125</LatitudeDegrees>
              <LongitudeDegrees>-4.5369552075862884521484375</LongitudeDegrees>
            </Position>
            <AltitudeMeters>1319.800048828125</AltitudeMeters>
            <DistanceMeters>NAN</DistanceMeters>
          </Trackpoint>
          <Trackpoint>
            <Time>2023-02-23T14:07:12.000Z</Time>
            <Position>
              <LatitudeDegrees>41.544452123343944549560546875</LatitudeDegrees>
              <LongitudeDegrees>-4.53701530583202838897705078125</LongitudeDegrees>
            </Position>
            <AltitudeMeters>1320</AltitudeMeters>
            <DistanceMeters>NAN</DistanceMeters>
          </Trackpoint>
          <Trackpoint>
            <Time>2023-02-23T14:07:16.000Z</Time>
            <Position>
              <LatitudeDegrees>41.54459034092724323272705078125</LatitudeDegrees>
              <LongitudeDegrees>-4.5370666868984699249267578125</LongitudeDegrees>
            </Position>
            <AltitudeMeters>1319.800048828125</AltitudeMeters>
            <DistanceMeters>NAN</DistanceMeters>
          </Trackpoint>
          <Trackpoint>
            <Time>2023-02-23T14:07:17.000Z</Time>
            <Position>
              <LatitudeDegrees>41.5446246229112148284912109375</LatitudeDegrees>
              <LongitudeDegrees>-4.53708001412451267242431640625</LongitudeDegrees>
            </Position>
            <AltitudeMeters>1319.800048828125</AltitudeMeters>
            <DistanceMeters>NAN</DistanceMeters>
          </Trackpoint>
          <Trackpoint>
            <Time>2023-02-23T14:07:23.000Z</Time>
            <Position>
              <LatitudeDegrees>41.5448371879756450653076171875</LatitudeDegrees>
              <LongitudeDegrees>-4.5371617376804351806640625</LongitudeDegrees>
            </Position>
            <AltitudeMeters>1320.4000244140625</AltitudeMeters>
            <DistanceMeters>NAN</DistanceMeters>
          </Trackpoint>
          <Trackpoint>
            <Time>2023-02-23T14:07:31.000Z</Time>
            <Position>
              <LatitudeDegrees>41.54509996064007282257080078125</LatitudeDegrees>
              <LongitudeDegrees>-4.53725519590079784393310546875</LongitudeDegrees>
            </Position>
            <AltitudeMeters>1321</AltitudeMeters>
            <DistanceMeters>NAN</DistanceMeters>
          </Trackpoint>
          <Trackpoint>
            <Time>2023-02-23T14:07:36.000Z</Time>
            <Position>
              <LatitudeDegrees>41.54526089318096637725830078125</LatitudeDegrees>
              <LongitudeDegrees>-4.53732141293585300445556640625</LongitudeDegrees>
            </Position>
            <AltitudeMeters>1320.800048828125</AltitudeMeters>
            <DistanceMeters>NAN</DistanceMeters>
          </Trackpoint>
          <Trackpoint>
            <Time>2023-02-23T14:07:38.000Z</Time>
            <Position>
              <LatitudeDegrees>41.54532484710216522216796875</LatitudeDegrees>
              <LongitudeDegrees>-4.53734437935054302215576171875</LongitudeDegrees>
            </Position>
            <AltitudeMeters>1321.199951171875</AltitudeMeters>
            <DistanceMeters>NAN</DistanceMeters>
          </Trackpoint>
          <Trackpoint>
            <Time>2023-02-23T14:07:39.000Z</Time>
            <Position>
              <LatitudeDegrees>41.5453538484871387481689453125</LatitudeDegrees>
              <LongitudeDegrees>-4.53735661692917346954345703125</LongitudeDegrees>
            </Position>
            <AltitudeMeters>1321.199951171875</AltitudeMeters>
            <DistanceMeters>NAN</DistanceMeters>
          </Trackpoint>
          <Trackpoint>
            <Time>2023-02-23T14:07:43.000Z</Time>
            <Position>
              <LatitudeDegrees>41.5454708598554134368896484375</LatitudeDegrees>
              <LongitudeDegrees>-4.53740254975855350494384765625</LongitudeDegrees>
            </Position>
            <AltitudeMeters>1321.800048828125</AltitudeMeters>
            <DistanceMeters>NAN</DistanceMeters>
          </Trackpoint>
          <Trackpoint>
            <Time>2023-02-23T14:07:46.000Z</Time>
            <Position>
              <LatitudeDegrees>41.5455590374767780303955078125</LatitudeDegrees>
              <LongitudeDegrees>-4.537431634962558746337890625</LongitudeDegrees>
            </Position>
            <AltitudeMeters>1322</AltitudeMeters>
            <DistanceMeters>NAN</DistanceMeters>
          </Trackpoint>
          <Trackpoint>
            <Time>2023-02-23T14:07:50.000Z</Time>
            <Position>
              <LatitudeDegrees>41.54568015597760677337646484375</LatitudeDegrees>
              <LongitudeDegrees>-4.537467174232006072998046875</LongitudeDegrees>
            </Position>
            <AltitudeMeters>1322</AltitudeMeters>
            <DistanceMeters>NAN</DistanceMeters>
          </Trackpoint>
          <Trackpoint>
            <Time>2023-02-23T14:07:54.000Z</Time>
            <Position>
              <LatitudeDegrees>41.5458121709525585174560546875</LatitudeDegrees>
              <LongitudeDegrees>-4.53749491833150386810302734375</LongitudeDegrees>
            </Position>
            <AltitudeMeters>1322.199951171875</AltitudeMeters>
            <DistanceMeters>NAN</DistanceMeters>
          </Trackpoint>
          <Trackpoint>
            <Time>2023-02-23T14:07:56.000Z</Time>
            <Position>
              <LatitudeDegrees>41.54587964527308940887451171875</LatitudeDegrees>
              <LongitudeDegrees>-4.53750564716756343841552734375</LongitudeDegrees>
            </Position>
            <AltitudeMeters>1322.199951171875</AltitudeMeters>
            <DistanceMeters>NAN</DistanceMeters>
          </Trackpoint>
          <Trackpoint>
            <Time>2023-02-23T14:07:58.000Z</Time>
            <Position>
              <LatitudeDegrees>41.54595860280096530914306640625</LatitudeDegrees>
              <LongitudeDegrees>-4.53751503489911556243896484375</LongitudeDegrees>
            </Position>
            <AltitudeMeters>1322.4000244140625</AltitudeMeters>
            <DistanceMeters>NAN</DistanceMeters>
          </Trackpoint>
          <Trackpoint>
            <Time>2023-02-23T14:08:03.000Z</Time>
            <Position>
              <LatitudeDegrees>41.54611400328576564788818359375</LatitudeDegrees>
              <LongitudeDegrees>-4.537535570561885833740234375</LongitudeDegrees>
            </Position>
            <AltitudeMeters>1322.5999755859375</AltitudeMeters>
            <DistanceMeters>NAN</DistanceMeters>
          </Trackpoint>
          <Trackpoint>
            <Time>2023-02-23T14:08:04.000Z</Time>
            <Position>
              <LatitudeDegrees>41.546149961650371551513671875</LatitudeDegrees>
              <LongitudeDegrees>-4.53754135407507419586181640625</LongitudeDegrees>
            </Position>
            <AltitudeMeters>1322.5999755859375</AltitudeMeters>
            <DistanceMeters>NAN</DistanceMeters>
          </Trackpoint>
          <Trackpoint>
            <Time>2023-02-23T14:08:10.000Z</Time>
            <Position>
              <LatitudeDegrees>41.5463653765618801116943359375</LatitudeDegrees>
              <LongitudeDegrees>-4.5375696010887622833251953125</LongitudeDegrees>
            </Position>
            <AltitudeMeters>1323.4000244140625</AltitudeMeters>
            <DistanceMeters>NAN</DistanceMeters>
          </Trackpoint>
          <Trackpoint>
            <Time>2023-02-23T14:08:13.000Z</Time>
            <Position>
              <LatitudeDegrees>41.54647274874150753021240234375</LatitudeDegrees>
              <LongitudeDegrees>-4.53758544288575649261474609375</LongitudeDegrees>
            </Position>
            <AltitudeMeters>1323.800048828125</AltitudeMeters>
            <DistanceMeters>NAN</DistanceMeters>
          </Trackpoint>
          <Trackpoint>
            <Time>2023-02-23T14:08:21.000Z</Time>
            <Position>
              <LatitudeDegrees>41.54673426412045955657958984375</LatitudeDegrees>
              <LongitudeDegrees>-4.53764964826405048370361328125</LongitudeDegrees>
            </Position>
            <AltitudeMeters>1324</AltitudeMeters>
            <DistanceMeters>NAN</DistanceMeters>
          </Trackpoint>
          <Trackpoint>
            <Time>2023-02-23T14:08:28.000Z</Time>
            <Position>
              <LatitudeDegrees>41.546947918832302093505859375</LatitudeDegrees>
              <LongitudeDegrees>-4.53775408677756786346435546875</LongitudeDegrees>
            </Position>
            <AltitudeMeters>1324.4000244140625</AltitudeMeters>
            <DistanceMeters>NAN</DistanceMeters>
          </Trackpoint>
          <Trackpoint>
            <Time>2023-02-23T14:08:29.000Z</Time>
            <Position>
              <LatitudeDegrees>41.5469752438366413116455078125</LatitudeDegrees>
              <LongitudeDegrees>-4.537767581641674041748046875</LongitudeDegrees>
            </Position>
            <AltitudeMeters>1324.4000244140625</AltitudeMeters>
            <DistanceMeters>NAN</DistanceMeters>
          </Trackpoint>
          <Trackpoint>
            <Time>2023-02-23T14:08:38.000Z</Time>
            <Position>
              <LatitudeDegrees>41.547224521636962890625</LatitudeDegrees>
              <LongitudeDegrees>-4.5378934778273105621337890625</LongitudeDegrees>
            </Position>
            <AltitudeMeters>1324.4000244140625</AltitudeMeters>
            <DistanceMeters>NAN</DistanceMeters>
          </Trackpoint>
          <Trackpoint>
            <Time>2023-02-23T14:08:40.000Z</Time>
            <Position>
              <LatitudeDegrees>41.54728378169238567352294921875</LatitudeDegrees>
              <LongitudeDegrees>-4.5379249937832355499267578125</LongitudeDegrees>
            </Position>
            <AltitudeMeters>1324.4000244140625</AltitudeMeters>
            <DistanceMeters>NAN</DistanceMeters>
          </Trackpoint>
          <Trackpoint>
            <Time>2023-02-23T14:08:41.000Z</Time>
            <Position>
              <LatitudeDegrees>41.5473152138292789459228515625</LatitudeDegrees>
              <LongitudeDegrees>-4.5379400812089443206787109375</LongitudeDegrees>
            </Position>
            <AltitudeMeters>1324.4000244140625</AltitudeMeters>
            <DistanceMeters>NAN</DistanceMeters>
          </Trackpoint>
          <Trackpoint>
            <Time>2023-02-23T14:08:42.000Z</Time>
            <Position>
              <LatitudeDegrees>41.5473463945090770721435546875</LatitudeDegrees>
              <LongitudeDegrees>-4.53795659355819225311279296875</LongitudeDegrees>
            </Position>
            <AltitudeMeters>1324.4000244140625</AltitudeMeters>
            <DistanceMeters>NAN</DistanceMeters>
          </Trackpoint>
          <Trackpoint>
            <Time>2023-02-23T14:08:43.000Z</Time>
            <Position>
              <LatitudeDegrees>41.547377072274684906005859375</LatitudeDegrees>
              <LongitudeDegrees>-4.5379717648029327392578125</LongitudeDegrees>
            </Position>
            <AltitudeMeters>1324.4000244140625</AltitudeMeters>
            <DistanceMeters>NAN</DistanceMeters>
          </Trackpoint>
          <Trackpoint>
            <Time>2023-02-23T14:08:44.000Z</Time>
            <Position>
              <LatitudeDegrees>41.54740758240222930908203125</LatitudeDegrees>
              <LongitudeDegrees>-4.53798509202897548675537109375</LongitudeDegrees>
            </Position>
            <AltitudeMeters>1324.4000244140625</AltitudeMeters>
            <DistanceMeters>NAN</DistanceMeters>
          </Trackpoint>
          <Trackpoint>
            <Time>2023-02-23T14:08:45.000Z</Time>
            <Position>
              <LatitudeDegrees>41.547439433634281158447265625</LatitudeDegrees>
              <LongitudeDegrees>-4.53800017945468425750732421875</LongitudeDegrees>
            </Position>
            <AltitudeMeters>1324.4000244140625</AltitudeMeters>
            <DistanceMeters>NAN</DistanceMeters>
          </Trackpoint>
          <Trackpoint>
            <Time>2023-02-23T14:08:48.000Z</Time>
            <Position>
              <LatitudeDegrees>41.547542028129100799560546875</LatitudeDegrees>
              <LongitudeDegrees>-4.53804376535117626190185546875</LongitudeDegrees>
            </Position>
            <AltitudeMeters>1324.199951171875</AltitudeMeters>
            <DistanceMeters>NAN</DistanceMeters>
          </Trackpoint>
          <Trackpoint>
            <Time>2023-02-23T14:08:53.000Z</Time>
            <Position>
              <LatitudeDegrees>41.5477229095995426177978515625</LatitudeDegrees>
              <LongitudeDegrees>-4.53810562379658222198486328125</LongitudeDegrees>
            </Position>
            <AltitudeMeters>1324</AltitudeMeters>
            <DistanceMeters>NAN</DistanceMeters>
          </Trackpoint>
          <Trackpoint>
            <Time>2023-02-23T14:08:58.000Z</Time>
            <Position>
              <LatitudeDegrees>41.5479066409170627593994140625</LatitudeDegrees>
              <LongitudeDegrees>-4.53816681168973445892333984375</LongitudeDegrees>
            </Position>
            <AltitudeMeters>1324.5999755859375</AltitudeMeters>
            <DistanceMeters>NAN</DistanceMeters>
          </Trackpoint>
          <Trackpoint>
            <Time>2023-02-23T14:09:03.000Z</Time>
            <Position>
              <LatitudeDegrees>41.54808592982590198516845703125</LatitudeDegrees>
              <LongitudeDegrees>-4.53821810893714427947998046875</LongitudeDegrees>
            </Position>
            <AltitudeMeters>1324.800048828125</AltitudeMeters>
            <DistanceMeters>NAN</DistanceMeters>
          </Trackpoint>
          <Trackpoint>
            <Time>2023-02-23T14:09:04.000Z</Time>
            <Position>
              <LatitudeDegrees>41.5481190383434295654296875</LatitudeDegrees>
              <LongitudeDegrees>-4.53822867013514041900634765625</LongitudeDegrees>
            </Position>
            <AltitudeMeters>1324.800048828125</AltitudeMeters>
            <DistanceMeters>NAN</DistanceMeters>
          </Trackpoint>
          <Trackpoint>
            <Time>2023-02-23T14:09:05.000Z</Time>
            <Position>
              <LatitudeDegrees>41.5481523983180522918701171875</LatitudeDegrees>
              <LongitudeDegrees>-4.53823973424732685089111328125</LongitudeDegrees>
            </Position>
            <AltitudeMeters>1324.4000244140625</AltitudeMeters>
            <DistanceMeters>NAN</DistanceMeters>
          </Trackpoint>
          <Trackpoint>
            <Time>2023-02-23T14:09:06.000Z</Time>
            <Position>
              <LatitudeDegrees>41.54818517155945301055908203125</LatitudeDegrees>
              <LongitudeDegrees>-4.5382512174546718597412109375</LongitudeDegrees>
            </Position>
            <AltitudeMeters>1324.4000244140625</AltitudeMeters>
            <DistanceMeters>NAN</DistanceMeters>
          </Trackpoint>
          <Trackpoint>
            <Time>2023-02-23T14:09:10.000Z</Time>
            <Position>
              <LatitudeDegrees>41.54831425286829471588134765625</LatitudeDegrees>
              <LongitudeDegrees>-4.53830176033079624176025390625</LongitudeDegrees>
            </Position>
            <AltitudeMeters>1324.199951171875</AltitudeMeters>
            <DistanceMeters>NAN</DistanceMeters>
          </Trackpoint>
          <Trackpoint>
            <Time>2023-02-23T14:09:16.000Z</Time>
            <Position>
              <LatitudeDegrees>41.5485295839607715606689453125</LatitudeDegrees>
              <LongitudeDegrees>-4.5383668877184391021728515625</LongitudeDegrees>
            </Position>
            <AltitudeMeters>1324.4000244140625</AltitudeMeters>
            <DistanceMeters>NAN</DistanceMeters>
          </Trackpoint>
          <Trackpoint>
            <Time>2023-02-23T14:09:24.000Z</Time>
            <Position>
              <LatitudeDegrees>41.54881012625992298126220703125</LatitudeDegrees>
              <LongitudeDegrees>-4.53845229931175708770751953125</LongitudeDegrees>
            </Position>
            <AltitudeMeters>1324</AltitudeMeters>
            <DistanceMeters>NAN</DistanceMeters>
          </Trackpoint>
          <Trackpoint>
            <Time>2023-02-23T14:09:32.000Z</Time>
            <Position>
              <LatitudeDegrees>41.54907524585723876953125</LatitudeDegrees>
              <LongitudeDegrees>-4.5385462604463100433349609375</LongitudeDegrees>
            </Position>
            <AltitudeMeters>1324.5999755859375</AltitudeMeters>
            <DistanceMeters>NAN</DistanceMeters>
          </Trackpoint>
          <Trackpoint>
            <Time>2023-02-23T14:09:35.000Z</Time>
            <Position>
              <LatitudeDegrees>41.54917255975306034088134765625</LatitudeDegrees>
              <LongitudeDegrees>-4.538573920726776123046875</LongitudeDegrees>
            </Position>
            <AltitudeMeters>1325</AltitudeMeters>
            <DistanceMeters>NAN</DistanceMeters>
          </Trackpoint>
          <Trackpoint>
            <Time>2023-02-23T14:09:39.000Z</Time>
            <Position>
              <LatitudeDegrees>41.549303568899631500244140625</LatitudeDegrees>
              <LongitudeDegrees>-4.5386156626045703887939453125</LongitudeDegrees>
            </Position>
            <AltitudeMeters>1324.800048828125</AltitudeMeters>
            <DistanceMeters>NAN</DistanceMeters>
          </Trackpoint>
          <Trackpoint>
            <Time>2023-02-23T14:09:47.000Z</Time>
            <Position>
              <LatitudeDegrees>41.5495448000729084014892578125</LatitudeDegrees>
              <LongitudeDegrees>-4.5386773534119129180908203125</LongitudeDegrees>
            </Position>
            <AltitudeMeters>1325</AltitudeMeters>
            <DistanceMeters>NAN</DistanceMeters>
          </Trackpoint>
          <Trackpoint>
            <Time>2023-02-23T14:09:53.000Z</Time>
            <Position>
              <LatitudeDegrees>41.549744792282581329345703125</LatitudeDegrees>
              <LongitudeDegrees>-4.53874097205698490142822265625</LongitudeDegrees>
            </Position>
            <AltitudeMeters>1325</AltitudeMeters>
            <DistanceMeters>NAN</DistanceMeters>
          </Trackpoint>
          <Trackpoint>
            <Time>2023-02-23T14:09:56.000Z</Time>
            <Position>
              <LatitudeDegrees>41.5498468838632106781005859375</LatitudeDegrees>
              <LongitudeDegrees>-4.538767375051975250244140625</LongitudeDegrees>
            </Position>
            <AltitudeMeters>1325.4000244140625</AltitudeMeters>
            <DistanceMeters>NAN</DistanceMeters>
          </Trackpoint>
          <Trackpoint>
            <Time>2023-02-23T14:09:57.000Z</Time>
            <Position>
              <LatitudeDegrees>41.54988049529492855072021484375</LatitudeDegrees>
              <LongitudeDegrees>-4.53877634368836879730224609375</LongitudeDegrees>
            </Position>
            <AltitudeMeters>1325.4000244140625</AltitudeMeters>
            <DistanceMeters>NAN</DistanceMeters>
          </Trackpoint>
          <Trackpoint>
            <Time>2023-02-23T14:10:05.000Z</Time>
            <Position>
              <LatitudeDegrees>41.55016195960342884063720703125</LatitudeDegrees>
              <LongitudeDegrees>-4.53881942667067050933837890625</LongitudeDegrees>
            </Position>
            <AltitudeMeters>1325.199951171875</AltitudeMeters>
            <DistanceMeters>NAN</DistanceMeters>
          </Trackpoint>
          <Trackpoint>
            <Time>2023-02-23T14:10:07.000Z</Time>
            <Position>
              <LatitudeDegrees>41.5502324514091014862060546875</LatitudeDegrees>
              <LongitudeDegrees>-4.5388327538967132568359375</LongitudeDegrees>
            </Position>
            <AltitudeMeters>1325.4000244140625</AltitudeMeters>
            <DistanceMeters>NAN</DistanceMeters>
          </Trackpoint>
          <Trackpoint>
            <Time>2023-02-23T14:10:14.000Z</Time>
            <Position>
              <LatitudeDegrees>41.55049555934965610504150390625</LatitudeDegrees>
              <LongitudeDegrees>-4.53889913856983184814453125</LongitudeDegrees>
            </Position>
            <AltitudeMeters>1324.5999755859375</AltitudeMeters>
            <DistanceMeters>NAN</DistanceMeters>
          </Trackpoint>
          <Trackpoint>
            <Time>2023-02-23T14:10:23.000Z</Time>
            <Position>
              <LatitudeDegrees>41.55080636031925678253173828125</LatitudeDegrees>
              <LongitudeDegrees>-4.53898823820054531097412109375</LongitudeDegrees>
            </Position>
            <AltitudeMeters>1325.199951171875</AltitudeMeters>
            <DistanceMeters>NAN</DistanceMeters>
          </Trackpoint>
          <Trackpoint>
            <Time>2023-02-23T14:10:26.000Z</Time>
            <Position>
              <LatitudeDegrees>41.55090878717601299285888671875</LatitudeDegrees>
              <LongitudeDegrees>-4.53901371918618679046630859375</LongitudeDegrees>
            </Position>
            <AltitudeMeters>1325.199951171875</AltitudeMeters>
            <DistanceMeters>NAN</DistanceMeters>
          </Trackpoint>
          <Trackpoint>
            <Time>2023-02-23T14:10:27.000Z</Time>
            <Position>
              <LatitudeDegrees>41.55094415880739688873291015625</LatitudeDegrees>
              <LongitudeDegrees>-4.53901539556682109832763671875</LongitudeDegrees>
            </Position>
            <AltitudeMeters>1325</AltitudeMeters>
            <DistanceMeters>NAN</DistanceMeters>
          </Trackpoint>
          <Trackpoint>
            <Time>2023-02-23T14:10:30.000Z</Time>
            <Position>
              <LatitudeDegrees>41.5510480105876922607421875</LatitudeDegrees>
              <LongitudeDegrees>-4.53899159096181392669677734375</LongitudeDegrees>
            </Position>
            <AltitudeMeters>1325</AltitudeMeters>
            <DistanceMeters>NAN</DistanceMeters>
          </Trackpoint>
          <Trackpoint>
            <Time>2023-02-23T14:10:37.000Z</Time>
            <Position>
              <LatitudeDegrees>41.55123719014227390289306640625</LatitudeDegrees>
              <LongitudeDegrees>-4.538934342563152313232421875</LongitudeDegrees>
            </Position>
            <AltitudeMeters>1325</AltitudeMeters>
            <DistanceMeters>NAN</DistanceMeters>
          </Trackpoint>
          <Trackpoint>
            <Time>2023-02-23T14:10:39.000Z</Time>
            <Position>
              <LatitudeDegrees>41.551289744675159454345703125</LatitudeDegrees>
              <LongitudeDegrees>-4.53897331841289997100830078125</LongitudeDegrees>
            </Position>
            <AltitudeMeters>1325</AltitudeMeters>
            <DistanceMeters>NAN</DistanceMeters>
          </Trackpoint>
          <Trackpoint>
            <Time>2023-02-23T14:10:41.000Z</Time>
            <Position>
              <LatitudeDegrees>41.55132905580103397369384765625</LatitudeDegrees>
              <LongitudeDegrees>-4.53904657624661922454833984375</LongitudeDegrees>
            </Position>
            <AltitudeMeters>1325</AltitudeMeters>
            <DistanceMeters>NAN</DistanceMeters>
          </Trackpoint>
          <Trackpoint>
            <Time>2023-02-23T14:10:46.000Z</Time>
            <Position>
              <LatitudeDegrees>41.55143332667648792266845703125</LatitudeDegrees>
              <LongitudeDegrees>-4.53917247243225574493408203125</LongitudeDegrees>
            </Position>
            <AltitudeMeters>1324.5999755859375</AltitudeMeters>
            <DistanceMeters>NAN</DistanceMeters>
          </Trackpoint>
          <Trackpoint>
            <Time>2023-02-23T14:10:51.000Z</Time>
            <Position>
              <LatitudeDegrees>41.55158855952322483062744140625</LatitudeDegrees>
              <LongitudeDegrees>-4.539179094135761260986328125</LongitudeDegrees>
            </Position>
            <AltitudeMeters>1324.5999755859375</AltitudeMeters>
            <DistanceMeters>NAN</DistanceMeters>
          </Trackpoint>
          <Trackpoint>
            <Time>2023-02-23T14:10:52.000Z</Time>
            <Position>
              <LatitudeDegrees>41.55162191949784755706787109375</LatitudeDegrees>
              <LongitudeDegrees>-4.53917867504060268402099609375</LongitudeDegrees>
            </Position>
            <AltitudeMeters>1324.5999755859375</AltitudeMeters>
            <DistanceMeters>NAN</DistanceMeters>
          </Trackpoint>
          <Trackpoint>
            <Time>2023-02-23T14:10:59.000Z</Time>
            <Position>
              <LatitudeDegrees>41.55183054506778717041015625</LatitudeDegrees>
              <LongitudeDegrees>-4.5392275415360927581787109375</LongitudeDegrees>
            </Position>
            <AltitudeMeters>1324.5999755859375</AltitudeMeters>
            <DistanceMeters>NAN</DistanceMeters>
          </Trackpoint>
          <Trackpoint>
            <Time>2023-02-23T14:11:06.000Z</Time>
            <Position>
              <LatitudeDegrees>41.55198938213288784027099609375</LatitudeDegrees>
              <LongitudeDegrees>-4.53935150988399982452392578125</LongitudeDegrees>
            </Position>
            <AltitudeMeters>1325</AltitudeMeters>
            <DistanceMeters>NAN</DistanceMeters>
          </Trackpoint>
          <Trackpoint>
            <Time>2023-02-23T14:11:09.000Z</Time>
            <Position>
              <LatitudeDegrees>41.55206565745174884796142578125</LatitudeDegrees>
              <LongitudeDegrees>-4.53942694701254367828369140625</LongitudeDegrees>
            </Position>
            <AltitudeMeters>1324.800048828125</AltitudeMeters>
            <DistanceMeters>NAN</DistanceMeters>
          </Trackpoint>
          <Trackpoint>
            <Time>2023-02-23T14:11:14.000Z</Time>
            <Position>
              <LatitudeDegrees>41.55217814259231090545654296875</LatitudeDegrees>
              <LongitudeDegrees>-4.5395571179687976837158203125</LongitudeDegrees>
            </Position>
            <AltitudeMeters>1325.800048828125</AltitudeMeters>
            <DistanceMeters>NAN</DistanceMeters>
          </Trackpoint>
          <Trackpoint>
            <Time>2023-02-23T14:11:18.000Z</Time>
            <Position>
              <LatitudeDegrees>41.5522162802517414093017578125</LatitudeDegrees>
              <LongitudeDegrees>-4.53962895087897777557373046875</LongitudeDegrees>
            </Position>
            <AltitudeMeters>1326.199951171875</AltitudeMeters>
            <DistanceMeters>NAN</DistanceMeters>
          </Trackpoint>
          <Trackpoint>
            <Time>2023-02-23T14:11:19.000Z</Time>
            <Position>
              <LatitudeDegrees>41.552219800651073455810546875</LatitudeDegrees>
              <LongitudeDegrees>-4.539629705250263214111328125</LongitudeDegrees>
            </Position>
            <AltitudeMeters>1326.199951171875</AltitudeMeters>
            <DistanceMeters>NAN</DistanceMeters>
          </Trackpoint>
          <Trackpoint>
            <Time>2023-02-23T14:11:22.000Z</Time>
            <Position>
              <LatitudeDegrees>41.55220764689147472381591796875</LatitudeDegrees>
              <LongitudeDegrees>-4.539639092981815338134765625</LongitudeDegrees>
            </Position>
            <AltitudeMeters>1326.4000244140625</AltitudeMeters>
            <DistanceMeters>NAN</DistanceMeters>
          </Trackpoint>
          <Trackpoint>
            <Time>2023-02-23T14:11:24.000Z</Time>
            <Position>
              <LatitudeDegrees>41.55220228247344493865966796875</LatitudeDegrees>
              <LongitudeDegrees>-4.53964403830468654632568359375</LongitudeDegrees>
            </Position>
            <AltitudeMeters>1326.5999755859375</AltitudeMeters>
            <DistanceMeters>NAN</DistanceMeters>
          </Trackpoint>
          <Trackpoint>
            <Time>2023-02-23T14:11:25.000Z</Time>
            <Position>
              <LatitudeDegrees>41.5522021986544132232666015625</LatitudeDegrees>
              <LongitudeDegrees>-4.53964211046695709228515625</LongitudeDegrees>
            </Position>
            <AltitudeMeters>1326.5999755859375</AltitudeMeters>
            <DistanceMeters>NAN</DistanceMeters>
          </Trackpoint>
          <Trackpoint>
            <Time>2023-02-23T14:11:27.000Z</Time>
            <Position>
              <LatitudeDegrees>41.55219775624573230743408203125</LatitudeDegrees>
              <LongitudeDegrees>-4.539641775190830230712890625</LongitudeDegrees>
            </Position>
            <AltitudeMeters>1326.5999755859375</AltitudeMeters>
            <DistanceMeters>NAN</DistanceMeters>
          </Trackpoint>
          <Trackpoint>
            <Time>2023-02-23T14:11:32.000Z</Time>
            <Position>
              <LatitudeDegrees>41.5521807409822940826416015625</LatitudeDegrees>
              <LongitudeDegrees>-4.539645127952098846435546875</LongitudeDegrees>
            </Position>
            <AltitudeMeters>1326.4000244140625</AltitudeMeters>
            <DistanceMeters>NAN</DistanceMeters>
          </Trackpoint>
          <Trackpoint>
            <Time>2023-02-23T14:11:33.000Z</Time>
            <Position>
              <LatitudeDegrees>41.5521793998777866363525390625</LatitudeDegrees>
              <LongitudeDegrees>-4.5396454632282257080078125</LongitudeDegrees>
            </Position>
            <AltitudeMeters>1326.4000244140625</AltitudeMeters>
            <DistanceMeters>NAN</DistanceMeters>
          </Trackpoint>
          <Trackpoint>
            <Time>2023-02-23T14:11:34.000Z</Time>
            <Position>
              <LatitudeDegrees>41.5521800704300403594970703125</LatitudeDegrees>
              <LongitudeDegrees>-4.53965007327497005462646484375</LongitudeDegrees>
            </Position>
            <AltitudeMeters>1326.4000244140625</AltitudeMeters>
            <DistanceMeters>NAN</DistanceMeters>
          </Trackpoint>
          <Trackpoint>
            <Time>2023-02-23T14:11:35.000Z</Time>
            <Position>
              <LatitudeDegrees>41.55218266882002353668212890625</LatitudeDegrees>
              <LongitudeDegrees>-4.5396570302546024322509765625</LongitudeDegrees>
            </Position>
            <AltitudeMeters>1326.4000244140625</AltitudeMeters>
            <DistanceMeters>NAN</DistanceMeters>
          </Trackpoint>
          <Trackpoint>
            <Time>2023-02-23T14:11:36.000Z</Time>
            <Position>
              <LatitudeDegrees>41.55218719504773616790771484375</LatitudeDegrees>
              <LongitudeDegrees>-4.53966759145259857177734375</LongitudeDegrees>
            </Position>
            <AltitudeMeters>1326.4000244140625</AltitudeMeters>
            <DistanceMeters>NAN</DistanceMeters>
          </Trackpoint>
          <Trackpoint>
            <Time>2023-02-23T14:11:39.000Z</Time>
            <Position>
              <LatitudeDegrees>41.5522196330130100250244140625</LatitudeDegrees>
              <LongitudeDegrees>-4.53971981070935726165771484375</LongitudeDegrees>
            </Position>
            <AltitudeMeters>1326.199951171875</AltitudeMeters>
            <DistanceMeters>NAN</DistanceMeters>
          </Trackpoint>
          <Trackpoint>
            <Time>2023-02-23T14:11:45.000Z</Time>
            <Position>
              <LatitudeDegrees>41.5523289330303668975830078125</LatitudeDegrees>
              <LongitudeDegrees>-4.53985643573105335235595703125</LongitudeDegrees>
            </Position>
            <AltitudeMeters>1326</AltitudeMeters>
            <DistanceMeters>NAN</DistanceMeters>
          </Trackpoint>
          <Trackpoint>
            <Time>2023-02-23T14:11:46.000Z</Time>
            <Position>
              <LatitudeDegrees>41.55234846286475658416748046875</LatitudeDegrees>
              <LongitudeDegrees>-4.53987671993672847747802734375</LongitudeDegrees>
            </Position>
            <AltitudeMeters>1326</AltitudeMeters>
            <DistanceMeters>NAN</DistanceMeters>
          </Trackpoint>
          <Trackpoint>
            <Time>2023-02-23T14:11:54.000Z</Time>
            <Position>
              <LatitudeDegrees>41.5525180287659168243408203125</LatitudeDegrees>
              <LongitudeDegrees>-4.54001736827194690704345703125</LongitudeDegrees>
            </Position>
            <AltitudeMeters>1327</AltitudeMeters>
            <DistanceMeters>NAN</DistanceMeters>
          </Trackpoint>
          <Trackpoint>
            <Time>2023-02-23T14:11:56.000Z</Time>
            <Position>
              <LatitudeDegrees>41.5525580942630767822265625</LatitudeDegrees>
              <LongitudeDegrees>-4.54007185064256191253662109375</LongitudeDegrees>
            </Position>
            <AltitudeMeters>1326.4000244140625</AltitudeMeters>
            <DistanceMeters>NAN</DistanceMeters>
          </Trackpoint>
          <Trackpoint>
            <Time>2023-02-23T14:11:58.000Z</Time>
            <Position>
              <LatitudeDegrees>41.55259924940764904022216796875</LatitudeDegrees>
              <LongitudeDegrees>-4.540115855634212493896484375</LongitudeDegrees>
            </Position>
            <AltitudeMeters>1326.4000244140625</AltitudeMeters>
            <DistanceMeters>NAN</DistanceMeters>
          </Trackpoint>
          <Trackpoint>
            <Time>2023-02-23T14:12:00.000Z</Time>
            <Position>
              <LatitudeDegrees>41.552639566361904144287109375</LatitudeDegrees>
              <LongitudeDegrees>-4.540156424045562744140625</LongitudeDegrees>
            </Position>
            <AltitudeMeters>1326.199951171875</AltitudeMeters>
            <DistanceMeters>NAN</DistanceMeters>
          </Trackpoint>
          <Trackpoint>
            <Time>2023-02-23T14:12:02.000Z</Time>
            <Position>
              <LatitudeDegrees>41.55268558301031589508056640625</LatitudeDegrees>
              <LongitudeDegrees>-4.540199674665927886962890625</LongitudeDegrees>
            </Position>
            <AltitudeMeters>1326.4000244140625</AltitudeMeters>
            <DistanceMeters>NAN</DistanceMeters>
          </Trackpoint>
          <Trackpoint>
            <Time>2023-02-23T14:12:03.000Z</Time>
            <Position>
              <LatitudeDegrees>41.55270888470113277435302734375</LatitudeDegrees>
              <LongitudeDegrees>-4.54022272489964962005615234375</LongitudeDegrees>
            </Position>
            <AltitudeMeters>1326.4000244140625</AltitudeMeters>
            <DistanceMeters>NAN</DistanceMeters>
          </Trackpoint>
          <Trackpoint>
            <Time>2023-02-23T14:12:07.000Z</Time>
            <Position>
              <LatitudeDegrees>41.55280795879662036895751953125</LatitudeDegrees>
              <LongitudeDegrees>-4.5402853377163410186767578125</LongitudeDegrees>
            </Position>
            <AltitudeMeters>1327</AltitudeMeters>
            <DistanceMeters>NAN</DistanceMeters>
          </Trackpoint>
          <Trackpoint>
            <Time>2023-02-23T14:12:08.000Z</Time>
            <Position>
              <LatitudeDegrees>41.55283343978226184844970703125</LatitudeDegrees>
              <LongitudeDegrees>-4.5403014309704303741455078125</LongitudeDegrees>
            </Position>
            <AltitudeMeters>1327</AltitudeMeters>
            <DistanceMeters>NAN</DistanceMeters>
          </Trackpoint>
          <Trackpoint>
            <Time>2023-02-23T14:12:17.000Z</Time>
            <Position>
              <LatitudeDegrees>41.553037874400615692138671875</LatitudeDegrees>
              <LongitudeDegrees>-4.540491364896297454833984375</LongitudeDegrees>
            </Position>
            <AltitudeMeters>1326.4000244140625</AltitudeMeters>
            <DistanceMeters>NAN</DistanceMeters>
          </Trackpoint>
          <Trackpoint>
            <Time>2023-02-23T14:12:22.000Z</Time>
            <Position>
              <LatitudeDegrees>41.55315413139760494232177734375</LatitudeDegrees>
              <LongitudeDegrees>-4.5405944623053073883056640625</LongitudeDegrees>
            </Position>
            <AltitudeMeters>1326.199951171875</AltitudeMeters>
            <DistanceMeters>NAN</DistanceMeters>
          </Trackpoint>
          <Trackpoint>
            <Time>2023-02-23T14:12:26.000Z</Time>
            <Position>
              <LatitudeDegrees>41.55325002036988735198974609375</LatitudeDegrees>
              <LongitudeDegrees>-4.54066948033869266510009765625</LongitudeDegrees>
            </Position>
            <AltitudeMeters>1326</AltitudeMeters>
            <DistanceMeters>NAN</DistanceMeters>
          </Trackpoint>
          <Trackpoint>
            <Time>2023-02-23T14:12:27.000Z</Time>
            <Position>
              <LatitudeDegrees>41.55326913110911846160888671875</LatitudeDegrees>
              <LongitudeDegrees>-4.54068657942116260528564453125</LongitudeDegrees>
            </Position>
            <AltitudeMeters>1325.800048828125</AltitudeMeters>
            <DistanceMeters>NAN</DistanceMeters>
          </Trackpoint>
          <Trackpoint>
            <Time>2023-02-23T14:12:36.000Z</Time>
            <Position>
              <LatitudeDegrees>41.553451605141162872314453125</LatitudeDegrees>
              <LongitudeDegrees>-4.54089126549661159515380859375</LongitudeDegrees>
            </Position>
            <AltitudeMeters>1326.199951171875</AltitudeMeters>
            <DistanceMeters>NAN</DistanceMeters>
          </Trackpoint>
          <Trackpoint>
            <Time>2023-02-23T14:12:43.000Z</Time>
            <Position>
              <LatitudeDegrees>41.55359334312379360198974609375</LatitudeDegrees>
              <LongitudeDegrees>-4.54110366292297840118408203125</LongitudeDegrees>
            </Position>
            <AltitudeMeters>1325.800048828125</AltitudeMeters>
            <DistanceMeters>NAN</DistanceMeters>
          </Trackpoint>
          <Trackpoint>
            <Time>2023-02-23T14:12:44.000Z</Time>
            <Position>
              <LatitudeDegrees>41.553612537682056427001953125</LatitudeDegrees>
              <LongitudeDegrees>-4.5411339215934276580810546875</LongitudeDegrees>
            </Position>
            <AltitudeMeters>1325.4000244140625</AltitudeMeters>
            <DistanceMeters>NAN</DistanceMeters>
          </Trackpoint>
          <Trackpoint>
            <Time>2023-02-23T14:12:52.000Z</Time>
            <Position>
              <LatitudeDegrees>41.55378143303096294403076171875</LatitudeDegrees>
              <LongitudeDegrees>-4.54135411418974399566650390625</LongitudeDegrees>
            </Position>
            <AltitudeMeters>1324.800048828125</AltitudeMeters>
            <DistanceMeters>NAN</DistanceMeters>
          </Trackpoint>
          <Trackpoint>
            <Time>2023-02-23T14:12:57.000Z</Time>
            <Position>
              <LatitudeDegrees>41.55389274470508098602294921875</LatitudeDegrees>
              <LongitudeDegrees>-4.54149560071527957916259765625</LongitudeDegrees>
            </Position>
            <AltitudeMeters>1326</AltitudeMeters>
            <DistanceMeters>NAN</DistanceMeters>
          </Trackpoint>
          <Trackpoint>
            <Time>2023-02-23T14:12:58.000Z</Time>
            <Position>
              <LatitudeDegrees>41.55393884517252445220947265625</LatitudeDegrees>
              <LongitudeDegrees>-4.5415526814758777618408203125</LongitudeDegrees>
            </Position>
            <AltitudeMeters>1325.800048828125</AltitudeMeters>
            <DistanceMeters>NAN</DistanceMeters>
          </Trackpoint>
          <Trackpoint>
            <Time>2023-02-23T14:13:00.000Z</Time>
            <Position>
              <LatitudeDegrees>41.5539623983204364776611328125</LatitudeDegrees>
              <LongitudeDegrees>-4.5415798388421535491943359375</LongitudeDegrees>
            </Position>
            <AltitudeMeters>1326.199951171875</AltitudeMeters>
            <DistanceMeters>NAN</DistanceMeters>
          </Trackpoint>
          <Trackpoint>
            <Time>2023-02-23T14:13:06.000Z</Time>
            <Position>
              <LatitudeDegrees>41.55408770777285099029541015625</LatitudeDegrees>
              <LongitudeDegrees>-4.5417360775172710418701171875</LongitudeDegrees>
            </Position>
            <AltitudeMeters>1326.4000244140625</AltitudeMeters>
            <DistanceMeters>NAN</DistanceMeters>
          </Trackpoint>
          <Trackpoint>
            <Time>2023-02-23T14:13:08.000Z</Time>
            <Position>
              <LatitudeDegrees>41.554136909544467926025390625</LatitudeDegrees>
              <LongitudeDegrees>-4.54179299063980579376220703125</LongitudeDegrees>
            </Position>
            <AltitudeMeters>1326.4000244140625</AltitudeMeters>
            <DistanceMeters>NAN</DistanceMeters>
          </Trackpoint>
          <Trackpoint>
            <Time>2023-02-23T14:13:14.000Z</Time>
            <Position>
              <LatitudeDegrees>41.55427445657551288604736328125</LatitudeDegrees>
              <LongitudeDegrees>-4.5419835112988948822021484375</LongitudeDegrees>
            </Position>
            <AltitudeMeters>1326.4000244140625</AltitudeMeters>
            <DistanceMeters>NAN</DistanceMeters>
          </Trackpoint>
          <Trackpoint>
            <Time>2023-02-23T14:13:21.000Z</Time>
            <Position>
              <LatitudeDegrees>41.5544061362743377685546875</LatitudeDegrees>
              <LongitudeDegrees>-4.54219129867851734161376953125</LongitudeDegrees>
            </Position>
            <AltitudeMeters>1325.5999755859375</AltitudeMeters>
            <DistanceMeters>NAN</DistanceMeters>
          </Trackpoint>
          <Trackpoint>
            <Time>2023-02-23T14:13:22.000Z</Time>
            <Position>
              <LatitudeDegrees>41.55442348681390285491943359375</LatitudeDegrees>
              <LongitudeDegrees>-4.54221812076866626739501953125</LongitudeDegrees>
            </Position>
            <AltitudeMeters>1325.4000244140625</AltitudeMeters>
            <DistanceMeters>NAN</DistanceMeters>
          </Trackpoint>
          <Trackpoint>
            <Time>2023-02-23T14:13:27.000Z</Time>
            <Position>
              <LatitudeDegrees>41.55449858866631984710693359375</LatitudeDegrees>
              <LongitudeDegrees>-4.54229439608752727508544921875</LongitudeDegrees>
            </Position>
            <AltitudeMeters>1326.5999755859375</AltitudeMeters>
            <DistanceMeters>NAN</DistanceMeters>
          </Trackpoint>
          <Trackpoint>
            <Time>2023-02-23T14:13:30.000Z</Time>
            <Position>
              <LatitudeDegrees>41.55451753176748752593994140625</LatitudeDegrees>
              <LongitudeDegrees>-4.54226388595998287200927734375</LongitudeDegrees>
            </Position>
            <AltitudeMeters>1327.4000244140625</AltitudeMeters>
            <DistanceMeters>NAN</DistanceMeters>
          </Trackpoint>
          <Trackpoint>
            <Time>2023-02-23T14:13:32.000Z</Time>
            <Position>
              <LatitudeDegrees>41.5545308589935302734375</LatitudeDegrees>
              <LongitudeDegrees>-4.54225122928619384765625</LongitudeDegrees>
            </Position>
            <AltitudeMeters>1327.4000244140625</AltitudeMeters>
            <DistanceMeters>NAN</DistanceMeters>
          </Trackpoint>
          <Trackpoint>
            <Time>2023-02-23T14:13:38.000Z</Time>
            <Position>
              <LatitudeDegrees>41.55456933192908763885498046875</LatitudeDegrees>
              <LongitudeDegrees>-4.54225189983844757080078125</LongitudeDegrees>
            </Position>
            <AltitudeMeters>1327.800048828125</AltitudeMeters>
            <DistanceMeters>NAN</DistanceMeters>
          </Trackpoint>
          <Trackpoint>
            <Time>2023-02-23T14:13:39.000Z</Time>
            <Position>
              <LatitudeDegrees>41.55457176268100738525390625</LatitudeDegrees>
              <LongitudeDegrees>-4.542246870696544647216796875</LongitudeDegrees>
            </Position>
            <AltitudeMeters>1328</AltitudeMeters>
            <DistanceMeters>NAN</DistanceMeters>
          </Trackpoint>
          <Trackpoint>
            <Time>2023-02-23T14:13:45.000Z</Time>
            <Position>
              <LatitudeDegrees>41.554589532315731048583984375</LatitudeDegrees>
              <LongitudeDegrees>-4.54224930144846439361572265625</LongitudeDegrees>
            </Position>
            <AltitudeMeters>1327.4000244140625</AltitudeMeters>
            <DistanceMeters>NAN</DistanceMeters>
          </Trackpoint>
          <Trackpoint>
            <Time>2023-02-23T14:13:49.000Z</Time>
            <Position>
              <LatitudeDegrees>41.55460126698017120361328125</LatitudeDegrees>
              <LongitudeDegrees>-4.54224997200071811676025390625</LongitudeDegrees>
            </Position>
            <AltitudeMeters>1327.4000244140625</AltitudeMeters>
            <DistanceMeters>NAN</DistanceMeters>
          </Trackpoint>
          <Trackpoint>
            <Time>2023-02-23T14:13:51.000Z</Time>
            <Position>
              <LatitudeDegrees>41.5546282567083835601806640625</LatitudeDegrees>
              <LongitudeDegrees>-4.5422780513763427734375</LongitudeDegrees>
            </Position>
            <AltitudeMeters>1327.4000244140625</AltitudeMeters>
            <DistanceMeters>NAN</DistanceMeters>
          </Trackpoint>
          <Trackpoint>
            <Time>2023-02-23T14:13:55.000Z</Time>
            <Position>
              <LatitudeDegrees>41.55463437549769878387451171875</LatitudeDegrees>
              <LongitudeDegrees>-4.54228450544178485870361328125</LongitudeDegrees>
            </Position>
            <AltitudeMeters>1327.4000244140625</AltitudeMeters>
            <DistanceMeters>NAN</DistanceMeters>
          </Trackpoint>
          <Trackpoint>
            <Time>2023-02-23T14:13:57.000Z</Time>
            <Position>
              <LatitudeDegrees>41.55463538132607936859130859375</LatitudeDegrees>
              <LongitudeDegrees>-4.54228869639337062835693359375</LongitudeDegrees>
            </Position>
            <AltitudeMeters>1327.4000244140625</AltitudeMeters>
            <DistanceMeters>NAN</DistanceMeters>
          </Trackpoint>
          <Trackpoint>
            <Time>2023-02-23T14:13:59.000Z</Time>
            <Position>
              <LatitudeDegrees>41.5546332858502864837646484375</LatitudeDegrees>
              <LongitudeDegrees>-4.542295150458812713623046875</LongitudeDegrees>
            </Position>
            <AltitudeMeters>1327.4000244140625</AltitudeMeters>
            <DistanceMeters>NAN</DistanceMeters>
          </Trackpoint>
          <Trackpoint>
            <Time>2023-02-23T14:14:08.000Z</Time>
            <Position>
              <LatitudeDegrees>41.55461459420621395111083984375</LatitudeDegrees>
              <LongitudeDegrees>-4.542296826839447021484375</LongitudeDegrees>
            </Position>
            <AltitudeMeters>1327.4000244140625</AltitudeMeters>
            <DistanceMeters>NAN</DistanceMeters>
          </Trackpoint>
          <Trackpoint>
            <Time>2023-02-23T14:14:10.000Z</Time>
            <Position>
              <LatitudeDegrees>41.5546118281781673431396484375</LatitudeDegrees>
              <LongitudeDegrees>-4.54228945076465606689453125</LongitudeDegrees>
            </Position>
            <AltitudeMeters>1327.4000244140625</AltitudeMeters>
            <DistanceMeters>NAN</DistanceMeters>
          </Trackpoint>
          <Trackpoint>
            <Time>2023-02-23T14:14:17.000Z</Time>
            <Position>
              <LatitudeDegrees>41.5546235628426074981689453125</LatitudeDegrees>
              <LongitudeDegrees>-4.5422364771366119384765625</LongitudeDegrees>
            </Position>
            <AltitudeMeters>1327.4000244140625</AltitudeMeters>
            <DistanceMeters>NAN</DistanceMeters>
          </Trackpoint>
          <Trackpoint>
            <Time>2023-02-23T14:14:23.000Z</Time>
            <Position>
              <LatitudeDegrees>41.5546322800219058990478515625</LatitudeDegrees>
              <LongitudeDegrees>-4.54221007414162158966064453125</LongitudeDegrees>
            </Position>
            <AltitudeMeters>1327.4000244140625</AltitudeMeters>
            <DistanceMeters>NAN</DistanceMeters>
          </Trackpoint>
          <Trackpoint>
            <Time>2023-02-23T14:14:29.000Z</Time>
            <Position>
              <LatitudeDegrees>41.55462448485195636749267578125</LatitudeDegrees>
              <LongitudeDegrees>-4.54224863089621067047119140625</LongitudeDegrees>
            </Position>
            <AltitudeMeters>1327.4000244140625</AltitudeMeters>
            <DistanceMeters>NAN</DistanceMeters>
          </Trackpoint>
          <Trackpoint>
            <Time>2023-02-23T14:14:37.000Z</Time>
            <Position>
              <LatitudeDegrees>41.55460436828434467315673828125</LatitudeDegrees>
              <LongitudeDegrees>-4.5422403328120708465576171875</LongitudeDegrees>
            </Position>
            <AltitudeMeters>1327.4000244140625</AltitudeMeters>
            <DistanceMeters>NAN</DistanceMeters>
          </Trackpoint>
          <Trackpoint>
            <Time>2023-02-23T14:14:41.000Z</Time>
            <Position>
              <LatitudeDegrees>41.5545920468866825103759765625</LatitudeDegrees>
              <LongitudeDegrees>-4.54222767613828182220458984375</LongitudeDegrees>
            </Position>
            <AltitudeMeters>1327.4000244140625</AltitudeMeters>
            <DistanceMeters>NAN</DistanceMeters>
          </Trackpoint>
          <Trackpoint>
            <Time>2023-02-23T14:14:46.000Z</Time>
            <Position>
              <LatitudeDegrees>41.55459414236247539520263671875</LatitudeDegrees>
              <LongitudeDegrees>-4.54222910106182098388671875</LongitudeDegrees>
            </Position>
            <AltitudeMeters>1327.4000244140625</AltitudeMeters>
            <DistanceMeters>NAN</DistanceMeters>
          </Trackpoint>
          <Trackpoint>
            <Time>2023-02-23T14:14:52.000Z</Time>
            <Position>
              <LatitudeDegrees>41.55460126698017120361328125</LatitudeDegrees>
              <LongitudeDegrees>-4.5422306098043918609619140625</LongitudeDegrees>
            </Position>
            <AltitudeMeters>1327.4000244140625</AltitudeMeters>
            <DistanceMeters>NAN</DistanceMeters>
          </Trackpoint>
          <Trackpoint>
            <Time>2023-02-23T14:14:53.000Z</Time>
            <Position>
              <LatitudeDegrees>41.55460151843726634979248046875</LatitudeDegrees>
              <LongitudeDegrees>-4.5422311127185821533203125</LongitudeDegrees>
            </Position>
            <AltitudeMeters>1327.4000244140625</AltitudeMeters>
            <DistanceMeters>NAN</DistanceMeters>
          </Trackpoint>
          <Trackpoint>
            <Time>2023-02-23T14:14:58.000Z</Time>
            <Position>
              <LatitudeDegrees>41.55459380708634853363037109375</LatitudeDegrees>
              <LongitudeDegrees>-4.5422284305095672607421875</LongitudeDegrees>
            </Position>
            <AltitudeMeters>1327.4000244140625</AltitudeMeters>
            <DistanceMeters>NAN</DistanceMeters>
          </Trackpoint>
          <Trackpoint>
            <Time>2023-02-23T14:15:01.000Z</Time>
            <Position>
              <LatitudeDegrees>41.554600931704044342041015625</LatitudeDegrees>
              <LongitudeDegrees>-4.542225413024425506591796875</LongitudeDegrees>
            </Position>
            <AltitudeMeters>1327.4000244140625</AltitudeMeters>
            <DistanceMeters>NAN</DistanceMeters>
          </Trackpoint>
          <Trackpoint>
            <Time>2023-02-23T14:15:07.000Z</Time>
            <Position>
              <LatitudeDegrees>41.55459598638117313385009765625</LatitudeDegrees>
              <LongitudeDegrees>-4.54222164116799831390380859375</LongitudeDegrees>
            </Position>
            <AltitudeMeters>1327.4000244140625</AltitudeMeters>
            <DistanceMeters>NAN</DistanceMeters>
          </Trackpoint>
          <Trackpoint>
            <Time>2023-02-23T14:15:16.000Z</Time>
            <Position>
              <LatitudeDegrees>41.55460537411272525787353515625</LatitudeDegrees>
              <LongitudeDegrees>-4.54221711494028568267822265625</LongitudeDegrees>
            </Position>
            <AltitudeMeters>1327.4000244140625</AltitudeMeters>
            <DistanceMeters>NAN</DistanceMeters>
          </Trackpoint>
          <Trackpoint>
            <Time>2023-02-23T14:15:17.000Z</Time>
            <Position>
              <LatitudeDegrees>41.55460420064628124237060546875</LatitudeDegrees>
              <LongitudeDegrees>-4.54222147352993488311767578125</LongitudeDegrees>
            </Position>
            <AltitudeMeters>1327.4000244140625</AltitudeMeters>
            <DistanceMeters>NAN</DistanceMeters>
          </Trackpoint>
          <Trackpoint>
            <Time>2023-02-23T14:15:27.000Z</Time>
            <Position>
              <LatitudeDegrees>41.55461090616881847381591796875</LatitudeDegrees>
              <LongitudeDegrees>-4.542225413024425506591796875</LongitudeDegrees>
            </Position>
            <AltitudeMeters>1327.4000244140625</AltitudeMeters>
            <DistanceMeters>NAN</DistanceMeters>
          </Trackpoint>
          <Trackpoint>
            <Time>2023-02-23T14:15:31.000Z</Time>
            <Position>
              <LatitudeDegrees>41.55460956506431102752685546875</LatitudeDegrees>
              <LongitudeDegrees>-4.54222633503377437591552734375</LongitudeDegrees>
            </Position>
            <AltitudeMeters>1327.4000244140625</AltitudeMeters>
            <DistanceMeters>NAN</DistanceMeters>
          </Trackpoint>
          <Trackpoint>
            <Time>2023-02-23T14:15:36.000Z</Time>
            <Position>
              <LatitudeDegrees>41.554608307778835296630859375</LatitudeDegrees>
              <LongitudeDegrees>-4.5422349683940410614013671875</LongitudeDegrees>
            </Position>
            <AltitudeMeters>1327.4000244140625</AltitudeMeters>
            <DistanceMeters>NAN</DistanceMeters>
          </Trackpoint>
          <Trackpoint>
            <Time>2023-02-23T14:15:42.000Z</Time>
            <Position>
              <LatitudeDegrees>41.554634459316730499267578125</LatitudeDegrees>
              <LongitudeDegrees>-4.54222516156733036041259765625</LongitudeDegrees>
            </Position>
            <AltitudeMeters>1327.4000244140625</AltitudeMeters>
            <DistanceMeters>NAN</DistanceMeters>
          </Trackpoint>
          <Trackpoint>
            <Time>2023-02-23T14:15:49.000Z</Time>
            <Position>
              <LatitudeDegrees>41.5546368062496185302734375</LatitudeDegrees>
              <LongitudeDegrees>-4.542221389710903167724609375</LongitudeDegrees>
            </Position>
            <AltitudeMeters>1327.4000244140625</AltitudeMeters>
            <DistanceMeters>NAN</DistanceMeters>
          </Trackpoint>
          <Trackpoint>
            <Time>2023-02-23T14:15:51.000Z</Time>
            <Position>
              <LatitudeDegrees>41.5546272508800029754638671875</LatitudeDegrees>
              <LongitudeDegrees>-4.54217973165214061737060546875</LongitudeDegrees>
            </Position>
            <AltitudeMeters>1327.4000244140625</AltitudeMeters>
            <DistanceMeters>NAN</DistanceMeters>
          </Trackpoint>
          <Trackpoint>
            <Time>2023-02-23T14:15:52.000Z</Time>
            <Position>
              <LatitudeDegrees>41.55462540686130523681640625</LatitudeDegrees>
              <LongitudeDegrees>-4.54216246493160724639892578125</LongitudeDegrees>
            </Position>
            <AltitudeMeters>1327.4000244140625</AltitudeMeters>
            <DistanceMeters>NAN</DistanceMeters>
          </Trackpoint>
          <Trackpoint>
            <Time>2023-02-23T14:15:54.000Z</Time>
            <Position>
              <LatitudeDegrees>41.5546218864619731903076171875</LatitudeDegrees>
              <LongitudeDegrees>-4.54213815741240978240966796875</LongitudeDegrees>
            </Position>
            <AltitudeMeters>1327.4000244140625</AltitudeMeters>
            <DistanceMeters>NAN</DistanceMeters>
          </Trackpoint>
          <Trackpoint>
            <Time>2023-02-23T14:15:56.000Z</Time>
            <Position>
              <LatitudeDegrees>41.55462272465229034423828125</LatitudeDegrees>
              <LongitudeDegrees>-4.542124830186367034912109375</LongitudeDegrees>
            </Position>
            <AltitudeMeters>1327.4000244140625</AltitudeMeters>
            <DistanceMeters>NAN</DistanceMeters>
          </Trackpoint>
          <Trackpoint>
            <Time>2023-02-23T14:15:57.000Z</Time>
            <Position>
              <LatitudeDegrees>41.55461425893008708953857421875</LatitudeDegrees>
              <LongitudeDegrees>-4.54210714437067508697509765625</LongitudeDegrees>
            </Position>
            <AltitudeMeters>1327.4000244140625</AltitudeMeters>
            <DistanceMeters>NAN</DistanceMeters>
          </Trackpoint>
          <Trackpoint>
            <Time>2023-02-23T14:15:59.000Z</Time>
            <Position>
              <LatitudeDegrees>41.55460000969469547271728515625</LatitudeDegrees>
              <LongitudeDegrees>-4.54208401031792163848876953125</LongitudeDegrees>
            </Position>
            <AltitudeMeters>1327</AltitudeMeters>
            <DistanceMeters>NAN</DistanceMeters>
          </Trackpoint>
          <Trackpoint>
            <Time>2023-02-23T14:16:00.000Z</Time>
            <Position>
              <LatitudeDegrees>41.55459322035312652587890625</LatitudeDegrees>
              <LongitudeDegrees>-4.54207998700439929962158203125</LongitudeDegrees>
            </Position>
            <AltitudeMeters>1326.5999755859375</AltitudeMeters>
            <DistanceMeters>NAN</DistanceMeters>
          </Trackpoint>
          <Trackpoint>
            <Time>2023-02-23T14:16:01.000Z</Time>
            <Position>
              <LatitudeDegrees>41.55459053814411163330078125</LatitudeDegrees>
              <LongitudeDegrees>-4.5420840941369533538818359375</LongitudeDegrees>
            </Position>
            <AltitudeMeters>1326</AltitudeMeters>
            <DistanceMeters>NAN</DistanceMeters>
          </Trackpoint>
          <Trackpoint>
            <Time>2023-02-23T14:16:03.000Z</Time>
            <Position>
              <LatitudeDegrees>41.5545938909053802490234375</LatitudeDegrees>
              <LongitudeDegrees>-4.54210169613361358642578125</LongitudeDegrees>
            </Position>
            <AltitudeMeters>1325.5999755859375</AltitudeMeters>
            <DistanceMeters>NAN</DistanceMeters>
          </Trackpoint>
          <Trackpoint>
            <Time>2023-02-23T14:16:05.000Z</Time>
            <Position>
              <LatitudeDegrees>41.55460353009402751922607421875</LatitudeDegrees>
              <LongitudeDegrees>-4.54212776385247707366943359375</LongitudeDegrees>
            </Position>
            <AltitudeMeters>1325.5999755859375</AltitudeMeters>
            <DistanceMeters>NAN</DistanceMeters>
          </Trackpoint>
          <Trackpoint>
            <Time>2023-02-23T14:16:08.000Z</Time>
            <Position>
              <LatitudeDegrees>41.5546145103871822357177734375</LatitudeDegrees>
              <LongitudeDegrees>-4.5421640574932098388671875</LongitudeDegrees>
            </Position>
            <AltitudeMeters>1325.5999755859375</AltitudeMeters>
            <DistanceMeters>NAN</DistanceMeters>
          </Trackpoint>
          <Trackpoint>
            <Time>2023-02-23T14:16:11.000Z</Time>
            <Position>
              <LatitudeDegrees>41.55462850816547870635986328125</LatitudeDegrees>
              <LongitudeDegrees>-4.542195238173007965087890625</LongitudeDegrees>
            </Position>
            <AltitudeMeters>1325.4000244140625</AltitudeMeters>
            <DistanceMeters>NAN</DistanceMeters>
          </Trackpoint>
          <Trackpoint>
            <Time>2023-02-23T14:16:16.000Z</Time>
            <Position>
              <LatitudeDegrees>41.55464393086731433868408203125</LatitudeDegrees>
              <LongitudeDegrees>-4.54223052598536014556884765625</LongitudeDegrees>
            </Position>
            <AltitudeMeters>1325.199951171875</AltitudeMeters>
            <DistanceMeters>NAN</DistanceMeters>
          </Trackpoint>
          <Trackpoint>
            <Time>2023-02-23T14:16:17.000Z</Time>
            <Position>
              <LatitudeDegrees>41.55464393086731433868408203125</LatitudeDegrees>
              <LongitudeDegrees>-4.54222910106182098388671875</LongitudeDegrees>
            </Position>
            <AltitudeMeters>1325</AltitudeMeters>
            <DistanceMeters>NAN</DistanceMeters>
          </Trackpoint>
          <Trackpoint>
            <Time>2023-02-23T14:16:23.000Z</Time>
            <Position>
              <LatitudeDegrees>41.554647199809551239013671875</LatitudeDegrees>
              <LongitudeDegrees>-4.54223656095564365386962890625</LongitudeDegrees>
            </Position>
            <AltitudeMeters>1324.5999755859375</AltitudeMeters>
            <DistanceMeters>NAN</DistanceMeters>
          </Trackpoint>
          <Trackpoint>
            <Time>2023-02-23T14:16:24.000Z</Time>
            <Position>
              <LatitudeDegrees>41.55464795418083667755126953125</LatitudeDegrees>
              <LongitudeDegrees>-4.54223874025046825408935546875</LongitudeDegrees>
            </Position>
            <AltitudeMeters>1324.5999755859375</AltitudeMeters>
            <DistanceMeters>NAN</DistanceMeters>
          </Trackpoint>
          <Trackpoint>
            <Time>2023-02-23T14:16:26.000Z</Time>
            <Position>
              <LatitudeDegrees>41.5546475350856781005859375</LatitudeDegrees>
              <LongitudeDegrees>-4.5422376506030559539794921875</LongitudeDegrees>
            </Position>
            <AltitudeMeters>1324.5999755859375</AltitudeMeters>
            <DistanceMeters>NAN</DistanceMeters>
          </Trackpoint>
          <Trackpoint>
            <Time>2023-02-23T14:16:29.000Z</Time>
            <Position>
              <LatitudeDegrees>41.5546580962836742401123046875</LatitudeDegrees>
              <LongitudeDegrees>-4.54224796034395694732666015625</LongitudeDegrees>
            </Position>
            <AltitudeMeters>1324.800048828125</AltitudeMeters>
            <DistanceMeters>NAN</DistanceMeters>
          </Trackpoint>
          <Trackpoint>
            <Time>2023-02-23T14:16:31.000Z</Time>
            <Position>
              <LatitudeDegrees>41.55466421507298946380615234375</LatitudeDegrees>
              <LongitudeDegrees>-4.5422554202377796173095703125</LongitudeDegrees>
            </Position>
            <AltitudeMeters>1324.800048828125</AltitudeMeters>
            <DistanceMeters>NAN</DistanceMeters>
          </Trackpoint>
          <Trackpoint>
            <Time>2023-02-23T14:16:35.000Z</Time>
            <Position>
              <LatitudeDegrees>41.55465424060821533203125</LatitudeDegrees>
              <LongitudeDegrees>-4.54224410466849803924560546875</LongitudeDegrees>
            </Position>
            <AltitudeMeters>1324.5999755859375</AltitudeMeters>
            <DistanceMeters>NAN</DistanceMeters>
          </Trackpoint>
          <Trackpoint>
            <Time>2023-02-23T14:16:41.000Z</Time>
            <Position>
              <LatitudeDegrees>41.55462599359452724456787109375</LatitudeDegrees>
              <LongitudeDegrees>-4.542214684188365936279296875</LongitudeDegrees>
            </Position>
            <AltitudeMeters>1324.800048828125</AltitudeMeters>
            <DistanceMeters>NAN</DistanceMeters>
          </Trackpoint>
          <Trackpoint>
            <Time>2023-02-23T14:16:42.000Z</Time>
            <Position>
              <LatitudeDegrees>41.55463077127933502197265625</LatitudeDegrees>
              <LongitudeDegrees>-4.54221912659704685211181640625</LongitudeDegrees>
            </Position>
            <AltitudeMeters>1324.800048828125</AltitudeMeters>
            <DistanceMeters>NAN</DistanceMeters>
          </Trackpoint>
          <Trackpoint>
            <Time>2023-02-23T14:16:48.000Z</Time>
            <Position>
              <LatitudeDegrees>41.5546322800219058990478515625</LatitudeDegrees>
              <LongitudeDegrees>-4.54222348518669605255126953125</LongitudeDegrees>
            </Position>
            <AltitudeMeters>1325</AltitudeMeters>
            <DistanceMeters>NAN</DistanceMeters>
          </Trackpoint>
          <Trackpoint>
            <Time>2023-02-23T14:16:49.000Z</Time>
            <Position>
              <LatitudeDegrees>41.554637812077999114990234375</LatitudeDegrees>
              <LongitudeDegrees>-4.54222532920539379119873046875</LongitudeDegrees>
            </Position>
            <AltitudeMeters>1325</AltitudeMeters>
            <DistanceMeters>NAN</DistanceMeters>
          </Trackpoint>
          <Trackpoint>
            <Time>2023-02-23T14:16:51.000Z</Time>
            <Position>
              <LatitudeDegrees>41.55464552342891693115234375</LatitudeDegrees>
              <LongitudeDegrees>-4.54222734086215496063232421875</LongitudeDegrees>
            </Position>
            <AltitudeMeters>1325</AltitudeMeters>
            <DistanceMeters>NAN</DistanceMeters>
          </Trackpoint>
          <Trackpoint>
            <Time>2023-02-23T14:16:54.000Z</Time>
            <Position>
              <LatitudeDegrees>41.55464560724794864654541015625</LatitudeDegrees>
              <LongitudeDegrees>-4.54223119653761386871337890625</LongitudeDegrees>
            </Position>
            <AltitudeMeters>1325</AltitudeMeters>
            <DistanceMeters>NAN</DistanceMeters>
          </Trackpoint>
          <Trackpoint>
            <Time>2023-02-23T14:16:58.000Z</Time>
            <Position>
              <LatitudeDegrees>41.55462834052741527557373046875</LatitudeDegrees>
              <LongitudeDegrees>-4.54221166670322418212890625</LongitudeDegrees>
            </Position>
            <AltitudeMeters>1324.800048828125</AltitudeMeters>
            <DistanceMeters>NAN</DistanceMeters>
          </Trackpoint>
          <Trackpoint>
            <Time>2023-02-23T14:16:59.000Z</Time>
            <Position>
              <LatitudeDegrees>41.5546212159097194671630859375</LatitudeDegrees>
              <LongitudeDegrees>-4.54220764338970184326171875</LongitudeDegrees>
            </Position>
            <AltitudeMeters>1324.800048828125</AltitudeMeters>
            <DistanceMeters>NAN</DistanceMeters>
          </Trackpoint>
          <Trackpoint>
            <Time>2023-02-23T14:17:01.000Z</Time>
            <Position>
              <LatitudeDegrees>41.5546101517975330352783203125</LatitudeDegrees>
              <LongitudeDegrees>-4.542221724987030029296875</LongitudeDegrees>
            </Position>
            <AltitudeMeters>1324.800048828125</AltitudeMeters>
            <DistanceMeters>NAN</DistanceMeters>
          </Trackpoint>
          <Trackpoint>
            <Time>2023-02-23T14:17:02.000Z</Time>
            <Position>
              <LatitudeDegrees>41.55460939742624759674072265625</LatitudeDegrees>
              <LongitudeDegrees>-4.54223840497434139251708984375</LongitudeDegrees>
            </Position>
            <AltitudeMeters>1324.800048828125</AltitudeMeters>
            <DistanceMeters>NAN</DistanceMeters>
          </Trackpoint>
          <Trackpoint>
            <Time>2023-02-23T14:17:04.000Z</Time>
            <Position>
              <LatitudeDegrees>41.554605960845947265625</LatitudeDegrees>
              <LongitudeDegrees>-4.542264305055141448974609375</LongitudeDegrees>
            </Position>
            <AltitudeMeters>1324.800048828125</AltitudeMeters>
            <DistanceMeters>NAN</DistanceMeters>
          </Trackpoint>
          <Trackpoint>
            <Time>2023-02-23T14:17:05.000Z</Time>
            <Position>
              <LatitudeDegrees>41.55460353009402751922607421875</LatitudeDegrees>
              <LongitudeDegrees>-4.54228098504245281219482421875</LongitudeDegrees>
            </Position>
            <AltitudeMeters>1324.800048828125</AltitudeMeters>
            <DistanceMeters>NAN</DistanceMeters>
          </Trackpoint>
          <Trackpoint>
            <Time>2023-02-23T14:17:10.000Z</Time>
            <Position>
              <LatitudeDegrees>41.5546222217381000518798828125</LatitudeDegrees>
              <LongitudeDegrees>-4.54236455261707305908203125</LongitudeDegrees>
            </Position>
            <AltitudeMeters>1324.4000244140625</AltitudeMeters>
            <DistanceMeters>NAN</DistanceMeters>
          </Trackpoint>
          <Trackpoint>
            <Time>2023-02-23T14:17:11.000Z</Time>
            <Position>
              <LatitudeDegrees>41.554633118212223052978515625</LatitudeDegrees>
              <LongitudeDegrees>-4.54238559119403362274169921875</LongitudeDegrees>
            </Position>
            <AltitudeMeters>1324.199951171875</AltitudeMeters>
            <DistanceMeters>NAN</DistanceMeters>
          </Trackpoint>
          <Trackpoint>
            <Time>2023-02-23T14:17:16.000Z</Time>
            <Position>
              <LatitudeDegrees>41.55469958670437335968017578125</LatitudeDegrees>
              <LongitudeDegrees>-4.54247049987316131591796875</LongitudeDegrees>
            </Position>
            <AltitudeMeters>1323.5999755859375</AltitudeMeters>
            <DistanceMeters>NAN</DistanceMeters>
          </Trackpoint>
          <Trackpoint>
            <Time>2023-02-23T14:17:18.000Z</Time>
            <Position>
              <LatitudeDegrees>41.55472506769001483917236328125</LatitudeDegrees>
              <LongitudeDegrees>-4.54249195754528045654296875</LongitudeDegrees>
            </Position>
            <AltitudeMeters>1323.5999755859375</AltitudeMeters>
            <DistanceMeters>NAN</DistanceMeters>
          </Trackpoint>
          <Trackpoint>
            <Time>2023-02-23T14:17:21.000Z</Time>
            <Position>
              <LatitudeDegrees>41.55478097498416900634765625</LatitudeDegrees>
              <LongitudeDegrees>-4.54254736192524433135986328125</LongitudeDegrees>
            </Position>
            <AltitudeMeters>1323.4000244140625</AltitudeMeters>
            <DistanceMeters>NAN</DistanceMeters>
          </Trackpoint>
          <Trackpoint>
            <Time>2023-02-23T14:17:23.000Z</Time>
            <Position>
              <LatitudeDegrees>41.55482347123324871063232421875</LatitudeDegrees>
              <LongitudeDegrees>-4.54258742742240428924560546875</LongitudeDegrees>
            </Position>
            <AltitudeMeters>1323</AltitudeMeters>
            <DistanceMeters>NAN</DistanceMeters>
          </Trackpoint>
          <Trackpoint>
            <Time>2023-02-23T14:17:24.000Z</Time>
            <Position>
              <LatitudeDegrees>41.554845012724399566650390625</LatitudeDegrees>
              <LongitudeDegrees>-4.5426031015813350677490234375</LongitudeDegrees>
            </Position>
            <AltitudeMeters>1322.199951171875</AltitudeMeters>
            <DistanceMeters>NAN</DistanceMeters>
          </Trackpoint>
          <Trackpoint>
            <Time>2023-02-23T14:17:29.000Z</Time>
            <Position>
              <LatitudeDegrees>41.5549828112125396728515625</LatitudeDegrees>
              <LongitudeDegrees>-4.54267275519669055938720703125</LongitudeDegrees>
            </Position>
            <AltitudeMeters>1322.5999755859375</AltitudeMeters>
            <DistanceMeters>NAN</DistanceMeters>
          </Trackpoint>
          <Trackpoint>
            <Time>2023-02-23T14:17:31.000Z</Time>
            <Position>
              <LatitudeDegrees>41.55504047870635986328125</LatitudeDegrees>
              <LongitudeDegrees>-4.54270443879067897796630859375</LongitudeDegrees>
            </Position>
            <AltitudeMeters>1323.5999755859375</AltitudeMeters>
            <DistanceMeters>NAN</DistanceMeters>
          </Trackpoint>
          <Trackpoint>
            <Time>2023-02-23T14:17:33.000Z</Time>
            <Position>
              <LatitudeDegrees>41.55509605072438716888427734375</LatitudeDegrees>
              <LongitudeDegrees>-4.5427348650991916656494140625</LongitudeDegrees>
            </Position>
            <AltitudeMeters>1323.5999755859375</AltitudeMeters>
            <DistanceMeters>NAN</DistanceMeters>
          </Trackpoint>
          <Trackpoint>
            <Time>2023-02-23T14:17:34.000Z</Time>
            <Position>
              <LatitudeDegrees>41.5551237948238849639892578125</LatitudeDegrees>
              <LongitudeDegrees>-4.5427512936294078826904296875</LongitudeDegrees>
            </Position>
            <AltitudeMeters>1323.800048828125</AltitudeMeters>
            <DistanceMeters>NAN</DistanceMeters>
          </Trackpoint>
          <Trackpoint>
            <Time>2023-02-23T14:17:35.000Z</Time>
            <Position>
              <LatitudeDegrees>41.5551509521901607513427734375</LatitudeDegrees>
              <LongitudeDegrees>-4.5427677221596240997314453125</LongitudeDegrees>
            </Position>
            <AltitudeMeters>1323.5999755859375</AltitudeMeters>
            <DistanceMeters>NAN</DistanceMeters>
          </Trackpoint>
          <Trackpoint>
            <Time>2023-02-23T14:17:36.000Z</Time>
            <Position>
              <LatitudeDegrees>41.55518104322254657745361328125</LatitudeDegrees>
              <LongitudeDegrees>-4.54278440214693546295166015625</LongitudeDegrees>
            </Position>
            <AltitudeMeters>1323.5999755859375</AltitudeMeters>
            <DistanceMeters>NAN</DistanceMeters>
          </Trackpoint>
          <Trackpoint>
            <Time>2023-02-23T14:17:38.000Z</Time>
            <Position>
              <LatitudeDegrees>41.555236615240573883056640625</LatitudeDegrees>
              <LongitudeDegrees>-4.54281876794993877410888671875</LongitudeDegrees>
            </Position>
            <AltitudeMeters>1323.4000244140625</AltitudeMeters>
            <DistanceMeters>NAN</DistanceMeters>
          </Trackpoint>
          <Trackpoint>
            <Time>2023-02-23T14:17:41.000Z</Time>
            <Position>
              <LatitudeDegrees>41.55531599186360836029052734375</LatitudeDegrees>
              <LongitudeDegrees>-4.54286344349384307861328125</LongitudeDegrees>
            </Position>
            <AltitudeMeters>1323.199951171875</AltitudeMeters>
            <DistanceMeters>NAN</DistanceMeters>
          </Trackpoint>
          <Trackpoint>
            <Time>2023-02-23T14:17:47.000Z</Time>
            <Position>
              <LatitudeDegrees>41.5554882399737834930419921875</LatitudeDegrees>
              <LongitudeDegrees>-4.54295740462839603424072265625</LongitudeDegrees>
            </Position>
            <AltitudeMeters>1324</AltitudeMeters>
            <DistanceMeters>NAN</DistanceMeters>
          </Trackpoint>
          <Trackpoint>
            <Time>2023-02-23T14:17:49.000Z</Time>
            <Position>
              <LatitudeDegrees>41.55554297380149364471435546875</LatitudeDegrees>
              <LongitudeDegrees>-4.5429930277168750762939453125</LongitudeDegrees>
            </Position>
            <AltitudeMeters>1323.800048828125</AltitudeMeters>
            <DistanceMeters>NAN</DistanceMeters>
          </Trackpoint>
          <Trackpoint>
            <Time>2023-02-23T14:17:51.000Z</Time>
            <Position>
              <LatitudeDegrees>41.5556025691330432891845703125</LatitudeDegrees>
              <LongitudeDegrees>-4.5430304110050201416015625</LongitudeDegrees>
            </Position>
            <AltitudeMeters>1323.800048828125</AltitudeMeters>
            <DistanceMeters>NAN</DistanceMeters>
          </Trackpoint>
          <Trackpoint>
            <Time>2023-02-23T14:17:52.000Z</Time>
            <Position>
              <LatitudeDegrees>41.555629558861255645751953125</LatitudeDegrees>
              <LongitudeDegrees>-4.54304541461169719696044921875</LongitudeDegrees>
            </Position>
            <AltitudeMeters>1323.800048828125</AltitudeMeters>
            <DistanceMeters>NAN</DistanceMeters>
          </Trackpoint>
          <Trackpoint>
            <Time>2023-02-23T14:17:57.000Z</Time>
            <Position>
              <LatitudeDegrees>41.555775739252567291259765625</LatitudeDegrees>
              <LongitudeDegrees>-4.54312688671052455902099609375</LongitudeDegrees>
            </Position>
            <AltitudeMeters>1323.4000244140625</AltitudeMeters>
            <DistanceMeters>NAN</DistanceMeters>
          </Trackpoint>
          <Trackpoint>
            <Time>2023-02-23T14:18:04.000Z</Time>
            <Position>
              <LatitudeDegrees>41.55599911697208881378173828125</LatitudeDegrees>
              <LongitudeDegrees>-4.54322931356728076934814453125</LongitudeDegrees>
            </Position>
            <AltitudeMeters>1324.199951171875</AltitudeMeters>
            <DistanceMeters>NAN</DistanceMeters>
          </Trackpoint>
          <Trackpoint>
            <Time>2023-02-23T14:18:06.000Z</Time>
            <Position>
              <LatitudeDegrees>41.55605946667492389678955078125</LatitudeDegrees>
              <LongitudeDegrees>-4.54326384700834751129150390625</LongitudeDegrees>
            </Position>
            <AltitudeMeters>1324.199951171875</AltitudeMeters>
            <DistanceMeters>NAN</DistanceMeters>
          </Trackpoint>
          <Trackpoint>
            <Time>2023-02-23T14:18:12.000Z</Time>
            <Position>
              <LatitudeDegrees>41.55624009668827056884765625</LatitudeDegrees>
              <LongitudeDegrees>-4.54338052310049533843994140625</LongitudeDegrees>
            </Position>
            <AltitudeMeters>1323.199951171875</AltitudeMeters>
            <DistanceMeters>NAN</DistanceMeters>
          </Trackpoint>
          <Trackpoint>
            <Time>2023-02-23T14:18:16.000Z</Time>
            <Position>
              <LatitudeDegrees>41.55634746886789798736572265625</LatitudeDegrees>
              <LongitudeDegrees>-4.5434810221195220947265625</LongitudeDegrees>
            </Position>
            <AltitudeMeters>1322.800048828125</AltitudeMeters>
            <DistanceMeters>NAN</DistanceMeters>
          </Trackpoint>
          <Trackpoint>
            <Time>2023-02-23T14:18:20.000Z</Time>
            <Position>
              <LatitudeDegrees>41.55644956044852733612060546875</LatitudeDegrees>
              <LongitudeDegrees>-4.54358655028045177459716796875</LongitudeDegrees>
            </Position>
            <AltitudeMeters>1322.800048828125</AltitudeMeters>
            <DistanceMeters>NAN</DistanceMeters>
          </Trackpoint>
          <Trackpoint>
            <Time>2023-02-23T14:18:28.000Z</Time>
            <Position>
              <LatitudeDegrees>41.5566462837159633636474609375</LatitudeDegrees>
              <LongitudeDegrees>-4.54379014670848846435546875</LongitudeDegrees>
            </Position>
            <AltitudeMeters>1323.4000244140625</AltitudeMeters>
            <DistanceMeters>NAN</DistanceMeters>
          </Trackpoint>
          <Trackpoint>
            <Time>2023-02-23T14:18:35.000Z</Time>
            <Position>
              <LatitudeDegrees>41.55681232921779155731201171875</LatitudeDegrees>
              <LongitudeDegrees>-4.54397949390113353729248046875</LongitudeDegrees>
            </Position>
            <AltitudeMeters>1324</AltitudeMeters>
            <DistanceMeters>NAN</DistanceMeters>
          </Trackpoint>
          <Trackpoint>
            <Time>2023-02-23T14:18:36.000Z</Time>
            <Position>
              <LatitudeDegrees>41.55683688819408416748046875</LatitudeDegrees>
              <LongitudeDegrees>-4.54400246031582355499267578125</LongitudeDegrees>
            </Position>
            <AltitudeMeters>1324.199951171875</AltitudeMeters>
            <DistanceMeters>NAN</DistanceMeters>
          </Trackpoint>
          <Trackpoint>
            <Time>2023-02-23T14:18:38.000Z</Time>
            <Position>
              <LatitudeDegrees>41.55688709579408168792724609375</LatitudeDegrees>
              <LongitudeDegrees>-4.54404420219361782073974609375</LongitudeDegrees>
            </Position>
            <AltitudeMeters>1323.800048828125</AltitudeMeters>
            <DistanceMeters>NAN</DistanceMeters>
          </Trackpoint>
          <Trackpoint>
            <Time>2023-02-23T14:18:39.000Z</Time>
            <Position>
              <LatitudeDegrees>41.5569111518561840057373046875</LatitudeDegrees>
              <LongitudeDegrees>-4.54406666569411754608154296875</LongitudeDegrees>
            </Position>
            <AltitudeMeters>1323.800048828125</AltitudeMeters>
            <DistanceMeters>NAN</DistanceMeters>
          </Trackpoint>
          <Trackpoint>
            <Time>2023-02-23T14:18:44.000Z</Time>
            <Position>
              <LatitudeDegrees>41.5570402331650257110595703125</LatitudeDegrees>
              <LongitudeDegrees>-4.54415224492549896240234375</LongitudeDegrees>
            </Position>
            <AltitudeMeters>1324</AltitudeMeters>
            <DistanceMeters>NAN</DistanceMeters>
          </Trackpoint>
          <Trackpoint>
            <Time>2023-02-23T14:18:46.000Z</Time>
            <Position>
              <LatitudeDegrees>41.55709295533597469329833984375</LatitudeDegrees>
              <LongitudeDegrees>-4.54418602399528026580810546875</LongitudeDegrees>
            </Position>
            <AltitudeMeters>1324.5999755859375</AltitudeMeters>
            <DistanceMeters>NAN</DistanceMeters>
          </Trackpoint>
          <Trackpoint>
            <Time>2023-02-23T14:18:51.000Z</Time>
            <Position>
              <LatitudeDegrees>41.557231843471527099609375</LatitudeDegrees>
              <LongitudeDegrees>-4.54426984302699565887451171875</LongitudeDegrees>
            </Position>
            <AltitudeMeters>1324.800048828125</AltitudeMeters>
            <DistanceMeters>NAN</DistanceMeters>
          </Trackpoint>
          <Trackpoint>
            <Time>2023-02-23T14:18:56.000Z</Time>
            <Position>
              <LatitudeDegrees>41.55737190507352352142333984375</LatitudeDegrees>
              <LongitudeDegrees>-4.54438635148108005523681640625</LongitudeDegrees>
            </Position>
            <AltitudeMeters>1324.5999755859375</AltitudeMeters>
            <DistanceMeters>NAN</DistanceMeters>
          </Trackpoint>
          <Trackpoint>
            <Time>2023-02-23T14:18:58.000Z</Time>
            <Position>
              <LatitudeDegrees>41.5574217773973941802978515625</LatitudeDegrees>
              <LongitudeDegrees>-4.54443546943366527557373046875</LongitudeDegrees>
            </Position>
            <AltitudeMeters>1324.4000244140625</AltitudeMeters>
            <DistanceMeters>NAN</DistanceMeters>
          </Trackpoint>
          <Trackpoint>
            <Time>2023-02-23T14:19:06.000Z</Time>
            <Position>
              <LatitudeDegrees>41.55763082206249237060546875</LatitudeDegrees>
              <LongitudeDegrees>-4.5446727611124515533447265625</LongitudeDegrees>
            </Position>
            <AltitudeMeters>1324.199951171875</AltitudeMeters>
            <DistanceMeters>NAN</DistanceMeters>
          </Trackpoint>
          <Trackpoint>
            <Time>2023-02-23T14:19:08.000Z</Time>
            <Position>
              <LatitudeDegrees>41.55767717398703098297119140625</LatitudeDegrees>
              <LongitudeDegrees>-4.5447307638823986053466796875</LongitudeDegrees>
            </Position>
            <AltitudeMeters>1324</AltitudeMeters>
            <DistanceMeters>NAN</DistanceMeters>
          </Trackpoint>
          <Trackpoint>
            <Time>2023-02-23T14:19:15.000Z</Time>
            <Position>
              <LatitudeDegrees>41.5578254498541355133056640625</LatitudeDegrees>
              <LongitudeDegrees>-4.544926397502422332763671875</LongitudeDegrees>
            </Position>
            <AltitudeMeters>1325</AltitudeMeters>
            <DistanceMeters>NAN</DistanceMeters>
          </Trackpoint>
          <Trackpoint>
            <Time>2023-02-23T14:19:22.000Z</Time>
            <Position>
              <LatitudeDegrees>41.5580031462013721466064453125</LatitudeDegrees>
              <LongitudeDegrees>-4.5450663752853870391845703125</LongitudeDegrees>
            </Position>
            <AltitudeMeters>1324.199951171875</AltitudeMeters>
            <DistanceMeters>NAN</DistanceMeters>
          </Trackpoint>
          <Trackpoint>
            <Time>2023-02-23T14:19:23.000Z</Time>
            <Position>
              <LatitudeDegrees>41.55802854336798191070556640625</LatitudeDegrees>
              <LongitudeDegrees>-4.54508473165333271026611328125</LongitudeDegrees>
            </Position>
            <AltitudeMeters>1324.4000244140625</AltitudeMeters>
            <DistanceMeters>NAN</DistanceMeters>
          </Trackpoint>
          <Trackpoint>
            <Time>2023-02-23T14:19:26.000Z</Time>
            <Position>
              <LatitudeDegrees>41.5581017173826694488525390625</LatitudeDegrees>
              <LongitudeDegrees>-4.54514927230775356292724609375</LongitudeDegrees>
            </Position>
            <AltitudeMeters>1324.4000244140625</AltitudeMeters>
            <DistanceMeters>NAN</DistanceMeters>
          </Trackpoint>
          <Trackpoint>
            <Time>2023-02-23T14:19:32.000Z</Time>
            <Position>
              <LatitudeDegrees>41.55825200490653514862060546875</LatitudeDegrees>
              <LongitudeDegrees>-4.54529444687068462371826171875</LongitudeDegrees>
            </Position>
            <AltitudeMeters>1325.199951171875</AltitudeMeters>
            <DistanceMeters>NAN</DistanceMeters>
          </Trackpoint>
          <Trackpoint>
            <Time>2023-02-23T14:19:39.000Z</Time>
            <Position>
              <LatitudeDegrees>41.55844512395560741424560546875</LatitudeDegrees>
              <LongitudeDegrees>-4.54544364474713802337646484375</LongitudeDegrees>
            </Position>
            <AltitudeMeters>1325.4000244140625</AltitudeMeters>
            <DistanceMeters>NAN</DistanceMeters>
          </Trackpoint>
          <Trackpoint>
            <Time>2023-02-23T14:19:46.000Z</Time>
            <Position>
              <LatitudeDegrees>41.55864545144140720367431640625</LatitudeDegrees>
              <LongitudeDegrees>-4.54554690979421138763427734375</LongitudeDegrees>
            </Position>
            <AltitudeMeters>1325</AltitudeMeters>
            <DistanceMeters>NAN</DistanceMeters>
          </Trackpoint>
          <Trackpoint>
            <Time>2023-02-23T14:19:55.000Z</Time>
            <Position>
              <LatitudeDegrees>41.55892364680767059326171875</LatitudeDegrees>
              <LongitudeDegrees>-4.545630477368831634521484375</LongitudeDegrees>
            </Position>
            <AltitudeMeters>1325.199951171875</AltitudeMeters>
            <DistanceMeters>NAN</DistanceMeters>
          </Trackpoint>
          <Trackpoint>
            <Time>2023-02-23T14:19:57.000Z</Time>
            <Position>
              <LatitudeDegrees>41.5589848347008228302001953125</LatitudeDegrees>
              <LongitudeDegrees>-4.5456574670970439910888671875</LongitudeDegrees>
            </Position>
            <AltitudeMeters>1325.199951171875</AltitudeMeters>
            <DistanceMeters>NAN</DistanceMeters>
          </Trackpoint>
          <Trackpoint>
            <Time>2023-02-23T14:19:59.000Z</Time>
            <Position>
              <LatitudeDegrees>41.5590418316423892974853515625</LatitudeDegrees>
              <LongitudeDegrees>-4.54568034969270229339599609375</LongitudeDegrees>
            </Position>
            <AltitudeMeters>1325.4000244140625</AltitudeMeters>
            <DistanceMeters>NAN</DistanceMeters>
          </Trackpoint>
          <Trackpoint>
            <Time>2023-02-23T14:20:03.000Z</Time>
            <Position>
              <LatitudeDegrees>41.5591564960777759552001953125</LatitudeDegrees>
              <LongitudeDegrees>-4.54573248513042926788330078125</LongitudeDegrees>
            </Position>
            <AltitudeMeters>1325.4000244140625</AltitudeMeters>
            <DistanceMeters>NAN</DistanceMeters>
          </Trackpoint>
          <Trackpoint>
            <Time>2023-02-23T14:20:04.000Z</Time>
            <Position>
              <LatitudeDegrees>41.55918675474822521209716796875</LatitudeDegrees>
              <LongitudeDegrees>-4.54574606381356716156005859375</LongitudeDegrees>
            </Position>
            <AltitudeMeters>1325.199951171875</AltitudeMeters>
            <DistanceMeters>NAN</DistanceMeters>
          </Trackpoint>
          <Trackpoint>
            <Time>2023-02-23T14:20:08.000Z</Time>
            <Position>
              <LatitudeDegrees>41.5593060292303562164306640625</LatitudeDegrees>
              <LongitudeDegrees>-4.54580775462090969085693359375</LongitudeDegrees>
            </Position>
            <AltitudeMeters>1325.4000244140625</AltitudeMeters>
            <DistanceMeters>NAN</DistanceMeters>
          </Trackpoint>
          <Trackpoint>
            <Time>2023-02-23T14:20:09.000Z</Time>
            <Position>
              <LatitudeDegrees>41.5593368746340274810791015625</LatitudeDegrees>
              <LongitudeDegrees>-4.5458133704960346221923828125</LongitudeDegrees>
            </Position>
            <AltitudeMeters>1325.5999755859375</AltitudeMeters>
            <DistanceMeters>NAN</DistanceMeters>
          </Trackpoint>
          <Trackpoint>
            <Time>2023-02-23T14:20:10.000Z</Time>
            <Position>
              <LatitudeDegrees>41.55936696566641330718994140625</LatitudeDegrees>
              <LongitudeDegrees>-4.5458204112946987152099609375</LongitudeDegrees>
            </Position>
            <AltitudeMeters>1325.800048828125</AltitudeMeters>
            <DistanceMeters>NAN</DistanceMeters>
          </Trackpoint>
          <Trackpoint>
            <Time>2023-02-23T14:20:16.000Z</Time>
            <Position>
              <LatitudeDegrees>41.559560000896453857421875</LatitudeDegrees>
              <LongitudeDegrees>-4.54582502134144306182861328125</LongitudeDegrees>
            </Position>
            <AltitudeMeters>1326</AltitudeMeters>
            <DistanceMeters>NAN</DistanceMeters>
          </Trackpoint>
          <Trackpoint>
            <Time>2023-02-23T14:20:24.000Z</Time>
            <Position>
              <LatitudeDegrees>41.55981506220996379852294921875</LatitudeDegrees>
              <LongitudeDegrees>-4.545826613903045654296875</LongitudeDegrees>
            </Position>
            <AltitudeMeters>1326.5999755859375</AltitudeMeters>
            <DistanceMeters>NAN</DistanceMeters>
          </Trackpoint>
          <Trackpoint>
            <Time>2023-02-23T14:20:29.000Z</Time>
            <Position>
              <LatitudeDegrees>41.55997213907539844512939453125</LatitudeDegrees>
              <LongitudeDegrees>-4.54587581567466259002685546875</LongitudeDegrees>
            </Position>
            <AltitudeMeters>1325.800048828125</AltitudeMeters>
            <DistanceMeters>NAN</DistanceMeters>
          </Trackpoint>
          <Trackpoint>
            <Time>2023-02-23T14:20:32.000Z</Time>
            <Position>
              <LatitudeDegrees>41.56007037498056888580322265625</LatitudeDegrees>
              <LongitudeDegrees>-4.5458965189754962921142578125</LongitudeDegrees>
            </Position>
            <AltitudeMeters>1326</AltitudeMeters>
            <DistanceMeters>NAN</DistanceMeters>
          </Trackpoint>
          <Trackpoint>
            <Time>2023-02-23T14:20:35.000Z</Time>
            <Position>
              <LatitudeDegrees>41.560169868171215057373046875</LatitudeDegrees>
              <LongitudeDegrees>-4.5459095947444438934326171875</LongitudeDegrees>
            </Position>
            <AltitudeMeters>1325.4000244140625</AltitudeMeters>
            <DistanceMeters>NAN</DistanceMeters>
          </Trackpoint>
          <Trackpoint>
            <Time>2023-02-23T14:20:39.000Z</Time>
            <Position>
              <LatitudeDegrees>41.560301966965198516845703125</LatitudeDegrees>
              <LongitudeDegrees>-4.545935578644275665283203125</LongitudeDegrees>
            </Position>
            <AltitudeMeters>1325.199951171875</AltitudeMeters>
            <DistanceMeters>NAN</DistanceMeters>
          </Trackpoint>
          <Trackpoint>
            <Time>2023-02-23T14:20:47.000Z</Time>
            <Position>
              <LatitudeDegrees>41.56056524254381656646728515625</LatitudeDegrees>
              <LongitudeDegrees>-4.54597673378884792327880859375</LongitudeDegrees>
            </Position>
            <AltitudeMeters>1325</AltitudeMeters>
            <DistanceMeters>NAN</DistanceMeters>
          </Trackpoint>
          <Trackpoint>
            <Time>2023-02-23T14:20:55.000Z</Time>
            <Position>
              <LatitudeDegrees>41.5608187951147556304931640625</LatitudeDegrees>
              <LongitudeDegrees>-4.5460463874042034149169921875</LongitudeDegrees>
            </Position>
            <AltitudeMeters>1325.5999755859375</AltitudeMeters>
            <DistanceMeters>NAN</DistanceMeters>
          </Trackpoint>
          <Trackpoint>
            <Time>2023-02-23T14:20:58.000Z</Time>
            <Position>
              <LatitudeDegrees>41.560920216143131256103515625</LatitudeDegrees>
              <LongitudeDegrees>-4.5460752211511135101318359375</LongitudeDegrees>
            </Position>
            <AltitudeMeters>1325</AltitudeMeters>
            <DistanceMeters>NAN</DistanceMeters>
          </Trackpoint>
          <Trackpoint>
            <Time>2023-02-23T14:21:01.000Z</Time>
            <Position>
              <LatitudeDegrees>41.5610176138579845428466796875</LatitudeDegrees>
              <LongitudeDegrees>-4.54610145650804042816162109375</LongitudeDegrees>
            </Position>
            <AltitudeMeters>1324.800048828125</AltitudeMeters>
            <DistanceMeters>NAN</DistanceMeters>
          </Trackpoint>
          <Trackpoint>
            <Time>2023-02-23T14:21:02.000Z</Time>
            <Position>
              <LatitudeDegrees>41.5610511414706707000732421875</LatitudeDegrees>
              <LongitudeDegrees>-4.54611436463892459869384765625</LongitudeDegrees>
            </Position>
            <AltitudeMeters>1324.800048828125</AltitudeMeters>
            <DistanceMeters>NAN</DistanceMeters>
          </Trackpoint>
          <Trackpoint>
            <Time>2023-02-23T14:21:07.000Z</Time>
            <Position>
              <LatitudeDegrees>41.56120360828936100006103515625</LatitudeDegrees>
              <LongitudeDegrees>-4.54618728719651699066162109375</LongitudeDegrees>
            </Position>
            <AltitudeMeters>1325.5999755859375</AltitudeMeters>
            <DistanceMeters>NAN</DistanceMeters>
          </Trackpoint>
          <Trackpoint>
            <Time>2023-02-23T14:21:11.000Z</Time>
            <Position>
              <LatitudeDegrees>41.5613289177417755126953125</LatitudeDegrees>
              <LongitudeDegrees>-4.5462519116699695587158203125</LongitudeDegrees>
            </Position>
            <AltitudeMeters>1325.199951171875</AltitudeMeters>
            <DistanceMeters>NAN</DistanceMeters>
          </Trackpoint>
          <Trackpoint>
            <Time>2023-02-23T14:21:14.000Z</Time>
            <Position>
              <LatitudeDegrees>41.5614118985831737518310546875</LatitudeDegrees>
              <LongitudeDegrees>-4.546301700174808502197265625</LongitudeDegrees>
            </Position>
            <AltitudeMeters>1325</AltitudeMeters>
            <DistanceMeters>NAN</DistanceMeters>
          </Trackpoint>
          <Trackpoint>
            <Time>2023-02-23T14:21:19.000Z</Time>
            <Position>
              <LatitudeDegrees>41.56154072843492031097412109375</LatitudeDegrees>
              <LongitudeDegrees>-4.54640706069767475128173828125</LongitudeDegrees>
            </Position>
            <AltitudeMeters>1324.5999755859375</AltitudeMeters>
            <DistanceMeters>NAN</DistanceMeters>
          </Trackpoint>
          <Trackpoint>
            <Time>2023-02-23T14:21:22.000Z</Time>
            <Position>
              <LatitudeDegrees>41.561624296009540557861328125</LatitudeDegrees>
              <LongitudeDegrees>-4.54648266546428203582763671875</LongitudeDegrees>
            </Position>
            <AltitudeMeters>1324.199951171875</AltitudeMeters>
            <DistanceMeters>NAN</DistanceMeters>
          </Trackpoint>
          <Trackpoint>
            <Time>2023-02-23T14:21:24.000Z</Time>
            <Position>
              <LatitudeDegrees>41.561677940189838409423828125</LatitudeDegrees>
              <LongitudeDegrees>-4.5465355552732944488525390625</LongitudeDegrees>
            </Position>
            <AltitudeMeters>1323.4000244140625</AltitudeMeters>
            <DistanceMeters>NAN</DistanceMeters>
          </Trackpoint>
          <Trackpoint>
            <Time>2023-02-23T14:21:31.000Z</Time>
            <Position>
              <LatitudeDegrees>41.56185873784124851226806640625</LatitudeDegrees>
              <LongitudeDegrees>-4.54672515392303466796875</LongitudeDegrees>
            </Position>
            <AltitudeMeters>1324</AltitudeMeters>
            <DistanceMeters>NAN</DistanceMeters>
          </Trackpoint>
          <Trackpoint>
            <Time>2023-02-23T14:21:39.000Z</Time>
            <Position>
              <LatitudeDegrees>41.562066189944744110107421875</LatitudeDegrees>
              <LongitudeDegrees>-4.546917937695980072021484375</LongitudeDegrees>
            </Position>
            <AltitudeMeters>1324</AltitudeMeters>
            <DistanceMeters>NAN</DistanceMeters>
          </Trackpoint>
          <Trackpoint>
            <Time>2023-02-23T14:21:45.000Z</Time>
            <Position>
              <LatitudeDegrees>41.56224011443555355072021484375</LatitudeDegrees>
              <LongitudeDegrees>-4.5470575802028179168701171875</LongitudeDegrees>
            </Position>
            <AltitudeMeters>1323.800048828125</AltitudeMeters>
            <DistanceMeters>NAN</DistanceMeters>
          </Trackpoint>
          <Trackpoint>
            <Time>2023-02-23T14:21:47.000Z</Time>
            <Position>
              <LatitudeDegrees>41.56229862011969089508056640625</LatitudeDegrees>
              <LongitudeDegrees>-4.54707660712301731109619140625</LongitudeDegrees>
            </Position>
            <AltitudeMeters>1324.5999755859375</AltitudeMeters>
            <DistanceMeters>NAN</DistanceMeters>
          </Trackpoint>
          <Trackpoint>
            <Time>2023-02-23T14:21:52.000Z</Time>
            <Position>
              <LatitudeDegrees>41.562402807176113128662109375</LatitudeDegrees>
              <LongitudeDegrees>-4.54714332707226276397705078125</LongitudeDegrees>
            </Position>
            <AltitudeMeters>1325.199951171875</AltitudeMeters>
            <DistanceMeters>NAN</DistanceMeters>
          </Trackpoint>
          <Trackpoint>
            <Time>2023-02-23T14:21:57.000Z</Time>
            <Position>
              <LatitudeDegrees>41.56245418824255466461181640625</LatitudeDegrees>
              <LongitudeDegrees>-4.54718691296875476837158203125</LongitudeDegrees>
            </Position>
            <AltitudeMeters>1325.800048828125</AltitudeMeters>
            <DistanceMeters>NAN</DistanceMeters>
          </Trackpoint>
          <Trackpoint>
            <Time>2023-02-23T14:22:02.000Z</Time>
            <Position>
              <LatitudeDegrees>41.56248067505657672882080078125</LatitudeDegrees>
              <LongitudeDegrees>-4.54719831235706806182861328125</LongitudeDegrees>
            </Position>
            <AltitudeMeters>1326</AltitudeMeters>
            <DistanceMeters>NAN</DistanceMeters>
          </Trackpoint>
          <Trackpoint>
            <Time>2023-02-23T14:22:08.000Z</Time>
            <Position>
              <LatitudeDegrees>41.5625022165477275848388671875</LatitudeDegrees>
              <LongitudeDegrees>-4.54723267816007137298583984375</LongitudeDegrees>
            </Position>
            <AltitudeMeters>1326</AltitudeMeters>
            <DistanceMeters>NAN</DistanceMeters>
          </Trackpoint>
          <Trackpoint>
            <Time>2023-02-23T14:22:16.000Z</Time>
            <Position>
              <LatitudeDegrees>41.56250774860382080078125</LatitudeDegrees>
              <LongitudeDegrees>-4.54725690186023712158203125</LongitudeDegrees>
            </Position>
            <AltitudeMeters>1325.800048828125</AltitudeMeters>
            <DistanceMeters>NAN</DistanceMeters>
          </Trackpoint>
          <Trackpoint>
            <Time>2023-02-23T14:22:18.000Z</Time>
            <Position>
              <LatitudeDegrees>41.56251001171767711639404296875</LatitudeDegrees>
              <LongitudeDegrees>-4.54726100899279117584228515625</LongitudeDegrees>
            </Position>
            <AltitudeMeters>1326</AltitudeMeters>
            <DistanceMeters>NAN</DistanceMeters>
          </Trackpoint>
          <Trackpoint>
            <Time>2023-02-23T14:22:23.000Z</Time>
            <Position>
              <LatitudeDegrees>41.56250565312802791595458984375</LatitudeDegrees>
              <LongitudeDegrees>-4.5472500286996364593505859375</LongitudeDegrees>
            </Position>
            <AltitudeMeters>1325.5999755859375</AltitudeMeters>
            <DistanceMeters>NAN</DistanceMeters>
          </Trackpoint>
          <Trackpoint>
            <Time>2023-02-23T14:22:26.000Z</Time>
            <Position>
              <LatitudeDegrees>41.5625008754432201385498046875</LatitudeDegrees>
              <LongitudeDegrees>-4.54724214971065521240234375</LongitudeDegrees>
            </Position>
            <AltitudeMeters>1325.5999755859375</AltitudeMeters>
            <DistanceMeters>NAN</DistanceMeters>
          </Trackpoint>
          <Trackpoint>
            <Time>2023-02-23T14:22:28.000Z</Time>
            <Position>
              <LatitudeDegrees>41.562489308416843414306640625</LatitudeDegrees>
              <LongitudeDegrees>-4.5472495257854461669921875</LongitudeDegrees>
            </Position>
            <AltitudeMeters>1325.800048828125</AltitudeMeters>
            <DistanceMeters>NAN</DistanceMeters>
          </Trackpoint>
          <Trackpoint>
            <Time>2023-02-23T14:22:31.000Z</Time>
            <Position>
              <LatitudeDegrees>41.562457121908664703369140625</LatitudeDegrees>
              <LongitudeDegrees>-4.54728514887392520904541015625</LongitudeDegrees>
            </Position>
            <AltitudeMeters>1325.5999755859375</AltitudeMeters>
            <DistanceMeters>NAN</DistanceMeters>
          </Trackpoint>
          <Trackpoint>
            <Time>2023-02-23T14:22:36.000Z</Time>
            <Position>
              <LatitudeDegrees>41.56245502643287181854248046875</LatitudeDegrees>
              <LongitudeDegrees>-4.5472817122936248779296875</LongitudeDegrees>
            </Position>
            <AltitudeMeters>1325.5999755859375</AltitudeMeters>
            <DistanceMeters>NAN</DistanceMeters>
          </Trackpoint>
          <Trackpoint>
            <Time>2023-02-23T14:22:42.000Z</Time>
            <Position>
              <LatitudeDegrees>41.5624472312629222869873046875</LatitudeDegrees>
              <LongitudeDegrees>-4.5472604222595691680908203125</LongitudeDegrees>
            </Position>
            <AltitudeMeters>1325.4000244140625</AltitudeMeters>
            <DistanceMeters>NAN</DistanceMeters>
          </Trackpoint>
          <Trackpoint>
            <Time>2023-02-23T14:22:50.000Z</Time>
            <Position>
              <LatitudeDegrees>41.5624596364796161651611328125</LatitudeDegrees>
              <LongitudeDegrees>-4.54721239395439624786376953125</LongitudeDegrees>
            </Position>
            <AltitudeMeters>1325.199951171875</AltitudeMeters>
            <DistanceMeters>NAN</DistanceMeters>
          </Trackpoint>
          <Trackpoint>
            <Time>2023-02-23T14:22:51.000Z</Time>
            <Position>
              <LatitudeDegrees>41.56246189959347248077392578125</LatitudeDegrees>
              <LongitudeDegrees>-4.547214321792125701904296875</LongitudeDegrees>
            </Position>
            <AltitudeMeters>1325.199951171875</AltitudeMeters>
            <DistanceMeters>NAN</DistanceMeters>
          </Trackpoint>
          <Trackpoint>
            <Time>2023-02-23T14:22:52.000Z</Time>
            <Position>
              <LatitudeDegrees>41.56246290542185306549072265625</LatitudeDegrees>
              <LongitudeDegrees>-4.5472158305346965789794921875</LongitudeDegrees>
            </Position>
            <AltitudeMeters>1325.199951171875</AltitudeMeters>
            <DistanceMeters>NAN</DistanceMeters>
          </Trackpoint>
          <Trackpoint>
            <Time>2023-02-23T14:22:54.000Z</Time>
            <Position>
              <LatitudeDegrees>41.56246558763086795806884765625</LatitudeDegrees>
              <LongitudeDegrees>-4.5472181774675846099853515625</LongitudeDegrees>
            </Position>
            <AltitudeMeters>1325.4000244140625</AltitudeMeters>
            <DistanceMeters>NAN</DistanceMeters>
          </Trackpoint>
          <Trackpoint>
            <Time>2023-02-23T14:22:57.000Z</Time>
            <Position>
              <LatitudeDegrees>41.562468521296977996826171875</LatitudeDegrees>
              <LongitudeDegrees>-4.5472178421914577484130859375</LongitudeDegrees>
            </Position>
            <AltitudeMeters>1325.4000244140625</AltitudeMeters>
            <DistanceMeters>NAN</DistanceMeters>
          </Trackpoint>
          <Trackpoint>
            <Time>2023-02-23T14:22:59.000Z</Time>
            <Position>
              <LatitudeDegrees>41.56246944330632686614990234375</LatitudeDegrees>
              <LongitudeDegrees>-4.54721390269696712493896484375</LongitudeDegrees>
            </Position>
            <AltitudeMeters>1325.4000244140625</AltitudeMeters>
            <DistanceMeters>NAN</DistanceMeters>
          </Trackpoint>
          <Trackpoint>
            <Time>2023-02-23T14:23:09.000Z</Time>
            <Position>
              <LatitudeDegrees>41.56247111968696117401123046875</LatitudeDegrees>
              <LongitudeDegrees>-4.5472151599824428558349609375</LongitudeDegrees>
            </Position>
            <AltitudeMeters>1324.800048828125</AltitudeMeters>
            <DistanceMeters>NAN</DistanceMeters>
          </Trackpoint>
          <Trackpoint>
            <Time>2023-02-23T14:23:10.000Z</Time>
            <Position>
              <LatitudeDegrees>41.56247086822986602783203125</LatitudeDegrees>
              <LongitudeDegrees>-4.54721524380147457122802734375</LongitudeDegrees>
            </Position>
            <AltitudeMeters>1324.5999755859375</AltitudeMeters>
            <DistanceMeters>NAN</DistanceMeters>
          </Trackpoint>
          <Trackpoint>
            <Time>2023-02-23T14:23:14.000Z</Time>
            <Position>
              <LatitudeDegrees>41.56246307305991649627685546875</LatitudeDegrees>
              <LongitudeDegrees>-4.54721893183887004852294921875</LongitudeDegrees>
            </Position>
            <AltitudeMeters>1325</AltitudeMeters>
            <DistanceMeters>NAN</DistanceMeters>
          </Trackpoint>
          <Trackpoint>
            <Time>2023-02-23T14:23:15.000Z</Time>
            <Position>
              <LatitudeDegrees>41.5624536015093326568603515625</LatitudeDegrees>
              <LongitudeDegrees>-4.54722362570464611053466796875</LongitudeDegrees>
            </Position>
            <AltitudeMeters>1325</AltitudeMeters>
            <DistanceMeters>NAN</DistanceMeters>
          </Trackpoint>
          <Trackpoint>
            <Time>2023-02-23T14:23:21.000Z</Time>
            <Position>
              <LatitudeDegrees>41.56238310970366001129150390625</LatitudeDegrees>
              <LongitudeDegrees>-4.54722111113369464874267578125</LongitudeDegrees>
            </Position>
            <AltitudeMeters>1325.4000244140625</AltitudeMeters>
            <DistanceMeters>NAN</DistanceMeters>
          </Trackpoint>
          <Trackpoint>
            <Time>2023-02-23T14:23:27.000Z</Time>
            <Position>
              <LatitudeDegrees>41.56233139336109161376953125</LatitudeDegrees>
              <LongitudeDegrees>-4.54720853827893733978271484375</LongitudeDegrees>
            </Position>
            <AltitudeMeters>1325</AltitudeMeters>
            <DistanceMeters>NAN</DistanceMeters>
          </Trackpoint>
          <Trackpoint>
            <Time>2023-02-23T14:23:34.000Z</Time>
            <Position>
              <LatitudeDegrees>41.562295854091644287109375</LatitudeDegrees>
              <LongitudeDegrees>-4.54720191657543182373046875</LongitudeDegrees>
            </Position>
            <AltitudeMeters>1325.4000244140625</AltitudeMeters>
            <DistanceMeters>NAN</DistanceMeters>
          </Trackpoint>
          <Trackpoint>
            <Time>2023-02-23T14:23:41.000Z</Time>
            <Position>
              <LatitudeDegrees>41.56230649910867214202880859375</LatitudeDegrees>
              <LongitudeDegrees>-4.54717853106558322906494140625</LongitudeDegrees>
            </Position>
            <AltitudeMeters>1325</AltitudeMeters>
            <DistanceMeters>NAN</DistanceMeters>
          </Trackpoint>
          <Trackpoint>
            <Time>2023-02-23T14:23:46.000Z</Time>
            <Position>
              <LatitudeDegrees>41.56232829205691814422607421875</LatitudeDegrees>
              <LongitudeDegrees>-4.547145254909992218017578125</LongitudeDegrees>
            </Position>
            <AltitudeMeters>1324.800048828125</AltitudeMeters>
            <DistanceMeters>NAN</DistanceMeters>
          </Trackpoint>
          <Trackpoint>
            <Time>2023-02-23T14:23:52.000Z</Time>
            <Position>
              <LatitudeDegrees>41.5623416192829608917236328125</LatitudeDegrees>
              <LongitudeDegrees>-4.54715891741216182708740234375</LongitudeDegrees>
            </Position>
            <AltitudeMeters>1324.800048828125</AltitudeMeters>
            <DistanceMeters>NAN</DistanceMeters>
          </Trackpoint>
          <Trackpoint>
            <Time>2023-02-23T14:23:55.000Z</Time>
            <Position>
              <LatitudeDegrees>41.56234740279614925384521484375</LatitudeDegrees>
              <LongitudeDegrees>-4.54715036787092685699462890625</LongitudeDegrees>
            </Position>
            <AltitudeMeters>1324.5999755859375</AltitudeMeters>
            <DistanceMeters>NAN</DistanceMeters>
          </Trackpoint>
          <Trackpoint>
            <Time>2023-02-23T14:23:59.000Z</Time>
            <Position>
              <LatitudeDegrees>41.56237003393471240997314453125</LatitudeDegrees>
              <LongitudeDegrees>-4.547174088656902313232421875</LongitudeDegrees>
            </Position>
            <AltitudeMeters>1324</AltitudeMeters>
            <DistanceMeters>NAN</DistanceMeters>
          </Trackpoint>
          <Trackpoint>
            <Time>2023-02-23T14:24:00.000Z</Time>
            <Position>
              <LatitudeDegrees>41.56238763593137264251708984375</LatitudeDegrees>
              <LongitudeDegrees>-4.54717718996107578277587890625</LongitudeDegrees>
            </Position>
            <AltitudeMeters>1324</AltitudeMeters>
            <DistanceMeters>NAN</DistanceMeters>
          </Trackpoint>
          <Trackpoint>
            <Time>2023-02-23T14:24:02.000Z</Time>
            <Position>
              <LatitudeDegrees>41.56241144053637981414794921875</LatitudeDegrees>
              <LongitudeDegrees>-4.54718724824488162994384765625</LongitudeDegrees>
            </Position>
            <AltitudeMeters>1324.199951171875</AltitudeMeters>
            <DistanceMeters>NAN</DistanceMeters>
          </Trackpoint>
          <Trackpoint>
            <Time>2023-02-23T14:24:03.000Z</Time>
            <Position>
              <LatitudeDegrees>41.56242216937243938446044921875</LatitudeDegrees>
              <LongitudeDegrees>-4.5471873320639133453369140625</LongitudeDegrees>
            </Position>
            <AltitudeMeters>1324.199951171875</AltitudeMeters>
            <DistanceMeters>NAN</DistanceMeters>
          </Trackpoint>
          <Trackpoint>
            <Time>2023-02-23T14:24:07.000Z</Time>
            <Position>
              <LatitudeDegrees>41.56243289820849895477294921875</LatitudeDegrees>
              <LongitudeDegrees>-4.54721624962985515594482421875</LongitudeDegrees>
            </Position>
            <AltitudeMeters>1325</AltitudeMeters>
            <DistanceMeters>NAN</DistanceMeters>
          </Trackpoint>
          <Trackpoint>
            <Time>2023-02-23T14:24:12.000Z</Time>
            <Position>
              <LatitudeDegrees>41.562532894313335418701171875</LatitudeDegrees>
              <LongitudeDegrees>-4.54728950746357440948486328125</LongitudeDegrees>
            </Position>
            <AltitudeMeters>1325.199951171875</AltitudeMeters>
            <DistanceMeters>NAN</DistanceMeters>
          </Trackpoint>
          <Trackpoint>
            <Time>2023-02-23T14:24:18.000Z</Time>
            <Position>
              <LatitudeDegrees>41.56266876496374607086181640625</LatitudeDegrees>
              <LongitudeDegrees>-4.54743987880647182464599609375</LongitudeDegrees>
            </Position>
            <AltitudeMeters>1324.199951171875</AltitudeMeters>
            <DistanceMeters>NAN</DistanceMeters>
          </Trackpoint>
          <Trackpoint>
            <Time>2023-02-23T14:24:21.000Z</Time>
            <Position>
              <LatitudeDegrees>41.5627489797770977020263671875</LatitudeDegrees>
              <LongitudeDegrees>-4.54751833342015743255615234375</LongitudeDegrees>
            </Position>
            <AltitudeMeters>1324.4000244140625</AltitudeMeters>
            <DistanceMeters>NAN</DistanceMeters>
          </Trackpoint>
          <Trackpoint>
            <Time>2023-02-23T14:24:23.000Z</Time>
            <Position>
              <LatitudeDegrees>41.56280924566090106964111328125</LatitudeDegrees>
              <LongitudeDegrees>-4.547578431665897369384765625</LongitudeDegrees>
            </Position>
            <AltitudeMeters>1324.4000244140625</AltitudeMeters>
            <DistanceMeters>NAN</DistanceMeters>
          </Trackpoint>
          <Trackpoint>
            <Time>2023-02-23T14:24:24.000Z</Time>
            <Position>
              <LatitudeDegrees>41.56284159980714321136474609375</LatitudeDegrees>
              <LongitudeDegrees>-4.5476050861179828643798828125</LongitudeDegrees>
            </Position>
            <AltitudeMeters>1324.4000244140625</AltitudeMeters>
            <DistanceMeters>NAN</DistanceMeters>
          </Trackpoint>
          <Trackpoint>
            <Time>2023-02-23T14:24:26.000Z</Time>
            <Position>
              <LatitudeDegrees>41.56290932558476924896240234375</LatitudeDegrees>
              <LongitudeDegrees>-4.547654874622821807861328125</LongitudeDegrees>
            </Position>
            <AltitudeMeters>1324.4000244140625</AltitudeMeters>
            <DistanceMeters>NAN</DistanceMeters>
          </Trackpoint>
          <Trackpoint>
            <Time>2023-02-23T14:24:31.000Z</Time>
            <Position>
              <LatitudeDegrees>41.56306757591664791107177734375</LatitudeDegrees>
              <LongitudeDegrees>-4.547780938446521759033203125</LongitudeDegrees>
            </Position>
            <AltitudeMeters>1324</AltitudeMeters>
            <DistanceMeters>NAN</DistanceMeters>
          </Trackpoint>
          <Trackpoint>
            <Time>2023-02-23T14:24:34.000Z</Time>
            <Position>
              <LatitudeDegrees>41.56315726228058338165283203125</LatitudeDegrees>
              <LongitudeDegrees>-4.547854699194431304931640625</LongitudeDegrees>
            </Position>
            <AltitudeMeters>1324</AltitudeMeters>
            <DistanceMeters>NAN</DistanceMeters>
          </Trackpoint>
          <Trackpoint>
            <Time>2023-02-23T14:24:40.000Z</Time>
            <Position>
              <LatitudeDegrees>41.563335545361042022705078125</LatitudeDegrees>
              <LongitudeDegrees>-4.54798470251262187957763671875</LongitudeDegrees>
            </Position>
            <AltitudeMeters>1323.800048828125</AltitudeMeters>
            <DistanceMeters>NAN</DistanceMeters>
          </Trackpoint>
          <Trackpoint>
            <Time>2023-02-23T14:24:47.000Z</Time>
            <Position>
              <LatitudeDegrees>41.563530676066875457763671875</LatitudeDegrees>
              <LongitudeDegrees>-4.5481173880398273468017578125</LongitudeDegrees>
            </Position>
            <AltitudeMeters>1324</AltitudeMeters>
            <DistanceMeters>NAN</DistanceMeters>
          </Trackpoint>
          <Trackpoint>
            <Time>2023-02-23T14:24:49.000Z</Time>
            <Position>
              <LatitudeDegrees>41.5635774470865726470947265625</LatitudeDegrees>
              <LongitudeDegrees>-4.54816348850727081298828125</LongitudeDegrees>
            </Position>
            <AltitudeMeters>1323.4000244140625</AltitudeMeters>
            <DistanceMeters>NAN</DistanceMeters>
          </Trackpoint>
          <Trackpoint>
            <Time>2023-02-23T14:24:51.000Z</Time>
            <Position>
              <LatitudeDegrees>41.56359915621578693389892578125</LatitudeDegrees>
              <LongitudeDegrees>-4.54823188483715057373046875</LongitudeDegrees>
            </Position>
            <AltitudeMeters>1323.4000244140625</AltitudeMeters>
            <DistanceMeters>NAN</DistanceMeters>
          </Trackpoint>
          <Trackpoint>
            <Time>2023-02-23T14:24:52.000Z</Time>
            <Position>
              <LatitudeDegrees>41.5635978989303112030029296875</LatitudeDegrees>
              <LongitudeDegrees>-4.548274464905261993408203125</LongitudeDegrees>
            </Position>
            <AltitudeMeters>1323</AltitudeMeters>
            <DistanceMeters>NAN</DistanceMeters>
          </Trackpoint>
          <Trackpoint>
            <Time>2023-02-23T14:24:57.000Z</Time>
            <Position>
              <LatitudeDegrees>41.5635402314364910125732421875</LatitudeDegrees>
              <LongitudeDegrees>-4.548495076596736907958984375</LongitudeDegrees>
            </Position>
            <AltitudeMeters>1323.5999755859375</AltitudeMeters>
            <DistanceMeters>NAN</DistanceMeters>
          </Trackpoint>
          <Trackpoint>
            <Time>2023-02-23T14:24:59.000Z</Time>
            <Position>
              <LatitudeDegrees>41.563513241708278656005859375</LatitudeDegrees>
              <LongitudeDegrees>-4.548578895628452301025390625</LongitudeDegrees>
            </Position>
            <AltitudeMeters>1324.4000244140625</AltitudeMeters>
            <DistanceMeters>NAN</DistanceMeters>
          </Trackpoint>
          <Trackpoint>
            <Time>2023-02-23T14:25:00.000Z</Time>
            <Position>
              <LatitudeDegrees>41.563489101827144622802734375</LatitudeDegrees>
              <LongitudeDegrees>-4.5486290194094181060791015625</LongitudeDegrees>
            </Position>
            <AltitudeMeters>1324.5999755859375</AltitudeMeters>
            <DistanceMeters>NAN</DistanceMeters>
          </Trackpoint>
          <Trackpoint>
            <Time>2023-02-23T14:25:02.000Z</Time>
            <Position>
              <LatitudeDegrees>41.56344761140644550323486328125</LatitudeDegrees>
              <LongitudeDegrees>-4.54871510155498981475830078125</LongitudeDegrees>
            </Position>
            <AltitudeMeters>1324.800048828125</AltitudeMeters>
            <DistanceMeters>NAN</DistanceMeters>
          </Trackpoint>
          <Trackpoint>
            <Time>2023-02-23T14:25:04.000Z</Time>
            <Position>
              <LatitudeDegrees>41.56341559253633022308349609375</LatitudeDegrees>
              <LongitudeDegrees>-4.54880177043378353118896484375</LongitudeDegrees>
            </Position>
            <AltitudeMeters>1324.800048828125</AltitudeMeters>
            <DistanceMeters>NAN</DistanceMeters>
          </Trackpoint>
          <Trackpoint>
            <Time>2023-02-23T14:25:09.000Z</Time>
            <Position>
              <LatitudeDegrees>41.56337250955402851104736328125</LatitudeDegrees>
              <LongitudeDegrees>-4.54903185367584228515625</LongitudeDegrees>
            </Position>
            <AltitudeMeters>1324.800048828125</AltitudeMeters>
            <DistanceMeters>NAN</DistanceMeters>
          </Trackpoint>
          <Trackpoint>
            <Time>2023-02-23T14:25:12.000Z</Time>
            <Position>
              <LatitudeDegrees>41.5633363835513591766357421875</LatitudeDegrees>
              <LongitudeDegrees>-4.549156911671161651611328125</LongitudeDegrees>
            </Position>
            <AltitudeMeters>1325.4000244140625</AltitudeMeters>
            <DistanceMeters>NAN</DistanceMeters>
          </Trackpoint>
          <Trackpoint>
            <Time>2023-02-23T14:25:16.000Z</Time>
            <Position>
              <LatitudeDegrees>41.563274525105953216552734375</LatitudeDegrees>
              <LongitudeDegrees>-4.5493471808731555938720703125</LongitudeDegrees>
            </Position>
            <AltitudeMeters>1325.5999755859375</AltitudeMeters>
            <DistanceMeters>NAN</DistanceMeters>
          </Trackpoint>
          <Trackpoint>
            <Time>2023-02-23T14:25:21.000Z</Time>
            <Position>
              <LatitudeDegrees>41.5632036142051219940185546875</LatitudeDegrees>
              <LongitudeDegrees>-4.5495872385799884796142578125</LongitudeDegrees>
            </Position>
            <AltitudeMeters>1325.199951171875</AltitudeMeters>
            <DistanceMeters>NAN</DistanceMeters>
          </Trackpoint>
          <Trackpoint>
            <Time>2023-02-23T14:25:24.000Z</Time>
            <Position>
              <LatitudeDegrees>41.5631720982491970062255859375</LatitudeDegrees>
              <LongitudeDegrees>-4.54972864128649234771728515625</LongitudeDegrees>
            </Position>
            <AltitudeMeters>1325.4000244140625</AltitudeMeters>
            <DistanceMeters>NAN</DistanceMeters>
          </Trackpoint>
          <Trackpoint>
            <Time>2023-02-23T14:25:27.000Z</Time>
            <Position>
              <LatitudeDegrees>41.56312323175370693206787109375</LatitudeDegrees>
              <LongitudeDegrees>-4.5498769171535968780517578125</LongitudeDegrees>
            </Position>
            <AltitudeMeters>1325.800048828125</AltitudeMeters>
            <DistanceMeters>NAN</DistanceMeters>
          </Trackpoint>
          <Trackpoint>
            <Time>2023-02-23T14:25:31.000Z</Time>
            <Position>
              <LatitudeDegrees>41.56305785290896892547607421875</LatitudeDegrees>
              <LongitudeDegrees>-4.55007380805909633636474609375</LongitudeDegrees>
            </Position>
            <AltitudeMeters>1324.5999755859375</AltitudeMeters>
            <DistanceMeters>NAN</DistanceMeters>
          </Trackpoint>
          <Trackpoint>
            <Time>2023-02-23T14:25:39.000Z</Time>
            <Position>
              <LatitudeDegrees>41.562920473515987396240234375</LatitudeDegrees>
              <LongitudeDegrees>-4.550421573221683502197265625</LongitudeDegrees>
            </Position>
            <AltitudeMeters>1325.199951171875</AltitudeMeters>
            <DistanceMeters>NAN</DistanceMeters>
          </Trackpoint>
          <Trackpoint>
            <Time>2023-02-23T14:25:42.000Z</Time>
            <Position>
              <LatitudeDegrees>41.562874205410480499267578125</LatitudeDegrees>
              <LongitudeDegrees>-4.55055199563503265380859375</LongitudeDegrees>
            </Position>
            <AltitudeMeters>1325.4000244140625</AltitudeMeters>
            <DistanceMeters>NAN</DistanceMeters>
          </Trackpoint>
          <Trackpoint>
            <Time>2023-02-23T14:25:46.000Z</Time>
            <Position>
              <LatitudeDegrees>41.5628069825470447540283203125</LatitudeDegrees>
              <LongitudeDegrees>-4.5507452823221683502197265625</LongitudeDegrees>
            </Position>
            <AltitudeMeters>1325.5999755859375</AltitudeMeters>
            <DistanceMeters>NAN</DistanceMeters>
          </Trackpoint>
          <Trackpoint>
            <Time>2023-02-23T14:25:47.000Z</Time>
            <Position>
              <LatitudeDegrees>41.56279164366424083709716796875</LatitudeDegrees>
              <LongitudeDegrees>-4.5507922209799289703369140625</LongitudeDegrees>
            </Position>
            <AltitudeMeters>1325.800048828125</AltitudeMeters>
            <DistanceMeters>NAN</DistanceMeters>
          </Trackpoint>
          <Trackpoint>
            <Time>2023-02-23T14:25:56.000Z</Time>
            <Position>
              <LatitudeDegrees>41.56266088597476482391357421875</LatitudeDegrees>
              <LongitudeDegrees>-4.5512165129184722900390625</LongitudeDegrees>
            </Position>
            <AltitudeMeters>1325.199951171875</AltitudeMeters>
            <DistanceMeters>NAN</DistanceMeters>
          </Trackpoint>
          <Trackpoint>
            <Time>2023-02-23T14:26:02.000Z</Time>
            <Position>
              <LatitudeDegrees>41.562563069164752960205078125</LatitudeDegrees>
              <LongitudeDegrees>-4.55149881541728973388671875</LongitudeDegrees>
            </Position>
            <AltitudeMeters>1325.4000244140625</AltitudeMeters>
            <DistanceMeters>NAN</DistanceMeters>
          </Trackpoint>
          <Trackpoint>
            <Time>2023-02-23T14:26:07.000Z</Time>
            <Position>
              <LatitudeDegrees>41.5625263564288616180419921875</LatitudeDegrees>
              <LongitudeDegrees>-4.55174381844699382781982421875</LongitudeDegrees>
            </Position>
            <AltitudeMeters>1324.800048828125</AltitudeMeters>
            <DistanceMeters>NAN</DistanceMeters>
          </Trackpoint>
          <Trackpoint>
            <Time>2023-02-23T14:26:09.000Z</Time>
            <Position>
              <LatitudeDegrees>41.56250045634806156158447265625</LatitudeDegrees>
              <LongitudeDegrees>-4.55184272490441799163818359375</LongitudeDegrees>
            </Position>
            <AltitudeMeters>1324.4000244140625</AltitudeMeters>
            <DistanceMeters>NAN</DistanceMeters>
          </Trackpoint>
          <Trackpoint>
            <Time>2023-02-23T14:26:14.000Z</Time>
            <Position>
              <LatitudeDegrees>41.5624183975160121917724609375</LatitudeDegrees>
              <LongitudeDegrees>-4.5520719699561595916748046875</LongitudeDegrees>
            </Position>
            <AltitudeMeters>1323.800048828125</AltitudeMeters>
            <DistanceMeters>NAN</DistanceMeters>
          </Trackpoint>
          <Trackpoint>
            <Time>2023-02-23T14:26:15.000Z</Time>
            <Position>
              <LatitudeDegrees>41.56239937059581279754638671875</LatitudeDegrees>
              <LongitudeDegrees>-4.55211530439555644989013671875</LongitudeDegrees>
            </Position>
            <AltitudeMeters>1323.4000244140625</AltitudeMeters>
            <DistanceMeters>NAN</DistanceMeters>
          </Trackpoint>
          <Trackpoint>
            <Time>2023-02-23T14:26:20.000Z</Time>
            <Position>
              <LatitudeDegrees>41.5623359195888042449951171875</LatitudeDegrees>
              <LongitudeDegrees>-4.5523403584957122802734375</LongitudeDegrees>
            </Position>
            <AltitudeMeters>1323.5999755859375</AltitudeMeters>
            <DistanceMeters>NAN</DistanceMeters>
          </Trackpoint>
          <Trackpoint>
            <Time>2023-02-23T14:26:21.000Z</Time>
            <Position>
              <LatitudeDegrees>41.5623251907527446746826171875</LatitudeDegrees>
              <LongitudeDegrees>-4.5523861236870288848876953125</LongitudeDegrees>
            </Position>
            <AltitudeMeters>1323.800048828125</AltitudeMeters>
            <DistanceMeters>NAN</DistanceMeters>
          </Trackpoint>
          <Trackpoint>
            <Time>2023-02-23T14:26:24.000Z</Time>
            <Position>
              <LatitudeDegrees>41.5622945129871368408203125</LatitudeDegrees>
              <LongitudeDegrees>-4.55251730047166347503662109375</LongitudeDegrees>
            </Position>
            <AltitudeMeters>1324.5999755859375</AltitudeMeters>
            <DistanceMeters>NAN</DistanceMeters>
          </Trackpoint>
          <Trackpoint>
            <Time>2023-02-23T14:26:28.000Z</Time>
            <Position>
              <LatitudeDegrees>41.5622165612876415252685546875</LatitudeDegrees>
              <LongitudeDegrees>-4.55269264988601207733154296875</LongitudeDegrees>
            </Position>
            <AltitudeMeters>1325.199951171875</AltitudeMeters>
            <DistanceMeters>NAN</DistanceMeters>
          </Trackpoint>
          <Trackpoint>
            <Time>2023-02-23T14:26:31.000Z</Time>
            <Position>
              <LatitudeDegrees>41.56217104755342006683349609375</LatitudeDegrees>
              <LongitudeDegrees>-4.552818797528743743896484375</LongitudeDegrees>
            </Position>
            <AltitudeMeters>1325.5999755859375</AltitudeMeters>
            <DistanceMeters>NAN</DistanceMeters>
          </Trackpoint>
          <Trackpoint>
            <Time>2023-02-23T14:26:36.000Z</Time>
            <Position>
              <LatitudeDegrees>41.562082283198833465576171875</LatitudeDegrees>
              <LongitudeDegrees>-4.5530707575380802154541015625</LongitudeDegrees>
            </Position>
            <AltitudeMeters>1326.199951171875</AltitudeMeters>
            <DistanceMeters>NAN</DistanceMeters>
          </Trackpoint>
          <Trackpoint>
            <Time>2023-02-23T14:26:40.000Z</Time>
            <Position>
              <LatitudeDegrees>41.56201095320284366607666015625</LatitudeDegrees>
              <LongitudeDegrees>-4.5532725937664508819580078125</LongitudeDegrees>
            </Position>
            <AltitudeMeters>1326.199951171875</AltitudeMeters>
            <DistanceMeters>NAN</DistanceMeters>
          </Trackpoint>
          <Trackpoint>
            <Time>2023-02-23T14:26:43.000Z</Time>
            <Position>
              <LatitudeDegrees>41.5619590692222118377685546875</LatitudeDegrees>
              <LongitudeDegrees>-4.553419612348079681396484375</LongitudeDegrees>
            </Position>
            <AltitudeMeters>1325.5999755859375</AltitudeMeters>
            <DistanceMeters>NAN</DistanceMeters>
          </Trackpoint>
          <Trackpoint>
            <Time>2023-02-23T14:26:46.000Z</Time>
            <Position>
              <LatitudeDegrees>41.56190500594675540924072265625</LatitudeDegrees>
              <LongitudeDegrees>-4.55356989987194538116455078125</LongitudeDegrees>
            </Position>
            <AltitudeMeters>1325</AltitudeMeters>
            <DistanceMeters>NAN</DistanceMeters>
          </Trackpoint>
          <Trackpoint>
            <Time>2023-02-23T14:26:48.000Z</Time>
            <Position>
              <LatitudeDegrees>41.56186829321086406707763671875</LatitudeDegrees>
              <LongitudeDegrees>-4.553673081099987030029296875</LongitudeDegrees>
            </Position>
            <AltitudeMeters>1325</AltitudeMeters>
            <DistanceMeters>NAN</DistanceMeters>
          </Trackpoint>
          <Trackpoint>
            <Time>2023-02-23T14:26:52.000Z</Time>
            <Position>
              <LatitudeDegrees>41.56180811114609241485595703125</LatitudeDegrees>
              <LongitudeDegrees>-4.55387952737510204315185546875</LongitudeDegrees>
            </Position>
            <AltitudeMeters>1325</AltitudeMeters>
            <DistanceMeters>NAN</DistanceMeters>
          </Trackpoint>
          <Trackpoint>
            <Time>2023-02-23T14:26:57.000Z</Time>
            <Position>
              <LatitudeDegrees>41.561731584370136260986328125</LatitudeDegrees>
              <LongitudeDegrees>-4.554109275341033935546875</LongitudeDegrees>
            </Position>
            <AltitudeMeters>1325.4000244140625</AltitudeMeters>
            <DistanceMeters>NAN</DistanceMeters>
          </Trackpoint>
          <Trackpoint>
            <Time>2023-02-23T14:27:04.000Z</Time>
            <Position>
              <LatitudeDegrees>41.56162739731371402740478515625</LatitudeDegrees>
              <LongitudeDegrees>-4.55440104939043521881103515625</LongitudeDegrees>
            </Position>
            <AltitudeMeters>1325.800048828125</AltitudeMeters>
            <DistanceMeters>NAN</DistanceMeters>
          </Trackpoint>
          <Trackpoint>
            <Time>2023-02-23T14:27:08.000Z</Time>
            <Position>
              <LatitudeDegrees>41.5615741722285747528076171875</LatitudeDegrees>
              <LongitudeDegrees>-4.5545731298625469207763671875</LongitudeDegrees>
            </Position>
            <AltitudeMeters>1325.199951171875</AltitudeMeters>
            <DistanceMeters>NAN</DistanceMeters>
          </Trackpoint>
          <Trackpoint>
            <Time>2023-02-23T14:27:09.000Z</Time>
            <Position>
              <LatitudeDegrees>41.56156201846897602081298828125</LatitudeDegrees>
              <LongitudeDegrees>-4.55461763776838779449462890625</LongitudeDegrees>
            </Position>
            <AltitudeMeters>1325.199951171875</AltitudeMeters>
            <DistanceMeters>NAN</DistanceMeters>
          </Trackpoint>
          <Trackpoint>
            <Time>2023-02-23T14:27:10.000Z</Time>
            <Position>
              <LatitudeDegrees>41.56155296601355075836181640625</LatitudeDegrees>
              <LongitudeDegrees>-4.554663486778736114501953125</LongitudeDegrees>
            </Position>
            <AltitudeMeters>1325.199951171875</AltitudeMeters>
            <DistanceMeters>NAN</DistanceMeters>
          </Trackpoint>
          <Trackpoint>
            <Time>2023-02-23T14:27:13.000Z</Time>
            <Position>
              <LatitudeDegrees>41.5615161694586277008056640625</LatitudeDegrees>
              <LongitudeDegrees>-4.5548071525990962982177734375</LongitudeDegrees>
            </Position>
            <AltitudeMeters>1324.800048828125</AltitudeMeters>
            <DistanceMeters>NAN</DistanceMeters>
          </Trackpoint>
          <Trackpoint>
            <Time>2023-02-23T14:27:16.000Z</Time>
            <Position>
              <LatitudeDegrees>41.5614735893905162811279296875</LatitudeDegrees>
              <LongitudeDegrees>-4.55492961220443248748779296875</LongitudeDegrees>
            </Position>
            <AltitudeMeters>1324.800048828125</AltitudeMeters>
            <DistanceMeters>NAN</DistanceMeters>
          </Trackpoint>
          <Trackpoint>
            <Time>2023-02-23T14:27:18.000Z</Time>
            <Position>
              <LatitudeDegrees>41.56145104207098484039306640625</LatitudeDegrees>
              <LongitudeDegrees>-4.5550066418945789337158203125</LongitudeDegrees>
            </Position>
            <AltitudeMeters>1324.800048828125</AltitudeMeters>
            <DistanceMeters>NAN</DistanceMeters>
          </Trackpoint>
          <Trackpoint>
            <Time>2023-02-23T14:27:20.000Z</Time>
            <Position>
              <LatitudeDegrees>41.56142522580921649932861328125</LatitudeDegrees>
              <LongitudeDegrees>-4.5550820790231227874755859375</LongitudeDegrees>
            </Position>
            <AltitudeMeters>1325.4000244140625</AltitudeMeters>
            <DistanceMeters>NAN</DistanceMeters>
          </Trackpoint>
          <Trackpoint>
            <Time>2023-02-23T14:27:22.000Z</Time>
            <Position>
              <LatitudeDegrees>41.5613874234259128570556640625</LatitudeDegrees>
              <LongitudeDegrees>-4.55517235212028026580810546875</LongitudeDegrees>
            </Position>
            <AltitudeMeters>1325.5999755859375</AltitudeMeters>
            <DistanceMeters>NAN</DistanceMeters>
          </Trackpoint>
          <Trackpoint>
            <Time>2023-02-23T14:27:24.000Z</Time>
            <Position>
              <LatitudeDegrees>41.5613488666713237762451171875</LatitudeDegrees>
              <LongitudeDegrees>-4.55529280006885528564453125</LongitudeDegrees>
            </Position>
            <AltitudeMeters>1325.5999755859375</AltitudeMeters>
            <DistanceMeters>NAN</DistanceMeters>
          </Trackpoint>
          <Trackpoint>
            <Time>2023-02-23T14:27:29.000Z</Time>
            <Position>
              <LatitudeDegrees>41.56126798130571842193603515625</LatitudeDegrees>
              <LongitudeDegrees>-4.55550896935164928436279296875</LongitudeDegrees>
            </Position>
            <AltitudeMeters>1325.5999755859375</AltitudeMeters>
            <DistanceMeters>NAN</DistanceMeters>
          </Trackpoint>
          <Trackpoint>
            <Time>2023-02-23T14:27:30.000Z</Time>
            <Position>
              <LatitudeDegrees>41.56125306151807308197021484375</LatitudeDegrees>
              <LongitudeDegrees>-4.5555548183619976043701171875</LongitudeDegrees>
            </Position>
            <AltitudeMeters>1325.800048828125</AltitudeMeters>
            <DistanceMeters>NAN</DistanceMeters>
          </Trackpoint>
          <Trackpoint>
            <Time>2023-02-23T14:27:32.000Z</Time>
            <Position>
              <LatitudeDegrees>41.56121953390538692474365234375</LatitudeDegrees>
              <LongitudeDegrees>-4.5556493662297725677490234375</LongitudeDegrees>
            </Position>
            <AltitudeMeters>1326</AltitudeMeters>
            <DistanceMeters>NAN</DistanceMeters>
          </Trackpoint>
          <Trackpoint>
            <Time>2023-02-23T14:27:37.000Z</Time>
            <Position>
              <LatitudeDegrees>41.56113437376916408538818359375</LatitudeDegrees>
              <LongitudeDegrees>-4.55588766373693943023681640625</LongitudeDegrees>
            </Position>
            <AltitudeMeters>1325.800048828125</AltitudeMeters>
            <DistanceMeters>NAN</DistanceMeters>
          </Trackpoint>
          <Trackpoint>
            <Time>2023-02-23T14:27:41.000Z</Time>
            <Position>
              <LatitudeDegrees>41.56109062023460865020751953125</LatitudeDegrees>
              <LongitudeDegrees>-4.55607977695763111114501953125</LongitudeDegrees>
            </Position>
            <AltitudeMeters>1325.5999755859375</AltitudeMeters>
            <DistanceMeters>NAN</DistanceMeters>
          </Trackpoint>
          <Trackpoint>
            <Time>2023-02-23T14:27:44.000Z</Time>
            <Position>
              <LatitudeDegrees>41.56105734407901763916015625</LatitudeDegrees>
              <LongitudeDegrees>-4.556230567395687103271484375</LongitudeDegrees>
            </Position>
            <AltitudeMeters>1325</AltitudeMeters>
            <DistanceMeters>NAN</DistanceMeters>
          </Trackpoint>
          <Trackpoint>
            <Time>2023-02-23T14:27:48.000Z</Time>
            <Position>
              <LatitudeDegrees>41.5610125847160816192626953125</LatitudeDegrees>
              <LongitudeDegrees>-4.5564238540828227996826171875</LongitudeDegrees>
            </Position>
            <AltitudeMeters>1325.4000244140625</AltitudeMeters>
            <DistanceMeters>NAN</DistanceMeters>
          </Trackpoint>
          <Trackpoint>
            <Time>2023-02-23T14:27:51.000Z</Time>
            <Position>
              <LatitudeDegrees>41.5609750337898731231689453125</LatitudeDegrees>
              <LongitudeDegrees>-4.556574560701847076416015625</LongitudeDegrees>
            </Position>
            <AltitudeMeters>1325.5999755859375</AltitudeMeters>
            <DistanceMeters>NAN</DistanceMeters>
          </Trackpoint>
          <Trackpoint>
            <Time>2023-02-23T14:27:53.000Z</Time>
            <Position>
              <LatitudeDegrees>41.56094913370907306671142578125</LatitudeDegrees>
              <LongitudeDegrees>-4.55668151378631591796875</LongitudeDegrees>
            </Position>
            <AltitudeMeters>1325.5999755859375</AltitudeMeters>
            <DistanceMeters>NAN</DistanceMeters>
          </Trackpoint>
          <Trackpoint>
            <Time>2023-02-23T14:27:57.000Z</Time>
            <Position>
              <LatitudeDegrees>41.56088769435882568359375</LatitudeDegrees>
              <LongitudeDegrees>-4.5569083280861377716064453125</LongitudeDegrees>
            </Position>
            <AltitudeMeters>1324.5999755859375</AltitudeMeters>
            <DistanceMeters>NAN</DistanceMeters>
          </Trackpoint>
          <Trackpoint>
            <Time>2023-02-23T14:28:00.000Z</Time>
            <Position>
              <LatitudeDegrees>41.56084704212844371795654296875</LatitudeDegrees>
              <LongitudeDegrees>-4.55706632696092128753662109375</LongitudeDegrees>
            </Position>
            <AltitudeMeters>1324.4000244140625</AltitudeMeters>
            <DistanceMeters>NAN</DistanceMeters>
          </Trackpoint>
          <Trackpoint>
            <Time>2023-02-23T14:28:08.000Z</Time>
            <Position>
              <LatitudeDegrees>41.56076364219188690185546875</LatitudeDegrees>
              <LongitudeDegrees>-4.55748626030981540679931640625</LongitudeDegrees>
            </Position>
            <AltitudeMeters>1324.199951171875</AltitudeMeters>
            <DistanceMeters>NAN</DistanceMeters>
          </Trackpoint>
          <Trackpoint>
            <Time>2023-02-23T14:28:14.000Z</Time>
            <Position>
              <LatitudeDegrees>41.56070941127836704254150390625</LatitudeDegrees>
              <LongitudeDegrees>-4.55769161693751811981201171875</LongitudeDegrees>
            </Position>
            <AltitudeMeters>1324.4000244140625</AltitudeMeters>
            <DistanceMeters>NAN</DistanceMeters>
          </Trackpoint>
          <Trackpoint>
            <Time>2023-02-23T14:28:20.000Z</Time>
            <Position>
              <LatitudeDegrees>41.56063556671142578125</LatitudeDegrees>
              <LongitudeDegrees>-4.557888507843017578125</LongitudeDegrees>
            </Position>
            <AltitudeMeters>1324.5999755859375</AltitudeMeters>
            <DistanceMeters>NAN</DistanceMeters>
          </Trackpoint>
          <Trackpoint>
            <Time>2023-02-23T14:28:22.000Z</Time>
            <Position>
              <LatitudeDegrees>41.56059600412845611572265625</LatitudeDegrees>
              <LongitudeDegrees>-4.55792698077857494354248046875</LongitudeDegrees>
            </Position>
            <AltitudeMeters>1324.800048828125</AltitudeMeters>
            <DistanceMeters>NAN</DistanceMeters>
          </Trackpoint>
          <Trackpoint>
            <Time>2023-02-23T14:28:25.000Z</Time>
            <Position>
              <LatitudeDegrees>41.5605435334146022796630859375</LatitudeDegrees>
              <LongitudeDegrees>-4.55797241069376468658447265625</LongitudeDegrees>
            </Position>
            <AltitudeMeters>1324.800048828125</AltitudeMeters>
            <DistanceMeters>NAN</DistanceMeters>
          </Trackpoint>
          <Trackpoint>
            <Time>2023-02-23T14:28:26.000Z</Time>
            <Position>
              <LatitudeDegrees>41.560537330806255340576171875</LatitudeDegrees>
              <LongitudeDegrees>-4.55799655057489871978759765625</LongitudeDegrees>
            </Position>
            <AltitudeMeters>1324.800048828125</AltitudeMeters>
            <DistanceMeters>NAN</DistanceMeters>
          </Trackpoint>
          <Trackpoint>
            <Time>2023-02-23T14:28:30.000Z</Time>
            <Position>
              <LatitudeDegrees>41.56057580374181270599365234375</LatitudeDegrees>
              <LongitudeDegrees>-4.55811205320060253143310546875</LongitudeDegrees>
            </Position>
            <AltitudeMeters>1324</AltitudeMeters>
            <DistanceMeters>NAN</DistanceMeters>
          </Trackpoint>
          <Trackpoint>
            <Time>2023-02-23T14:28:36.000Z</Time>
            <Position>
              <LatitudeDegrees>41.560716368257999420166015625</LatitudeDegrees>
              <LongitudeDegrees>-4.55826728604733943939208984375</LongitudeDegrees>
            </Position>
            <AltitudeMeters>1324</AltitudeMeters>
            <DistanceMeters>NAN</DistanceMeters>
          </Trackpoint>
          <Trackpoint>
            <Time>2023-02-23T14:28:37.000Z</Time>
            <Position>
              <LatitudeDegrees>41.56074193306267261505126953125</LatitudeDegrees>
              <LongitudeDegrees>-4.5582886599004268646240234375</LongitudeDegrees>
            </Position>
            <AltitudeMeters>1323.800048828125</AltitudeMeters>
            <DistanceMeters>NAN</DistanceMeters>
          </Trackpoint>
          <Trackpoint>
            <Time>2023-02-23T14:28:39.000Z</Time>
            <Position>
              <LatitudeDegrees>41.5607976727187633514404296875</LatitudeDegrees>
              <LongitudeDegrees>-4.55833350308239459991455078125</LongitudeDegrees>
            </Position>
            <AltitudeMeters>1323.800048828125</AltitudeMeters>
            <DistanceMeters>NAN</DistanceMeters>
          </Trackpoint>
          <Trackpoint>
            <Time>2023-02-23T14:28:40.000Z</Time>
            <Position>
              <LatitudeDegrees>41.5608285181224346160888671875</LatitudeDegrees>
              <LongitudeDegrees>-4.55835311673581600189208984375</LongitudeDegrees>
            </Position>
            <AltitudeMeters>1323.4000244140625</AltitudeMeters>
            <DistanceMeters>NAN</DistanceMeters>
          </Trackpoint>
          <Trackpoint>
            <Time>2023-02-23T14:28:42.000Z</Time>
            <Position>
              <LatitudeDegrees>41.56088928692042827606201171875</LatitudeDegrees>
              <LongitudeDegrees>-4.55838312394917011260986328125</LongitudeDegrees>
            </Position>
            <AltitudeMeters>1323.199951171875</AltitudeMeters>
            <DistanceMeters>NAN</DistanceMeters>
          </Trackpoint>
          <Trackpoint>
            <Time>2023-02-23T14:28:44.000Z</Time>
            <Position>
              <LatitudeDegrees>41.5609507262706756591796875</LatitudeDegrees>
              <LongitudeDegrees>-4.55840223468840122222900390625</LongitudeDegrees>
            </Position>
            <AltitudeMeters>1323</AltitudeMeters>
            <DistanceMeters>NAN</DistanceMeters>
          </Trackpoint>
          <Trackpoint>
            <Time>2023-02-23T14:28:47.000Z</Time>
            <Position>
              <LatitudeDegrees>41.56105541624128818511962890625</LatitudeDegrees>
              <LongitudeDegrees>-4.55842285417020320892333984375</LongitudeDegrees>
            </Position>
            <AltitudeMeters>1323</AltitudeMeters>
            <DistanceMeters>NAN</DistanceMeters>
          </Trackpoint>
          <Trackpoint>
            <Time>2023-02-23T14:28:48.000Z</Time>
            <Position>
              <LatitudeDegrees>41.5610875189304351806640625</LatitudeDegrees>
              <LongitudeDegrees>-4.55843073315918445587158203125</LongitudeDegrees>
            </Position>
            <AltitudeMeters>1323.199951171875</AltitudeMeters>
            <DistanceMeters>NAN</DistanceMeters>
          </Trackpoint>
          <Trackpoint>
            <Time>2023-02-23T14:28:52.000Z</Time>
            <Position>
              <LatitudeDegrees>41.5612080506980419158935546875</LatitudeDegrees>
              <LongitudeDegrees>-4.558464176952838897705078125</LongitudeDegrees>
            </Position>
            <AltitudeMeters>1323.199951171875</AltitudeMeters>
            <DistanceMeters>NAN</DistanceMeters>
          </Trackpoint>
          <Trackpoint>
            <Time>2023-02-23T14:28:53.000Z</Time>
            <Position>
              <LatitudeDegrees>41.56123797409236431121826171875</LatitudeDegrees>
              <LongitudeDegrees>-4.55847448669373989105224609375</LongitudeDegrees>
            </Position>
            <AltitudeMeters>1323.4000244140625</AltitudeMeters>
            <DistanceMeters>NAN</DistanceMeters>
          </Trackpoint>
          <Trackpoint>
            <Time>2023-02-23T14:28:54.000Z</Time>
            <Position>
              <LatitudeDegrees>41.561271250247955322265625</LatitudeDegrees>
              <LongitudeDegrees>-4.55848907120525836944580078125</LongitudeDegrees>
            </Position>
            <AltitudeMeters>1323.5999755859375</AltitudeMeters>
            <DistanceMeters>NAN</DistanceMeters>
          </Trackpoint>
          <Trackpoint>
            <Time>2023-02-23T14:28:55.000Z</Time>
            <Position>
              <LatitudeDegrees>41.5613076277077198028564453125</LatitudeDegrees>
              <LongitudeDegrees>-4.5585055835545063018798828125</LongitudeDegrees>
            </Position>
            <AltitudeMeters>1323.5999755859375</AltitudeMeters>
            <DistanceMeters>NAN</DistanceMeters>
          </Trackpoint>
          <Trackpoint>
            <Time>2023-02-23T14:28:56.000Z</Time>
            <Position>
              <LatitudeDegrees>41.56134123913943767547607421875</LatitudeDegrees>
              <LongitudeDegrees>-4.55852544866502285003662109375</LongitudeDegrees>
            </Position>
            <AltitudeMeters>1323.800048828125</AltitudeMeters>
            <DistanceMeters>NAN</DistanceMeters>
          </Trackpoint>
          <Trackpoint>
            <Time>2023-02-23T14:28:58.000Z</Time>
            <Position>
              <LatitudeDegrees>41.5614031814038753509521484375</LatitudeDegrees>
              <LongitudeDegrees>-4.55857724882662296295166015625</LongitudeDegrees>
            </Position>
            <AltitudeMeters>1323.4000244140625</AltitudeMeters>
            <DistanceMeters>NAN</DistanceMeters>
          </Trackpoint>
          <Trackpoint>
            <Time>2023-02-23T14:29:01.000Z</Time>
            <Position>
              <LatitudeDegrees>41.5614960528910160064697265625</LatitudeDegrees>
              <LongitudeDegrees>-4.558620415627956390380859375</LongitudeDegrees>
            </Position>
            <AltitudeMeters>1323.5999755859375</AltitudeMeters>
            <DistanceMeters>NAN</DistanceMeters>
          </Trackpoint>
          <Trackpoint>
            <Time>2023-02-23T14:29:02.000Z</Time>
            <Position>
              <LatitudeDegrees>41.56152782030403614044189453125</LatitudeDegrees>
              <LongitudeDegrees>-4.55863357521593570709228515625</LongitudeDegrees>
            </Position>
            <AltitudeMeters>1323.5999755859375</AltitudeMeters>
            <DistanceMeters>NAN</DistanceMeters>
          </Trackpoint>
          <Trackpoint>
            <Time>2023-02-23T14:29:04.000Z</Time>
            <Position>
              <LatitudeDegrees>41.5615979768335819244384765625</LatitudeDegrees>
              <LongitudeDegrees>-4.558662660419940948486328125</LongitudeDegrees>
            </Position>
            <AltitudeMeters>1324.199951171875</AltitudeMeters>
            <DistanceMeters>NAN</DistanceMeters>
          </Trackpoint>
          <Trackpoint>
            <Time>2023-02-23T14:29:06.000Z</Time>
            <Position>
              <LatitudeDegrees>41.56165924854576587677001953125</LatitudeDegrees>
              <LongitudeDegrees>-4.5587027259171009063720703125</LongitudeDegrees>
            </Position>
            <AltitudeMeters>1324.5999755859375</AltitudeMeters>
            <DistanceMeters>NAN</DistanceMeters>
          </Trackpoint>
          <Trackpoint>
            <Time>2023-02-23T14:29:08.000Z</Time>
            <Position>
              <LatitudeDegrees>41.5617230348289012908935546875</LatitudeDegrees>
              <LongitudeDegrees>-4.5587454736232757568359375</LongitudeDegrees>
            </Position>
            <AltitudeMeters>1324.5999755859375</AltitudeMeters>
            <DistanceMeters>NAN</DistanceMeters>
          </Trackpoint>
          <Trackpoint>
            <Time>2023-02-23T14:29:11.000Z</Time>
            <Position>
              <LatitudeDegrees>41.561826132237911224365234375</LatitudeDegrees>
              <LongitudeDegrees>-4.55879308283329010009765625</LongitudeDegrees>
            </Position>
            <AltitudeMeters>1323.5999755859375</AltitudeMeters>
            <DistanceMeters>NAN</DistanceMeters>
          </Trackpoint>
          <Trackpoint>
            <Time>2023-02-23T14:29:16.000Z</Time>
            <Position>
              <LatitudeDegrees>41.56199217773973941802978515625</LatitudeDegrees>
              <LongitudeDegrees>-4.5588495768606662750244140625</LongitudeDegrees>
            </Position>
            <AltitudeMeters>1324</AltitudeMeters>
            <DistanceMeters>NAN</DistanceMeters>
          </Trackpoint>
          <Trackpoint>
            <Time>2023-02-23T14:29:18.000Z</Time>
            <Position>
              <LatitudeDegrees>41.5620636753737926483154296875</LatitudeDegrees>
              <LongitudeDegrees>-4.55886013805866241455078125</LongitudeDegrees>
            </Position>
            <AltitudeMeters>1324</AltitudeMeters>
            <DistanceMeters>NAN</DistanceMeters>
          </Trackpoint>
          <Trackpoint>
            <Time>2023-02-23T14:29:20.000Z</Time>
            <Position>
              <LatitudeDegrees>41.56212352216243743896484375</LatitudeDegrees>
              <LongitudeDegrees>-4.55887028016149997711181640625</LongitudeDegrees>
            </Position>
            <AltitudeMeters>1323.5999755859375</AltitudeMeters>
            <DistanceMeters>NAN</DistanceMeters>
          </Trackpoint>
          <Trackpoint>
            <Time>2023-02-23T14:29:22.000Z</Time>
            <Position>
              <LatitudeDegrees>41.562188230454921722412109375</LatitudeDegrees>
              <LongitudeDegrees>-4.55888737924396991729736328125</LongitudeDegrees>
            </Position>
            <AltitudeMeters>1323.5999755859375</AltitudeMeters>
            <DistanceMeters>NAN</DistanceMeters>
          </Trackpoint>
          <Trackpoint>
            <Time>2023-02-23T14:29:23.000Z</Time>
            <Position>
              <LatitudeDegrees>41.562221087515354156494140625</LatitudeDegrees>
              <LongitudeDegrees>-4.55889827571809291839599609375</LongitudeDegrees>
            </Position>
            <AltitudeMeters>1323.5999755859375</AltitudeMeters>
            <DistanceMeters>NAN</DistanceMeters>
          </Trackpoint>
          <Trackpoint>
            <Time>2023-02-23T14:29:24.000Z</Time>
            <Position>
              <LatitudeDegrees>41.562253944575786590576171875</LatitudeDegrees>
              <LongitudeDegrees>-4.55891218967735767364501953125</LongitudeDegrees>
            </Position>
            <AltitudeMeters>1323.5999755859375</AltitudeMeters>
            <DistanceMeters>NAN</DistanceMeters>
          </Trackpoint>
          <Trackpoint>
            <Time>2023-02-23T14:29:25.000Z</Time>
            <Position>
              <LatitudeDegrees>41.56229124404489994049072265625</LatitudeDegrees>
              <LongitudeDegrees>-4.5589276961982250213623046875</LongitudeDegrees>
            </Position>
            <AltitudeMeters>1323.5999755859375</AltitudeMeters>
            <DistanceMeters>NAN</DistanceMeters>
          </Trackpoint>
          <Trackpoint>
            <Time>2023-02-23T14:29:28.000Z</Time>
            <Position>
              <LatitudeDegrees>41.56239249743521213531494140625</LatitudeDegrees>
              <LongitudeDegrees>-4.55897555686533451080322265625</LongitudeDegrees>
            </Position>
            <AltitudeMeters>1324</AltitudeMeters>
            <DistanceMeters>NAN</DistanceMeters>
          </Trackpoint>
          <Trackpoint>
            <Time>2023-02-23T14:29:33.000Z</Time>
            <Position>
              <LatitudeDegrees>41.562534235417842864990234375</LatitudeDegrees>
              <LongitudeDegrees>-4.5590517483651638031005859375</LongitudeDegrees>
            </Position>
            <AltitudeMeters>1324</AltitudeMeters>
            <DistanceMeters>NAN</DistanceMeters>
          </Trackpoint>
          <Trackpoint>
            <Time>2023-02-23T14:29:36.000Z</Time>
            <Position>
              <LatitudeDegrees>41.56260824762284755706787109375</LatitudeDegrees>
              <LongitudeDegrees>-4.5590815879404544830322265625</LongitudeDegrees>
            </Position>
            <AltitudeMeters>1324</AltitudeMeters>
            <DistanceMeters>NAN</DistanceMeters>
          </Trackpoint>
          <Trackpoint>
            <Time>2023-02-23T14:29:39.000Z</Time>
            <Position>
              <LatitudeDegrees>41.56268678605556488037109375</LatitudeDegrees>
              <LongitudeDegrees>-4.55908033065497875213623046875</LongitudeDegrees>
            </Position>
            <AltitudeMeters>1324</AltitudeMeters>
            <DistanceMeters>NAN</DistanceMeters>
          </Trackpoint>
          <Trackpoint>
            <Time>2023-02-23T14:29:41.000Z</Time>
            <Position>
              <LatitudeDegrees>41.562734730541706085205078125</LatitudeDegrees>
              <LongitudeDegrees>-4.5590832643210887908935546875</LongitudeDegrees>
            </Position>
            <AltitudeMeters>1324.5999755859375</AltitudeMeters>
            <DistanceMeters>NAN</DistanceMeters>
          </Trackpoint>
          <Trackpoint>
            <Time>2023-02-23T14:29:46.000Z</Time>
            <Position>
              <LatitudeDegrees>41.56289306469261646270751953125</LatitudeDegrees>
              <LongitudeDegrees>-4.55912173725664615631103515625</LongitudeDegrees>
            </Position>
            <AltitudeMeters>1325.199951171875</AltitudeMeters>
            <DistanceMeters>NAN</DistanceMeters>
          </Trackpoint>
          <Trackpoint>
            <Time>2023-02-23T14:29:50.000Z</Time>
            <Position>
              <LatitudeDegrees>41.56299716793000698089599609375</LatitudeDegrees>
              <LongitudeDegrees>-4.5591483078896999359130859375</LongitudeDegrees>
            </Position>
            <AltitudeMeters>1325.5999755859375</AltitudeMeters>
            <DistanceMeters>NAN</DistanceMeters>
          </Trackpoint>
          <Trackpoint>
            <Time>2023-02-23T14:29:52.000Z</Time>
            <Position>
              <LatitudeDegrees>41.56304528005421161651611328125</LatitudeDegrees>
              <LongitudeDegrees>-4.5591918937861919403076171875</LongitudeDegrees>
            </Position>
            <AltitudeMeters>1325.4000244140625</AltitudeMeters>
            <DistanceMeters>NAN</DistanceMeters>
          </Trackpoint>
          <Trackpoint>
            <Time>2023-02-23T14:29:57.000Z</Time>
            <Position>
              <LatitudeDegrees>41.56316698528826236724853515625</LatitudeDegrees>
              <LongitudeDegrees>-4.55925769172608852386474609375</LongitudeDegrees>
            </Position>
            <AltitudeMeters>1324.199951171875</AltitudeMeters>
            <DistanceMeters>NAN</DistanceMeters>
          </Trackpoint>
          <Trackpoint>
            <Time>2023-02-23T14:29:58.000Z</Time>
            <Position>
              <LatitudeDegrees>41.563193388283252716064453125</LatitudeDegrees>
              <LongitudeDegrees>-4.559260793030261993408203125</LongitudeDegrees>
            </Position>
            <AltitudeMeters>1323.800048828125</AltitudeMeters>
            <DistanceMeters>NAN</DistanceMeters>
          </Trackpoint>
          <Trackpoint>
            <Time>2023-02-23T14:30:00.000Z</Time>
            <Position>
              <LatitudeDegrees>41.5632492117583751678466796875</LatitudeDegrees>
              <LongitudeDegrees>-4.5592623017728328704833984375</LongitudeDegrees>
            </Position>
            <AltitudeMeters>1323.4000244140625</AltitudeMeters>
            <DistanceMeters>NAN</DistanceMeters>
          </Trackpoint>
          <Trackpoint>
            <Time>2023-02-23T14:30:02.000Z</Time>
            <Position>
              <LatitudeDegrees>41.56331115402281284332275390625</LatitudeDegrees>
              <LongitudeDegrees>-4.5592720247805118560791015625</LongitudeDegrees>
            </Position>
            <AltitudeMeters>1322.800048828125</AltitudeMeters>
            <DistanceMeters>NAN</DistanceMeters>
          </Trackpoint>
          <Trackpoint>
            <Time>2023-02-23T14:30:05.000Z</Time>
            <Position>
              <LatitudeDegrees>41.56338206492364406585693359375</LatitudeDegrees>
              <LongitudeDegrees>-4.55927319824695587158203125</LongitudeDegrees>
            </Position>
            <AltitudeMeters>1322.4000244140625</AltitudeMeters>
            <DistanceMeters>NAN</DistanceMeters>
          </Trackpoint>
          <Trackpoint>
            <Time>2023-02-23T14:30:07.000Z</Time>
            <Position>
              <LatitudeDegrees>41.563401930034160614013671875</LatitudeDegrees>
              <LongitudeDegrees>-4.5592894591391086578369140625</LongitudeDegrees>
            </Position>
            <AltitudeMeters>1322.4000244140625</AltitudeMeters>
            <DistanceMeters>NAN</DistanceMeters>
          </Trackpoint>
          <Trackpoint>
            <Time>2023-02-23T14:30:08.000Z</Time>
            <Position>
              <LatitudeDegrees>41.56341324560344219207763671875</LatitudeDegrees>
              <LongitudeDegrees>-4.55930697731673717498779296875</LongitudeDegrees>
            </Position>
            <AltitudeMeters>1322.4000244140625</AltitudeMeters>
            <DistanceMeters>NAN</DistanceMeters>
          </Trackpoint>
          <Trackpoint>
            <Time>2023-02-23T14:30:09.000Z</Time>
            <Position>
              <LatitudeDegrees>41.5634210407733917236328125</LatitudeDegrees>
              <LongitudeDegrees>-4.5593078993260860443115234375</LongitudeDegrees>
            </Position>
            <AltitudeMeters>1322.4000244140625</AltitudeMeters>
            <DistanceMeters>NAN</DistanceMeters>
          </Trackpoint>
          <Trackpoint>
            <Time>2023-02-23T14:30:14.000Z</Time>
            <Position>
              <LatitudeDegrees>41.56342028640210628509521484375</LatitudeDegrees>
              <LongitudeDegrees>-4.5593320392072200775146484375</LongitudeDegrees>
            </Position>
            <AltitudeMeters>1322.199951171875</AltitudeMeters>
            <DistanceMeters>NAN</DistanceMeters>
          </Trackpoint>
          <Trackpoint>
            <Time>2023-02-23T14:30:15.000Z</Time>
            <Position>
              <LatitudeDegrees>41.56340620480477809906005859375</LatitudeDegrees>
              <LongitudeDegrees>-4.55931887961924076080322265625</LongitudeDegrees>
            </Position>
            <AltitudeMeters>1322.199951171875</AltitudeMeters>
            <DistanceMeters>NAN</DistanceMeters>
          </Trackpoint>
          <Trackpoint>
            <Time>2023-02-23T14:30:20.000Z</Time>
            <Position>
              <LatitudeDegrees>41.56340268440544605255126953125</LatitudeDegrees>
              <LongitudeDegrees>-4.55932122655212879180908203125</LongitudeDegrees>
            </Position>
            <AltitudeMeters>1322.199951171875</AltitudeMeters>
            <DistanceMeters>NAN</DistanceMeters>
          </Trackpoint>
          <Trackpoint>
            <Time>2023-02-23T14:30:21.000Z</Time>
            <Position>
              <LatitudeDegrees>41.56340419314801692962646484375</LatitudeDegrees>
              <LongitudeDegrees>-4.5593216456472873687744140625</LongitudeDegrees>
            </Position>
            <AltitudeMeters>1322.199951171875</AltitudeMeters>
            <DistanceMeters>NAN</DistanceMeters>
          </Trackpoint>
          <Trackpoint>
            <Time>2023-02-23T14:30:29.000Z</Time>
            <Position>
              <LatitudeDegrees>41.56339731998741626739501953125</LatitudeDegrees>
              <LongitudeDegrees>-4.55931552685797214508056640625</LongitudeDegrees>
            </Position>
            <AltitudeMeters>1321.5999755859375</AltitudeMeters>
            <DistanceMeters>NAN</DistanceMeters>
          </Trackpoint>
          <Trackpoint>
            <Time>2023-02-23T14:30:31.000Z</Time>
            <Position>
              <LatitudeDegrees>41.56338608823716640472412109375</LatitudeDegrees>
              <LongitudeDegrees>-4.5593085698783397674560546875</LongitudeDegrees>
            </Position>
            <AltitudeMeters>1321.4000244140625</AltitudeMeters>
            <DistanceMeters>NAN</DistanceMeters>
          </Trackpoint>
          <Trackpoint>
            <Time>2023-02-23T14:30:37.000Z</Time>
            <Position>
              <LatitudeDegrees>41.5633870102465152740478515625</LatitudeDegrees>
              <LongitudeDegrees>-4.55930228345096111297607421875</LongitudeDegrees>
            </Position>
            <AltitudeMeters>1321.5999755859375</AltitudeMeters>
            <DistanceMeters>NAN</DistanceMeters>
          </Trackpoint>
          <Trackpoint>
            <Time>2023-02-23T14:30:38.000Z</Time>
            <Position>
              <LatitudeDegrees>41.5633963979780673980712890625</LatitudeDegrees>
              <LongitudeDegrees>-4.55930194817483425140380859375</LongitudeDegrees>
            </Position>
            <AltitudeMeters>1321.5999755859375</AltitudeMeters>
            <DistanceMeters>NAN</DistanceMeters>
          </Trackpoint>
          <Trackpoint>
            <Time>2023-02-23T14:30:43.000Z</Time>
            <Position>
              <LatitudeDegrees>41.56342414207756519317626953125</LatitudeDegrees>
              <LongitudeDegrees>-4.55930278636515140533447265625</LongitudeDegrees>
            </Position>
            <AltitudeMeters>1321.800048828125</AltitudeMeters>
            <DistanceMeters>NAN</DistanceMeters>
          </Trackpoint>
          <Trackpoint>
            <Time>2023-02-23T14:30:51.000Z</Time>
            <Position>
              <LatitudeDegrees>41.56342975795269012451171875</LatitudeDegrees>
              <LongitudeDegrees>-4.55930882133543491363525390625</LongitudeDegrees>
            </Position>
            <AltitudeMeters>1322.199951171875</AltitudeMeters>
            <DistanceMeters>NAN</DistanceMeters>
          </Trackpoint>
          <Trackpoint>
            <Time>2023-02-23T14:30:55.000Z</Time>
            <Position>
              <LatitudeDegrees>41.56342967413365840911865234375</LatitudeDegrees>
              <LongitudeDegrees>-4.55931007862091064453125</LongitudeDegrees>
            </Position>
            <AltitudeMeters>1321.4000244140625</AltitudeMeters>
            <DistanceMeters>NAN</DistanceMeters>
          </Trackpoint>
          <Trackpoint>
            <Time>2023-02-23T14:31:00.000Z</Time>
            <Position>
              <LatitudeDegrees>41.56343252398073673248291015625</LatitudeDegrees>
              <LongitudeDegrees>-4.55932307057082653045654296875</LongitudeDegrees>
            </Position>
            <AltitudeMeters>1321.5999755859375</AltitudeMeters>
            <DistanceMeters>NAN</DistanceMeters>
          </Trackpoint>
          <Trackpoint>
            <Time>2023-02-23T14:31:05.000Z</Time>
            <Position>
              <LatitudeDegrees>41.56343336217105388641357421875</LatitudeDegrees>
              <LongitudeDegrees>-4.559329859912395477294921875</LongitudeDegrees>
            </Position>
            <AltitudeMeters>1321.4000244140625</AltitudeMeters>
            <DistanceMeters>NAN</DistanceMeters>
          </Trackpoint>
          <Trackpoint>
            <Time>2023-02-23T14:31:07.000Z</Time>
            <Position>
              <LatitudeDegrees>41.5634403191506862640380859375</LatitudeDegrees>
              <LongitudeDegrees>-4.55933145247399806976318359375</LongitudeDegrees>
            </Position>
            <AltitudeMeters>1321.5999755859375</AltitudeMeters>
            <DistanceMeters>NAN</DistanceMeters>
          </Trackpoint>
          <Trackpoint>
            <Time>2023-02-23T14:31:10.000Z</Time>
            <Position>
              <LatitudeDegrees>41.56343235634267330169677734375</LatitudeDegrees>
              <LongitudeDegrees>-4.55930965952575206756591796875</LongitudeDegrees>
            </Position>
            <AltitudeMeters>1321.800048828125</AltitudeMeters>
            <DistanceMeters>NAN</DistanceMeters>
          </Trackpoint>
          <Trackpoint>
            <Time>2023-02-23T14:31:12.000Z</Time>
            <Position>
              <LatitudeDegrees>41.5634540654718875885009765625</LatitudeDegrees>
              <LongitudeDegrees>-4.5592928119003772735595703125</LongitudeDegrees>
            </Position>
            <AltitudeMeters>1321.800048828125</AltitudeMeters>
            <DistanceMeters>NAN</DistanceMeters>
          </Trackpoint>
          <Trackpoint>
            <Time>2023-02-23T14:31:13.000Z</Time>
            <Position>
              <LatitudeDegrees>41.56346353702247142791748046875</LatitudeDegrees>
              <LongitudeDegrees>-4.5592894591391086578369140625</LongitudeDegrees>
            </Position>
            <AltitudeMeters>1321.5999755859375</AltitudeMeters>
            <DistanceMeters>NAN</DistanceMeters>
          </Trackpoint>
          <Trackpoint>
            <Time>2023-02-23T14:31:19.000Z</Time>
            <Position>
              <LatitudeDegrees>41.563572250306606292724609375</LatitudeDegrees>
              <LongitudeDegrees>-4.55924905836582183837890625</LongitudeDegrees>
            </Position>
            <AltitudeMeters>1321</AltitudeMeters>
            <DistanceMeters>NAN</DistanceMeters>
          </Trackpoint>
          <Trackpoint>
            <Time>2023-02-23T14:31:24.000Z</Time>
            <Position>
              <LatitudeDegrees>41.56365397386252880096435546875</LatitudeDegrees>
              <LongitudeDegrees>-4.55923707224428653717041015625</LongitudeDegrees>
            </Position>
            <AltitudeMeters>1321.199951171875</AltitudeMeters>
            <DistanceMeters>NAN</DistanceMeters>
          </Trackpoint>
          <Trackpoint>
            <Time>2023-02-23T14:31:26.000Z</Time>
            <Position>
              <LatitudeDegrees>41.56366285867989063262939453125</LatitudeDegrees>
              <LongitudeDegrees>-4.55924126319587230682373046875</LongitudeDegrees>
            </Position>
            <AltitudeMeters>1321.199951171875</AltitudeMeters>
            <DistanceMeters>NAN</DistanceMeters>
          </Trackpoint>
          <Trackpoint>
            <Time>2023-02-23T14:31:30.000Z</Time>
            <Position>
              <LatitudeDegrees>41.563682220876216888427734375</LatitudeDegrees>
              <LongitudeDegrees>-4.55924629233777523040771484375</LongitudeDegrees>
            </Position>
            <AltitudeMeters>1320.5999755859375</AltitudeMeters>
            <DistanceMeters>NAN</DistanceMeters>
          </Trackpoint>
          <Trackpoint>
            <Time>2023-02-23T14:31:31.000Z</Time>
            <Position>
              <LatitudeDegrees>41.5636957995593547821044921875</LatitudeDegrees>
              <LongitudeDegrees>-4.559246711432933807373046875</LongitudeDegrees>
            </Position>
            <AltitudeMeters>1320.4000244140625</AltitudeMeters>
            <DistanceMeters>NAN</DistanceMeters>
          </Trackpoint>
          <Trackpoint>
            <Time>2023-02-23T14:31:32.000Z</Time>
            <Position>
              <LatitudeDegrees>41.56370870769023895263671875</LatitudeDegrees>
              <LongitudeDegrees>-4.5592472143471240997314453125</LongitudeDegrees>
            </Position>
            <AltitudeMeters>1320.199951171875</AltitudeMeters>
            <DistanceMeters>NAN</DistanceMeters>
          </Trackpoint>
          <Trackpoint>
            <Time>2023-02-23T14:31:33.000Z</Time>
            <Position>
              <LatitudeDegrees>41.56372186727821826934814453125</LatitudeDegrees>
              <LongitudeDegrees>-4.5592482201755046844482421875</LongitudeDegrees>
            </Position>
            <AltitudeMeters>1320</AltitudeMeters>
            <DistanceMeters>NAN</DistanceMeters>
          </Trackpoint>
          <Trackpoint>
            <Time>2023-02-23T14:31:36.000Z</Time>
            <Position>
              <LatitudeDegrees>41.56377953477203845977783203125</LatitudeDegrees>
              <LongitudeDegrees>-4.55924369394779205322265625</LongitudeDegrees>
            </Position>
            <AltitudeMeters>1319.800048828125</AltitudeMeters>
            <DistanceMeters>NAN</DistanceMeters>
          </Trackpoint>
          <Trackpoint>
            <Time>2023-02-23T14:31:39.000Z</Time>
            <Position>
              <LatitudeDegrees>41.5638486854732036590576171875</LatitudeDegrees>
              <LongitudeDegrees>-4.55924293957650661468505859375</LongitudeDegrees>
            </Position>
            <AltitudeMeters>1319.800048828125</AltitudeMeters>
            <DistanceMeters>NAN</DistanceMeters>
          </Trackpoint>
          <Trackpoint>
            <Time>2023-02-23T14:31:43.000Z</Time>
            <Position>
              <LatitudeDegrees>41.5639408864080905914306640625</LatitudeDegrees>
              <LongitudeDegrees>-4.5592309534549713134765625</LongitudeDegrees>
            </Position>
            <AltitudeMeters>1319.800048828125</AltitudeMeters>
            <DistanceMeters>NAN</DistanceMeters>
          </Trackpoint>
          <Trackpoint>
            <Time>2023-02-23T14:31:45.000Z</Time>
            <Position>
              <LatitudeDegrees>41.56397650949656963348388671875</LatitudeDegrees>
              <LongitudeDegrees>-4.55923288129270076751708984375</LongitudeDegrees>
            </Position>
            <AltitudeMeters>1319.4000244140625</AltitudeMeters>
            <DistanceMeters>NAN</DistanceMeters>
          </Trackpoint>
          <Trackpoint>
            <Time>2023-02-23T14:31:46.000Z</Time>
            <Position>
              <LatitudeDegrees>41.56399704515933990478515625</LatitudeDegrees>
              <LongitudeDegrees>-4.55923304893076419830322265625</LongitudeDegrees>
            </Position>
            <AltitudeMeters>1319</AltitudeMeters>
            <DistanceMeters>NAN</DistanceMeters>
          </Trackpoint>
          <Trackpoint>
            <Time>2023-02-23T14:31:50.000Z</Time>
            <Position>
              <LatitudeDegrees>41.56410005874931812286376953125</LatitudeDegrees>
              <LongitudeDegrees>-4.55925710499286651611328125</LongitudeDegrees>
            </Position>
            <AltitudeMeters>1318.4000244140625</AltitudeMeters>
            <DistanceMeters>NAN</DistanceMeters>
          </Trackpoint>
          <Trackpoint>
            <Time>2023-02-23T14:31:53.000Z</Time>
            <Position>
              <LatitudeDegrees>41.5641883201897144317626953125</LatitudeDegrees>
              <LongitudeDegrees>-4.55926674418151378631591796875</LongitudeDegrees>
            </Position>
            <AltitudeMeters>1318.199951171875</AltitudeMeters>
            <DistanceMeters>NAN</DistanceMeters>
          </Trackpoint>
          <Trackpoint>
            <Time>2023-02-23T14:31:58.000Z</Time>
            <Position>
              <LatitudeDegrees>41.56432871706783771514892578125</LatitudeDegrees>
              <LongitudeDegrees>-4.55927462317049503326416015625</LongitudeDegrees>
            </Position>
            <AltitudeMeters>1317.800048828125</AltitudeMeters>
            <DistanceMeters>NAN</DistanceMeters>
          </Trackpoint>
          <Trackpoint>
            <Time>2023-02-23T14:31:59.000Z</Time>
            <Position>
              <LatitudeDegrees>41.5643593110144138336181640625</LatitudeDegrees>
              <LongitudeDegrees>-4.55927093513309955596923828125</LongitudeDegrees>
            </Position>
            <AltitudeMeters>1317.5999755859375</AltitudeMeters>
            <DistanceMeters>NAN</DistanceMeters>
          </Trackpoint>
          <Trackpoint>
            <Time>2023-02-23T14:32:07.000Z</Time>
            <Position>
              <LatitudeDegrees>41.5646493248641490936279296875</LatitudeDegrees>
              <LongitudeDegrees>-4.55923958681523799896240234375</LongitudeDegrees>
            </Position>
            <AltitudeMeters>1316.800048828125</AltitudeMeters>
            <DistanceMeters>NAN</DistanceMeters>
          </Trackpoint>
          <Trackpoint>
            <Time>2023-02-23T14:32:09.000Z</Time>
            <Position>
              <LatitudeDegrees>41.56472736038267612457275390625</LatitudeDegrees>
              <LongitudeDegrees>-4.55921812914311885833740234375</LongitudeDegrees>
            </Position>
            <AltitudeMeters>1316.4000244140625</AltitudeMeters>
            <DistanceMeters>NAN</DistanceMeters>
          </Trackpoint>
          <Trackpoint>
            <Time>2023-02-23T14:32:12.000Z</Time>
            <Position>
              <LatitudeDegrees>41.56483917497098445892333984375</LatitudeDegrees>
              <LongitudeDegrees>-4.55919348634779453277587890625</LongitudeDegrees>
            </Position>
            <AltitudeMeters>1315.4000244140625</AltitudeMeters>
            <DistanceMeters>NAN</DistanceMeters>
          </Trackpoint>
          <Trackpoint>
            <Time>2023-02-23T14:32:14.000Z</Time>
            <Position>
              <LatitudeDegrees>41.564879156649112701416015625</LatitudeDegrees>
              <LongitudeDegrees>-4.55918929539620876312255859375</LongitudeDegrees>
            </Position>
            <AltitudeMeters>1315</AltitudeMeters>
            <DistanceMeters>NAN</DistanceMeters>
          </Trackpoint>
          <Trackpoint>
            <Time>2023-02-23T14:32:20.000Z</Time>
            <Position>
              <LatitudeDegrees>41.56490740366280078887939453125</LatitudeDegrees>
              <LongitudeDegrees>-4.55920748412609100341796875</LongitudeDegrees>
            </Position>
            <AltitudeMeters>1314.800048828125</AltitudeMeters>
            <DistanceMeters>NAN</DistanceMeters>
          </Trackpoint>
          <Trackpoint>
            <Time>2023-02-23T14:32:21.000Z</Time>
            <Position>
              <LatitudeDegrees>41.56492064706981182098388671875</LatitudeDegrees>
              <LongitudeDegrees>-4.5592012815177440643310546875</LongitudeDegrees>
            </Position>
            <AltitudeMeters>1314.800048828125</AltitudeMeters>
            <DistanceMeters>NAN</DistanceMeters>
          </Trackpoint>
          <Trackpoint>
            <Time>2023-02-23T14:32:24.000Z</Time>
            <Position>
              <LatitudeDegrees>41.56496993266046047210693359375</LatitudeDegrees>
              <LongitudeDegrees>-4.559187032282352447509765625</LongitudeDegrees>
            </Position>
            <AltitudeMeters>1314.5999755859375</AltitudeMeters>
            <DistanceMeters>NAN</DistanceMeters>
          </Trackpoint>
          <Trackpoint>
            <Time>2023-02-23T14:32:25.000Z</Time>
            <Position>
              <LatitudeDegrees>41.56498636119067668914794921875</LatitudeDegrees>
              <LongitudeDegrees>-4.559183008968830108642578125</LongitudeDegrees>
            </Position>
            <AltitudeMeters>1314.5999755859375</AltitudeMeters>
            <DistanceMeters>NAN</DistanceMeters>
          </Trackpoint>
          <Trackpoint>
            <Time>2023-02-23T14:32:29.000Z</Time>
            <Position>
              <LatitudeDegrees>41.56506984494626522064208984375</LatitudeDegrees>
              <LongitudeDegrees>-4.55917923711240291595458984375</LongitudeDegrees>
            </Position>
            <AltitudeMeters>1314.199951171875</AltitudeMeters>
            <DistanceMeters>NAN</DistanceMeters>
          </Trackpoint>
          <Trackpoint>
            <Time>2023-02-23T14:32:32.000Z</Time>
            <Position>
              <LatitudeDegrees>41.56515483744442462921142578125</LatitudeDegrees>
              <LongitudeDegrees>-4.55917940475046634674072265625</LongitudeDegrees>
            </Position>
            <AltitudeMeters>1314</AltitudeMeters>
            <DistanceMeters>NAN</DistanceMeters>
          </Trackpoint>
          <Trackpoint>
            <Time>2023-02-23T14:32:38.000Z</Time>
            <Position>
              <LatitudeDegrees>41.56532130204141139984130859375</LatitudeDegrees>
              <LongitudeDegrees>-4.5592093281447887420654296875</LongitudeDegrees>
            </Position>
            <AltitudeMeters>1313.5999755859375</AltitudeMeters>
            <DistanceMeters>NAN</DistanceMeters>
          </Trackpoint>
          <Trackpoint>
            <Time>2023-02-23T14:32:39.000Z</Time>
            <Position>
              <LatitudeDegrees>41.5653487108647823333740234375</LatitudeDegrees>
              <LongitudeDegrees>-4.55922282300889492034912109375</LongitudeDegrees>
            </Position>
            <AltitudeMeters>1313.4000244140625</AltitudeMeters>
            <DistanceMeters>NAN</DistanceMeters>
          </Trackpoint>
          <Trackpoint>
            <Time>2023-02-23T14:32:41.000Z</Time>
            <Position>
              <LatitudeDegrees>41.56539849936962127685546875</LatitudeDegrees>
              <LongitudeDegrees>-4.5592532493174076080322265625</LongitudeDegrees>
            </Position>
            <AltitudeMeters>1313.199951171875</AltitudeMeters>
            <DistanceMeters>NAN</DistanceMeters>
          </Trackpoint>
          <Trackpoint>
            <Time>2023-02-23T14:32:43.000Z</Time>
            <Position>
              <LatitudeDegrees>41.56544770114123821258544921875</LatitudeDegrees>
              <LongitudeDegrees>-4.5592713542282581329345703125</LongitudeDegrees>
            </Position>
            <AltitudeMeters>1312.800048828125</AltitudeMeters>
            <DistanceMeters>NAN</DistanceMeters>
          </Trackpoint>
          <Trackpoint>
            <Time>2023-02-23T14:32:45.000Z</Time>
            <Position>
              <LatitudeDegrees>41.5654724277555942535400390625</LatitudeDegrees>
              <LongitudeDegrees>-4.55927579663693904876708984375</LongitudeDegrees>
            </Position>
            <AltitudeMeters>1312.199951171875</AltitudeMeters>
            <DistanceMeters>NAN</DistanceMeters>
          </Trackpoint>
          <Trackpoint>
            <Time>2023-02-23T14:32:47.000Z</Time>
            <Position>
              <LatitudeDegrees>41.56548106111586093902587890625</LatitudeDegrees>
              <LongitudeDegrees>-4.55929608084261417388916015625</LongitudeDegrees>
            </Position>
            <AltitudeMeters>1312.199951171875</AltitudeMeters>
            <DistanceMeters>NAN</DistanceMeters>
          </Trackpoint>
          <Trackpoint>
            <Time>2023-02-23T14:32:49.000Z</Time>
            <Position>
              <LatitudeDegrees>41.56550469808280467987060546875</LatitudeDegrees>
              <LongitudeDegrees>-4.559350647032260894775390625</LongitudeDegrees>
            </Position>
            <AltitudeMeters>1312.199951171875</AltitudeMeters>
            <DistanceMeters>NAN</DistanceMeters>
          </Trackpoint>
          <Trackpoint>
            <Time>2023-02-23T14:32:52.000Z</Time>
            <Position>
              <LatitudeDegrees>41.56551810912787914276123046875</LatitudeDegrees>
              <LongitudeDegrees>-4.55936112441122531890869140625</LongitudeDegrees>
            </Position>
            <AltitudeMeters>1311.800048828125</AltitudeMeters>
            <DistanceMeters>NAN</DistanceMeters>
          </Trackpoint>
          <Trackpoint>
            <Time>2023-02-23T14:32:54.000Z</Time>
            <Position>
              <LatitudeDegrees>41.56552322208881378173828125</LatitudeDegrees>
              <LongitudeDegrees>-4.55936078913509845733642578125</LongitudeDegrees>
            </Position>
            <AltitudeMeters>1311.4000244140625</AltitudeMeters>
            <DistanceMeters>NAN</DistanceMeters>
          </Trackpoint>
          <Trackpoint>
            <Time>2023-02-23T14:33:00.000Z</Time>
            <Position>
              <LatitudeDegrees>41.56552682630717754364013671875</LatitudeDegrees>
              <LongitudeDegrees>-4.55935391597449779510498046875</LongitudeDegrees>
            </Position>
            <AltitudeMeters>1311.4000244140625</AltitudeMeters>
            <DistanceMeters>NAN</DistanceMeters>
          </Trackpoint>
          <Trackpoint>
            <Time>2023-02-23T14:33:06.000Z</Time>
            <Position>
              <LatitudeDegrees>41.5655347891151905059814453125</LatitudeDegrees>
              <LongitudeDegrees>-4.55935358069837093353271484375</LongitudeDegrees>
            </Position>
            <AltitudeMeters>1311</AltitudeMeters>
            <DistanceMeters>NAN</DistanceMeters>
          </Trackpoint>
          <Trackpoint>
            <Time>2023-02-23T14:33:07.000Z</Time>
            <Position>
              <LatitudeDegrees>41.56553504057228565216064453125</LatitudeDegrees>
              <LongitudeDegrees>-4.55935123376548290252685546875</LongitudeDegrees>
            </Position>
            <AltitudeMeters>1311.199951171875</AltitudeMeters>
            <DistanceMeters>NAN</DistanceMeters>
          </Trackpoint>
          <Trackpoint>
            <Time>2023-02-23T14:33:13.000Z</Time>
            <Position>
              <LatitudeDegrees>41.56553219072520732879638671875</LatitudeDegrees>
              <LongitudeDegrees>-4.55933966673910617828369140625</LongitudeDegrees>
            </Position>
            <AltitudeMeters>1311.4000244140625</AltitudeMeters>
            <DistanceMeters>NAN</DistanceMeters>
          </Trackpoint>
          <Trackpoint>
            <Time>2023-02-23T14:33:14.000Z</Time>
            <Position>
              <LatitudeDegrees>41.5655324421823024749755859375</LatitudeDegrees>
              <LongitudeDegrees>-4.55934050492942333221435546875</LongitudeDegrees>
            </Position>
            <AltitudeMeters>1311.4000244140625</AltitudeMeters>
            <DistanceMeters>NAN</DistanceMeters>
          </Trackpoint>
          <Trackpoint>
            <Time>2023-02-23T14:33:23.000Z</Time>
            <Position>
              <LatitudeDegrees>41.565547026693820953369140625</LatitudeDegrees>
              <LongitudeDegrees>-4.55933354794979095458984375</LongitudeDegrees>
            </Position>
            <AltitudeMeters>1311.4000244140625</AltitudeMeters>
            <DistanceMeters>NAN</DistanceMeters>
          </Trackpoint>
          <Trackpoint>
            <Time>2023-02-23T14:33:24.000Z</Time>
            <Position>
              <LatitudeDegrees>41.56555348075926303863525390625</LatitudeDegrees>
              <LongitudeDegrees>-4.559335894882678985595703125</LongitudeDegrees>
            </Position>
            <AltitudeMeters>1311.4000244140625</AltitudeMeters>
            <DistanceMeters>NAN</DistanceMeters>
          </Trackpoint>
          <Trackpoint>
            <Time>2023-02-23T14:33:30.000Z</Time>
            <Position>
              <LatitudeDegrees>41.56561617739498615264892578125</LatitudeDegrees>
              <LongitudeDegrees>-4.55934570170938968658447265625</LongitudeDegrees>
            </Position>
            <AltitudeMeters>1311.800048828125</AltitudeMeters>
            <DistanceMeters>NAN</DistanceMeters>
          </Trackpoint>
          <Trackpoint>
            <Time>2023-02-23T14:33:38.000Z</Time>
            <Position>
              <LatitudeDegrees>41.5657379664480686187744140625</LatitudeDegrees>
              <LongitudeDegrees>-4.55938325263559818267822265625</LongitudeDegrees>
            </Position>
            <AltitudeMeters>1311.4000244140625</AltitudeMeters>
            <DistanceMeters>NAN</DistanceMeters>
          </Trackpoint>
          <Trackpoint>
            <Time>2023-02-23T14:33:39.000Z</Time>
            <Position>
              <LatitudeDegrees>41.56575380824506282806396484375</LatitudeDegrees>
              <LongitudeDegrees>-4.55939264036715030670166015625</LongitudeDegrees>
            </Position>
            <AltitudeMeters>1311.199951171875</AltitudeMeters>
            <DistanceMeters>NAN</DistanceMeters>
          </Trackpoint>
          <Trackpoint>
            <Time>2023-02-23T14:33:40.000Z</Time>
            <Position>
              <LatitudeDegrees>41.56577090732753276824951171875</LatitudeDegrees>
              <LongitudeDegrees>-4.5594027824699878692626953125</LongitudeDegrees>
            </Position>
            <AltitudeMeters>1310.800048828125</AltitudeMeters>
            <DistanceMeters>NAN</DistanceMeters>
          </Trackpoint>
          <Trackpoint>
            <Time>2023-02-23T14:33:42.000Z</Time>
            <Position>
              <LatitudeDegrees>41.56581424176692962646484375</LatitudeDegrees>
              <LongitudeDegrees>-4.55942348577082157135009765625</LongitudeDegrees>
            </Position>
            <AltitudeMeters>1310.5999755859375</AltitudeMeters>
            <DistanceMeters>NAN</DistanceMeters>
          </Trackpoint>
          <Trackpoint>
            <Time>2023-02-23T14:33:43.000Z</Time>
            <Position>
              <LatitudeDegrees>41.5658402256667613983154296875</LatitudeDegrees>
              <LongitudeDegrees>-4.559430778026580810546875</LongitudeDegrees>
            </Position>
            <AltitudeMeters>1310.5999755859375</AltitudeMeters>
            <DistanceMeters>NAN</DistanceMeters>
          </Trackpoint>
          <Trackpoint>
            <Time>2023-02-23T14:33:44.000Z</Time>
            <Position>
              <LatitudeDegrees>41.5658663772046566009521484375</LatitudeDegrees>
              <LongitudeDegrees>-4.559439159929752349853515625</LongitudeDegrees>
            </Position>
            <AltitudeMeters>1310.5999755859375</AltitudeMeters>
            <DistanceMeters>NAN</DistanceMeters>
          </Trackpoint>
          <Trackpoint>
            <Time>2023-02-23T14:33:47.000Z</Time>
            <Position>
              <LatitudeDegrees>41.5659552253782749176025390625</LatitudeDegrees>
              <LongitudeDegrees>-4.559467323124408721923828125</LongitudeDegrees>
            </Position>
            <AltitudeMeters>1310.199951171875</AltitudeMeters>
            <DistanceMeters>NAN</DistanceMeters>
          </Trackpoint>
          <Trackpoint>
            <Time>2023-02-23T14:33:48.000Z</Time>
            <Position>
              <LatitudeDegrees>41.5659820474684238433837890625</LatitudeDegrees>
              <LongitudeDegrees>-4.559479393064975738525390625</LongitudeDegrees>
            </Position>
            <AltitudeMeters>1310</AltitudeMeters>
            <DistanceMeters>NAN</DistanceMeters>
          </Trackpoint>
          <Trackpoint>
            <Time>2023-02-23T14:33:50.000Z</Time>
            <Position>
              <LatitudeDegrees>41.5660326741635799407958984375</LatitudeDegrees>
              <LongitudeDegrees>-4.55951535142958164215087890625</LongitudeDegrees>
            </Position>
            <AltitudeMeters>1310</AltitudeMeters>
            <DistanceMeters>NAN</DistanceMeters>
          </Trackpoint>
          <Trackpoint>
            <Time>2023-02-23T14:33:54.000Z</Time>
            <Position>
              <LatitudeDegrees>41.5661302395164966583251953125</LatitudeDegrees>
              <LongitudeDegrees>-4.55963403917849063873291015625</LongitudeDegrees>
            </Position>
            <AltitudeMeters>1309</AltitudeMeters>
            <DistanceMeters>NAN</DistanceMeters>
          </Trackpoint>
          <Trackpoint>
            <Time>2023-02-23T14:33:58.000Z</Time>
            <Position>
              <LatitudeDegrees>41.566217578947544097900390625</LatitudeDegrees>
              <LongitudeDegrees>-4.55974987708032131195068359375</LongitudeDegrees>
            </Position>
            <AltitudeMeters>1309</AltitudeMeters>
            <DistanceMeters>NAN</DistanceMeters>
          </Trackpoint>
          <Trackpoint>
            <Time>2023-02-23T14:34:04.000Z</Time>
            <Position>
              <LatitudeDegrees>41.56634674407541751861572265625</LatitudeDegrees>
              <LongitudeDegrees>-4.55994936637580394744873046875</LongitudeDegrees>
            </Position>
            <AltitudeMeters>1308</AltitudeMeters>
            <DistanceMeters>NAN</DistanceMeters>
          </Trackpoint>
          <Trackpoint>
            <Time>2023-02-23T14:34:05.000Z</Time>
            <Position>
              <LatitudeDegrees>41.5663669444620609283447265625</LatitudeDegrees>
              <LongitudeDegrees>-4.5599806308746337890625</LongitudeDegrees>
            </Position>
            <AltitudeMeters>1308</AltitudeMeters>
            <DistanceMeters>NAN</DistanceMeters>
          </Trackpoint>
          <Trackpoint>
            <Time>2023-02-23T14:34:11.000Z</Time>
            <Position>
              <LatitudeDegrees>41.566519998013973236083984375</LatitudeDegrees>
              <LongitudeDegrees>-4.56014634110033512115478515625</LongitudeDegrees>
            </Position>
            <AltitudeMeters>1306.800048828125</AltitudeMeters>
            <DistanceMeters>NAN</DistanceMeters>
          </Trackpoint>
          <Trackpoint>
            <Time>2023-02-23T14:34:12.000Z</Time>
            <Position>
              <LatitudeDegrees>41.56654405407607555389404296875</LatitudeDegrees>
              <LongitudeDegrees>-4.56015857867896556854248046875</LongitudeDegrees>
            </Position>
            <AltitudeMeters>1306.4000244140625</AltitudeMeters>
            <DistanceMeters>NAN</DistanceMeters>
          </Trackpoint>
          <Trackpoint>
            <Time>2023-02-23T14:34:16.000Z</Time>
            <Position>
              <LatitudeDegrees>41.56660306267440319061279296875</LatitudeDegrees>
              <LongitudeDegrees>-4.56019143573939800262451171875</LongitudeDegrees>
            </Position>
            <AltitudeMeters>1305.800048828125</AltitudeMeters>
            <DistanceMeters>NAN</DistanceMeters>
          </Trackpoint>
          <Trackpoint>
            <Time>2023-02-23T14:34:17.000Z</Time>
            <Position>
              <LatitudeDegrees>41.56660390086472034454345703125</LatitudeDegrees>
              <LongitudeDegrees>-4.56019185483455657958984375</LongitudeDegrees>
            </Position>
            <AltitudeMeters>1305.800048828125</AltitudeMeters>
            <DistanceMeters>NAN</DistanceMeters>
          </Trackpoint>
          <Trackpoint>
            <Time>2023-02-23T14:34:24.000Z</Time>
            <Position>
              <LatitudeDegrees>41.566593088209629058837890625</LatitudeDegrees>
              <LongitudeDegrees>-4.560180790722370147705078125</LongitudeDegrees>
            </Position>
            <AltitudeMeters>1306</AltitudeMeters>
            <DistanceMeters>NAN</DistanceMeters>
          </Trackpoint>
          <Trackpoint>
            <Time>2023-02-23T14:34:28.000Z</Time>
            <Position>
              <LatitudeDegrees>41.56660540960729122161865234375</LatitudeDegrees>
              <LongitudeDegrees>-4.56018975935876369476318359375</LongitudeDegrees>
            </Position>
            <AltitudeMeters>1305.800048828125</AltitudeMeters>
            <DistanceMeters>NAN</DistanceMeters>
          </Trackpoint>
          <Trackpoint>
            <Time>2023-02-23T14:34:31.000Z</Time>
            <Position>
              <LatitudeDegrees>41.56663910485804080963134765625</LatitudeDegrees>
              <LongitudeDegrees>-4.5602010749280452728271484375</LongitudeDegrees>
            </Position>
            <AltitudeMeters>1306.199951171875</AltitudeMeters>
            <DistanceMeters>NAN</DistanceMeters>
          </Trackpoint>
          <Trackpoint>
            <Time>2023-02-23T14:34:37.000Z</Time>
            <Position>
              <LatitudeDegrees>41.56678746454417705535888671875</LatitudeDegrees>
              <LongitudeDegrees>-4.56027500331401824951171875</LongitudeDegrees>
            </Position>
            <AltitudeMeters>1305.5999755859375</AltitudeMeters>
            <DistanceMeters>NAN</DistanceMeters>
          </Trackpoint>
          <Trackpoint>
            <Time>2023-02-23T14:34:40.000Z</Time>
            <Position>
              <LatitudeDegrees>41.56688285060226917266845703125</LatitudeDegrees>
              <LongitudeDegrees>-4.560347087681293487548828125</LongitudeDegrees>
            </Position>
            <AltitudeMeters>1305</AltitudeMeters>
            <DistanceMeters>NAN</DistanceMeters>
          </Trackpoint>
          <Trackpoint>
            <Time>2023-02-23T14:34:41.000Z</Time>
            <Position>
              <LatitudeDegrees>41.56691939570009708404541015625</LatitudeDegrees>
              <LongitudeDegrees>-4.56037533469498157501220703125</LongitudeDegrees>
            </Position>
            <AltitudeMeters>1304.5999755859375</AltitudeMeters>
            <DistanceMeters>NAN</DistanceMeters>
          </Trackpoint>
          <Trackpoint>
            <Time>2023-02-23T14:34:42.000Z</Time>
            <Position>
              <LatitudeDegrees>41.56695476733148097991943359375</LatitudeDegrees>
              <LongitudeDegrees>-4.56040735356509685516357421875</LongitudeDegrees>
            </Position>
            <AltitudeMeters>1304.4000244140625</AltitudeMeters>
            <DistanceMeters>NAN</DistanceMeters>
          </Trackpoint>
          <Trackpoint>
            <Time>2023-02-23T14:34:43.000Z</Time>
            <Position>
              <LatitudeDegrees>41.56699265353381633758544921875</LatitudeDegrees>
              <LongitudeDegrees>-4.5604431442916393280029296875</LongitudeDegrees>
            </Position>
            <AltitudeMeters>1304.4000244140625</AltitudeMeters>
            <DistanceMeters>NAN</DistanceMeters>
          </Trackpoint>
          <Trackpoint>
            <Time>2023-02-23T14:34:46.000Z</Time>
            <Position>
              <LatitudeDegrees>41.56710228882730007171630859375</LatitudeDegrees>
              <LongitudeDegrees>-4.56055118702352046966552734375</LongitudeDegrees>
            </Position>
            <AltitudeMeters>1303.5999755859375</AltitudeMeters>
            <DistanceMeters>NAN</DistanceMeters>
          </Trackpoint>
          <Trackpoint>
            <Time>2023-02-23T14:34:51.000Z</Time>
            <Position>
              <LatitudeDegrees>41.567297168076038360595703125</LatitudeDegrees>
              <LongitudeDegrees>-4.56072737462818622589111328125</LongitudeDegrees>
            </Position>
            <AltitudeMeters>1303</AltitudeMeters>
            <DistanceMeters>NAN</DistanceMeters>
          </Trackpoint>
          <Trackpoint>
            <Time>2023-02-23T14:34:52.000Z</Time>
            <Position>
              <LatitudeDegrees>41.5673311986029148101806640625</LatitudeDegrees>
              <LongitudeDegrees>-4.5607606507837772369384765625</LongitudeDegrees>
            </Position>
            <AltitudeMeters>1302.5999755859375</AltitudeMeters>
            <DistanceMeters>NAN</DistanceMeters>
          </Trackpoint>
          <Trackpoint>
            <Time>2023-02-23T14:34:56.000Z</Time>
            <Position>
              <LatitudeDegrees>41.56743991188704967498779296875</LatitudeDegrees>
              <LongitudeDegrees>-4.56086500547826290130615234375</LongitudeDegrees>
            </Position>
            <AltitudeMeters>1301.4000244140625</AltitudeMeters>
            <DistanceMeters>NAN</DistanceMeters>
          </Trackpoint>
          <Trackpoint>
            <Time>2023-02-23T14:34:57.000Z</Time>
            <Position>
              <LatitudeDegrees>41.567452065646648406982421875</LatitudeDegrees>
              <LongitudeDegrees>-4.56087456084787845611572265625</LongitudeDegrees>
            </Position>
            <AltitudeMeters>1301.4000244140625</AltitudeMeters>
            <DistanceMeters>NAN</DistanceMeters>
          </Trackpoint>
          <Trackpoint>
            <Time>2023-02-23T14:35:02.000Z</Time>
            <Position>
              <LatitudeDegrees>41.56747058965265750885009765625</LatitudeDegrees>
              <LongitudeDegrees>-4.5609034784138202667236328125</LongitudeDegrees>
            </Position>
            <AltitudeMeters>1300.4000244140625</AltitudeMeters>
            <DistanceMeters>NAN</DistanceMeters>
          </Trackpoint>
          <Trackpoint>
            <Time>2023-02-23T14:35:03.000Z</Time>
            <Position>
              <LatitudeDegrees>41.56746975146234035491943359375</LatitudeDegrees>
              <LongitudeDegrees>-4.56090792082250118255615234375</LongitudeDegrees>
            </Position>
            <AltitudeMeters>1300.4000244140625</AltitudeMeters>
            <DistanceMeters>NAN</DistanceMeters>
          </Trackpoint>
          <Trackpoint>
            <Time>2023-02-23T14:35:06.000Z</Time>
            <Position>
              <LatitudeDegrees>41.5674713440239429473876953125</LatitudeDegrees>
              <LongitudeDegrees>-4.56090942956507205963134765625</LongitudeDegrees>
            </Position>
            <AltitudeMeters>1300.5999755859375</AltitudeMeters>
            <DistanceMeters>NAN</DistanceMeters>
          </Trackpoint>
          <Trackpoint>
            <Time>2023-02-23T14:35:08.000Z</Time>
            <Position>
              <LatitudeDegrees>41.56746187247335910797119140625</LatitudeDegrees>
              <LongitudeDegrees>-4.560934491455554962158203125</LongitudeDegrees>
            </Position>
            <AltitudeMeters>1300.5999755859375</AltitudeMeters>
            <DistanceMeters>NAN</DistanceMeters>
          </Trackpoint>
          <Trackpoint>
            <Time>2023-02-23T14:35:14.000Z</Time>
            <Position>
              <LatitudeDegrees>41.5676024369895458221435546875</LatitudeDegrees>
              <LongitudeDegrees>-4.5611049793660640716552734375</LongitudeDegrees>
            </Position>
            <AltitudeMeters>1300.199951171875</AltitudeMeters>
            <DistanceMeters>NAN</DistanceMeters>
          </Trackpoint>
          <Trackpoint>
            <Time>2023-02-23T14:35:17.000Z</Time>
            <Position>
              <LatitudeDegrees>41.56768717803061008453369140625</LatitudeDegrees>
              <LongitudeDegrees>-4.5611728727817535400390625</LongitudeDegrees>
            </Position>
            <AltitudeMeters>1299</AltitudeMeters>
            <DistanceMeters>NAN</DistanceMeters>
          </Trackpoint>
          <Trackpoint>
            <Time>2023-02-23T14:35:20.000Z</Time>
            <Position>
              <LatitudeDegrees>41.5677724219858646392822265625</LatitudeDegrees>
              <LongitudeDegrees>-4.56122810952365398406982421875</LongitudeDegrees>
            </Position>
            <AltitudeMeters>1298</AltitudeMeters>
            <DistanceMeters>NAN</DistanceMeters>
          </Trackpoint>
          <Trackpoint>
            <Time>2023-02-23T14:35:22.000Z</Time>
            <Position>
              <LatitudeDegrees>41.56781877391040325164794921875</LatitudeDegrees>
              <LongitudeDegrees>-4.56126247532665729522705078125</LongitudeDegrees>
            </Position>
            <AltitudeMeters>1297.800048828125</AltitudeMeters>
            <DistanceMeters>NAN</DistanceMeters>
          </Trackpoint>
          <Trackpoint>
            <Time>2023-02-23T14:35:27.000Z</Time>
            <Position>
              <LatitudeDegrees>41.567949615418910980224609375</LatitudeDegrees>
              <LongitudeDegrees>-4.5613235794007778167724609375</LongitudeDegrees>
            </Position>
            <AltitudeMeters>1297</AltitudeMeters>
            <DistanceMeters>NAN</DistanceMeters>
          </Trackpoint>
          <Trackpoint>
            <Time>2023-02-23T14:35:28.000Z</Time>
            <Position>
              <LatitudeDegrees>41.5679755993187427520751953125</LatitudeDegrees>
              <LongitudeDegrees>-4.56133154220879077911376953125</LongitudeDegrees>
            </Position>
            <AltitudeMeters>1297</AltitudeMeters>
            <DistanceMeters>NAN</DistanceMeters>
          </Trackpoint>
          <Trackpoint>
            <Time>2023-02-23T14:35:33.000Z</Time>
            <Position>
              <LatitudeDegrees>41.56812136061489582061767578125</LatitudeDegrees>
              <LongitudeDegrees>-4.56136004067957401275634765625</LongitudeDegrees>
            </Position>
            <AltitudeMeters>1295.800048828125</AltitudeMeters>
            <DistanceMeters>NAN</DistanceMeters>
          </Trackpoint>
          <Trackpoint>
            <Time>2023-02-23T14:35:35.000Z</Time>
            <Position>
              <LatitudeDegrees>41.56818388961255550384521484375</LatitudeDegrees>
              <LongitudeDegrees>-4.5613624714314937591552734375</LongitudeDegrees>
            </Position>
            <AltitudeMeters>1295.4000244140625</AltitudeMeters>
            <DistanceMeters>NAN</DistanceMeters>
          </Trackpoint>
          <Trackpoint>
            <Time>2023-02-23T14:35:37.000Z</Time>
            <Position>
              <LatitudeDegrees>41.5682431496679782867431640625</LatitudeDegrees>
              <LongitudeDegrees>-4.56134914420545101165771484375</LongitudeDegrees>
            </Position>
            <AltitudeMeters>1295.199951171875</AltitudeMeters>
            <DistanceMeters>NAN</DistanceMeters>
          </Trackpoint>
          <Trackpoint>
            <Time>2023-02-23T14:35:38.000Z</Time>
            <Position>
              <LatitudeDegrees>41.5682723186910152435302734375</LatitudeDegrees>
              <LongitudeDegrees>-4.5613423548638820648193359375</LongitudeDegrees>
            </Position>
            <AltitudeMeters>1294.800048828125</AltitudeMeters>
            <DistanceMeters>NAN</DistanceMeters>
          </Trackpoint>
          <Trackpoint>
            <Time>2023-02-23T14:35:42.000Z</Time>
            <Position>
              <LatitudeDegrees>41.56841372139751911163330078125</LatitudeDegrees>
              <LongitudeDegrees>-4.56130505539476871490478515625</LongitudeDegrees>
            </Position>
            <AltitudeMeters>1294</AltitudeMeters>
            <DistanceMeters>NAN</DistanceMeters>
          </Trackpoint>
          <Trackpoint>
            <Time>2023-02-23T14:35:43.000Z</Time>
            <Position>
              <LatitudeDegrees>41.5684500150382518768310546875</LatitudeDegrees>
              <LongitudeDegrees>-4.56129382364451885223388671875</LongitudeDegrees>
            </Position>
            <AltitudeMeters>1293.800048828125</AltitudeMeters>
            <DistanceMeters>NAN</DistanceMeters>
          </Trackpoint>
          <Trackpoint>
            <Time>2023-02-23T14:35:46.000Z</Time>
            <Position>
              <LatitudeDegrees>41.56855721957981586456298828125</LatitudeDegrees>
              <LongitudeDegrees>-4.5612675882875919342041015625</LongitudeDegrees>
            </Position>
            <AltitudeMeters>1293</AltitudeMeters>
            <DistanceMeters>NAN</DistanceMeters>
          </Trackpoint>
          <Trackpoint>
            <Time>2023-02-23T14:35:48.000Z</Time>
            <Position>
              <LatitudeDegrees>41.56860030256211757659912109375</LatitudeDegrees>
              <LongitudeDegrees>-4.56125224940478801727294921875</LongitudeDegrees>
            </Position>
            <AltitudeMeters>1292.5999755859375</AltitudeMeters>
            <DistanceMeters>NAN</DistanceMeters>
          </Trackpoint>
          <Trackpoint>
            <Time>2023-02-23T14:35:53.000Z</Time>
            <Position>
              <LatitudeDegrees>41.568642966449260711669921875</LatitudeDegrees>
              <LongitudeDegrees>-4.5612642355263233184814453125</LongitudeDegrees>
            </Position>
            <AltitudeMeters>1291.5999755859375</AltitudeMeters>
            <DistanceMeters>NAN</DistanceMeters>
          </Trackpoint>
          <Trackpoint>
            <Time>2023-02-23T14:35:56.000Z</Time>
            <Position>
              <LatitudeDegrees>41.5686565451323986053466796875</LatitudeDegrees>
              <LongitudeDegrees>-4.56126281060278415679931640625</LongitudeDegrees>
            </Position>
            <AltitudeMeters>1291.4000244140625</AltitudeMeters>
            <DistanceMeters>NAN</DistanceMeters>
          </Trackpoint>
          <Trackpoint>
            <Time>2023-02-23T14:36:01.000Z</Time>
            <Position>
              <LatitudeDegrees>41.5686459839344024658203125</LatitudeDegrees>
              <LongitudeDegrees>-4.56126666627824306488037109375</LongitudeDegrees>
            </Position>
            <AltitudeMeters>1291.4000244140625</AltitudeMeters>
            <DistanceMeters>NAN</DistanceMeters>
          </Trackpoint>
          <Trackpoint>
            <Time>2023-02-23T14:36:02.000Z</Time>
            <Position>
              <LatitudeDegrees>41.56865361146628856658935546875</LatitudeDegrees>
              <LongitudeDegrees>-4.5612618885934352874755859375</LongitudeDegrees>
            </Position>
            <AltitudeMeters>1291.4000244140625</AltitudeMeters>
            <DistanceMeters>NAN</DistanceMeters>
          </Trackpoint>
          <Trackpoint>
            <Time>2023-02-23T14:36:06.000Z</Time>
            <Position>
              <LatitudeDegrees>41.56871044076979160308837890625</LatitudeDegrees>
              <LongitudeDegrees>-4.5612256787717342376708984375</LongitudeDegrees>
            </Position>
            <AltitudeMeters>1291.199951171875</AltitudeMeters>
            <DistanceMeters>NAN</DistanceMeters>
          </Trackpoint>
          <Trackpoint>
            <Time>2023-02-23T14:36:13.000Z</Time>
            <Position>
              <LatitudeDegrees>41.568910181522369384765625</LatitudeDegrees>
              <LongitudeDegrees>-4.56111721694469451904296875</LongitudeDegrees>
            </Position>
            <AltitudeMeters>1290.5999755859375</AltitudeMeters>
            <DistanceMeters>NAN</DistanceMeters>
          </Trackpoint>
          <Trackpoint>
            <Time>2023-02-23T14:36:16.000Z</Time>
            <Position>
              <LatitudeDegrees>41.56901755370199680328369140625</LatitudeDegrees>
              <LongitudeDegrees>-4.5610553584992885589599609375</LongitudeDegrees>
            </Position>
            <AltitudeMeters>1289.199951171875</AltitudeMeters>
            <DistanceMeters>NAN</DistanceMeters>
          </Trackpoint>
          <Trackpoint>
            <Time>2023-02-23T14:36:19.000Z</Time>
            <Position>
              <LatitudeDegrees>41.56912232749164104461669921875</LatitudeDegrees>
              <LongitudeDegrees>-4.56099785864353179931640625</LongitudeDegrees>
            </Position>
            <AltitudeMeters>1288.5999755859375</AltitudeMeters>
            <DistanceMeters>NAN</DistanceMeters>
          </Trackpoint>
          <Trackpoint>
            <Time>2023-02-23T14:36:22.000Z</Time>
            <Position>
              <LatitudeDegrees>41.5692328847944736480712890625</LatitudeDegrees>
              <LongitudeDegrees>-4.56094765104353427886962890625</LongitudeDegrees>
            </Position>
            <AltitudeMeters>1288</AltitudeMeters>
            <DistanceMeters>NAN</DistanceMeters>
          </Trackpoint>
          <Trackpoint>
            <Time>2023-02-23T14:36:25.000Z</Time>
            <Position>
              <LatitudeDegrees>41.56935031525790691375732421875</LatitudeDegrees>
              <LongitudeDegrees>-4.56094731576740741729736328125</LongitudeDegrees>
            </Position>
            <AltitudeMeters>1287.199951171875</AltitudeMeters>
            <DistanceMeters>NAN</DistanceMeters>
          </Trackpoint>
          <Trackpoint>
            <Time>2023-02-23T14:36:26.000Z</Time>
            <Position>
              <LatitudeDegrees>41.56937931664288043975830078125</LatitudeDegrees>
              <LongitudeDegrees>-4.5609675161540508270263671875</LongitudeDegrees>
            </Position>
            <AltitudeMeters>1286.800048828125</AltitudeMeters>
            <DistanceMeters>NAN</DistanceMeters>
          </Trackpoint>
          <Trackpoint>
            <Time>2023-02-23T14:36:28.000Z</Time>
            <Position>
              <LatitudeDegrees>41.56941569410264492034912109375</LatitudeDegrees>
              <LongitudeDegrees>-4.56103700213134288787841796875</LongitudeDegrees>
            </Position>
            <AltitudeMeters>1286.4000244140625</AltitudeMeters>
            <DistanceMeters>NAN</DistanceMeters>
          </Trackpoint>
          <Trackpoint>
            <Time>2023-02-23T14:36:30.000Z</Time>
            <Position>
              <LatitudeDegrees>41.5694236569106578826904296875</LatitudeDegrees>
              <LongitudeDegrees>-4.56112769432365894317626953125</LongitudeDegrees>
            </Position>
            <AltitudeMeters>1286.199951171875</AltitudeMeters>
            <DistanceMeters>NAN</DistanceMeters>
          </Trackpoint>
          <Trackpoint>
            <Time>2023-02-23T14:36:32.000Z</Time>
            <Position>
              <LatitudeDegrees>41.569400690495967864990234375</LatitudeDegrees>
              <LongitudeDegrees>-4.5612213201820850372314453125</LongitudeDegrees>
            </Position>
            <AltitudeMeters>1285.4000244140625</AltitudeMeters>
            <DistanceMeters>NAN</DistanceMeters>
          </Trackpoint>
          <Trackpoint>
            <Time>2023-02-23T14:36:35.000Z</Time>
            <Position>
              <LatitudeDegrees>41.56936389394104480743408203125</LatitudeDegrees>
              <LongitudeDegrees>-4.56127488054335117340087890625</LongitudeDegrees>
            </Position>
            <AltitudeMeters>1284.199951171875</AltitudeMeters>
            <DistanceMeters>NAN</DistanceMeters>
          </Trackpoint>
          <Trackpoint>
            <Time>2023-02-23T14:36:37.000Z</Time>
            <Position>
              <LatitudeDegrees>41.56935341656208038330078125</LatitudeDegrees>
              <LongitudeDegrees>-4.5612850226461887359619140625</LongitudeDegrees>
            </Position>
            <AltitudeMeters>1283.800048828125</AltitudeMeters>
            <DistanceMeters>NAN</DistanceMeters>
          </Trackpoint>
          <Trackpoint>
            <Time>2023-02-23T14:36:39.000Z</Time>
            <Position>
              <LatitudeDegrees>41.569355763494968414306640625</LatitudeDegrees>
              <LongitudeDegrees>-4.56128058023750782012939453125</LongitudeDegrees>
            </Position>
            <AltitudeMeters>1284.4000244140625</AltitudeMeters>
            <DistanceMeters>NAN</DistanceMeters>
          </Trackpoint>
          <Trackpoint>
            <Time>2023-02-23T14:36:41.000Z</Time>
            <Position>
              <LatitudeDegrees>41.56934495083987712860107421875</LatitudeDegrees>
              <LongitudeDegrees>-4.561282508075237274169921875</LongitudeDegrees>
            </Position>
            <AltitudeMeters>1284.199951171875</AltitudeMeters>
            <DistanceMeters>NAN</DistanceMeters>
          </Trackpoint>
          <Trackpoint>
            <Time>2023-02-23T14:36:43.000Z</Time>
            <Position>
              <LatitudeDegrees>41.56932634301483631134033203125</LatitudeDegrees>
              <LongitudeDegrees>-4.56129365600645542144775390625</LongitudeDegrees>
            </Position>
            <AltitudeMeters>1284</AltitudeMeters>
            <DistanceMeters>NAN</DistanceMeters>
          </Trackpoint>
          <Trackpoint>
            <Time>2023-02-23T14:36:50.000Z</Time>
            <Position>
              <LatitudeDegrees>41.5693197213113307952880859375</LatitudeDegrees>
              <LongitudeDegrees>-4.561295248568058013916015625</LongitudeDegrees>
            </Position>
            <AltitudeMeters>1284.199951171875</AltitudeMeters>
            <DistanceMeters>NAN</DistanceMeters>
          </Trackpoint>
          <Trackpoint>
            <Time>2023-02-23T14:36:58.000Z</Time>
            <Position>
              <LatitudeDegrees>41.56932257115840911865234375</LatitudeDegrees>
              <LongitudeDegrees>-4.5612923987209796905517578125</LongitudeDegrees>
            </Position>
            <AltitudeMeters>1283.5999755859375</AltitudeMeters>
            <DistanceMeters>NAN</DistanceMeters>
          </Trackpoint>
          <Trackpoint>
            <Time>2023-02-23T14:37:03.000Z</Time>
            <Position>
              <LatitudeDegrees>41.5693291090428829193115234375</LatitudeDegrees>
              <LongitudeDegrees>-4.5612910576164722442626953125</LongitudeDegrees>
            </Position>
            <AltitudeMeters>1283.5999755859375</AltitudeMeters>
            <DistanceMeters>NAN</DistanceMeters>
          </Trackpoint>
          <Trackpoint>
            <Time>2023-02-23T14:37:04.000Z</Time>
            <Position>
              <LatitudeDegrees>41.56932868994772434234619140625</LatitudeDegrees>
              <LongitudeDegrees>-4.56129030324518680572509765625</LongitudeDegrees>
            </Position>
            <AltitudeMeters>1283.5999755859375</AltitudeMeters>
            <DistanceMeters>NAN</DistanceMeters>
          </Trackpoint>
          <Trackpoint>
            <Time>2023-02-23T14:37:10.000Z</Time>
            <Position>
              <LatitudeDegrees>41.56933455727994441986083984375</LatitudeDegrees>
              <LongitudeDegrees>-4.5612813346087932586669921875</LongitudeDegrees>
            </Position>
            <AltitudeMeters>1283.4000244140625</AltitudeMeters>
            <DistanceMeters>NAN</DistanceMeters>
          </Trackpoint>
          <Trackpoint>
            <Time>2023-02-23T14:37:16.000Z</Time>
            <Position>
              <LatitudeDegrees>41.569347046315670013427734375</LatitudeDegrees>
              <LongitudeDegrees>-4.561267085373401641845703125</LongitudeDegrees>
            </Position>
            <AltitudeMeters>1283.5999755859375</AltitudeMeters>
            <DistanceMeters>NAN</DistanceMeters>
          </Trackpoint>
          <Trackpoint>
            <Time>2023-02-23T14:37:18.000Z</Time>
            <Position>
              <LatitudeDegrees>41.5693581104278564453125</LatitudeDegrees>
              <LongitudeDegrees>-4.5612514950335025787353515625</LongitudeDegrees>
            </Position>
            <AltitudeMeters>1283.5999755859375</AltitudeMeters>
            <DistanceMeters>NAN</DistanceMeters>
          </Trackpoint>
          <Trackpoint>
            <Time>2023-02-23T14:37:20.000Z</Time>
            <Position>
              <LatitudeDegrees>41.56936540268361568450927734375</LatitudeDegrees>
              <LongitudeDegrees>-4.56124520860612392425537109375</LongitudeDegrees>
            </Position>
            <AltitudeMeters>1283.4000244140625</AltitudeMeters>
            <DistanceMeters>NAN</DistanceMeters>
          </Trackpoint>
          <Trackpoint>
            <Time>2023-02-23T14:37:22.000Z</Time>
            <Position>
              <LatitudeDegrees>41.5693606249988079071044921875</LatitudeDegrees>
              <LongitudeDegrees>-4.56124369986355304718017578125</LongitudeDegrees>
            </Position>
            <AltitudeMeters>1283.4000244140625</AltitudeMeters>
            <DistanceMeters>NAN</DistanceMeters>
          </Trackpoint>
          <Trackpoint>
            <Time>2023-02-23T14:37:25.000Z</Time>
            <Position>
              <LatitudeDegrees>41.56934947706758975982666015625</LatitudeDegrees>
              <LongitudeDegrees>-4.56124386750161647796630859375</LongitudeDegrees>
            </Position>
            <AltitudeMeters>1283.4000244140625</AltitudeMeters>
            <DistanceMeters>NAN</DistanceMeters>
          </Trackpoint>
          <Trackpoint>
            <Time>2023-02-23T14:37:26.000Z</Time>
            <Position>
              <LatitudeDegrees>41.569341011345386505126953125</LatitudeDegrees>
              <LongitudeDegrees>-4.5612514950335025787353515625</LongitudeDegrees>
            </Position>
            <AltitudeMeters>1283.4000244140625</AltitudeMeters>
            <DistanceMeters>NAN</DistanceMeters>
          </Trackpoint>
          <Trackpoint>
            <Time>2023-02-23T14:37:28.000Z</Time>
            <Position>
              <LatitudeDegrees>41.5693272650241851806640625</LatitudeDegrees>
              <LongitudeDegrees>-4.561262391507625579833984375</LongitudeDegrees>
            </Position>
            <AltitudeMeters>1283.4000244140625</AltitudeMeters>
            <DistanceMeters>NAN</DistanceMeters>
          </Trackpoint>
          <Trackpoint>
            <Time>2023-02-23T14:37:29.000Z</Time>
            <Position>
              <LatitudeDegrees>41.569324247539043426513671875</LatitudeDegrees>
              <LongitudeDegrees>-4.56126297824084758758544921875</LongitudeDegrees>
            </Position>
            <AltitudeMeters>1283.199951171875</AltitudeMeters>
            <DistanceMeters>NAN</DistanceMeters>
          </Trackpoint>
          <Trackpoint>
            <Time>2023-02-23T14:37:33.000Z</Time>
            <Position>
              <LatitudeDegrees>41.56933237798511981964111328125</LatitudeDegrees>
              <LongitudeDegrees>-4.56124923191964626312255859375</LongitudeDegrees>
            </Position>
            <AltitudeMeters>1283.5999755859375</AltitudeMeters>
            <DistanceMeters>NAN</DistanceMeters>
          </Trackpoint>
          <Trackpoint>
            <Time>2023-02-23T14:37:35.000Z</Time>
            <Position>
              <LatitudeDegrees>41.56932064332067966461181640625</LatitudeDegrees>
              <LongitudeDegrees>-4.56124336458742618560791015625</LongitudeDegrees>
            </Position>
            <AltitudeMeters>1284</AltitudeMeters>
            <DistanceMeters>NAN</DistanceMeters>
          </Trackpoint>
          <Trackpoint>
            <Time>2023-02-23T14:37:37.000Z</Time>
            <Position>
              <LatitudeDegrees>41.56931444071233272552490234375</LatitudeDegrees>
              <LongitudeDegrees>-4.5612372457981109619140625</LongitudeDegrees>
            </Position>
            <AltitudeMeters>1284.199951171875</AltitudeMeters>
            <DistanceMeters>NAN</DistanceMeters>
          </Trackpoint>
          <Trackpoint>
            <Time>2023-02-23T14:37:39.000Z</Time>
            <Position>
              <LatitudeDegrees>41.5693160332739353179931640625</LatitudeDegrees>
              <LongitudeDegrees>-4.5612253434956073760986328125</LongitudeDegrees>
            </Position>
            <AltitudeMeters>1284.199951171875</AltitudeMeters>
            <DistanceMeters>NAN</DistanceMeters>
          </Trackpoint>
          <Trackpoint>
            <Time>2023-02-23T14:37:40.000Z</Time>
            <Position>
              <LatitudeDegrees>41.56931913457810878753662109375</LatitudeDegrees>
              <LongitudeDegrees>-4.5612189732491970062255859375</LongitudeDegrees>
            </Position>
            <AltitudeMeters>1284.199951171875</AltitudeMeters>
            <DistanceMeters>NAN</DistanceMeters>
          </Trackpoint>
          <Trackpoint>
            <Time>2023-02-23T14:37:43.000Z</Time>
            <Position>
              <LatitudeDegrees>41.56932391226291656494140625</LatitudeDegrees>
              <LongitudeDegrees>-4.561204724013805389404296875</LongitudeDegrees>
            </Position>
            <AltitudeMeters>1284</AltitudeMeters>
            <DistanceMeters>NAN</DistanceMeters>
          </Trackpoint>
          <Trackpoint>
            <Time>2023-02-23T14:37:51.000Z</Time>
            <Position>
              <LatitudeDegrees>41.56930890865623950958251953125</LatitudeDegrees>
              <LongitudeDegrees>-4.56121687777340412139892578125</LongitudeDegrees>
            </Position>
            <AltitudeMeters>1283.4000244140625</AltitudeMeters>
            <DistanceMeters>NAN</DistanceMeters>
          </Trackpoint>
          <Trackpoint>
            <Time>2023-02-23T14:37:54.000Z</Time>
            <Position>
              <LatitudeDegrees>41.56931175850331783294677734375</LatitudeDegrees>
              <LongitudeDegrees>-4.56122911535203456878662109375</LongitudeDegrees>
            </Position>
            <AltitudeMeters>1283.5999755859375</AltitudeMeters>
            <DistanceMeters>NAN</DistanceMeters>
          </Trackpoint>
          <Trackpoint>
            <Time>2023-02-23T14:37:56.000Z</Time>
            <Position>
              <LatitudeDegrees>41.56931410543620586395263671875</LatitudeDegrees>
              <LongitudeDegrees>-4.56123498268425464630126953125</LongitudeDegrees>
            </Position>
            <AltitudeMeters>1283.4000244140625</AltitudeMeters>
            <DistanceMeters>NAN</DistanceMeters>
          </Trackpoint>
          <Trackpoint>
            <Time>2023-02-23T14:37:58.000Z</Time>
            <Position>
              <LatitudeDegrees>41.5693143568933010101318359375</LatitudeDegrees>
              <LongitudeDegrees>-4.56123531796038150787353515625</LongitudeDegrees>
            </Position>
            <AltitudeMeters>1284</AltitudeMeters>
            <DistanceMeters>NAN</DistanceMeters>
          </Trackpoint>
          <Trackpoint>
            <Time>2023-02-23T14:38:02.000Z</Time>
            <Position>
              <LatitudeDegrees>41.5693126805126667022705078125</LatitudeDegrees>
              <LongitudeDegrees>-4.56121855415403842926025390625</LongitudeDegrees>
            </Position>
            <AltitudeMeters>1283.199951171875</AltitudeMeters>
            <DistanceMeters>NAN</DistanceMeters>
          </Trackpoint>
          <Trackpoint>
            <Time>2023-02-23T14:38:03.000Z</Time>
            <Position>
              <LatitudeDegrees>41.56931142322719097137451171875</LatitudeDegrees>
              <LongitudeDegrees>-4.5612149499356746673583984375</LongitudeDegrees>
            </Position>
            <AltitudeMeters>1283.199951171875</AltitudeMeters>
            <DistanceMeters>NAN</DistanceMeters>
          </Trackpoint>
          <Trackpoint>
            <Time>2023-02-23T14:38:06.000Z</Time>
            <Position>
              <LatitudeDegrees>41.569300778210163116455078125</LatitudeDegrees>
              <LongitudeDegrees>-4.5612193085253238677978515625</LongitudeDegrees>
            </Position>
            <AltitudeMeters>1283.4000244140625</AltitudeMeters>
            <DistanceMeters>NAN</DistanceMeters>
          </Trackpoint>
          <Trackpoint>
            <Time>2023-02-23T14:38:09.000Z</Time>
            <Position>
              <LatitudeDegrees>41.56928443349897861480712890625</LatitudeDegrees>
              <LongitudeDegrees>-4.561219476163387298583984375</LongitudeDegrees>
            </Position>
            <AltitudeMeters>1283.4000244140625</AltitudeMeters>
            <DistanceMeters>NAN</DistanceMeters>
          </Trackpoint>
          <Trackpoint>
            <Time>2023-02-23T14:38:11.000Z</Time>
            <Position>
              <LatitudeDegrees>41.56929130665957927703857421875</LatitudeDegrees>
              <LongitudeDegrees>-4.56122056581079959869384765625</LongitudeDegrees>
            </Position>
            <AltitudeMeters>1283.4000244140625</AltitudeMeters>
            <DistanceMeters>NAN</DistanceMeters>
          </Trackpoint>
          <Trackpoint>
            <Time>2023-02-23T14:38:16.000Z</Time>
            <Position>
              <LatitudeDegrees>41.56930471770465373992919921875</LatitudeDegrees>
              <LongitudeDegrees>-4.561248980462551116943359375</LongitudeDegrees>
            </Position>
            <AltitudeMeters>1283.199951171875</AltitudeMeters>
            <DistanceMeters>NAN</DistanceMeters>
          </Trackpoint>
          <Trackpoint>
            <Time>2023-02-23T14:38:18.000Z</Time>
            <Position>
              <LatitudeDegrees>41.569313518702983856201171875</LatitudeDegrees>
              <LongitudeDegrees>-4.5612538419663906097412109375</LongitudeDegrees>
            </Position>
            <AltitudeMeters>1283.199951171875</AltitudeMeters>
            <DistanceMeters>NAN</DistanceMeters>
          </Trackpoint>
          <Trackpoint>
            <Time>2023-02-23T14:38:22.000Z</Time>
            <Position>
              <LatitudeDegrees>41.56930438242852687835693359375</LatitudeDegrees>
              <LongitudeDegrees>-4.561257697641849517822265625</LongitudeDegrees>
            </Position>
            <AltitudeMeters>1282.800048828125</AltitudeMeters>
            <DistanceMeters>NAN</DistanceMeters>
          </Trackpoint>
          <Trackpoint>
            <Time>2023-02-23T14:38:26.000Z</Time>
            <Position>
              <LatitudeDegrees>41.56925962306559085845947265625</LatitudeDegrees>
              <LongitudeDegrees>-4.5612560212612152099609375</LongitudeDegrees>
            </Position>
            <AltitudeMeters>1282.5999755859375</AltitudeMeters>
            <DistanceMeters>NAN</DistanceMeters>
          </Trackpoint>
          <Trackpoint>
            <Time>2023-02-23T14:38:30.000Z</Time>
            <Position>
              <LatitudeDegrees>41.56925995834171772003173828125</LatitudeDegrees>
              <LongitudeDegrees>-4.56127412617206573486328125</LongitudeDegrees>
            </Position>
            <AltitudeMeters>1282.199951171875</AltitudeMeters>
            <DistanceMeters>NAN</DistanceMeters>
          </Trackpoint>
          <Trackpoint>
            <Time>2023-02-23T14:38:35.000Z</Time>
            <Position>
              <LatitudeDegrees>41.5692580305039882659912109375</LatitudeDegrees>
              <LongitudeDegrees>-4.5612967573106288909912109375</LongitudeDegrees>
            </Position>
            <AltitudeMeters>1282</AltitudeMeters>
            <DistanceMeters>NAN</DistanceMeters>
          </Trackpoint>
          <Trackpoint>
            <Time>2023-02-23T14:38:40.000Z</Time>
            <Position>
              <LatitudeDegrees>41.56925727613270282745361328125</LatitudeDegrees>
              <LongitudeDegrees>-4.56129935570061206817626953125</LongitudeDegrees>
            </Position>
            <AltitudeMeters>1281.800048828125</AltitudeMeters>
            <DistanceMeters>NAN</DistanceMeters>
          </Trackpoint>
          <Trackpoint>
            <Time>2023-02-23T14:38:44.000Z</Time>
            <Position>
              <LatitudeDegrees>41.5692563541233539581298828125</LatitudeDegrees>
              <LongitudeDegrees>-4.56129684112966060638427734375</LongitudeDegrees>
            </Position>
            <AltitudeMeters>1281.5999755859375</AltitudeMeters>
            <DistanceMeters>NAN</DistanceMeters>
          </Trackpoint>
          <Trackpoint>
            <Time>2023-02-23T14:38:51.000Z</Time>
            <Position>
              <LatitudeDegrees>41.5692597068846225738525390625</LatitudeDegrees>
              <LongitudeDegrees>-4.5612962543964385986328125</LongitudeDegrees>
            </Position>
            <AltitudeMeters>1281.800048828125</AltitudeMeters>
            <DistanceMeters>NAN</DistanceMeters>
          </Trackpoint>
          <Trackpoint>
            <Time>2023-02-23T14:38:53.000Z</Time>
            <Position>
              <LatitudeDegrees>41.56925811432301998138427734375</LatitudeDegrees>
              <LongitudeDegrees>-4.5612997747957706451416015625</LongitudeDegrees>
            </Position>
            <AltitudeMeters>1281.800048828125</AltitudeMeters>
            <DistanceMeters>NAN</DistanceMeters>
          </Trackpoint>
          <Trackpoint>
            <Time>2023-02-23T14:38:58.000Z</Time>
            <Position>
              <LatitudeDegrees>41.5692684240639209747314453125</LatitudeDegrees>
              <LongitudeDegrees>-4.5613017864525318145751953125</LongitudeDegrees>
            </Position>
            <AltitudeMeters>1282.4000244140625</AltitudeMeters>
            <DistanceMeters>NAN</DistanceMeters>
          </Trackpoint>
          <Trackpoint>
            <Time>2023-02-23T14:39:05.000Z</Time>
            <Position>
              <LatitudeDegrees>41.5692771412432193756103515625</LatitudeDegrees>
              <LongitudeDegrees>-4.5613069832324981689453125</LongitudeDegrees>
            </Position>
            <AltitudeMeters>1282.4000244140625</AltitudeMeters>
            <DistanceMeters>NAN</DistanceMeters>
          </Trackpoint>
          <Trackpoint>
            <Time>2023-02-23T14:39:07.000Z</Time>
            <Position>
              <LatitudeDegrees>41.56928258948028087615966796875</LatitudeDegrees>
              <LongitudeDegrees>-4.5613150298595428466796875</LongitudeDegrees>
            </Position>
            <AltitudeMeters>1282.199951171875</AltitudeMeters>
            <DistanceMeters>NAN</DistanceMeters>
          </Trackpoint>
          <Trackpoint>
            <Time>2023-02-23T14:39:11.000Z</Time>
            <Position>
              <LatitudeDegrees>41.5692949108779430389404296875</LatitudeDegrees>
              <LongitudeDegrees>-4.5613111741840839385986328125</LongitudeDegrees>
            </Position>
            <AltitudeMeters>1282</AltitudeMeters>
            <DistanceMeters>NAN</DistanceMeters>
          </Trackpoint>
          <Trackpoint>
            <Time>2023-02-23T14:39:13.000Z</Time>
            <Position>
              <LatitudeDegrees>41.56929348595440387725830078125</LatitudeDegrees>
              <LongitudeDegrees>-4.5613110065460205078125</LongitudeDegrees>
            </Position>
            <AltitudeMeters>1282</AltitudeMeters>
            <DistanceMeters>NAN</DistanceMeters>
          </Trackpoint>
          <Trackpoint>
            <Time>2023-02-23T14:39:19.000Z</Time>
            <Position>
              <LatitudeDegrees>41.56928543932735919952392578125</LatitudeDegrees>
              <LongitudeDegrees>-4.56131695769727230072021484375</LongitudeDegrees>
            </Position>
            <AltitudeMeters>1282</AltitudeMeters>
            <DistanceMeters>NAN</DistanceMeters>
          </Trackpoint>
          <Trackpoint>
            <Time>2023-02-23T14:39:22.000Z</Time>
            <Position>
              <LatitudeDegrees>41.5692841820418834686279296875</LatitudeDegrees>
              <LongitudeDegrees>-4.561313688755035400390625</LongitudeDegrees>
            </Position>
            <AltitudeMeters>1282</AltitudeMeters>
            <DistanceMeters>NAN</DistanceMeters>
          </Trackpoint>
          <Trackpoint>
            <Time>2023-02-23T14:39:24.000Z</Time>
            <Position>
              <LatitudeDegrees>41.5692771412432193756103515625</LatitudeDegrees>
              <LongitudeDegrees>-4.561317376792430877685546875</LongitudeDegrees>
            </Position>
            <AltitudeMeters>1282</AltitudeMeters>
            <DistanceMeters>NAN</DistanceMeters>
          </Trackpoint>
          <Trackpoint>
            <Time>2023-02-23T14:39:26.000Z</Time>
            <Position>
              <LatitudeDegrees>41.56926247291266918182373046875</LatitudeDegrees>
              <LongitudeDegrees>-4.561320729553699493408203125</LongitudeDegrees>
            </Position>
            <AltitudeMeters>1281.800048828125</AltitudeMeters>
            <DistanceMeters>NAN</DistanceMeters>
          </Trackpoint>
          <Trackpoint>
            <Time>2023-02-23T14:39:28.000Z</Time>
            <Position>
              <LatitudeDegrees>41.56923950649797916412353515625</LatitudeDegrees>
              <LongitudeDegrees>-4.56133120693266391754150390625</LongitudeDegrees>
            </Position>
            <AltitudeMeters>1281.4000244140625</AltitudeMeters>
            <DistanceMeters>NAN</DistanceMeters>
          </Trackpoint>
          <Trackpoint>
            <Time>2023-02-23T14:39:34.000Z</Time>
            <Position>
              <LatitudeDegrees>41.56911461614072322845458984375</LatitudeDegrees>
              <LongitudeDegrees>-4.56137781031429767608642578125</LongitudeDegrees>
            </Position>
            <AltitudeMeters>1281.5999755859375</AltitudeMeters>
            <DistanceMeters>NAN</DistanceMeters>
          </Trackpoint>
          <Trackpoint>
            <Time>2023-02-23T14:39:37.000Z</Time>
            <Position>
              <LatitudeDegrees>41.56903230585157871246337890625</LatitudeDegrees>
              <LongitudeDegrees>-4.56140077672898769378662109375</LongitudeDegrees>
            </Position>
            <AltitudeMeters>1281.4000244140625</AltitudeMeters>
            <DistanceMeters>NAN</DistanceMeters>
          </Trackpoint>
          <Trackpoint>
            <Time>2023-02-23T14:39:40.000Z</Time>
            <Position>
              <LatitudeDegrees>41.56894706189632415771484375</LatitudeDegrees>
              <LongitudeDegrees>-4.56144310534000396728515625</LongitudeDegrees>
            </Position>
            <AltitudeMeters>1281.199951171875</AltitudeMeters>
            <DistanceMeters>NAN</DistanceMeters>
          </Trackpoint>
          <Trackpoint>
            <Time>2023-02-23T14:39:41.000Z</Time>
            <Position>
              <LatitudeDegrees>41.568913199007511138916015625</LatitudeDegrees>
              <LongitudeDegrees>-4.56145559437572956085205078125</LongitudeDegrees>
            </Position>
            <AltitudeMeters>1281</AltitudeMeters>
            <DistanceMeters>NAN</DistanceMeters>
          </Trackpoint>
          <Trackpoint>
            <Time>2023-02-23T14:39:46.000Z</Time>
            <Position>
              <LatitudeDegrees>41.5687866322696208953857421875</LatitudeDegrees>
              <LongitudeDegrees>-4.56152751110494136810302734375</LongitudeDegrees>
            </Position>
            <AltitudeMeters>1280.4000244140625</AltitudeMeters>
            <DistanceMeters>NAN</DistanceMeters>
          </Trackpoint>
          <Trackpoint>
            <Time>2023-02-23T14:39:47.000Z</Time>
            <Position>
              <LatitudeDegrees>41.56876307912170886993408203125</LatitudeDegrees>
              <LongitudeDegrees>-4.56154762767255306243896484375</LongitudeDegrees>
            </Position>
            <AltitudeMeters>1279.800048828125</AltitudeMeters>
            <DistanceMeters>NAN</DistanceMeters>
          </Trackpoint>
          <Trackpoint>
            <Time>2023-02-23T14:39:49.000Z</Time>
            <Position>
              <LatitudeDegrees>41.56871236860752105712890625</LatitudeDegrees>
              <LongitudeDegrees>-4.56158098764717578887939453125</LongitudeDegrees>
            </Position>
            <AltitudeMeters>1279.4000244140625</AltitudeMeters>
            <DistanceMeters>NAN</DistanceMeters>
          </Trackpoint>
          <Trackpoint>
            <Time>2023-02-23T14:39:51.000Z</Time>
            <Position>
              <LatitudeDegrees>41.56865604221820831298828125</LatitudeDegrees>
              <LongitudeDegrees>-4.561614431440830230712890625</LongitudeDegrees>
            </Position>
            <AltitudeMeters>1279</AltitudeMeters>
            <DistanceMeters>NAN</DistanceMeters>
          </Trackpoint>
          <Trackpoint>
            <Time>2023-02-23T14:39:52.000Z</Time>
            <Position>
              <LatitudeDegrees>41.56862796284258365631103515625</LatitudeDegrees>
              <LongitudeDegrees>-4.56163111142814159393310546875</LongitudeDegrees>
            </Position>
            <AltitudeMeters>1278.800048828125</AltitudeMeters>
            <DistanceMeters>NAN</DistanceMeters>
          </Trackpoint>
          <Trackpoint>
            <Time>2023-02-23T14:39:54.000Z</Time>
            <Position>
              <LatitudeDegrees>41.5685777552425861358642578125</LatitudeDegrees>
              <LongitudeDegrees>-4.5616655610501766204833984375</LongitudeDegrees>
            </Position>
            <AltitudeMeters>1278.5999755859375</AltitudeMeters>
            <DistanceMeters>NAN</DistanceMeters>
          </Trackpoint>
          <Trackpoint>
            <Time>2023-02-23T14:39:56.000Z</Time>
            <Position>
              <LatitudeDegrees>41.56852268613874912261962890625</LatitudeDegrees>
              <LongitudeDegrees>-4.56170034594833850860595703125</LongitudeDegrees>
            </Position>
            <AltitudeMeters>1278.199951171875</AltitudeMeters>
            <DistanceMeters>NAN</DistanceMeters>
          </Trackpoint>
          <Trackpoint>
            <Time>2023-02-23T14:39:59.000Z</Time>
            <Position>
              <LatitudeDegrees>41.56843987293541431427001953125</LatitudeDegrees>
              <LongitudeDegrees>-4.56174393184483051300048828125</LongitudeDegrees>
            </Position>
            <AltitudeMeters>1277.800048828125</AltitudeMeters>
            <DistanceMeters>NAN</DistanceMeters>
          </Trackpoint>
          <Trackpoint>
            <Time>2023-02-23T14:40:04.000Z</Time>
            <Position>
              <LatitudeDegrees>41.56827709637582302093505859375</LatitudeDegrees>
              <LongitudeDegrees>-4.5618204586207866668701171875</LongitudeDegrees>
            </Position>
            <AltitudeMeters>1276.5999755859375</AltitudeMeters>
            <DistanceMeters>NAN</DistanceMeters>
          </Trackpoint>
          <Trackpoint>
            <Time>2023-02-23T14:40:05.000Z</Time>
            <Position>
              <LatitudeDegrees>41.5682465024292469024658203125</LatitudeDegrees>
              <LongitudeDegrees>-4.56183596514165401458740234375</LongitudeDegrees>
            </Position>
            <AltitudeMeters>1276.199951171875</AltitudeMeters>
            <DistanceMeters>NAN</DistanceMeters>
          </Trackpoint>
          <Trackpoint>
            <Time>2023-02-23T14:40:08.000Z</Time>
            <Position>
              <LatitudeDegrees>41.56815983355045318603515625</LatitudeDegrees>
              <LongitudeDegrees>-4.56187234260141849517822265625</LongitudeDegrees>
            </Position>
            <AltitudeMeters>1275.4000244140625</AltitudeMeters>
            <DistanceMeters>NAN</DistanceMeters>
          </Trackpoint>
          <Trackpoint>
            <Time>2023-02-23T14:40:10.000Z</Time>
            <Position>
              <LatitudeDegrees>41.5681050159037113189697265625</LatitudeDegrees>
              <LongitudeDegrees>-4.56189044751226902008056640625</LongitudeDegrees>
            </Position>
            <AltitudeMeters>1274.800048828125</AltitudeMeters>
            <DistanceMeters>NAN</DistanceMeters>
          </Trackpoint>
          <Trackpoint>
            <Time>2023-02-23T14:40:11.000Z</Time>
            <Position>
              <LatitudeDegrees>41.568078361451625823974609375</LatitudeDegrees>
              <LongitudeDegrees>-4.56189396791160106658935546875</LongitudeDegrees>
            </Position>
            <AltitudeMeters>1274.5999755859375</AltitudeMeters>
            <DistanceMeters>NAN</DistanceMeters>
          </Trackpoint>
          <Trackpoint>
            <Time>2023-02-23T14:40:12.000Z</Time>
            <Position>
              <LatitudeDegrees>41.5680476836860179901123046875</LatitudeDegrees>
              <LongitudeDegrees>-4.561890698969364166259765625</LongitudeDegrees>
            </Position>
            <AltitudeMeters>1274.4000244140625</AltitudeMeters>
            <DistanceMeters>NAN</DistanceMeters>
          </Trackpoint>
          <Trackpoint>
            <Time>2023-02-23T14:40:13.000Z</Time>
            <Position>
              <LatitudeDegrees>41.56802161596715450286865234375</LatitudeDegrees>
              <LongitudeDegrees>-4.56188944168388843536376953125</LongitudeDegrees>
            </Position>
            <AltitudeMeters>1274.4000244140625</AltitudeMeters>
            <DistanceMeters>NAN</DistanceMeters>
          </Trackpoint>
          <Trackpoint>
            <Time>2023-02-23T14:40:18.000Z</Time>
            <Position>
              <LatitudeDegrees>41.56784710474312305450439453125</LatitudeDegrees>
              <LongitudeDegrees>-4.5618439279496669769287109375</LongitudeDegrees>
            </Position>
            <AltitudeMeters>1274.4000244140625</AltitudeMeters>
            <DistanceMeters>NAN</DistanceMeters>
          </Trackpoint>
          <Trackpoint>
            <Time>2023-02-23T14:40:21.000Z</Time>
            <Position>
              <LatitudeDegrees>41.56775507144629955291748046875</LatitudeDegrees>
              <LongitudeDegrees>-4.561820961534976959228515625</LongitudeDegrees>
            </Position>
            <AltitudeMeters>1273.5999755859375</AltitudeMeters>
            <DistanceMeters>NAN</DistanceMeters>
          </Trackpoint>
          <Trackpoint>
            <Time>2023-02-23T14:40:22.000Z</Time>
            <Position>
              <LatitudeDegrees>41.56772657297551631927490234375</LatitudeDegrees>
              <LongitudeDegrees>-4.56180964596569538116455078125</LongitudeDegrees>
            </Position>
            <AltitudeMeters>1273</AltitudeMeters>
            <DistanceMeters>NAN</DistanceMeters>
          </Trackpoint>
          <Trackpoint>
            <Time>2023-02-23T14:40:24.000Z</Time>
            <Position>
              <LatitudeDegrees>41.5676668100059032440185546875</LatitudeDegrees>
              <LongitudeDegrees>-4.56178500317037105560302734375</LongitudeDegrees>
            </Position>
            <AltitudeMeters>1272.5999755859375</AltitudeMeters>
            <DistanceMeters>NAN</DistanceMeters>
          </Trackpoint>
          <Trackpoint>
            <Time>2023-02-23T14:40:26.000Z</Time>
            <Position>
              <LatitudeDegrees>41.56760461628437042236328125</LatitudeDegrees>
              <LongitudeDegrees>-4.5617736876010894775390625</LongitudeDegrees>
            </Position>
            <AltitudeMeters>1272</AltitudeMeters>
            <DistanceMeters>NAN</DistanceMeters>
          </Trackpoint>
          <Trackpoint>
            <Time>2023-02-23T14:40:31.000Z</Time>
            <Position>
              <LatitudeDegrees>41.5674515627324581146240234375</LatitudeDegrees>
              <LongitudeDegrees>-4.56176924519240856170654296875</LongitudeDegrees>
            </Position>
            <AltitudeMeters>1271.800048828125</AltitudeMeters>
            <DistanceMeters>NAN</DistanceMeters>
          </Trackpoint>
          <Trackpoint>
            <Time>2023-02-23T14:40:32.000Z</Time>
            <Position>
              <LatitudeDegrees>41.56741577200591564178466796875</LatitudeDegrees>
              <LongitudeDegrees>-4.56176899373531341552734375</LongitudeDegrees>
            </Position>
            <AltitudeMeters>1271.800048828125</AltitudeMeters>
            <DistanceMeters>NAN</DistanceMeters>
          </Trackpoint>
          <Trackpoint>
            <Time>2023-02-23T14:40:36.000Z</Time>
            <Position>
              <LatitudeDegrees>41.56728677451610565185546875</LatitudeDegrees>
              <LongitudeDegrees>-4.5617668144404888153076171875</LongitudeDegrees>
            </Position>
            <AltitudeMeters>1271</AltitudeMeters>
            <DistanceMeters>NAN</DistanceMeters>
          </Trackpoint>
          <Trackpoint>
            <Time>2023-02-23T14:40:37.000Z</Time>
            <Position>
              <LatitudeDegrees>41.56725634820759296417236328125</LatitudeDegrees>
              <LongitudeDegrees>-4.5617634616792201995849609375</LongitudeDegrees>
            </Position>
            <AltitudeMeters>1270.800048828125</AltitudeMeters>
            <DistanceMeters>NAN</DistanceMeters>
          </Trackpoint>
          <Trackpoint>
            <Time>2023-02-23T14:40:42.000Z</Time>
            <Position>
              <LatitudeDegrees>41.56709231436252593994140625</LatitudeDegrees>
              <LongitudeDegrees>-4.56169565208256244659423828125</LongitudeDegrees>
            </Position>
            <AltitudeMeters>1270</AltitudeMeters>
            <DistanceMeters>NAN</DistanceMeters>
          </Trackpoint>
          <Trackpoint>
            <Time>2023-02-23T14:40:43.000Z</Time>
            <Position>
              <LatitudeDegrees>41.56705736182630062103271484375</LatitudeDegrees>
              <LongitudeDegrees>-4.5616732724010944366455078125</LongitudeDegrees>
            </Position>
            <AltitudeMeters>1269.800048828125</AltitudeMeters>
            <DistanceMeters>NAN</DistanceMeters>
          </Trackpoint>
          <Trackpoint>
            <Time>2023-02-23T14:40:44.000Z</Time>
            <Position>
              <LatitudeDegrees>41.56702249310910701751708984375</LatitudeDegrees>
              <LongitudeDegrees>-4.56165156327188014984130859375</LongitudeDegrees>
            </Position>
            <AltitudeMeters>1269.4000244140625</AltitudeMeters>
            <DistanceMeters>NAN</DistanceMeters>
          </Trackpoint>
          <Trackpoint>
            <Time>2023-02-23T14:40:46.000Z</Time>
            <Position>
              <LatitudeDegrees>41.56694345176219940185546875</LatitudeDegrees>
              <LongitudeDegrees>-4.56160940229892730712890625</LongitudeDegrees>
            </Position>
            <AltitudeMeters>1268.800048828125</AltitudeMeters>
            <DistanceMeters>NAN</DistanceMeters>
          </Trackpoint>
          <Trackpoint>
            <Time>2023-02-23T14:40:48.000Z</Time>
            <Position>
              <LatitudeDegrees>41.56686407513916492462158203125</LatitudeDegrees>
              <LongitudeDegrees>-4.56156439147889614105224609375</LongitudeDegrees>
            </Position>
            <AltitudeMeters>1268.199951171875</AltitudeMeters>
            <DistanceMeters>NAN</DistanceMeters>
          </Trackpoint>
          <Trackpoint>
            <Time>2023-02-23T14:40:50.000Z</Time>
            <Position>
              <LatitudeDegrees>41.56679919920861721038818359375</LatitudeDegrees>
              <LongitudeDegrees>-4.56153186969459056854248046875</LongitudeDegrees>
            </Position>
            <AltitudeMeters>1267.5999755859375</AltitudeMeters>
            <DistanceMeters>NAN</DistanceMeters>
          </Trackpoint>
          <Trackpoint>
            <Time>2023-02-23T14:40:51.000Z</Time>
            <Position>
              <LatitudeDegrees>41.5667711198329925537109375</LatitudeDegrees>
              <LongitudeDegrees>-4.56151996739208698272705078125</LongitudeDegrees>
            </Position>
            <AltitudeMeters>1267.5999755859375</AltitudeMeters>
            <DistanceMeters>NAN</DistanceMeters>
          </Trackpoint>
          <Trackpoint>
            <Time>2023-02-23T14:40:56.000Z</Time>
            <Position>
              <LatitudeDegrees>41.56663424335420131683349609375</LatitudeDegrees>
              <LongitudeDegrees>-4.56146582029759883880615234375</LongitudeDegrees>
            </Position>
            <AltitudeMeters>1267.4000244140625</AltitudeMeters>
            <DistanceMeters>NAN</DistanceMeters>
          </Trackpoint>
          <Trackpoint>
            <Time>2023-02-23T14:40:58.000Z</Time>
            <Position>
              <LatitudeDegrees>41.56662292778491973876953125</LatitudeDegrees>
              <LongitudeDegrees>-4.56145911477506160736083984375</LongitudeDegrees>
            </Position>
            <AltitudeMeters>1267.4000244140625</AltitudeMeters>
            <DistanceMeters>NAN</DistanceMeters>
          </Trackpoint>
          <Trackpoint>
            <Time>2023-02-23T14:40:59.000Z</Time>
            <Position>
              <LatitudeDegrees>41.56662099994719028472900390625</LatitudeDegrees>
              <LongitudeDegrees>-4.5614573545753955841064453125</LongitudeDegrees>
            </Position>
            <AltitudeMeters>1267.4000244140625</AltitudeMeters>
            <DistanceMeters>NAN</DistanceMeters>
          </Trackpoint>
          <Trackpoint>
            <Time>2023-02-23T14:41:00.000Z</Time>
            <Position>
              <LatitudeDegrees>41.56661747954785823822021484375</LatitudeDegrees>
              <LongitudeDegrees>-4.56145408563315868377685546875</LongitudeDegrees>
            </Position>
            <AltitudeMeters>1267.4000244140625</AltitudeMeters>
            <DistanceMeters>NAN</DistanceMeters>
          </Trackpoint>
          <Trackpoint>
            <Time>2023-02-23T14:41:06.000Z</Time>
            <Position>
              <LatitudeDegrees>41.5665967762470245361328125</LatitudeDegrees>
              <LongitudeDegrees>-4.5614308677613735198974609375</LongitudeDegrees>
            </Position>
            <AltitudeMeters>1267.199951171875</AltitudeMeters>
            <DistanceMeters>NAN</DistanceMeters>
          </Trackpoint>
          <Trackpoint>
            <Time>2023-02-23T14:41:07.000Z</Time>
            <Position>
              <LatitudeDegrees>41.56659610569477081298828125</LatitudeDegrees>
              <LongitudeDegrees>-4.5614402554929256439208984375</LongitudeDegrees>
            </Position>
            <AltitudeMeters>1267.4000244140625</AltitudeMeters>
            <DistanceMeters>NAN</DistanceMeters>
          </Trackpoint>
          <Trackpoint>
            <Time>2023-02-23T14:41:08.000Z</Time>
            <Position>
              <LatitudeDegrees>41.5666021406650543212890625</LatitudeDegrees>
              <LongitudeDegrees>-4.56145056523382663726806640625</LongitudeDegrees>
            </Position>
            <AltitudeMeters>1267.5999755859375</AltitudeMeters>
            <DistanceMeters>NAN</DistanceMeters>
          </Trackpoint>
          <Trackpoint>
            <Time>2023-02-23T14:41:12.000Z</Time>
            <Position>
              <LatitudeDegrees>41.5666690282523632049560546875</LatitudeDegrees>
              <LongitudeDegrees>-4.56153488717973232269287109375</LongitudeDegrees>
            </Position>
            <AltitudeMeters>1267.4000244140625</AltitudeMeters>
            <DistanceMeters>NAN</DistanceMeters>
          </Trackpoint>
          <Trackpoint>
            <Time>2023-02-23T14:41:15.000Z</Time>
            <Position>
              <LatitudeDegrees>41.56675410456955432891845703125</LatitudeDegrees>
              <LongitudeDegrees>-4.56162281334400177001953125</LongitudeDegrees>
            </Position>
            <AltitudeMeters>1266.199951171875</AltitudeMeters>
            <DistanceMeters>NAN</DistanceMeters>
          </Trackpoint>
          <Trackpoint>
            <Time>2023-02-23T14:41:17.000Z</Time>
            <Position>
              <LatitudeDegrees>41.5668138675391674041748046875</LatitudeDegrees>
              <LongitudeDegrees>-4.5616833306849002838134765625</LongitudeDegrees>
            </Position>
            <AltitudeMeters>1265.4000244140625</AltitudeMeters>
            <DistanceMeters>NAN</DistanceMeters>
          </Trackpoint>
          <Trackpoint>
            <Time>2023-02-23T14:41:18.000Z</Time>
            <Position>
              <LatitudeDegrees>41.5668475627899169921875</LatitudeDegrees>
              <LongitudeDegrees>-4.56171090714633464813232421875</LongitudeDegrees>
            </Position>
            <AltitudeMeters>1265</AltitudeMeters>
            <DistanceMeters>NAN</DistanceMeters>
          </Trackpoint>
          <Trackpoint>
            <Time>2023-02-23T14:41:19.000Z</Time>
            <Position>
              <LatitudeDegrees>41.5668836049735546112060546875</LatitudeDegrees>
              <LongitudeDegrees>-4.56174091435968875885009765625</LongitudeDegrees>
            </Position>
            <AltitudeMeters>1264.800048828125</AltitudeMeters>
            <DistanceMeters>NAN</DistanceMeters>
          </Trackpoint>
          <Trackpoint>
            <Time>2023-02-23T14:41:21.000Z</Time>
            <Position>
              <LatitudeDegrees>41.566957868635654449462890625</LatitudeDegrees>
              <LongitudeDegrees>-4.5618040300905704498291015625</LongitudeDegrees>
            </Position>
            <AltitudeMeters>1263.4000244140625</AltitudeMeters>
            <DistanceMeters>NAN</DistanceMeters>
          </Trackpoint>
          <Trackpoint>
            <Time>2023-02-23T14:41:23.000Z</Time>
            <Position>
              <LatitudeDegrees>41.56703406013548374176025390625</LatitudeDegrees>
              <LongitudeDegrees>-4.5618751086294651031494140625</LongitudeDegrees>
            </Position>
            <AltitudeMeters>1262.4000244140625</AltitudeMeters>
            <DistanceMeters>NAN</DistanceMeters>
          </Trackpoint>
          <Trackpoint>
            <Time>2023-02-23T14:41:24.000Z</Time>
            <Position>
              <LatitudeDegrees>41.56707295216619968414306640625</LatitudeDegrees>
              <LongitudeDegrees>-4.56190687604248523712158203125</LongitudeDegrees>
            </Position>
            <AltitudeMeters>1262</AltitudeMeters>
            <DistanceMeters>NAN</DistanceMeters>
          </Trackpoint>
          <Trackpoint>
            <Time>2023-02-23T14:41:25.000Z</Time>
            <Position>
              <LatitudeDegrees>41.56711100600659847259521484375</LatitudeDegrees>
              <LongitudeDegrees>-4.56193931400775909423828125</LongitudeDegrees>
            </Position>
            <AltitudeMeters>1261.800048828125</AltitudeMeters>
            <DistanceMeters>NAN</DistanceMeters>
          </Trackpoint>
          <Trackpoint>
            <Time>2023-02-23T14:41:26.000Z</Time>
            <Position>
              <LatitudeDegrees>41.5671484731137752532958984375</LatitudeDegrees>
              <LongitudeDegrees>-4.561974518001079559326171875</LongitudeDegrees>
            </Position>
            <AltitudeMeters>1260.800048828125</AltitudeMeters>
            <DistanceMeters>NAN</DistanceMeters>
          </Trackpoint>
          <Trackpoint>
            <Time>2023-02-23T14:41:28.000Z</Time>
            <Position>
              <LatitudeDegrees>41.5672259218990802764892578125</LatitudeDegrees>
              <LongitudeDegrees>-4.56203562207520008087158203125</LongitudeDegrees>
            </Position>
            <AltitudeMeters>1259.800048828125</AltitudeMeters>
            <DistanceMeters>NAN</DistanceMeters>
          </Trackpoint>
          <Trackpoint>
            <Time>2023-02-23T14:41:31.000Z</Time>
            <Position>
              <LatitudeDegrees>41.5673576854169368743896484375</LatitudeDegrees>
              <LongitudeDegrees>-4.56213838420808315277099609375</LongitudeDegrees>
            </Position>
            <AltitudeMeters>1258.4000244140625</AltitudeMeters>
            <DistanceMeters>NAN</DistanceMeters>
          </Trackpoint>
          <Trackpoint>
            <Time>2023-02-23T14:41:32.000Z</Time>
            <Position>
              <LatitudeDegrees>41.56740554608404636383056640625</LatitudeDegrees>
              <LongitudeDegrees>-4.562174342572689056396484375</LongitudeDegrees>
            </Position>
            <AltitudeMeters>1258</AltitudeMeters>
            <DistanceMeters>NAN</DistanceMeters>
          </Trackpoint>
          <Trackpoint>
            <Time>2023-02-23T14:41:35.000Z</Time>
            <Position>
              <LatitudeDegrees>41.56756279058754444122314453125</LatitudeDegrees>
              <LongitudeDegrees>-4.5622797869145870208740234375</LongitudeDegrees>
            </Position>
            <AltitudeMeters>1257</AltitudeMeters>
            <DistanceMeters>NAN</DistanceMeters>
          </Trackpoint>
          <Trackpoint>
            <Time>2023-02-23T14:41:38.000Z</Time>
            <Position>
              <LatitudeDegrees>41.56770260073244571685791015625</LatitudeDegrees>
              <LongitudeDegrees>-4.562370479106903076171875</LongitudeDegrees>
            </Position>
            <AltitudeMeters>1255.800048828125</AltitudeMeters>
            <DistanceMeters>NAN</DistanceMeters>
          </Trackpoint>
          <Trackpoint>
            <Time>2023-02-23T14:41:39.000Z</Time>
            <Position>
              <LatitudeDegrees>41.5677546523511409759521484375</LatitudeDegrees>
              <LongitudeDegrees>-4.56240140832960605621337890625</LongitudeDegrees>
            </Position>
            <AltitudeMeters>1255.4000244140625</AltitudeMeters>
            <DistanceMeters>NAN</DistanceMeters>
          </Trackpoint>
          <Trackpoint>
            <Time>2023-02-23T14:41:41.000Z</Time>
            <Position>
              <LatitudeDegrees>41.56785003840923309326171875</LatitudeDegrees>
              <LongitudeDegrees>-4.56246444024145603179931640625</LongitudeDegrees>
            </Position>
            <AltitudeMeters>1254.5999755859375</AltitudeMeters>
            <DistanceMeters>NAN</DistanceMeters>
          </Trackpoint>
          <Trackpoint>
            <Time>2023-02-23T14:41:45.000Z</Time>
            <Position>
              <LatitudeDegrees>41.56803921796381473541259765625</LatitudeDegrees>
              <LongitudeDegrees>-4.5625899173319339752197265625</LongitudeDegrees>
            </Position>
            <AltitudeMeters>1253.4000244140625</AltitudeMeters>
            <DistanceMeters>NAN</DistanceMeters>
          </Trackpoint>
          <Trackpoint>
            <Time>2023-02-23T14:41:46.000Z</Time>
            <Position>
              <LatitudeDegrees>41.56809202395379543304443359375</LatitudeDegrees>
              <LongitudeDegrees>-4.56261967308819293975830078125</LongitudeDegrees>
            </Position>
            <AltitudeMeters>1252.199951171875</AltitudeMeters>
            <DistanceMeters>NAN</DistanceMeters>
          </Trackpoint>
          <Trackpoint>
            <Time>2023-02-23T14:41:49.000Z</Time>
            <Position>
              <LatitudeDegrees>41.568249352276325225830078125</LatitudeDegrees>
              <LongitudeDegrees>-4.56271187402307987213134765625</LongitudeDegrees>
            </Position>
            <AltitudeMeters>1251.199951171875</AltitudeMeters>
            <DistanceMeters>NAN</DistanceMeters>
          </Trackpoint>
          <Trackpoint>
            <Time>2023-02-23T14:41:52.000Z</Time>
            <Position>
              <LatitudeDegrees>41.568374745547771453857421875</LatitudeDegrees>
              <LongitudeDegrees>-4.56278999336063861846923828125</LongitudeDegrees>
            </Position>
            <AltitudeMeters>1249.800048828125</AltitudeMeters>
            <DistanceMeters>NAN</DistanceMeters>
          </Trackpoint>
          <Trackpoint>
            <Time>2023-02-23T14:41:54.000Z</Time>
            <Position>
              <LatitudeDegrees>41.56843434087932109832763671875</LatitudeDegrees>
              <LongitudeDegrees>-4.5628457330167293548583984375</LongitudeDegrees>
            </Position>
            <AltitudeMeters>1248.5999755859375</AltitudeMeters>
            <DistanceMeters>NAN</DistanceMeters>
          </Trackpoint>
          <Trackpoint>
            <Time>2023-02-23T14:41:58.000Z</Time>
            <Position>
              <LatitudeDegrees>41.5685184113681316375732421875</LatitudeDegrees>
              <LongitudeDegrees>-4.56299048848450183868408203125</LongitudeDegrees>
            </Position>
            <AltitudeMeters>1248</AltitudeMeters>
            <DistanceMeters>NAN</DistanceMeters>
          </Trackpoint>
          <Trackpoint>
            <Time>2023-02-23T14:42:02.000Z</Time>
            <Position>
              <LatitudeDegrees>41.56850810162723064422607421875</LatitudeDegrees>
              <LongitudeDegrees>-4.5631903968751430511474609375</LongitudeDegrees>
            </Position>
            <AltitudeMeters>1247.199951171875</AltitudeMeters>
            <DistanceMeters>NAN</DistanceMeters>
          </Trackpoint>
          <Trackpoint>
            <Time>2023-02-23T14:42:03.000Z</Time>
            <Position>
              <LatitudeDegrees>41.56847524456679821014404296875</LatitudeDegrees>
              <LongitudeDegrees>-4.5632363297045230865478515625</LongitudeDegrees>
            </Position>
            <AltitudeMeters>1247</AltitudeMeters>
            <DistanceMeters>NAN</DistanceMeters>
          </Trackpoint>
          <Trackpoint>
            <Time>2023-02-23T14:42:05.000Z</Time>
            <Position>
              <LatitudeDegrees>41.56838891096413135528564453125</LatitudeDegrees>
              <LongitudeDegrees>-4.56326725892722606658935546875</LongitudeDegrees>
            </Position>
            <AltitudeMeters>1246.4000244140625</AltitudeMeters>
            <DistanceMeters>NAN</DistanceMeters>
          </Trackpoint>
          <Trackpoint>
            <Time>2023-02-23T14:42:06.000Z</Time>
            <Position>
              <LatitudeDegrees>41.5683423914015293121337890625</LatitudeDegrees>
              <LongitudeDegrees>-4.56325954757630825042724609375</LongitudeDegrees>
            </Position>
            <AltitudeMeters>1246</AltitudeMeters>
            <DistanceMeters>NAN</DistanceMeters>
          </Trackpoint>
          <Trackpoint>
            <Time>2023-02-23T14:42:09.000Z</Time>
            <Position>
              <LatitudeDegrees>41.56820316798985004425048828125</LatitudeDegrees>
              <LongitudeDegrees>-4.56320640631020069122314453125</LongitudeDegrees>
            </Position>
            <AltitudeMeters>1245.5999755859375</AltitudeMeters>
            <DistanceMeters>NAN</DistanceMeters>
          </Trackpoint>
          <Trackpoint>
            <Time>2023-02-23T14:42:12.000Z</Time>
            <Position>
              <LatitudeDegrees>41.56806327402591705322265625</LatitudeDegrees>
              <LongitudeDegrees>-4.56315041519701480865478515625</LongitudeDegrees>
            </Position>
            <AltitudeMeters>1245.5999755859375</AltitudeMeters>
            <DistanceMeters>NAN</DistanceMeters>
          </Trackpoint>
          <Trackpoint>
            <Time>2023-02-23T14:42:16.000Z</Time>
            <Position>
              <LatitudeDegrees>41.5678894333541393280029296875</LatitudeDegrees>
              <LongitudeDegrees>-4.56305419094860553741455078125</LongitudeDegrees>
            </Position>
            <AltitudeMeters>1245.5999755859375</AltitudeMeters>
            <DistanceMeters>NAN</DistanceMeters>
          </Trackpoint>
          <Trackpoint>
            <Time>2023-02-23T14:42:20.000Z</Time>
            <Position>
              <LatitudeDegrees>41.56774132512509822845458984375</LatitudeDegrees>
              <LongitudeDegrees>-4.56295075826346874237060546875</LongitudeDegrees>
            </Position>
            <AltitudeMeters>1245.199951171875</AltitudeMeters>
            <DistanceMeters>NAN</DistanceMeters>
          </Trackpoint>
          <Trackpoint>
            <Time>2023-02-23T14:42:23.000Z</Time>
            <Position>
              <LatitudeDegrees>41.56765264458954334259033203125</LatitudeDegrees>
              <LongitudeDegrees>-4.56289828754961490631103515625</LongitudeDegrees>
            </Position>
            <AltitudeMeters>1245.199951171875</AltitudeMeters>
            <DistanceMeters>NAN</DistanceMeters>
          </Trackpoint>
          <Trackpoint>
            <Time>2023-02-23T14:42:25.000Z</Time>
            <Position>
              <LatitudeDegrees>41.56759095378220081329345703125</LatitudeDegrees>
              <LongitudeDegrees>-4.562873728573322296142578125</LongitudeDegrees>
            </Position>
            <AltitudeMeters>1245.4000244140625</AltitudeMeters>
            <DistanceMeters>NAN</DistanceMeters>
          </Trackpoint>
          <Trackpoint>
            <Time>2023-02-23T14:42:28.000Z</Time>
            <Position>
              <LatitudeDegrees>41.56750814057886600494384765625</LatitudeDegrees>
              <LongitudeDegrees>-4.56282184459269046783447265625</LongitudeDegrees>
            </Position>
            <AltitudeMeters>1246</AltitudeMeters>
            <DistanceMeters>NAN</DistanceMeters>
          </Trackpoint>
          <Trackpoint>
            <Time>2023-02-23T14:42:30.000Z</Time>
            <Position>
              <LatitudeDegrees>41.56745030544698238372802734375</LatitudeDegrees>
              <LongitudeDegrees>-4.56279200501739978790283203125</LongitudeDegrees>
            </Position>
            <AltitudeMeters>1246.199951171875</AltitudeMeters>
            <DistanceMeters>NAN</DistanceMeters>
          </Trackpoint>
          <Trackpoint>
            <Time>2023-02-23T14:42:36.000Z</Time>
            <Position>
              <LatitudeDegrees>41.56727042980492115020751953125</LatitudeDegrees>
              <LongitudeDegrees>-4.56272830255329608917236328125</LongitudeDegrees>
            </Position>
            <AltitudeMeters>1246.5999755859375</AltitudeMeters>
            <DistanceMeters>NAN</DistanceMeters>
          </Trackpoint>
          <Trackpoint>
            <Time>2023-02-23T14:42:39.000Z</Time>
            <Position>
              <LatitudeDegrees>41.5671598725020885467529296875</LatitudeDegrees>
              <LongitudeDegrees>-4.56275730393826961517333984375</LongitudeDegrees>
            </Position>
            <AltitudeMeters>1246.4000244140625</AltitudeMeters>
            <DistanceMeters>NAN</DistanceMeters>
          </Trackpoint>
          <Trackpoint>
            <Time>2023-02-23T14:42:40.000Z</Time>
            <Position>
              <LatitudeDegrees>41.567139588296413421630859375</LatitudeDegrees>
              <LongitudeDegrees>-4.56282352097332477569580078125</LongitudeDegrees>
            </Position>
            <AltitudeMeters>1246.199951171875</AltitudeMeters>
            <DistanceMeters>NAN</DistanceMeters>
          </Trackpoint>
          <Trackpoint>
            <Time>2023-02-23T14:42:41.000Z</Time>
            <Position>
              <LatitudeDegrees>41.5671278536319732666015625</LatitudeDegrees>
              <LongitudeDegrees>-4.56288722343742847442626953125</LongitudeDegrees>
            </Position>
            <AltitudeMeters>1246</AltitudeMeters>
            <DistanceMeters>NAN</DistanceMeters>
          </Trackpoint>
          <Trackpoint>
            <Time>2023-02-23T14:42:43.000Z</Time>
            <Position>
              <LatitudeDegrees>41.56714235432446002960205078125</LatitudeDegrees>
              <LongitudeDegrees>-4.5630036480724811553955078125</LongitudeDegrees>
            </Position>
            <AltitudeMeters>1245.5999755859375</AltitudeMeters>
            <DistanceMeters>NAN</DistanceMeters>
          </Trackpoint>
          <Trackpoint>
            <Time>2023-02-23T14:42:44.000Z</Time>
            <Position>
              <LatitudeDegrees>41.56717252917587757110595703125</LatitudeDegrees>
              <LongitudeDegrees>-4.56304966472089290618896484375</LongitudeDegrees>
            </Position>
            <AltitudeMeters>1245</AltitudeMeters>
            <DistanceMeters>NAN</DistanceMeters>
          </Trackpoint>
          <Trackpoint>
            <Time>2023-02-23T14:42:45.000Z</Time>
            <Position>
              <LatitudeDegrees>41.567209661006927490234375</LatitudeDegrees>
              <LongitudeDegrees>-4.56308595836162567138671875</LongitudeDegrees>
            </Position>
            <AltitudeMeters>1244.4000244140625</AltitudeMeters>
            <DistanceMeters>NAN</DistanceMeters>
          </Trackpoint>
          <Trackpoint>
            <Time>2023-02-23T14:42:46.000Z</Time>
            <Position>
              <LatitudeDegrees>41.56725752167403697967529296875</LatitudeDegrees>
              <LongitudeDegrees>-4.5631228387355804443359375</LongitudeDegrees>
            </Position>
            <AltitudeMeters>1244.199951171875</AltitudeMeters>
            <DistanceMeters>NAN</DistanceMeters>
          </Trackpoint>
          <Trackpoint>
            <Time>2023-02-23T14:42:48.000Z</Time>
            <Position>
              <LatitudeDegrees>41.56735458411276340484619140625</LatitudeDegrees>
              <LongitudeDegrees>-4.5632048137485980987548828125</LongitudeDegrees>
            </Position>
            <AltitudeMeters>1243.800048828125</AltitudeMeters>
            <DistanceMeters>NAN</DistanceMeters>
          </Trackpoint>
          <Trackpoint>
            <Time>2023-02-23T14:42:51.000Z</Time>
            <Position>
              <LatitudeDegrees>41.56753194518387317657470703125</LatitudeDegrees>
              <LongitudeDegrees>-4.56334336660802364349365234375</LongitudeDegrees>
            </Position>
            <AltitudeMeters>1242.5999755859375</AltitudeMeters>
            <DistanceMeters>NAN</DistanceMeters>
          </Trackpoint>
          <Trackpoint>
            <Time>2023-02-23T14:42:53.000Z</Time>
            <Position>
              <LatitudeDegrees>41.56764619052410125732421875</LatitudeDegrees>
              <LongitudeDegrees>-4.5634455420076847076416015625</LongitudeDegrees>
            </Position>
            <AltitudeMeters>1240.800048828125</AltitudeMeters>
            <DistanceMeters>NAN</DistanceMeters>
          </Trackpoint>
          <Trackpoint>
            <Time>2023-02-23T14:42:55.000Z</Time>
            <Position>
              <LatitudeDegrees>41.5677506290376186370849609375</LatitudeDegrees>
              <LongitudeDegrees>-4.563533551990985870361328125</LongitudeDegrees>
            </Position>
            <AltitudeMeters>1239.5999755859375</AltitudeMeters>
            <DistanceMeters>NAN</DistanceMeters>
          </Trackpoint>
          <Trackpoint>
            <Time>2023-02-23T14:42:58.000Z</Time>
            <Position>
              <LatitudeDegrees>41.5679571591317653656005859375</LatitudeDegrees>
              <LongitudeDegrees>-4.56372776068747043609619140625</LongitudeDegrees>
            </Position>
            <AltitudeMeters>1237.800048828125</AltitudeMeters>
            <DistanceMeters>NAN</DistanceMeters>
          </Trackpoint>
          <Trackpoint>
            <Time>2023-02-23T14:43:02.000Z</Time>
            <Position>
              <LatitudeDegrees>41.56810694374144077301025390625</LatitudeDegrees>
              <LongitudeDegrees>-4.56389062106609344482421875</LongitudeDegrees>
            </Position>
            <AltitudeMeters>1236</AltitudeMeters>
            <DistanceMeters>NAN</DistanceMeters>
          </Trackpoint>
          <Trackpoint>
            <Time>2023-02-23T14:43:03.000Z</Time>
            <Position>
              <LatitudeDegrees>41.56814801506698131561279296875</LatitudeDegrees>
              <LongitudeDegrees>-4.56394233740866184234619140625</LongitudeDegrees>
            </Position>
            <AltitudeMeters>1235.199951171875</AltitudeMeters>
            <DistanceMeters>NAN</DistanceMeters>
          </Trackpoint>
          <Trackpoint>
            <Time>2023-02-23T14:43:04.000Z</Time>
            <Position>
              <LatitudeDegrees>41.5681884996592998504638671875</LatitudeDegrees>
              <LongitudeDegrees>-4.5639891922473907470703125</LongitudeDegrees>
            </Position>
            <AltitudeMeters>1234.800048828125</AltitudeMeters>
            <DistanceMeters>NAN</DistanceMeters>
          </Trackpoint>
          <Trackpoint>
            <Time>2023-02-23T14:43:05.000Z</Time>
            <Position>
              <LatitudeDegrees>41.56822378747165203094482421875</LatitudeDegrees>
              <LongitudeDegrees>-4.5640423335134983062744140625</LongitudeDegrees>
            </Position>
            <AltitudeMeters>1234.4000244140625</AltitudeMeters>
            <DistanceMeters>NAN</DistanceMeters>
          </Trackpoint>
          <Trackpoint>
            <Time>2023-02-23T14:43:06.000Z</Time>
            <Position>
              <LatitudeDegrees>41.56826284714043140411376953125</LatitudeDegrees>
              <LongitudeDegrees>-4.56409824080765247344970703125</LongitudeDegrees>
            </Position>
            <AltitudeMeters>1233.800048828125</AltitudeMeters>
            <DistanceMeters>NAN</DistanceMeters>
          </Trackpoint>
          <Trackpoint>
            <Time>2023-02-23T14:43:08.000Z</Time>
            <Position>
              <LatitudeDegrees>41.56835169531404972076416015625</LatitudeDegrees>
              <LongitudeDegrees>-4.56422246061265468597412109375</LongitudeDegrees>
            </Position>
            <AltitudeMeters>1232.5999755859375</AltitudeMeters>
            <DistanceMeters>NAN</DistanceMeters>
          </Trackpoint>
          <Trackpoint>
            <Time>2023-02-23T14:43:10.000Z</Time>
            <Position>
              <LatitudeDegrees>41.5684340894222259521484375</LatitudeDegrees>
              <LongitudeDegrees>-4.56433997489511966705322265625</LongitudeDegrees>
            </Position>
            <AltitudeMeters>1231.4000244140625</AltitudeMeters>
            <DistanceMeters>NAN</DistanceMeters>
          </Trackpoint>
          <Trackpoint>
            <Time>2023-02-23T14:43:14.000Z</Time>
            <Position>
              <LatitudeDegrees>41.56856878660619258880615234375</LatitudeDegrees>
              <LongitudeDegrees>-4.564550109207630157470703125</LongitudeDegrees>
            </Position>
            <AltitudeMeters>1230.199951171875</AltitudeMeters>
            <DistanceMeters>NAN</DistanceMeters>
          </Trackpoint>
          <Trackpoint>
            <Time>2023-02-23T14:43:16.000Z</Time>
            <Position>
              <LatitudeDegrees>41.56864020042121410369873046875</LatitudeDegrees>
              <LongitudeDegrees>-4.56463334150612354278564453125</LongitudeDegrees>
            </Position>
            <AltitudeMeters>1229</AltitudeMeters>
            <DistanceMeters>NAN</DistanceMeters>
          </Trackpoint>
          <Trackpoint>
            <Time>2023-02-23T14:43:18.000Z</Time>
            <Position>
              <LatitudeDegrees>41.56871966086328029632568359375</LatitudeDegrees>
              <LongitudeDegrees>-4.5646806992590427398681640625</LongitudeDegrees>
            </Position>
            <AltitudeMeters>1228.5999755859375</AltitudeMeters>
            <DistanceMeters>NAN</DistanceMeters>
          </Trackpoint>
          <Trackpoint>
            <Time>2023-02-23T14:43:20.000Z</Time>
            <Position>
              <LatitudeDegrees>41.5688002109527587890625</LatitudeDegrees>
              <LongitudeDegrees>-4.56470198929309844970703125</LongitudeDegrees>
            </Position>
            <AltitudeMeters>1228.199951171875</AltitudeMeters>
            <DistanceMeters>NAN</DistanceMeters>
          </Trackpoint>
          <Trackpoint>
            <Time>2023-02-23T14:43:23.000Z</Time>
            <Position>
              <LatitudeDegrees>41.5688739717006683349609375</LatitudeDegrees>
              <LongitudeDegrees>-4.5647051744163036346435546875</LongitudeDegrees>
            </Position>
            <AltitudeMeters>1228</AltitudeMeters>
            <DistanceMeters>NAN</DistanceMeters>
          </Trackpoint>
          <Trackpoint>
            <Time>2023-02-23T14:43:24.000Z</Time>
            <Position>
              <LatitudeDegrees>41.5688754804432392120361328125</LatitudeDegrees>
              <LongitudeDegrees>-4.5647018216550350189208984375</LongitudeDegrees>
            </Position>
            <AltitudeMeters>1227.800048828125</AltitudeMeters>
            <DistanceMeters>NAN</DistanceMeters>
          </Trackpoint>
          <Trackpoint>
            <Time>2023-02-23T14:43:30.000Z</Time>
            <Position>
              <LatitudeDegrees>41.56888134777545928955078125</LatitudeDegrees>
              <LongitudeDegrees>-4.56468614749610424041748046875</LongitudeDegrees>
            </Position>
            <AltitudeMeters>1227.5999755859375</AltitudeMeters>
            <DistanceMeters>NAN</DistanceMeters>
          </Trackpoint>
          <Trackpoint>
            <Time>2023-02-23T14:43:32.000Z</Time>
            <Position>
              <LatitudeDegrees>41.56888260506093502044677734375</LatitudeDegrees>
              <LongitudeDegrees>-4.564686901867389678955078125</LongitudeDegrees>
            </Position>
            <AltitudeMeters>1227.800048828125</AltitudeMeters>
            <DistanceMeters>NAN</DistanceMeters>
          </Trackpoint>
          <Trackpoint>
            <Time>2023-02-23T14:43:34.000Z</Time>
            <Position>
              <LatitudeDegrees>41.5688858740031719207763671875</LatitudeDegrees>
              <LongitudeDegrees>-4.56468530930578708648681640625</LongitudeDegrees>
            </Position>
            <AltitudeMeters>1227.800048828125</AltitudeMeters>
            <DistanceMeters>NAN</DistanceMeters>
          </Trackpoint>
          <Trackpoint>
            <Time>2023-02-23T14:43:35.000Z</Time>
            <Position>
              <LatitudeDegrees>41.5689103491604328155517578125</LatitudeDegrees>
              <LongitudeDegrees>-4.56467516720294952392578125</LongitudeDegrees>
            </Position>
            <AltitudeMeters>1227.800048828125</AltitudeMeters>
            <DistanceMeters>NAN</DistanceMeters>
          </Trackpoint>
          <Trackpoint>
            <Time>2023-02-23T14:43:36.000Z</Time>
            <Position>
              <LatitudeDegrees>41.5689240954816341400146484375</LatitudeDegrees>
              <LongitudeDegrees>-4.56467843614518642425537109375</LongitudeDegrees>
            </Position>
            <AltitudeMeters>1227.800048828125</AltitudeMeters>
            <DistanceMeters>NAN</DistanceMeters>
          </Trackpoint>
          <Trackpoint>
            <Time>2023-02-23T14:43:40.000Z</Time>
            <Position>
              <LatitudeDegrees>41.56903901137411594390869140625</LatitudeDegrees>
              <LongitudeDegrees>-4.5647179149091243743896484375</LongitudeDegrees>
            </Position>
            <AltitudeMeters>1226.5999755859375</AltitudeMeters>
            <DistanceMeters>NAN</DistanceMeters>
          </Trackpoint>
          <Trackpoint>
            <Time>2023-02-23T14:43:41.000Z</Time>
            <Position>
              <LatitudeDegrees>41.569080837070941925048828125</LatitudeDegrees>
              <LongitudeDegrees>-4.56473442725837230682373046875</LongitudeDegrees>
            </Position>
            <AltitudeMeters>1226.199951171875</AltitudeMeters>
            <DistanceMeters>NAN</DistanceMeters>
          </Trackpoint>
          <Trackpoint>
            <Time>2023-02-23T14:43:42.000Z</Time>
            <Position>
              <LatitudeDegrees>41.56912232749164104461669921875</LatitudeDegrees>
              <LongitudeDegrees>-4.56475018523633480072021484375</LongitudeDegrees>
            </Position>
            <AltitudeMeters>1225.199951171875</AltitudeMeters>
            <DistanceMeters>NAN</DistanceMeters>
          </Trackpoint>
          <Trackpoint>
            <Time>2023-02-23T14:43:43.000Z</Time>
            <Position>
              <LatitudeDegrees>41.56916071660816669464111328125</LatitudeDegrees>
              <LongitudeDegrees>-4.56475990824401378631591796875</LongitudeDegrees>
            </Position>
            <AltitudeMeters>1224.800048828125</AltitudeMeters>
            <DistanceMeters>NAN</DistanceMeters>
          </Trackpoint>
          <Trackpoint>
            <Time>2023-02-23T14:43:45.000Z</Time>
            <Position>
              <LatitudeDegrees>41.56923162750899791717529296875</LatitudeDegrees>
              <LongitudeDegrees>-4.5647759176790714263916015625</LongitudeDegrees>
            </Position>
            <AltitudeMeters>1224.5999755859375</AltitudeMeters>
            <DistanceMeters>NAN</DistanceMeters>
          </Trackpoint>
          <Trackpoint>
            <Time>2023-02-23T14:43:47.000Z</Time>
            <Position>
              <LatitudeDegrees>41.569271273910999298095703125</LatitudeDegrees>
              <LongitudeDegrees>-4.5647809468209743499755859375</LongitudeDegrees>
            </Position>
            <AltitudeMeters>1224.4000244140625</AltitudeMeters>
            <DistanceMeters>NAN</DistanceMeters>
          </Trackpoint>
          <Trackpoint>
            <Time>2023-02-23T14:43:48.000Z</Time>
            <Position>
              <LatitudeDegrees>41.569287367165088653564453125</LatitudeDegrees>
              <LongitudeDegrees>-4.5647859759628772735595703125</LongitudeDegrees>
            </Position>
            <AltitudeMeters>1224.199951171875</AltitudeMeters>
            <DistanceMeters>NAN</DistanceMeters>
          </Trackpoint>
          <Trackpoint>
            <Time>2023-02-23T14:43:52.000Z</Time>
            <Position>
              <LatitudeDegrees>41.56934478320181369781494140625</LatitudeDegrees>
              <LongitudeDegrees>-4.564795196056365966796875</LongitudeDegrees>
            </Position>
            <AltitudeMeters>1223.5999755859375</AltitudeMeters>
            <DistanceMeters>NAN</DistanceMeters>
          </Trackpoint>
          <Trackpoint>
            <Time>2023-02-23T14:43:54.000Z</Time>
            <Position>
              <LatitudeDegrees>41.569339334964752197265625</LatitudeDegrees>
              <LongitudeDegrees>-4.5647913403809070587158203125</LongitudeDegrees>
            </Position>
            <AltitudeMeters>1223.4000244140625</AltitudeMeters>
            <DistanceMeters>NAN</DistanceMeters>
          </Trackpoint>
          <Trackpoint>
            <Time>2023-02-23T14:43:58.000Z</Time>
            <Position>
              <LatitudeDegrees>41.56934159807860851287841796875</LatitudeDegrees>
              <LongitudeDegrees>-4.56478958018124103546142578125</LongitudeDegrees>
            </Position>
            <AltitudeMeters>1223.199951171875</AltitudeMeters>
            <DistanceMeters>NAN</DistanceMeters>
          </Trackpoint>
          <Trackpoint>
            <Time>2023-02-23T14:43:59.000Z</Time>
            <Position>
              <LatitudeDegrees>41.56934126280248165130615234375</LatitudeDegrees>
              <LongitudeDegrees>-4.56478916108608245849609375</LongitudeDegrees>
            </Position>
            <AltitudeMeters>1223</AltitudeMeters>
            <DistanceMeters>NAN</DistanceMeters>
          </Trackpoint>
          <Trackpoint>
            <Time>2023-02-23T14:44:04.000Z</Time>
            <Position>
              <LatitudeDegrees>41.5693291090428829193115234375</LatitudeDegrees>
              <LongitudeDegrees>-4.564805924892425537109375</LongitudeDegrees>
            </Position>
            <AltitudeMeters>1222.4000244140625</AltitudeMeters>
            <DistanceMeters>NAN</DistanceMeters>
          </Trackpoint>
          <Trackpoint>
            <Time>2023-02-23T14:44:05.000Z</Time>
            <Position>
              <LatitudeDegrees>41.56934143044054508209228515625</LatitudeDegrees>
              <LongitudeDegrees>-4.5648131333291530609130859375</LongitudeDegrees>
            </Position>
            <AltitudeMeters>1222.199951171875</AltitudeMeters>
            <DistanceMeters>NAN</DistanceMeters>
          </Trackpoint>
          <Trackpoint>
            <Time>2023-02-23T14:44:07.000Z</Time>
            <Position>
              <LatitudeDegrees>41.5693854354321956634521484375</LatitudeDegrees>
              <LongitudeDegrees>-4.56483014859259128570556640625</LongitudeDegrees>
            </Position>
            <AltitudeMeters>1222.4000244140625</AltitudeMeters>
            <DistanceMeters>NAN</DistanceMeters>
          </Trackpoint>
          <Trackpoint>
            <Time>2023-02-23T14:44:09.000Z</Time>
            <Position>
              <LatitudeDegrees>41.56945844180881977081298828125</LatitudeDegrees>
              <LongitudeDegrees>-4.564852528274059295654296875</LongitudeDegrees>
            </Position>
            <AltitudeMeters>1222.5999755859375</AltitudeMeters>
            <DistanceMeters>NAN</DistanceMeters>
          </Trackpoint>
          <Trackpoint>
            <Time>2023-02-23T14:44:13.000Z</Time>
            <Position>
              <LatitudeDegrees>41.56964980065822601318359375</LatitudeDegrees>
              <LongitudeDegrees>-4.56491924822330474853515625</LongitudeDegrees>
            </Position>
            <AltitudeMeters>1221.5999755859375</AltitudeMeters>
            <DistanceMeters>NAN</DistanceMeters>
          </Trackpoint>
          <Trackpoint>
            <Time>2023-02-23T14:44:14.000Z</Time>
            <Position>
              <LatitudeDegrees>41.5697062946856021881103515625</LatitudeDegrees>
              <LongitudeDegrees>-4.56493659876286983489990234375</LongitudeDegrees>
            </Position>
            <AltitudeMeters>1221</AltitudeMeters>
            <DistanceMeters>NAN</DistanceMeters>
          </Trackpoint>
          <Trackpoint>
            <Time>2023-02-23T14:44:15.000Z</Time>
            <Position>
              <LatitudeDegrees>41.56976387836039066314697265625</LatitudeDegrees>
              <LongitudeDegrees>-4.56495336256921291351318359375</LongitudeDegrees>
            </Position>
            <AltitudeMeters>1220.5999755859375</AltitudeMeters>
            <DistanceMeters>NAN</DistanceMeters>
          </Trackpoint>
          <Trackpoint>
            <Time>2023-02-23T14:44:17.000Z</Time>
            <Position>
              <LatitudeDegrees>41.5698870085179805755615234375</LatitudeDegrees>
              <LongitudeDegrees>-4.56499476917088031768798828125</LongitudeDegrees>
            </Position>
            <AltitudeMeters>1219</AltitudeMeters>
            <DistanceMeters>NAN</DistanceMeters>
          </Trackpoint>
          <Trackpoint>
            <Time>2023-02-23T14:44:18.000Z</Time>
            <Position>
              <LatitudeDegrees>41.5699527226388454437255859375</LatitudeDegrees>
              <LongitudeDegrees>-4.56502142362296581268310546875</LongitudeDegrees>
            </Position>
            <AltitudeMeters>1218.199951171875</AltitudeMeters>
            <DistanceMeters>NAN</DistanceMeters>
          </Trackpoint>
          <Trackpoint>
            <Time>2023-02-23T14:44:19.000Z</Time>
            <Position>
              <LatitudeDegrees>41.57001952640712261199951171875</LatitudeDegrees>
              <LongitudeDegrees>-4.56504623405635356903076171875</LongitudeDegrees>
            </Position>
            <AltitudeMeters>1217.5999755859375</AltitudeMeters>
            <DistanceMeters>NAN</DistanceMeters>
          </Trackpoint>
          <Trackpoint>
            <Time>2023-02-23T14:44:20.000Z</Time>
            <Position>
              <LatitudeDegrees>41.5700814686715602874755859375</LatitudeDegrees>
              <LongitudeDegrees>-4.56507020629942417144775390625</LongitudeDegrees>
            </Position>
            <AltitudeMeters>1217.4000244140625</AltitudeMeters>
            <DistanceMeters>NAN</DistanceMeters>
          </Trackpoint>
          <Trackpoint>
            <Time>2023-02-23T14:44:22.000Z</Time>
            <Position>
              <LatitudeDegrees>41.57020946033298969268798828125</LatitudeDegrees>
              <LongitudeDegrees>-4.56511982716619968414306640625</LongitudeDegrees>
            </Position>
            <AltitudeMeters>1216.5999755859375</AltitudeMeters>
            <DistanceMeters>NAN</DistanceMeters>
          </Trackpoint>
          <Trackpoint>
            <Time>2023-02-23T14:44:24.000Z</Time>
            <Position>
              <LatitudeDegrees>41.57033435069024562835693359375</LatitudeDegrees>
              <LongitudeDegrees>-4.56516743637621402740478515625</LongitudeDegrees>
            </Position>
            <AltitudeMeters>1215.4000244140625</AltitudeMeters>
            <DistanceMeters>NAN</DistanceMeters>
          </Trackpoint>
          <Trackpoint>
            <Time>2023-02-23T14:44:27.000Z</Time>
            <Position>
              <LatitudeDegrees>41.5705293975770473480224609375</LatitudeDegrees>
              <LongitudeDegrees>-4.5652332343161106109619140625</LongitudeDegrees>
            </Position>
            <AltitudeMeters>1214.199951171875</AltitudeMeters>
            <DistanceMeters>NAN</DistanceMeters>
          </Trackpoint>
          <Trackpoint>
            <Time>2023-02-23T14:44:29.000Z</Time>
            <Position>
              <LatitudeDegrees>41.5706564672291278839111328125</LatitudeDegrees>
              <LongitudeDegrees>-4.565282352268695831298828125</LongitudeDegrees>
            </Position>
            <AltitudeMeters>1212.800048828125</AltitudeMeters>
            <DistanceMeters>NAN</DistanceMeters>
          </Trackpoint>
          <Trackpoint>
            <Time>2023-02-23T14:44:31.000Z</Time>
            <Position>
              <LatitudeDegrees>41.57079149968922138214111328125</LatitudeDegrees>
              <LongitudeDegrees>-4.56533691845834255218505859375</LongitudeDegrees>
            </Position>
            <AltitudeMeters>1212</AltitudeMeters>
            <DistanceMeters>NAN</DistanceMeters>
          </Trackpoint>
          <Trackpoint>
            <Time>2023-02-23T14:44:32.000Z</Time>
            <Position>
              <LatitudeDegrees>41.57085184939205646514892578125</LatitudeDegrees>
              <LongitudeDegrees>-4.56536374054849147796630859375</LongitudeDegrees>
            </Position>
            <AltitudeMeters>1211.199951171875</AltitudeMeters>
            <DistanceMeters>NAN</DistanceMeters>
          </Trackpoint>
          <Trackpoint>
            <Time>2023-02-23T14:44:33.000Z</Time>
            <Position>
              <LatitudeDegrees>41.570905745029449462890625</LatitudeDegrees>
              <LongitudeDegrees>-4.565389640629291534423828125</LongitudeDegrees>
            </Position>
            <AltitudeMeters>1210.800048828125</AltitudeMeters>
            <DistanceMeters>NAN</DistanceMeters>
          </Trackpoint>
          <Trackpoint>
            <Time>2023-02-23T14:44:35.000Z</Time>
            <Position>
              <LatitudeDegrees>41.57098394818603992462158203125</LatitudeDegrees>
              <LongitudeDegrees>-4.56545166671276092529296875</LongitudeDegrees>
            </Position>
            <AltitudeMeters>1210.199951171875</AltitudeMeters>
            <DistanceMeters>NAN</DistanceMeters>
          </Trackpoint>
          <Trackpoint>
            <Time>2023-02-23T14:44:37.000Z</Time>
            <Position>
              <LatitudeDegrees>41.5710497461259365081787109375</LatitudeDegrees>
              <LongitudeDegrees>-4.5655421912670135498046875</LongitudeDegrees>
            </Position>
            <AltitudeMeters>1210</AltitudeMeters>
            <DistanceMeters>NAN</DistanceMeters>
          </Trackpoint>
          <Trackpoint>
            <Time>2023-02-23T14:44:39.000Z</Time>
            <Position>
              <LatitudeDegrees>41.57112442888319492340087890625</LatitudeDegrees>
              <LongitudeDegrees>-4.56563145853579044342041015625</LongitudeDegrees>
            </Position>
            <AltitudeMeters>1209.800048828125</AltitudeMeters>
            <DistanceMeters>NAN</DistanceMeters>
          </Trackpoint>
          <Trackpoint>
            <Time>2023-02-23T14:44:41.000Z</Time>
            <Position>
              <LatitudeDegrees>41.57121042720973491668701171875</LatitudeDegrees>
              <LongitudeDegrees>-4.56569331698119640350341796875</LongitudeDegrees>
            </Position>
            <AltitudeMeters>1209.4000244140625</AltitudeMeters>
            <DistanceMeters>NAN</DistanceMeters>
          </Trackpoint>
          <Trackpoint>
            <Time>2023-02-23T14:44:42.000Z</Time>
            <Position>
              <LatitudeDegrees>41.57125703059136867523193359375</LatitudeDegrees>
              <LongitudeDegrees>-4.56572650931775569915771484375</LongitudeDegrees>
            </Position>
            <AltitudeMeters>1209.199951171875</AltitudeMeters>
            <DistanceMeters>NAN</DistanceMeters>
          </Trackpoint>
          <Trackpoint>
            <Time>2023-02-23T14:44:43.000Z</Time>
            <Position>
              <LatitudeDegrees>41.5713079087436199188232421875</LatitudeDegrees>
              <LongitudeDegrees>-4.56576674245297908782958984375</LongitudeDegrees>
            </Position>
            <AltitudeMeters>1209</AltitudeMeters>
            <DistanceMeters>NAN</DistanceMeters>
          </Trackpoint>
          <Trackpoint>
            <Time>2023-02-23T14:44:45.000Z</Time>
            <Position>
              <LatitudeDegrees>41.5714158676564693450927734375</LatitudeDegrees>
              <LongitudeDegrees>-4.56585894338786602020263671875</LongitudeDegrees>
            </Position>
            <AltitudeMeters>1207.800048828125</AltitudeMeters>
            <DistanceMeters>NAN</DistanceMeters>
          </Trackpoint>
          <Trackpoint>
            <Time>2023-02-23T14:44:46.000Z</Time>
            <Position>
              <LatitudeDegrees>41.57147227786481380462646484375</LatitudeDegrees>
              <LongitudeDegrees>-4.5659121684730052947998046875</LongitudeDegrees>
            </Position>
            <AltitudeMeters>1206.800048828125</AltitudeMeters>
            <DistanceMeters>NAN</DistanceMeters>
          </Trackpoint>
          <Trackpoint>
            <Time>2023-02-23T14:44:47.000Z</Time>
            <Position>
              <LatitudeDegrees>41.5715320408344268798828125</LatitudeDegrees>
              <LongitudeDegrees>-4.5659641362726688385009765625</LongitudeDegrees>
            </Position>
            <AltitudeMeters>1206.199951171875</AltitudeMeters>
            <DistanceMeters>NAN</DistanceMeters>
          </Trackpoint>
          <Trackpoint>
            <Time>2023-02-23T14:44:48.000Z</Time>
            <Position>
              <LatitudeDegrees>41.5715938992798328399658203125</LatitudeDegrees>
              <LongitudeDegrees>-4.5660127513110637664794921875</LongitudeDegrees>
            </Position>
            <AltitudeMeters>1205.199951171875</AltitudeMeters>
            <DistanceMeters>NAN</DistanceMeters>
          </Trackpoint>
          <Trackpoint>
            <Time>2023-02-23T14:44:50.000Z</Time>
            <Position>
              <LatitudeDegrees>41.57170847989618778228759765625</LatitudeDegrees>
              <LongitudeDegrees>-4.56611576490104198455810546875</LongitudeDegrees>
            </Position>
            <AltitudeMeters>1203.5999755859375</AltitudeMeters>
            <DistanceMeters>NAN</DistanceMeters>
          </Trackpoint>
          <Trackpoint>
            <Time>2023-02-23T14:44:53.000Z</Time>
            <Position>
              <LatitudeDegrees>41.57186329364776611328125</LatitudeDegrees>
              <LongitudeDegrees>-4.566251970827579498291015625</LongitudeDegrees>
            </Position>
            <AltitudeMeters>1202.4000244140625</AltitudeMeters>
            <DistanceMeters>NAN</DistanceMeters>
          </Trackpoint>
          <Trackpoint>
            <Time>2023-02-23T14:45:01.000Z</Time>
            <Position>
              <LatitudeDegrees>41.57227031886577606201171875</LatitudeDegrees>
              <LongitudeDegrees>-4.5665605925023555755615234375</LongitudeDegrees>
            </Position>
            <AltitudeMeters>1201.4000244140625</AltitudeMeters>
            <DistanceMeters>NAN</DistanceMeters>
          </Trackpoint>
          <Trackpoint>
            <Time>2023-02-23T14:45:07.000Z</Time>
            <Position>
              <LatitudeDegrees>41.57252370379865169525146484375</LatitudeDegrees>
              <LongitudeDegrees>-4.56677692942321300506591796875</LongitudeDegrees>
            </Position>
            <AltitudeMeters>1200.4000244140625</AltitudeMeters>
            <DistanceMeters>NAN</DistanceMeters>
          </Trackpoint>
          <Trackpoint>
            <Time>2023-02-23T14:45:08.000Z</Time>
            <Position>
              <LatitudeDegrees>41.572570390999317169189453125</LatitudeDegrees>
              <LongitudeDegrees>-4.5668164081871509552001953125</LongitudeDegrees>
            </Position>
            <AltitudeMeters>1200.4000244140625</AltitudeMeters>
            <DistanceMeters>NAN</DistanceMeters>
          </Trackpoint>
          <Trackpoint>
            <Time>2023-02-23T14:45:12.000Z</Time>
            <Position>
              <LatitudeDegrees>41.572724282741546630859375</LatitudeDegrees>
              <LongitudeDegrees>-4.5669967867434024810791015625</LongitudeDegrees>
            </Position>
            <AltitudeMeters>1200</AltitudeMeters>
            <DistanceMeters>NAN</DistanceMeters>
          </Trackpoint>
          <Trackpoint>
            <Time>2023-02-23T14:45:13.000Z</Time>
            <Position>
              <LatitudeDegrees>41.57278136350214481353759765625</LatitudeDegrees>
              <LongitudeDegrees>-4.567035175859928131103515625</LongitudeDegrees>
            </Position>
            <AltitudeMeters>1199.800048828125</AltitudeMeters>
            <DistanceMeters>NAN</DistanceMeters>
          </Trackpoint>
          <Trackpoint>
            <Time>2023-02-23T14:45:14.000Z</Time>
            <Position>
              <LatitudeDegrees>41.57282561995089054107666015625</LatitudeDegrees>
              <LongitudeDegrees>-4.5670675300061702728271484375</LongitudeDegrees>
            </Position>
            <AltitudeMeters>1199.5999755859375</AltitudeMeters>
            <DistanceMeters>NAN</DistanceMeters>
          </Trackpoint>
          <Trackpoint>
            <Time>2023-02-23T14:45:16.000Z</Time>
            <Position>
              <LatitudeDegrees>41.572905667126178741455078125</LatitudeDegrees>
              <LongitudeDegrees>-4.567134417593479156494140625</LongitudeDegrees>
            </Position>
            <AltitudeMeters>1199.4000244140625</AltitudeMeters>
            <DistanceMeters>NAN</DistanceMeters>
          </Trackpoint>
          <Trackpoint>
            <Time>2023-02-23T14:45:20.000Z</Time>
            <Position>
              <LatitudeDegrees>41.5730298869311809539794921875</LatitudeDegrees>
              <LongitudeDegrees>-4.567273221909999847412109375</LongitudeDegrees>
            </Position>
            <AltitudeMeters>1199</AltitudeMeters>
            <DistanceMeters>NAN</DistanceMeters>
          </Trackpoint>
          <Trackpoint>
            <Time>2023-02-23T14:45:21.000Z</Time>
            <Position>
              <LatitudeDegrees>41.573064588010311126708984375</LatitudeDegrees>
              <LongitudeDegrees>-4.56730918027460575103759765625</LongitudeDegrees>
            </Position>
            <AltitudeMeters>1198.800048828125</AltitudeMeters>
            <DistanceMeters>NAN</DistanceMeters>
          </Trackpoint>
          <Trackpoint>
            <Time>2023-02-23T14:45:24.000Z</Time>
            <Position>
              <LatitudeDegrees>41.57318604178726673126220703125</LatitudeDegrees>
              <LongitudeDegrees>-4.567411355674266815185546875</LongitudeDegrees>
            </Position>
            <AltitudeMeters>1198.4000244140625</AltitudeMeters>
            <DistanceMeters>NAN</DistanceMeters>
          </Trackpoint>
          <Trackpoint>
            <Time>2023-02-23T14:45:25.000Z</Time>
            <Position>
              <LatitudeDegrees>41.5732270292937755584716796875</LatitudeDegrees>
              <LongitudeDegrees>-4.56744614057242870330810546875</LongitudeDegrees>
            </Position>
            <AltitudeMeters>1198.4000244140625</AltitudeMeters>
            <DistanceMeters>NAN</DistanceMeters>
          </Trackpoint>
          <Trackpoint>
            <Time>2023-02-23T14:45:29.000Z</Time>
            <Position>
              <LatitudeDegrees>41.5733772329986095428466796875</LatitudeDegrees>
              <LongitudeDegrees>-4.5676036365330219268798828125</LongitudeDegrees>
            </Position>
            <AltitudeMeters>1198.199951171875</AltitudeMeters>
            <DistanceMeters>NAN</DistanceMeters>
          </Trackpoint>
          <Trackpoint>
            <Time>2023-02-23T14:45:31.000Z</Time>
            <Position>
              <LatitudeDegrees>41.57345585525035858154296875</LatitudeDegrees>
              <LongitudeDegrees>-4.567692317068576812744140625</LongitudeDegrees>
            </Position>
            <AltitudeMeters>1197.4000244140625</AltitudeMeters>
            <DistanceMeters>NAN</DistanceMeters>
          </Trackpoint>
          <Trackpoint>
            <Time>2023-02-23T14:45:32.000Z</Time>
            <Position>
              <LatitudeDegrees>41.57348577864468097686767578125</LatitudeDegrees>
              <LongitudeDegrees>-4.56772458739578723907470703125</LongitudeDegrees>
            </Position>
            <AltitudeMeters>1197.199951171875</AltitudeMeters>
            <DistanceMeters>NAN</DistanceMeters>
          </Trackpoint>
          <Trackpoint>
            <Time>2023-02-23T14:45:34.000Z</Time>
            <Position>
              <LatitudeDegrees>41.5735602937638759613037109375</LatitudeDegrees>
              <LongitudeDegrees>-4.56780287437140941619873046875</LongitudeDegrees>
            </Position>
            <AltitudeMeters>1196.800048828125</AltitudeMeters>
            <DistanceMeters>NAN</DistanceMeters>
          </Trackpoint>
          <Trackpoint>
            <Time>2023-02-23T14:45:35.000Z</Time>
            <Position>
              <LatitudeDegrees>41.57360983081161975860595703125</LatitudeDegrees>
              <LongitudeDegrees>-4.56783757545053958892822265625</LongitudeDegrees>
            </Position>
            <AltitudeMeters>1196.5999755859375</AltitudeMeters>
            <DistanceMeters>NAN</DistanceMeters>
          </Trackpoint>
          <Trackpoint>
            <Time>2023-02-23T14:45:36.000Z</Time>
            <Position>
              <LatitudeDegrees>41.57366448082029819488525390625</LatitudeDegrees>
              <LongitudeDegrees>-4.56787311471998691558837890625</LongitudeDegrees>
            </Position>
            <AltitudeMeters>1196.800048828125</AltitudeMeters>
            <DistanceMeters>NAN</DistanceMeters>
          </Trackpoint>
          <Trackpoint>
            <Time>2023-02-23T14:45:37.000Z</Time>
            <Position>
              <LatitudeDegrees>41.5737125091254711151123046875</LatitudeDegrees>
              <LongitudeDegrees>-4.56791016273200511932373046875</LongitudeDegrees>
            </Position>
            <AltitudeMeters>1196.800048828125</AltitudeMeters>
            <DistanceMeters>NAN</DistanceMeters>
          </Trackpoint>
          <Trackpoint>
            <Time>2023-02-23T14:45:39.000Z</Time>
            <Position>
              <LatitudeDegrees>41.57380814664065837860107421875</LatitudeDegrees>
              <LongitudeDegrees>-4.56799951381981372833251953125</LongitudeDegrees>
            </Position>
            <AltitudeMeters>1196.199951171875</AltitudeMeters>
            <DistanceMeters>NAN</DistanceMeters>
          </Trackpoint>
          <Trackpoint>
            <Time>2023-02-23T14:45:40.000Z</Time>
            <Position>
              <LatitudeDegrees>41.57385273836553096771240234375</LatitudeDegrees>
              <LongitudeDegrees>-4.56805148161947727203369140625</LongitudeDegrees>
            </Position>
            <AltitudeMeters>1195.800048828125</AltitudeMeters>
            <DistanceMeters>NAN</DistanceMeters>
          </Trackpoint>
          <Trackpoint>
            <Time>2023-02-23T14:45:41.000Z</Time>
            <Position>
              <LatitudeDegrees>41.573894061148166656494140625</LatitudeDegrees>
              <LongitudeDegrees>-4.56810294650495052337646484375</LongitudeDegrees>
            </Position>
            <AltitudeMeters>1195.5999755859375</AltitudeMeters>
            <DistanceMeters>NAN</DistanceMeters>
          </Trackpoint>
          <Trackpoint>
            <Time>2023-02-23T14:45:44.000Z</Time>
            <Position>
              <LatitudeDegrees>41.57402154989540576934814453125</LatitudeDegrees>
              <LongitudeDegrees>-4.56824610941112041473388671875</LongitudeDegrees>
            </Position>
            <AltitudeMeters>1195.5999755859375</AltitudeMeters>
            <DistanceMeters>NAN</DistanceMeters>
          </Trackpoint>
          <Trackpoint>
            <Time>2023-02-23T14:45:47.000Z</Time>
            <Position>
              <LatitudeDegrees>41.574160940945148468017578125</LatitudeDegrees>
              <LongitudeDegrees>-4.568368904292583465576171875</LongitudeDegrees>
            </Position>
            <AltitudeMeters>1195.800048828125</AltitudeMeters>
            <DistanceMeters>NAN</DistanceMeters>
          </Trackpoint>
          <Trackpoint>
            <Time>2023-02-23T14:45:48.000Z</Time>
            <Position>
              <LatitudeDegrees>41.574206538498401641845703125</LatitudeDegrees>
              <LongitudeDegrees>-4.56841542385518550872802734375</LongitudeDegrees>
            </Position>
            <AltitudeMeters>1195.800048828125</AltitudeMeters>
            <DistanceMeters>NAN</DistanceMeters>
          </Trackpoint>
          <Trackpoint>
            <Time>2023-02-23T14:45:51.000Z</Time>
            <Position>
              <LatitudeDegrees>41.57433704473078250885009765625</LatitudeDegrees>
              <LongitudeDegrees>-4.56854836083948612213134765625</LongitudeDegrees>
            </Position>
            <AltitudeMeters>1195.800048828125</AltitudeMeters>
            <DistanceMeters>NAN</DistanceMeters>
          </Trackpoint>
          <Trackpoint>
            <Time>2023-02-23T14:45:52.000Z</Time>
            <Position>
              <LatitudeDegrees>41.574376188218593597412109375</LatitudeDegrees>
              <LongitudeDegrees>-4.56859043799340724945068359375</LongitudeDegrees>
            </Position>
            <AltitudeMeters>1195.5999755859375</AltitudeMeters>
            <DistanceMeters>NAN</DistanceMeters>
          </Trackpoint>
          <Trackpoint>
            <Time>2023-02-23T14:45:55.000Z</Time>
            <Position>
              <LatitudeDegrees>41.574491523206233978271484375</LatitudeDegrees>
              <LongitudeDegrees>-4.5687093771994113922119140625</LongitudeDegrees>
            </Position>
            <AltitudeMeters>1195.4000244140625</AltitudeMeters>
            <DistanceMeters>NAN</DistanceMeters>
          </Trackpoint>
          <Trackpoint>
            <Time>2023-02-23T14:46:00.000Z</Time>
            <Position>
              <LatitudeDegrees>41.57465321011841297149658203125</LatitudeDegrees>
              <LongitudeDegrees>-4.56891532056033611297607421875</LongitudeDegrees>
            </Position>
            <AltitudeMeters>1194.800048828125</AltitudeMeters>
            <DistanceMeters>NAN</DistanceMeters>
          </Trackpoint>
          <Trackpoint>
            <Time>2023-02-23T14:46:02.000Z</Time>
            <Position>
              <LatitudeDegrees>41.57469646073877811431884765625</LatitudeDegrees>
              <LongitudeDegrees>-4.568989165127277374267578125</LongitudeDegrees>
            </Position>
            <AltitudeMeters>1194.5999755859375</AltitudeMeters>
            <DistanceMeters>NAN</DistanceMeters>
          </Trackpoint>
          <Trackpoint>
            <Time>2023-02-23T14:46:06.000Z</Time>
            <Position>
              <LatitudeDegrees>41.5747837163507938385009765625</LatitudeDegrees>
              <LongitudeDegrees>-4.56912268884479999542236328125</LongitudeDegrees>
            </Position>
            <AltitudeMeters>1194.5999755859375</AltitudeMeters>
            <DistanceMeters>NAN</DistanceMeters>
          </Trackpoint>
          <Trackpoint>
            <Time>2023-02-23T14:46:07.000Z</Time>
            <Position>
              <LatitudeDegrees>41.5748031623661518096923828125</LatitudeDegrees>
              <LongitudeDegrees>-4.5691485889256000518798828125</LongitudeDegrees>
            </Position>
            <AltitudeMeters>1194.5999755859375</AltitudeMeters>
            <DistanceMeters>NAN</DistanceMeters>
          </Trackpoint>
          <Trackpoint>
            <Time>2023-02-23T14:46:15.000Z</Time>
            <Position>
              <LatitudeDegrees>41.57492998056113719940185546875</LatitudeDegrees>
              <LongitudeDegrees>-4.5693884789943695068359375</LongitudeDegrees>
            </Position>
            <AltitudeMeters>1193.800048828125</AltitudeMeters>
            <DistanceMeters>NAN</DistanceMeters>
          </Trackpoint>
          <Trackpoint>
            <Time>2023-02-23T14:46:16.000Z</Time>
            <Position>
              <LatitudeDegrees>41.57494171522557735443115234375</LatitudeDegrees>
              <LongitudeDegrees>-4.56941127777099609375</LongitudeDegrees>
            </Position>
            <AltitudeMeters>1193.5999755859375</AltitudeMeters>
            <DistanceMeters>NAN</DistanceMeters>
          </Trackpoint>
          <Trackpoint>
            <Time>2023-02-23T14:46:21.000Z</Time>
            <Position>
              <LatitudeDegrees>41.5750096924602985382080078125</LatitudeDegrees>
              <LongitudeDegrees>-4.56958184950053691864013671875</LongitudeDegrees>
            </Position>
            <AltitudeMeters>1193</AltitudeMeters>
            <DistanceMeters>NAN</DistanceMeters>
          </Trackpoint>
          <Trackpoint>
            <Time>2023-02-23T14:46:23.000Z</Time>
            <Position>
              <LatitudeDegrees>41.5750365145504474639892578125</LatitudeDegrees>
              <LongitudeDegrees>-4.56965066492557525634765625</LongitudeDegrees>
            </Position>
            <AltitudeMeters>1192.5999755859375</AltitudeMeters>
            <DistanceMeters>NAN</DistanceMeters>
          </Trackpoint>
          <Trackpoint>
            <Time>2023-02-23T14:46:27.000Z</Time>
            <Position>
              <LatitudeDegrees>41.57509292475879192352294921875</LatitudeDegrees>
              <LongitudeDegrees>-4.56976222805678844451904296875</LongitudeDegrees>
            </Position>
            <AltitudeMeters>1192</AltitudeMeters>
            <DistanceMeters>NAN</DistanceMeters>
          </Trackpoint>
          <Trackpoint>
            <Time>2023-02-23T14:46:32.000Z</Time>
            <Position>
              <LatitudeDegrees>41.57518227584660053253173828125</LatitudeDegrees>
              <LongitudeDegrees>-4.56988041289150714874267578125</LongitudeDegrees>
            </Position>
            <AltitudeMeters>1191.800048828125</AltitudeMeters>
            <DistanceMeters>NAN</DistanceMeters>
          </Trackpoint>
          <Trackpoint>
            <Time>2023-02-23T14:46:34.000Z</Time>
            <Position>
              <LatitudeDegrees>41.57522921450436115264892578125</LatitudeDegrees>
              <LongitudeDegrees>-4.5699321292340755462646484375</LongitudeDegrees>
            </Position>
            <AltitudeMeters>1191.4000244140625</AltitudeMeters>
            <DistanceMeters>NAN</DistanceMeters>
          </Trackpoint>
          <Trackpoint>
            <Time>2023-02-23T14:46:38.000Z</Time>
            <Position>
              <LatitudeDegrees>41.575333736836910247802734375</LatitudeDegrees>
              <LongitudeDegrees>-4.5700856857001781463623046875</LongitudeDegrees>
            </Position>
            <AltitudeMeters>1190.199951171875</AltitudeMeters>
            <DistanceMeters>NAN</DistanceMeters>
          </Trackpoint>
          <Trackpoint>
            <Time>2023-02-23T14:46:43.000Z</Time>
            <Position>
              <LatitudeDegrees>41.57548989169299602508544921875</LatitudeDegrees>
              <LongitudeDegrees>-4.5702529884874820709228515625</LongitudeDegrees>
            </Position>
            <AltitudeMeters>1190</AltitudeMeters>
            <DistanceMeters>NAN</DistanceMeters>
          </Trackpoint>
          <Trackpoint>
            <Time>2023-02-23T14:46:44.000Z</Time>
            <Position>
              <LatitudeDegrees>41.57552308402955532073974609375</LatitudeDegrees>
              <LongitudeDegrees>-4.5702767930924892425537109375</LongitudeDegrees>
            </Position>
            <AltitudeMeters>1190</AltitudeMeters>
            <DistanceMeters>NAN</DistanceMeters>
          </Trackpoint>
          <Trackpoint>
            <Time>2023-02-23T14:46:45.000Z</Time>
            <Position>
              <LatitudeDegrees>41.5755541808903217315673828125</LatitudeDegrees>
              <LongitudeDegrees>-4.5702992565929889678955078125</LongitudeDegrees>
            </Position>
            <AltitudeMeters>1190</AltitudeMeters>
            <DistanceMeters>NAN</DistanceMeters>
          </Trackpoint>
          <Trackpoint>
            <Time>2023-02-23T14:46:49.000Z</Time>
            <Position>
              <LatitudeDegrees>41.5756567753851413726806640625</LatitudeDegrees>
              <LongitudeDegrees>-4.570418782532215118408203125</LongitudeDegrees>
            </Position>
            <AltitudeMeters>1188.800048828125</AltitudeMeters>
            <DistanceMeters>NAN</DistanceMeters>
          </Trackpoint>
          <Trackpoint>
            <Time>2023-02-23T14:46:50.000Z</Time>
            <Position>
              <LatitudeDegrees>41.57568837516009807586669921875</LatitudeDegrees>
              <LongitudeDegrees>-4.5704575069248676300048828125</LongitudeDegrees>
            </Position>
            <AltitudeMeters>1188.5999755859375</AltitudeMeters>
            <DistanceMeters>NAN</DistanceMeters>
          </Trackpoint>
          <Trackpoint>
            <Time>2023-02-23T14:46:56.000Z</Time>
            <Position>
              <LatitudeDegrees>41.57588736154139041900634765625</LatitudeDegrees>
              <LongitudeDegrees>-4.57066663540899753570556640625</LongitudeDegrees>
            </Position>
            <AltitudeMeters>1187.800048828125</AltitudeMeters>
            <DistanceMeters>NAN</DistanceMeters>
          </Trackpoint>
          <Trackpoint>
            <Time>2023-02-23T14:46:57.000Z</Time>
            <Position>
              <LatitudeDegrees>41.5759189613163471221923828125</LatitudeDegrees>
              <LongitudeDegrees>-4.57070418633520603179931640625</LongitudeDegrees>
            </Position>
            <AltitudeMeters>1187.4000244140625</AltitudeMeters>
            <DistanceMeters>NAN</DistanceMeters>
          </Trackpoint>
          <Trackpoint>
            <Time>2023-02-23T14:47:00.000Z</Time>
            <Position>
              <LatitudeDegrees>41.57601912505924701690673828125</LatitudeDegrees>
              <LongitudeDegrees>-4.57080359570682048797607421875</LongitudeDegrees>
            </Position>
            <AltitudeMeters>1187.199951171875</AltitudeMeters>
            <DistanceMeters>NAN</DistanceMeters>
          </Trackpoint>
          <Trackpoint>
            <Time>2023-02-23T14:47:03.000Z</Time>
            <Position>
              <LatitudeDegrees>41.576134376227855682373046875</LatitudeDegrees>
              <LongitudeDegrees>-4.57088775001466274261474609375</LongitudeDegrees>
            </Position>
            <AltitudeMeters>1187</AltitudeMeters>
            <DistanceMeters>NAN</DistanceMeters>
          </Trackpoint>
          <Trackpoint>
            <Time>2023-02-23T14:47:04.000Z</Time>
            <Position>
              <LatitudeDegrees>41.5761774592101573944091796875</LatitudeDegrees>
              <LongitudeDegrees>-4.5709171704947948455810546875</LongitudeDegrees>
            </Position>
            <AltitudeMeters>1186.4000244140625</AltitudeMeters>
            <DistanceMeters>NAN</DistanceMeters>
          </Trackpoint>
          <Trackpoint>
            <Time>2023-02-23T14:47:07.000Z</Time>
            <Position>
              <LatitudeDegrees>41.5762720070779323577880859375</LatitudeDegrees>
              <LongitudeDegrees>-4.571000151336193084716796875</LongitudeDegrees>
            </Position>
            <AltitudeMeters>1186.5999755859375</AltitudeMeters>
            <DistanceMeters>NAN</DistanceMeters>
          </Trackpoint>
          <Trackpoint>
            <Time>2023-02-23T14:47:09.000Z</Time>
            <Position>
              <LatitudeDegrees>41.57632925547659397125244140625</LatitudeDegrees>
              <LongitudeDegrees>-4.57105572335422039031982421875</LongitudeDegrees>
            </Position>
            <AltitudeMeters>1186.800048828125</AltitudeMeters>
            <DistanceMeters>NAN</DistanceMeters>
          </Trackpoint>
          <Trackpoint>
            <Time>2023-02-23T14:47:15.000Z</Time>
            <Position>
              <LatitudeDegrees>41.57651684246957302093505859375</LatitudeDegrees>
              <LongitudeDegrees>-4.5712232775986194610595703125</LongitudeDegrees>
            </Position>
            <AltitudeMeters>1186.4000244140625</AltitudeMeters>
            <DistanceMeters>NAN</DistanceMeters>
          </Trackpoint>
          <Trackpoint>
            <Time>2023-02-23T14:47:17.000Z</Time>
            <Position>
              <LatitudeDegrees>41.5765720792114734649658203125</LatitudeDegrees>
              <LongitudeDegrees>-4.57128035835921764373779296875</LongitudeDegrees>
            </Position>
            <AltitudeMeters>1186</AltitudeMeters>
            <DistanceMeters>NAN</DistanceMeters>
          </Trackpoint>
          <Trackpoint>
            <Time>2023-02-23T14:47:21.000Z</Time>
            <Position>
              <LatitudeDegrees>41.57667978666722774505615234375</LatitudeDegrees>
              <LongitudeDegrees>-4.571354873478412628173828125</LongitudeDegrees>
            </Position>
            <AltitudeMeters>1185.5999755859375</AltitudeMeters>
            <DistanceMeters>NAN</DistanceMeters>
          </Trackpoint>
          <Trackpoint>
            <Time>2023-02-23T14:47:25.000Z</Time>
            <Position>
              <LatitudeDegrees>41.5767879970371723175048828125</LatitudeDegrees>
              <LongitudeDegrees>-4.5714794285595417022705078125</LongitudeDegrees>
            </Position>
            <AltitudeMeters>1185.199951171875</AltitudeMeters>
            <DistanceMeters>NAN</DistanceMeters>
          </Trackpoint>
          <Trackpoint>
            <Time>2023-02-23T14:47:26.000Z</Time>
            <Position>
              <LatitudeDegrees>41.5768175013363361358642578125</LatitudeDegrees>
              <LongitudeDegrees>-4.57151086069643497467041015625</LongitudeDegrees>
            </Position>
            <AltitudeMeters>1185.199951171875</AltitudeMeters>
            <DistanceMeters>NAN</DistanceMeters>
          </Trackpoint>
          <Trackpoint>
            <Time>2023-02-23T14:47:33.000Z</Time>
            <Position>
              <LatitudeDegrees>41.57703098841011524200439453125</LatitudeDegrees>
              <LongitudeDegrees>-4.5716879703104496002197265625</LongitudeDegrees>
            </Position>
            <AltitudeMeters>1185</AltitudeMeters>
            <DistanceMeters>NAN</DistanceMeters>
          </Trackpoint>
          <Trackpoint>
            <Time>2023-02-23T14:47:38.000Z</Time>
            <Position>
              <LatitudeDegrees>41.57717046327888965606689453125</LatitudeDegrees>
              <LongitudeDegrees>-4.57185049541294574737548828125</LongitudeDegrees>
            </Position>
            <AltitudeMeters>1184.199951171875</AltitudeMeters>
            <DistanceMeters>NAN</DistanceMeters>
          </Trackpoint>
          <Trackpoint>
            <Time>2023-02-23T14:47:45.000Z</Time>
            <Position>
              <LatitudeDegrees>41.57744471915066242218017578125</LatitudeDegrees>
              <LongitudeDegrees>-4.5720276050269603729248046875</LongitudeDegrees>
            </Position>
            <AltitudeMeters>1183.5999755859375</AltitudeMeters>
            <DistanceMeters>NAN</DistanceMeters>
          </Trackpoint>
          <Trackpoint>
            <Time>2023-02-23T14:47:46.000Z</Time>
            <Position>
              <LatitudeDegrees>41.57748528756201267242431640625</LatitudeDegrees>
              <LongitudeDegrees>-4.5720504038035869598388671875</LongitudeDegrees>
            </Position>
            <AltitudeMeters>1183.5999755859375</AltitudeMeters>
            <DistanceMeters>NAN</DistanceMeters>
          </Trackpoint>
          <Trackpoint>
            <Time>2023-02-23T14:47:50.000Z</Time>
            <Position>
              <LatitudeDegrees>41.57760950736701488494873046875</LatitudeDegrees>
              <LongitudeDegrees>-4.57217202521860599517822265625</LongitudeDegrees>
            </Position>
            <AltitudeMeters>1183.5999755859375</AltitudeMeters>
            <DistanceMeters>NAN</DistanceMeters>
          </Trackpoint>
          <Trackpoint>
            <Time>2023-02-23T14:47:51.000Z</Time>
            <Position>
              <LatitudeDegrees>41.5776382572948932647705078125</LatitudeDegrees>
              <LongitudeDegrees>-4.5722101628780364990234375</LongitudeDegrees>
            </Position>
            <AltitudeMeters>1183.199951171875</AltitudeMeters>
            <DistanceMeters>NAN</DistanceMeters>
          </Trackpoint>
          <Trackpoint>
            <Time>2023-02-23T14:47:56.000Z</Time>
            <Position>
              <LatitudeDegrees>41.5777740441262722015380859375</LatitudeDegrees>
              <LongitudeDegrees>-4.57240152172744274139404296875</LongitudeDegrees>
            </Position>
            <AltitudeMeters>1182.5999755859375</AltitudeMeters>
            <DistanceMeters>NAN</DistanceMeters>
          </Trackpoint>
          <Trackpoint>
            <Time>2023-02-23T14:48:02.000Z</Time>
            <Position>
              <LatitudeDegrees>41.57796154730021953582763671875</LatitudeDegrees>
              <LongitudeDegrees>-4.57252071239054203033447265625</LongitudeDegrees>
            </Position>
            <AltitudeMeters>1183</AltitudeMeters>
            <DistanceMeters>NAN</DistanceMeters>
          </Trackpoint>
          <Trackpoint>
            <Time>2023-02-23T14:48:03.000Z</Time>
            <Position>
              <LatitudeDegrees>41.5779988467693328857421875</LatitudeDegrees>
              <LongitudeDegrees>-4.57253864966332912445068359375</LongitudeDegrees>
            </Position>
            <AltitudeMeters>1183.199951171875</AltitudeMeters>
            <DistanceMeters>NAN</DistanceMeters>
          </Trackpoint>
          <Trackpoint>
            <Time>2023-02-23T14:48:05.000Z</Time>
            <Position>
              <LatitudeDegrees>41.578076295554637908935546875</LatitudeDegrees>
              <LongitudeDegrees>-4.572584666311740875244140625</LongitudeDegrees>
            </Position>
            <AltitudeMeters>1182.800048828125</AltitudeMeters>
            <DistanceMeters>NAN</DistanceMeters>
          </Trackpoint>
          <Trackpoint>
            <Time>2023-02-23T14:48:09.000Z</Time>
            <Position>
              <LatitudeDegrees>41.5781844221055507659912109375</LatitudeDegrees>
              <LongitudeDegrees>-4.57263671793043613433837890625</LongitudeDegrees>
            </Position>
            <AltitudeMeters>1182.5999755859375</AltitudeMeters>
            <DistanceMeters>NAN</DistanceMeters>
          </Trackpoint>
          <Trackpoint>
            <Time>2023-02-23T14:48:15.000Z</Time>
            <Position>
              <LatitudeDegrees>41.57835365273058414459228515625</LatitudeDegrees>
              <LongitudeDegrees>-4.5727015100419521331787109375</LongitudeDegrees>
            </Position>
            <AltitudeMeters>1182.199951171875</AltitudeMeters>
            <DistanceMeters>NAN</DistanceMeters>
          </Trackpoint>
          <Trackpoint>
            <Time>2023-02-23T14:48:20.000Z</Time>
            <Position>
              <LatitudeDegrees>41.578506790101528167724609375</LatitudeDegrees>
              <LongitudeDegrees>-4.57287157885730266571044921875</LongitudeDegrees>
            </Position>
            <AltitudeMeters>1182.4000244140625</AltitudeMeters>
            <DistanceMeters>NAN</DistanceMeters>
          </Trackpoint>
          <Trackpoint>
            <Time>2023-02-23T14:48:22.000Z</Time>
            <Position>
              <LatitudeDegrees>41.578563787043094635009765625</LatitudeDegrees>
              <LongitudeDegrees>-4.5729348622262477874755859375</LongitudeDegrees>
            </Position>
            <AltitudeMeters>1182</AltitudeMeters>
            <DistanceMeters>NAN</DistanceMeters>
          </Trackpoint>
          <Trackpoint>
            <Time>2023-02-23T14:48:24.000Z</Time>
            <Position>
              <LatitudeDegrees>41.5786169283092021942138671875</LatitudeDegrees>
              <LongitudeDegrees>-4.573013484477996826171875</LongitudeDegrees>
            </Position>
            <AltitudeMeters>1181.5999755859375</AltitudeMeters>
            <DistanceMeters>NAN</DistanceMeters>
          </Trackpoint>
          <Trackpoint>
            <Time>2023-02-23T14:48:26.000Z</Time>
            <Position>
              <LatitudeDegrees>41.57867467962205410003662109375</LatitudeDegrees>
              <LongitudeDegrees>-4.5730880834162235260009765625</LongitudeDegrees>
            </Position>
            <AltitudeMeters>1181.4000244140625</AltitudeMeters>
            <DistanceMeters>NAN</DistanceMeters>
          </Trackpoint>
          <Trackpoint>
            <Time>2023-02-23T14:48:29.000Z</Time>
            <Position>
              <LatitudeDegrees>41.57875900156795978546142578125</LatitudeDegrees>
              <LongitudeDegrees>-4.57320325076580047607421875</LongitudeDegrees>
            </Position>
            <AltitudeMeters>1181</AltitudeMeters>
            <DistanceMeters>NAN</DistanceMeters>
          </Trackpoint>
          <Trackpoint>
            <Time>2023-02-23T14:48:33.000Z</Time>
            <Position>
              <LatitudeDegrees>41.57886922359466552734375</LatitudeDegrees>
              <LongitudeDegrees>-4.573363177478313446044921875</LongitudeDegrees>
            </Position>
            <AltitudeMeters>1180</AltitudeMeters>
            <DistanceMeters>NAN</DistanceMeters>
          </Trackpoint>
          <Trackpoint>
            <Time>2023-02-23T14:48:34.000Z</Time>
            <Position>
              <LatitudeDegrees>41.5788958780467510223388671875</LatitudeDegrees>
              <LongitudeDegrees>-4.57340131513774394989013671875</LongitudeDegrees>
            </Position>
            <AltitudeMeters>1180</AltitudeMeters>
            <DistanceMeters>NAN</DistanceMeters>
          </Trackpoint>
          <Trackpoint>
            <Time>2023-02-23T14:48:39.000Z</Time>
            <Position>
              <LatitudeDegrees>41.579025126993656158447265625</LatitudeDegrees>
              <LongitudeDegrees>-4.57356266677379608154296875</LongitudeDegrees>
            </Position>
            <AltitudeMeters>1180.4000244140625</AltitudeMeters>
            <DistanceMeters>NAN</DistanceMeters>
          </Trackpoint>
          <Trackpoint>
            <Time>2023-02-23T14:48:46.000Z</Time>
            <Position>
              <LatitudeDegrees>41.579220257699489593505859375</LatitudeDegrees>
              <LongitudeDegrees>-4.5738196559250354766845703125</LongitudeDegrees>
            </Position>
            <AltitudeMeters>1179.4000244140625</AltitudeMeters>
            <DistanceMeters>NAN</DistanceMeters>
          </Trackpoint>
          <Trackpoint>
            <Time>2023-02-23T14:48:48.000Z</Time>
            <Position>
              <LatitudeDegrees>41.57928672619163990020751953125</LatitudeDegrees>
              <LongitudeDegrees>-4.5739051513373851776123046875</LongitudeDegrees>
            </Position>
            <AltitudeMeters>1178.800048828125</AltitudeMeters>
            <DistanceMeters>NAN</DistanceMeters>
          </Trackpoint>
          <Trackpoint>
            <Time>2023-02-23T14:48:51.000Z</Time>
            <Position>
              <LatitudeDegrees>41.57936518080532550811767578125</LatitudeDegrees>
              <LongitudeDegrees>-4.57401235587894916534423828125</LongitudeDegrees>
            </Position>
            <AltitudeMeters>1178.199951171875</AltitudeMeters>
            <DistanceMeters>NAN</DistanceMeters>
          </Trackpoint>
          <Trackpoint>
            <Time>2023-02-23T14:48:53.000Z</Time>
            <Position>
              <LatitudeDegrees>41.57941916026175022125244140625</LatitudeDegrees>
              <LongitudeDegrees>-4.57407371141016483306884765625</LongitudeDegrees>
            </Position>
            <AltitudeMeters>1177.5999755859375</AltitudeMeters>
            <DistanceMeters>NAN</DistanceMeters>
          </Trackpoint>
          <Trackpoint>
            <Time>2023-02-23T14:48:54.000Z</Time>
            <Position>
              <LatitudeDegrees>41.5794457308948040008544921875</LatitudeDegrees>
              <LongitudeDegrees>-4.574108831584453582763671875</LongitudeDegrees>
            </Position>
            <AltitudeMeters>1177.4000244140625</AltitudeMeters>
            <DistanceMeters>NAN</DistanceMeters>
          </Trackpoint>
          <Trackpoint>
            <Time>2023-02-23T14:48:57.000Z</Time>
            <Position>
              <LatitudeDegrees>41.579521335661411285400390625</LatitudeDegrees>
              <LongitudeDegrees>-4.5742182992398738861083984375</LongitudeDegrees>
            </Position>
            <AltitudeMeters>1177.199951171875</AltitudeMeters>
            <DistanceMeters>NAN</DistanceMeters>
          </Trackpoint>
          <Trackpoint>
            <Time>2023-02-23T14:49:01.000Z</Time>
            <Position>
              <LatitudeDegrees>41.57962786965072154998779296875</LatitudeDegrees>
              <LongitudeDegrees>-4.57437043078243732452392578125</LongitudeDegrees>
            </Position>
            <AltitudeMeters>1177.800048828125</AltitudeMeters>
            <DistanceMeters>NAN</DistanceMeters>
          </Trackpoint>
          <Trackpoint>
            <Time>2023-02-23T14:49:02.000Z</Time>
            <Position>
              <LatitudeDegrees>41.57965519465506076812744140625</LatitudeDegrees>
              <LongitudeDegrees>-4.574405886232852935791015625</LongitudeDegrees>
            </Position>
            <AltitudeMeters>1177.800048828125</AltitudeMeters>
            <DistanceMeters>NAN</DistanceMeters>
          </Trackpoint>
          <Trackpoint>
            <Time>2023-02-23T14:49:08.000Z</Time>
            <Position>
              <LatitudeDegrees>41.57983875833451747894287109375</LatitudeDegrees>
              <LongitudeDegrees>-4.57464384846389293670654296875</LongitudeDegrees>
            </Position>
            <AltitudeMeters>1177</AltitudeMeters>
            <DistanceMeters>NAN</DistanceMeters>
          </Trackpoint>
          <Trackpoint>
            <Time>2023-02-23T14:49:10.000Z</Time>
            <Position>
              <LatitudeDegrees>41.57990581355988979339599609375</LatitudeDegrees>
              <LongitudeDegrees>-4.574735127389430999755859375</LongitudeDegrees>
            </Position>
            <AltitudeMeters>1177</AltitudeMeters>
            <DistanceMeters>NAN</DistanceMeters>
          </Trackpoint>
          <Trackpoint>
            <Time>2023-02-23T14:49:13.000Z</Time>
            <Position>
              <LatitudeDegrees>41.57999767921864986419677734375</LatitudeDegrees>
              <LongitudeDegrees>-4.57485146820545196533203125</LongitudeDegrees>
            </Position>
            <AltitudeMeters>1176.5999755859375</AltitudeMeters>
            <DistanceMeters>NAN</DistanceMeters>
          </Trackpoint>
          <Trackpoint>
            <Time>2023-02-23T14:49:18.000Z</Time>
            <Position>
              <LatitudeDegrees>41.58014394342899322509765625</LatitudeDegrees>
              <LongitudeDegrees>-4.5750692300498485565185546875</LongitudeDegrees>
            </Position>
            <AltitudeMeters>1175.4000244140625</AltitudeMeters>
            <DistanceMeters>NAN</DistanceMeters>
          </Trackpoint>
          <Trackpoint>
            <Time>2023-02-23T14:49:20.000Z</Time>
            <Position>
              <LatitudeDegrees>41.58020320348441600799560546875</LatitudeDegrees>
              <LongitudeDegrees>-4.5751644484698772430419921875</LongitudeDegrees>
            </Position>
            <AltitudeMeters>1175</AltitudeMeters>
            <DistanceMeters>NAN</DistanceMeters>
          </Trackpoint>
          <Trackpoint>
            <Time>2023-02-23T14:49:23.000Z</Time>
            <Position>
              <LatitudeDegrees>41.580295152962207794189453125</LatitudeDegrees>
              <LongitudeDegrees>-4.5752978883683681488037109375</LongitudeDegrees>
            </Position>
            <AltitudeMeters>1174.4000244140625</AltitudeMeters>
            <DistanceMeters>NAN</DistanceMeters>
          </Trackpoint>
          <Trackpoint>
            <Time>2023-02-23T14:49:24.000Z</Time>
            <Position>
              <LatitudeDegrees>41.58032633364200592041015625</LatitudeDegrees>
              <LongitudeDegrees>-4.575348682701587677001953125</LongitudeDegrees>
            </Position>
            <AltitudeMeters>1174.199951171875</AltitudeMeters>
            <DistanceMeters>NAN</DistanceMeters>
          </Trackpoint>
          <Trackpoint>
            <Time>2023-02-23T14:49:28.000Z</Time>
            <Position>
              <LatitudeDegrees>41.58046178519725799560546875</LatitudeDegrees>
              <LongitudeDegrees>-4.57553434185683727264404296875</LongitudeDegrees>
            </Position>
            <AltitudeMeters>1173.199951171875</AltitudeMeters>
            <DistanceMeters>NAN</DistanceMeters>
          </Trackpoint>
          <Trackpoint>
            <Time>2023-02-23T14:49:34.000Z</Time>
            <Position>
              <LatitudeDegrees>41.5806503780186176300048828125</LatitudeDegrees>
              <LongitudeDegrees>-4.57579770125448703765869140625</LongitudeDegrees>
            </Position>
            <AltitudeMeters>1172.800048828125</AltitudeMeters>
            <DistanceMeters>NAN</DistanceMeters>
          </Trackpoint>
          <Trackpoint>
            <Time>2023-02-23T14:49:35.000Z</Time>
            <Position>
              <LatitudeDegrees>41.5806721709668636322021484375</LatitudeDegrees>
              <LongitudeDegrees>-4.575836174190044403076171875</LongitudeDegrees>
            </Position>
            <AltitudeMeters>1172.800048828125</AltitudeMeters>
            <DistanceMeters>NAN</DistanceMeters>
          </Trackpoint>
          <Trackpoint>
            <Time>2023-02-23T14:49:38.000Z</Time>
            <Position>
              <LatitudeDegrees>41.58072874881327152252197265625</LatitudeDegrees>
              <LongitudeDegrees>-4.5759116113185882568359375</LongitudeDegrees>
            </Position>
            <AltitudeMeters>1173</AltitudeMeters>
            <DistanceMeters>NAN</DistanceMeters>
          </Trackpoint>
          <Trackpoint>
            <Time>2023-02-23T14:49:39.000Z</Time>
            <Position>
              <LatitudeDegrees>41.58075070939958095550537109375</LatitudeDegrees>
              <LongitudeDegrees>-4.57591052167117595672607421875</LongitudeDegrees>
            </Position>
            <AltitudeMeters>1173</AltitudeMeters>
            <DistanceMeters>NAN</DistanceMeters>
          </Trackpoint>
          <Trackpoint>
            <Time>2023-02-23T14:49:41.000Z</Time>
            <Position>
              <LatitudeDegrees>41.5807950496673583984375</LatitudeDegrees>
              <LongitudeDegrees>-4.57590146921575069427490234375</LongitudeDegrees>
            </Position>
            <AltitudeMeters>1173</AltitudeMeters>
            <DistanceMeters>NAN</DistanceMeters>
          </Trackpoint>
          <Trackpoint>
            <Time>2023-02-23T14:49:43.000Z</Time>
            <Position>
              <LatitudeDegrees>41.58081105910241603851318359375</LatitudeDegrees>
              <LongitudeDegrees>-4.575891830027103424072265625</LongitudeDegrees>
            </Position>
            <AltitudeMeters>1173</AltitudeMeters>
            <DistanceMeters>NAN</DistanceMeters>
          </Trackpoint>
          <Trackpoint>
            <Time>2023-02-23T14:49:44.000Z</Time>
            <Position>
              <LatitudeDegrees>41.58081315457820892333984375</LatitudeDegrees>
              <LongitudeDegrees>-4.57588805817067623138427734375</LongitudeDegrees>
            </Position>
            <AltitudeMeters>1173.199951171875</AltitudeMeters>
            <DistanceMeters>NAN</DistanceMeters>
          </Trackpoint>
          <Trackpoint>
            <Time>2023-02-23T14:49:46.000Z</Time>
            <Position>
              <LatitudeDegrees>41.58083469606935977935791015625</LatitudeDegrees>
              <LongitudeDegrees>-4.575895182788372039794921875</LongitudeDegrees>
            </Position>
            <AltitudeMeters>1173</AltitudeMeters>
            <DistanceMeters>NAN</DistanceMeters>
          </Trackpoint>
          <Trackpoint>
            <Time>2023-02-23T14:49:48.000Z</Time>
            <Position>
              <LatitudeDegrees>41.58085045404732227325439453125</LatitudeDegrees>
              <LongitudeDegrees>-4.575903899967670440673828125</LongitudeDegrees>
            </Position>
            <AltitudeMeters>1173.199951171875</AltitudeMeters>
            <DistanceMeters>NAN</DistanceMeters>
          </Trackpoint>
          <Trackpoint>
            <Time>2023-02-23T14:49:49.000Z</Time>
            <Position>
              <LatitudeDegrees>41.5808538906276226043701171875</LatitudeDegrees>
              <LongitudeDegrees>-4.57591806538403034210205078125</LongitudeDegrees>
            </Position>
            <AltitudeMeters>1173.199951171875</AltitudeMeters>
            <DistanceMeters>NAN</DistanceMeters>
          </Trackpoint>
          <Trackpoint>
            <Time>2023-02-23T14:49:50.000Z</Time>
            <Position>
              <LatitudeDegrees>41.58085632137954235076904296875</LatitudeDegrees>
              <LongitudeDegrees>-4.57593482919037342071533203125</LongitudeDegrees>
            </Position>
            <AltitudeMeters>1173.199951171875</AltitudeMeters>
            <DistanceMeters>NAN</DistanceMeters>
          </Trackpoint>
          <Trackpoint>
            <Time>2023-02-23T14:49:51.000Z</Time>
            <Position>
              <LatitudeDegrees>41.5808572433888912200927734375</LatitudeDegrees>
              <LongitudeDegrees>-4.57595293410122394561767578125</LongitudeDegrees>
            </Position>
            <AltitudeMeters>1173</AltitudeMeters>
            <DistanceMeters>NAN</DistanceMeters>
          </Trackpoint>
          <Trackpoint>
            <Time>2023-02-23T14:49:59.000Z</Time>
            <Position>
              <LatitudeDegrees>41.58088683150708675384521484375</LatitudeDegrees>
              <LongitudeDegrees>-4.57597975619137287139892578125</LongitudeDegrees>
            </Position>
            <AltitudeMeters>1172.5999755859375</AltitudeMeters>
            <DistanceMeters>NAN</DistanceMeters>
          </Trackpoint>
          <Trackpoint>
            <Time>2023-02-23T14:50:01.000Z</Time>
            <Position>
              <LatitudeDegrees>41.5808795392513275146484375</LatitudeDegrees>
              <LongitudeDegrees>-4.57599786110222339630126953125</LongitudeDegrees>
            </Position>
            <AltitudeMeters>1172.800048828125</AltitudeMeters>
            <DistanceMeters>NAN</DistanceMeters>
          </Trackpoint>
          <Trackpoint>
            <Time>2023-02-23T14:50:06.000Z</Time>
            <Position>
              <LatitudeDegrees>41.5808820538222789764404296875</LatitudeDegrees>
              <LongitudeDegrees>-4.57603164017200469970703125</LongitudeDegrees>
            </Position>
            <AltitudeMeters>1172.5999755859375</AltitudeMeters>
            <DistanceMeters>NAN</DistanceMeters>
          </Trackpoint>
          <Trackpoint>
            <Time>2023-02-23T14:50:13.000Z</Time>
            <Position>
              <LatitudeDegrees>41.5808371268212795257568359375</LatitudeDegrees>
              <LongitudeDegrees>-4.57607815973460674285888671875</LongitudeDegrees>
            </Position>
            <AltitudeMeters>1172.5999755859375</AltitudeMeters>
            <DistanceMeters>NAN</DistanceMeters>
          </Trackpoint>
          <Trackpoint>
            <Time>2023-02-23T14:50:20.000Z</Time>
            <Position>
              <LatitudeDegrees>41.58087216317653656005859375</LatitudeDegrees>
              <LongitudeDegrees>-4.57605670206248760223388671875</LongitudeDegrees>
            </Position>
            <AltitudeMeters>1172.5999755859375</AltitudeMeters>
            <DistanceMeters>NAN</DistanceMeters>
          </Trackpoint>
          <Trackpoint>
            <Time>2023-02-23T14:50:26.000Z</Time>
            <Position>
              <LatitudeDegrees>41.5808874182403087615966796875</LatitudeDegrees>
              <LongitudeDegrees>-4.57603474147617816925048828125</LongitudeDegrees>
            </Position>
            <AltitudeMeters>1172.5999755859375</AltitudeMeters>
            <DistanceMeters>NAN</DistanceMeters>
          </Trackpoint>
          <Trackpoint>
            <Time>2023-02-23T14:50:30.000Z</Time>
            <Position>
              <LatitudeDegrees>41.58087895251810550689697265625</LatitudeDegrees>
              <LongitudeDegrees>-4.57602350972592830657958984375</LongitudeDegrees>
            </Position>
            <AltitudeMeters>1172.199951171875</AltitudeMeters>
            <DistanceMeters>NAN</DistanceMeters>
          </Trackpoint>
          <Trackpoint>
            <Time>2023-02-23T14:50:34.000Z</Time>
            <Position>
              <LatitudeDegrees>41.58086218871176242828369140625</LatitudeDegrees>
              <LongitudeDegrees>-4.57602602429687976837158203125</LongitudeDegrees>
            </Position>
            <AltitudeMeters>1172.199951171875</AltitudeMeters>
            <DistanceMeters>NAN</DistanceMeters>
          </Trackpoint>
          <Trackpoint>
            <Time>2023-02-23T14:50:37.000Z</Time>
            <Position>
              <LatitudeDegrees>41.58085766248404979705810546875</LatitudeDegrees>
              <LongitudeDegrees>-4.576027281582355499267578125</LongitudeDegrees>
            </Position>
            <AltitudeMeters>1172</AltitudeMeters>
            <DistanceMeters>NAN</DistanceMeters>
          </Trackpoint>
          <Trackpoint>
            <Time>2023-02-23T14:50:43.000Z</Time>
            <Position>
              <LatitudeDegrees>41.58086369745433330535888671875</LatitudeDegrees>
              <LongitudeDegrees>-4.5760368369519710540771484375</LongitudeDegrees>
            </Position>
            <AltitudeMeters>1171.4000244140625</AltitudeMeters>
            <DistanceMeters>NAN</DistanceMeters>
          </Trackpoint>
          <Trackpoint>
            <Time>2023-02-23T14:50:53.000Z</Time>
            <Position>
              <LatitudeDegrees>41.5808740071952342987060546875</LatitudeDegrees>
              <LongitudeDegrees>-4.5760147087275981903076171875</LongitudeDegrees>
            </Position>
            <AltitudeMeters>1171.5999755859375</AltitudeMeters>
            <DistanceMeters>NAN</DistanceMeters>
          </Trackpoint>
          <Trackpoint>
            <Time>2023-02-23T14:51:00.000Z</Time>
            <Position>
              <LatitudeDegrees>41.58086738549172878265380859375</LatitudeDegrees>
              <LongitudeDegrees>-4.57600708119571208953857421875</LongitudeDegrees>
            </Position>
            <AltitudeMeters>1171.4000244140625</AltitudeMeters>
            <DistanceMeters>NAN</DistanceMeters>
          </Trackpoint>
          <Trackpoint>
            <Time>2023-02-23T14:51:04.000Z</Time>
            <Position>
              <LatitudeDegrees>41.58087224699556827545166015625</LatitudeDegrees>
              <LongitudeDegrees>-4.575996100902557373046875</LongitudeDegrees>
            </Position>
            <AltitudeMeters>1171.5999755859375</AltitudeMeters>
            <DistanceMeters>NAN</DistanceMeters>
          </Trackpoint>
          <Trackpoint>
            <Time>2023-02-23T14:51:06.000Z</Time>
            <Position>
              <LatitudeDegrees>41.58087057061493396759033203125</LatitudeDegrees>
              <LongitudeDegrees>-4.575995765626430511474609375</LongitudeDegrees>
            </Position>
            <AltitudeMeters>1171.5999755859375</AltitudeMeters>
            <DistanceMeters>NAN</DistanceMeters>
          </Trackpoint>
          <Trackpoint>
            <Time>2023-02-23T14:51:07.000Z</Time>
            <Position>
              <LatitudeDegrees>41.5808686427772045135498046875</LatitudeDegrees>
              <LongitudeDegrees>-4.57599677145481109619140625</LongitudeDegrees>
            </Position>
            <AltitudeMeters>1171.5999755859375</AltitudeMeters>
            <DistanceMeters>NAN</DistanceMeters>
          </Trackpoint>
        </Track>
      </Lap>
    </Activity>
  </Activities>
</TrainingCenterDatabase>
